<?xml version="1.0" encoding="UTF-8" standalone="no" ?>
<gpx xmlns="http://www.topografix.com/GPX/1/1" xmlns:xsi="http://www.w3.org/2001/XMLSchema-instance" xsi:schemaLocation="http://www.topografix.com/GPX/1/1 http://www.topografix.com/GPX/1/1/gpx.xsd" version="1.1" creator="VisuGPX - https://www.visugpx.com">
  <metadata>
    <name>balade</name>
    <desc><![CDATA[Accompagné d'un VTC]]></desc>
  </metadata>
  <trk>
    <name><![CDATA[2023 07 10 balade]]></name>
    <trkseg>
      <trkpt lat="45.83333" lon="4.70942">
        <ele>324.75336</ele>
        <time>2023-07-10T14:18:43.193Z</time>
      </trkpt>
      <trkpt lat="45.83331" lon="4.70945">
        <ele>322.9624</ele>
        <time>2023-07-10T14:19:07.000Z</time>
      </trkpt>
      <trkpt lat="45.83329" lon="4.7095">
        <ele>322.05298</ele>
        <time>2023-07-10T14:19:09.000Z</time>
      </trkpt>
      <trkpt lat="45.83327" lon="4.70954">
        <ele>321.31134</ele>
        <time>2023-07-10T14:19:10.000Z</time>
      </trkpt>
      <trkpt lat="45.83324" lon="4.70958">
        <ele>320.23978</ele>
        <time>2023-07-10T14:19:11.000Z</time>
      </trkpt>
      <trkpt lat="45.83322" lon="4.70961">
        <ele>319.52676</ele>
        <time>2023-07-10T14:19:12.000Z</time>
      </trkpt>
      <trkpt lat="45.83321" lon="4.70965">
        <ele>318.98715</ele>
        <time>2023-07-10T14:19:13.000Z</time>
      </trkpt>
      <trkpt lat="45.8332" lon="4.7097">
        <ele>318.54568</ele>
        <time>2023-07-10T14:19:14.000Z</time>
      </trkpt>
      <trkpt lat="45.83318" lon="4.70974">
        <ele>318.13947</ele>
        <time>2023-07-10T14:19:15.000Z</time>
      </trkpt>
      <trkpt lat="45.83317" lon="4.70978">
        <ele>317.7937</ele>
        <time>2023-07-10T14:19:16.000Z</time>
      </trkpt>
      <trkpt lat="45.83315" lon="4.70983">
        <ele>317.50323</ele>
        <time>2023-07-10T14:19:17.000Z</time>
      </trkpt>
      <trkpt lat="45.83313" lon="4.70988">
        <ele>317.23605</ele>
        <time>2023-07-10T14:19:18.000Z</time>
      </trkpt>
      <trkpt lat="45.83312" lon="4.70993">
        <ele>316.97162</ele>
        <time>2023-07-10T14:19:19.000Z</time>
      </trkpt>
      <trkpt lat="45.83316" lon="4.70996">
        <ele>316.72491</ele>
        <time>2023-07-10T14:19:20.000Z</time>
      </trkpt>
      <trkpt lat="45.83319" lon="4.70998">
        <ele>316.49219</ele>
        <time>2023-07-10T14:19:21.000Z</time>
      </trkpt>
      <trkpt lat="45.83322" lon="4.70998">
        <ele>316.39444</ele>
        <time>2023-07-10T14:19:22.000Z</time>
      </trkpt>
      <trkpt lat="45.83324" lon="4.70999">
        <ele>316.30246</ele>
        <time>2023-07-10T14:19:23.000Z</time>
      </trkpt>
      <trkpt lat="45.83327" lon="4.70999">
        <ele>316.20557</ele>
        <time>2023-07-10T14:19:24.000Z</time>
      </trkpt>
      <trkpt lat="45.8333" lon="4.70999">
        <ele>316.12061</ele>
        <time>2023-07-10T14:19:25.000Z</time>
      </trkpt>
      <trkpt lat="45.83333" lon="4.70998">
        <ele>316.03201</ele>
        <time>2023-07-10T14:19:26.000Z</time>
      </trkpt>
      <trkpt lat="45.83336" lon="4.70998">
        <ele>315.51031</ele>
        <time>2023-07-10T14:19:27.000Z</time>
      </trkpt>
      <trkpt lat="45.83338" lon="4.70998">
        <ele>315.14761</ele>
        <time>2023-07-10T14:19:28.000Z</time>
      </trkpt>
      <trkpt lat="45.83342" lon="4.70999">
        <ele>314.94974</ele>
        <time>2023-07-10T14:19:30.000Z</time>
      </trkpt>
      <trkpt lat="45.83344" lon="4.70998">
        <ele>314.85391</ele>
        <time>2023-07-10T14:19:31.000Z</time>
      </trkpt>
      <trkpt lat="45.83346" lon="4.70998">
        <ele>314.96088</ele>
        <time>2023-07-10T14:19:32.000Z</time>
      </trkpt>
      <trkpt lat="45.83348" lon="4.70997">
        <ele>315.02194</ele>
        <time>2023-07-10T14:19:33.000Z</time>
      </trkpt>
      <trkpt lat="45.83351" lon="4.70997">
        <ele>315.07813</ele>
        <time>2023-07-10T14:19:34.000Z</time>
      </trkpt>
      <trkpt lat="45.83353" lon="4.70997">
        <ele>315.117</ele>
        <time>2023-07-10T14:19:35.000Z</time>
      </trkpt>
      <trkpt lat="45.83355" lon="4.70996">
        <ele>315.16144</ele>
        <time>2023-07-10T14:19:36.000Z</time>
      </trkpt>
      <trkpt lat="45.83359" lon="4.70995">
        <ele>315.18829</ele>
        <time>2023-07-10T14:19:37.000Z</time>
      </trkpt>
      <trkpt lat="45.83363" lon="4.70994">
        <ele>315.14682</ele>
        <time>2023-07-10T14:19:38.000Z</time>
      </trkpt>
      <trkpt lat="45.83366" lon="4.70994">
        <ele>315.1445</ele>
        <time>2023-07-10T14:19:39.000Z</time>
      </trkpt>
      <trkpt lat="45.83369" lon="4.70994">
        <ele>315.1387</ele>
        <time>2023-07-10T14:19:40.000Z</time>
      </trkpt>
      <trkpt lat="45.83373" lon="4.70993">
        <ele>315.32669</ele>
        <time>2023-07-10T14:19:41.000Z</time>
      </trkpt>
      <trkpt lat="45.83376" lon="4.70993">
        <ele>315.47849</ele>
        <time>2023-07-10T14:19:42.000Z</time>
      </trkpt>
      <trkpt lat="45.8338" lon="4.70993">
        <ele>315.59088</ele>
        <time>2023-07-10T14:19:43.000Z</time>
      </trkpt>
      <trkpt lat="45.83383" lon="4.70992">
        <ele>315.70917</ele>
        <time>2023-07-10T14:19:44.000Z</time>
      </trkpt>
      <trkpt lat="45.83387" lon="4.70992">
        <ele>315.60904</ele>
        <time>2023-07-10T14:19:45.000Z</time>
      </trkpt>
      <trkpt lat="45.8339" lon="4.70991">
        <ele>315.61444</ele>
        <time>2023-07-10T14:19:46.000Z</time>
      </trkpt>
      <trkpt lat="45.83394" lon="4.7099">
        <ele>315.65744</ele>
        <time>2023-07-10T14:19:47.000Z</time>
      </trkpt>
      <trkpt lat="45.83398" lon="4.7099">
        <ele>315.66586</ele>
        <time>2023-07-10T14:19:48.000Z</time>
      </trkpt>
      <trkpt lat="45.83401" lon="4.70989">
        <ele>315.5228</ele>
        <time>2023-07-10T14:19:49.000Z</time>
      </trkpt>
      <trkpt lat="45.83404" lon="4.70989">
        <ele>315.28003</ele>
        <time>2023-07-10T14:19:50.000Z</time>
      </trkpt>
      <trkpt lat="45.83407" lon="4.70988">
        <ele>315.07513</ele>
        <time>2023-07-10T14:19:51.000Z</time>
      </trkpt>
      <trkpt lat="45.8341" lon="4.70988">
        <ele>314.81952</ele>
        <time>2023-07-10T14:19:52.000Z</time>
      </trkpt>
      <trkpt lat="45.83414" lon="4.70987">
        <ele>314.65775</ele>
        <time>2023-07-10T14:19:53.000Z</time>
      </trkpt>
      <trkpt lat="45.83417" lon="4.70986">
        <ele>314.50049</ele>
        <time>2023-07-10T14:19:54.000Z</time>
      </trkpt>
      <trkpt lat="45.83421" lon="4.70986">
        <ele>314.17767</ele>
        <time>2023-07-10T14:19:55.000Z</time>
      </trkpt>
      <trkpt lat="45.83424" lon="4.70986">
        <ele>313.90384</ele>
        <time>2023-07-10T14:19:56.000Z</time>
      </trkpt>
      <trkpt lat="45.83427" lon="4.70986">
        <ele>313.67389</ele>
        <time>2023-07-10T14:19:57.000Z</time>
      </trkpt>
      <trkpt lat="45.83431" lon="4.70986">
        <ele>313.49911</ele>
        <time>2023-07-10T14:19:58.000Z</time>
      </trkpt>
      <trkpt lat="45.83434" lon="4.70986">
        <ele>313.29999</ele>
        <time>2023-07-10T14:19:59.000Z</time>
      </trkpt>
      <trkpt lat="45.83438" lon="4.70987">
        <ele>313.06659</ele>
        <time>2023-07-10T14:20:00.000Z</time>
      </trkpt>
      <trkpt lat="45.83441" lon="4.70987">
        <ele>312.65482</ele>
        <time>2023-07-10T14:20:01.000Z</time>
      </trkpt>
      <trkpt lat="45.83445" lon="4.70988">
        <ele>312.30032</ele>
        <time>2023-07-10T14:20:02.000Z</time>
      </trkpt>
      <trkpt lat="45.83449" lon="4.70988">
        <ele>311.91223</ele>
        <time>2023-07-10T14:20:03.000Z</time>
      </trkpt>
      <trkpt lat="45.83454" lon="4.70989">
        <ele>311.50528</ele>
        <time>2023-07-10T14:20:04.000Z</time>
      </trkpt>
      <trkpt lat="45.83458" lon="4.70989">
        <ele>311.36902</ele>
        <time>2023-07-10T14:20:05.000Z</time>
      </trkpt>
      <trkpt lat="45.83461" lon="4.70989">
        <ele>311.12946</ele>
        <time>2023-07-10T14:20:06.000Z</time>
      </trkpt>
      <trkpt lat="45.83465" lon="4.70989">
        <ele>310.888</ele>
        <time>2023-07-10T14:20:07.000Z</time>
      </trkpt>
      <trkpt lat="45.83469" lon="4.70989">
        <ele>310.77863</ele>
        <time>2023-07-10T14:20:08.000Z</time>
      </trkpt>
      <trkpt lat="45.83473" lon="4.70988">
        <ele>311.04547</ele>
        <time>2023-07-10T14:20:09.000Z</time>
      </trkpt>
      <trkpt lat="45.83476" lon="4.70988">
        <ele>311.19708</ele>
        <time>2023-07-10T14:20:10.000Z</time>
      </trkpt>
      <trkpt lat="45.8348" lon="4.70988">
        <ele>311.31305</ele>
        <time>2023-07-10T14:20:11.000Z</time>
      </trkpt>
      <trkpt lat="45.83484" lon="4.70989">
        <ele>311.47479</ele>
        <time>2023-07-10T14:20:12.000Z</time>
      </trkpt>
      <trkpt lat="45.83489" lon="4.70989">
        <ele>311.77231</ele>
        <time>2023-07-10T14:20:13.000Z</time>
      </trkpt>
      <trkpt lat="45.83494" lon="4.70991">
        <ele>311.99249</ele>
        <time>2023-07-10T14:20:14.000Z</time>
      </trkpt>
      <trkpt lat="45.83497" lon="4.70992">
        <ele>312.40659</ele>
        <time>2023-07-10T14:20:15.000Z</time>
      </trkpt>
      <trkpt lat="45.83502" lon="4.70993">
        <ele>312.77063</ele>
        <time>2023-07-10T14:20:16.000Z</time>
      </trkpt>
      <trkpt lat="45.83508" lon="4.70995">
        <ele>312.86957</ele>
        <time>2023-07-10T14:20:17.000Z</time>
      </trkpt>
      <trkpt lat="45.83513" lon="4.70999">
        <ele>312.95908</ele>
        <time>2023-07-10T14:20:18.000Z</time>
      </trkpt>
      <trkpt lat="45.83517" lon="4.71002">
        <ele>313.00565</ele>
        <time>2023-07-10T14:20:19.000Z</time>
      </trkpt>
      <trkpt lat="45.83521" lon="4.71006">
        <ele>313.20523</ele>
        <time>2023-07-10T14:20:20.000Z</time>
      </trkpt>
      <trkpt lat="45.83527" lon="4.71009">
        <ele>313.58713</ele>
        <time>2023-07-10T14:20:21.000Z</time>
      </trkpt>
      <trkpt lat="45.83532" lon="4.71011">
        <ele>313.83432</ele>
        <time>2023-07-10T14:20:22.000Z</time>
      </trkpt>
      <trkpt lat="45.83536" lon="4.71014">
        <ele>313.93597</ele>
        <time>2023-07-10T14:20:23.000Z</time>
      </trkpt>
      <trkpt lat="45.8354" lon="4.71017">
        <ele>314.08441</ele>
        <time>2023-07-10T14:20:24.000Z</time>
      </trkpt>
      <trkpt lat="45.83545" lon="4.7102">
        <ele>314.24371</ele>
        <time>2023-07-10T14:20:25.000Z</time>
      </trkpt>
      <trkpt lat="45.83548" lon="4.71025">
        <ele>314.35663</ele>
        <time>2023-07-10T14:20:26.000Z</time>
      </trkpt>
      <trkpt lat="45.83553" lon="4.71028">
        <ele>314.4433</ele>
        <time>2023-07-10T14:20:27.000Z</time>
      </trkpt>
      <trkpt lat="45.83557" lon="4.71032">
        <ele>314.44287</ele>
        <time>2023-07-10T14:20:28.000Z</time>
      </trkpt>
      <trkpt lat="45.83562" lon="4.71036">
        <ele>314.44415</ele>
        <time>2023-07-10T14:20:29.000Z</time>
      </trkpt>
      <trkpt lat="45.83567" lon="4.71039">
        <ele>314.65878</ele>
        <time>2023-07-10T14:20:30.000Z</time>
      </trkpt>
      <trkpt lat="45.83572" lon="4.71041">
        <ele>314.43207</ele>
        <time>2023-07-10T14:20:31.000Z</time>
      </trkpt>
      <trkpt lat="45.83577" lon="4.71042">
        <ele>313.94574</ele>
        <time>2023-07-10T14:20:32.000Z</time>
      </trkpt>
      <trkpt lat="45.83582" lon="4.71045">
        <ele>313.26172</ele>
        <time>2023-07-10T14:20:33.000Z</time>
      </trkpt>
      <trkpt lat="45.83587" lon="4.71049">
        <ele>312.6644</ele>
        <time>2023-07-10T14:20:34.000Z</time>
      </trkpt>
      <trkpt lat="45.83592" lon="4.71052">
        <ele>312.04462</ele>
        <time>2023-07-10T14:20:35.000Z</time>
      </trkpt>
      <trkpt lat="45.83597" lon="4.71056">
        <ele>311.44312</ele>
        <time>2023-07-10T14:20:36.000Z</time>
      </trkpt>
      <trkpt lat="45.83602" lon="4.71058">
        <ele>311.07587</ele>
        <time>2023-07-10T14:20:37.000Z</time>
      </trkpt>
      <trkpt lat="45.83606" lon="4.71062">
        <ele>310.74823</ele>
        <time>2023-07-10T14:20:38.000Z</time>
      </trkpt>
      <trkpt lat="45.83611" lon="4.71066">
        <ele>310.44028</ele>
        <time>2023-07-10T14:20:39.000Z</time>
      </trkpt>
      <trkpt lat="45.83616" lon="4.71071">
        <ele>310.02148</ele>
        <time>2023-07-10T14:20:40.000Z</time>
      </trkpt>
      <trkpt lat="45.83622" lon="4.71075">
        <ele>309.39645</ele>
        <time>2023-07-10T14:20:41.000Z</time>
      </trkpt>
      <trkpt lat="45.83627" lon="4.7108">
        <ele>308.8533</ele>
        <time>2023-07-10T14:20:42.000Z</time>
      </trkpt>
      <trkpt lat="45.83632" lon="4.71086">
        <ele>308.98993</ele>
        <time>2023-07-10T14:20:43.000Z</time>
      </trkpt>
      <trkpt lat="45.83638" lon="4.71091">
        <ele>308.79938</ele>
        <time>2023-07-10T14:20:44.000Z</time>
      </trkpt>
      <trkpt lat="45.83643" lon="4.71097">
        <ele>308.5517</ele>
        <time>2023-07-10T14:20:45.000Z</time>
      </trkpt>
      <trkpt lat="45.83649" lon="4.71103">
        <ele>308.33264</ele>
        <time>2023-07-10T14:20:46.000Z</time>
      </trkpt>
      <trkpt lat="45.83655" lon="4.71109">
        <ele>308.09357</ele>
        <time>2023-07-10T14:20:47.000Z</time>
      </trkpt>
      <trkpt lat="45.83661" lon="4.71114">
        <ele>307.8443</ele>
        <time>2023-07-10T14:20:48.000Z</time>
      </trkpt>
      <trkpt lat="45.83668" lon="4.71119">
        <ele>307.38129</ele>
        <time>2023-07-10T14:20:49.000Z</time>
      </trkpt>
      <trkpt lat="45.83673" lon="4.71125">
        <ele>306.7854</ele>
        <time>2023-07-10T14:20:50.000Z</time>
      </trkpt>
      <trkpt lat="45.83679" lon="4.71131">
        <ele>306.55936</ele>
        <time>2023-07-10T14:20:51.000Z</time>
      </trkpt>
      <trkpt lat="45.83684" lon="4.71136">
        <ele>306.55411</ele>
        <time>2023-07-10T14:20:52.000Z</time>
      </trkpt>
      <trkpt lat="45.83689" lon="4.7114">
        <ele>306.56134</ele>
        <time>2023-07-10T14:20:53.000Z</time>
      </trkpt>
      <trkpt lat="45.83694" lon="4.71143">
        <ele>306.58365</ele>
        <time>2023-07-10T14:20:54.000Z</time>
      </trkpt>
      <trkpt lat="45.83698" lon="4.71147">
        <ele>306.59818</ele>
        <time>2023-07-10T14:20:55.000Z</time>
      </trkpt>
      <trkpt lat="45.837" lon="4.71152">
        <ele>306.31107</ele>
        <time>2023-07-10T14:20:56.000Z</time>
      </trkpt>
      <trkpt lat="45.83699" lon="4.71157">
        <ele>306.03754</ele>
        <time>2023-07-10T14:20:57.000Z</time>
      </trkpt>
      <trkpt lat="45.83697" lon="4.71162">
        <ele>305.78604</ele>
        <time>2023-07-10T14:20:58.000Z</time>
      </trkpt>
      <trkpt lat="45.83695" lon="4.71168">
        <ele>305.5401</ele>
        <time>2023-07-10T14:20:59.000Z</time>
      </trkpt>
      <trkpt lat="45.83693" lon="4.71173">
        <ele>305.34039</ele>
        <time>2023-07-10T14:21:00.000Z</time>
      </trkpt>
      <trkpt lat="45.83691" lon="4.71178">
        <ele>305.16504</ele>
        <time>2023-07-10T14:21:01.000Z</time>
      </trkpt>
      <trkpt lat="45.8369" lon="4.71183">
        <ele>305.16049</ele>
        <time>2023-07-10T14:21:02.000Z</time>
      </trkpt>
      <trkpt lat="45.83689" lon="4.71188">
        <ele>304.70511</ele>
        <time>2023-07-10T14:21:03.000Z</time>
      </trkpt>
      <trkpt lat="45.83687" lon="4.71194">
        <ele>304.58691</ele>
        <time>2023-07-10T14:21:04.000Z</time>
      </trkpt>
      <trkpt lat="45.83685" lon="4.71199">
        <ele>304.20477</ele>
        <time>2023-07-10T14:21:05.000Z</time>
      </trkpt>
      <trkpt lat="45.83684" lon="4.71203">
        <ele>303.96576</ele>
        <time>2023-07-10T14:21:06.000Z</time>
      </trkpt>
      <trkpt lat="45.83683" lon="4.71207">
        <ele>303.70474</ele>
        <time>2023-07-10T14:21:07.000Z</time>
      </trkpt>
      <trkpt lat="45.83681" lon="4.71212">
        <ele>303.49759</ele>
        <time>2023-07-10T14:21:08.000Z</time>
      </trkpt>
      <trkpt lat="45.8368" lon="4.71217">
        <ele>303.28302</ele>
        <time>2023-07-10T14:21:09.000Z</time>
      </trkpt>
      <trkpt lat="45.83679" lon="4.71222">
        <ele>303.07806</ele>
        <time>2023-07-10T14:21:10.000Z</time>
      </trkpt>
      <trkpt lat="45.83678" lon="4.71228">
        <ele>302.86072</ele>
        <time>2023-07-10T14:21:11.000Z</time>
      </trkpt>
      <trkpt lat="45.83677" lon="4.71233">
        <ele>302.63889</ele>
        <time>2023-07-10T14:21:12.000Z</time>
      </trkpt>
      <trkpt lat="45.83675" lon="4.71239">
        <ele>302.48099</ele>
        <time>2023-07-10T14:21:13.000Z</time>
      </trkpt>
      <trkpt lat="45.83674" lon="4.71245">
        <ele>302.29459</ele>
        <time>2023-07-10T14:21:14.000Z</time>
      </trkpt>
      <trkpt lat="45.83673" lon="4.71251">
        <ele>302.12863</ele>
        <time>2023-07-10T14:21:15.000Z</time>
      </trkpt>
      <trkpt lat="45.83673" lon="4.71256">
        <ele>302.27301</ele>
        <time>2023-07-10T14:21:16.000Z</time>
      </trkpt>
      <trkpt lat="45.83672" lon="4.71261">
        <ele>302.4343</ele>
        <time>2023-07-10T14:21:17.000Z</time>
      </trkpt>
      <trkpt lat="45.83671" lon="4.71267">
        <ele>302.60211</ele>
        <time>2023-07-10T14:21:18.000Z</time>
      </trkpt>
      <trkpt lat="45.83671" lon="4.71272">
        <ele>302.79227</ele>
        <time>2023-07-10T14:21:19.000Z</time>
      </trkpt>
      <trkpt lat="45.8367" lon="4.71278">
        <ele>302.77753</ele>
        <time>2023-07-10T14:21:20.000Z</time>
      </trkpt>
      <trkpt lat="45.83668" lon="4.71283">
        <ele>302.71756</ele>
        <time>2023-07-10T14:21:21.000Z</time>
      </trkpt>
      <trkpt lat="45.83667" lon="4.71289">
        <ele>302.51239</ele>
        <time>2023-07-10T14:21:22.000Z</time>
      </trkpt>
      <trkpt lat="45.83665" lon="4.71294">
        <ele>302.19226</ele>
        <time>2023-07-10T14:21:23.000Z</time>
      </trkpt>
      <trkpt lat="45.83664" lon="4.713">
        <ele>301.83173</ele>
        <time>2023-07-10T14:21:24.000Z</time>
      </trkpt>
      <trkpt lat="45.83663" lon="4.71305">
        <ele>301.7243</ele>
        <time>2023-07-10T14:21:25.000Z</time>
      </trkpt>
      <trkpt lat="45.83661" lon="4.71311">
        <ele>301.49994</ele>
        <time>2023-07-10T14:21:26.000Z</time>
      </trkpt>
      <trkpt lat="45.8366" lon="4.71317">
        <ele>301.2825</ele>
        <time>2023-07-10T14:21:27.000Z</time>
      </trkpt>
      <trkpt lat="45.83659" lon="4.71323">
        <ele>301.06937</ele>
        <time>2023-07-10T14:21:28.000Z</time>
      </trkpt>
      <trkpt lat="45.83658" lon="4.71329">
        <ele>300.87369</ele>
        <time>2023-07-10T14:21:29.000Z</time>
      </trkpt>
      <trkpt lat="45.83656" lon="4.71335">
        <ele>300.67368</ele>
        <time>2023-07-10T14:21:30.000Z</time>
      </trkpt>
      <trkpt lat="45.83655" lon="4.71341">
        <ele>300.49701</ele>
        <time>2023-07-10T14:21:31.000Z</time>
      </trkpt>
      <trkpt lat="45.83653" lon="4.71346">
        <ele>300.32718</ele>
        <time>2023-07-10T14:21:32.000Z</time>
      </trkpt>
      <trkpt lat="45.83652" lon="4.71351">
        <ele>300.06693</ele>
        <time>2023-07-10T14:21:33.000Z</time>
      </trkpt>
      <trkpt lat="45.8365" lon="4.71354">
        <ele>299.828</ele>
        <time>2023-07-10T14:21:34.000Z</time>
      </trkpt>
      <trkpt lat="45.83648" lon="4.71356">
        <ele>299.62109</ele>
        <time>2023-07-10T14:21:35.000Z</time>
      </trkpt>
      <trkpt lat="45.83646" lon="4.71359">
        <ele>299.43515</ele>
        <time>2023-07-10T14:21:36.000Z</time>
      </trkpt>
      <trkpt lat="45.83646" lon="4.71363">
        <ele>299.21967</ele>
        <time>2023-07-10T14:21:37.000Z</time>
      </trkpt>
      <trkpt lat="45.83647" lon="4.71366">
        <ele>299.08508</ele>
        <time>2023-07-10T14:21:38.000Z</time>
      </trkpt>
      <trkpt lat="45.83647" lon="4.71369">
        <ele>298.93793</ele>
        <time>2023-07-10T14:21:39.000Z</time>
      </trkpt>
      <trkpt lat="45.83647" lon="4.71373">
        <ele>298.97699</ele>
        <time>2023-07-10T14:21:40.000Z</time>
      </trkpt>
      <trkpt lat="45.83646" lon="4.71376">
        <ele>299.06506</ele>
        <time>2023-07-10T14:21:41.000Z</time>
      </trkpt>
      <trkpt lat="45.83645" lon="4.71379">
        <ele>299.18668</ele>
        <time>2023-07-10T14:21:42.000Z</time>
      </trkpt>
      <trkpt lat="45.83644" lon="4.71383">
        <ele>299.43811</ele>
        <time>2023-07-10T14:21:43.000Z</time>
      </trkpt>
      <trkpt lat="45.83643" lon="4.71385">
        <ele>299.69669</ele>
        <time>2023-07-10T14:21:44.000Z</time>
      </trkpt>
      <trkpt lat="45.83641" lon="4.71389">
        <ele>299.69229</ele>
        <time>2023-07-10T14:21:46.000Z</time>
      </trkpt>
      <trkpt lat="45.83641" lon="4.71392">
        <ele>299.67755</ele>
        <time>2023-07-10T14:21:48.000Z</time>
      </trkpt>
      <trkpt lat="45.83642" lon="4.71397">
        <ele>299.70074</ele>
        <time>2023-07-10T14:23:01.000Z</time>
      </trkpt>
      <trkpt lat="45.83642" lon="4.714">
        <ele>299.66391</ele>
        <time>2023-07-10T14:23:02.000Z</time>
      </trkpt>
      <trkpt lat="45.83641" lon="4.71404">
        <ele>299.62601</ele>
        <time>2023-07-10T14:23:03.000Z</time>
      </trkpt>
      <trkpt lat="45.8364" lon="4.71408">
        <ele>299.61224</ele>
        <time>2023-07-10T14:23:04.000Z</time>
      </trkpt>
      <trkpt lat="45.83639" lon="4.71412">
        <ele>299.61328</ele>
        <time>2023-07-10T14:23:05.000Z</time>
      </trkpt>
      <trkpt lat="45.83638" lon="4.71417">
        <ele>299.61444</ele>
        <time>2023-07-10T14:23:06.000Z</time>
      </trkpt>
      <trkpt lat="45.83637" lon="4.71422">
        <ele>299.64288</ele>
        <time>2023-07-10T14:23:07.000Z</time>
      </trkpt>
      <trkpt lat="45.83636" lon="4.71427">
        <ele>299.64545</ele>
        <time>2023-07-10T14:23:08.000Z</time>
      </trkpt>
      <trkpt lat="45.83635" lon="4.71432">
        <ele>299.64801</ele>
        <time>2023-07-10T14:23:09.000Z</time>
      </trkpt>
      <trkpt lat="45.83634" lon="4.71437">
        <ele>299.61261</ele>
        <time>2023-07-10T14:23:10.000Z</time>
      </trkpt>
      <trkpt lat="45.83632" lon="4.71442">
        <ele>299.59439</ele>
        <time>2023-07-10T14:23:11.000Z</time>
      </trkpt>
      <trkpt lat="45.83631" lon="4.71447">
        <ele>299.4603</ele>
        <time>2023-07-10T14:23:12.000Z</time>
      </trkpt>
      <trkpt lat="45.83629" lon="4.71452">
        <ele>299.47943</ele>
        <time>2023-07-10T14:23:13.000Z</time>
      </trkpt>
      <trkpt lat="45.83627" lon="4.71457">
        <ele>299.48282</ele>
        <time>2023-07-10T14:23:14.000Z</time>
      </trkpt>
      <trkpt lat="45.83625" lon="4.71462">
        <ele>299.48688</ele>
        <time>2023-07-10T14:23:15.000Z</time>
      </trkpt>
      <trkpt lat="45.83623" lon="4.71467">
        <ele>299.56387</ele>
        <time>2023-07-10T14:23:16.000Z</time>
      </trkpt>
      <trkpt lat="45.8362" lon="4.71472">
        <ele>299.51175</ele>
        <time>2023-07-10T14:23:17.000Z</time>
      </trkpt>
      <trkpt lat="45.83618" lon="4.71476">
        <ele>299.14526</ele>
        <time>2023-07-10T14:23:18.000Z</time>
      </trkpt>
      <trkpt lat="45.83616" lon="4.71479">
        <ele>299.13232</ele>
        <time>2023-07-10T14:23:19.000Z</time>
      </trkpt>
      <trkpt lat="45.83614" lon="4.71481">
        <ele>299.12592</ele>
        <time>2023-07-10T14:23:20.000Z</time>
      </trkpt>
      <trkpt lat="45.83612" lon="4.71482">
        <ele>299.13116</ele>
        <time>2023-07-10T14:23:21.000Z</time>
      </trkpt>
      <trkpt lat="45.83609" lon="4.71485">
        <ele>299.12994</ele>
        <time>2023-07-10T14:23:23.000Z</time>
      </trkpt>
      <trkpt lat="45.83607" lon="4.71487">
        <ele>299.12653</ele>
        <time>2023-07-10T14:23:24.000Z</time>
      </trkpt>
      <trkpt lat="45.83606" lon="4.7149">
        <ele>299.10986</ele>
        <time>2023-07-10T14:23:25.000Z</time>
      </trkpt>
      <trkpt lat="45.83605" lon="4.71494">
        <ele>299.16562</ele>
        <time>2023-07-10T14:23:26.000Z</time>
      </trkpt>
      <trkpt lat="45.83605" lon="4.71498">
        <ele>299.21988</ele>
        <time>2023-07-10T14:23:27.000Z</time>
      </trkpt>
      <trkpt lat="45.83605" lon="4.71503">
        <ele>299.20819</ele>
        <time>2023-07-10T14:23:28.000Z</time>
      </trkpt>
      <trkpt lat="45.83606" lon="4.71509">
        <ele>299.22198</ele>
        <time>2023-07-10T14:23:29.000Z</time>
      </trkpt>
      <trkpt lat="45.83611" lon="4.71515">
        <ele>299.2594</ele>
        <time>2023-07-10T14:23:30.000Z</time>
      </trkpt>
      <trkpt lat="45.83614" lon="4.7152">
        <ele>299.33163</ele>
        <time>2023-07-10T14:23:31.000Z</time>
      </trkpt>
      <trkpt lat="45.83616" lon="4.71526">
        <ele>299.44135</ele>
        <time>2023-07-10T14:23:32.000Z</time>
      </trkpt>
      <trkpt lat="45.83617" lon="4.71531">
        <ele>299.55048</ele>
        <time>2023-07-10T14:23:33.000Z</time>
      </trkpt>
      <trkpt lat="45.83619" lon="4.71537">
        <ele>299.49701</ele>
        <time>2023-07-10T14:23:34.000Z</time>
      </trkpt>
      <trkpt lat="45.83618" lon="4.71542">
        <ele>299.43246</ele>
        <time>2023-07-10T14:23:35.000Z</time>
      </trkpt>
      <trkpt lat="45.83619" lon="4.71548">
        <ele>299.32809</ele>
        <time>2023-07-10T14:23:36.000Z</time>
      </trkpt>
      <trkpt lat="45.83619" lon="4.71553">
        <ele>299.13034</ele>
        <time>2023-07-10T14:23:37.000Z</time>
      </trkpt>
      <trkpt lat="45.83618" lon="4.71558">
        <ele>298.92712</ele>
        <time>2023-07-10T14:23:38.000Z</time>
      </trkpt>
      <trkpt lat="45.83618" lon="4.71563">
        <ele>299.00946</ele>
        <time>2023-07-10T14:23:39.000Z</time>
      </trkpt>
      <trkpt lat="45.83617" lon="4.71568">
        <ele>298.97922</ele>
        <time>2023-07-10T14:23:40.000Z</time>
      </trkpt>
      <trkpt lat="45.83617" lon="4.71572">
        <ele>299.01593</ele>
        <time>2023-07-10T14:23:41.000Z</time>
      </trkpt>
      <trkpt lat="45.83617" lon="4.71577">
        <ele>299.05536</ele>
        <time>2023-07-10T14:23:42.000Z</time>
      </trkpt>
      <trkpt lat="45.83616" lon="4.71581">
        <ele>299.1828</ele>
        <time>2023-07-10T14:23:43.000Z</time>
      </trkpt>
      <trkpt lat="45.83616" lon="4.71584">
        <ele>299.4411</ele>
        <time>2023-07-10T14:23:44.000Z</time>
      </trkpt>
      <trkpt lat="45.83618" lon="4.71589">
        <ele>299.55078</ele>
        <time>2023-07-10T14:23:46.000Z</time>
      </trkpt>
      <trkpt lat="45.83619" lon="4.71592">
        <ele>299.55695</ele>
        <time>2023-07-10T14:23:47.000Z</time>
      </trkpt>
      <trkpt lat="45.8362" lon="4.71596">
        <ele>299.59979</ele>
        <time>2023-07-10T14:23:48.000Z</time>
      </trkpt>
      <trkpt lat="45.83621" lon="4.71599">
        <ele>299.92154</ele>
        <time>2023-07-10T14:23:49.000Z</time>
      </trkpt>
      <trkpt lat="45.83623" lon="4.71603">
        <ele>300.32407</ele>
        <time>2023-07-10T14:23:50.000Z</time>
      </trkpt>
      <trkpt lat="45.83624" lon="4.71607">
        <ele>300.2684</ele>
        <time>2023-07-10T14:23:51.000Z</time>
      </trkpt>
      <trkpt lat="45.83625" lon="4.7161">
        <ele>300.21756</ele>
        <time>2023-07-10T14:23:52.000Z</time>
      </trkpt>
      <trkpt lat="45.83627" lon="4.71614">
        <ele>300.04901</ele>
        <time>2023-07-10T14:23:53.000Z</time>
      </trkpt>
      <trkpt lat="45.83628" lon="4.71618">
        <ele>299.79385</ele>
        <time>2023-07-10T14:23:54.000Z</time>
      </trkpt>
      <trkpt lat="45.83629" lon="4.71622">
        <ele>299.61261</ele>
        <time>2023-07-10T14:23:55.000Z</time>
      </trkpt>
      <trkpt lat="45.8363" lon="4.71626">
        <ele>299.33688</ele>
        <time>2023-07-10T14:23:56.000Z</time>
      </trkpt>
      <trkpt lat="45.83632" lon="4.7163">
        <ele>299.07382</ele>
        <time>2023-07-10T14:23:57.000Z</time>
      </trkpt>
      <trkpt lat="45.83633" lon="4.71634">
        <ele>298.83292</ele>
        <time>2023-07-10T14:23:58.000Z</time>
      </trkpt>
      <trkpt lat="45.83636" lon="4.71638">
        <ele>298.71906</ele>
        <time>2023-07-10T14:23:59.000Z</time>
      </trkpt>
      <trkpt lat="45.83638" lon="4.71641">
        <ele>298.57523</ele>
        <time>2023-07-10T14:24:00.000Z</time>
      </trkpt>
      <trkpt lat="45.8364" lon="4.71644">
        <ele>298.47726</ele>
        <time>2023-07-10T14:24:01.000Z</time>
      </trkpt>
      <trkpt lat="45.83643" lon="4.71647">
        <ele>298.2338</ele>
        <time>2023-07-10T14:24:02.000Z</time>
      </trkpt>
      <trkpt lat="45.83646" lon="4.71649">
        <ele>298.06549</ele>
        <time>2023-07-10T14:24:03.000Z</time>
      </trkpt>
      <trkpt lat="45.8365" lon="4.71651">
        <ele>297.78778</ele>
        <time>2023-07-10T14:24:04.000Z</time>
      </trkpt>
      <trkpt lat="45.83654" lon="4.71653">
        <ele>297.29117</ele>
        <time>2023-07-10T14:24:05.000Z</time>
      </trkpt>
      <trkpt lat="45.83658" lon="4.71653">
        <ele>297.11066</ele>
        <time>2023-07-10T14:24:06.000Z</time>
      </trkpt>
      <trkpt lat="45.83662" lon="4.71654">
        <ele>296.88403</ele>
        <time>2023-07-10T14:24:07.000Z</time>
      </trkpt>
      <trkpt lat="45.83666" lon="4.71654">
        <ele>296.72739</ele>
        <time>2023-07-10T14:24:08.000Z</time>
      </trkpt>
      <trkpt lat="45.83669" lon="4.71654">
        <ele>296.50757</ele>
        <time>2023-07-10T14:24:09.000Z</time>
      </trkpt>
      <trkpt lat="45.83673" lon="4.71653">
        <ele>296.21271</ele>
        <time>2023-07-10T14:24:10.000Z</time>
      </trkpt>
      <trkpt lat="45.83677" lon="4.71652">
        <ele>296.30206</ele>
        <time>2023-07-10T14:24:11.000Z</time>
      </trkpt>
      <trkpt lat="45.83681" lon="4.7165">
        <ele>296.17853</ele>
        <time>2023-07-10T14:24:12.000Z</time>
      </trkpt>
      <trkpt lat="45.83686" lon="4.71648">
        <ele>296.04858</ele>
        <time>2023-07-10T14:24:13.000Z</time>
      </trkpt>
      <trkpt lat="45.8369" lon="4.71645">
        <ele>296.03244</ele>
        <time>2023-07-10T14:24:14.000Z</time>
      </trkpt>
      <trkpt lat="45.83694" lon="4.71643">
        <ele>296.00714</ele>
        <time>2023-07-10T14:24:15.000Z</time>
      </trkpt>
      <trkpt lat="45.83698" lon="4.71643">
        <ele>296.16891</ele>
        <time>2023-07-10T14:24:16.000Z</time>
      </trkpt>
      <trkpt lat="45.83702" lon="4.71645">
        <ele>296.41144</ele>
        <time>2023-07-10T14:24:17.000Z</time>
      </trkpt>
      <trkpt lat="45.83706" lon="4.71656">
        <ele>296.58502</ele>
        <time>2023-07-10T14:24:18.000Z</time>
      </trkpt>
      <trkpt lat="45.8371" lon="4.71665">
        <ele>296.90265</ele>
        <time>2023-07-10T14:24:19.000Z</time>
      </trkpt>
      <trkpt lat="45.83714" lon="4.71672">
        <ele>297.31949</ele>
        <time>2023-07-10T14:24:20.000Z</time>
      </trkpt>
      <trkpt lat="45.83717" lon="4.71679">
        <ele>297.63544</ele>
        <time>2023-07-10T14:24:21.000Z</time>
      </trkpt>
      <trkpt lat="45.8372" lon="4.71684">
        <ele>298.15939</ele>
        <time>2023-07-10T14:24:22.000Z</time>
      </trkpt>
      <trkpt lat="45.83722" lon="4.7169">
        <ele>298.60504</ele>
        <time>2023-07-10T14:24:23.000Z</time>
      </trkpt>
      <trkpt lat="45.83725" lon="4.71694">
        <ele>299.18118</ele>
        <time>2023-07-10T14:24:24.000Z</time>
      </trkpt>
      <trkpt lat="45.83727" lon="4.71695">
        <ele>299.19562</ele>
        <time>2023-07-10T14:24:25.000Z</time>
      </trkpt>
      <trkpt lat="45.83731" lon="4.71696">
        <ele>299.17865</ele>
        <time>2023-07-10T14:24:26.000Z</time>
      </trkpt>
      <trkpt lat="45.83734" lon="4.71696">
        <ele>299.22638</ele>
        <time>2023-07-10T14:24:27.000Z</time>
      </trkpt>
      <trkpt lat="45.83738" lon="4.71695">
        <ele>298.48163</ele>
        <time>2023-07-10T14:24:28.000Z</time>
      </trkpt>
      <trkpt lat="45.83741" lon="4.71695">
        <ele>297.6265</ele>
        <time>2023-07-10T14:24:29.000Z</time>
      </trkpt>
      <trkpt lat="45.83743" lon="4.71694">
        <ele>296.76276</ele>
        <time>2023-07-10T14:24:30.000Z</time>
      </trkpt>
      <trkpt lat="45.83746" lon="4.71696">
        <ele>295.86954</ele>
        <time>2023-07-10T14:24:31.000Z</time>
      </trkpt>
      <trkpt lat="45.83749" lon="4.71697">
        <ele>295.11325</ele>
        <time>2023-07-10T14:24:32.000Z</time>
      </trkpt>
      <trkpt lat="45.83752" lon="4.71697">
        <ele>294.44635</ele>
        <time>2023-07-10T14:24:33.000Z</time>
      </trkpt>
      <trkpt lat="45.83754" lon="4.71697">
        <ele>293.7142</ele>
        <time>2023-07-10T14:24:34.000Z</time>
      </trkpt>
      <trkpt lat="45.83756" lon="4.71697">
        <ele>292.91742</ele>
        <time>2023-07-10T14:24:35.000Z</time>
      </trkpt>
      <trkpt lat="45.83759" lon="4.71697">
        <ele>291.98172</ele>
        <time>2023-07-10T14:24:36.000Z</time>
      </trkpt>
      <trkpt lat="45.83762" lon="4.71698">
        <ele>290.86795</ele>
        <time>2023-07-10T14:24:37.000Z</time>
      </trkpt>
      <trkpt lat="45.83765" lon="4.71698">
        <ele>289.78149</ele>
        <time>2023-07-10T14:24:38.000Z</time>
      </trkpt>
      <trkpt lat="45.83768" lon="4.71699">
        <ele>288.41977</ele>
        <time>2023-07-10T14:24:39.000Z</time>
      </trkpt>
      <trkpt lat="45.8377" lon="4.717">
        <ele>287.09433</ele>
        <time>2023-07-10T14:24:40.000Z</time>
      </trkpt>
      <trkpt lat="45.83773" lon="4.71701">
        <ele>285.84528</ele>
        <time>2023-07-10T14:24:41.000Z</time>
      </trkpt>
      <trkpt lat="45.83776" lon="4.71702">
        <ele>284.66162</ele>
        <time>2023-07-10T14:24:42.000Z</time>
      </trkpt>
      <trkpt lat="45.83779" lon="4.71702">
        <ele>283.49249</ele>
        <time>2023-07-10T14:24:43.000Z</time>
      </trkpt>
      <trkpt lat="45.83781" lon="4.71703">
        <ele>282.40613</ele>
        <time>2023-07-10T14:24:44.000Z</time>
      </trkpt>
      <trkpt lat="45.83784" lon="4.71703">
        <ele>282.1196</ele>
        <time>2023-07-10T14:24:45.000Z</time>
      </trkpt>
      <trkpt lat="45.83786" lon="4.71704">
        <ele>281.32547</ele>
        <time>2023-07-10T14:24:46.000Z</time>
      </trkpt>
      <trkpt lat="45.83789" lon="4.71706">
        <ele>280.67142</ele>
        <time>2023-07-10T14:24:47.000Z</time>
      </trkpt>
      <trkpt lat="45.83792" lon="4.71707">
        <ele>280.76169</ele>
        <time>2023-07-10T14:24:48.000Z</time>
      </trkpt>
      <trkpt lat="45.83795" lon="4.71707">
        <ele>280.71198</ele>
        <time>2023-07-10T14:24:49.000Z</time>
      </trkpt>
      <trkpt lat="45.83797" lon="4.71708">
        <ele>280.64597</ele>
        <time>2023-07-10T14:24:50.000Z</time>
      </trkpt>
      <trkpt lat="45.838" lon="4.71709">
        <ele>280.57788</ele>
        <time>2023-07-10T14:24:51.000Z</time>
      </trkpt>
      <trkpt lat="45.83803" lon="4.7171">
        <ele>280.66583</ele>
        <time>2023-07-10T14:24:52.000Z</time>
      </trkpt>
      <trkpt lat="45.83806" lon="4.7171">
        <ele>280.70148</ele>
        <time>2023-07-10T14:24:53.000Z</time>
      </trkpt>
      <trkpt lat="45.83808" lon="4.71711">
        <ele>280.84244</ele>
        <time>2023-07-10T14:24:54.000Z</time>
      </trkpt>
      <trkpt lat="45.8381" lon="4.71712">
        <ele>280.94562</ele>
        <time>2023-07-10T14:24:55.000Z</time>
      </trkpt>
      <trkpt lat="45.83812" lon="4.71712">
        <ele>281.21454</ele>
        <time>2023-07-10T14:24:57.000Z</time>
      </trkpt>
      <trkpt lat="45.83813" lon="4.71712">
        <ele>281.51743</ele>
        <time>2023-07-10T14:25:07.000Z</time>
      </trkpt>
      <trkpt lat="45.83811" lon="4.71711">
        <ele>281.93918</ele>
        <time>2023-07-10T14:26:46.000Z</time>
      </trkpt>
      <trkpt lat="45.83808" lon="4.71709">
        <ele>282.35654</ele>
        <time>2023-07-10T14:26:48.000Z</time>
      </trkpt>
      <trkpt lat="45.83806" lon="4.71708">
        <ele>282.70355</ele>
        <time>2023-07-10T14:26:49.000Z</time>
      </trkpt>
      <trkpt lat="45.83803" lon="4.71707">
        <ele>283.08188</ele>
        <time>2023-07-10T14:26:50.000Z</time>
      </trkpt>
      <trkpt lat="45.83801" lon="4.71706">
        <ele>283.23489</ele>
        <time>2023-07-10T14:26:51.000Z</time>
      </trkpt>
      <trkpt lat="45.83799" lon="4.71706">
        <ele>283.33112</ele>
        <time>2023-07-10T14:26:52.000Z</time>
      </trkpt>
      <trkpt lat="45.83797" lon="4.71705">
        <ele>283.25421</ele>
        <time>2023-07-10T14:26:53.000Z</time>
      </trkpt>
      <trkpt lat="45.83795" lon="4.71704">
        <ele>283.05777</ele>
        <time>2023-07-10T14:26:54.000Z</time>
      </trkpt>
      <trkpt lat="45.83794" lon="4.71703">
        <ele>283.25165</ele>
        <time>2023-07-10T14:26:55.000Z</time>
      </trkpt>
      <trkpt lat="45.83792" lon="4.71703">
        <ele>283.50034</ele>
        <time>2023-07-10T14:27:03.000Z</time>
      </trkpt>
      <trkpt lat="45.83794" lon="4.71705">
        <ele>283.83319</ele>
        <time>2023-07-10T14:27:07.000Z</time>
      </trkpt>
      <trkpt lat="45.83796" lon="4.71706">
        <ele>284.31641</ele>
        <time>2023-07-10T14:27:09.000Z</time>
      </trkpt>
      <trkpt lat="45.83799" lon="4.71707">
        <ele>284.80402</ele>
        <time>2023-07-10T14:27:11.000Z</time>
      </trkpt>
      <trkpt lat="45.83801" lon="4.71708">
        <ele>285.48331</ele>
        <time>2023-07-10T14:27:13.000Z</time>
      </trkpt>
      <trkpt lat="45.83803" lon="4.71708">
        <ele>286.00714</ele>
        <time>2023-07-10T14:27:15.000Z</time>
      </trkpt>
      <trkpt lat="45.83806" lon="4.71709">
        <ele>286.53345</ele>
        <time>2023-07-10T14:27:17.000Z</time>
      </trkpt>
      <trkpt lat="45.83808" lon="4.7171">
        <ele>286.99152</ele>
        <time>2023-07-10T14:27:19.000Z</time>
      </trkpt>
      <trkpt lat="45.8381" lon="4.71712">
        <ele>287.63483</ele>
        <time>2023-07-10T14:27:22.000Z</time>
      </trkpt>
      <trkpt lat="45.83813" lon="4.71713">
        <ele>288.25043</ele>
        <time>2023-07-10T14:27:25.000Z</time>
      </trkpt>
      <trkpt lat="45.83815" lon="4.71714">
        <ele>288.97141</ele>
        <time>2023-07-10T14:27:26.000Z</time>
      </trkpt>
      <trkpt lat="45.83818" lon="4.71716">
        <ele>289.54327</ele>
        <time>2023-07-10T14:27:27.000Z</time>
      </trkpt>
      <trkpt lat="45.8382" lon="4.71716">
        <ele>290.26263</ele>
        <time>2023-07-10T14:27:28.000Z</time>
      </trkpt>
      <trkpt lat="45.83822" lon="4.71717">
        <ele>290.9079</ele>
        <time>2023-07-10T14:27:29.000Z</time>
      </trkpt>
      <trkpt lat="45.83824" lon="4.71717">
        <ele>291.43347</ele>
        <time>2023-07-10T14:27:30.000Z</time>
      </trkpt>
      <trkpt lat="45.83826" lon="4.71717">
        <ele>292.27695</ele>
        <time>2023-07-10T14:27:31.000Z</time>
      </trkpt>
      <trkpt lat="45.83829" lon="4.71717">
        <ele>293.20343</ele>
        <time>2023-07-10T14:27:32.000Z</time>
      </trkpt>
      <trkpt lat="45.83833" lon="4.71717">
        <ele>294.17255</ele>
        <time>2023-07-10T14:27:33.000Z</time>
      </trkpt>
      <trkpt lat="45.83837" lon="4.71717">
        <ele>295.22168</ele>
        <time>2023-07-10T14:27:34.000Z</time>
      </trkpt>
      <trkpt lat="45.83841" lon="4.71718">
        <ele>296.22226</ele>
        <time>2023-07-10T14:27:35.000Z</time>
      </trkpt>
      <trkpt lat="45.83845" lon="4.71719">
        <ele>297.03729</ele>
        <time>2023-07-10T14:27:36.000Z</time>
      </trkpt>
      <trkpt lat="45.83848" lon="4.7172">
        <ele>297.70001</ele>
        <time>2023-07-10T14:27:37.000Z</time>
      </trkpt>
      <trkpt lat="45.83852" lon="4.71721">
        <ele>297.82999</ele>
        <time>2023-07-10T14:27:38.000Z</time>
      </trkpt>
      <trkpt lat="45.83856" lon="4.71722">
        <ele>298.12277</ele>
        <time>2023-07-10T14:27:39.000Z</time>
      </trkpt>
      <trkpt lat="45.83859" lon="4.71723">
        <ele>298.10529</ele>
        <time>2023-07-10T14:27:40.000Z</time>
      </trkpt>
      <trkpt lat="45.83864" lon="4.71724">
        <ele>298.06946</ele>
        <time>2023-07-10T14:27:41.000Z</time>
      </trkpt>
      <trkpt lat="45.83867" lon="4.71725">
        <ele>298.01987</ele>
        <time>2023-07-10T14:27:42.000Z</time>
      </trkpt>
      <trkpt lat="45.83871" lon="4.71727">
        <ele>297.9339</ele>
        <time>2023-07-10T14:27:43.000Z</time>
      </trkpt>
      <trkpt lat="45.83875" lon="4.71728">
        <ele>297.77548</ele>
        <time>2023-07-10T14:27:44.000Z</time>
      </trkpt>
      <trkpt lat="45.83879" lon="4.71729">
        <ele>297.51334</ele>
        <time>2023-07-10T14:27:45.000Z</time>
      </trkpt>
      <trkpt lat="45.83882" lon="4.71731">
        <ele>297.4798</ele>
        <time>2023-07-10T14:27:46.000Z</time>
      </trkpt>
      <trkpt lat="45.83886" lon="4.71733">
        <ele>297.54132</ele>
        <time>2023-07-10T14:27:47.000Z</time>
      </trkpt>
      <trkpt lat="45.83889" lon="4.71735">
        <ele>297.47321</ele>
        <time>2023-07-10T14:27:48.000Z</time>
      </trkpt>
      <trkpt lat="45.83893" lon="4.71737">
        <ele>297.72278</ele>
        <time>2023-07-10T14:27:49.000Z</time>
      </trkpt>
      <trkpt lat="45.83897" lon="4.71738">
        <ele>297.4288</ele>
        <time>2023-07-10T14:27:50.000Z</time>
      </trkpt>
      <trkpt lat="45.839" lon="4.7174">
        <ele>297.02527</ele>
        <time>2023-07-10T14:27:51.000Z</time>
      </trkpt>
      <trkpt lat="45.83904" lon="4.71741">
        <ele>296.51779</ele>
        <time>2023-07-10T14:27:52.000Z</time>
      </trkpt>
      <trkpt lat="45.83908" lon="4.71742">
        <ele>296.0105</ele>
        <time>2023-07-10T14:27:53.000Z</time>
      </trkpt>
      <trkpt lat="45.83912" lon="4.71743">
        <ele>295.21384</ele>
        <time>2023-07-10T14:27:54.000Z</time>
      </trkpt>
      <trkpt lat="45.83916" lon="4.71744">
        <ele>294.42294</ele>
        <time>2023-07-10T14:27:55.000Z</time>
      </trkpt>
      <trkpt lat="45.8392" lon="4.71746">
        <ele>293.67804</ele>
        <time>2023-07-10T14:27:56.000Z</time>
      </trkpt>
      <trkpt lat="45.83924" lon="4.71747">
        <ele>292.96011</ele>
        <time>2023-07-10T14:27:57.000Z</time>
      </trkpt>
      <trkpt lat="45.83928" lon="4.71749">
        <ele>292.73227</ele>
        <time>2023-07-10T14:27:58.000Z</time>
      </trkpt>
      <trkpt lat="45.83932" lon="4.71751">
        <ele>292.31686</ele>
        <time>2023-07-10T14:27:59.000Z</time>
      </trkpt>
      <trkpt lat="45.83935" lon="4.71754">
        <ele>292.15167</ele>
        <time>2023-07-10T14:28:00.000Z</time>
      </trkpt>
      <trkpt lat="45.83938" lon="4.71757">
        <ele>292.21411</ele>
        <time>2023-07-10T14:28:01.000Z</time>
      </trkpt>
      <trkpt lat="45.83941" lon="4.7176">
        <ele>292.28815</ele>
        <time>2023-07-10T14:28:02.000Z</time>
      </trkpt>
      <trkpt lat="45.83944" lon="4.71764">
        <ele>292.57208</ele>
        <time>2023-07-10T14:28:03.000Z</time>
      </trkpt>
      <trkpt lat="45.83946" lon="4.71769">
        <ele>292.74338</ele>
        <time>2023-07-10T14:28:04.000Z</time>
      </trkpt>
      <trkpt lat="45.83948" lon="4.71774">
        <ele>292.90521</ele>
        <time>2023-07-10T14:28:05.000Z</time>
      </trkpt>
      <trkpt lat="45.83949" lon="4.71779">
        <ele>292.78033</ele>
        <time>2023-07-10T14:28:06.000Z</time>
      </trkpt>
      <trkpt lat="45.8395" lon="4.71783">
        <ele>292.67761</ele>
        <time>2023-07-10T14:28:07.000Z</time>
      </trkpt>
      <trkpt lat="45.83951" lon="4.71786">
        <ele>292.58234</ele>
        <time>2023-07-10T14:28:08.000Z</time>
      </trkpt>
      <trkpt lat="45.83952" lon="4.7179">
        <ele>292.17389</ele>
        <time>2023-07-10T14:28:09.000Z</time>
      </trkpt>
      <trkpt lat="45.83953" lon="4.71793">
        <ele>292.39651</ele>
        <time>2023-07-10T14:28:10.000Z</time>
      </trkpt>
      <trkpt lat="45.83955" lon="4.71797">
        <ele>292.42456</ele>
        <time>2023-07-10T14:28:11.000Z</time>
      </trkpt>
      <trkpt lat="45.83957" lon="4.71801">
        <ele>292.7597</ele>
        <time>2023-07-10T14:28:12.000Z</time>
      </trkpt>
      <trkpt lat="45.83958" lon="4.71805">
        <ele>292.99103</ele>
        <time>2023-07-10T14:28:13.000Z</time>
      </trkpt>
      <trkpt lat="45.83961" lon="4.7181">
        <ele>293.50607</ele>
        <time>2023-07-10T14:28:14.000Z</time>
      </trkpt>
      <trkpt lat="45.83963" lon="4.71814">
        <ele>293.97589</ele>
        <time>2023-07-10T14:28:15.000Z</time>
      </trkpt>
      <trkpt lat="45.83966" lon="4.71818">
        <ele>294.36313</ele>
        <time>2023-07-10T14:28:16.000Z</time>
      </trkpt>
      <trkpt lat="45.83969" lon="4.71822">
        <ele>294.79474</ele>
        <time>2023-07-10T14:28:17.000Z</time>
      </trkpt>
      <trkpt lat="45.83971" lon="4.71826">
        <ele>294.70575</ele>
        <time>2023-07-10T14:28:18.000Z</time>
      </trkpt>
      <trkpt lat="45.83974" lon="4.71829">
        <ele>294.6571</ele>
        <time>2023-07-10T14:28:19.000Z</time>
      </trkpt>
      <trkpt lat="45.83976" lon="4.71831">
        <ele>294.54614</ele>
        <time>2023-07-10T14:28:20.000Z</time>
      </trkpt>
      <trkpt lat="45.83978" lon="4.71835">
        <ele>294.31454</ele>
        <time>2023-07-10T14:28:21.000Z</time>
      </trkpt>
      <trkpt lat="45.83981" lon="4.71838">
        <ele>294.12622</ele>
        <time>2023-07-10T14:28:22.000Z</time>
      </trkpt>
      <trkpt lat="45.83983" lon="4.71842">
        <ele>293.77057</ele>
        <time>2023-07-10T14:28:23.000Z</time>
      </trkpt>
      <trkpt lat="45.83985" lon="4.71845">
        <ele>293.56772</ele>
        <time>2023-07-10T14:28:24.000Z</time>
      </trkpt>
      <trkpt lat="45.83988" lon="4.71849">
        <ele>293.38281</ele>
        <time>2023-07-10T14:28:25.000Z</time>
      </trkpt>
      <trkpt lat="45.83989" lon="4.71852">
        <ele>293.29196</ele>
        <time>2023-07-10T14:28:26.000Z</time>
      </trkpt>
      <trkpt lat="45.83991" lon="4.71855">
        <ele>293.39148</ele>
        <time>2023-07-10T14:28:27.000Z</time>
      </trkpt>
      <trkpt lat="45.83993" lon="4.71859">
        <ele>293.54962</ele>
        <time>2023-07-10T14:28:28.000Z</time>
      </trkpt>
      <trkpt lat="45.83996" lon="4.71862">
        <ele>293.26587</ele>
        <time>2023-07-10T14:28:29.000Z</time>
      </trkpt>
      <trkpt lat="45.83998" lon="4.71866">
        <ele>292.99152</ele>
        <time>2023-07-10T14:28:30.000Z</time>
      </trkpt>
      <trkpt lat="45.84001" lon="4.7187">
        <ele>292.50366</ele>
        <time>2023-07-10T14:28:31.000Z</time>
      </trkpt>
      <trkpt lat="45.84004" lon="4.71874">
        <ele>291.74097</ele>
        <time>2023-07-10T14:28:32.000Z</time>
      </trkpt>
      <trkpt lat="45.84006" lon="4.71878">
        <ele>291.01849</ele>
        <time>2023-07-10T14:28:33.000Z</time>
      </trkpt>
      <trkpt lat="45.84007" lon="4.71883">
        <ele>290.18698</ele>
        <time>2023-07-10T14:28:34.000Z</time>
      </trkpt>
      <trkpt lat="45.84008" lon="4.71888">
        <ele>289.41196</ele>
        <time>2023-07-10T14:28:35.000Z</time>
      </trkpt>
      <trkpt lat="45.84009" lon="4.71894">
        <ele>288.65305</ele>
        <time>2023-07-10T14:28:36.000Z</time>
      </trkpt>
      <trkpt lat="45.8401" lon="4.719">
        <ele>287.82077</ele>
        <time>2023-07-10T14:28:37.000Z</time>
      </trkpt>
      <trkpt lat="45.84011" lon="4.71906">
        <ele>287.51959</ele>
        <time>2023-07-10T14:28:38.000Z</time>
      </trkpt>
      <trkpt lat="45.84011" lon="4.71913">
        <ele>287.20197</ele>
        <time>2023-07-10T14:28:39.000Z</time>
      </trkpt>
      <trkpt lat="45.84009" lon="4.71922">
        <ele>286.89548</ele>
        <time>2023-07-10T14:28:40.000Z</time>
      </trkpt>
      <trkpt lat="45.84009" lon="4.71929">
        <ele>286.53729</ele>
        <time>2023-07-10T14:28:41.000Z</time>
      </trkpt>
      <trkpt lat="45.8401" lon="4.71939">
        <ele>286.15231</ele>
        <time>2023-07-10T14:28:42.000Z</time>
      </trkpt>
      <trkpt lat="45.8401" lon="4.71947">
        <ele>285.73654</ele>
        <time>2023-07-10T14:28:43.000Z</time>
      </trkpt>
      <trkpt lat="45.8401" lon="4.71957">
        <ele>285.21234</ele>
        <time>2023-07-10T14:28:44.000Z</time>
      </trkpt>
      <trkpt lat="45.84011" lon="4.71966">
        <ele>284.68982</ele>
        <time>2023-07-10T14:28:45.000Z</time>
      </trkpt>
      <trkpt lat="45.84012" lon="4.71976">
        <ele>284.0993</ele>
        <time>2023-07-10T14:28:46.000Z</time>
      </trkpt>
      <trkpt lat="45.84012" lon="4.71987">
        <ele>283.24982</ele>
        <time>2023-07-10T14:28:47.000Z</time>
      </trkpt>
      <trkpt lat="45.84013" lon="4.71997">
        <ele>282.32822</ele>
        <time>2023-07-10T14:28:48.000Z</time>
      </trkpt>
      <trkpt lat="45.84014" lon="4.72008">
        <ele>281.87836</ele>
        <time>2023-07-10T14:28:49.000Z</time>
      </trkpt>
      <trkpt lat="45.84014" lon="4.72019">
        <ele>281.5661</ele>
        <time>2023-07-10T14:28:50.000Z</time>
      </trkpt>
      <trkpt lat="45.84014" lon="4.72029">
        <ele>281.45541</ele>
        <time>2023-07-10T14:28:51.000Z</time>
      </trkpt>
      <trkpt lat="45.84015" lon="4.7204">
        <ele>281.34488</ele>
        <time>2023-07-10T14:28:52.000Z</time>
      </trkpt>
      <trkpt lat="45.84016" lon="4.7205">
        <ele>281.25146</ele>
        <time>2023-07-10T14:28:53.000Z</time>
      </trkpt>
      <trkpt lat="45.84016" lon="4.72059">
        <ele>281.17657</ele>
        <time>2023-07-10T14:28:54.000Z</time>
      </trkpt>
      <trkpt lat="45.84017" lon="4.72069">
        <ele>281.11139</ele>
        <time>2023-07-10T14:28:55.000Z</time>
      </trkpt>
      <trkpt lat="45.84018" lon="4.72078">
        <ele>281.0827</ele>
        <time>2023-07-10T14:28:56.000Z</time>
      </trkpt>
      <trkpt lat="45.84019" lon="4.72087">
        <ele>281.10522</ele>
        <time>2023-07-10T14:28:57.000Z</time>
      </trkpt>
      <trkpt lat="45.8402" lon="4.72096">
        <ele>281.11969</ele>
        <time>2023-07-10T14:28:58.000Z</time>
      </trkpt>
      <trkpt lat="45.84021" lon="4.72104">
        <ele>281.17401</ele>
        <time>2023-07-10T14:28:59.000Z</time>
      </trkpt>
      <trkpt lat="45.84022" lon="4.72111">
        <ele>281.22498</ele>
        <time>2023-07-10T14:29:00.000Z</time>
      </trkpt>
      <trkpt lat="45.84022" lon="4.72119">
        <ele>280.75757</ele>
        <time>2023-07-10T14:29:01.000Z</time>
      </trkpt>
      <trkpt lat="45.84022" lon="4.72126">
        <ele>280.33966</ele>
        <time>2023-07-10T14:29:02.000Z</time>
      </trkpt>
      <trkpt lat="45.84022" lon="4.72132">
        <ele>279.93738</ele>
        <time>2023-07-10T14:29:03.000Z</time>
      </trkpt>
      <trkpt lat="45.84023" lon="4.72139">
        <ele>279.52649</ele>
        <time>2023-07-10T14:29:04.000Z</time>
      </trkpt>
      <trkpt lat="45.84023" lon="4.72146">
        <ele>279.14243</ele>
        <time>2023-07-10T14:29:05.000Z</time>
      </trkpt>
      <trkpt lat="45.84022" lon="4.72152">
        <ele>278.75699</ele>
        <time>2023-07-10T14:29:06.000Z</time>
      </trkpt>
      <trkpt lat="45.8402" lon="4.72156">
        <ele>278.37469</ele>
        <time>2023-07-10T14:29:07.000Z</time>
      </trkpt>
      <trkpt lat="45.84018" lon="4.72161">
        <ele>278.03299</ele>
        <time>2023-07-10T14:29:08.000Z</time>
      </trkpt>
      <trkpt lat="45.84014" lon="4.72164">
        <ele>277.73077</ele>
        <time>2023-07-10T14:29:09.000Z</time>
      </trkpt>
      <trkpt lat="45.8401" lon="4.72165">
        <ele>277.3465</ele>
        <time>2023-07-10T14:29:10.000Z</time>
      </trkpt>
      <trkpt lat="45.84005" lon="4.72166">
        <ele>277.0094</ele>
        <time>2023-07-10T14:29:11.000Z</time>
      </trkpt>
      <trkpt lat="45.84001" lon="4.72166">
        <ele>276.69916</ele>
        <time>2023-07-10T14:29:12.000Z</time>
      </trkpt>
      <trkpt lat="45.83996" lon="4.72165">
        <ele>276.36511</ele>
        <time>2023-07-10T14:29:13.000Z</time>
      </trkpt>
      <trkpt lat="45.83992" lon="4.72165">
        <ele>276.74423</ele>
        <time>2023-07-10T14:29:14.000Z</time>
      </trkpt>
      <trkpt lat="45.83988" lon="4.72164">
        <ele>277.13541</ele>
        <time>2023-07-10T14:29:15.000Z</time>
      </trkpt>
      <trkpt lat="45.83983" lon="4.72163">
        <ele>277.51605</ele>
        <time>2023-07-10T14:29:16.000Z</time>
      </trkpt>
      <trkpt lat="45.83979" lon="4.72163">
        <ele>278.04272</ele>
        <time>2023-07-10T14:29:17.000Z</time>
      </trkpt>
      <trkpt lat="45.83976" lon="4.72163">
        <ele>278.20505</ele>
        <time>2023-07-10T14:29:18.000Z</time>
      </trkpt>
      <trkpt lat="45.83971" lon="4.7216">
        <ele>278.47372</ele>
        <time>2023-07-10T14:29:19.000Z</time>
      </trkpt>
      <trkpt lat="45.83966" lon="4.7216">
        <ele>278.73935</ele>
        <time>2023-07-10T14:29:20.000Z</time>
      </trkpt>
      <trkpt lat="45.83962" lon="4.72158">
        <ele>279.60065</ele>
        <time>2023-07-10T14:29:21.000Z</time>
      </trkpt>
      <trkpt lat="45.83958" lon="4.72158">
        <ele>280.40457</ele>
        <time>2023-07-10T14:29:22.000Z</time>
      </trkpt>
      <trkpt lat="45.83954" lon="4.72157">
        <ele>281.51678</ele>
        <time>2023-07-10T14:29:23.000Z</time>
      </trkpt>
      <trkpt lat="45.8395" lon="4.72156">
        <ele>282.58429</ele>
        <time>2023-07-10T14:29:24.000Z</time>
      </trkpt>
      <trkpt lat="45.83947" lon="4.72158">
        <ele>283.57056</ele>
        <time>2023-07-10T14:29:25.000Z</time>
      </trkpt>
      <trkpt lat="45.83944" lon="4.7216">
        <ele>284.39996</ele>
        <time>2023-07-10T14:29:26.000Z</time>
      </trkpt>
      <trkpt lat="45.83942" lon="4.72164">
        <ele>285.01358</ele>
        <time>2023-07-10T14:29:28.000Z</time>
      </trkpt>
      <trkpt lat="45.83942" lon="4.72168">
        <ele>285.66492</ele>
        <time>2023-07-10T14:29:29.000Z</time>
      </trkpt>
      <trkpt lat="45.83943" lon="4.72171">
        <ele>286.31491</ele>
        <time>2023-07-10T14:29:30.000Z</time>
      </trkpt>
      <trkpt lat="45.83945" lon="4.72175">
        <ele>286.92047</ele>
        <time>2023-07-10T14:29:31.000Z</time>
      </trkpt>
      <trkpt lat="45.83947" lon="4.72178">
        <ele>287.59286</ele>
        <time>2023-07-10T14:29:32.000Z</time>
      </trkpt>
      <trkpt lat="45.83949" lon="4.72182">
        <ele>288.20569</ele>
        <time>2023-07-10T14:29:33.000Z</time>
      </trkpt>
      <trkpt lat="45.83951" lon="4.72186">
        <ele>288.77478</ele>
        <time>2023-07-10T14:29:34.000Z</time>
      </trkpt>
      <trkpt lat="45.83953" lon="4.7219">
        <ele>288.7179</ele>
        <time>2023-07-10T14:29:35.000Z</time>
      </trkpt>
      <trkpt lat="45.83955" lon="4.72194">
        <ele>288.64432</ele>
        <time>2023-07-10T14:29:36.000Z</time>
      </trkpt>
      <trkpt lat="45.83957" lon="4.72199">
        <ele>288.48444</ele>
        <time>2023-07-10T14:29:37.000Z</time>
      </trkpt>
      <trkpt lat="45.83959" lon="4.72203">
        <ele>288.08609</ele>
        <time>2023-07-10T14:29:38.000Z</time>
      </trkpt>
      <trkpt lat="45.83961" lon="4.72208">
        <ele>288.1221</ele>
        <time>2023-07-10T14:29:39.000Z</time>
      </trkpt>
      <trkpt lat="45.83964" lon="4.72213">
        <ele>287.97137</ele>
        <time>2023-07-10T14:29:40.000Z</time>
      </trkpt>
      <trkpt lat="45.83966" lon="4.72217">
        <ele>287.99063</ele>
        <time>2023-07-10T14:29:41.000Z</time>
      </trkpt>
      <trkpt lat="45.83968" lon="4.72221">
        <ele>287.00522</ele>
        <time>2023-07-10T14:29:42.000Z</time>
      </trkpt>
      <trkpt lat="45.83971" lon="4.72226">
        <ele>286.06772</ele>
        <time>2023-07-10T14:29:43.000Z</time>
      </trkpt>
      <trkpt lat="45.83973" lon="4.7223">
        <ele>285.36298</ele>
        <time>2023-07-10T14:29:44.000Z</time>
      </trkpt>
      <trkpt lat="45.83975" lon="4.72235">
        <ele>285.28143</ele>
        <time>2023-07-10T14:29:45.000Z</time>
      </trkpt>
      <trkpt lat="45.83978" lon="4.72239">
        <ele>285.29135</ele>
        <time>2023-07-10T14:29:46.000Z</time>
      </trkpt>
      <trkpt lat="45.8398" lon="4.72244">
        <ele>285.45566</ele>
        <time>2023-07-10T14:29:47.000Z</time>
      </trkpt>
      <trkpt lat="45.83982" lon="4.72249">
        <ele>285.82758</ele>
        <time>2023-07-10T14:29:48.000Z</time>
      </trkpt>
      <trkpt lat="45.83984" lon="4.72254">
        <ele>286.14618</ele>
        <time>2023-07-10T14:29:49.000Z</time>
      </trkpt>
      <trkpt lat="45.83987" lon="4.72259">
        <ele>286.45261</ele>
        <time>2023-07-10T14:29:50.000Z</time>
      </trkpt>
      <trkpt lat="45.83989" lon="4.72263">
        <ele>286.784</ele>
        <time>2023-07-10T14:29:51.000Z</time>
      </trkpt>
      <trkpt lat="45.83992" lon="4.72268">
        <ele>287.0047</ele>
        <time>2023-07-10T14:29:52.000Z</time>
      </trkpt>
      <trkpt lat="45.83994" lon="4.72273">
        <ele>287.28665</ele>
        <time>2023-07-10T14:29:53.000Z</time>
      </trkpt>
      <trkpt lat="45.83997" lon="4.72278">
        <ele>287.62625</ele>
        <time>2023-07-10T14:29:54.000Z</time>
      </trkpt>
      <trkpt lat="45.83999" lon="4.72282">
        <ele>288.01913</ele>
        <time>2023-07-10T14:29:55.000Z</time>
      </trkpt>
      <trkpt lat="45.84002" lon="4.72287">
        <ele>288.44086</ele>
        <time>2023-07-10T14:29:56.000Z</time>
      </trkpt>
      <trkpt lat="45.84005" lon="4.72291">
        <ele>288.92838</ele>
        <time>2023-07-10T14:29:57.000Z</time>
      </trkpt>
      <trkpt lat="45.84008" lon="4.72295">
        <ele>288.88019</ele>
        <time>2023-07-10T14:29:58.000Z</time>
      </trkpt>
      <trkpt lat="45.84011" lon="4.72299">
        <ele>288.75848</ele>
        <time>2023-07-10T14:29:59.000Z</time>
      </trkpt>
      <trkpt lat="45.84013" lon="4.72303">
        <ele>288.71185</ele>
        <time>2023-07-10T14:30:00.000Z</time>
      </trkpt>
      <trkpt lat="45.84015" lon="4.72308">
        <ele>288.47977</ele>
        <time>2023-07-10T14:30:01.000Z</time>
      </trkpt>
      <trkpt lat="45.84015" lon="4.72313">
        <ele>289.20352</ele>
        <time>2023-07-10T14:30:02.000Z</time>
      </trkpt>
      <trkpt lat="45.84013" lon="4.72318">
        <ele>289.92941</ele>
        <time>2023-07-10T14:30:03.000Z</time>
      </trkpt>
      <trkpt lat="45.84011" lon="4.72322">
        <ele>290.13406</ele>
        <time>2023-07-10T14:30:04.000Z</time>
      </trkpt>
      <trkpt lat="45.84007" lon="4.72326">
        <ele>289.82721</ele>
        <time>2023-07-10T14:30:05.000Z</time>
      </trkpt>
      <trkpt lat="45.84001" lon="4.72329">
        <ele>289.45044</ele>
        <time>2023-07-10T14:30:06.000Z</time>
      </trkpt>
      <trkpt lat="45.83998" lon="4.72333">
        <ele>289.05933</ele>
        <time>2023-07-10T14:30:07.000Z</time>
      </trkpt>
      <trkpt lat="45.83994" lon="4.72337">
        <ele>288.69281</ele>
        <time>2023-07-10T14:30:08.000Z</time>
      </trkpt>
      <trkpt lat="45.8399" lon="4.72341">
        <ele>288.31396</ele>
        <time>2023-07-10T14:30:09.000Z</time>
      </trkpt>
      <trkpt lat="45.83986" lon="4.72344">
        <ele>287.91068</ele>
        <time>2023-07-10T14:30:10.000Z</time>
      </trkpt>
      <trkpt lat="45.83981" lon="4.72347">
        <ele>287.48102</ele>
        <time>2023-07-10T14:30:11.000Z</time>
      </trkpt>
      <trkpt lat="45.83977" lon="4.72351">
        <ele>287.08029</ele>
        <time>2023-07-10T14:30:12.000Z</time>
      </trkpt>
      <trkpt lat="45.83972" lon="4.72355">
        <ele>286.70477</ele>
        <time>2023-07-10T14:30:13.000Z</time>
      </trkpt>
      <trkpt lat="45.83968" lon="4.72358">
        <ele>286.34625</ele>
        <time>2023-07-10T14:30:14.000Z</time>
      </trkpt>
      <trkpt lat="45.83963" lon="4.72363">
        <ele>285.80475</ele>
        <time>2023-07-10T14:30:15.000Z</time>
      </trkpt>
      <trkpt lat="45.83959" lon="4.72368">
        <ele>285.27869</ele>
        <time>2023-07-10T14:30:16.000Z</time>
      </trkpt>
      <trkpt lat="45.83954" lon="4.72372">
        <ele>284.83313</ele>
        <time>2023-07-10T14:30:17.000Z</time>
      </trkpt>
      <trkpt lat="45.83948" lon="4.72376">
        <ele>285.017</ele>
        <time>2023-07-10T14:30:18.000Z</time>
      </trkpt>
      <trkpt lat="45.83942" lon="4.72378">
        <ele>285.34521</ele>
        <time>2023-07-10T14:30:19.000Z</time>
      </trkpt>
      <trkpt lat="45.83936" lon="4.72381">
        <ele>285.57407</ele>
        <time>2023-07-10T14:30:20.000Z</time>
      </trkpt>
      <trkpt lat="45.83929" lon="4.72384">
        <ele>285.78601</ele>
        <time>2023-07-10T14:30:21.000Z</time>
      </trkpt>
      <trkpt lat="45.83922" lon="4.72387">
        <ele>286.00287</ele>
        <time>2023-07-10T14:30:22.000Z</time>
      </trkpt>
      <trkpt lat="45.83915" lon="4.72391">
        <ele>286.21014</ele>
        <time>2023-07-10T14:30:23.000Z</time>
      </trkpt>
      <trkpt lat="45.83906" lon="4.72396">
        <ele>286.74329</ele>
        <time>2023-07-10T14:30:24.000Z</time>
      </trkpt>
      <trkpt lat="45.83899" lon="4.724">
        <ele>287.31082</ele>
        <time>2023-07-10T14:30:25.000Z</time>
      </trkpt>
      <trkpt lat="45.83892" lon="4.72403">
        <ele>287.82208</ele>
        <time>2023-07-10T14:30:26.000Z</time>
      </trkpt>
      <trkpt lat="45.83886" lon="4.72405">
        <ele>288.35855</ele>
        <time>2023-07-10T14:30:27.000Z</time>
      </trkpt>
      <trkpt lat="45.83878" lon="4.72409">
        <ele>288.9545</ele>
        <time>2023-07-10T14:30:28.000Z</time>
      </trkpt>
      <trkpt lat="45.83869" lon="4.72412">
        <ele>289.80682</ele>
        <time>2023-07-10T14:30:29.000Z</time>
      </trkpt>
      <trkpt lat="45.83861" lon="4.72417">
        <ele>290.83191</ele>
        <time>2023-07-10T14:30:30.000Z</time>
      </trkpt>
      <trkpt lat="45.83855" lon="4.72423">
        <ele>291.26431</ele>
        <time>2023-07-10T14:30:31.000Z</time>
      </trkpt>
      <trkpt lat="45.8385" lon="4.7243">
        <ele>291.80853</ele>
        <time>2023-07-10T14:30:32.000Z</time>
      </trkpt>
      <trkpt lat="45.83845" lon="4.72438">
        <ele>292.49039</ele>
        <time>2023-07-10T14:30:33.000Z</time>
      </trkpt>
      <trkpt lat="45.83843" lon="4.72448">
        <ele>293.23758</ele>
        <time>2023-07-10T14:30:34.000Z</time>
      </trkpt>
      <trkpt lat="45.83841" lon="4.72457">
        <ele>293.90012</ele>
        <time>2023-07-10T14:30:35.000Z</time>
      </trkpt>
      <trkpt lat="45.8384" lon="4.72466">
        <ele>294.44669</ele>
        <time>2023-07-10T14:30:36.000Z</time>
      </trkpt>
      <trkpt lat="45.83842" lon="4.72476">
        <ele>294.9375</ele>
        <time>2023-07-10T14:30:37.000Z</time>
      </trkpt>
      <trkpt lat="45.83843" lon="4.72486">
        <ele>295.28604</ele>
        <time>2023-07-10T14:30:38.000Z</time>
      </trkpt>
      <trkpt lat="45.83843" lon="4.72495">
        <ele>295.55322</ele>
        <time>2023-07-10T14:30:39.000Z</time>
      </trkpt>
      <trkpt lat="45.83843" lon="4.72505">
        <ele>295.76898</ele>
        <time>2023-07-10T14:30:40.000Z</time>
      </trkpt>
      <trkpt lat="45.83843" lon="4.72513">
        <ele>295.81171</ele>
        <time>2023-07-10T14:30:41.000Z</time>
      </trkpt>
      <trkpt lat="45.83842" lon="4.72523">
        <ele>296.00189</ele>
        <time>2023-07-10T14:30:42.000Z</time>
      </trkpt>
      <trkpt lat="45.8384" lon="4.72531">
        <ele>296.50516</ele>
        <time>2023-07-10T14:30:43.000Z</time>
      </trkpt>
      <trkpt lat="45.8384" lon="4.72537">
        <ele>296.60257</ele>
        <time>2023-07-10T14:30:44.000Z</time>
      </trkpt>
      <trkpt lat="45.83841" lon="4.72542">
        <ele>295.91315</ele>
        <time>2023-07-10T14:30:45.000Z</time>
      </trkpt>
      <trkpt lat="45.8384" lon="4.72549">
        <ele>295.29071</ele>
        <time>2023-07-10T14:30:46.000Z</time>
      </trkpt>
      <trkpt lat="45.8384" lon="4.72557">
        <ele>294.75128</ele>
        <time>2023-07-10T14:30:47.000Z</time>
      </trkpt>
      <trkpt lat="45.83839" lon="4.72562">
        <ele>294.23575</ele>
        <time>2023-07-10T14:30:48.000Z</time>
      </trkpt>
      <trkpt lat="45.83838" lon="4.72567">
        <ele>293.07794</ele>
        <time>2023-07-10T14:30:49.000Z</time>
      </trkpt>
      <trkpt lat="45.83836" lon="4.72572">
        <ele>291.9769</ele>
        <time>2023-07-10T14:30:50.000Z</time>
      </trkpt>
      <trkpt lat="45.83833" lon="4.72577">
        <ele>291.54819</ele>
        <time>2023-07-10T14:30:51.000Z</time>
      </trkpt>
      <trkpt lat="45.83831" lon="4.72583">
        <ele>291.01959</ele>
        <time>2023-07-10T14:30:52.000Z</time>
      </trkpt>
      <trkpt lat="45.83828" lon="4.72589">
        <ele>290.40872</ele>
        <time>2023-07-10T14:30:53.000Z</time>
      </trkpt>
      <trkpt lat="45.83825" lon="4.72595">
        <ele>289.7002</ele>
        <time>2023-07-10T14:30:54.000Z</time>
      </trkpt>
      <trkpt lat="45.83822" lon="4.726">
        <ele>288.13211</ele>
        <time>2023-07-10T14:30:55.000Z</time>
      </trkpt>
      <trkpt lat="45.83819" lon="4.72603">
        <ele>286.58893</ele>
        <time>2023-07-10T14:30:56.000Z</time>
      </trkpt>
      <trkpt lat="45.83815" lon="4.72606">
        <ele>285.0592</ele>
        <time>2023-07-10T14:30:57.000Z</time>
      </trkpt>
      <trkpt lat="45.83811" lon="4.72608">
        <ele>283.75037</ele>
        <time>2023-07-10T14:30:58.000Z</time>
      </trkpt>
      <trkpt lat="45.83808" lon="4.72609">
        <ele>283.33728</ele>
        <time>2023-07-10T14:30:59.000Z</time>
      </trkpt>
      <trkpt lat="45.83804" lon="4.72611">
        <ele>282.92468</ele>
        <time>2023-07-10T14:31:00.000Z</time>
      </trkpt>
      <trkpt lat="45.838" lon="4.72613">
        <ele>282.69186</ele>
        <time>2023-07-10T14:31:01.000Z</time>
      </trkpt>
      <trkpt lat="45.83796" lon="4.72613">
        <ele>282.35965</ele>
        <time>2023-07-10T14:31:02.000Z</time>
      </trkpt>
      <trkpt lat="45.83792" lon="4.72615">
        <ele>281.70654</ele>
        <time>2023-07-10T14:31:03.000Z</time>
      </trkpt>
      <trkpt lat="45.83789" lon="4.72616">
        <ele>281.03555</ele>
        <time>2023-07-10T14:31:04.000Z</time>
      </trkpt>
      <trkpt lat="45.83786" lon="4.72616">
        <ele>281.05817</ele>
        <time>2023-07-10T14:31:05.000Z</time>
      </trkpt>
      <trkpt lat="45.83782" lon="4.72618">
        <ele>281.15881</ele>
        <time>2023-07-10T14:31:06.000Z</time>
      </trkpt>
      <trkpt lat="45.83779" lon="4.7262">
        <ele>281.09265</ele>
        <time>2023-07-10T14:31:07.000Z</time>
      </trkpt>
      <trkpt lat="45.83775" lon="4.72621">
        <ele>281.0838</ele>
        <time>2023-07-10T14:31:08.000Z</time>
      </trkpt>
      <trkpt lat="45.83772" lon="4.72622">
        <ele>281.42108</ele>
        <time>2023-07-10T14:31:09.000Z</time>
      </trkpt>
      <trkpt lat="45.83767" lon="4.72624">
        <ele>281.65009</ele>
        <time>2023-07-10T14:31:10.000Z</time>
      </trkpt>
      <trkpt lat="45.83764" lon="4.72625">
        <ele>281.45029</ele>
        <time>2023-07-10T14:31:11.000Z</time>
      </trkpt>
      <trkpt lat="45.8376" lon="4.72626">
        <ele>281.3725</ele>
        <time>2023-07-10T14:31:12.000Z</time>
      </trkpt>
      <trkpt lat="45.83758" lon="4.72627">
        <ele>281.17157</ele>
        <time>2023-07-10T14:31:13.000Z</time>
      </trkpt>
      <trkpt lat="45.83755" lon="4.72628">
        <ele>280.97034</ele>
        <time>2023-07-10T14:31:14.000Z</time>
      </trkpt>
      <trkpt lat="45.83751" lon="4.72629">
        <ele>281.73911</ele>
        <time>2023-07-10T14:31:15.000Z</time>
      </trkpt>
      <trkpt lat="45.83747" lon="4.72629">
        <ele>282.50461</ele>
        <time>2023-07-10T14:31:16.000Z</time>
      </trkpt>
      <trkpt lat="45.83744" lon="4.7263">
        <ele>283.38104</ele>
        <time>2023-07-10T14:31:17.000Z</time>
      </trkpt>
      <trkpt lat="45.83741" lon="4.72631">
        <ele>284.1073</ele>
        <time>2023-07-10T14:31:18.000Z</time>
      </trkpt>
      <trkpt lat="45.83739" lon="4.72633">
        <ele>283.94678</ele>
        <time>2023-07-10T14:31:19.000Z</time>
      </trkpt>
      <trkpt lat="45.83736" lon="4.72635">
        <ele>283.96075</ele>
        <time>2023-07-10T14:31:20.000Z</time>
      </trkpt>
      <trkpt lat="45.83733" lon="4.72636">
        <ele>283.97226</ele>
        <time>2023-07-10T14:31:21.000Z</time>
      </trkpt>
      <trkpt lat="45.8373" lon="4.72638">
        <ele>283.91815</ele>
        <time>2023-07-10T14:31:22.000Z</time>
      </trkpt>
      <trkpt lat="45.83726" lon="4.72639">
        <ele>283.88202</ele>
        <time>2023-07-10T14:31:23.000Z</time>
      </trkpt>
      <trkpt lat="45.83723" lon="4.7264">
        <ele>283.88303</ele>
        <time>2023-07-10T14:31:24.000Z</time>
      </trkpt>
      <trkpt lat="45.83721" lon="4.72641">
        <ele>283.92093</ele>
        <time>2023-07-10T14:31:25.000Z</time>
      </trkpt>
      <trkpt lat="45.83718" lon="4.72642">
        <ele>283.87909</ele>
        <time>2023-07-10T14:31:26.000Z</time>
      </trkpt>
      <trkpt lat="45.83715" lon="4.72643">
        <ele>284.13266</ele>
        <time>2023-07-10T14:31:27.000Z</time>
      </trkpt>
      <trkpt lat="45.83713" lon="4.72644">
        <ele>284.3107</ele>
        <time>2023-07-10T14:31:28.000Z</time>
      </trkpt>
      <trkpt lat="45.8371" lon="4.72645">
        <ele>284.18219</ele>
        <time>2023-07-10T14:31:29.000Z</time>
      </trkpt>
      <trkpt lat="45.83706" lon="4.72646">
        <ele>284.06937</ele>
        <time>2023-07-10T14:31:30.000Z</time>
      </trkpt>
      <trkpt lat="45.83702" lon="4.72647">
        <ele>284.25165</ele>
        <time>2023-07-10T14:31:31.000Z</time>
      </trkpt>
      <trkpt lat="45.83699" lon="4.72649">
        <ele>284.36142</ele>
        <time>2023-07-10T14:31:32.000Z</time>
      </trkpt>
      <trkpt lat="45.83696" lon="4.72651">
        <ele>284.39059</ele>
        <time>2023-07-10T14:31:33.000Z</time>
      </trkpt>
      <trkpt lat="45.83692" lon="4.72653">
        <ele>284.4761</ele>
        <time>2023-07-10T14:31:34.000Z</time>
      </trkpt>
      <trkpt lat="45.83689" lon="4.72654">
        <ele>284.63104</ele>
        <time>2023-07-10T14:31:35.000Z</time>
      </trkpt>
      <trkpt lat="45.83686" lon="4.72655">
        <ele>284.85333</ele>
        <time>2023-07-10T14:31:36.000Z</time>
      </trkpt>
      <trkpt lat="45.83684" lon="4.72656">
        <ele>284.88522</ele>
        <time>2023-07-10T14:31:37.000Z</time>
      </trkpt>
      <trkpt lat="45.83681" lon="4.72658">
        <ele>285.74567</ele>
        <time>2023-07-10T14:31:38.000Z</time>
      </trkpt>
      <trkpt lat="45.83677" lon="4.72659">
        <ele>286.60822</ele>
        <time>2023-07-10T14:31:39.000Z</time>
      </trkpt>
      <trkpt lat="45.83674" lon="4.7266">
        <ele>287.55222</ele>
        <time>2023-07-10T14:31:40.000Z</time>
      </trkpt>
      <trkpt lat="45.83671" lon="4.72661">
        <ele>288.3681</ele>
        <time>2023-07-10T14:31:41.000Z</time>
      </trkpt>
      <trkpt lat="45.83669" lon="4.72661">
        <ele>289.19318</ele>
        <time>2023-07-10T14:31:42.000Z</time>
      </trkpt>
      <trkpt lat="45.83666" lon="4.72662">
        <ele>290.03076</ele>
        <time>2023-07-10T14:31:43.000Z</time>
      </trkpt>
      <trkpt lat="45.83663" lon="4.72663">
        <ele>290.82074</ele>
        <time>2023-07-10T14:31:44.000Z</time>
      </trkpt>
      <trkpt lat="45.8366" lon="4.72664">
        <ele>291.57098</ele>
        <time>2023-07-10T14:31:45.000Z</time>
      </trkpt>
      <trkpt lat="45.83656" lon="4.72665">
        <ele>292.46738</ele>
        <time>2023-07-10T14:31:46.000Z</time>
      </trkpt>
      <trkpt lat="45.83653" lon="4.72667">
        <ele>293.1153</ele>
        <time>2023-07-10T14:31:47.000Z</time>
      </trkpt>
      <trkpt lat="45.83649" lon="4.72669">
        <ele>293.70938</ele>
        <time>2023-07-10T14:31:48.000Z</time>
      </trkpt>
      <trkpt lat="45.83646" lon="4.7267">
        <ele>294.63046</ele>
        <time>2023-07-10T14:31:49.000Z</time>
      </trkpt>
      <trkpt lat="45.83643" lon="4.72672">
        <ele>295.4549</ele>
        <time>2023-07-10T14:31:50.000Z</time>
      </trkpt>
      <trkpt lat="45.8364" lon="4.72675">
        <ele>296.35376</ele>
        <time>2023-07-10T14:31:51.000Z</time>
      </trkpt>
      <trkpt lat="45.83636" lon="4.72678">
        <ele>296.74323</ele>
        <time>2023-07-10T14:31:52.000Z</time>
      </trkpt>
      <trkpt lat="45.83633" lon="4.72681">
        <ele>297.19031</ele>
        <time>2023-07-10T14:31:53.000Z</time>
      </trkpt>
      <trkpt lat="45.83631" lon="4.72683">
        <ele>297.88248</ele>
        <time>2023-07-10T14:31:54.000Z</time>
      </trkpt>
      <trkpt lat="45.83629" lon="4.72686">
        <ele>298.401</ele>
        <time>2023-07-10T14:31:55.000Z</time>
      </trkpt>
      <trkpt lat="45.83626" lon="4.72689">
        <ele>299.01682</ele>
        <time>2023-07-10T14:31:56.000Z</time>
      </trkpt>
      <trkpt lat="45.83624" lon="4.72692">
        <ele>299.67999</ele>
        <time>2023-07-10T14:31:57.000Z</time>
      </trkpt>
      <trkpt lat="45.83621" lon="4.72696">
        <ele>299.66476</ele>
        <time>2023-07-10T14:31:58.000Z</time>
      </trkpt>
      <trkpt lat="45.83619" lon="4.72698">
        <ele>299.6058</ele>
        <time>2023-07-10T14:31:59.000Z</time>
      </trkpt>
      <trkpt lat="45.83616" lon="4.727">
        <ele>298.79877</ele>
        <time>2023-07-10T14:32:00.000Z</time>
      </trkpt>
      <trkpt lat="45.83613" lon="4.72701">
        <ele>298.53928</ele>
        <time>2023-07-10T14:32:01.000Z</time>
      </trkpt>
      <trkpt lat="45.83611" lon="4.72702">
        <ele>298.36688</ele>
        <time>2023-07-10T14:32:02.000Z</time>
      </trkpt>
      <trkpt lat="45.83608" lon="4.72702">
        <ele>298.21518</ele>
        <time>2023-07-10T14:32:03.000Z</time>
      </trkpt>
      <trkpt lat="45.83606" lon="4.72703">
        <ele>296.9783</ele>
        <time>2023-07-10T14:32:04.000Z</time>
      </trkpt>
      <trkpt lat="45.83604" lon="4.72704">
        <ele>295.77402</ele>
        <time>2023-07-10T14:32:05.000Z</time>
      </trkpt>
      <trkpt lat="45.83601" lon="4.72705">
        <ele>294.45767</ele>
        <time>2023-07-10T14:32:06.000Z</time>
      </trkpt>
      <trkpt lat="45.83599" lon="4.72708">
        <ele>293.20941</ele>
        <time>2023-07-10T14:32:07.000Z</time>
      </trkpt>
      <trkpt lat="45.83596" lon="4.7271">
        <ele>293.21533</ele>
        <time>2023-07-10T14:32:08.000Z</time>
      </trkpt>
      <trkpt lat="45.83593" lon="4.72713">
        <ele>293.28629</ele>
        <time>2023-07-10T14:32:09.000Z</time>
      </trkpt>
      <trkpt lat="45.8359" lon="4.72715">
        <ele>293.39487</ele>
        <time>2023-07-10T14:32:10.000Z</time>
      </trkpt>
      <trkpt lat="45.83587" lon="4.72717">
        <ele>293.43103</ele>
        <time>2023-07-10T14:32:11.000Z</time>
      </trkpt>
      <trkpt lat="45.83584" lon="4.7272">
        <ele>294.17984</ele>
        <time>2023-07-10T14:32:12.000Z</time>
      </trkpt>
      <trkpt lat="45.83581" lon="4.72722">
        <ele>294.9343</ele>
        <time>2023-07-10T14:32:13.000Z</time>
      </trkpt>
      <trkpt lat="45.83577" lon="4.72725">
        <ele>295.47946</ele>
        <time>2023-07-10T14:32:14.000Z</time>
      </trkpt>
      <trkpt lat="45.83573" lon="4.72727">
        <ele>296.11566</ele>
        <time>2023-07-10T14:32:15.000Z</time>
      </trkpt>
      <trkpt lat="45.83569" lon="4.72729">
        <ele>296.18011</ele>
        <time>2023-07-10T14:32:16.000Z</time>
      </trkpt>
      <trkpt lat="45.83565" lon="4.72731">
        <ele>296.45306</ele>
        <time>2023-07-10T14:32:17.000Z</time>
      </trkpt>
      <trkpt lat="45.83561" lon="4.72732">
        <ele>296.58194</ele>
        <time>2023-07-10T14:32:18.000Z</time>
      </trkpt>
      <trkpt lat="45.83558" lon="4.72734">
        <ele>296.70673</ele>
        <time>2023-07-10T14:32:19.000Z</time>
      </trkpt>
      <trkpt lat="45.83554" lon="4.72735">
        <ele>297.41312</ele>
        <time>2023-07-10T14:32:20.000Z</time>
      </trkpt>
      <trkpt lat="45.8355" lon="4.72736">
        <ele>297.70752</ele>
        <time>2023-07-10T14:32:21.000Z</time>
      </trkpt>
      <trkpt lat="45.83546" lon="4.72738">
        <ele>297.27682</ele>
        <time>2023-07-10T14:32:22.000Z</time>
      </trkpt>
      <trkpt lat="45.83542" lon="4.7274">
        <ele>296.85608</ele>
        <time>2023-07-10T14:32:23.000Z</time>
      </trkpt>
      <trkpt lat="45.83539" lon="4.72741">
        <ele>297.61371</ele>
        <time>2023-07-10T14:32:24.000Z</time>
      </trkpt>
      <trkpt lat="45.83535" lon="4.72742">
        <ele>298.40253</ele>
        <time>2023-07-10T14:32:25.000Z</time>
      </trkpt>
      <trkpt lat="45.83532" lon="4.72743">
        <ele>299.15338</ele>
        <time>2023-07-10T14:32:26.000Z</time>
      </trkpt>
      <trkpt lat="45.83528" lon="4.72744">
        <ele>299.91351</ele>
        <time>2023-07-10T14:32:27.000Z</time>
      </trkpt>
      <trkpt lat="45.83525" lon="4.72745">
        <ele>299.36945</ele>
        <time>2023-07-10T14:32:28.000Z</time>
      </trkpt>
      <trkpt lat="45.83522" lon="4.72746">
        <ele>298.83673</ele>
        <time>2023-07-10T14:32:29.000Z</time>
      </trkpt>
      <trkpt lat="45.83519" lon="4.72747">
        <ele>298.4393</ele>
        <time>2023-07-10T14:32:30.000Z</time>
      </trkpt>
      <trkpt lat="45.83515" lon="4.72748">
        <ele>298.12595</ele>
        <time>2023-07-10T14:32:31.000Z</time>
      </trkpt>
      <trkpt lat="45.83512" lon="4.72749">
        <ele>297.63766</ele>
        <time>2023-07-10T14:32:32.000Z</time>
      </trkpt>
      <trkpt lat="45.83508" lon="4.7275">
        <ele>297.22607</ele>
        <time>2023-07-10T14:32:33.000Z</time>
      </trkpt>
      <trkpt lat="45.83505" lon="4.72751">
        <ele>296.30365</ele>
        <time>2023-07-10T14:32:34.000Z</time>
      </trkpt>
      <trkpt lat="45.83503" lon="4.72752">
        <ele>296.00961</ele>
        <time>2023-07-10T14:32:35.000Z</time>
      </trkpt>
      <trkpt lat="45.83499" lon="4.72754">
        <ele>295.92358</ele>
        <time>2023-07-10T14:32:36.000Z</time>
      </trkpt>
      <trkpt lat="45.83496" lon="4.72757">
        <ele>295.64752</ele>
        <time>2023-07-10T14:32:37.000Z</time>
      </trkpt>
      <trkpt lat="45.83492" lon="4.72758">
        <ele>295.33026</ele>
        <time>2023-07-10T14:32:38.000Z</time>
      </trkpt>
      <trkpt lat="45.83488" lon="4.7276">
        <ele>294.94815</ele>
        <time>2023-07-10T14:32:39.000Z</time>
      </trkpt>
      <trkpt lat="45.83484" lon="4.72762">
        <ele>294.58548</ele>
        <time>2023-07-10T14:32:40.000Z</time>
      </trkpt>
      <trkpt lat="45.8348" lon="4.72763">
        <ele>294.45773</ele>
        <time>2023-07-10T14:32:41.000Z</time>
      </trkpt>
      <trkpt lat="45.83476" lon="4.72764">
        <ele>294.96323</ele>
        <time>2023-07-10T14:32:42.000Z</time>
      </trkpt>
      <trkpt lat="45.83472" lon="4.72765">
        <ele>295.33459</ele>
        <time>2023-07-10T14:32:43.000Z</time>
      </trkpt>
      <trkpt lat="45.83469" lon="4.72766">
        <ele>295.69232</ele>
        <time>2023-07-10T14:32:44.000Z</time>
      </trkpt>
      <trkpt lat="45.83465" lon="4.72767">
        <ele>296.0506</ele>
        <time>2023-07-10T14:32:45.000Z</time>
      </trkpt>
      <trkpt lat="45.83461" lon="4.72768">
        <ele>296.58292</ele>
        <time>2023-07-10T14:32:46.000Z</time>
      </trkpt>
      <trkpt lat="45.83456" lon="4.7277">
        <ele>297.10345</ele>
        <time>2023-07-10T14:32:47.000Z</time>
      </trkpt>
      <trkpt lat="45.83452" lon="4.72771">
        <ele>297.68671</ele>
        <time>2023-07-10T14:32:48.000Z</time>
      </trkpt>
      <trkpt lat="45.83448" lon="4.72773">
        <ele>298.17392</ele>
        <time>2023-07-10T14:32:49.000Z</time>
      </trkpt>
      <trkpt lat="45.83444" lon="4.72775">
        <ele>298.48517</ele>
        <time>2023-07-10T14:32:50.000Z</time>
      </trkpt>
      <trkpt lat="45.83441" lon="4.72777">
        <ele>298.76791</ele>
        <time>2023-07-10T14:32:51.000Z</time>
      </trkpt>
      <trkpt lat="45.83438" lon="4.72779">
        <ele>298.91507</ele>
        <time>2023-07-10T14:32:52.000Z</time>
      </trkpt>
      <trkpt lat="45.83435" lon="4.72781">
        <ele>299.09384</ele>
        <time>2023-07-10T14:32:53.000Z</time>
      </trkpt>
      <trkpt lat="45.83433" lon="4.72785">
        <ele>299.75397</ele>
        <time>2023-07-10T14:32:54.000Z</time>
      </trkpt>
      <trkpt lat="45.83432" lon="4.72789">
        <ele>299.75876</ele>
        <time>2023-07-10T14:32:55.000Z</time>
      </trkpt>
      <trkpt lat="45.83432" lon="4.72795">
        <ele>300.03735</ele>
        <time>2023-07-10T14:32:56.000Z</time>
      </trkpt>
      <trkpt lat="45.83432" lon="4.728">
        <ele>300.35834</ele>
        <time>2023-07-10T14:32:57.000Z</time>
      </trkpt>
      <trkpt lat="45.83433" lon="4.72804">
        <ele>300.72919</ele>
        <time>2023-07-10T14:32:58.000Z</time>
      </trkpt>
      <trkpt lat="45.83435" lon="4.7281">
        <ele>301.19229</ele>
        <time>2023-07-10T14:32:59.000Z</time>
      </trkpt>
      <trkpt lat="45.83435" lon="4.72814">
        <ele>301.69794</ele>
        <time>2023-07-10T14:33:00.000Z</time>
      </trkpt>
      <trkpt lat="45.83436" lon="4.7282">
        <ele>301.60959</ele>
        <time>2023-07-10T14:33:01.000Z</time>
      </trkpt>
      <trkpt lat="45.83436" lon="4.72826">
        <ele>301.517</ele>
        <time>2023-07-10T14:33:02.000Z</time>
      </trkpt>
      <trkpt lat="45.83436" lon="4.72831">
        <ele>301.40298</ele>
        <time>2023-07-10T14:33:03.000Z</time>
      </trkpt>
      <trkpt lat="45.83436" lon="4.72835">
        <ele>301.50226</ele>
        <time>2023-07-10T14:33:04.000Z</time>
      </trkpt>
      <trkpt lat="45.83437" lon="4.7284">
        <ele>301.51114</ele>
        <time>2023-07-10T14:33:05.000Z</time>
      </trkpt>
      <trkpt lat="45.83439" lon="4.72845">
        <ele>301.50677</ele>
        <time>2023-07-10T14:33:06.000Z</time>
      </trkpt>
      <trkpt lat="45.8344" lon="4.7285">
        <ele>301.47226</ele>
        <time>2023-07-10T14:33:07.000Z</time>
      </trkpt>
      <trkpt lat="45.83441" lon="4.72855">
        <ele>301.0925</ele>
        <time>2023-07-10T14:33:08.000Z</time>
      </trkpt>
      <trkpt lat="45.83442" lon="4.72861">
        <ele>300.79315</ele>
        <time>2023-07-10T14:33:09.000Z</time>
      </trkpt>
      <trkpt lat="45.83442" lon="4.72866">
        <ele>300.39969</ele>
        <time>2023-07-10T14:33:10.000Z</time>
      </trkpt>
      <trkpt lat="45.83442" lon="4.72871">
        <ele>300.01907</ele>
        <time>2023-07-10T14:33:11.000Z</time>
      </trkpt>
      <trkpt lat="45.83442" lon="4.72875">
        <ele>299.63861</ele>
        <time>2023-07-10T14:33:12.000Z</time>
      </trkpt>
      <trkpt lat="45.83442" lon="4.7288">
        <ele>299.30341</ele>
        <time>2023-07-10T14:33:13.000Z</time>
      </trkpt>
      <trkpt lat="45.83442" lon="4.72885">
        <ele>298.98691</ele>
        <time>2023-07-10T14:33:14.000Z</time>
      </trkpt>
      <trkpt lat="45.83442" lon="4.7289">
        <ele>298.74579</ele>
        <time>2023-07-10T14:33:15.000Z</time>
      </trkpt>
      <trkpt lat="45.83443" lon="4.72895">
        <ele>298.5509</ele>
        <time>2023-07-10T14:33:16.000Z</time>
      </trkpt>
      <trkpt lat="45.83445" lon="4.72901">
        <ele>298.26016</ele>
        <time>2023-07-10T14:33:17.000Z</time>
      </trkpt>
      <trkpt lat="45.83446" lon="4.72906">
        <ele>297.65054</ele>
        <time>2023-07-10T14:33:18.000Z</time>
      </trkpt>
      <trkpt lat="45.83447" lon="4.72911">
        <ele>297.0177</ele>
        <time>2023-07-10T14:33:19.000Z</time>
      </trkpt>
      <trkpt lat="45.83449" lon="4.72915">
        <ele>296.43033</ele>
        <time>2023-07-10T14:33:20.000Z</time>
      </trkpt>
      <trkpt lat="45.83451" lon="4.7292">
        <ele>296.27353</ele>
        <time>2023-07-10T14:33:21.000Z</time>
      </trkpt>
      <trkpt lat="45.83453" lon="4.72923">
        <ele>296.12653</ele>
        <time>2023-07-10T14:33:22.000Z</time>
      </trkpt>
      <trkpt lat="45.83454" lon="4.72926">
        <ele>296.06888</ele>
        <time>2023-07-10T14:33:23.000Z</time>
      </trkpt>
      <trkpt lat="45.83456" lon="4.72929">
        <ele>295.77261</ele>
        <time>2023-07-10T14:33:24.000Z</time>
      </trkpt>
      <trkpt lat="45.83458" lon="4.72933">
        <ele>295.48563</ele>
        <time>2023-07-10T14:33:25.000Z</time>
      </trkpt>
      <trkpt lat="45.8346" lon="4.72938">
        <ele>295.10025</ele>
        <time>2023-07-10T14:33:26.000Z</time>
      </trkpt>
      <trkpt lat="45.83461" lon="4.72943">
        <ele>294.72321</ele>
        <time>2023-07-10T14:33:27.000Z</time>
      </trkpt>
      <trkpt lat="45.83463" lon="4.72948">
        <ele>294.728</ele>
        <time>2023-07-10T14:33:28.000Z</time>
      </trkpt>
      <trkpt lat="45.83464" lon="4.72953">
        <ele>294.68451</ele>
        <time>2023-07-10T14:33:29.000Z</time>
      </trkpt>
      <trkpt lat="45.83466" lon="4.72957">
        <ele>294.71848</ele>
        <time>2023-07-10T14:33:30.000Z</time>
      </trkpt>
      <trkpt lat="45.83467" lon="4.72961">
        <ele>294.76404</ele>
        <time>2023-07-10T14:33:31.000Z</time>
      </trkpt>
      <trkpt lat="45.83469" lon="4.72966">
        <ele>294.7915</ele>
        <time>2023-07-10T14:33:32.000Z</time>
      </trkpt>
      <trkpt lat="45.83471" lon="4.72971">
        <ele>294.67816</ele>
        <time>2023-07-10T14:33:33.000Z</time>
      </trkpt>
      <trkpt lat="45.83472" lon="4.72975">
        <ele>294.49274</ele>
        <time>2023-07-10T14:33:34.000Z</time>
      </trkpt>
      <trkpt lat="45.83473" lon="4.72979">
        <ele>294.40802</ele>
        <time>2023-07-10T14:33:35.000Z</time>
      </trkpt>
      <trkpt lat="45.83474" lon="4.72983">
        <ele>294.24838</ele>
        <time>2023-07-10T14:33:36.000Z</time>
      </trkpt>
      <trkpt lat="45.83475" lon="4.72987">
        <ele>294.25266</ele>
        <time>2023-07-10T14:33:37.000Z</time>
      </trkpt>
      <trkpt lat="45.83476" lon="4.72992">
        <ele>294.61829</ele>
        <time>2023-07-10T14:33:38.000Z</time>
      </trkpt>
      <trkpt lat="45.83477" lon="4.72997">
        <ele>294.92236</ele>
        <time>2023-07-10T14:33:39.000Z</time>
      </trkpt>
      <trkpt lat="45.83478" lon="4.73001">
        <ele>295.12518</ele>
        <time>2023-07-10T14:33:40.000Z</time>
      </trkpt>
      <trkpt lat="45.83478" lon="4.73004">
        <ele>295.33453</ele>
        <time>2023-07-10T14:33:41.000Z</time>
      </trkpt>
      <trkpt lat="45.83479" lon="4.73008">
        <ele>295.5578</ele>
        <time>2023-07-10T14:33:42.000Z</time>
      </trkpt>
      <trkpt lat="45.83481" lon="4.73013">
        <ele>295.44702</ele>
        <time>2023-07-10T14:33:43.000Z</time>
      </trkpt>
      <trkpt lat="45.83483" lon="4.73017">
        <ele>295.52594</ele>
        <time>2023-07-10T14:33:44.000Z</time>
      </trkpt>
      <trkpt lat="45.83485" lon="4.73022">
        <ele>295.64175</ele>
        <time>2023-07-10T14:33:45.000Z</time>
      </trkpt>
      <trkpt lat="45.83488" lon="4.73025">
        <ele>295.66611</ele>
        <time>2023-07-10T14:33:46.000Z</time>
      </trkpt>
      <trkpt lat="45.83489" lon="4.73028">
        <ele>295.65173</ele>
        <time>2023-07-10T14:33:47.000Z</time>
      </trkpt>
      <trkpt lat="45.83491" lon="4.73032">
        <ele>295.14746</ele>
        <time>2023-07-10T14:33:48.000Z</time>
      </trkpt>
      <trkpt lat="45.83494" lon="4.73035">
        <ele>294.66275</ele>
        <time>2023-07-10T14:33:49.000Z</time>
      </trkpt>
      <trkpt lat="45.83497" lon="4.73039">
        <ele>294.20551</ele>
        <time>2023-07-10T14:33:50.000Z</time>
      </trkpt>
      <trkpt lat="45.835" lon="4.73042">
        <ele>293.73273</ele>
        <time>2023-07-10T14:33:51.000Z</time>
      </trkpt>
      <trkpt lat="45.83503" lon="4.73045">
        <ele>293.30829</ele>
        <time>2023-07-10T14:33:52.000Z</time>
      </trkpt>
      <trkpt lat="45.83506" lon="4.73048">
        <ele>292.94388</ele>
        <time>2023-07-10T14:33:53.000Z</time>
      </trkpt>
      <trkpt lat="45.83509" lon="4.73052">
        <ele>292.57809</ele>
        <time>2023-07-10T14:33:54.000Z</time>
      </trkpt>
      <trkpt lat="45.83512" lon="4.73055">
        <ele>292.10123</ele>
        <time>2023-07-10T14:33:55.000Z</time>
      </trkpt>
      <trkpt lat="45.83515" lon="4.73058">
        <ele>291.60654</ele>
        <time>2023-07-10T14:33:56.000Z</time>
      </trkpt>
      <trkpt lat="45.83517" lon="4.73061">
        <ele>290.98114</ele>
        <time>2023-07-10T14:33:57.000Z</time>
      </trkpt>
      <trkpt lat="45.83521" lon="4.73063">
        <ele>290.37506</ele>
        <time>2023-07-10T14:33:58.000Z</time>
      </trkpt>
      <trkpt lat="45.83525" lon="4.73064">
        <ele>289.78058</ele>
        <time>2023-07-10T14:33:59.000Z</time>
      </trkpt>
      <trkpt lat="45.83528" lon="4.73065">
        <ele>289.20966</ele>
        <time>2023-07-10T14:34:00.000Z</time>
      </trkpt>
      <trkpt lat="45.83532" lon="4.73065">
        <ele>288.57663</ele>
        <time>2023-07-10T14:34:01.000Z</time>
      </trkpt>
      <trkpt lat="45.83535" lon="4.73065">
        <ele>287.94128</ele>
        <time>2023-07-10T14:34:02.000Z</time>
      </trkpt>
      <trkpt lat="45.83539" lon="4.73065">
        <ele>287.68033</ele>
        <time>2023-07-10T14:34:03.000Z</time>
      </trkpt>
      <trkpt lat="45.83543" lon="4.73064">
        <ele>287.24911</ele>
        <time>2023-07-10T14:34:04.000Z</time>
      </trkpt>
      <trkpt lat="45.83547" lon="4.73063">
        <ele>287.48566</ele>
        <time>2023-07-10T14:34:05.000Z</time>
      </trkpt>
      <trkpt lat="45.8355" lon="4.73062">
        <ele>287.70087</ele>
        <time>2023-07-10T14:34:06.000Z</time>
      </trkpt>
      <trkpt lat="45.83554" lon="4.7306">
        <ele>287.98682</ele>
        <time>2023-07-10T14:34:07.000Z</time>
      </trkpt>
      <trkpt lat="45.83557" lon="4.7306">
        <ele>288.69543</ele>
        <time>2023-07-10T14:34:08.000Z</time>
      </trkpt>
      <trkpt lat="45.8356" lon="4.73059">
        <ele>289.4238</ele>
        <time>2023-07-10T14:34:09.000Z</time>
      </trkpt>
      <trkpt lat="45.83563" lon="4.73058">
        <ele>290.12317</ele>
        <time>2023-07-10T14:34:10.000Z</time>
      </trkpt>
      <trkpt lat="45.83567" lon="4.73057">
        <ele>290.75821</ele>
        <time>2023-07-10T14:34:11.000Z</time>
      </trkpt>
      <trkpt lat="45.83571" lon="4.73056">
        <ele>291.44553</ele>
        <time>2023-07-10T14:34:12.000Z</time>
      </trkpt>
      <trkpt lat="45.83574" lon="4.73055">
        <ele>292.03256</ele>
        <time>2023-07-10T14:34:13.000Z</time>
      </trkpt>
      <trkpt lat="45.83578" lon="4.73054">
        <ele>292.65231</ele>
        <time>2023-07-10T14:34:14.000Z</time>
      </trkpt>
      <trkpt lat="45.83582" lon="4.73054">
        <ele>293.24472</ele>
        <time>2023-07-10T14:34:15.000Z</time>
      </trkpt>
      <trkpt lat="45.83586" lon="4.73053">
        <ele>293.7677</ele>
        <time>2023-07-10T14:34:16.000Z</time>
      </trkpt>
      <trkpt lat="45.83591" lon="4.73052">
        <ele>294.39856</ele>
        <time>2023-07-10T14:34:17.000Z</time>
      </trkpt>
      <trkpt lat="45.83595" lon="4.7305">
        <ele>294.68799</ele>
        <time>2023-07-10T14:34:18.000Z</time>
      </trkpt>
      <trkpt lat="45.83599" lon="4.73047">
        <ele>295.01602</ele>
        <time>2023-07-10T14:34:19.000Z</time>
      </trkpt>
      <trkpt lat="45.83604" lon="4.73045">
        <ele>295.388</ele>
        <time>2023-07-10T14:34:20.000Z</time>
      </trkpt>
      <trkpt lat="45.83608" lon="4.73044">
        <ele>295.79639</ele>
        <time>2023-07-10T14:34:21.000Z</time>
      </trkpt>
      <trkpt lat="45.83613" lon="4.73042">
        <ele>296.16647</ele>
        <time>2023-07-10T14:34:22.000Z</time>
      </trkpt>
      <trkpt lat="45.83617" lon="4.7304">
        <ele>296.84946</ele>
        <time>2023-07-10T14:34:23.000Z</time>
      </trkpt>
      <trkpt lat="45.83624" lon="4.73037">
        <ele>297.505</ele>
        <time>2023-07-10T14:34:24.000Z</time>
      </trkpt>
      <trkpt lat="45.83629" lon="4.73035">
        <ele>297.53021</ele>
        <time>2023-07-10T14:34:25.000Z</time>
      </trkpt>
      <trkpt lat="45.83633" lon="4.73031">
        <ele>297.70117</ele>
        <time>2023-07-10T14:34:26.000Z</time>
      </trkpt>
      <trkpt lat="45.83638" lon="4.73029">
        <ele>297.77289</ele>
        <time>2023-07-10T14:34:27.000Z</time>
      </trkpt>
      <trkpt lat="45.83643" lon="4.73027">
        <ele>297.78769</ele>
        <time>2023-07-10T14:34:28.000Z</time>
      </trkpt>
      <trkpt lat="45.83647" lon="4.73027">
        <ele>297.68735</ele>
        <time>2023-07-10T14:34:29.000Z</time>
      </trkpt>
      <trkpt lat="45.83652" lon="4.73026">
        <ele>297.67303</ele>
        <time>2023-07-10T14:34:30.000Z</time>
      </trkpt>
      <trkpt lat="45.83657" lon="4.73024">
        <ele>297.70441</ele>
        <time>2023-07-10T14:34:31.000Z</time>
      </trkpt>
      <trkpt lat="45.83663" lon="4.73023">
        <ele>297.70499</ele>
        <time>2023-07-10T14:34:32.000Z</time>
      </trkpt>
      <trkpt lat="45.8367" lon="4.73021">
        <ele>297.77716</ele>
        <time>2023-07-10T14:34:33.000Z</time>
      </trkpt>
      <trkpt lat="45.83678" lon="4.73023">
        <ele>297.89795</ele>
        <time>2023-07-10T14:34:34.000Z</time>
      </trkpt>
      <trkpt lat="45.83686" lon="4.73023">
        <ele>298.0238</ele>
        <time>2023-07-10T14:34:35.000Z</time>
      </trkpt>
      <trkpt lat="45.83693" lon="4.73022">
        <ele>298.25934</ele>
        <time>2023-07-10T14:34:36.000Z</time>
      </trkpt>
      <trkpt lat="45.83701" lon="4.73019">
        <ele>298.43961</ele>
        <time>2023-07-10T14:34:37.000Z</time>
      </trkpt>
      <trkpt lat="45.83708" lon="4.73017">
        <ele>298.92581</ele>
        <time>2023-07-10T14:34:38.000Z</time>
      </trkpt>
      <trkpt lat="45.83715" lon="4.73014">
        <ele>299.41324</ele>
        <time>2023-07-10T14:34:39.000Z</time>
      </trkpt>
      <trkpt lat="45.83723" lon="4.73012">
        <ele>299.83389</ele>
        <time>2023-07-10T14:34:40.000Z</time>
      </trkpt>
      <trkpt lat="45.83731" lon="4.73014">
        <ele>300.1546</ele>
        <time>2023-07-10T14:34:41.000Z</time>
      </trkpt>
      <trkpt lat="45.83738" lon="4.73017">
        <ele>300.45135</ele>
        <time>2023-07-10T14:34:42.000Z</time>
      </trkpt>
      <trkpt lat="45.83742" lon="4.73023">
        <ele>300.41931</ele>
        <time>2023-07-10T14:34:43.000Z</time>
      </trkpt>
      <trkpt lat="45.83747" lon="4.73032">
        <ele>300.36191</ele>
        <time>2023-07-10T14:34:44.000Z</time>
      </trkpt>
      <trkpt lat="45.83749" lon="4.7304">
        <ele>300.22369</ele>
        <time>2023-07-10T14:34:45.000Z</time>
      </trkpt>
      <trkpt lat="45.8375" lon="4.73048">
        <ele>300.02472</ele>
        <time>2023-07-10T14:34:46.000Z</time>
      </trkpt>
      <trkpt lat="45.83752" lon="4.73054">
        <ele>299.88812</ele>
        <time>2023-07-10T14:34:47.000Z</time>
      </trkpt>
      <trkpt lat="45.83753" lon="4.73061">
        <ele>299.71915</ele>
        <time>2023-07-10T14:34:48.000Z</time>
      </trkpt>
      <trkpt lat="45.83749" lon="4.73065">
        <ele>299.56946</ele>
        <time>2023-07-10T14:34:49.000Z</time>
      </trkpt>
      <trkpt lat="45.83748" lon="4.7307">
        <ele>299.40964</ele>
        <time>2023-07-10T14:34:50.000Z</time>
      </trkpt>
      <trkpt lat="45.83749" lon="4.73075">
        <ele>299.37924</ele>
        <time>2023-07-10T14:34:51.000Z</time>
      </trkpt>
      <trkpt lat="45.83751" lon="4.73081">
        <ele>299.45596</ele>
        <time>2023-07-10T14:34:52.000Z</time>
      </trkpt>
      <trkpt lat="45.83753" lon="4.73088">
        <ele>299.06525</ele>
        <time>2023-07-10T14:34:53.000Z</time>
      </trkpt>
      <trkpt lat="45.83754" lon="4.73092">
        <ele>298.84735</ele>
        <time>2023-07-10T14:34:54.000Z</time>
      </trkpt>
      <trkpt lat="45.83756" lon="4.73098">
        <ele>298.57962</ele>
        <time>2023-07-10T14:34:55.000Z</time>
      </trkpt>
      <trkpt lat="45.83758" lon="4.73103">
        <ele>298.24075</ele>
        <time>2023-07-10T14:34:56.000Z</time>
      </trkpt>
      <trkpt lat="45.8376" lon="4.73109">
        <ele>297.91229</ele>
        <time>2023-07-10T14:34:57.000Z</time>
      </trkpt>
      <trkpt lat="45.83763" lon="4.73113">
        <ele>297.47614</ele>
        <time>2023-07-10T14:34:58.000Z</time>
      </trkpt>
      <trkpt lat="45.83766" lon="4.73117">
        <ele>297.2114</ele>
        <time>2023-07-10T14:34:59.000Z</time>
      </trkpt>
      <trkpt lat="45.83768" lon="4.73121">
        <ele>296.97812</ele>
        <time>2023-07-10T14:35:00.000Z</time>
      </trkpt>
      <trkpt lat="45.83769" lon="4.73124">
        <ele>296.76529</ele>
        <time>2023-07-10T14:35:01.000Z</time>
      </trkpt>
      <trkpt lat="45.83771" lon="4.73127">
        <ele>296.69366</ele>
        <time>2023-07-10T14:35:02.000Z</time>
      </trkpt>
      <trkpt lat="45.83773" lon="4.73131">
        <ele>296.64981</ele>
        <time>2023-07-10T14:35:03.000Z</time>
      </trkpt>
      <trkpt lat="45.83775" lon="4.73136">
        <ele>296.681</ele>
        <time>2023-07-10T14:35:04.000Z</time>
      </trkpt>
      <trkpt lat="45.83777" lon="4.7314">
        <ele>297.49542</ele>
        <time>2023-07-10T14:35:05.000Z</time>
      </trkpt>
      <trkpt lat="45.83778" lon="4.73145">
        <ele>297.58405</ele>
        <time>2023-07-10T14:35:06.000Z</time>
      </trkpt>
      <trkpt lat="45.8378" lon="4.73149">
        <ele>297.89758</ele>
        <time>2023-07-10T14:35:07.000Z</time>
      </trkpt>
      <trkpt lat="45.8378" lon="4.73154">
        <ele>298.33319</ele>
        <time>2023-07-10T14:35:08.000Z</time>
      </trkpt>
      <trkpt lat="45.83781" lon="4.73159">
        <ele>298.72223</ele>
        <time>2023-07-10T14:35:09.000Z</time>
      </trkpt>
      <trkpt lat="45.83781" lon="4.73164">
        <ele>299.00458</ele>
        <time>2023-07-10T14:35:10.000Z</time>
      </trkpt>
      <trkpt lat="45.83782" lon="4.73168">
        <ele>299.16174</ele>
        <time>2023-07-10T14:35:11.000Z</time>
      </trkpt>
      <trkpt lat="45.83782" lon="4.73172">
        <ele>299.12848</ele>
        <time>2023-07-10T14:35:12.000Z</time>
      </trkpt>
      <trkpt lat="45.83781" lon="4.73175">
        <ele>299.80704</ele>
        <time>2023-07-10T14:35:13.000Z</time>
      </trkpt>
      <trkpt lat="45.83781" lon="4.73178">
        <ele>300.35944</ele>
        <time>2023-07-10T14:35:14.000Z</time>
      </trkpt>
      <trkpt lat="45.83779" lon="4.73179">
        <ele>300.86374</ele>
        <time>2023-07-10T14:35:17.000Z</time>
      </trkpt>
      <trkpt lat="45.83779" lon="4.73182">
        <ele>301.30869</ele>
        <time>2023-07-10T14:35:30.000Z</time>
      </trkpt>
      <trkpt lat="45.83778" lon="4.73184">
        <ele>301.25766</ele>
        <time>2023-07-10T14:36:12.000Z</time>
      </trkpt>
      <trkpt lat="45.83774" lon="4.73186">
        <ele>301.24838</ele>
        <time>2023-07-10T14:36:14.000Z</time>
      </trkpt>
      <trkpt lat="45.83773" lon="4.73188">
        <ele>301.00473</ele>
        <time>2023-07-10T14:36:15.000Z</time>
      </trkpt>
      <trkpt lat="45.83771" lon="4.7319">
        <ele>300.68073</ele>
        <time>2023-07-10T14:36:16.000Z</time>
      </trkpt>
      <trkpt lat="45.83769" lon="4.73192">
        <ele>300.62112</ele>
        <time>2023-07-10T14:36:17.000Z</time>
      </trkpt>
      <trkpt lat="45.83767" lon="4.73194">
        <ele>300.61655</ele>
        <time>2023-07-10T14:36:18.000Z</time>
      </trkpt>
      <trkpt lat="45.83765" lon="4.73196">
        <ele>300.59024</ele>
        <time>2023-07-10T14:36:19.000Z</time>
      </trkpt>
      <trkpt lat="45.83763" lon="4.73199">
        <ele>300.09366</ele>
        <time>2023-07-10T14:36:20.000Z</time>
      </trkpt>
      <trkpt lat="45.83761" lon="4.73201">
        <ele>298.89203</ele>
        <time>2023-07-10T14:36:21.000Z</time>
      </trkpt>
      <trkpt lat="45.83759" lon="4.73204">
        <ele>298.44952</ele>
        <time>2023-07-10T14:36:22.000Z</time>
      </trkpt>
      <trkpt lat="45.83756" lon="4.73207">
        <ele>297.80087</ele>
        <time>2023-07-10T14:36:23.000Z</time>
      </trkpt>
      <trkpt lat="45.83753" lon="4.73209">
        <ele>297.11487</ele>
        <time>2023-07-10T14:36:24.000Z</time>
      </trkpt>
      <trkpt lat="45.83751" lon="4.73212">
        <ele>296.53442</ele>
        <time>2023-07-10T14:36:25.000Z</time>
      </trkpt>
      <trkpt lat="45.83748" lon="4.73215">
        <ele>296</ele>
        <time>2023-07-10T14:36:26.000Z</time>
      </trkpt>
      <trkpt lat="45.83746" lon="4.73217">
        <ele>294.86505</ele>
        <time>2023-07-10T14:36:27.000Z</time>
      </trkpt>
      <trkpt lat="45.83744" lon="4.7322">
        <ele>293.82162</ele>
        <time>2023-07-10T14:36:28.000Z</time>
      </trkpt>
      <trkpt lat="45.83741" lon="4.73222">
        <ele>292.5748</ele>
        <time>2023-07-10T14:36:29.000Z</time>
      </trkpt>
      <trkpt lat="45.83739" lon="4.73224">
        <ele>291.26068</ele>
        <time>2023-07-10T14:36:30.000Z</time>
      </trkpt>
      <trkpt lat="45.83737" lon="4.73226">
        <ele>290.06308</ele>
        <time>2023-07-10T14:36:31.000Z</time>
      </trkpt>
      <trkpt lat="45.83735" lon="4.73228">
        <ele>288.96893</ele>
        <time>2023-07-10T14:36:32.000Z</time>
      </trkpt>
      <trkpt lat="45.83733" lon="4.7323">
        <ele>288.22797</ele>
        <time>2023-07-10T14:36:33.000Z</time>
      </trkpt>
      <trkpt lat="45.83731" lon="4.73233">
        <ele>287.55103</ele>
        <time>2023-07-10T14:36:34.000Z</time>
      </trkpt>
      <trkpt lat="45.8373" lon="4.73236">
        <ele>286.90356</ele>
        <time>2023-07-10T14:36:35.000Z</time>
      </trkpt>
      <trkpt lat="45.83728" lon="4.73239">
        <ele>286.35504</ele>
        <time>2023-07-10T14:36:36.000Z</time>
      </trkpt>
      <trkpt lat="45.83724" lon="4.73246">
        <ele>285.46832</ele>
        <time>2023-07-10T14:36:37.000Z</time>
      </trkpt>
      <trkpt lat="45.83722" lon="4.73249">
        <ele>284.41718</ele>
        <time>2023-07-10T14:36:38.000Z</time>
      </trkpt>
      <trkpt lat="45.83719" lon="4.73253">
        <ele>284.72955</ele>
        <time>2023-07-10T14:36:39.000Z</time>
      </trkpt>
      <trkpt lat="45.83717" lon="4.73256">
        <ele>285.37848</ele>
        <time>2023-07-10T14:36:40.000Z</time>
      </trkpt>
      <trkpt lat="45.83715" lon="4.73258">
        <ele>284.92783</ele>
        <time>2023-07-10T14:36:41.000Z</time>
      </trkpt>
      <trkpt lat="45.83713" lon="4.73262">
        <ele>285.77826</ele>
        <time>2023-07-10T14:36:42.000Z</time>
      </trkpt>
      <trkpt lat="45.83712" lon="4.73264">
        <ele>286.17361</ele>
        <time>2023-07-10T14:36:43.000Z</time>
      </trkpt>
      <trkpt lat="45.8371" lon="4.73267">
        <ele>286.81372</ele>
        <time>2023-07-10T14:36:44.000Z</time>
      </trkpt>
      <trkpt lat="45.83707" lon="4.73269">
        <ele>287.83154</ele>
        <time>2023-07-10T14:36:45.000Z</time>
      </trkpt>
      <trkpt lat="45.83704" lon="4.73271">
        <ele>287.40442</ele>
        <time>2023-07-10T14:36:46.000Z</time>
      </trkpt>
      <trkpt lat="45.83702" lon="4.73274">
        <ele>287.59277</ele>
        <time>2023-07-10T14:36:48.000Z</time>
      </trkpt>
      <trkpt lat="45.837" lon="4.73277">
        <ele>287.74033</ele>
        <time>2023-07-10T14:36:49.000Z</time>
      </trkpt>
      <trkpt lat="45.83697" lon="4.73281">
        <ele>287.8443</ele>
        <time>2023-07-10T14:36:50.000Z</time>
      </trkpt>
      <trkpt lat="45.83695" lon="4.73284">
        <ele>287.88666</ele>
        <time>2023-07-10T14:36:51.000Z</time>
      </trkpt>
      <trkpt lat="45.83693" lon="4.73287">
        <ele>287.94128</ele>
        <time>2023-07-10T14:36:52.000Z</time>
      </trkpt>
      <trkpt lat="45.83691" lon="4.7329">
        <ele>287.98117</ele>
        <time>2023-07-10T14:36:53.000Z</time>
      </trkpt>
      <trkpt lat="45.83689" lon="4.73293">
        <ele>288.11627</ele>
        <time>2023-07-10T14:36:54.000Z</time>
      </trkpt>
      <trkpt lat="45.83687" lon="4.73296">
        <ele>288.2243</ele>
        <time>2023-07-10T14:36:55.000Z</time>
      </trkpt>
      <trkpt lat="45.83684" lon="4.73299">
        <ele>288.33997</ele>
        <time>2023-07-10T14:36:56.000Z</time>
      </trkpt>
      <trkpt lat="45.83682" lon="4.73302">
        <ele>288.46539</ele>
        <time>2023-07-10T14:36:57.000Z</time>
      </trkpt>
      <trkpt lat="45.83679" lon="4.73306">
        <ele>288.6857</ele>
        <time>2023-07-10T14:36:58.000Z</time>
      </trkpt>
      <trkpt lat="45.83676" lon="4.73309">
        <ele>288.9252</ele>
        <time>2023-07-10T14:36:59.000Z</time>
      </trkpt>
      <trkpt lat="45.83674" lon="4.73312">
        <ele>287.79681</ele>
        <time>2023-07-10T14:37:00.000Z</time>
      </trkpt>
      <trkpt lat="45.83672" lon="4.73316">
        <ele>286.86288</ele>
        <time>2023-07-10T14:37:01.000Z</time>
      </trkpt>
      <trkpt lat="45.8367" lon="4.7332">
        <ele>286.99542</ele>
        <time>2023-07-10T14:37:02.000Z</time>
      </trkpt>
      <trkpt lat="45.83669" lon="4.73324">
        <ele>285.79031</ele>
        <time>2023-07-10T14:37:03.000Z</time>
      </trkpt>
      <trkpt lat="45.83667" lon="4.73328">
        <ele>284.97882</ele>
        <time>2023-07-10T14:37:04.000Z</time>
      </trkpt>
      <trkpt lat="45.83665" lon="4.73331">
        <ele>283.97089</ele>
        <time>2023-07-10T14:37:05.000Z</time>
      </trkpt>
      <trkpt lat="45.83663" lon="4.73334">
        <ele>282.57739</ele>
        <time>2023-07-10T14:37:06.000Z</time>
      </trkpt>
      <trkpt lat="45.8366" lon="4.73337">
        <ele>282.62732</ele>
        <time>2023-07-10T14:37:07.000Z</time>
      </trkpt>
      <trkpt lat="45.83658" lon="4.7334">
        <ele>282.62433</ele>
        <time>2023-07-10T14:37:08.000Z</time>
      </trkpt>
      <trkpt lat="45.83656" lon="4.73344">
        <ele>282.63654</ele>
        <time>2023-07-10T14:37:09.000Z</time>
      </trkpt>
      <trkpt lat="45.83655" lon="4.73348">
        <ele>282.63232</ele>
        <time>2023-07-10T14:37:10.000Z</time>
      </trkpt>
      <trkpt lat="45.83654" lon="4.73353">
        <ele>282.65836</ele>
        <time>2023-07-10T14:37:11.000Z</time>
      </trkpt>
      <trkpt lat="45.83653" lon="4.73357">
        <ele>282.63751</ele>
        <time>2023-07-10T14:37:12.000Z</time>
      </trkpt>
      <trkpt lat="45.83652" lon="4.73362">
        <ele>282.65759</ele>
        <time>2023-07-10T14:37:13.000Z</time>
      </trkpt>
      <trkpt lat="45.83652" lon="4.73367">
        <ele>282.68207</ele>
        <time>2023-07-10T14:37:14.000Z</time>
      </trkpt>
      <trkpt lat="45.83651" lon="4.73372">
        <ele>282.67255</ele>
        <time>2023-07-10T14:37:15.000Z</time>
      </trkpt>
      <trkpt lat="45.83651" lon="4.73377">
        <ele>282.64847</ele>
        <time>2023-07-10T14:37:16.000Z</time>
      </trkpt>
      <trkpt lat="45.83651" lon="4.73382">
        <ele>282.65109</ele>
        <time>2023-07-10T14:37:17.000Z</time>
      </trkpt>
      <trkpt lat="45.83651" lon="4.73387">
        <ele>283.85498</ele>
        <time>2023-07-10T14:37:18.000Z</time>
      </trkpt>
      <trkpt lat="45.83652" lon="4.73392">
        <ele>285.19684</ele>
        <time>2023-07-10T14:37:19.000Z</time>
      </trkpt>
      <trkpt lat="45.83653" lon="4.73397">
        <ele>286.80008</ele>
        <time>2023-07-10T14:37:20.000Z</time>
      </trkpt>
      <trkpt lat="45.83654" lon="4.73402">
        <ele>287.82397</ele>
        <time>2023-07-10T14:37:21.000Z</time>
      </trkpt>
      <trkpt lat="45.83655" lon="4.73407">
        <ele>288.93253</ele>
        <time>2023-07-10T14:37:22.000Z</time>
      </trkpt>
      <trkpt lat="45.83656" lon="4.73412">
        <ele>290.07001</ele>
        <time>2023-07-10T14:37:23.000Z</time>
      </trkpt>
      <trkpt lat="45.83657" lon="4.73416">
        <ele>291.21295</ele>
        <time>2023-07-10T14:37:24.000Z</time>
      </trkpt>
      <trkpt lat="45.83657" lon="4.7342">
        <ele>292.27936</ele>
        <time>2023-07-10T14:37:25.000Z</time>
      </trkpt>
      <trkpt lat="45.83658" lon="4.73425">
        <ele>293.34174</ele>
        <time>2023-07-10T14:37:26.000Z</time>
      </trkpt>
      <trkpt lat="45.83659" lon="4.73429">
        <ele>294.42883</ele>
        <time>2023-07-10T14:37:27.000Z</time>
      </trkpt>
      <trkpt lat="45.8366" lon="4.73434">
        <ele>295.58319</ele>
        <time>2023-07-10T14:37:28.000Z</time>
      </trkpt>
      <trkpt lat="45.83661" lon="4.73438">
        <ele>296.71808</ele>
        <time>2023-07-10T14:37:29.000Z</time>
      </trkpt>
      <trkpt lat="45.83662" lon="4.73443">
        <ele>297.72406</ele>
        <time>2023-07-10T14:37:30.000Z</time>
      </trkpt>
      <trkpt lat="45.83664" lon="4.73448">
        <ele>298.75262</ele>
        <time>2023-07-10T14:37:31.000Z</time>
      </trkpt>
      <trkpt lat="45.83665" lon="4.73452">
        <ele>299.8703</ele>
        <time>2023-07-10T14:37:32.000Z</time>
      </trkpt>
      <trkpt lat="45.83666" lon="4.73457">
        <ele>300.85782</ele>
        <time>2023-07-10T14:37:33.000Z</time>
      </trkpt>
      <trkpt lat="45.83667" lon="4.73461">
        <ele>301.7941</ele>
        <time>2023-07-10T14:37:34.000Z</time>
      </trkpt>
      <trkpt lat="45.83669" lon="4.73465">
        <ele>302.73053</ele>
        <time>2023-07-10T14:37:35.000Z</time>
      </trkpt>
      <trkpt lat="45.8367" lon="4.7347">
        <ele>303.66699</ele>
        <time>2023-07-10T14:37:36.000Z</time>
      </trkpt>
      <trkpt lat="45.83672" lon="4.73474">
        <ele>304.46182</ele>
        <time>2023-07-10T14:37:37.000Z</time>
      </trkpt>
      <trkpt lat="45.83673" lon="4.73478">
        <ele>303.99893</ele>
        <time>2023-07-10T14:37:38.000Z</time>
      </trkpt>
      <trkpt lat="45.83675" lon="4.73483">
        <ele>302.79327</ele>
        <time>2023-07-10T14:37:39.000Z</time>
      </trkpt>
      <trkpt lat="45.83677" lon="4.73486">
        <ele>301.34354</ele>
        <time>2023-07-10T14:37:40.000Z</time>
      </trkpt>
      <trkpt lat="45.83679" lon="4.7349">
        <ele>300.43741</ele>
        <time>2023-07-10T14:37:41.000Z</time>
      </trkpt>
      <trkpt lat="45.83681" lon="4.73494">
        <ele>299.4462</ele>
        <time>2023-07-10T14:37:42.000Z</time>
      </trkpt>
      <trkpt lat="45.83683" lon="4.73499">
        <ele>298.46356</ele>
        <time>2023-07-10T14:37:43.000Z</time>
      </trkpt>
      <trkpt lat="45.83685" lon="4.73503">
        <ele>297.52536</ele>
        <time>2023-07-10T14:37:44.000Z</time>
      </trkpt>
      <trkpt lat="45.83687" lon="4.73507">
        <ele>296.60254</ele>
        <time>2023-07-10T14:37:45.000Z</time>
      </trkpt>
      <trkpt lat="45.83689" lon="4.73511">
        <ele>295.70596</ele>
        <time>2023-07-10T14:37:46.000Z</time>
      </trkpt>
      <trkpt lat="45.83691" lon="4.73515">
        <ele>294.7709</ele>
        <time>2023-07-10T14:37:47.000Z</time>
      </trkpt>
      <trkpt lat="45.83693" lon="4.73519">
        <ele>293.79605</ele>
        <time>2023-07-10T14:37:48.000Z</time>
      </trkpt>
      <trkpt lat="45.83695" lon="4.73524">
        <ele>292.84576</ele>
        <time>2023-07-10T14:37:49.000Z</time>
      </trkpt>
      <trkpt lat="45.83696" lon="4.73528">
        <ele>292.05048</ele>
        <time>2023-07-10T14:37:50.000Z</time>
      </trkpt>
      <trkpt lat="45.83697" lon="4.73532">
        <ele>291.21521</ele>
        <time>2023-07-10T14:37:51.000Z</time>
      </trkpt>
      <trkpt lat="45.83699" lon="4.73537">
        <ele>290.30545</ele>
        <time>2023-07-10T14:37:52.000Z</time>
      </trkpt>
      <trkpt lat="45.837" lon="4.73541">
        <ele>289.52621</ele>
        <time>2023-07-10T14:37:53.000Z</time>
      </trkpt>
      <trkpt lat="45.83702" lon="4.73545">
        <ele>288.82379</ele>
        <time>2023-07-10T14:37:54.000Z</time>
      </trkpt>
      <trkpt lat="45.83703" lon="4.73549">
        <ele>288.17557</ele>
        <time>2023-07-10T14:37:55.000Z</time>
      </trkpt>
      <trkpt lat="45.83705" lon="4.73553">
        <ele>288.20779</ele>
        <time>2023-07-10T14:37:56.000Z</time>
      </trkpt>
      <trkpt lat="45.83706" lon="4.73557">
        <ele>288.27362</ele>
        <time>2023-07-10T14:37:57.000Z</time>
      </trkpt>
      <trkpt lat="45.83708" lon="4.73561">
        <ele>288.45538</ele>
        <time>2023-07-10T14:37:58.000Z</time>
      </trkpt>
      <trkpt lat="45.83709" lon="4.73566">
        <ele>289.24463</ele>
        <time>2023-07-10T14:37:59.000Z</time>
      </trkpt>
      <trkpt lat="45.8371" lon="4.7357">
        <ele>290.02103</ele>
        <time>2023-07-10T14:38:00.000Z</time>
      </trkpt>
      <trkpt lat="45.83711" lon="4.73575">
        <ele>290.81744</ele>
        <time>2023-07-10T14:38:01.000Z</time>
      </trkpt>
      <trkpt lat="45.8371" lon="4.73578">
        <ele>291.63342</ele>
        <time>2023-07-10T14:38:02.000Z</time>
      </trkpt>
      <trkpt lat="45.8371" lon="4.73582">
        <ele>292.51093</ele>
        <time>2023-07-10T14:38:03.000Z</time>
      </trkpt>
      <trkpt lat="45.83709" lon="4.73585">
        <ele>293.39868</ele>
        <time>2023-07-10T14:38:04.000Z</time>
      </trkpt>
      <trkpt lat="45.83707" lon="4.73588">
        <ele>294.39081</ele>
        <time>2023-07-10T14:38:05.000Z</time>
      </trkpt>
      <trkpt lat="45.83705" lon="4.7359">
        <ele>295.36688</ele>
        <time>2023-07-10T14:38:06.000Z</time>
      </trkpt>
      <trkpt lat="45.83703" lon="4.73591">
        <ele>296.36606</ele>
        <time>2023-07-10T14:38:07.000Z</time>
      </trkpt>
      <trkpt lat="45.837" lon="4.73593">
        <ele>297.34418</ele>
        <time>2023-07-10T14:38:08.000Z</time>
      </trkpt>
      <trkpt lat="45.83698" lon="4.73595">
        <ele>298.32513</ele>
        <time>2023-07-10T14:38:09.000Z</time>
      </trkpt>
      <trkpt lat="45.83694" lon="4.73596">
        <ele>299.31253</ele>
        <time>2023-07-10T14:38:10.000Z</time>
      </trkpt>
      <trkpt lat="45.83691" lon="4.73597">
        <ele>300.38422</ele>
        <time>2023-07-10T14:38:11.000Z</time>
      </trkpt>
      <trkpt lat="45.83689" lon="4.73598">
        <ele>301.49298</ele>
        <time>2023-07-10T14:38:12.000Z</time>
      </trkpt>
      <trkpt lat="45.83687" lon="4.73598">
        <ele>302.5722</ele>
        <time>2023-07-10T14:38:13.000Z</time>
      </trkpt>
      <trkpt lat="45.83684" lon="4.73599">
        <ele>303.62903</ele>
        <time>2023-07-10T14:38:14.000Z</time>
      </trkpt>
      <trkpt lat="45.83682" lon="4.736">
        <ele>304.88336</ele>
        <time>2023-07-10T14:38:15.000Z</time>
      </trkpt>
      <trkpt lat="45.83679" lon="4.73601">
        <ele>305.60522</ele>
        <time>2023-07-10T14:38:16.000Z</time>
      </trkpt>
      <trkpt lat="45.83676" lon="4.73601">
        <ele>306.39902</ele>
        <time>2023-07-10T14:38:17.000Z</time>
      </trkpt>
      <trkpt lat="45.83673" lon="4.73602">
        <ele>307.32083</ele>
        <time>2023-07-10T14:38:18.000Z</time>
      </trkpt>
      <trkpt lat="45.83671" lon="4.73603">
        <ele>307.80246</ele>
        <time>2023-07-10T14:38:19.000Z</time>
      </trkpt>
      <trkpt lat="45.83668" lon="4.73604">
        <ele>308.40054</ele>
        <time>2023-07-10T14:38:20.000Z</time>
      </trkpt>
      <trkpt lat="45.83665" lon="4.73605">
        <ele>308.92105</ele>
        <time>2023-07-10T14:38:21.000Z</time>
      </trkpt>
      <trkpt lat="45.83662" lon="4.73606">
        <ele>309.39899</ele>
        <time>2023-07-10T14:38:22.000Z</time>
      </trkpt>
      <trkpt lat="45.83659" lon="4.73607">
        <ele>309.7341</ele>
        <time>2023-07-10T14:38:23.000Z</time>
      </trkpt>
      <trkpt lat="45.83656" lon="4.73608">
        <ele>310.03461</ele>
        <time>2023-07-10T14:38:24.000Z</time>
      </trkpt>
      <trkpt lat="45.83653" lon="4.73609">
        <ele>310.28055</ele>
        <time>2023-07-10T14:38:25.000Z</time>
      </trkpt>
      <trkpt lat="45.83649" lon="4.7361">
        <ele>310.604</ele>
        <time>2023-07-10T14:38:26.000Z</time>
      </trkpt>
      <trkpt lat="45.83646" lon="4.73611">
        <ele>310.89969</ele>
        <time>2023-07-10T14:38:27.000Z</time>
      </trkpt>
      <trkpt lat="45.83643" lon="4.73612">
        <ele>311.1987</ele>
        <time>2023-07-10T14:38:28.000Z</time>
      </trkpt>
      <trkpt lat="45.83639" lon="4.73613">
        <ele>311.52179</ele>
        <time>2023-07-10T14:38:29.000Z</time>
      </trkpt>
      <trkpt lat="45.83636" lon="4.73614">
        <ele>311.7691</ele>
        <time>2023-07-10T14:38:30.000Z</time>
      </trkpt>
      <trkpt lat="45.83632" lon="4.73615">
        <ele>311.89005</ele>
        <time>2023-07-10T14:38:31.000Z</time>
      </trkpt>
      <trkpt lat="45.83629" lon="4.73616">
        <ele>311.98318</ele>
        <time>2023-07-10T14:38:32.000Z</time>
      </trkpt>
      <trkpt lat="45.83625" lon="4.73617">
        <ele>312.10364</ele>
        <time>2023-07-10T14:38:33.000Z</time>
      </trkpt>
      <trkpt lat="45.83622" lon="4.73618">
        <ele>312.18915</ele>
        <time>2023-07-10T14:38:34.000Z</time>
      </trkpt>
      <trkpt lat="45.83618" lon="4.73619">
        <ele>312.04108</ele>
        <time>2023-07-10T14:38:35.000Z</time>
      </trkpt>
      <trkpt lat="45.83615" lon="4.73621">
        <ele>311.73587</ele>
        <time>2023-07-10T14:38:36.000Z</time>
      </trkpt>
      <trkpt lat="45.83612" lon="4.73623">
        <ele>311.37585</ele>
        <time>2023-07-10T14:38:37.000Z</time>
      </trkpt>
      <trkpt lat="45.83609" lon="4.73625">
        <ele>310.81259</ele>
        <time>2023-07-10T14:38:38.000Z</time>
      </trkpt>
      <trkpt lat="45.83605" lon="4.73627">
        <ele>310.61679</ele>
        <time>2023-07-10T14:38:39.000Z</time>
      </trkpt>
      <trkpt lat="45.83602" lon="4.7363">
        <ele>310.48395</ele>
        <time>2023-07-10T14:38:40.000Z</time>
      </trkpt>
      <trkpt lat="45.83599" lon="4.73632">
        <ele>310.38269</ele>
        <time>2023-07-10T14:38:41.000Z</time>
      </trkpt>
      <trkpt lat="45.83595" lon="4.73634">
        <ele>310.31644</ele>
        <time>2023-07-10T14:38:42.000Z</time>
      </trkpt>
      <trkpt lat="45.83592" lon="4.73635">
        <ele>310.29803</ele>
        <time>2023-07-10T14:38:43.000Z</time>
      </trkpt>
      <trkpt lat="45.83588" lon="4.73637">
        <ele>310.45105</ele>
        <time>2023-07-10T14:38:44.000Z</time>
      </trkpt>
      <trkpt lat="45.83585" lon="4.73638">
        <ele>310.12003</ele>
        <time>2023-07-10T14:38:45.000Z</time>
      </trkpt>
      <trkpt lat="45.83582" lon="4.7364">
        <ele>309.78018</ele>
        <time>2023-07-10T14:38:46.000Z</time>
      </trkpt>
      <trkpt lat="45.83578" lon="4.73642">
        <ele>309.37433</ele>
        <time>2023-07-10T14:38:47.000Z</time>
      </trkpt>
      <trkpt lat="45.83574" lon="4.73644">
        <ele>309.0527</ele>
        <time>2023-07-10T14:38:48.000Z</time>
      </trkpt>
      <trkpt lat="45.83571" lon="4.73647">
        <ele>308.74716</ele>
        <time>2023-07-10T14:38:49.000Z</time>
      </trkpt>
      <trkpt lat="45.83568" lon="4.73649">
        <ele>308.42599</ele>
        <time>2023-07-10T14:38:50.000Z</time>
      </trkpt>
      <trkpt lat="45.83564" lon="4.73652">
        <ele>308.08337</ele>
        <time>2023-07-10T14:38:51.000Z</time>
      </trkpt>
      <trkpt lat="45.83561" lon="4.73656">
        <ele>307.74167</ele>
        <time>2023-07-10T14:38:52.000Z</time>
      </trkpt>
      <trkpt lat="45.83558" lon="4.73659">
        <ele>307.37747</ele>
        <time>2023-07-10T14:38:53.000Z</time>
      </trkpt>
      <trkpt lat="45.83556" lon="4.73664">
        <ele>307.16718</ele>
        <time>2023-07-10T14:38:54.000Z</time>
      </trkpt>
      <trkpt lat="45.83554" lon="4.73668">
        <ele>306.98926</ele>
        <time>2023-07-10T14:38:55.000Z</time>
      </trkpt>
      <trkpt lat="45.83551" lon="4.73672">
        <ele>306.84637</ele>
        <time>2023-07-10T14:38:56.000Z</time>
      </trkpt>
      <trkpt lat="45.83548" lon="4.73677">
        <ele>306.93469</ele>
        <time>2023-07-10T14:38:57.000Z</time>
      </trkpt>
      <trkpt lat="45.83546" lon="4.7368">
        <ele>306.88333</ele>
        <time>2023-07-10T14:38:58.000Z</time>
      </trkpt>
      <trkpt lat="45.83544" lon="4.73683">
        <ele>306.9191</ele>
        <time>2023-07-10T14:38:59.000Z</time>
      </trkpt>
      <trkpt lat="45.83542" lon="4.73685">
        <ele>306.80228</ele>
        <time>2023-07-10T14:39:00.000Z</time>
      </trkpt>
      <trkpt lat="45.8354" lon="4.73686">
        <ele>306.71896</ele>
        <time>2023-07-10T14:39:01.000Z</time>
      </trkpt>
      <trkpt lat="45.83539" lon="4.73688">
        <ele>306.63284</ele>
        <time>2023-07-10T14:39:02.000Z</time>
      </trkpt>
      <trkpt lat="45.83537" lon="4.73691">
        <ele>306.55487</ele>
        <time>2023-07-10T14:39:03.000Z</time>
      </trkpt>
      <trkpt lat="45.83535" lon="4.73692">
        <ele>306.36136</ele>
        <time>2023-07-10T14:39:04.000Z</time>
      </trkpt>
      <trkpt lat="45.83535" lon="4.73695">
        <ele>306.32404</ele>
        <time>2023-07-10T14:39:09.000Z</time>
      </trkpt>
      <trkpt lat="45.83535" lon="4.73698">
        <ele>306.43185</ele>
        <time>2023-07-10T14:42:03.000Z</time>
      </trkpt>
      <trkpt lat="45.83531" lon="4.73699">
        <ele>306.77356</ele>
        <time>2023-07-10T14:42:05.000Z</time>
      </trkpt>
      <trkpt lat="45.83529" lon="4.73699">
        <ele>306.8006</ele>
        <time>2023-07-10T14:42:06.000Z</time>
      </trkpt>
      <trkpt lat="45.83526" lon="4.737">
        <ele>306.95258</ele>
        <time>2023-07-10T14:42:07.000Z</time>
      </trkpt>
      <trkpt lat="45.83523" lon="4.73701">
        <ele>307.19098</ele>
        <time>2023-07-10T14:42:08.000Z</time>
      </trkpt>
      <trkpt lat="45.83521" lon="4.73704">
        <ele>307.42505</ele>
        <time>2023-07-10T14:42:09.000Z</time>
      </trkpt>
      <trkpt lat="45.83518" lon="4.73706">
        <ele>307.59659</ele>
        <time>2023-07-10T14:42:10.000Z</time>
      </trkpt>
      <trkpt lat="45.83516" lon="4.73708">
        <ele>307.74622</ele>
        <time>2023-07-10T14:42:11.000Z</time>
      </trkpt>
      <trkpt lat="45.83513" lon="4.7371">
        <ele>307.67172</ele>
        <time>2023-07-10T14:42:12.000Z</time>
      </trkpt>
      <trkpt lat="45.8351" lon="4.73712">
        <ele>307.54498</ele>
        <time>2023-07-10T14:42:13.000Z</time>
      </trkpt>
      <trkpt lat="45.83506" lon="4.73712">
        <ele>307.46417</ele>
        <time>2023-07-10T14:42:14.000Z</time>
      </trkpt>
      <trkpt lat="45.83503" lon="4.73713">
        <ele>307.19879</ele>
        <time>2023-07-10T14:42:15.000Z</time>
      </trkpt>
      <trkpt lat="45.835" lon="4.73714">
        <ele>307.06512</ele>
        <time>2023-07-10T14:42:16.000Z</time>
      </trkpt>
      <trkpt lat="45.83497" lon="4.73716">
        <ele>306.90161</ele>
        <time>2023-07-10T14:42:17.000Z</time>
      </trkpt>
      <trkpt lat="45.83493" lon="4.73717">
        <ele>306.66705</ele>
        <time>2023-07-10T14:42:18.000Z</time>
      </trkpt>
      <trkpt lat="45.8349" lon="4.73717">
        <ele>306.37909</ele>
        <time>2023-07-10T14:42:19.000Z</time>
      </trkpt>
      <trkpt lat="45.83487" lon="4.73718">
        <ele>306.09814</ele>
        <time>2023-07-10T14:42:20.000Z</time>
      </trkpt>
      <trkpt lat="45.83484" lon="4.73718">
        <ele>305.81589</ele>
        <time>2023-07-10T14:42:21.000Z</time>
      </trkpt>
      <trkpt lat="45.83481" lon="4.73719">
        <ele>305.50885</ele>
        <time>2023-07-10T14:42:22.000Z</time>
      </trkpt>
      <trkpt lat="45.83478" lon="4.73719">
        <ele>305.4852</ele>
        <time>2023-07-10T14:42:23.000Z</time>
      </trkpt>
      <trkpt lat="45.83475" lon="4.7372">
        <ele>305.31305</ele>
        <time>2023-07-10T14:42:24.000Z</time>
      </trkpt>
      <trkpt lat="45.83472" lon="4.7372">
        <ele>304.97534</ele>
        <time>2023-07-10T14:42:25.000Z</time>
      </trkpt>
      <trkpt lat="45.83469" lon="4.7372">
        <ele>305.01962</ele>
        <time>2023-07-10T14:42:26.000Z</time>
      </trkpt>
      <trkpt lat="45.83466" lon="4.73721">
        <ele>304.85214</ele>
        <time>2023-07-10T14:42:27.000Z</time>
      </trkpt>
      <trkpt lat="45.83463" lon="4.73721">
        <ele>304.65741</ele>
        <time>2023-07-10T14:42:28.000Z</time>
      </trkpt>
      <trkpt lat="45.8346" lon="4.73722">
        <ele>304.54095</ele>
        <time>2023-07-10T14:42:29.000Z</time>
      </trkpt>
      <trkpt lat="45.83457" lon="4.73722">
        <ele>304.47797</ele>
        <time>2023-07-10T14:42:30.000Z</time>
      </trkpt>
      <trkpt lat="45.83453" lon="4.73722">
        <ele>304.48801</ele>
        <time>2023-07-10T14:42:31.000Z</time>
      </trkpt>
      <trkpt lat="45.8345" lon="4.73723">
        <ele>304.57553</ele>
        <time>2023-07-10T14:42:32.000Z</time>
      </trkpt>
      <trkpt lat="45.83447" lon="4.73723">
        <ele>304.86456</ele>
        <time>2023-07-10T14:42:33.000Z</time>
      </trkpt>
      <trkpt lat="45.83443" lon="4.73723">
        <ele>305.19772</ele>
        <time>2023-07-10T14:42:34.000Z</time>
      </trkpt>
      <trkpt lat="45.8344" lon="4.73722">
        <ele>305.5174</ele>
        <time>2023-07-10T14:42:35.000Z</time>
      </trkpt>
      <trkpt lat="45.83436" lon="4.73722">
        <ele>305.57608</ele>
        <time>2023-07-10T14:42:36.000Z</time>
      </trkpt>
      <trkpt lat="45.83433" lon="4.73722">
        <ele>305.72733</ele>
        <time>2023-07-10T14:42:37.000Z</time>
      </trkpt>
      <trkpt lat="45.8343" lon="4.73722">
        <ele>305.90994</ele>
        <time>2023-07-10T14:42:38.000Z</time>
      </trkpt>
      <trkpt lat="45.83428" lon="4.73722">
        <ele>306.01279</ele>
        <time>2023-07-10T14:42:39.000Z</time>
      </trkpt>
      <trkpt lat="45.83424" lon="4.73722">
        <ele>306.08002</ele>
        <time>2023-07-10T14:42:40.000Z</time>
      </trkpt>
      <trkpt lat="45.83421" lon="4.73723">
        <ele>306.14697</ele>
        <time>2023-07-10T14:42:41.000Z</time>
      </trkpt>
      <trkpt lat="45.83418" lon="4.73723">
        <ele>306.21548</ele>
        <time>2023-07-10T14:42:42.000Z</time>
      </trkpt>
      <trkpt lat="45.83415" lon="4.73724">
        <ele>306.30313</ele>
        <time>2023-07-10T14:42:43.000Z</time>
      </trkpt>
      <trkpt lat="45.83412" lon="4.73725">
        <ele>306.34979</ele>
        <time>2023-07-10T14:42:44.000Z</time>
      </trkpt>
      <trkpt lat="45.83409" lon="4.73725">
        <ele>306.40948</ele>
        <time>2023-07-10T14:42:45.000Z</time>
      </trkpt>
      <trkpt lat="45.83406" lon="4.73725">
        <ele>306.35559</ele>
        <time>2023-07-10T14:42:46.000Z</time>
      </trkpt>
      <trkpt lat="45.83403" lon="4.73726">
        <ele>306.34409</ele>
        <time>2023-07-10T14:42:47.000Z</time>
      </trkpt>
      <trkpt lat="45.834" lon="4.73727">
        <ele>306.35455</ele>
        <time>2023-07-10T14:42:48.000Z</time>
      </trkpt>
      <trkpt lat="45.83398" lon="4.73728">
        <ele>306.35168</ele>
        <time>2023-07-10T14:42:49.000Z</time>
      </trkpt>
      <trkpt lat="45.83395" lon="4.73728">
        <ele>306.35361</ele>
        <time>2023-07-10T14:42:50.000Z</time>
      </trkpt>
      <trkpt lat="45.83392" lon="4.73729">
        <ele>306.42523</ele>
        <time>2023-07-10T14:42:51.000Z</time>
      </trkpt>
      <trkpt lat="45.83389" lon="4.73729">
        <ele>306.50436</ele>
        <time>2023-07-10T14:42:52.000Z</time>
      </trkpt>
      <trkpt lat="45.83386" lon="4.73729">
        <ele>306.44571</ele>
        <time>2023-07-10T14:42:53.000Z</time>
      </trkpt>
      <trkpt lat="45.83382" lon="4.73729">
        <ele>306.26727</ele>
        <time>2023-07-10T14:42:54.000Z</time>
      </trkpt>
      <trkpt lat="45.83379" lon="4.73729">
        <ele>306.09854</ele>
        <time>2023-07-10T14:42:55.000Z</time>
      </trkpt>
      <trkpt lat="45.83376" lon="4.7373">
        <ele>306.23062</ele>
        <time>2023-07-10T14:42:56.000Z</time>
      </trkpt>
      <trkpt lat="45.83373" lon="4.7373">
        <ele>306.25934</ele>
        <time>2023-07-10T14:42:57.000Z</time>
      </trkpt>
      <trkpt lat="45.83369" lon="4.7373">
        <ele>306.2702</ele>
        <time>2023-07-10T14:42:58.000Z</time>
      </trkpt>
      <trkpt lat="45.83366" lon="4.7373">
        <ele>306.38315</ele>
        <time>2023-07-10T14:42:59.000Z</time>
      </trkpt>
      <trkpt lat="45.83363" lon="4.7373">
        <ele>306.49084</ele>
        <time>2023-07-10T14:43:00.000Z</time>
      </trkpt>
      <trkpt lat="45.8336" lon="4.73731">
        <ele>306.6214</ele>
        <time>2023-07-10T14:43:01.000Z</time>
      </trkpt>
      <trkpt lat="45.83356" lon="4.73731">
        <ele>306.74255</ele>
        <time>2023-07-10T14:43:02.000Z</time>
      </trkpt>
      <trkpt lat="45.83353" lon="4.73731">
        <ele>306.87738</ele>
        <time>2023-07-10T14:43:03.000Z</time>
      </trkpt>
      <trkpt lat="45.83349" lon="4.73731">
        <ele>307.00076</ele>
        <time>2023-07-10T14:43:04.000Z</time>
      </trkpt>
      <trkpt lat="45.83346" lon="4.7373">
        <ele>307.2077</ele>
        <time>2023-07-10T14:43:05.000Z</time>
      </trkpt>
      <trkpt lat="45.83343" lon="4.7373">
        <ele>307.15912</ele>
        <time>2023-07-10T14:43:06.000Z</time>
      </trkpt>
      <trkpt lat="45.8334" lon="4.73731">
        <ele>307.13559</ele>
        <time>2023-07-10T14:43:07.000Z</time>
      </trkpt>
      <trkpt lat="45.83336" lon="4.73731">
        <ele>307.14413</ele>
        <time>2023-07-10T14:43:08.000Z</time>
      </trkpt>
      <trkpt lat="45.83333" lon="4.73732">
        <ele>307.14911</ele>
        <time>2023-07-10T14:43:09.000Z</time>
      </trkpt>
      <trkpt lat="45.83329" lon="4.73733">
        <ele>307.11237</ele>
        <time>2023-07-10T14:43:10.000Z</time>
      </trkpt>
      <trkpt lat="45.83326" lon="4.73734">
        <ele>306.99951</ele>
        <time>2023-07-10T14:43:11.000Z</time>
      </trkpt>
      <trkpt lat="45.83322" lon="4.73735">
        <ele>306.89764</ele>
        <time>2023-07-10T14:43:12.000Z</time>
      </trkpt>
      <trkpt lat="45.83319" lon="4.73736">
        <ele>306.89453</ele>
        <time>2023-07-10T14:43:13.000Z</time>
      </trkpt>
      <trkpt lat="45.83316" lon="4.73737">
        <ele>306.90994</ele>
        <time>2023-07-10T14:43:14.000Z</time>
      </trkpt>
      <trkpt lat="45.83313" lon="4.73737">
        <ele>306.90991</ele>
        <time>2023-07-10T14:43:15.000Z</time>
      </trkpt>
      <trkpt lat="45.83309" lon="4.73738">
        <ele>306.93671</ele>
        <time>2023-07-10T14:43:16.000Z</time>
      </trkpt>
      <trkpt lat="45.83306" lon="4.73738">
        <ele>306.96982</ele>
        <time>2023-07-10T14:43:17.000Z</time>
      </trkpt>
      <trkpt lat="45.83302" lon="4.73738">
        <ele>307.08194</ele>
        <time>2023-07-10T14:43:18.000Z</time>
      </trkpt>
      <trkpt lat="45.83299" lon="4.73738">
        <ele>307.25687</ele>
        <time>2023-07-10T14:43:19.000Z</time>
      </trkpt>
      <trkpt lat="45.83296" lon="4.73738">
        <ele>307.44891</ele>
        <time>2023-07-10T14:43:20.000Z</time>
      </trkpt>
      <trkpt lat="45.83292" lon="4.73738">
        <ele>307.58749</ele>
        <time>2023-07-10T14:43:21.000Z</time>
      </trkpt>
      <trkpt lat="45.83288" lon="4.73738">
        <ele>307.71573</ele>
        <time>2023-07-10T14:43:22.000Z</time>
      </trkpt>
      <trkpt lat="45.83284" lon="4.73738">
        <ele>307.84061</ele>
        <time>2023-07-10T14:43:23.000Z</time>
      </trkpt>
      <trkpt lat="45.83281" lon="4.73738">
        <ele>307.9689</ele>
        <time>2023-07-10T14:43:24.000Z</time>
      </trkpt>
      <trkpt lat="45.83277" lon="4.73738">
        <ele>308.00665</ele>
        <time>2023-07-10T14:43:25.000Z</time>
      </trkpt>
      <trkpt lat="45.83274" lon="4.73737">
        <ele>308.23016</ele>
        <time>2023-07-10T14:43:26.000Z</time>
      </trkpt>
      <trkpt lat="45.8327" lon="4.73737">
        <ele>308.39917</ele>
        <time>2023-07-10T14:43:27.000Z</time>
      </trkpt>
      <trkpt lat="45.83266" lon="4.73736">
        <ele>308.57904</ele>
        <time>2023-07-10T14:43:28.000Z</time>
      </trkpt>
      <trkpt lat="45.83263" lon="4.73736">
        <ele>308.78687</ele>
        <time>2023-07-10T14:43:29.000Z</time>
      </trkpt>
      <trkpt lat="45.83259" lon="4.73737">
        <ele>309.01025</ele>
        <time>2023-07-10T14:43:30.000Z</time>
      </trkpt>
      <trkpt lat="45.83255" lon="4.73737">
        <ele>309.19888</ele>
        <time>2023-07-10T14:43:31.000Z</time>
      </trkpt>
      <trkpt lat="45.83252" lon="4.73737">
        <ele>309.38751</ele>
        <time>2023-07-10T14:43:32.000Z</time>
      </trkpt>
      <trkpt lat="45.83248" lon="4.73737">
        <ele>309.51779</ele>
        <time>2023-07-10T14:43:33.000Z</time>
      </trkpt>
      <trkpt lat="45.83245" lon="4.73738">
        <ele>309.63589</ele>
        <time>2023-07-10T14:43:34.000Z</time>
      </trkpt>
      <trkpt lat="45.83241" lon="4.73738">
        <ele>309.77441</ele>
        <time>2023-07-10T14:43:35.000Z</time>
      </trkpt>
      <trkpt lat="45.83238" lon="4.73737">
        <ele>309.87836</ele>
        <time>2023-07-10T14:43:36.000Z</time>
      </trkpt>
      <trkpt lat="45.83235" lon="4.73737">
        <ele>310.02606</ele>
        <time>2023-07-10T14:43:37.000Z</time>
      </trkpt>
      <trkpt lat="45.83232" lon="4.73736">
        <ele>310.1438</ele>
        <time>2023-07-10T14:43:38.000Z</time>
      </trkpt>
      <trkpt lat="45.83229" lon="4.73735">
        <ele>310.17004</ele>
        <time>2023-07-10T14:43:39.000Z</time>
      </trkpt>
      <trkpt lat="45.83226" lon="4.73734">
        <ele>310.18677</ele>
        <time>2023-07-10T14:43:40.000Z</time>
      </trkpt>
      <trkpt lat="45.83223" lon="4.73734">
        <ele>310.25482</ele>
        <time>2023-07-10T14:43:41.000Z</time>
      </trkpt>
      <trkpt lat="45.8322" lon="4.73735">
        <ele>310.32269</ele>
        <time>2023-07-10T14:43:42.000Z</time>
      </trkpt>
      <trkpt lat="45.83217" lon="4.73736">
        <ele>310.39978</ele>
        <time>2023-07-10T14:43:43.000Z</time>
      </trkpt>
      <trkpt lat="45.83214" lon="4.73736">
        <ele>310.51025</ele>
        <time>2023-07-10T14:43:44.000Z</time>
      </trkpt>
      <trkpt lat="45.83211" lon="4.73737">
        <ele>310.59985</ele>
        <time>2023-07-10T14:43:45.000Z</time>
      </trkpt>
      <trkpt lat="45.83208" lon="4.73737">
        <ele>310.74222</ele>
        <time>2023-07-10T14:43:46.000Z</time>
      </trkpt>
      <trkpt lat="45.83205" lon="4.73737">
        <ele>310.90692</ele>
        <time>2023-07-10T14:43:47.000Z</time>
      </trkpt>
      <trkpt lat="45.83202" lon="4.73737">
        <ele>311.04306</ele>
        <time>2023-07-10T14:43:48.000Z</time>
      </trkpt>
      <trkpt lat="45.83199" lon="4.73738">
        <ele>311.14795</ele>
        <time>2023-07-10T14:43:49.000Z</time>
      </trkpt>
      <trkpt lat="45.83196" lon="4.73738">
        <ele>311.28076</ele>
        <time>2023-07-10T14:43:50.000Z</time>
      </trkpt>
      <trkpt lat="45.83192" lon="4.73738">
        <ele>311.40302</ele>
        <time>2023-07-10T14:43:51.000Z</time>
      </trkpt>
      <trkpt lat="45.83189" lon="4.73737">
        <ele>311.50793</ele>
        <time>2023-07-10T14:43:52.000Z</time>
      </trkpt>
      <trkpt lat="45.83186" lon="4.73737">
        <ele>311.56415</ele>
        <time>2023-07-10T14:43:53.000Z</time>
      </trkpt>
      <trkpt lat="45.83183" lon="4.73737">
        <ele>311.62689</ele>
        <time>2023-07-10T14:43:54.000Z</time>
      </trkpt>
      <trkpt lat="45.83179" lon="4.73737">
        <ele>311.70639</ele>
        <time>2023-07-10T14:43:55.000Z</time>
      </trkpt>
      <trkpt lat="45.83176" lon="4.73737">
        <ele>311.79871</ele>
        <time>2023-07-10T14:43:56.000Z</time>
      </trkpt>
      <trkpt lat="45.83173" lon="4.73736">
        <ele>311.87564</ele>
        <time>2023-07-10T14:43:57.000Z</time>
      </trkpt>
      <trkpt lat="45.8317" lon="4.73736">
        <ele>311.91644</ele>
        <time>2023-07-10T14:43:58.000Z</time>
      </trkpt>
      <trkpt lat="45.83167" lon="4.73736">
        <ele>311.97278</ele>
        <time>2023-07-10T14:43:59.000Z</time>
      </trkpt>
      <trkpt lat="45.83164" lon="4.73736">
        <ele>312.03339</ele>
        <time>2023-07-10T14:44:00.000Z</time>
      </trkpt>
      <trkpt lat="45.83161" lon="4.73736">
        <ele>312.10803</ele>
        <time>2023-07-10T14:44:01.000Z</time>
      </trkpt>
      <trkpt lat="45.83157" lon="4.73736">
        <ele>312.14999</ele>
        <time>2023-07-10T14:44:02.000Z</time>
      </trkpt>
      <trkpt lat="45.83154" lon="4.73735">
        <ele>312.3432</ele>
        <time>2023-07-10T14:44:03.000Z</time>
      </trkpt>
      <trkpt lat="45.83151" lon="4.73735">
        <ele>312.55148</ele>
        <time>2023-07-10T14:44:04.000Z</time>
      </trkpt>
      <trkpt lat="45.83147" lon="4.73735">
        <ele>312.77313</ele>
        <time>2023-07-10T14:44:05.000Z</time>
      </trkpt>
      <trkpt lat="45.83144" lon="4.73735">
        <ele>312.77084</ele>
        <time>2023-07-10T14:44:06.000Z</time>
      </trkpt>
      <trkpt lat="45.8314" lon="4.73735">
        <ele>312.80072</ele>
        <time>2023-07-10T14:44:07.000Z</time>
      </trkpt>
      <trkpt lat="45.83137" lon="4.73734">
        <ele>312.82001</ele>
        <time>2023-07-10T14:44:08.000Z</time>
      </trkpt>
      <trkpt lat="45.83133" lon="4.73734">
        <ele>312.82861</ele>
        <time>2023-07-10T14:44:09.000Z</time>
      </trkpt>
      <trkpt lat="45.8313" lon="4.73734">
        <ele>312.78787</ele>
        <time>2023-07-10T14:44:10.000Z</time>
      </trkpt>
      <trkpt lat="45.83127" lon="4.73734">
        <ele>312.72147</ele>
        <time>2023-07-10T14:44:11.000Z</time>
      </trkpt>
      <trkpt lat="45.83123" lon="4.73734">
        <ele>312.79572</ele>
        <time>2023-07-10T14:44:12.000Z</time>
      </trkpt>
      <trkpt lat="45.8312" lon="4.73733">
        <ele>312.87842</ele>
        <time>2023-07-10T14:44:13.000Z</time>
      </trkpt>
      <trkpt lat="45.83117" lon="4.73733">
        <ele>313.022</ele>
        <time>2023-07-10T14:44:14.000Z</time>
      </trkpt>
      <trkpt lat="45.83114" lon="4.73733">
        <ele>313.04993</ele>
        <time>2023-07-10T14:44:15.000Z</time>
      </trkpt>
      <trkpt lat="45.8311" lon="4.73733">
        <ele>313.14761</ele>
        <time>2023-07-10T14:44:16.000Z</time>
      </trkpt>
      <trkpt lat="45.83106" lon="4.73732">
        <ele>313.01886</ele>
        <time>2023-07-10T14:44:17.000Z</time>
      </trkpt>
      <trkpt lat="45.83102" lon="4.73732">
        <ele>312.95505</ele>
        <time>2023-07-10T14:44:18.000Z</time>
      </trkpt>
      <trkpt lat="45.83099" lon="4.73732">
        <ele>312.91309</ele>
        <time>2023-07-10T14:44:19.000Z</time>
      </trkpt>
      <trkpt lat="45.83095" lon="4.73731">
        <ele>312.90869</ele>
        <time>2023-07-10T14:44:20.000Z</time>
      </trkpt>
      <trkpt lat="45.83092" lon="4.73731">
        <ele>312.89978</ele>
        <time>2023-07-10T14:44:21.000Z</time>
      </trkpt>
      <trkpt lat="45.83088" lon="4.73732">
        <ele>312.94247</ele>
        <time>2023-07-10T14:44:22.000Z</time>
      </trkpt>
      <trkpt lat="45.83084" lon="4.73732">
        <ele>312.84171</ele>
        <time>2023-07-10T14:44:23.000Z</time>
      </trkpt>
      <trkpt lat="45.8308" lon="4.73732">
        <ele>312.76138</ele>
        <time>2023-07-10T14:44:24.000Z</time>
      </trkpt>
      <trkpt lat="45.83075" lon="4.73732">
        <ele>312.66345</ele>
        <time>2023-07-10T14:44:25.000Z</time>
      </trkpt>
      <trkpt lat="45.83071" lon="4.73732">
        <ele>312.76855</ele>
        <time>2023-07-10T14:44:26.000Z</time>
      </trkpt>
      <trkpt lat="45.83067" lon="4.73733">
        <ele>312.86874</ele>
        <time>2023-07-10T14:44:27.000Z</time>
      </trkpt>
      <trkpt lat="45.83064" lon="4.73733">
        <ele>312.9621</ele>
        <time>2023-07-10T14:44:28.000Z</time>
      </trkpt>
      <trkpt lat="45.8306" lon="4.73733">
        <ele>313.08603</ele>
        <time>2023-07-10T14:44:29.000Z</time>
      </trkpt>
      <trkpt lat="45.83056" lon="4.73733">
        <ele>313.31476</ele>
        <time>2023-07-10T14:44:30.000Z</time>
      </trkpt>
      <trkpt lat="45.83053" lon="4.73733">
        <ele>313.40863</ele>
        <time>2023-07-10T14:44:31.000Z</time>
      </trkpt>
      <trkpt lat="45.83049" lon="4.73733">
        <ele>313.4437</ele>
        <time>2023-07-10T14:44:32.000Z</time>
      </trkpt>
      <trkpt lat="45.83045" lon="4.73733">
        <ele>313.45428</ele>
        <time>2023-07-10T14:44:33.000Z</time>
      </trkpt>
      <trkpt lat="45.83041" lon="4.73733">
        <ele>313.41534</ele>
        <time>2023-07-10T14:44:34.000Z</time>
      </trkpt>
      <trkpt lat="45.83037" lon="4.73733">
        <ele>313.4794</ele>
        <time>2023-07-10T14:44:35.000Z</time>
      </trkpt>
      <trkpt lat="45.83033" lon="4.73733">
        <ele>313.47986</ele>
        <time>2023-07-10T14:44:36.000Z</time>
      </trkpt>
      <trkpt lat="45.83029" lon="4.73732">
        <ele>313.70715</ele>
        <time>2023-07-10T14:44:37.000Z</time>
      </trkpt>
      <trkpt lat="45.83025" lon="4.73732">
        <ele>313.86151</ele>
        <time>2023-07-10T14:44:38.000Z</time>
      </trkpt>
      <trkpt lat="45.83021" lon="4.73732">
        <ele>314.01102</ele>
        <time>2023-07-10T14:44:39.000Z</time>
      </trkpt>
      <trkpt lat="45.83017" lon="4.73732">
        <ele>314.1528</ele>
        <time>2023-07-10T14:44:40.000Z</time>
      </trkpt>
      <trkpt lat="45.83013" lon="4.73731">
        <ele>314.35471</ele>
        <time>2023-07-10T14:44:41.000Z</time>
      </trkpt>
      <trkpt lat="45.83008" lon="4.73731">
        <ele>314.54938</ele>
        <time>2023-07-10T14:44:42.000Z</time>
      </trkpt>
      <trkpt lat="45.83004" lon="4.7373">
        <ele>314.71637</ele>
        <time>2023-07-10T14:44:43.000Z</time>
      </trkpt>
      <trkpt lat="45.83" lon="4.7373">
        <ele>314.84552</ele>
        <time>2023-07-10T14:44:44.000Z</time>
      </trkpt>
      <trkpt lat="45.82996" lon="4.7373">
        <ele>315.01025</ele>
        <time>2023-07-10T14:44:45.000Z</time>
      </trkpt>
      <trkpt lat="45.82992" lon="4.7373">
        <ele>315.10214</ele>
        <time>2023-07-10T14:44:46.000Z</time>
      </trkpt>
      <trkpt lat="45.82987" lon="4.73731">
        <ele>315.19012</ele>
        <time>2023-07-10T14:44:47.000Z</time>
      </trkpt>
      <trkpt lat="45.82984" lon="4.73731">
        <ele>315.28851</ele>
        <time>2023-07-10T14:44:48.000Z</time>
      </trkpt>
      <trkpt lat="45.8298" lon="4.7373">
        <ele>315.40665</ele>
        <time>2023-07-10T14:44:49.000Z</time>
      </trkpt>
      <trkpt lat="45.82976" lon="4.7373">
        <ele>315.51605</ele>
        <time>2023-07-10T14:44:50.000Z</time>
      </trkpt>
      <trkpt lat="45.82972" lon="4.7373">
        <ele>315.82162</ele>
        <time>2023-07-10T14:44:51.000Z</time>
      </trkpt>
      <trkpt lat="45.82968" lon="4.7373">
        <ele>316.07709</ele>
        <time>2023-07-10T14:44:52.000Z</time>
      </trkpt>
      <trkpt lat="45.82964" lon="4.73729">
        <ele>316.3566</ele>
        <time>2023-07-10T14:44:53.000Z</time>
      </trkpt>
      <trkpt lat="45.8296" lon="4.73729">
        <ele>316.65408</ele>
        <time>2023-07-10T14:44:54.000Z</time>
      </trkpt>
      <trkpt lat="45.82956" lon="4.73728">
        <ele>317.00098</ele>
        <time>2023-07-10T14:44:55.000Z</time>
      </trkpt>
      <trkpt lat="45.82952" lon="4.73728">
        <ele>317.34241</ele>
        <time>2023-07-10T14:44:56.000Z</time>
      </trkpt>
      <trkpt lat="45.82948" lon="4.73728">
        <ele>317.74896</ele>
        <time>2023-07-10T14:44:57.000Z</time>
      </trkpt>
      <trkpt lat="45.82943" lon="4.73728">
        <ele>318.17325</ele>
        <time>2023-07-10T14:44:58.000Z</time>
      </trkpt>
      <trkpt lat="45.82939" lon="4.73727">
        <ele>318.59052</ele>
        <time>2023-07-10T14:44:59.000Z</time>
      </trkpt>
      <trkpt lat="45.82935" lon="4.73727">
        <ele>318.98111</ele>
        <time>2023-07-10T14:45:00.000Z</time>
      </trkpt>
      <trkpt lat="45.8293" lon="4.73726">
        <ele>319.27863</ele>
        <time>2023-07-10T14:45:01.000Z</time>
      </trkpt>
      <trkpt lat="45.82926" lon="4.73726">
        <ele>319.57779</ele>
        <time>2023-07-10T14:45:02.000Z</time>
      </trkpt>
      <trkpt lat="45.82921" lon="4.73726">
        <ele>319.86795</ele>
        <time>2023-07-10T14:45:03.000Z</time>
      </trkpt>
      <trkpt lat="45.82916" lon="4.73724">
        <ele>320.13702</ele>
        <time>2023-07-10T14:45:04.000Z</time>
      </trkpt>
      <trkpt lat="45.82911" lon="4.73725">
        <ele>320.41211</ele>
        <time>2023-07-10T14:45:05.000Z</time>
      </trkpt>
      <trkpt lat="45.82906" lon="4.73726">
        <ele>320.7807</ele>
        <time>2023-07-10T14:45:06.000Z</time>
      </trkpt>
      <trkpt lat="45.82901" lon="4.73725">
        <ele>321.19843</ele>
        <time>2023-07-10T14:45:07.000Z</time>
      </trkpt>
      <trkpt lat="45.82895" lon="4.73725">
        <ele>321.64847</ele>
        <time>2023-07-10T14:45:08.000Z</time>
      </trkpt>
      <trkpt lat="45.82891" lon="4.73726">
        <ele>322.09485</ele>
        <time>2023-07-10T14:45:09.000Z</time>
      </trkpt>
      <trkpt lat="45.82886" lon="4.73726">
        <ele>322.53006</ele>
        <time>2023-07-10T14:45:10.000Z</time>
      </trkpt>
      <trkpt lat="45.82882" lon="4.73725">
        <ele>322.92725</ele>
        <time>2023-07-10T14:45:11.000Z</time>
      </trkpt>
      <trkpt lat="45.82878" lon="4.73723">
        <ele>323.28809</ele>
        <time>2023-07-10T14:45:12.000Z</time>
      </trkpt>
      <trkpt lat="45.82874" lon="4.73722">
        <ele>323.64679</ele>
        <time>2023-07-10T14:45:13.000Z</time>
      </trkpt>
      <trkpt lat="45.8287" lon="4.73722">
        <ele>323.99286</ele>
        <time>2023-07-10T14:45:14.000Z</time>
      </trkpt>
      <trkpt lat="45.82865" lon="4.73722">
        <ele>324.25418</ele>
        <time>2023-07-10T14:45:15.000Z</time>
      </trkpt>
      <trkpt lat="45.82861" lon="4.73722">
        <ele>324.49396</ele>
        <time>2023-07-10T14:45:16.000Z</time>
      </trkpt>
      <trkpt lat="45.82857" lon="4.73722">
        <ele>324.68542</ele>
        <time>2023-07-10T14:45:17.000Z</time>
      </trkpt>
      <trkpt lat="45.82853" lon="4.73721">
        <ele>324.8667</ele>
        <time>2023-07-10T14:45:18.000Z</time>
      </trkpt>
      <trkpt lat="45.82849" lon="4.73721">
        <ele>325.0871</ele>
        <time>2023-07-10T14:45:19.000Z</time>
      </trkpt>
      <trkpt lat="45.82845" lon="4.73721">
        <ele>325.33807</ele>
        <time>2023-07-10T14:45:20.000Z</time>
      </trkpt>
      <trkpt lat="45.8284" lon="4.73722">
        <ele>325.6972</ele>
        <time>2023-07-10T14:45:21.000Z</time>
      </trkpt>
      <trkpt lat="45.82836" lon="4.73722">
        <ele>326.00656</ele>
        <time>2023-07-10T14:45:22.000Z</time>
      </trkpt>
      <trkpt lat="45.82831" lon="4.73722">
        <ele>326.30765</ele>
        <time>2023-07-10T14:45:23.000Z</time>
      </trkpt>
      <trkpt lat="45.82827" lon="4.73722">
        <ele>326.6008</ele>
        <time>2023-07-10T14:45:24.000Z</time>
      </trkpt>
      <trkpt lat="45.82823" lon="4.73721">
        <ele>326.90375</ele>
        <time>2023-07-10T14:45:25.000Z</time>
      </trkpt>
      <trkpt lat="45.82819" lon="4.73722">
        <ele>327.22461</ele>
        <time>2023-07-10T14:45:26.000Z</time>
      </trkpt>
      <trkpt lat="45.82815" lon="4.73721">
        <ele>327.41559</ele>
        <time>2023-07-10T14:45:27.000Z</time>
      </trkpt>
      <trkpt lat="45.8281" lon="4.73721">
        <ele>327.56616</ele>
        <time>2023-07-10T14:45:28.000Z</time>
      </trkpt>
      <trkpt lat="45.82806" lon="4.7372">
        <ele>327.68771</ele>
        <time>2023-07-10T14:45:29.000Z</time>
      </trkpt>
      <trkpt lat="45.82801" lon="4.7372">
        <ele>327.78931</ele>
        <time>2023-07-10T14:45:30.000Z</time>
      </trkpt>
      <trkpt lat="45.82796" lon="4.73719">
        <ele>327.9169</ele>
        <time>2023-07-10T14:45:31.000Z</time>
      </trkpt>
      <trkpt lat="45.82791" lon="4.73719">
        <ele>328.06442</ele>
        <time>2023-07-10T14:45:32.000Z</time>
      </trkpt>
      <trkpt lat="45.82787" lon="4.73719">
        <ele>328.21991</ele>
        <time>2023-07-10T14:45:33.000Z</time>
      </trkpt>
      <trkpt lat="45.82783" lon="4.73719">
        <ele>328.38019</ele>
        <time>2023-07-10T14:45:34.000Z</time>
      </trkpt>
      <trkpt lat="45.82778" lon="4.73719">
        <ele>328.59259</ele>
        <time>2023-07-10T14:45:35.000Z</time>
      </trkpt>
      <trkpt lat="45.82774" lon="4.73718">
        <ele>328.84409</ele>
        <time>2023-07-10T14:45:36.000Z</time>
      </trkpt>
      <trkpt lat="45.8277" lon="4.73717">
        <ele>329.06479</ele>
        <time>2023-07-10T14:45:37.000Z</time>
      </trkpt>
      <trkpt lat="45.82766" lon="4.73717">
        <ele>329.27167</ele>
        <time>2023-07-10T14:45:38.000Z</time>
      </trkpt>
      <trkpt lat="45.82762" lon="4.73717">
        <ele>329.45285</ele>
        <time>2023-07-10T14:45:39.000Z</time>
      </trkpt>
      <trkpt lat="45.82757" lon="4.73716">
        <ele>329.6264</ele>
        <time>2023-07-10T14:45:40.000Z</time>
      </trkpt>
      <trkpt lat="45.82753" lon="4.73716">
        <ele>329.70609</ele>
        <time>2023-07-10T14:45:41.000Z</time>
      </trkpt>
      <trkpt lat="45.82749" lon="4.73716">
        <ele>329.80484</ele>
        <time>2023-07-10T14:45:42.000Z</time>
      </trkpt>
      <trkpt lat="45.82745" lon="4.73716">
        <ele>329.92963</ele>
        <time>2023-07-10T14:45:43.000Z</time>
      </trkpt>
      <trkpt lat="45.82741" lon="4.73716">
        <ele>330.04495</ele>
        <time>2023-07-10T14:45:44.000Z</time>
      </trkpt>
      <trkpt lat="45.82737" lon="4.73716">
        <ele>330.15869</ele>
        <time>2023-07-10T14:45:45.000Z</time>
      </trkpt>
      <trkpt lat="45.82732" lon="4.73715">
        <ele>330.27777</ele>
        <time>2023-07-10T14:45:46.000Z</time>
      </trkpt>
      <trkpt lat="45.82728" lon="4.73715">
        <ele>330.45041</ele>
        <time>2023-07-10T14:45:47.000Z</time>
      </trkpt>
      <trkpt lat="45.82723" lon="4.73716">
        <ele>330.63965</ele>
        <time>2023-07-10T14:45:48.000Z</time>
      </trkpt>
      <trkpt lat="45.82718" lon="4.73716">
        <ele>330.90448</ele>
        <time>2023-07-10T14:45:49.000Z</time>
      </trkpt>
      <trkpt lat="45.82713" lon="4.73715">
        <ele>331.09955</ele>
        <time>2023-07-10T14:45:50.000Z</time>
      </trkpt>
      <trkpt lat="45.82708" lon="4.73715">
        <ele>331.31277</ele>
        <time>2023-07-10T14:45:51.000Z</time>
      </trkpt>
      <trkpt lat="45.82703" lon="4.73715">
        <ele>331.54227</ele>
        <time>2023-07-10T14:45:52.000Z</time>
      </trkpt>
      <trkpt lat="45.82698" lon="4.73715">
        <ele>331.78595</ele>
        <time>2023-07-10T14:45:53.000Z</time>
      </trkpt>
      <trkpt lat="45.82693" lon="4.73716">
        <ele>332.01855</ele>
        <time>2023-07-10T14:45:54.000Z</time>
      </trkpt>
      <trkpt lat="45.82688" lon="4.73716">
        <ele>332.23773</ele>
        <time>2023-07-10T14:45:55.000Z</time>
      </trkpt>
      <trkpt lat="45.82684" lon="4.73715">
        <ele>332.44315</ele>
        <time>2023-07-10T14:45:56.000Z</time>
      </trkpt>
      <trkpt lat="45.82679" lon="4.73715">
        <ele>332.61938</ele>
        <time>2023-07-10T14:45:57.000Z</time>
      </trkpt>
      <trkpt lat="45.82674" lon="4.73716">
        <ele>332.82236</ele>
        <time>2023-07-10T14:45:58.000Z</time>
      </trkpt>
      <trkpt lat="45.82669" lon="4.73716">
        <ele>333.01913</ele>
        <time>2023-07-10T14:45:59.000Z</time>
      </trkpt>
      <trkpt lat="45.82665" lon="4.73716">
        <ele>333.20053</ele>
        <time>2023-07-10T14:46:00.000Z</time>
      </trkpt>
      <trkpt lat="45.8266" lon="4.73716">
        <ele>333.40421</ele>
        <time>2023-07-10T14:46:01.000Z</time>
      </trkpt>
      <trkpt lat="45.82655" lon="4.73716">
        <ele>333.58099</ele>
        <time>2023-07-10T14:46:02.000Z</time>
      </trkpt>
      <trkpt lat="45.82649" lon="4.73716">
        <ele>333.73898</ele>
        <time>2023-07-10T14:46:03.000Z</time>
      </trkpt>
      <trkpt lat="45.82645" lon="4.73716">
        <ele>333.90778</ele>
        <time>2023-07-10T14:46:04.000Z</time>
      </trkpt>
      <trkpt lat="45.8264" lon="4.73716">
        <ele>334.05423</ele>
        <time>2023-07-10T14:46:05.000Z</time>
      </trkpt>
      <trkpt lat="45.82636" lon="4.73717">
        <ele>334.15726</ele>
        <time>2023-07-10T14:46:06.000Z</time>
      </trkpt>
      <trkpt lat="45.82631" lon="4.73717">
        <ele>334.26776</ele>
        <time>2023-07-10T14:46:07.000Z</time>
      </trkpt>
      <trkpt lat="45.82627" lon="4.73717">
        <ele>334.4361</ele>
        <time>2023-07-10T14:46:08.000Z</time>
      </trkpt>
      <trkpt lat="45.82623" lon="4.73717">
        <ele>334.5632</ele>
        <time>2023-07-10T14:46:09.000Z</time>
      </trkpt>
      <trkpt lat="45.82618" lon="4.73716">
        <ele>334.7767</ele>
        <time>2023-07-10T14:46:10.000Z</time>
      </trkpt>
      <trkpt lat="45.82613" lon="4.73714">
        <ele>334.95868</ele>
        <time>2023-07-10T14:46:11.000Z</time>
      </trkpt>
      <trkpt lat="45.82608" lon="4.73713">
        <ele>335.10059</ele>
        <time>2023-07-10T14:46:12.000Z</time>
      </trkpt>
      <trkpt lat="45.82603" lon="4.73715">
        <ele>335.20279</ele>
        <time>2023-07-10T14:46:13.000Z</time>
      </trkpt>
      <trkpt lat="45.82598" lon="4.73718">
        <ele>335.30844</ele>
        <time>2023-07-10T14:46:14.000Z</time>
      </trkpt>
      <trkpt lat="45.82595" lon="4.7372">
        <ele>335.37216</ele>
        <time>2023-07-10T14:46:15.000Z</time>
      </trkpt>
      <trkpt lat="45.82592" lon="4.73722">
        <ele>335.50262</ele>
        <time>2023-07-10T14:46:16.000Z</time>
      </trkpt>
      <trkpt lat="45.82591" lon="4.73725">
        <ele>335.64636</ele>
        <time>2023-07-10T14:46:17.000Z</time>
      </trkpt>
      <trkpt lat="45.8259" lon="4.73728">
        <ele>335.77982</ele>
        <time>2023-07-10T14:46:18.000Z</time>
      </trkpt>
      <trkpt lat="45.82588" lon="4.73732">
        <ele>335.88715</ele>
        <time>2023-07-10T14:46:19.000Z</time>
      </trkpt>
      <trkpt lat="45.82584" lon="4.73734">
        <ele>335.97668</ele>
        <time>2023-07-10T14:46:20.000Z</time>
      </trkpt>
      <trkpt lat="45.82581" lon="4.73736">
        <ele>336.04034</ele>
        <time>2023-07-10T14:46:21.000Z</time>
      </trkpt>
      <trkpt lat="45.82579" lon="4.73742">
        <ele>336.14514</ele>
        <time>2023-07-10T14:46:22.000Z</time>
      </trkpt>
      <trkpt lat="45.82578" lon="4.73747">
        <ele>336.27542</ele>
        <time>2023-07-10T14:46:23.000Z</time>
      </trkpt>
      <trkpt lat="45.82578" lon="4.73753">
        <ele>336.39517</ele>
        <time>2023-07-10T14:46:24.000Z</time>
      </trkpt>
      <trkpt lat="45.82576" lon="4.73759">
        <ele>336.5184</ele>
        <time>2023-07-10T14:46:25.000Z</time>
      </trkpt>
      <trkpt lat="45.82574" lon="4.73765">
        <ele>336.65268</ele>
        <time>2023-07-10T14:46:26.000Z</time>
      </trkpt>
      <trkpt lat="45.82572" lon="4.73771">
        <ele>336.74786</ele>
        <time>2023-07-10T14:46:27.000Z</time>
      </trkpt>
      <trkpt lat="45.82571" lon="4.7378">
        <ele>336.76648</ele>
        <time>2023-07-10T14:46:28.000Z</time>
      </trkpt>
      <trkpt lat="45.82571" lon="4.73788">
        <ele>336.74597</ele>
        <time>2023-07-10T14:46:29.000Z</time>
      </trkpt>
      <trkpt lat="45.8257" lon="4.73798">
        <ele>336.66666</ele>
        <time>2023-07-10T14:46:30.000Z</time>
      </trkpt>
      <trkpt lat="45.82566" lon="4.738">
        <ele>336.58954</ele>
        <time>2023-07-10T14:46:31.000Z</time>
      </trkpt>
      <trkpt lat="45.8256" lon="4.73805">
        <ele>336.53159</ele>
        <time>2023-07-10T14:46:32.000Z</time>
      </trkpt>
      <trkpt lat="45.82557" lon="4.73811">
        <ele>336.4744</ele>
        <time>2023-07-10T14:46:33.000Z</time>
      </trkpt>
      <trkpt lat="45.82554" lon="4.73817">
        <ele>336.56216</ele>
        <time>2023-07-10T14:46:34.000Z</time>
      </trkpt>
      <trkpt lat="45.82552" lon="4.73824">
        <ele>336.63281</ele>
        <time>2023-07-10T14:46:35.000Z</time>
      </trkpt>
      <trkpt lat="45.8255" lon="4.7383">
        <ele>336.64224</ele>
        <time>2023-07-10T14:46:36.000Z</time>
      </trkpt>
      <trkpt lat="45.82547" lon="4.73836">
        <ele>336.68384</ele>
        <time>2023-07-10T14:46:37.000Z</time>
      </trkpt>
      <trkpt lat="45.82546" lon="4.73843">
        <ele>336.74615</ele>
        <time>2023-07-10T14:46:38.000Z</time>
      </trkpt>
      <trkpt lat="45.82543" lon="4.73848">
        <ele>336.85126</ele>
        <time>2023-07-10T14:46:39.000Z</time>
      </trkpt>
      <trkpt lat="45.8254" lon="4.73853">
        <ele>336.99902</ele>
        <time>2023-07-10T14:46:40.000Z</time>
      </trkpt>
      <trkpt lat="45.82538" lon="4.73859">
        <ele>337.17245</ele>
        <time>2023-07-10T14:46:41.000Z</time>
      </trkpt>
      <trkpt lat="45.82536" lon="4.73866">
        <ele>337.33258</ele>
        <time>2023-07-10T14:46:42.000Z</time>
      </trkpt>
      <trkpt lat="45.82533" lon="4.73872">
        <ele>337.49994</ele>
        <time>2023-07-10T14:46:43.000Z</time>
      </trkpt>
      <trkpt lat="45.82532" lon="4.73878">
        <ele>337.6622</ele>
        <time>2023-07-10T14:46:44.000Z</time>
      </trkpt>
      <trkpt lat="45.8253" lon="4.73883">
        <ele>337.82513</ele>
        <time>2023-07-10T14:46:45.000Z</time>
      </trkpt>
      <trkpt lat="45.82528" lon="4.73889">
        <ele>338.03995</ele>
        <time>2023-07-10T14:46:46.000Z</time>
      </trkpt>
      <trkpt lat="45.82526" lon="4.73895">
        <ele>338.24823</ele>
        <time>2023-07-10T14:46:47.000Z</time>
      </trkpt>
      <trkpt lat="45.82524" lon="4.73901">
        <ele>338.46964</ele>
        <time>2023-07-10T14:46:48.000Z</time>
      </trkpt>
      <trkpt lat="45.82523" lon="4.73908">
        <ele>338.70453</ele>
        <time>2023-07-10T14:46:49.000Z</time>
      </trkpt>
      <trkpt lat="45.82521" lon="4.73914">
        <ele>338.95639</ele>
        <time>2023-07-10T14:46:50.000Z</time>
      </trkpt>
      <trkpt lat="45.82518" lon="4.73918">
        <ele>339.2171</ele>
        <time>2023-07-10T14:46:51.000Z</time>
      </trkpt>
      <trkpt lat="45.82514" lon="4.73923">
        <ele>339.47275</ele>
        <time>2023-07-10T14:46:52.000Z</time>
      </trkpt>
      <trkpt lat="45.8251" lon="4.73926">
        <ele>339.64716</ele>
        <time>2023-07-10T14:46:53.000Z</time>
      </trkpt>
      <trkpt lat="45.82506" lon="4.73925">
        <ele>339.64899</ele>
        <time>2023-07-10T14:46:54.000Z</time>
      </trkpt>
      <trkpt lat="45.82502" lon="4.73921">
        <ele>339.66586</ele>
        <time>2023-07-10T14:46:55.000Z</time>
      </trkpt>
      <trkpt lat="45.825" lon="4.73913">
        <ele>339.64056</ele>
        <time>2023-07-10T14:46:56.000Z</time>
      </trkpt>
      <trkpt lat="45.82501" lon="4.73905">
        <ele>339.56915</ele>
        <time>2023-07-10T14:46:57.000Z</time>
      </trkpt>
      <trkpt lat="45.82504" lon="4.73899">
        <ele>339.4621</ele>
        <time>2023-07-10T14:46:58.000Z</time>
      </trkpt>
      <trkpt lat="45.82507" lon="4.73894">
        <ele>339.3111</ele>
        <time>2023-07-10T14:46:59.000Z</time>
      </trkpt>
      <trkpt lat="45.8251" lon="4.7389">
        <ele>339.09125</ele>
        <time>2023-07-10T14:47:00.000Z</time>
      </trkpt>
      <trkpt lat="45.82512" lon="4.73886">
        <ele>338.84351</ele>
        <time>2023-07-10T14:47:01.000Z</time>
      </trkpt>
      <trkpt lat="45.82515" lon="4.73881">
        <ele>338.63065</ele>
        <time>2023-07-10T14:47:02.000Z</time>
      </trkpt>
      <trkpt lat="45.82518" lon="4.73877">
        <ele>338.38727</ele>
        <time>2023-07-10T14:47:03.000Z</time>
      </trkpt>
      <trkpt lat="45.82521" lon="4.73873">
        <ele>338.19333</ele>
        <time>2023-07-10T14:47:04.000Z</time>
      </trkpt>
      <trkpt lat="45.82524" lon="4.73868">
        <ele>337.97324</ele>
        <time>2023-07-10T14:47:05.000Z</time>
      </trkpt>
      <trkpt lat="45.82526" lon="4.73864">
        <ele>337.72076</ele>
        <time>2023-07-10T14:47:06.000Z</time>
      </trkpt>
      <trkpt lat="45.82529" lon="4.73858">
        <ele>337.60526</ele>
        <time>2023-07-10T14:47:07.000Z</time>
      </trkpt>
      <trkpt lat="45.82531" lon="4.73853">
        <ele>337.46692</ele>
        <time>2023-07-10T14:47:08.000Z</time>
      </trkpt>
      <trkpt lat="45.82533" lon="4.73846">
        <ele>337.32086</ele>
        <time>2023-07-10T14:47:09.000Z</time>
      </trkpt>
      <trkpt lat="45.82534" lon="4.7384">
        <ele>337.1944</ele>
        <time>2023-07-10T14:47:10.000Z</time>
      </trkpt>
      <trkpt lat="45.82535" lon="4.73834">
        <ele>337.08377</ele>
        <time>2023-07-10T14:47:11.000Z</time>
      </trkpt>
      <trkpt lat="45.82535" lon="4.73828">
        <ele>336.97977</ele>
        <time>2023-07-10T14:47:12.000Z</time>
      </trkpt>
      <trkpt lat="45.82535" lon="4.73822">
        <ele>336.94528</ele>
        <time>2023-07-10T14:47:13.000Z</time>
      </trkpt>
      <trkpt lat="45.82534" lon="4.73816">
        <ele>336.91574</ele>
        <time>2023-07-10T14:47:14.000Z</time>
      </trkpt>
      <trkpt lat="45.82532" lon="4.7381">
        <ele>336.91193</ele>
        <time>2023-07-10T14:47:15.000Z</time>
      </trkpt>
      <trkpt lat="45.82531" lon="4.73804">
        <ele>336.95294</ele>
        <time>2023-07-10T14:47:16.000Z</time>
      </trkpt>
      <trkpt lat="45.82528" lon="4.73798">
        <ele>336.99728</ele>
        <time>2023-07-10T14:47:17.000Z</time>
      </trkpt>
      <trkpt lat="45.82526" lon="4.73792">
        <ele>337.0824</ele>
        <time>2023-07-10T14:47:18.000Z</time>
      </trkpt>
      <trkpt lat="45.82523" lon="4.73786">
        <ele>337.16675</ele>
        <time>2023-07-10T14:47:19.000Z</time>
      </trkpt>
      <trkpt lat="45.8252" lon="4.7378">
        <ele>337.30368</ele>
        <time>2023-07-10T14:47:20.000Z</time>
      </trkpt>
      <trkpt lat="45.82518" lon="4.73774">
        <ele>337.40756</ele>
        <time>2023-07-10T14:47:21.000Z</time>
      </trkpt>
      <trkpt lat="45.82516" lon="4.73768">
        <ele>337.44745</ele>
        <time>2023-07-10T14:47:22.000Z</time>
      </trkpt>
      <trkpt lat="45.82513" lon="4.73762">
        <ele>337.49118</ele>
        <time>2023-07-10T14:47:23.000Z</time>
      </trkpt>
      <trkpt lat="45.8251" lon="4.73755">
        <ele>337.4942</ele>
        <time>2023-07-10T14:47:24.000Z</time>
      </trkpt>
      <trkpt lat="45.82507" lon="4.73749">
        <ele>337.53992</ele>
        <time>2023-07-10T14:47:25.000Z</time>
      </trkpt>
      <trkpt lat="45.82504" lon="4.73744">
        <ele>337.73389</ele>
        <time>2023-07-10T14:47:26.000Z</time>
      </trkpt>
      <trkpt lat="45.825" lon="4.73738">
        <ele>337.815</ele>
        <time>2023-07-10T14:47:27.000Z</time>
      </trkpt>
      <trkpt lat="45.82498" lon="4.73732">
        <ele>337.97821</ele>
        <time>2023-07-10T14:47:28.000Z</time>
      </trkpt>
      <trkpt lat="45.82495" lon="4.73726">
        <ele>338.12827</ele>
        <time>2023-07-10T14:47:29.000Z</time>
      </trkpt>
      <trkpt lat="45.82492" lon="4.73721">
        <ele>338.29999</ele>
        <time>2023-07-10T14:47:30.000Z</time>
      </trkpt>
      <trkpt lat="45.82489" lon="4.73715">
        <ele>338.4599</ele>
        <time>2023-07-10T14:47:31.000Z</time>
      </trkpt>
      <trkpt lat="45.82486" lon="4.7371">
        <ele>338.61243</ele>
        <time>2023-07-10T14:47:32.000Z</time>
      </trkpt>
      <trkpt lat="45.82483" lon="4.73706">
        <ele>338.78778</ele>
        <time>2023-07-10T14:47:33.000Z</time>
      </trkpt>
      <trkpt lat="45.82481" lon="4.73701">
        <ele>338.98224</ele>
        <time>2023-07-10T14:47:34.000Z</time>
      </trkpt>
      <trkpt lat="45.82478" lon="4.73696">
        <ele>339.15149</ele>
        <time>2023-07-10T14:47:35.000Z</time>
      </trkpt>
      <trkpt lat="45.82475" lon="4.73691">
        <ele>339.29483</ele>
        <time>2023-07-10T14:47:36.000Z</time>
      </trkpt>
      <trkpt lat="45.82472" lon="4.73686">
        <ele>339.46661</ele>
        <time>2023-07-10T14:47:37.000Z</time>
      </trkpt>
      <trkpt lat="45.82469" lon="4.7368">
        <ele>339.62164</ele>
        <time>2023-07-10T14:47:38.000Z</time>
      </trkpt>
      <trkpt lat="45.82466" lon="4.73676">
        <ele>339.78839</ele>
        <time>2023-07-10T14:47:39.000Z</time>
      </trkpt>
      <trkpt lat="45.82464" lon="4.73671">
        <ele>339.91922</ele>
        <time>2023-07-10T14:47:40.000Z</time>
      </trkpt>
      <trkpt lat="45.82461" lon="4.73665">
        <ele>340.03445</ele>
        <time>2023-07-10T14:47:41.000Z</time>
      </trkpt>
      <trkpt lat="45.82458" lon="4.73661">
        <ele>340.20438</ele>
        <time>2023-07-10T14:47:42.000Z</time>
      </trkpt>
      <trkpt lat="45.82455" lon="4.73655">
        <ele>340.38309</ele>
        <time>2023-07-10T14:47:43.000Z</time>
      </trkpt>
      <trkpt lat="45.82452" lon="4.7365">
        <ele>340.53571</ele>
        <time>2023-07-10T14:47:44.000Z</time>
      </trkpt>
      <trkpt lat="45.82449" lon="4.73644">
        <ele>340.81882</ele>
        <time>2023-07-10T14:47:45.000Z</time>
      </trkpt>
      <trkpt lat="45.82447" lon="4.73639">
        <ele>340.91254</ele>
        <time>2023-07-10T14:47:46.000Z</time>
      </trkpt>
      <trkpt lat="45.82444" lon="4.73633">
        <ele>341.04193</ele>
        <time>2023-07-10T14:47:47.000Z</time>
      </trkpt>
      <trkpt lat="45.82442" lon="4.73628">
        <ele>341.1452</ele>
        <time>2023-07-10T14:47:48.000Z</time>
      </trkpt>
      <trkpt lat="45.82439" lon="4.73622">
        <ele>341.24554</ele>
        <time>2023-07-10T14:47:49.000Z</time>
      </trkpt>
      <trkpt lat="45.82436" lon="4.73616">
        <ele>341.29327</ele>
        <time>2023-07-10T14:47:50.000Z</time>
      </trkpt>
      <trkpt lat="45.82434" lon="4.73611">
        <ele>341.31537</ele>
        <time>2023-07-10T14:47:51.000Z</time>
      </trkpt>
      <trkpt lat="45.82431" lon="4.73607">
        <ele>341.34839</ele>
        <time>2023-07-10T14:47:52.000Z</time>
      </trkpt>
      <trkpt lat="45.82429" lon="4.73601">
        <ele>341.3981</ele>
        <time>2023-07-10T14:47:53.000Z</time>
      </trkpt>
      <trkpt lat="45.82426" lon="4.73596">
        <ele>341.37869</ele>
        <time>2023-07-10T14:47:54.000Z</time>
      </trkpt>
      <trkpt lat="45.82424" lon="4.73591">
        <ele>341.38818</ele>
        <time>2023-07-10T14:47:55.000Z</time>
      </trkpt>
      <trkpt lat="45.82422" lon="4.73586">
        <ele>341.33823</ele>
        <time>2023-07-10T14:47:56.000Z</time>
      </trkpt>
      <trkpt lat="45.82419" lon="4.73582">
        <ele>341.45026</ele>
        <time>2023-07-10T14:47:57.000Z</time>
      </trkpt>
      <trkpt lat="45.82417" lon="4.73577">
        <ele>341.52133</ele>
        <time>2023-07-10T14:47:58.000Z</time>
      </trkpt>
      <trkpt lat="45.82415" lon="4.73573">
        <ele>341.59494</ele>
        <time>2023-07-10T14:47:59.000Z</time>
      </trkpt>
      <trkpt lat="45.82413" lon="4.73568">
        <ele>341.69424</ele>
        <time>2023-07-10T14:48:00.000Z</time>
      </trkpt>
      <trkpt lat="45.82411" lon="4.73564">
        <ele>341.85419</ele>
        <time>2023-07-10T14:48:01.000Z</time>
      </trkpt>
      <trkpt lat="45.82409" lon="4.7356">
        <ele>342.01257</ele>
        <time>2023-07-10T14:48:02.000Z</time>
      </trkpt>
      <trkpt lat="45.82407" lon="4.73556">
        <ele>342.14655</ele>
        <time>2023-07-10T14:48:03.000Z</time>
      </trkpt>
      <trkpt lat="45.82405" lon="4.73552">
        <ele>342.32483</ele>
        <time>2023-07-10T14:48:04.000Z</time>
      </trkpt>
      <trkpt lat="45.82403" lon="4.73549">
        <ele>342.37579</ele>
        <time>2023-07-10T14:48:05.000Z</time>
      </trkpt>
      <trkpt lat="45.82402" lon="4.73545">
        <ele>342.48032</ele>
        <time>2023-07-10T14:48:06.000Z</time>
      </trkpt>
      <trkpt lat="45.824" lon="4.73541">
        <ele>342.5614</ele>
        <time>2023-07-10T14:48:07.000Z</time>
      </trkpt>
      <trkpt lat="45.82398" lon="4.73538">
        <ele>342.60339</ele>
        <time>2023-07-10T14:48:08.000Z</time>
      </trkpt>
      <trkpt lat="45.82397" lon="4.73534">
        <ele>342.66156</ele>
        <time>2023-07-10T14:48:09.000Z</time>
      </trkpt>
      <trkpt lat="45.82396" lon="4.7353">
        <ele>342.73517</ele>
        <time>2023-07-10T14:48:10.000Z</time>
      </trkpt>
      <trkpt lat="45.82395" lon="4.73527">
        <ele>342.83679</ele>
        <time>2023-07-10T14:48:11.000Z</time>
      </trkpt>
      <trkpt lat="45.82393" lon="4.73523">
        <ele>342.93427</ele>
        <time>2023-07-10T14:48:12.000Z</time>
      </trkpt>
      <trkpt lat="45.82391" lon="4.73519">
        <ele>342.99567</ele>
        <time>2023-07-10T14:48:13.000Z</time>
      </trkpt>
      <trkpt lat="45.8239" lon="4.73515">
        <ele>343.01581</ele>
        <time>2023-07-10T14:48:14.000Z</time>
      </trkpt>
      <trkpt lat="45.82389" lon="4.73511">
        <ele>343.00604</ele>
        <time>2023-07-10T14:48:15.000Z</time>
      </trkpt>
      <trkpt lat="45.82387" lon="4.73507">
        <ele>343.06064</ele>
        <time>2023-07-10T14:48:16.000Z</time>
      </trkpt>
      <trkpt lat="45.82386" lon="4.73503">
        <ele>342.89014</ele>
        <time>2023-07-10T14:48:17.000Z</time>
      </trkpt>
      <trkpt lat="45.82384" lon="4.73499">
        <ele>342.91992</ele>
        <time>2023-07-10T14:48:18.000Z</time>
      </trkpt>
      <trkpt lat="45.82382" lon="4.73494">
        <ele>342.91931</ele>
        <time>2023-07-10T14:48:19.000Z</time>
      </trkpt>
      <trkpt lat="45.82381" lon="4.73489">
        <ele>342.91052</ele>
        <time>2023-07-10T14:48:20.000Z</time>
      </trkpt>
      <trkpt lat="45.82379" lon="4.73485">
        <ele>342.888</ele>
        <time>2023-07-10T14:48:21.000Z</time>
      </trkpt>
      <trkpt lat="45.82376" lon="4.7348">
        <ele>342.89517</ele>
        <time>2023-07-10T14:48:22.000Z</time>
      </trkpt>
      <trkpt lat="45.82374" lon="4.73476">
        <ele>342.92593</ele>
        <time>2023-07-10T14:48:23.000Z</time>
      </trkpt>
      <trkpt lat="45.82372" lon="4.73471">
        <ele>342.97763</ele>
        <time>2023-07-10T14:48:24.000Z</time>
      </trkpt>
      <trkpt lat="45.8237" lon="4.73466">
        <ele>343.00314</ele>
        <time>2023-07-10T14:48:25.000Z</time>
      </trkpt>
      <trkpt lat="45.82368" lon="4.73461">
        <ele>343.02423</ele>
        <time>2023-07-10T14:48:26.000Z</time>
      </trkpt>
      <trkpt lat="45.82365" lon="4.73457">
        <ele>343.04089</ele>
        <time>2023-07-10T14:48:27.000Z</time>
      </trkpt>
      <trkpt lat="45.82363" lon="4.73452">
        <ele>343.09314</ele>
        <time>2023-07-10T14:48:28.000Z</time>
      </trkpt>
      <trkpt lat="45.8236" lon="4.73448">
        <ele>343.12979</ele>
        <time>2023-07-10T14:48:29.000Z</time>
      </trkpt>
      <trkpt lat="45.82358" lon="4.73443">
        <ele>343.09467</ele>
        <time>2023-07-10T14:48:30.000Z</time>
      </trkpt>
      <trkpt lat="45.82355" lon="4.73439">
        <ele>343.03885</ele>
        <time>2023-07-10T14:48:31.000Z</time>
      </trkpt>
      <trkpt lat="45.82353" lon="4.73434">
        <ele>342.9852</ele>
        <time>2023-07-10T14:48:32.000Z</time>
      </trkpt>
      <trkpt lat="45.8235" lon="4.7343">
        <ele>342.95868</ele>
        <time>2023-07-10T14:48:33.000Z</time>
      </trkpt>
      <trkpt lat="45.82348" lon="4.73426">
        <ele>342.99869</ele>
        <time>2023-07-10T14:48:34.000Z</time>
      </trkpt>
      <trkpt lat="45.82345" lon="4.73422">
        <ele>343.00446</ele>
        <time>2023-07-10T14:48:35.000Z</time>
      </trkpt>
      <trkpt lat="45.82343" lon="4.73418">
        <ele>343.19513</ele>
        <time>2023-07-10T14:48:36.000Z</time>
      </trkpt>
      <trkpt lat="45.82341" lon="4.73414">
        <ele>343.43439</ele>
        <time>2023-07-10T14:48:37.000Z</time>
      </trkpt>
      <trkpt lat="45.82339" lon="4.7341">
        <ele>343.48355</ele>
        <time>2023-07-10T14:48:38.000Z</time>
      </trkpt>
      <trkpt lat="45.82337" lon="4.73406">
        <ele>343.56836</ele>
        <time>2023-07-10T14:48:39.000Z</time>
      </trkpt>
      <trkpt lat="45.82334" lon="4.73402">
        <ele>343.66968</ele>
        <time>2023-07-10T14:48:40.000Z</time>
      </trkpt>
      <trkpt lat="45.82332" lon="4.73398">
        <ele>343.78412</ele>
        <time>2023-07-10T14:48:41.000Z</time>
      </trkpt>
      <trkpt lat="45.82329" lon="4.73393">
        <ele>343.86136</ele>
        <time>2023-07-10T14:48:42.000Z</time>
      </trkpt>
      <trkpt lat="45.82327" lon="4.73388">
        <ele>343.93533</ele>
        <time>2023-07-10T14:48:43.000Z</time>
      </trkpt>
      <trkpt lat="45.82325" lon="4.73384">
        <ele>343.99408</ele>
        <time>2023-07-10T14:48:44.000Z</time>
      </trkpt>
      <trkpt lat="45.82323" lon="4.73379">
        <ele>344.04932</ele>
        <time>2023-07-10T14:48:45.000Z</time>
      </trkpt>
      <trkpt lat="45.8232" lon="4.73375">
        <ele>344.09171</ele>
        <time>2023-07-10T14:48:46.000Z</time>
      </trkpt>
      <trkpt lat="45.82318" lon="4.7337">
        <ele>344.14395</ele>
        <time>2023-07-10T14:48:47.000Z</time>
      </trkpt>
      <trkpt lat="45.82316" lon="4.73365">
        <ele>344.18222</ele>
        <time>2023-07-10T14:48:48.000Z</time>
      </trkpt>
      <trkpt lat="45.82314" lon="4.7336">
        <ele>344.24976</ele>
        <time>2023-07-10T14:48:49.000Z</time>
      </trkpt>
      <trkpt lat="45.82312" lon="4.73355">
        <ele>344.38397</ele>
        <time>2023-07-10T14:48:50.000Z</time>
      </trkpt>
      <trkpt lat="45.8231" lon="4.7335">
        <ele>344.52039</ele>
        <time>2023-07-10T14:48:51.000Z</time>
      </trkpt>
      <trkpt lat="45.82309" lon="4.73344">
        <ele>344.65018</ele>
        <time>2023-07-10T14:48:52.000Z</time>
      </trkpt>
      <trkpt lat="45.82308" lon="4.73339">
        <ele>344.75507</ele>
        <time>2023-07-10T14:48:53.000Z</time>
      </trkpt>
      <trkpt lat="45.82306" lon="4.73333">
        <ele>344.89215</ele>
        <time>2023-07-10T14:48:54.000Z</time>
      </trkpt>
      <trkpt lat="45.82305" lon="4.73327">
        <ele>345.11597</ele>
        <time>2023-07-10T14:48:55.000Z</time>
      </trkpt>
      <trkpt lat="45.82304" lon="4.73321">
        <ele>345.14407</ele>
        <time>2023-07-10T14:48:56.000Z</time>
      </trkpt>
      <trkpt lat="45.82303" lon="4.73316">
        <ele>345.18405</ele>
        <time>2023-07-10T14:48:57.000Z</time>
      </trkpt>
      <trkpt lat="45.82301" lon="4.7331">
        <ele>345.23297</ele>
        <time>2023-07-10T14:48:58.000Z</time>
      </trkpt>
      <trkpt lat="45.823" lon="4.73304">
        <ele>345.26312</ele>
        <time>2023-07-10T14:48:59.000Z</time>
      </trkpt>
      <trkpt lat="45.82298" lon="4.73299">
        <ele>345.27448</ele>
        <time>2023-07-10T14:49:00.000Z</time>
      </trkpt>
      <trkpt lat="45.82296" lon="4.73293">
        <ele>345.25964</ele>
        <time>2023-07-10T14:49:01.000Z</time>
      </trkpt>
      <trkpt lat="45.82294" lon="4.73288">
        <ele>345.24438</ele>
        <time>2023-07-10T14:49:02.000Z</time>
      </trkpt>
      <trkpt lat="45.82292" lon="4.73283">
        <ele>345.22052</ele>
        <time>2023-07-10T14:49:03.000Z</time>
      </trkpt>
      <trkpt lat="45.82291" lon="4.73278">
        <ele>345.17401</ele>
        <time>2023-07-10T14:49:04.000Z</time>
      </trkpt>
      <trkpt lat="45.82289" lon="4.73273">
        <ele>345.15945</ele>
        <time>2023-07-10T14:49:05.000Z</time>
      </trkpt>
      <trkpt lat="45.82285" lon="4.7327">
        <ele>345.13129</ele>
        <time>2023-07-10T14:49:06.000Z</time>
      </trkpt>
      <trkpt lat="45.8228" lon="4.73273">
        <ele>345.12622</ele>
        <time>2023-07-10T14:49:07.000Z</time>
      </trkpt>
      <trkpt lat="45.82276" lon="4.73276">
        <ele>345.07153</ele>
        <time>2023-07-10T14:49:08.000Z</time>
      </trkpt>
      <trkpt lat="45.82272" lon="4.73278">
        <ele>344.9765</ele>
        <time>2023-07-10T14:49:09.000Z</time>
      </trkpt>
      <trkpt lat="45.82267" lon="4.73282">
        <ele>344.87143</ele>
        <time>2023-07-10T14:49:10.000Z</time>
      </trkpt>
      <trkpt lat="45.82263" lon="4.73284">
        <ele>344.7561</ele>
        <time>2023-07-10T14:49:11.000Z</time>
      </trkpt>
      <trkpt lat="45.82258" lon="4.73287">
        <ele>344.62653</ele>
        <time>2023-07-10T14:49:12.000Z</time>
      </trkpt>
      <trkpt lat="45.82254" lon="4.73289">
        <ele>344.49115</ele>
        <time>2023-07-10T14:49:13.000Z</time>
      </trkpt>
      <trkpt lat="45.82249" lon="4.73292">
        <ele>344.25949</ele>
        <time>2023-07-10T14:49:14.000Z</time>
      </trkpt>
      <trkpt lat="45.82244" lon="4.73295">
        <ele>343.95157</ele>
        <time>2023-07-10T14:49:15.000Z</time>
      </trkpt>
      <trkpt lat="45.82238" lon="4.73297">
        <ele>343.62897</ele>
        <time>2023-07-10T14:49:16.000Z</time>
      </trkpt>
      <trkpt lat="45.82233" lon="4.733">
        <ele>343.44644</ele>
        <time>2023-07-10T14:49:17.000Z</time>
      </trkpt>
      <trkpt lat="45.82228" lon="4.73302">
        <ele>343.25424</ele>
        <time>2023-07-10T14:49:18.000Z</time>
      </trkpt>
      <trkpt lat="45.82222" lon="4.73304">
        <ele>343.06299</ele>
        <time>2023-07-10T14:49:19.000Z</time>
      </trkpt>
      <trkpt lat="45.82216" lon="4.73307">
        <ele>342.86285</ele>
        <time>2023-07-10T14:49:20.000Z</time>
      </trkpt>
      <trkpt lat="45.8221" lon="4.7331">
        <ele>342.68515</ele>
        <time>2023-07-10T14:49:21.000Z</time>
      </trkpt>
      <trkpt lat="45.82205" lon="4.73312">
        <ele>342.51233</ele>
        <time>2023-07-10T14:49:22.000Z</time>
      </trkpt>
      <trkpt lat="45.82198" lon="4.73315">
        <ele>342.32025</ele>
        <time>2023-07-10T14:49:23.000Z</time>
      </trkpt>
      <trkpt lat="45.82192" lon="4.73317">
        <ele>342.15015</ele>
        <time>2023-07-10T14:49:24.000Z</time>
      </trkpt>
      <trkpt lat="45.82185" lon="4.73318">
        <ele>341.93182</ele>
        <time>2023-07-10T14:49:25.000Z</time>
      </trkpt>
      <trkpt lat="45.82179" lon="4.73317">
        <ele>341.72916</ele>
        <time>2023-07-10T14:49:26.000Z</time>
      </trkpt>
      <trkpt lat="45.82174" lon="4.73312">
        <ele>341.48035</ele>
        <time>2023-07-10T14:49:27.000Z</time>
      </trkpt>
      <trkpt lat="45.82171" lon="4.73305">
        <ele>341.26068</ele>
        <time>2023-07-10T14:49:28.000Z</time>
      </trkpt>
      <trkpt lat="45.82167" lon="4.73298">
        <ele>341.08252</ele>
        <time>2023-07-10T14:49:29.000Z</time>
      </trkpt>
      <trkpt lat="45.82165" lon="4.7329">
        <ele>340.91418</ele>
        <time>2023-07-10T14:49:30.000Z</time>
      </trkpt>
      <trkpt lat="45.82161" lon="4.73286">
        <ele>340.75278</ele>
        <time>2023-07-10T14:49:31.000Z</time>
      </trkpt>
      <trkpt lat="45.82156" lon="4.73285">
        <ele>340.58798</ele>
        <time>2023-07-10T14:49:32.000Z</time>
      </trkpt>
      <trkpt lat="45.8215" lon="4.73285">
        <ele>339.44073</ele>
        <time>2023-07-10T14:49:33.000Z</time>
      </trkpt>
      <trkpt lat="45.82144" lon="4.73285">
        <ele>338.03323</ele>
        <time>2023-07-10T14:49:34.000Z</time>
      </trkpt>
      <trkpt lat="45.82137" lon="4.73288">
        <ele>337.96216</ele>
        <time>2023-07-10T14:49:35.000Z</time>
      </trkpt>
      <trkpt lat="45.82131" lon="4.7329">
        <ele>337.91602</ele>
        <time>2023-07-10T14:49:36.000Z</time>
      </trkpt>
      <trkpt lat="45.82124" lon="4.73292">
        <ele>336.84766</ele>
        <time>2023-07-10T14:49:37.000Z</time>
      </trkpt>
      <trkpt lat="45.82117" lon="4.73293">
        <ele>335.65045</ele>
        <time>2023-07-10T14:49:38.000Z</time>
      </trkpt>
      <trkpt lat="45.82109" lon="4.73295">
        <ele>334.47406</ele>
        <time>2023-07-10T14:49:39.000Z</time>
      </trkpt>
      <trkpt lat="45.82101" lon="4.73297">
        <ele>333.30237</ele>
        <time>2023-07-10T14:49:40.000Z</time>
      </trkpt>
      <trkpt lat="45.82094" lon="4.73301">
        <ele>332.12698</ele>
        <time>2023-07-10T14:49:41.000Z</time>
      </trkpt>
      <trkpt lat="45.82086" lon="4.73306">
        <ele>331.85675</ele>
        <time>2023-07-10T14:49:42.000Z</time>
      </trkpt>
      <trkpt lat="45.8208" lon="4.73311">
        <ele>331.60522</ele>
        <time>2023-07-10T14:49:43.000Z</time>
      </trkpt>
      <trkpt lat="45.82073" lon="4.73316">
        <ele>331.32825</ele>
        <time>2023-07-10T14:49:44.000Z</time>
      </trkpt>
      <trkpt lat="45.82065" lon="4.73321">
        <ele>331.06573</ele>
        <time>2023-07-10T14:49:45.000Z</time>
      </trkpt>
      <trkpt lat="45.82058" lon="4.73325">
        <ele>330.79303</ele>
        <time>2023-07-10T14:49:46.000Z</time>
      </trkpt>
      <trkpt lat="45.82051" lon="4.7333">
        <ele>330.27631</ele>
        <time>2023-07-10T14:49:47.000Z</time>
      </trkpt>
      <trkpt lat="45.82043" lon="4.73335">
        <ele>329.78009</ele>
        <time>2023-07-10T14:49:48.000Z</time>
      </trkpt>
      <trkpt lat="45.82036" lon="4.73339">
        <ele>329.47281</ele>
        <time>2023-07-10T14:49:49.000Z</time>
      </trkpt>
      <trkpt lat="45.82028" lon="4.73345">
        <ele>329.16776</ele>
        <time>2023-07-10T14:49:50.000Z</time>
      </trkpt>
      <trkpt lat="45.82022" lon="4.73353">
        <ele>328.87686</ele>
        <time>2023-07-10T14:49:51.000Z</time>
      </trkpt>
      <trkpt lat="45.82015" lon="4.73361">
        <ele>328.60229</ele>
        <time>2023-07-10T14:49:52.000Z</time>
      </trkpt>
      <trkpt lat="45.82008" lon="4.73367">
        <ele>329.29324</ele>
        <time>2023-07-10T14:49:53.000Z</time>
      </trkpt>
      <trkpt lat="45.82" lon="4.73371">
        <ele>330.33441</ele>
        <time>2023-07-10T14:49:54.000Z</time>
      </trkpt>
      <trkpt lat="45.81993" lon="4.73376">
        <ele>330.09027</ele>
        <time>2023-07-10T14:49:55.000Z</time>
      </trkpt>
      <trkpt lat="45.81986" lon="4.73381">
        <ele>329.87488</ele>
        <time>2023-07-10T14:49:56.000Z</time>
      </trkpt>
      <trkpt lat="45.81978" lon="4.73385">
        <ele>330.50104</ele>
        <time>2023-07-10T14:49:57.000Z</time>
      </trkpt>
      <trkpt lat="45.81971" lon="4.7339">
        <ele>330.56558</ele>
        <time>2023-07-10T14:49:58.000Z</time>
      </trkpt>
      <trkpt lat="45.81965" lon="4.73396">
        <ele>330.69733</ele>
        <time>2023-07-10T14:49:59.000Z</time>
      </trkpt>
      <trkpt lat="45.81958" lon="4.73401">
        <ele>330.88306</ele>
        <time>2023-07-10T14:50:00.000Z</time>
      </trkpt>
      <trkpt lat="45.81952" lon="4.73407">
        <ele>331.06439</ele>
        <time>2023-07-10T14:50:01.000Z</time>
      </trkpt>
      <trkpt lat="45.81947" lon="4.73411">
        <ele>330.32547</ele>
        <time>2023-07-10T14:50:02.000Z</time>
      </trkpt>
      <trkpt lat="45.81942" lon="4.73417">
        <ele>329.59976</ele>
        <time>2023-07-10T14:50:03.000Z</time>
      </trkpt>
      <trkpt lat="45.81938" lon="4.73425">
        <ele>328.5419</ele>
        <time>2023-07-10T14:50:04.000Z</time>
      </trkpt>
      <trkpt lat="45.81937" lon="4.73433">
        <ele>328.41168</ele>
        <time>2023-07-10T14:50:05.000Z</time>
      </trkpt>
      <trkpt lat="45.81935" lon="4.7344">
        <ele>328.30417</ele>
        <time>2023-07-10T14:50:06.000Z</time>
      </trkpt>
      <trkpt lat="45.81935" lon="4.73449">
        <ele>328.48233</ele>
        <time>2023-07-10T14:50:07.000Z</time>
      </trkpt>
      <trkpt lat="45.81933" lon="4.73458">
        <ele>328.6106</ele>
        <time>2023-07-10T14:50:08.000Z</time>
      </trkpt>
      <trkpt lat="45.81933" lon="4.73467">
        <ele>328.25113</ele>
        <time>2023-07-10T14:50:09.000Z</time>
      </trkpt>
      <trkpt lat="45.81932" lon="4.73476">
        <ele>327.86438</ele>
        <time>2023-07-10T14:50:10.000Z</time>
      </trkpt>
      <trkpt lat="45.81931" lon="4.73484">
        <ele>327.44614</ele>
        <time>2023-07-10T14:50:11.000Z</time>
      </trkpt>
      <trkpt lat="45.8193" lon="4.73494">
        <ele>326.9964</ele>
        <time>2023-07-10T14:50:12.000Z</time>
      </trkpt>
      <trkpt lat="45.81928" lon="4.73503">
        <ele>326.53821</ele>
        <time>2023-07-10T14:50:13.000Z</time>
      </trkpt>
      <trkpt lat="45.81927" lon="4.73511">
        <ele>326.38342</ele>
        <time>2023-07-10T14:50:14.000Z</time>
      </trkpt>
      <trkpt lat="45.81924" lon="4.73517">
        <ele>326.21072</ele>
        <time>2023-07-10T14:50:15.000Z</time>
      </trkpt>
      <trkpt lat="45.81924" lon="4.73521">
        <ele>325.66547</ele>
        <time>2023-07-10T14:50:16.000Z</time>
      </trkpt>
      <trkpt lat="45.81925" lon="4.73526">
        <ele>325.20389</ele>
        <time>2023-07-10T14:53:27.000Z</time>
      </trkpt>
      <trkpt lat="45.81925" lon="4.7353">
        <ele>325.40039</ele>
        <time>2023-07-10T14:53:28.000Z</time>
      </trkpt>
      <trkpt lat="45.81925" lon="4.73534">
        <ele>325.4975</ele>
        <time>2023-07-10T14:53:29.000Z</time>
      </trkpt>
      <trkpt lat="45.81925" lon="4.73539">
        <ele>325.58087</ele>
        <time>2023-07-10T14:53:30.000Z</time>
      </trkpt>
      <trkpt lat="45.81925" lon="4.73542">
        <ele>325.90848</ele>
        <time>2023-07-10T14:53:31.000Z</time>
      </trkpt>
      <trkpt lat="45.81924" lon="4.73546">
        <ele>326.23398</ele>
        <time>2023-07-10T14:53:32.000Z</time>
      </trkpt>
      <trkpt lat="45.81924" lon="4.73551">
        <ele>326.48798</ele>
        <time>2023-07-10T14:53:33.000Z</time>
      </trkpt>
      <trkpt lat="45.81923" lon="4.73555">
        <ele>327.07019</ele>
        <time>2023-07-10T14:53:34.000Z</time>
      </trkpt>
      <trkpt lat="45.81922" lon="4.73559">
        <ele>326.65744</ele>
        <time>2023-07-10T14:53:35.000Z</time>
      </trkpt>
      <trkpt lat="45.81921" lon="4.73564">
        <ele>326.21774</ele>
        <time>2023-07-10T14:53:36.000Z</time>
      </trkpt>
      <trkpt lat="45.81919" lon="4.73574">
        <ele>325.759</ele>
        <time>2023-07-10T14:53:37.000Z</time>
      </trkpt>
      <trkpt lat="45.81917" lon="4.73584">
        <ele>325.3847</ele>
        <time>2023-07-10T14:53:38.000Z</time>
      </trkpt>
      <trkpt lat="45.81916" lon="4.73593">
        <ele>325.28693</ele>
        <time>2023-07-10T14:53:39.000Z</time>
      </trkpt>
      <trkpt lat="45.81915" lon="4.73603">
        <ele>325.19244</ele>
        <time>2023-07-10T14:53:40.000Z</time>
      </trkpt>
      <trkpt lat="45.81914" lon="4.73613">
        <ele>325.14185</ele>
        <time>2023-07-10T14:53:41.000Z</time>
      </trkpt>
      <trkpt lat="45.81913" lon="4.73623">
        <ele>325.14053</ele>
        <time>2023-07-10T14:53:42.000Z</time>
      </trkpt>
      <trkpt lat="45.81911" lon="4.73632">
        <ele>325.17996</ele>
        <time>2023-07-10T14:53:43.000Z</time>
      </trkpt>
      <trkpt lat="45.8191" lon="4.73641">
        <ele>324.91037</ele>
        <time>2023-07-10T14:53:44.000Z</time>
      </trkpt>
      <trkpt lat="45.81909" lon="4.73648">
        <ele>324.63989</ele>
        <time>2023-07-10T14:53:45.000Z</time>
      </trkpt>
      <trkpt lat="45.81908" lon="4.73654">
        <ele>324.73239</ele>
        <time>2023-07-10T14:53:46.000Z</time>
      </trkpt>
      <trkpt lat="45.81906" lon="4.73661">
        <ele>324.76273</ele>
        <time>2023-07-10T14:53:47.000Z</time>
      </trkpt>
      <trkpt lat="45.81903" lon="4.73666">
        <ele>324.81665</ele>
        <time>2023-07-10T14:53:48.000Z</time>
      </trkpt>
      <trkpt lat="45.81901" lon="4.7367">
        <ele>324.90756</ele>
        <time>2023-07-10T14:53:49.000Z</time>
      </trkpt>
      <trkpt lat="45.81899" lon="4.73673">
        <ele>324.9523</ele>
        <time>2023-07-10T14:53:50.000Z</time>
      </trkpt>
      <trkpt lat="45.81896" lon="4.73674">
        <ele>324.77484</ele>
        <time>2023-07-10T14:53:51.000Z</time>
      </trkpt>
      <trkpt lat="45.81894" lon="4.73676">
        <ele>324.5744</ele>
        <time>2023-07-10T14:53:52.000Z</time>
      </trkpt>
      <trkpt lat="45.81891" lon="4.73678">
        <ele>324.42032</ele>
        <time>2023-07-10T14:53:53.000Z</time>
      </trkpt>
      <trkpt lat="45.81888" lon="4.73681">
        <ele>324.24902</ele>
        <time>2023-07-10T14:53:54.000Z</time>
      </trkpt>
      <trkpt lat="45.81886" lon="4.73682">
        <ele>324.12503</ele>
        <time>2023-07-10T14:53:55.000Z</time>
      </trkpt>
      <trkpt lat="45.81883" lon="4.73685">
        <ele>324.01166</ele>
        <time>2023-07-10T14:53:56.000Z</time>
      </trkpt>
      <trkpt lat="45.8188" lon="4.73688">
        <ele>323.94031</ele>
        <time>2023-07-10T14:53:57.000Z</time>
      </trkpt>
      <trkpt lat="45.81878" lon="4.73691">
        <ele>323.83408</ele>
        <time>2023-07-10T14:53:58.000Z</time>
      </trkpt>
      <trkpt lat="45.81876" lon="4.73693">
        <ele>323.7764</ele>
        <time>2023-07-10T14:53:59.000Z</time>
      </trkpt>
      <trkpt lat="45.81874" lon="4.73695">
        <ele>323.72134</ele>
        <time>2023-07-10T14:54:00.000Z</time>
      </trkpt>
      <trkpt lat="45.81873" lon="4.73698">
        <ele>323.66214</ele>
        <time>2023-07-10T14:54:01.000Z</time>
      </trkpt>
      <trkpt lat="45.81872" lon="4.73701">
        <ele>323.621</ele>
        <time>2023-07-10T14:54:02.000Z</time>
      </trkpt>
      <trkpt lat="45.81871" lon="4.73705">
        <ele>323.58722</ele>
        <time>2023-07-10T14:54:03.000Z</time>
      </trkpt>
      <trkpt lat="45.8187" lon="4.73708">
        <ele>323.63284</ele>
        <time>2023-07-10T14:54:04.000Z</time>
      </trkpt>
      <trkpt lat="45.8187" lon="4.73711">
        <ele>323.74799</ele>
        <time>2023-07-10T14:54:05.000Z</time>
      </trkpt>
      <trkpt lat="45.8187" lon="4.73716">
        <ele>323.85287</ele>
        <time>2023-07-10T14:54:06.000Z</time>
      </trkpt>
      <trkpt lat="45.81871" lon="4.7372">
        <ele>323.9718</ele>
        <time>2023-07-10T14:54:07.000Z</time>
      </trkpt>
      <trkpt lat="45.81873" lon="4.73723">
        <ele>324.10419</ele>
        <time>2023-07-10T14:54:08.000Z</time>
      </trkpt>
      <trkpt lat="45.81874" lon="4.73727">
        <ele>324.27704</ele>
        <time>2023-07-10T14:54:09.000Z</time>
      </trkpt>
      <trkpt lat="45.81876" lon="4.7373">
        <ele>324.50308</ele>
        <time>2023-07-10T14:54:10.000Z</time>
      </trkpt>
      <trkpt lat="45.81877" lon="4.73733">
        <ele>324.62238</ele>
        <time>2023-07-10T14:54:11.000Z</time>
      </trkpt>
      <trkpt lat="45.81877" lon="4.73736">
        <ele>324.82648</ele>
        <time>2023-07-10T14:54:12.000Z</time>
      </trkpt>
      <trkpt lat="45.81878" lon="4.73739">
        <ele>325.01358</ele>
        <time>2023-07-10T14:54:13.000Z</time>
      </trkpt>
      <trkpt lat="45.81879" lon="4.73743">
        <ele>325.23099</ele>
        <time>2023-07-10T14:54:14.000Z</time>
      </trkpt>
      <trkpt lat="45.8188" lon="4.73747">
        <ele>325.48019</ele>
        <time>2023-07-10T14:54:15.000Z</time>
      </trkpt>
      <trkpt lat="45.8188" lon="4.7375">
        <ele>325.70026</ele>
        <time>2023-07-10T14:54:16.000Z</time>
      </trkpt>
      <trkpt lat="45.81881" lon="4.73755">
        <ele>325.88925</ele>
        <time>2023-07-10T14:54:18.000Z</time>
      </trkpt>
      <trkpt lat="45.81881" lon="4.73758">
        <ele>326.07648</ele>
        <time>2023-07-10T14:54:21.000Z</time>
      </trkpt>
      <trkpt lat="45.81882" lon="4.73761">
        <ele>326.28183</ele>
        <time>2023-07-10T14:54:28.000Z</time>
      </trkpt>
      <trkpt lat="45.81883" lon="4.73764">
        <ele>326.43402</ele>
        <time>2023-07-10T14:54:46.000Z</time>
      </trkpt>
      <trkpt lat="45.81884" lon="4.73766">
        <ele>326.59222</ele>
        <time>2023-07-10T14:54:47.000Z</time>
      </trkpt>
      <trkpt lat="45.81886" lon="4.7377">
        <ele>326.75851</ele>
        <time>2023-07-10T14:54:49.000Z</time>
      </trkpt>
      <trkpt lat="45.81887" lon="4.73773">
        <ele>326.92871</ele>
        <time>2023-07-10T14:54:50.000Z</time>
      </trkpt>
      <trkpt lat="45.81888" lon="4.73776">
        <ele>327.05133</ele>
        <time>2023-07-10T14:54:51.000Z</time>
      </trkpt>
      <trkpt lat="45.81888" lon="4.7378">
        <ele>327.12073</ele>
        <time>2023-07-10T14:54:52.000Z</time>
      </trkpt>
      <trkpt lat="45.81889" lon="4.73784">
        <ele>327.17862</ele>
        <time>2023-07-10T14:54:53.000Z</time>
      </trkpt>
      <trkpt lat="45.8189" lon="4.73788">
        <ele>327.27106</ele>
        <time>2023-07-10T14:54:54.000Z</time>
      </trkpt>
      <trkpt lat="45.8189" lon="4.73793">
        <ele>327.39667</ele>
        <time>2023-07-10T14:54:55.000Z</time>
      </trkpt>
      <trkpt lat="45.81889" lon="4.73797">
        <ele>327.48138</ele>
        <time>2023-07-10T14:54:56.000Z</time>
      </trkpt>
      <trkpt lat="45.81886" lon="4.73799">
        <ele>327.52496</ele>
        <time>2023-07-10T14:54:57.000Z</time>
      </trkpt>
      <trkpt lat="45.81883" lon="4.73801">
        <ele>327.57413</ele>
        <time>2023-07-10T14:54:58.000Z</time>
      </trkpt>
      <trkpt lat="45.81879" lon="4.73803">
        <ele>327.62283</ele>
        <time>2023-07-10T14:54:59.000Z</time>
      </trkpt>
      <trkpt lat="45.81875" lon="4.73804">
        <ele>327.70749</ele>
        <time>2023-07-10T14:55:00.000Z</time>
      </trkpt>
      <trkpt lat="45.81872" lon="4.73805">
        <ele>327.79816</ele>
        <time>2023-07-10T14:55:01.000Z</time>
      </trkpt>
      <trkpt lat="45.81868" lon="4.73806">
        <ele>327.85861</ele>
        <time>2023-07-10T14:55:02.000Z</time>
      </trkpt>
      <trkpt lat="45.81864" lon="4.73807">
        <ele>327.98004</ele>
        <time>2023-07-10T14:55:03.000Z</time>
      </trkpt>
      <trkpt lat="45.8186" lon="4.73809">
        <ele>328.1153</ele>
        <time>2023-07-10T14:55:04.000Z</time>
      </trkpt>
      <trkpt lat="45.81856" lon="4.73811">
        <ele>328.27094</ele>
        <time>2023-07-10T14:55:05.000Z</time>
      </trkpt>
      <trkpt lat="45.81852" lon="4.73813">
        <ele>328.3519</ele>
        <time>2023-07-10T14:55:06.000Z</time>
      </trkpt>
      <trkpt lat="45.81849" lon="4.73814">
        <ele>328.52881</ele>
        <time>2023-07-10T14:55:07.000Z</time>
      </trkpt>
      <trkpt lat="45.81846" lon="4.73815">
        <ele>328.6301</ele>
        <time>2023-07-10T14:55:08.000Z</time>
      </trkpt>
      <trkpt lat="45.81843" lon="4.73816">
        <ele>328.71344</ele>
        <time>2023-07-10T14:55:09.000Z</time>
      </trkpt>
      <trkpt lat="45.8184" lon="4.73817">
        <ele>328.79236</ele>
        <time>2023-07-10T14:55:10.000Z</time>
      </trkpt>
      <trkpt lat="45.81837" lon="4.73818">
        <ele>328.86499</ele>
        <time>2023-07-10T14:55:11.000Z</time>
      </trkpt>
      <trkpt lat="45.81834" lon="4.73819">
        <ele>328.89966</ele>
        <time>2023-07-10T14:55:12.000Z</time>
      </trkpt>
      <trkpt lat="45.81831" lon="4.73819">
        <ele>328.92267</ele>
        <time>2023-07-10T14:55:13.000Z</time>
      </trkpt>
      <trkpt lat="45.81829" lon="4.73821">
        <ele>328.8949</ele>
        <time>2023-07-10T14:55:14.000Z</time>
      </trkpt>
      <trkpt lat="45.81825" lon="4.73822">
        <ele>328.84406</ele>
        <time>2023-07-10T14:55:15.000Z</time>
      </trkpt>
      <trkpt lat="45.81821" lon="4.73823">
        <ele>328.78937</ele>
        <time>2023-07-10T14:55:16.000Z</time>
      </trkpt>
      <trkpt lat="45.81818" lon="4.73824">
        <ele>328.73734</ele>
        <time>2023-07-10T14:55:17.000Z</time>
      </trkpt>
      <trkpt lat="45.81814" lon="4.73825">
        <ele>328.77133</ele>
        <time>2023-07-10T14:55:18.000Z</time>
      </trkpt>
      <trkpt lat="45.81811" lon="4.73826">
        <ele>328.74347</ele>
        <time>2023-07-10T14:55:19.000Z</time>
      </trkpt>
      <trkpt lat="45.81808" lon="4.73826">
        <ele>328.73022</ele>
        <time>2023-07-10T14:55:20.000Z</time>
      </trkpt>
      <trkpt lat="45.81805" lon="4.73828">
        <ele>328.72275</ele>
        <time>2023-07-10T14:55:21.000Z</time>
      </trkpt>
      <trkpt lat="45.81801" lon="4.7383">
        <ele>328.7377</ele>
        <time>2023-07-10T14:55:22.000Z</time>
      </trkpt>
      <trkpt lat="45.81797" lon="4.73831">
        <ele>328.75537</ele>
        <time>2023-07-10T14:55:23.000Z</time>
      </trkpt>
      <trkpt lat="45.81794" lon="4.73833">
        <ele>328.73492</ele>
        <time>2023-07-10T14:55:24.000Z</time>
      </trkpt>
      <trkpt lat="45.8179" lon="4.73835">
        <ele>328.63028</ele>
        <time>2023-07-10T14:55:25.000Z</time>
      </trkpt>
      <trkpt lat="45.81787" lon="4.73837">
        <ele>328.43915</ele>
        <time>2023-07-10T14:55:26.000Z</time>
      </trkpt>
      <trkpt lat="45.81784" lon="4.73839">
        <ele>328.20331</ele>
        <time>2023-07-10T14:55:27.000Z</time>
      </trkpt>
      <trkpt lat="45.8178" lon="4.7384">
        <ele>327.89163</ele>
        <time>2023-07-10T14:55:28.000Z</time>
      </trkpt>
      <trkpt lat="45.81777" lon="4.73839">
        <ele>327.59341</ele>
        <time>2023-07-10T14:55:29.000Z</time>
      </trkpt>
      <trkpt lat="45.81776" lon="4.73839">
        <ele>327.27603</ele>
        <time>2023-07-10T14:55:30.000Z</time>
      </trkpt>
      <trkpt lat="45.81772" lon="4.73837">
        <ele>326.95407</ele>
        <time>2023-07-10T14:55:32.000Z</time>
      </trkpt>
      <trkpt lat="45.8177" lon="4.73835">
        <ele>326.72809</ele>
        <time>2023-07-10T14:55:33.000Z</time>
      </trkpt>
      <trkpt lat="45.81767" lon="4.73831">
        <ele>326.57788</ele>
        <time>2023-07-10T14:55:34.000Z</time>
      </trkpt>
      <trkpt lat="45.81764" lon="4.73823">
        <ele>326.39828</ele>
        <time>2023-07-10T14:55:35.000Z</time>
      </trkpt>
      <trkpt lat="45.81761" lon="4.73814">
        <ele>326.23169</ele>
        <time>2023-07-10T14:55:36.000Z</time>
      </trkpt>
      <trkpt lat="45.81757" lon="4.73806">
        <ele>326.04535</ele>
        <time>2023-07-10T14:55:37.000Z</time>
      </trkpt>
      <trkpt lat="45.81753" lon="4.73798">
        <ele>325.89215</ele>
        <time>2023-07-10T14:55:38.000Z</time>
      </trkpt>
      <trkpt lat="45.81748" lon="4.73788">
        <ele>325.75525</ele>
        <time>2023-07-10T14:55:39.000Z</time>
      </trkpt>
      <trkpt lat="45.81745" lon="4.73777">
        <ele>325.64056</ele>
        <time>2023-07-10T14:55:40.000Z</time>
      </trkpt>
      <trkpt lat="45.8174" lon="4.73763">
        <ele>325.5405</ele>
        <time>2023-07-10T14:55:41.000Z</time>
      </trkpt>
      <trkpt lat="45.81737" lon="4.73748">
        <ele>325.43323</ele>
        <time>2023-07-10T14:55:42.000Z</time>
      </trkpt>
      <trkpt lat="45.81734" lon="4.73734">
        <ele>325.2897</ele>
        <time>2023-07-10T14:55:43.000Z</time>
      </trkpt>
      <trkpt lat="45.81732" lon="4.73718">
        <ele>325.21762</ele>
        <time>2023-07-10T14:55:44.000Z</time>
      </trkpt>
      <trkpt lat="45.81727" lon="4.73705">
        <ele>325.15936</ele>
        <time>2023-07-10T14:55:45.000Z</time>
      </trkpt>
      <trkpt lat="45.81724" lon="4.73691">
        <ele>325.15503</ele>
        <time>2023-07-10T14:55:46.000Z</time>
      </trkpt>
      <trkpt lat="45.8172" lon="4.73679">
        <ele>325.28052</ele>
        <time>2023-07-10T14:55:47.000Z</time>
      </trkpt>
      <trkpt lat="45.81715" lon="4.73668">
        <ele>325.3833</ele>
        <time>2023-07-10T14:55:48.000Z</time>
      </trkpt>
      <trkpt lat="45.81708" lon="4.73658">
        <ele>325.62555</ele>
        <time>2023-07-10T14:55:49.000Z</time>
      </trkpt>
      <trkpt lat="45.81703" lon="4.73648">
        <ele>325.79486</ele>
        <time>2023-07-10T14:55:50.000Z</time>
      </trkpt>
      <trkpt lat="45.81698" lon="4.73641">
        <ele>325.76633</ele>
        <time>2023-07-10T14:55:51.000Z</time>
      </trkpt>
      <trkpt lat="45.81694" lon="4.73637">
        <ele>325.72702</ele>
        <time>2023-07-10T14:55:52.000Z</time>
      </trkpt>
      <trkpt lat="45.81689" lon="4.73633">
        <ele>325.65457</ele>
        <time>2023-07-10T14:55:53.000Z</time>
      </trkpt>
      <trkpt lat="45.81686" lon="4.73629">
        <ele>325.48773</ele>
        <time>2023-07-10T14:55:54.000Z</time>
      </trkpt>
      <trkpt lat="45.81684" lon="4.73625">
        <ele>325.46149</ele>
        <time>2023-07-10T14:55:55.000Z</time>
      </trkpt>
      <trkpt lat="45.8168" lon="4.73622">
        <ele>325.40613</ele>
        <time>2023-07-10T14:55:56.000Z</time>
      </trkpt>
      <trkpt lat="45.81676" lon="4.73617">
        <ele>325.35992</ele>
        <time>2023-07-10T14:55:57.000Z</time>
      </trkpt>
      <trkpt lat="45.81673" lon="4.73612">
        <ele>325.27142</ele>
        <time>2023-07-10T14:55:58.000Z</time>
      </trkpt>
      <trkpt lat="45.81669" lon="4.73608">
        <ele>325.16138</ele>
        <time>2023-07-10T14:55:59.000Z</time>
      </trkpt>
      <trkpt lat="45.81665" lon="4.73604">
        <ele>325.103</ele>
        <time>2023-07-10T14:56:00.000Z</time>
      </trkpt>
      <trkpt lat="45.81661" lon="4.736">
        <ele>325.02264</ele>
        <time>2023-07-10T14:56:01.000Z</time>
      </trkpt>
      <trkpt lat="45.81658" lon="4.73597">
        <ele>324.91776</ele>
        <time>2023-07-10T14:56:02.000Z</time>
      </trkpt>
      <trkpt lat="45.81655" lon="4.73593">
        <ele>324.81915</ele>
        <time>2023-07-10T14:56:03.000Z</time>
      </trkpt>
      <trkpt lat="45.81652" lon="4.73589">
        <ele>324.68735</ele>
        <time>2023-07-10T14:56:04.000Z</time>
      </trkpt>
      <trkpt lat="45.81647" lon="4.73583">
        <ele>324.54877</ele>
        <time>2023-07-10T14:56:05.000Z</time>
      </trkpt>
      <trkpt lat="45.81644" lon="4.73579">
        <ele>324.22162</ele>
        <time>2023-07-10T14:56:06.000Z</time>
      </trkpt>
      <trkpt lat="45.81641" lon="4.73577">
        <ele>323.94302</ele>
        <time>2023-07-10T14:56:07.000Z</time>
      </trkpt>
      <trkpt lat="45.81637" lon="4.73574">
        <ele>323.72946</ele>
        <time>2023-07-10T14:56:08.000Z</time>
      </trkpt>
      <trkpt lat="45.81634" lon="4.73569">
        <ele>323.55209</ele>
        <time>2023-07-10T14:56:09.000Z</time>
      </trkpt>
      <trkpt lat="45.8163" lon="4.73565">
        <ele>323.42136</ele>
        <time>2023-07-10T14:56:10.000Z</time>
      </trkpt>
      <trkpt lat="45.81627" lon="4.7356">
        <ele>323.53125</ele>
        <time>2023-07-10T14:56:11.000Z</time>
      </trkpt>
      <trkpt lat="45.81624" lon="4.73556">
        <ele>323.65033</ele>
        <time>2023-07-10T14:56:12.000Z</time>
      </trkpt>
      <trkpt lat="45.81621" lon="4.73553">
        <ele>323.7915</ele>
        <time>2023-07-10T14:56:13.000Z</time>
      </trkpt>
      <trkpt lat="45.81617" lon="4.7355">
        <ele>323.94934</ele>
        <time>2023-07-10T14:56:14.000Z</time>
      </trkpt>
      <trkpt lat="45.81613" lon="4.73545">
        <ele>324.04523</ele>
        <time>2023-07-10T14:56:15.000Z</time>
      </trkpt>
      <trkpt lat="45.8161" lon="4.73541">
        <ele>324.13226</ele>
        <time>2023-07-10T14:56:16.000Z</time>
      </trkpt>
      <trkpt lat="45.81606" lon="4.73539">
        <ele>324.24075</ele>
        <time>2023-07-10T14:56:17.000Z</time>
      </trkpt>
      <trkpt lat="45.81604" lon="4.73535">
        <ele>324.41861</ele>
        <time>2023-07-10T14:56:18.000Z</time>
      </trkpt>
      <trkpt lat="45.81601" lon="4.7353">
        <ele>324.50806</ele>
        <time>2023-07-10T14:56:19.000Z</time>
      </trkpt>
      <trkpt lat="45.81598" lon="4.73526">
        <ele>324.60638</ele>
        <time>2023-07-10T14:56:20.000Z</time>
      </trkpt>
      <trkpt lat="45.81595" lon="4.73523">
        <ele>324.72983</ele>
        <time>2023-07-10T14:56:21.000Z</time>
      </trkpt>
      <trkpt lat="45.81592" lon="4.7352">
        <ele>324.89417</ele>
        <time>2023-07-10T14:56:22.000Z</time>
      </trkpt>
      <trkpt lat="45.81588" lon="4.73516">
        <ele>325.11615</ele>
        <time>2023-07-10T14:56:23.000Z</time>
      </trkpt>
      <trkpt lat="45.81585" lon="4.73512">
        <ele>325.27496</ele>
        <time>2023-07-10T14:56:24.000Z</time>
      </trkpt>
      <trkpt lat="45.81582" lon="4.73509">
        <ele>325.42035</ele>
        <time>2023-07-10T14:56:25.000Z</time>
      </trkpt>
      <trkpt lat="45.81579" lon="4.73505">
        <ele>325.73413</ele>
        <time>2023-07-10T14:56:26.000Z</time>
      </trkpt>
      <trkpt lat="45.81576" lon="4.73502">
        <ele>326.00681</ele>
        <time>2023-07-10T14:56:27.000Z</time>
      </trkpt>
      <trkpt lat="45.81573" lon="4.73498">
        <ele>326.26227</ele>
        <time>2023-07-10T14:56:28.000Z</time>
      </trkpt>
      <trkpt lat="45.8157" lon="4.73497">
        <ele>326.46872</ele>
        <time>2023-07-10T14:56:29.000Z</time>
      </trkpt>
      <trkpt lat="45.81567" lon="4.73499">
        <ele>326.70087</ele>
        <time>2023-07-10T14:56:30.000Z</time>
      </trkpt>
      <trkpt lat="45.81565" lon="4.73501">
        <ele>326.89145</ele>
        <time>2023-07-10T14:56:31.000Z</time>
      </trkpt>
      <trkpt lat="45.81564" lon="4.73505">
        <ele>327.06967</ele>
        <time>2023-07-10T14:56:32.000Z</time>
      </trkpt>
      <trkpt lat="45.81562" lon="4.7351">
        <ele>327.19672</ele>
        <time>2023-07-10T14:56:33.000Z</time>
      </trkpt>
      <trkpt lat="45.81561" lon="4.73514">
        <ele>327.33319</ele>
        <time>2023-07-10T14:56:34.000Z</time>
      </trkpt>
      <trkpt lat="45.81559" lon="4.73517">
        <ele>327.44162</ele>
        <time>2023-07-10T14:56:35.000Z</time>
      </trkpt>
      <trkpt lat="45.81556" lon="4.73522">
        <ele>327.49255</ele>
        <time>2023-07-10T14:56:36.000Z</time>
      </trkpt>
      <trkpt lat="45.81554" lon="4.73527">
        <ele>327.59131</ele>
        <time>2023-07-10T14:56:37.000Z</time>
      </trkpt>
      <trkpt lat="45.81553" lon="4.73532">
        <ele>327.60114</ele>
        <time>2023-07-10T14:56:38.000Z</time>
      </trkpt>
      <trkpt lat="45.81551" lon="4.73538">
        <ele>327.75671</ele>
        <time>2023-07-10T14:56:39.000Z</time>
      </trkpt>
      <trkpt lat="45.81549" lon="4.73546">
        <ele>327.84555</ele>
        <time>2023-07-10T14:56:40.000Z</time>
      </trkpt>
      <trkpt lat="45.8155" lon="4.73549">
        <ele>327.96335</ele>
        <time>2023-07-10T14:56:41.000Z</time>
      </trkpt>
      <trkpt lat="45.81548" lon="4.73553">
        <ele>328.0451</ele>
        <time>2023-07-10T14:56:42.000Z</time>
      </trkpt>
      <trkpt lat="45.81547" lon="4.73557">
        <ele>328.09271</ele>
        <time>2023-07-10T14:56:43.000Z</time>
      </trkpt>
      <trkpt lat="45.81548" lon="4.7356">
        <ele>328.1658</ele>
        <time>2023-07-10T14:56:45.000Z</time>
      </trkpt>
      <trkpt lat="45.81547" lon="4.73563">
        <ele>328.09753</ele>
        <time>2023-07-10T14:56:51.000Z</time>
      </trkpt>
      <trkpt lat="45.81547" lon="4.73566">
        <ele>327.90079</ele>
        <time>2023-07-10T14:59:04.000Z</time>
      </trkpt>
      <trkpt lat="45.81547" lon="4.7357">
        <ele>327.69659</ele>
        <time>2023-07-10T14:59:06.000Z</time>
      </trkpt>
      <trkpt lat="45.81547" lon="4.73575">
        <ele>327.52649</ele>
        <time>2023-07-10T14:59:08.000Z</time>
      </trkpt>
      <trkpt lat="45.81546" lon="4.73578">
        <ele>327.39441</ele>
        <time>2023-07-10T14:59:09.000Z</time>
      </trkpt>
      <trkpt lat="45.81546" lon="4.73581">
        <ele>327.21921</ele>
        <time>2023-07-10T14:59:10.000Z</time>
      </trkpt>
      <trkpt lat="45.81545" lon="4.73584">
        <ele>327.07101</ele>
        <time>2023-07-10T14:59:11.000Z</time>
      </trkpt>
      <trkpt lat="45.81544" lon="4.73587">
        <ele>327.05176</ele>
        <time>2023-07-10T14:59:12.000Z</time>
      </trkpt>
      <trkpt lat="45.81542" lon="4.73591">
        <ele>326.99091</ele>
        <time>2023-07-10T14:59:13.000Z</time>
      </trkpt>
      <trkpt lat="45.81541" lon="4.73594">
        <ele>326.97076</ele>
        <time>2023-07-10T14:59:14.000Z</time>
      </trkpt>
      <trkpt lat="45.8154" lon="4.73598">
        <ele>326.89117</ele>
        <time>2023-07-10T14:59:15.000Z</time>
      </trkpt>
      <trkpt lat="45.81538" lon="4.73602">
        <ele>326.95752</ele>
        <time>2023-07-10T14:59:16.000Z</time>
      </trkpt>
      <trkpt lat="45.81537" lon="4.73607">
        <ele>326.95636</ele>
        <time>2023-07-10T14:59:17.000Z</time>
      </trkpt>
      <trkpt lat="45.81535" lon="4.73611">
        <ele>327.09314</ele>
        <time>2023-07-10T14:59:18.000Z</time>
      </trkpt>
      <trkpt lat="45.81533" lon="4.73616">
        <ele>327.14902</ele>
        <time>2023-07-10T14:59:19.000Z</time>
      </trkpt>
      <trkpt lat="45.81531" lon="4.73621">
        <ele>327.03088</ele>
        <time>2023-07-10T14:59:20.000Z</time>
      </trkpt>
      <trkpt lat="45.8153" lon="4.73626">
        <ele>326.905</ele>
        <time>2023-07-10T14:59:21.000Z</time>
      </trkpt>
      <trkpt lat="45.81528" lon="4.73631">
        <ele>326.78989</ele>
        <time>2023-07-10T14:59:22.000Z</time>
      </trkpt>
      <trkpt lat="45.81527" lon="4.73637">
        <ele>326.69772</ele>
        <time>2023-07-10T14:59:23.000Z</time>
      </trkpt>
      <trkpt lat="45.81525" lon="4.73646">
        <ele>326.53778</ele>
        <time>2023-07-10T14:59:24.000Z</time>
      </trkpt>
      <trkpt lat="45.81522" lon="4.73652">
        <ele>326.49228</ele>
        <time>2023-07-10T14:59:25.000Z</time>
      </trkpt>
      <trkpt lat="45.8152" lon="4.73657">
        <ele>326.59018</ele>
        <time>2023-07-10T14:59:26.000Z</time>
      </trkpt>
      <trkpt lat="45.81517" lon="4.73664">
        <ele>326.65933</ele>
        <time>2023-07-10T14:59:27.000Z</time>
      </trkpt>
      <trkpt lat="45.81514" lon="4.73671">
        <ele>326.73865</ele>
        <time>2023-07-10T14:59:28.000Z</time>
      </trkpt>
      <trkpt lat="45.81514" lon="4.73675">
        <ele>326.74533</ele>
        <time>2023-07-10T14:59:29.000Z</time>
      </trkpt>
      <trkpt lat="45.81514" lon="4.73681">
        <ele>326.76904</ele>
        <time>2023-07-10T14:59:30.000Z</time>
      </trkpt>
      <trkpt lat="45.81512" lon="4.73689">
        <ele>326.88565</ele>
        <time>2023-07-10T14:59:31.000Z</time>
      </trkpt>
      <trkpt lat="45.8151" lon="4.73696">
        <ele>326.86603</ele>
        <time>2023-07-10T14:59:32.000Z</time>
      </trkpt>
      <trkpt lat="45.81508" lon="4.73703">
        <ele>326.98044</ele>
        <time>2023-07-10T14:59:33.000Z</time>
      </trkpt>
      <trkpt lat="45.81504" lon="4.73711">
        <ele>327.1514</ele>
        <time>2023-07-10T14:59:34.000Z</time>
      </trkpt>
      <trkpt lat="45.81502" lon="4.73718">
        <ele>327.34967</ele>
        <time>2023-07-10T14:59:35.000Z</time>
      </trkpt>
      <trkpt lat="45.815" lon="4.73727">
        <ele>327.30237</ele>
        <time>2023-07-10T14:59:36.000Z</time>
      </trkpt>
      <trkpt lat="45.81499" lon="4.73734">
        <ele>327.30902</ele>
        <time>2023-07-10T14:59:37.000Z</time>
      </trkpt>
      <trkpt lat="45.81495" lon="4.73743">
        <ele>327.25424</ele>
        <time>2023-07-10T14:59:38.000Z</time>
      </trkpt>
      <trkpt lat="45.8149" lon="4.73751">
        <ele>327.15317</ele>
        <time>2023-07-10T14:59:39.000Z</time>
      </trkpt>
      <trkpt lat="45.81487" lon="4.73758">
        <ele>327.2059</ele>
        <time>2023-07-10T14:59:40.000Z</time>
      </trkpt>
      <trkpt lat="45.81484" lon="4.73765">
        <ele>327.21753</ele>
        <time>2023-07-10T14:59:41.000Z</time>
      </trkpt>
      <trkpt lat="45.81481" lon="4.73772">
        <ele>327.20215</ele>
        <time>2023-07-10T14:59:42.000Z</time>
      </trkpt>
      <trkpt lat="45.8148" lon="4.73779">
        <ele>327.1937</ele>
        <time>2023-07-10T14:59:43.000Z</time>
      </trkpt>
      <trkpt lat="45.81481" lon="4.73786">
        <ele>327.16461</ele>
        <time>2023-07-10T14:59:44.000Z</time>
      </trkpt>
      <trkpt lat="45.81483" lon="4.73793">
        <ele>327.19043</ele>
        <time>2023-07-10T14:59:45.000Z</time>
      </trkpt>
      <trkpt lat="45.81484" lon="4.738">
        <ele>327.20935</ele>
        <time>2023-07-10T14:59:46.000Z</time>
      </trkpt>
      <trkpt lat="45.81484" lon="4.73806">
        <ele>327.21033</ele>
        <time>2023-07-10T14:59:47.000Z</time>
      </trkpt>
      <trkpt lat="45.81484" lon="4.73813">
        <ele>327.19843</ele>
        <time>2023-07-10T14:59:48.000Z</time>
      </trkpt>
      <trkpt lat="45.81486" lon="4.73816">
        <ele>327.22189</ele>
        <time>2023-07-10T14:59:49.000Z</time>
      </trkpt>
      <trkpt lat="45.81487" lon="4.7382">
        <ele>327.25519</ele>
        <time>2023-07-10T14:59:50.000Z</time>
      </trkpt>
      <trkpt lat="45.81488" lon="4.73825">
        <ele>327.21738</ele>
        <time>2023-07-10T14:59:51.000Z</time>
      </trkpt>
      <trkpt lat="45.81488" lon="4.73831">
        <ele>327.27982</ele>
        <time>2023-07-10T14:59:52.000Z</time>
      </trkpt>
      <trkpt lat="45.81489" lon="4.73836">
        <ele>327.2919</ele>
        <time>2023-07-10T14:59:53.000Z</time>
      </trkpt>
      <trkpt lat="45.81489" lon="4.73842">
        <ele>326.96881</ele>
        <time>2023-07-10T14:59:54.000Z</time>
      </trkpt>
      <trkpt lat="45.8149" lon="4.73846">
        <ele>326.74551</ele>
        <time>2023-07-10T14:59:55.000Z</time>
      </trkpt>
      <trkpt lat="45.8149" lon="4.73851">
        <ele>326.76581</ele>
        <time>2023-07-10T14:59:56.000Z</time>
      </trkpt>
      <trkpt lat="45.81491" lon="4.73856">
        <ele>326.74884</ele>
        <time>2023-07-10T14:59:57.000Z</time>
      </trkpt>
      <trkpt lat="45.81491" lon="4.73858">
        <ele>326.66275</ele>
        <time>2023-07-10T14:59:58.000Z</time>
      </trkpt>
      <trkpt lat="45.81491" lon="4.73861">
        <ele>326.64688</ele>
        <time>2023-07-10T14:59:59.000Z</time>
      </trkpt>
      <trkpt lat="45.81492" lon="4.73866">
        <ele>326.64539</ele>
        <time>2023-07-10T15:00:00.000Z</time>
      </trkpt>
      <trkpt lat="45.81492" lon="4.73871">
        <ele>326.60928</ele>
        <time>2023-07-10T15:00:01.000Z</time>
      </trkpt>
      <trkpt lat="45.81492" lon="4.73877">
        <ele>326.66034</ele>
        <time>2023-07-10T15:00:02.000Z</time>
      </trkpt>
      <trkpt lat="45.81491" lon="4.73884">
        <ele>326.68213</ele>
        <time>2023-07-10T15:00:03.000Z</time>
      </trkpt>
      <trkpt lat="45.8149" lon="4.73895">
        <ele>326.75916</ele>
        <time>2023-07-10T15:00:04.000Z</time>
      </trkpt>
      <trkpt lat="45.81488" lon="4.73903">
        <ele>326.81705</ele>
        <time>2023-07-10T15:00:05.000Z</time>
      </trkpt>
      <trkpt lat="45.81487" lon="4.73911">
        <ele>326.9339</ele>
        <time>2023-07-10T15:00:06.000Z</time>
      </trkpt>
      <trkpt lat="45.81487" lon="4.7392">
        <ele>327.06476</ele>
        <time>2023-07-10T15:00:07.000Z</time>
      </trkpt>
      <trkpt lat="45.81485" lon="4.7393">
        <ele>327.11517</ele>
        <time>2023-07-10T15:00:08.000Z</time>
      </trkpt>
      <trkpt lat="45.81482" lon="4.73936">
        <ele>327.19922</ele>
        <time>2023-07-10T15:00:09.000Z</time>
      </trkpt>
      <trkpt lat="45.81482" lon="4.7394">
        <ele>327.28693</ele>
        <time>2023-07-10T15:00:10.000Z</time>
      </trkpt>
      <trkpt lat="45.81482" lon="4.73946">
        <ele>327.37955</ele>
        <time>2023-07-10T15:00:11.000Z</time>
      </trkpt>
      <trkpt lat="45.81482" lon="4.73953">
        <ele>327.3237</ele>
        <time>2023-07-10T15:00:12.000Z</time>
      </trkpt>
      <trkpt lat="45.81481" lon="4.7396">
        <ele>327.23676</ele>
        <time>2023-07-10T15:00:13.000Z</time>
      </trkpt>
      <trkpt lat="45.81479" lon="4.73967">
        <ele>327.32925</ele>
        <time>2023-07-10T15:00:14.000Z</time>
      </trkpt>
      <trkpt lat="45.81475" lon="4.73974">
        <ele>327.32977</ele>
        <time>2023-07-10T15:00:15.000Z</time>
      </trkpt>
      <trkpt lat="45.81473" lon="4.73979">
        <ele>327.28125</ele>
        <time>2023-07-10T15:00:16.000Z</time>
      </trkpt>
      <trkpt lat="45.8147" lon="4.73982">
        <ele>327.21158</ele>
        <time>2023-07-10T15:00:17.000Z</time>
      </trkpt>
      <trkpt lat="45.81466" lon="4.73987">
        <ele>327.17383</ele>
        <time>2023-07-10T15:00:18.000Z</time>
      </trkpt>
      <trkpt lat="45.81463" lon="4.73992">
        <ele>327.10605</ele>
        <time>2023-07-10T15:00:19.000Z</time>
      </trkpt>
      <trkpt lat="45.8146" lon="4.73996">
        <ele>326.91498</ele>
        <time>2023-07-10T15:00:20.000Z</time>
      </trkpt>
      <trkpt lat="45.81457" lon="4.73999">
        <ele>326.71692</ele>
        <time>2023-07-10T15:00:21.000Z</time>
      </trkpt>
      <trkpt lat="45.81456" lon="4.74003">
        <ele>326.39661</ele>
        <time>2023-07-10T15:00:22.000Z</time>
      </trkpt>
      <trkpt lat="45.81455" lon="4.74006">
        <ele>326.01129</ele>
        <time>2023-07-10T15:00:23.000Z</time>
      </trkpt>
      <trkpt lat="45.81452" lon="4.74008">
        <ele>325.62811</ele>
        <time>2023-07-10T15:00:24.000Z</time>
      </trkpt>
      <trkpt lat="45.8145" lon="4.74008">
        <ele>325.31055</ele>
        <time>2023-07-10T15:00:25.000Z</time>
      </trkpt>
      <trkpt lat="45.81447" lon="4.74011">
        <ele>324.94208</ele>
        <time>2023-07-10T15:00:26.000Z</time>
      </trkpt>
      <trkpt lat="45.81444" lon="4.74012">
        <ele>324.55365</ele>
        <time>2023-07-10T15:00:27.000Z</time>
      </trkpt>
      <trkpt lat="45.81441" lon="4.74012">
        <ele>324.16211</ele>
        <time>2023-07-10T15:00:28.000Z</time>
      </trkpt>
      <trkpt lat="45.81438" lon="4.74011">
        <ele>323.77536</ele>
        <time>2023-07-10T15:00:29.000Z</time>
      </trkpt>
      <trkpt lat="45.81436" lon="4.74008">
        <ele>323.37738</ele>
        <time>2023-07-10T15:00:30.000Z</time>
      </trkpt>
      <trkpt lat="45.81435" lon="4.74004">
        <ele>322.92111</ele>
        <time>2023-07-10T15:00:31.000Z</time>
      </trkpt>
      <trkpt lat="45.81434" lon="4.74002">
        <ele>322.70743</ele>
        <time>2023-07-10T15:00:32.000Z</time>
      </trkpt>
      <trkpt lat="45.81433" lon="4.74">
        <ele>322.64139</ele>
        <time>2023-07-10T15:00:33.000Z</time>
      </trkpt>
      <trkpt lat="45.81432" lon="4.73997">
        <ele>322.69257</ele>
        <time>2023-07-10T15:00:34.000Z</time>
      </trkpt>
      <trkpt lat="45.81432" lon="4.73994">
        <ele>322.77924</ele>
        <time>2023-07-10T15:00:35.000Z</time>
      </trkpt>
      <trkpt lat="45.81431" lon="4.73991">
        <ele>322.55374</ele>
        <time>2023-07-10T15:00:36.000Z</time>
      </trkpt>
      <trkpt lat="45.8143" lon="4.73988">
        <ele>322.42657</ele>
        <time>2023-07-10T15:00:37.000Z</time>
      </trkpt>
      <trkpt lat="45.81428" lon="4.73982">
        <ele>322.40106</ele>
        <time>2023-07-10T15:00:39.000Z</time>
      </trkpt>
      <trkpt lat="45.81427" lon="4.73978">
        <ele>322.42072</ele>
        <time>2023-07-10T15:00:40.000Z</time>
      </trkpt>
      <trkpt lat="45.81425" lon="4.73975">
        <ele>322.53714</ele>
        <time>2023-07-10T15:00:41.000Z</time>
      </trkpt>
      <trkpt lat="45.81424" lon="4.73972">
        <ele>322.64972</ele>
        <time>2023-07-10T15:00:42.000Z</time>
      </trkpt>
      <trkpt lat="45.81422" lon="4.73969">
        <ele>322.83804</ele>
        <time>2023-07-10T15:00:43.000Z</time>
      </trkpt>
      <trkpt lat="45.8142" lon="4.73965">
        <ele>323.09021</ele>
        <time>2023-07-10T15:00:44.000Z</time>
      </trkpt>
      <trkpt lat="45.81419" lon="4.7396">
        <ele>323.3656</ele>
        <time>2023-07-10T15:00:45.000Z</time>
      </trkpt>
      <trkpt lat="45.81416" lon="4.73956">
        <ele>323.67694</ele>
        <time>2023-07-10T15:00:46.000Z</time>
      </trkpt>
      <trkpt lat="45.81414" lon="4.73952">
        <ele>324.00351</ele>
        <time>2023-07-10T15:00:47.000Z</time>
      </trkpt>
      <trkpt lat="45.81411" lon="4.73948">
        <ele>324.38745</ele>
        <time>2023-07-10T15:00:48.000Z</time>
      </trkpt>
      <trkpt lat="45.81409" lon="4.73945">
        <ele>324.81732</ele>
        <time>2023-07-10T15:00:49.000Z</time>
      </trkpt>
      <trkpt lat="45.81406" lon="4.73941">
        <ele>325.26556</ele>
        <time>2023-07-10T15:00:50.000Z</time>
      </trkpt>
      <trkpt lat="45.81404" lon="4.73938">
        <ele>325.54059</ele>
        <time>2023-07-10T15:00:51.000Z</time>
      </trkpt>
      <trkpt lat="45.81401" lon="4.73934">
        <ele>325.43665</ele>
        <time>2023-07-10T15:00:52.000Z</time>
      </trkpt>
      <trkpt lat="45.81398" lon="4.7393">
        <ele>325.1922</ele>
        <time>2023-07-10T15:00:53.000Z</time>
      </trkpt>
      <trkpt lat="45.81396" lon="4.73927">
        <ele>324.77139</ele>
        <time>2023-07-10T15:00:54.000Z</time>
      </trkpt>
      <trkpt lat="45.81394" lon="4.73923">
        <ele>324.23257</ele>
        <time>2023-07-10T15:00:55.000Z</time>
      </trkpt>
      <trkpt lat="45.81392" lon="4.73919">
        <ele>323.67545</ele>
        <time>2023-07-10T15:00:56.000Z</time>
      </trkpt>
      <trkpt lat="45.81389" lon="4.73915">
        <ele>323.44104</ele>
        <time>2023-07-10T15:00:57.000Z</time>
      </trkpt>
      <trkpt lat="45.81386" lon="4.73911">
        <ele>323.15784</ele>
        <time>2023-07-10T15:00:58.000Z</time>
      </trkpt>
      <trkpt lat="45.81384" lon="4.73907">
        <ele>322.76395</ele>
        <time>2023-07-10T15:00:59.000Z</time>
      </trkpt>
      <trkpt lat="45.81381" lon="4.73904">
        <ele>322.34741</ele>
        <time>2023-07-10T15:01:00.000Z</time>
      </trkpt>
      <trkpt lat="45.81378" lon="4.739">
        <ele>322.01419</ele>
        <time>2023-07-10T15:01:01.000Z</time>
      </trkpt>
      <trkpt lat="45.81376" lon="4.73897">
        <ele>321.70285</ele>
        <time>2023-07-10T15:01:02.000Z</time>
      </trkpt>
      <trkpt lat="45.81373" lon="4.73892">
        <ele>321.37006</ele>
        <time>2023-07-10T15:01:03.000Z</time>
      </trkpt>
      <trkpt lat="45.81371" lon="4.73888">
        <ele>321.04767</ele>
        <time>2023-07-10T15:01:04.000Z</time>
      </trkpt>
      <trkpt lat="45.81368" lon="4.73884">
        <ele>320.70563</ele>
        <time>2023-07-10T15:01:05.000Z</time>
      </trkpt>
      <trkpt lat="45.81366" lon="4.7388">
        <ele>320.28131</ele>
        <time>2023-07-10T15:01:06.000Z</time>
      </trkpt>
      <trkpt lat="45.81364" lon="4.73876">
        <ele>319.85214</ele>
        <time>2023-07-10T15:01:07.000Z</time>
      </trkpt>
      <trkpt lat="45.81361" lon="4.73872">
        <ele>319.53656</ele>
        <time>2023-07-10T15:01:08.000Z</time>
      </trkpt>
      <trkpt lat="45.8136" lon="4.73868">
        <ele>319.22989</ele>
        <time>2023-07-10T15:01:09.000Z</time>
      </trkpt>
      <trkpt lat="45.81358" lon="4.73864">
        <ele>318.87085</ele>
        <time>2023-07-10T15:01:10.000Z</time>
      </trkpt>
      <trkpt lat="45.81355" lon="4.7386">
        <ele>318.73291</ele>
        <time>2023-07-10T15:01:11.000Z</time>
      </trkpt>
      <trkpt lat="45.81352" lon="4.73856">
        <ele>319.00809</ele>
        <time>2023-07-10T15:01:12.000Z</time>
      </trkpt>
      <trkpt lat="45.81349" lon="4.73853">
        <ele>319.26419</ele>
        <time>2023-07-10T15:01:13.000Z</time>
      </trkpt>
      <trkpt lat="45.81346" lon="4.73849">
        <ele>319.51804</ele>
        <time>2023-07-10T15:01:14.000Z</time>
      </trkpt>
      <trkpt lat="45.81344" lon="4.73846">
        <ele>319.83942</ele>
        <time>2023-07-10T15:01:15.000Z</time>
      </trkpt>
      <trkpt lat="45.81341" lon="4.73842">
        <ele>320.15533</ele>
        <time>2023-07-10T15:01:16.000Z</time>
      </trkpt>
      <trkpt lat="45.81338" lon="4.73838">
        <ele>320.44867</ele>
        <time>2023-07-10T15:01:17.000Z</time>
      </trkpt>
      <trkpt lat="45.81335" lon="4.73835">
        <ele>320.72894</ele>
        <time>2023-07-10T15:01:18.000Z</time>
      </trkpt>
      <trkpt lat="45.81333" lon="4.73832">
        <ele>321.02963</ele>
        <time>2023-07-10T15:01:19.000Z</time>
      </trkpt>
      <trkpt lat="45.8133" lon="4.73827">
        <ele>321.34326</ele>
        <time>2023-07-10T15:01:20.000Z</time>
      </trkpt>
      <trkpt lat="45.81328" lon="4.73823">
        <ele>321.60226</ele>
        <time>2023-07-10T15:01:21.000Z</time>
      </trkpt>
      <trkpt lat="45.81325" lon="4.73818">
        <ele>321.89041</ele>
        <time>2023-07-10T15:01:22.000Z</time>
      </trkpt>
      <trkpt lat="45.81322" lon="4.73814">
        <ele>322.22638</ele>
        <time>2023-07-10T15:01:23.000Z</time>
      </trkpt>
      <trkpt lat="45.81319" lon="4.7381">
        <ele>322.58176</ele>
        <time>2023-07-10T15:01:24.000Z</time>
      </trkpt>
      <trkpt lat="45.81316" lon="4.73806">
        <ele>322.9422</ele>
        <time>2023-07-10T15:01:25.000Z</time>
      </trkpt>
      <trkpt lat="45.81314" lon="4.73802">
        <ele>323.30804</ele>
        <time>2023-07-10T15:01:26.000Z</time>
      </trkpt>
      <trkpt lat="45.81311" lon="4.73799">
        <ele>323.64624</ele>
        <time>2023-07-10T15:01:27.000Z</time>
      </trkpt>
      <trkpt lat="45.81308" lon="4.73795">
        <ele>323.8476</ele>
        <time>2023-07-10T15:01:28.000Z</time>
      </trkpt>
      <trkpt lat="45.81306" lon="4.73792">
        <ele>324.07486</ele>
        <time>2023-07-10T15:01:29.000Z</time>
      </trkpt>
      <trkpt lat="45.81303" lon="4.73788">
        <ele>324.29758</ele>
        <time>2023-07-10T15:01:30.000Z</time>
      </trkpt>
      <trkpt lat="45.81301" lon="4.73784">
        <ele>324.47992</ele>
        <time>2023-07-10T15:01:31.000Z</time>
      </trkpt>
      <trkpt lat="45.81298" lon="4.73781">
        <ele>324.63599</ele>
        <time>2023-07-10T15:01:32.000Z</time>
      </trkpt>
      <trkpt lat="45.81295" lon="4.73777">
        <ele>324.78293</ele>
        <time>2023-07-10T15:01:33.000Z</time>
      </trkpt>
      <trkpt lat="45.81292" lon="4.73774">
        <ele>324.97028</ele>
        <time>2023-07-10T15:01:34.000Z</time>
      </trkpt>
      <trkpt lat="45.81289" lon="4.7377">
        <ele>325.15173</ele>
        <time>2023-07-10T15:01:35.000Z</time>
      </trkpt>
      <trkpt lat="45.81286" lon="4.73767">
        <ele>325.33344</ele>
        <time>2023-07-10T15:01:36.000Z</time>
      </trkpt>
      <trkpt lat="45.81282" lon="4.73763">
        <ele>325.52151</ele>
        <time>2023-07-10T15:01:37.000Z</time>
      </trkpt>
      <trkpt lat="45.81279" lon="4.7376">
        <ele>325.67834</ele>
        <time>2023-07-10T15:01:38.000Z</time>
      </trkpt>
      <trkpt lat="45.81276" lon="4.73755">
        <ele>325.80014</ele>
        <time>2023-07-10T15:01:39.000Z</time>
      </trkpt>
      <trkpt lat="45.81273" lon="4.73751">
        <ele>325.89178</ele>
        <time>2023-07-10T15:01:40.000Z</time>
      </trkpt>
      <trkpt lat="45.8127" lon="4.73747">
        <ele>326.02423</ele>
        <time>2023-07-10T15:01:41.000Z</time>
      </trkpt>
      <trkpt lat="45.81267" lon="4.73743">
        <ele>326.16299</ele>
        <time>2023-07-10T15:01:42.000Z</time>
      </trkpt>
      <trkpt lat="45.81264" lon="4.73739">
        <ele>326.2959</ele>
        <time>2023-07-10T15:01:43.000Z</time>
      </trkpt>
      <trkpt lat="45.81261" lon="4.73736">
        <ele>326.41696</ele>
        <time>2023-07-10T15:01:44.000Z</time>
      </trkpt>
      <trkpt lat="45.81258" lon="4.73733">
        <ele>326.53577</ele>
        <time>2023-07-10T15:01:45.000Z</time>
      </trkpt>
      <trkpt lat="45.81255" lon="4.73729">
        <ele>326.68887</ele>
        <time>2023-07-10T15:01:46.000Z</time>
      </trkpt>
      <trkpt lat="45.81252" lon="4.73725">
        <ele>326.82452</ele>
        <time>2023-07-10T15:01:47.000Z</time>
      </trkpt>
      <trkpt lat="45.81249" lon="4.73722">
        <ele>326.94083</ele>
        <time>2023-07-10T15:01:48.000Z</time>
      </trkpt>
      <trkpt lat="45.81246" lon="4.73719">
        <ele>327.03522</ele>
        <time>2023-07-10T15:01:49.000Z</time>
      </trkpt>
      <trkpt lat="45.81243" lon="4.73715">
        <ele>327.09082</ele>
        <time>2023-07-10T15:01:50.000Z</time>
      </trkpt>
      <trkpt lat="45.8124" lon="4.73712">
        <ele>327.17593</ele>
        <time>2023-07-10T15:01:51.000Z</time>
      </trkpt>
      <trkpt lat="45.81236" lon="4.73709">
        <ele>327.25784</ele>
        <time>2023-07-10T15:01:52.000Z</time>
      </trkpt>
      <trkpt lat="45.81233" lon="4.73706">
        <ele>327.33783</ele>
        <time>2023-07-10T15:01:53.000Z</time>
      </trkpt>
      <trkpt lat="45.8123" lon="4.73704">
        <ele>327.38141</ele>
        <time>2023-07-10T15:01:54.000Z</time>
      </trkpt>
      <trkpt lat="45.81226" lon="4.73703">
        <ele>327.40411</ele>
        <time>2023-07-10T15:01:55.000Z</time>
      </trkpt>
      <trkpt lat="45.81222" lon="4.73702">
        <ele>327.42685</ele>
        <time>2023-07-10T15:01:56.000Z</time>
      </trkpt>
      <trkpt lat="45.81218" lon="4.73702">
        <ele>327.43604</ele>
        <time>2023-07-10T15:01:57.000Z</time>
      </trkpt>
      <trkpt lat="45.81215" lon="4.73702">
        <ele>327.45612</ele>
        <time>2023-07-10T15:01:58.000Z</time>
      </trkpt>
      <trkpt lat="45.81211" lon="4.73702">
        <ele>327.50641</ele>
        <time>2023-07-10T15:01:59.000Z</time>
      </trkpt>
      <trkpt lat="45.81208" lon="4.73702">
        <ele>327.56122</ele>
        <time>2023-07-10T15:02:00.000Z</time>
      </trkpt>
      <trkpt lat="45.81204" lon="4.73701">
        <ele>327.61575</ele>
        <time>2023-07-10T15:02:01.000Z</time>
      </trkpt>
      <trkpt lat="45.81201" lon="4.73701">
        <ele>327.59229</ele>
        <time>2023-07-10T15:02:02.000Z</time>
      </trkpt>
      <trkpt lat="45.81198" lon="4.73699">
        <ele>327.51859</ele>
        <time>2023-07-10T15:02:03.000Z</time>
      </trkpt>
      <trkpt lat="45.81194" lon="4.73699">
        <ele>327.45447</ele>
        <time>2023-07-10T15:02:04.000Z</time>
      </trkpt>
      <trkpt lat="45.81191" lon="4.73698">
        <ele>327.38824</ele>
        <time>2023-07-10T15:02:05.000Z</time>
      </trkpt>
      <trkpt lat="45.81187" lon="4.73697">
        <ele>327.2915</ele>
        <time>2023-07-10T15:02:06.000Z</time>
      </trkpt>
      <trkpt lat="45.81183" lon="4.73697">
        <ele>327.21707</ele>
        <time>2023-07-10T15:02:07.000Z</time>
      </trkpt>
      <trkpt lat="45.81179" lon="4.73696">
        <ele>327.1423</ele>
        <time>2023-07-10T15:02:08.000Z</time>
      </trkpt>
      <trkpt lat="45.81175" lon="4.73695">
        <ele>327.05698</ele>
        <time>2023-07-10T15:02:09.000Z</time>
      </trkpt>
      <trkpt lat="45.81171" lon="4.73694">
        <ele>327.03433</ele>
        <time>2023-07-10T15:02:10.000Z</time>
      </trkpt>
      <trkpt lat="45.81167" lon="4.73693">
        <ele>326.94693</ele>
        <time>2023-07-10T15:02:11.000Z</time>
      </trkpt>
      <trkpt lat="45.81162" lon="4.73692">
        <ele>326.88324</ele>
        <time>2023-07-10T15:02:12.000Z</time>
      </trkpt>
      <trkpt lat="45.81158" lon="4.73691">
        <ele>326.82953</ele>
        <time>2023-07-10T15:02:13.000Z</time>
      </trkpt>
      <trkpt lat="45.81153" lon="4.7369">
        <ele>326.8161</ele>
        <time>2023-07-10T15:02:14.000Z</time>
      </trkpt>
      <trkpt lat="45.81149" lon="4.73689">
        <ele>326.85089</ele>
        <time>2023-07-10T15:02:15.000Z</time>
      </trkpt>
      <trkpt lat="45.81145" lon="4.73688">
        <ele>326.92914</ele>
        <time>2023-07-10T15:02:16.000Z</time>
      </trkpt>
      <trkpt lat="45.8114" lon="4.73687">
        <ele>326.99335</ele>
        <time>2023-07-10T15:02:17.000Z</time>
      </trkpt>
      <trkpt lat="45.81135" lon="4.73685">
        <ele>327.07642</ele>
        <time>2023-07-10T15:02:18.000Z</time>
      </trkpt>
      <trkpt lat="45.8113" lon="4.73684">
        <ele>327.11475</ele>
        <time>2023-07-10T15:02:19.000Z</time>
      </trkpt>
      <trkpt lat="45.81125" lon="4.73682">
        <ele>327.19073</ele>
        <time>2023-07-10T15:02:20.000Z</time>
      </trkpt>
      <trkpt lat="45.8112" lon="4.7368">
        <ele>327.22748</ele>
        <time>2023-07-10T15:02:21.000Z</time>
      </trkpt>
      <trkpt lat="45.81115" lon="4.73678">
        <ele>327.29825</ele>
        <time>2023-07-10T15:02:22.000Z</time>
      </trkpt>
      <trkpt lat="45.81109" lon="4.73677">
        <ele>327.42786</ele>
        <time>2023-07-10T15:02:23.000Z</time>
      </trkpt>
      <trkpt lat="45.81104" lon="4.73676">
        <ele>327.5062</ele>
        <time>2023-07-10T15:02:24.000Z</time>
      </trkpt>
      <trkpt lat="45.81099" lon="4.73675">
        <ele>327.58539</ele>
        <time>2023-07-10T15:02:25.000Z</time>
      </trkpt>
      <trkpt lat="45.81094" lon="4.73674">
        <ele>327.62338</ele>
        <time>2023-07-10T15:02:26.000Z</time>
      </trkpt>
      <trkpt lat="45.81088" lon="4.73673">
        <ele>327.64429</ele>
        <time>2023-07-10T15:02:27.000Z</time>
      </trkpt>
      <trkpt lat="45.81083" lon="4.73672">
        <ele>327.66849</ele>
        <time>2023-07-10T15:02:28.000Z</time>
      </trkpt>
      <trkpt lat="45.81077" lon="4.73671">
        <ele>327.70065</ele>
        <time>2023-07-10T15:02:29.000Z</time>
      </trkpt>
      <trkpt lat="45.81072" lon="4.73671">
        <ele>327.70514</ele>
        <time>2023-07-10T15:02:30.000Z</time>
      </trkpt>
      <trkpt lat="45.81066" lon="4.7367">
        <ele>327.71262</ele>
        <time>2023-07-10T15:02:31.000Z</time>
      </trkpt>
      <trkpt lat="45.81061" lon="4.73668">
        <ele>327.68005</ele>
        <time>2023-07-10T15:02:32.000Z</time>
      </trkpt>
      <trkpt lat="45.81055" lon="4.73665">
        <ele>327.60693</ele>
        <time>2023-07-10T15:02:33.000Z</time>
      </trkpt>
      <trkpt lat="45.8105" lon="4.73662">
        <ele>327.51364</ele>
        <time>2023-07-10T15:02:34.000Z</time>
      </trkpt>
      <trkpt lat="45.81045" lon="4.73661">
        <ele>327.38583</ele>
        <time>2023-07-10T15:02:35.000Z</time>
      </trkpt>
      <trkpt lat="45.81039" lon="4.73661">
        <ele>327.20074</ele>
        <time>2023-07-10T15:02:36.000Z</time>
      </trkpt>
      <trkpt lat="45.81036" lon="4.73667">
        <ele>327.02353</ele>
        <time>2023-07-10T15:02:37.000Z</time>
      </trkpt>
      <trkpt lat="45.81033" lon="4.73673">
        <ele>326.81622</ele>
        <time>2023-07-10T15:02:38.000Z</time>
      </trkpt>
      <trkpt lat="45.8103" lon="4.73679">
        <ele>326.62164</ele>
        <time>2023-07-10T15:02:39.000Z</time>
      </trkpt>
      <trkpt lat="45.81027" lon="4.73684">
        <ele>326.37823</ele>
        <time>2023-07-10T15:02:40.000Z</time>
      </trkpt>
      <trkpt lat="45.81023" lon="4.73688">
        <ele>326.14435</ele>
        <time>2023-07-10T15:02:41.000Z</time>
      </trkpt>
      <trkpt lat="45.8102" lon="4.73693">
        <ele>325.90656</ele>
        <time>2023-07-10T15:02:42.000Z</time>
      </trkpt>
      <trkpt lat="45.81017" lon="4.73698">
        <ele>325.64096</ele>
        <time>2023-07-10T15:02:43.000Z</time>
      </trkpt>
      <trkpt lat="45.81013" lon="4.73703">
        <ele>325.42245</ele>
        <time>2023-07-10T15:02:44.000Z</time>
      </trkpt>
      <trkpt lat="45.8101" lon="4.73708">
        <ele>325.21011</ele>
        <time>2023-07-10T15:02:45.000Z</time>
      </trkpt>
      <trkpt lat="45.81006" lon="4.73712">
        <ele>325.03491</ele>
        <time>2023-07-10T15:02:46.000Z</time>
      </trkpt>
      <trkpt lat="45.81003" lon="4.73717">
        <ele>324.89246</ele>
        <time>2023-07-10T15:02:47.000Z</time>
      </trkpt>
      <trkpt lat="45.80999" lon="4.7372">
        <ele>324.7579</ele>
        <time>2023-07-10T15:02:48.000Z</time>
      </trkpt>
      <trkpt lat="45.80994" lon="4.73721">
        <ele>324.63681</ele>
        <time>2023-07-10T15:02:49.000Z</time>
      </trkpt>
      <trkpt lat="45.8099" lon="4.7372">
        <ele>324.52655</ele>
        <time>2023-07-10T15:02:50.000Z</time>
      </trkpt>
      <trkpt lat="45.80988" lon="4.73717">
        <ele>324.45209</ele>
        <time>2023-07-10T15:02:51.000Z</time>
      </trkpt>
      <trkpt lat="45.80987" lon="4.73712">
        <ele>324.41827</ele>
        <time>2023-07-10T15:02:52.000Z</time>
      </trkpt>
      <trkpt lat="45.80987" lon="4.73707">
        <ele>324.43365</ele>
        <time>2023-07-10T15:02:53.000Z</time>
      </trkpt>
      <trkpt lat="45.80986" lon="4.73702">
        <ele>324.43768</ele>
        <time>2023-07-10T15:02:54.000Z</time>
      </trkpt>
      <trkpt lat="45.80986" lon="4.73698">
        <ele>324.45615</ele>
        <time>2023-07-10T15:02:55.000Z</time>
      </trkpt>
      <trkpt lat="45.80985" lon="4.73693">
        <ele>324.48584</ele>
        <time>2023-07-10T15:02:56.000Z</time>
      </trkpt>
      <trkpt lat="45.80985" lon="4.73688">
        <ele>324.55417</ele>
        <time>2023-07-10T15:02:57.000Z</time>
      </trkpt>
      <trkpt lat="45.80985" lon="4.73683">
        <ele>324.65552</ele>
        <time>2023-07-10T15:02:58.000Z</time>
      </trkpt>
      <trkpt lat="45.80985" lon="4.73678">
        <ele>324.75565</ele>
        <time>2023-07-10T15:02:59.000Z</time>
      </trkpt>
      <trkpt lat="45.80985" lon="4.73673">
        <ele>324.90506</ele>
        <time>2023-07-10T15:03:00.000Z</time>
      </trkpt>
      <trkpt lat="45.80984" lon="4.73668">
        <ele>325.03119</ele>
        <time>2023-07-10T15:03:01.000Z</time>
      </trkpt>
      <trkpt lat="45.80984" lon="4.73663">
        <ele>325.1806</ele>
        <time>2023-07-10T15:03:02.000Z</time>
      </trkpt>
      <trkpt lat="45.80984" lon="4.73658">
        <ele>325.33801</ele>
        <time>2023-07-10T15:03:03.000Z</time>
      </trkpt>
      <trkpt lat="45.80984" lon="4.73653">
        <ele>325.5032</ele>
        <time>2023-07-10T15:03:04.000Z</time>
      </trkpt>
      <trkpt lat="45.80983" lon="4.73648">
        <ele>325.68695</ele>
        <time>2023-07-10T15:03:05.000Z</time>
      </trkpt>
      <trkpt lat="45.80983" lon="4.73643">
        <ele>326.00235</ele>
        <time>2023-07-10T15:03:06.000Z</time>
      </trkpt>
      <trkpt lat="45.80982" lon="4.73638">
        <ele>326.29248</ele>
        <time>2023-07-10T15:03:07.000Z</time>
      </trkpt>
      <trkpt lat="45.80981" lon="4.73632">
        <ele>326.60089</ele>
        <time>2023-07-10T15:03:08.000Z</time>
      </trkpt>
      <trkpt lat="45.80981" lon="4.73627">
        <ele>326.90955</ele>
        <time>2023-07-10T15:03:09.000Z</time>
      </trkpt>
      <trkpt lat="45.80981" lon="4.73621">
        <ele>327.24545</ele>
        <time>2023-07-10T15:03:10.000Z</time>
      </trkpt>
      <trkpt lat="45.8098" lon="4.73616">
        <ele>327.60873</ele>
        <time>2023-07-10T15:03:11.000Z</time>
      </trkpt>
      <trkpt lat="45.8098" lon="4.73611">
        <ele>327.98566</ele>
        <time>2023-07-10T15:03:12.000Z</time>
      </trkpt>
      <trkpt lat="45.8098" lon="4.73605">
        <ele>328.35434</ele>
        <time>2023-07-10T15:03:13.000Z</time>
      </trkpt>
      <trkpt lat="45.8098" lon="4.736">
        <ele>328.75729</ele>
        <time>2023-07-10T15:03:14.000Z</time>
      </trkpt>
      <trkpt lat="45.80981" lon="4.73595">
        <ele>329.12802</ele>
        <time>2023-07-10T15:03:15.000Z</time>
      </trkpt>
      <trkpt lat="45.80982" lon="4.7359">
        <ele>329.4928</ele>
        <time>2023-07-10T15:03:16.000Z</time>
      </trkpt>
      <trkpt lat="45.80982" lon="4.73585">
        <ele>329.85019</ele>
        <time>2023-07-10T15:03:17.000Z</time>
      </trkpt>
      <trkpt lat="45.8098" lon="4.7358">
        <ele>330.19</ele>
        <time>2023-07-10T15:03:18.000Z</time>
      </trkpt>
      <trkpt lat="45.80979" lon="4.73575">
        <ele>330.58704</ele>
        <time>2023-07-10T15:03:19.000Z</time>
      </trkpt>
      <trkpt lat="45.80977" lon="4.7357">
        <ele>330.94092</ele>
        <time>2023-07-10T15:03:20.000Z</time>
      </trkpt>
      <trkpt lat="45.80976" lon="4.73565">
        <ele>331.31021</ele>
        <time>2023-07-10T15:03:21.000Z</time>
      </trkpt>
      <trkpt lat="45.80976" lon="4.7356">
        <ele>331.68097</ele>
        <time>2023-07-10T15:03:22.000Z</time>
      </trkpt>
      <trkpt lat="45.80975" lon="4.73555">
        <ele>332.01666</ele>
        <time>2023-07-10T15:03:23.000Z</time>
      </trkpt>
      <trkpt lat="45.80975" lon="4.73549">
        <ele>332.36099</ele>
        <time>2023-07-10T15:03:24.000Z</time>
      </trkpt>
      <trkpt lat="45.80974" lon="4.73544">
        <ele>332.70532</ele>
        <time>2023-07-10T15:03:25.000Z</time>
      </trkpt>
      <trkpt lat="45.80973" lon="4.73538">
        <ele>332.88824</ele>
        <time>2023-07-10T15:03:26.000Z</time>
      </trkpt>
      <trkpt lat="45.80973" lon="4.73533">
        <ele>333.07693</ele>
        <time>2023-07-10T15:03:27.000Z</time>
      </trkpt>
      <trkpt lat="45.80972" lon="4.73528">
        <ele>333.26581</ele>
        <time>2023-07-10T15:03:28.000Z</time>
      </trkpt>
      <trkpt lat="45.80972" lon="4.73523">
        <ele>333.43378</ele>
        <time>2023-07-10T15:03:29.000Z</time>
      </trkpt>
      <trkpt lat="45.80971" lon="4.73518">
        <ele>333.57169</ele>
        <time>2023-07-10T15:03:30.000Z</time>
      </trkpt>
      <trkpt lat="45.80971" lon="4.73513">
        <ele>333.65784</ele>
        <time>2023-07-10T15:03:31.000Z</time>
      </trkpt>
      <trkpt lat="45.8097" lon="4.73508">
        <ele>333.69562</ele>
        <time>2023-07-10T15:03:32.000Z</time>
      </trkpt>
      <trkpt lat="45.8097" lon="4.73504">
        <ele>333.71494</ele>
        <time>2023-07-10T15:03:33.000Z</time>
      </trkpt>
      <trkpt lat="45.80969" lon="4.73499">
        <ele>333.69586</ele>
        <time>2023-07-10T15:03:34.000Z</time>
      </trkpt>
      <trkpt lat="45.80969" lon="4.73494">
        <ele>333.68314</ele>
        <time>2023-07-10T15:03:35.000Z</time>
      </trkpt>
      <trkpt lat="45.80969" lon="4.73489">
        <ele>333.67374</ele>
        <time>2023-07-10T15:03:36.000Z</time>
      </trkpt>
      <trkpt lat="45.80968" lon="4.73485">
        <ele>333.63364</ele>
        <time>2023-07-10T15:03:37.000Z</time>
      </trkpt>
      <trkpt lat="45.80968" lon="4.7348">
        <ele>333.69699</ele>
        <time>2023-07-10T15:03:38.000Z</time>
      </trkpt>
      <trkpt lat="45.80967" lon="4.73475">
        <ele>333.69473</ele>
        <time>2023-07-10T15:03:39.000Z</time>
      </trkpt>
      <trkpt lat="45.80967" lon="4.7347">
        <ele>333.71558</ele>
        <time>2023-07-10T15:03:40.000Z</time>
      </trkpt>
      <trkpt lat="45.80966" lon="4.73465">
        <ele>333.7442</ele>
        <time>2023-07-10T15:03:41.000Z</time>
      </trkpt>
      <trkpt lat="45.80966" lon="4.7346">
        <ele>333.77435</ele>
        <time>2023-07-10T15:03:42.000Z</time>
      </trkpt>
      <trkpt lat="45.80965" lon="4.73455">
        <ele>333.83856</ele>
        <time>2023-07-10T15:03:43.000Z</time>
      </trkpt>
      <trkpt lat="45.80964" lon="4.7345">
        <ele>333.87796</ele>
        <time>2023-07-10T15:03:44.000Z</time>
      </trkpt>
      <trkpt lat="45.80963" lon="4.73445">
        <ele>333.8714</ele>
        <time>2023-07-10T15:03:45.000Z</time>
      </trkpt>
      <trkpt lat="45.80963" lon="4.73439">
        <ele>333.86639</ele>
        <time>2023-07-10T15:03:46.000Z</time>
      </trkpt>
      <trkpt lat="45.80962" lon="4.73434">
        <ele>333.84381</ele>
        <time>2023-07-10T15:03:47.000Z</time>
      </trkpt>
      <trkpt lat="45.80962" lon="4.73428">
        <ele>333.80157</ele>
        <time>2023-07-10T15:03:48.000Z</time>
      </trkpt>
      <trkpt lat="45.80962" lon="4.73423">
        <ele>333.74243</ele>
        <time>2023-07-10T15:03:49.000Z</time>
      </trkpt>
      <trkpt lat="45.80961" lon="4.73418">
        <ele>333.67923</ele>
        <time>2023-07-10T15:03:50.000Z</time>
      </trkpt>
      <trkpt lat="45.80961" lon="4.73413">
        <ele>333.55673</ele>
        <time>2023-07-10T15:03:51.000Z</time>
      </trkpt>
      <trkpt lat="45.8096" lon="4.73407">
        <ele>333.44965</ele>
        <time>2023-07-10T15:03:52.000Z</time>
      </trkpt>
      <trkpt lat="45.80959" lon="4.73402">
        <ele>333.35309</ele>
        <time>2023-07-10T15:03:53.000Z</time>
      </trkpt>
      <trkpt lat="45.80959" lon="4.73397">
        <ele>333.25052</ele>
        <time>2023-07-10T15:03:54.000Z</time>
      </trkpt>
      <trkpt lat="45.80958" lon="4.73392">
        <ele>333.24451</ele>
        <time>2023-07-10T15:03:55.000Z</time>
      </trkpt>
      <trkpt lat="45.80958" lon="4.73386">
        <ele>333.23013</ele>
        <time>2023-07-10T15:03:56.000Z</time>
      </trkpt>
      <trkpt lat="45.80957" lon="4.7338">
        <ele>333.22369</ele>
        <time>2023-07-10T15:03:57.000Z</time>
      </trkpt>
      <trkpt lat="45.80957" lon="4.73374">
        <ele>333.09622</ele>
        <time>2023-07-10T15:03:58.000Z</time>
      </trkpt>
      <trkpt lat="45.80956" lon="4.73367">
        <ele>332.9895</ele>
        <time>2023-07-10T15:03:59.000Z</time>
      </trkpt>
      <trkpt lat="45.80956" lon="4.7336">
        <ele>332.89377</ele>
        <time>2023-07-10T15:04:00.000Z</time>
      </trkpt>
      <trkpt lat="45.80953" lon="4.73354">
        <ele>332.76804</ele>
        <time>2023-07-10T15:04:01.000Z</time>
      </trkpt>
      <trkpt lat="45.80951" lon="4.73347">
        <ele>332.60913</ele>
        <time>2023-07-10T15:04:02.000Z</time>
      </trkpt>
      <trkpt lat="45.80948" lon="4.7334">
        <ele>332.4332</ele>
        <time>2023-07-10T15:04:03.000Z</time>
      </trkpt>
      <trkpt lat="45.80944" lon="4.73334">
        <ele>332.21918</ele>
        <time>2023-07-10T15:04:04.000Z</time>
      </trkpt>
      <trkpt lat="45.8094" lon="4.73328">
        <ele>332.01874</ele>
        <time>2023-07-10T15:04:05.000Z</time>
      </trkpt>
      <trkpt lat="45.80937" lon="4.73325">
        <ele>331.88062</ele>
        <time>2023-07-10T15:04:06.000Z</time>
      </trkpt>
      <trkpt lat="45.80933" lon="4.73321">
        <ele>331.77902</ele>
        <time>2023-07-10T15:04:07.000Z</time>
      </trkpt>
      <trkpt lat="45.80929" lon="4.73318">
        <ele>331.68292</ele>
        <time>2023-07-10T15:04:08.000Z</time>
      </trkpt>
      <trkpt lat="45.80927" lon="4.73316">
        <ele>331.5686</ele>
        <time>2023-07-10T15:04:09.000Z</time>
      </trkpt>
      <trkpt lat="45.80925" lon="4.73314">
        <ele>331.44485</ele>
        <time>2023-07-10T15:04:10.000Z</time>
      </trkpt>
      <trkpt lat="45.80923" lon="4.73311">
        <ele>331.39905</ele>
        <time>2023-07-10T15:04:12.000Z</time>
      </trkpt>
      <trkpt lat="45.80921" lon="4.73313">
        <ele>331.44235</ele>
        <time>2023-07-10T15:04:40.000Z</time>
      </trkpt>
      <trkpt lat="45.80918" lon="4.7331">
        <ele>331.44489</ele>
        <time>2023-07-10T15:04:42.000Z</time>
      </trkpt>
      <trkpt lat="45.80915" lon="4.73308">
        <ele>331.40045</ele>
        <time>2023-07-10T15:04:43.000Z</time>
      </trkpt>
      <trkpt lat="45.80912" lon="4.73305">
        <ele>331.38208</ele>
        <time>2023-07-10T15:04:44.000Z</time>
      </trkpt>
      <trkpt lat="45.80908" lon="4.73303">
        <ele>331.35696</ele>
        <time>2023-07-10T15:04:45.000Z</time>
      </trkpt>
      <trkpt lat="45.80904" lon="4.73302">
        <ele>331.3353</ele>
        <time>2023-07-10T15:04:46.000Z</time>
      </trkpt>
      <trkpt lat="45.809" lon="4.733">
        <ele>331.31387</ele>
        <time>2023-07-10T15:04:47.000Z</time>
      </trkpt>
      <trkpt lat="45.80896" lon="4.73298">
        <ele>331.24078</ele>
        <time>2023-07-10T15:04:48.000Z</time>
      </trkpt>
      <trkpt lat="45.80893" lon="4.73294">
        <ele>331.12729</ele>
        <time>2023-07-10T15:04:49.000Z</time>
      </trkpt>
      <trkpt lat="45.80891" lon="4.73288">
        <ele>331.03693</ele>
        <time>2023-07-10T15:04:50.000Z</time>
      </trkpt>
      <trkpt lat="45.80888" lon="4.73284">
        <ele>330.93954</ele>
        <time>2023-07-10T15:04:51.000Z</time>
      </trkpt>
      <trkpt lat="45.80885" lon="4.73281">
        <ele>330.81598</ele>
        <time>2023-07-10T15:04:52.000Z</time>
      </trkpt>
      <trkpt lat="45.80882" lon="4.73278">
        <ele>330.65948</ele>
        <time>2023-07-10T15:04:53.000Z</time>
      </trkpt>
      <trkpt lat="45.8088" lon="4.73275">
        <ele>330.51898</ele>
        <time>2023-07-10T15:04:54.000Z</time>
      </trkpt>
      <trkpt lat="45.80877" lon="4.73271">
        <ele>330.31021</ele>
        <time>2023-07-10T15:04:55.000Z</time>
      </trkpt>
      <trkpt lat="45.80874" lon="4.73268">
        <ele>330.05151</ele>
        <time>2023-07-10T15:04:56.000Z</time>
      </trkpt>
      <trkpt lat="45.8087" lon="4.73266">
        <ele>329.79285</ele>
        <time>2023-07-10T15:04:57.000Z</time>
      </trkpt>
      <trkpt lat="45.80867" lon="4.73263">
        <ele>329.58646</ele>
        <time>2023-07-10T15:04:58.000Z</time>
      </trkpt>
      <trkpt lat="45.80863" lon="4.73259">
        <ele>329.37115</ele>
        <time>2023-07-10T15:04:59.000Z</time>
      </trkpt>
      <trkpt lat="45.8086" lon="4.73255">
        <ele>329.14276</ele>
        <time>2023-07-10T15:05:00.000Z</time>
      </trkpt>
      <trkpt lat="45.80856" lon="4.7325">
        <ele>328.8584</ele>
        <time>2023-07-10T15:05:01.000Z</time>
      </trkpt>
      <trkpt lat="45.80852" lon="4.73245">
        <ele>328.5903</ele>
        <time>2023-07-10T15:05:02.000Z</time>
      </trkpt>
      <trkpt lat="45.80847" lon="4.73241">
        <ele>328.38141</ele>
        <time>2023-07-10T15:05:03.000Z</time>
      </trkpt>
      <trkpt lat="45.80842" lon="4.73237">
        <ele>328.13007</ele>
        <time>2023-07-10T15:05:04.000Z</time>
      </trkpt>
      <trkpt lat="45.80837" lon="4.73232">
        <ele>327.86951</ele>
        <time>2023-07-10T15:05:05.000Z</time>
      </trkpt>
      <trkpt lat="45.80832" lon="4.73226">
        <ele>327.60883</ele>
        <time>2023-07-10T15:05:06.000Z</time>
      </trkpt>
      <trkpt lat="45.80827" lon="4.7322">
        <ele>327.36472</ele>
        <time>2023-07-10T15:05:07.000Z</time>
      </trkpt>
      <trkpt lat="45.80821" lon="4.73215">
        <ele>327.21054</ele>
        <time>2023-07-10T15:05:08.000Z</time>
      </trkpt>
      <trkpt lat="45.80815" lon="4.73209">
        <ele>327.08276</ele>
        <time>2023-07-10T15:05:09.000Z</time>
      </trkpt>
      <trkpt lat="45.8081" lon="4.73204">
        <ele>326.96735</ele>
        <time>2023-07-10T15:05:10.000Z</time>
      </trkpt>
      <trkpt lat="45.80803" lon="4.73197">
        <ele>326.87872</ele>
        <time>2023-07-10T15:05:11.000Z</time>
      </trkpt>
      <trkpt lat="45.80797" lon="4.7319">
        <ele>326.78058</ele>
        <time>2023-07-10T15:05:12.000Z</time>
      </trkpt>
      <trkpt lat="45.80791" lon="4.73184">
        <ele>326.74405</ele>
        <time>2023-07-10T15:05:13.000Z</time>
      </trkpt>
      <trkpt lat="45.80784" lon="4.73178">
        <ele>326.69531</ele>
        <time>2023-07-10T15:05:14.000Z</time>
      </trkpt>
      <trkpt lat="45.80777" lon="4.73171">
        <ele>326.65036</ele>
        <time>2023-07-10T15:05:15.000Z</time>
      </trkpt>
      <trkpt lat="45.80771" lon="4.73164">
        <ele>326.64642</ele>
        <time>2023-07-10T15:05:16.000Z</time>
      </trkpt>
      <trkpt lat="45.80764" lon="4.73158">
        <ele>326.65057</ele>
        <time>2023-07-10T15:05:17.000Z</time>
      </trkpt>
      <trkpt lat="45.80757" lon="4.73152">
        <ele>326.66949</ele>
        <time>2023-07-10T15:05:18.000Z</time>
      </trkpt>
      <trkpt lat="45.8075" lon="4.73145">
        <ele>326.67392</ele>
        <time>2023-07-10T15:05:19.000Z</time>
      </trkpt>
      <trkpt lat="45.80743" lon="4.73139">
        <ele>326.67075</ele>
        <time>2023-07-10T15:05:20.000Z</time>
      </trkpt>
      <trkpt lat="45.80737" lon="4.73133">
        <ele>326.64008</ele>
        <time>2023-07-10T15:05:21.000Z</time>
      </trkpt>
      <trkpt lat="45.8073" lon="4.73126">
        <ele>326.60199</ele>
        <time>2023-07-10T15:05:22.000Z</time>
      </trkpt>
      <trkpt lat="45.80723" lon="4.7312">
        <ele>326.57306</ele>
        <time>2023-07-10T15:05:23.000Z</time>
      </trkpt>
      <trkpt lat="45.80717" lon="4.73113">
        <ele>326.45038</ele>
        <time>2023-07-10T15:05:24.000Z</time>
      </trkpt>
      <trkpt lat="45.8071" lon="4.73105">
        <ele>326.34659</ele>
        <time>2023-07-10T15:05:25.000Z</time>
      </trkpt>
      <trkpt lat="45.80704" lon="4.73098">
        <ele>326.25174</ele>
        <time>2023-07-10T15:05:26.000Z</time>
      </trkpt>
      <trkpt lat="45.80697" lon="4.7309">
        <ele>326.14139</ele>
        <time>2023-07-10T15:05:27.000Z</time>
      </trkpt>
      <trkpt lat="45.8069" lon="4.73083">
        <ele>326.00949</ele>
        <time>2023-07-10T15:05:28.000Z</time>
      </trkpt>
      <trkpt lat="45.80683" lon="4.73076">
        <ele>325.88696</ele>
        <time>2023-07-10T15:05:29.000Z</time>
      </trkpt>
      <trkpt lat="45.80677" lon="4.73069">
        <ele>325.7377</ele>
        <time>2023-07-10T15:05:30.000Z</time>
      </trkpt>
      <trkpt lat="45.80671" lon="4.73061">
        <ele>325.59689</ele>
        <time>2023-07-10T15:05:31.000Z</time>
      </trkpt>
      <trkpt lat="45.80664" lon="4.73053">
        <ele>325.46939</ele>
        <time>2023-07-10T15:05:32.000Z</time>
      </trkpt>
      <trkpt lat="45.80659" lon="4.73044">
        <ele>325.3638</ele>
        <time>2023-07-10T15:05:33.000Z</time>
      </trkpt>
      <trkpt lat="45.80654" lon="4.73033">
        <ele>325.22372</ele>
        <time>2023-07-10T15:05:34.000Z</time>
      </trkpt>
      <trkpt lat="45.80648" lon="4.73023">
        <ele>325.07404</ele>
        <time>2023-07-10T15:05:35.000Z</time>
      </trkpt>
      <trkpt lat="45.80643" lon="4.73012">
        <ele>324.99091</ele>
        <time>2023-07-10T15:05:36.000Z</time>
      </trkpt>
      <trkpt lat="45.80637" lon="4.73001">
        <ele>324.88495</ele>
        <time>2023-07-10T15:05:37.000Z</time>
      </trkpt>
      <trkpt lat="45.8063" lon="4.72991">
        <ele>324.77145</ele>
        <time>2023-07-10T15:05:38.000Z</time>
      </trkpt>
      <trkpt lat="45.80624" lon="4.72983">
        <ele>324.68719</ele>
        <time>2023-07-10T15:05:39.000Z</time>
      </trkpt>
      <trkpt lat="45.80617" lon="4.72975">
        <ele>324.39523</ele>
        <time>2023-07-10T15:05:40.000Z</time>
      </trkpt>
      <trkpt lat="45.80612" lon="4.72967">
        <ele>324.09064</ele>
        <time>2023-07-10T15:05:41.000Z</time>
      </trkpt>
      <trkpt lat="45.80606" lon="4.72961">
        <ele>324.6666</ele>
        <time>2023-07-10T15:05:42.000Z</time>
      </trkpt>
      <trkpt lat="45.80603" lon="4.72956">
        <ele>325.3432</ele>
        <time>2023-07-10T15:05:43.000Z</time>
      </trkpt>
      <trkpt lat="45.80599" lon="4.72953">
        <ele>326.10992</ele>
        <time>2023-07-10T15:05:44.000Z</time>
      </trkpt>
      <trkpt lat="45.80596" lon="4.7295">
        <ele>326.90417</ele>
        <time>2023-07-10T15:05:45.000Z</time>
      </trkpt>
      <trkpt lat="45.8059" lon="4.72951">
        <ele>327.59216</ele>
        <time>2023-07-10T15:05:46.000Z</time>
      </trkpt>
      <trkpt lat="45.80586" lon="4.72953">
        <ele>328.20941</ele>
        <time>2023-07-10T15:05:47.000Z</time>
      </trkpt>
      <trkpt lat="45.80582" lon="4.72957">
        <ele>328.83353</ele>
        <time>2023-07-10T15:05:48.000Z</time>
      </trkpt>
      <trkpt lat="45.8058" lon="4.7296">
        <ele>329.38739</ele>
        <time>2023-07-10T15:05:49.000Z</time>
      </trkpt>
      <trkpt lat="45.80578" lon="4.72965">
        <ele>329.94904</ele>
        <time>2023-07-10T15:05:50.000Z</time>
      </trkpt>
      <trkpt lat="45.80576" lon="4.72969">
        <ele>330.48328</ele>
        <time>2023-07-10T15:05:51.000Z</time>
      </trkpt>
      <trkpt lat="45.80574" lon="4.72972">
        <ele>330.98636</ele>
        <time>2023-07-10T15:05:52.000Z</time>
      </trkpt>
      <trkpt lat="45.80571" lon="4.72977">
        <ele>331.44061</ele>
        <time>2023-07-10T15:05:53.000Z</time>
      </trkpt>
      <trkpt lat="45.80569" lon="4.72981">
        <ele>331.86157</ele>
        <time>2023-07-10T15:05:54.000Z</time>
      </trkpt>
      <trkpt lat="45.80567" lon="4.72985">
        <ele>332.42792</ele>
        <time>2023-07-10T15:05:55.000Z</time>
      </trkpt>
      <trkpt lat="45.80564" lon="4.72989">
        <ele>332.90741</ele>
        <time>2023-07-10T15:05:56.000Z</time>
      </trkpt>
      <trkpt lat="45.80562" lon="4.72994">
        <ele>333.40805</ele>
        <time>2023-07-10T15:05:57.000Z</time>
      </trkpt>
      <trkpt lat="45.80559" lon="4.72998">
        <ele>334.04114</ele>
        <time>2023-07-10T15:05:58.000Z</time>
      </trkpt>
      <trkpt lat="45.80557" lon="4.73002">
        <ele>334.22229</ele>
        <time>2023-07-10T15:05:59.000Z</time>
      </trkpt>
      <trkpt lat="45.80554" lon="4.73006">
        <ele>334.59537</ele>
        <time>2023-07-10T15:06:00.000Z</time>
      </trkpt>
      <trkpt lat="45.80552" lon="4.7301">
        <ele>334.91034</ele>
        <time>2023-07-10T15:06:01.000Z</time>
      </trkpt>
      <trkpt lat="45.80549" lon="4.73015">
        <ele>334.35959</ele>
        <time>2023-07-10T15:06:02.000Z</time>
      </trkpt>
      <trkpt lat="45.80546" lon="4.7302">
        <ele>333.71201</ele>
        <time>2023-07-10T15:06:03.000Z</time>
      </trkpt>
      <trkpt lat="45.80544" lon="4.73025">
        <ele>333.01245</ele>
        <time>2023-07-10T15:06:04.000Z</time>
      </trkpt>
      <trkpt lat="45.80541" lon="4.7303">
        <ele>332.28534</ele>
        <time>2023-07-10T15:06:05.000Z</time>
      </trkpt>
      <trkpt lat="45.80538" lon="4.73035">
        <ele>331.65131</ele>
        <time>2023-07-10T15:06:06.000Z</time>
      </trkpt>
      <trkpt lat="45.80536" lon="4.7304">
        <ele>331.10196</ele>
        <time>2023-07-10T15:06:07.000Z</time>
      </trkpt>
      <trkpt lat="45.80533" lon="4.73045">
        <ele>330.0376</ele>
        <time>2023-07-10T15:06:08.000Z</time>
      </trkpt>
      <trkpt lat="45.8053" lon="4.7305">
        <ele>329.05679</ele>
        <time>2023-07-10T15:06:09.000Z</time>
      </trkpt>
      <trkpt lat="45.80528" lon="4.73056">
        <ele>328.06339</ele>
        <time>2023-07-10T15:06:10.000Z</time>
      </trkpt>
      <trkpt lat="45.80525" lon="4.7306">
        <ele>327.08585</ele>
        <time>2023-07-10T15:06:11.000Z</time>
      </trkpt>
      <trkpt lat="45.80523" lon="4.73064">
        <ele>326.16962</ele>
        <time>2023-07-10T15:06:12.000Z</time>
      </trkpt>
      <trkpt lat="45.8052" lon="4.73069">
        <ele>325.2789</ele>
        <time>2023-07-10T15:06:13.000Z</time>
      </trkpt>
      <trkpt lat="45.80518" lon="4.73073">
        <ele>324.45013</ele>
        <time>2023-07-10T15:06:14.000Z</time>
      </trkpt>
      <trkpt lat="45.80515" lon="4.73078">
        <ele>323.49982</ele>
        <time>2023-07-10T15:06:15.000Z</time>
      </trkpt>
      <trkpt lat="45.80513" lon="4.73082">
        <ele>322.56104</ele>
        <time>2023-07-10T15:06:16.000Z</time>
      </trkpt>
      <trkpt lat="45.80512" lon="4.73087">
        <ele>321.61249</ele>
        <time>2023-07-10T15:06:17.000Z</time>
      </trkpt>
      <trkpt lat="45.80509" lon="4.73092">
        <ele>320.52148</ele>
        <time>2023-07-10T15:06:18.000Z</time>
      </trkpt>
      <trkpt lat="45.80507" lon="4.73097">
        <ele>319.88046</ele>
        <time>2023-07-10T15:06:19.000Z</time>
      </trkpt>
      <trkpt lat="45.80504" lon="4.73101">
        <ele>319.26135</ele>
        <time>2023-07-10T15:06:20.000Z</time>
      </trkpt>
      <trkpt lat="45.80501" lon="4.73106">
        <ele>318.65665</ele>
        <time>2023-07-10T15:06:21.000Z</time>
      </trkpt>
      <trkpt lat="45.80497" lon="4.73112">
        <ele>318.09122</ele>
        <time>2023-07-10T15:06:22.000Z</time>
      </trkpt>
      <trkpt lat="45.80496" lon="4.73116">
        <ele>317.50879</ele>
        <time>2023-07-10T15:06:23.000Z</time>
      </trkpt>
      <trkpt lat="45.80494" lon="4.73119">
        <ele>316.94659</ele>
        <time>2023-07-10T15:06:24.000Z</time>
      </trkpt>
      <trkpt lat="45.80492" lon="4.73119">
        <ele>316.44778</ele>
        <time>2023-07-10T15:06:25.000Z</time>
      </trkpt>
      <trkpt lat="45.80489" lon="4.7312">
        <ele>315.93854</ele>
        <time>2023-07-10T15:06:57.000Z</time>
      </trkpt>
      <trkpt lat="45.80488" lon="4.73122">
        <ele>315.43512</ele>
        <time>2023-07-10T15:06:58.000Z</time>
      </trkpt>
      <trkpt lat="45.80486" lon="4.73124">
        <ele>315.41415</ele>
        <time>2023-07-10T15:06:59.000Z</time>
      </trkpt>
      <trkpt lat="45.80483" lon="4.73125">
        <ele>315.38788</ele>
        <time>2023-07-10T15:07:00.000Z</time>
      </trkpt>
      <trkpt lat="45.80481" lon="4.73128">
        <ele>315.38736</ele>
        <time>2023-07-10T15:07:01.000Z</time>
      </trkpt>
      <trkpt lat="45.80479" lon="4.73129">
        <ele>315.39618</ele>
        <time>2023-07-10T15:07:02.000Z</time>
      </trkpt>
      <trkpt lat="45.80475" lon="4.73132">
        <ele>315.40564</ele>
        <time>2023-07-10T15:07:04.000Z</time>
      </trkpt>
      <trkpt lat="45.80471" lon="4.73134">
        <ele>315.44519</ele>
        <time>2023-07-10T15:07:05.000Z</time>
      </trkpt>
      <trkpt lat="45.80468" lon="4.73137">
        <ele>315.47775</ele>
        <time>2023-07-10T15:07:06.000Z</time>
      </trkpt>
      <trkpt lat="45.80464" lon="4.73139">
        <ele>315.49545</ele>
        <time>2023-07-10T15:07:07.000Z</time>
      </trkpt>
      <trkpt lat="45.80461" lon="4.73143">
        <ele>315.49506</ele>
        <time>2023-07-10T15:07:08.000Z</time>
      </trkpt>
      <trkpt lat="45.80457" lon="4.73146">
        <ele>315.50861</ele>
        <time>2023-07-10T15:07:09.000Z</time>
      </trkpt>
      <trkpt lat="45.80453" lon="4.7315">
        <ele>315.50983</ele>
        <time>2023-07-10T15:07:10.000Z</time>
      </trkpt>
      <trkpt lat="45.80447" lon="4.73152">
        <ele>315.49161</ele>
        <time>2023-07-10T15:07:11.000Z</time>
      </trkpt>
      <trkpt lat="45.80442" lon="4.73156">
        <ele>315.52863</ele>
        <time>2023-07-10T15:07:12.000Z</time>
      </trkpt>
      <trkpt lat="45.80436" lon="4.73159">
        <ele>315.57791</ele>
        <time>2023-07-10T15:07:13.000Z</time>
      </trkpt>
      <trkpt lat="45.80432" lon="4.73163">
        <ele>315.59631</ele>
        <time>2023-07-10T15:07:14.000Z</time>
      </trkpt>
      <trkpt lat="45.80425" lon="4.73165">
        <ele>315.56967</ele>
        <time>2023-07-10T15:07:15.000Z</time>
      </trkpt>
      <trkpt lat="45.80421" lon="4.73169">
        <ele>315.49918</ele>
        <time>2023-07-10T15:07:16.000Z</time>
      </trkpt>
      <trkpt lat="45.80416" lon="4.73171">
        <ele>315.39819</ele>
        <time>2023-07-10T15:07:17.000Z</time>
      </trkpt>
      <trkpt lat="45.8041" lon="4.73174">
        <ele>315.31607</ele>
        <time>2023-07-10T15:07:18.000Z</time>
      </trkpt>
      <trkpt lat="45.80402" lon="4.73178">
        <ele>315.1778</ele>
        <time>2023-07-10T15:07:19.000Z</time>
      </trkpt>
      <trkpt lat="45.80395" lon="4.73183">
        <ele>315.01788</ele>
        <time>2023-07-10T15:07:20.000Z</time>
      </trkpt>
      <trkpt lat="45.80385" lon="4.73189">
        <ele>314.84207</ele>
        <time>2023-07-10T15:07:21.000Z</time>
      </trkpt>
      <trkpt lat="45.80377" lon="4.73195">
        <ele>314.62955</ele>
        <time>2023-07-10T15:07:22.000Z</time>
      </trkpt>
      <trkpt lat="45.80372" lon="4.732">
        <ele>314.42334</ele>
        <time>2023-07-10T15:07:23.000Z</time>
      </trkpt>
      <trkpt lat="45.80365" lon="4.73202">
        <ele>314.15625</ele>
        <time>2023-07-10T15:07:24.000Z</time>
      </trkpt>
      <trkpt lat="45.80359" lon="4.73205">
        <ele>313.82355</ele>
        <time>2023-07-10T15:07:25.000Z</time>
      </trkpt>
      <trkpt lat="45.80356" lon="4.73208">
        <ele>313.49121</ele>
        <time>2023-07-10T15:07:26.000Z</time>
      </trkpt>
      <trkpt lat="45.80353" lon="4.73212">
        <ele>313.1236</ele>
        <time>2023-07-10T15:07:27.000Z</time>
      </trkpt>
      <trkpt lat="45.8035" lon="4.73216">
        <ele>312.78088</ele>
        <time>2023-07-10T15:07:28.000Z</time>
      </trkpt>
      <trkpt lat="45.80349" lon="4.73221">
        <ele>312.37027</ele>
        <time>2023-07-10T15:07:29.000Z</time>
      </trkpt>
      <trkpt lat="45.80348" lon="4.73226">
        <ele>311.96765</ele>
        <time>2023-07-10T15:07:30.000Z</time>
      </trkpt>
      <trkpt lat="45.80345" lon="4.7323">
        <ele>311.5878</ele>
        <time>2023-07-10T15:07:31.000Z</time>
      </trkpt>
      <trkpt lat="45.80343" lon="4.73233">
        <ele>311.14883</ele>
        <time>2023-07-10T15:07:32.000Z</time>
      </trkpt>
      <trkpt lat="45.8034" lon="4.73237">
        <ele>310.76456</ele>
        <time>2023-07-10T15:07:33.000Z</time>
      </trkpt>
      <trkpt lat="45.80338" lon="4.73241">
        <ele>310.4147</ele>
        <time>2023-07-10T15:07:34.000Z</time>
      </trkpt>
      <trkpt lat="45.80336" lon="4.73246">
        <ele>310.11642</ele>
        <time>2023-07-10T15:07:35.000Z</time>
      </trkpt>
      <trkpt lat="45.80333" lon="4.73249">
        <ele>309.8338</ele>
        <time>2023-07-10T15:07:36.000Z</time>
      </trkpt>
      <trkpt lat="45.80329" lon="4.73252">
        <ele>309.59186</ele>
        <time>2023-07-10T15:07:37.000Z</time>
      </trkpt>
      <trkpt lat="45.80326" lon="4.73254">
        <ele>309.35614</ele>
        <time>2023-07-10T15:07:38.000Z</time>
      </trkpt>
      <trkpt lat="45.80322" lon="4.73254">
        <ele>309.16486</ele>
        <time>2023-07-10T15:07:39.000Z</time>
      </trkpt>
      <trkpt lat="45.80318" lon="4.73253">
        <ele>309.04202</ele>
        <time>2023-07-10T15:07:40.000Z</time>
      </trkpt>
      <trkpt lat="45.80314" lon="4.73251">
        <ele>308.95383</ele>
        <time>2023-07-10T15:07:41.000Z</time>
      </trkpt>
      <trkpt lat="45.80309" lon="4.73249">
        <ele>308.8804</ele>
        <time>2023-07-10T15:07:42.000Z</time>
      </trkpt>
      <trkpt lat="45.80305" lon="4.73247">
        <ele>308.77332</ele>
        <time>2023-07-10T15:07:43.000Z</time>
      </trkpt>
      <trkpt lat="45.80301" lon="4.73245">
        <ele>308.741</ele>
        <time>2023-07-10T15:07:44.000Z</time>
      </trkpt>
      <trkpt lat="45.80297" lon="4.73245">
        <ele>308.7561</ele>
        <time>2023-07-10T15:07:45.000Z</time>
      </trkpt>
      <trkpt lat="45.80293" lon="4.73245">
        <ele>308.82425</ele>
        <time>2023-07-10T15:07:46.000Z</time>
      </trkpt>
      <trkpt lat="45.80289" lon="4.73245">
        <ele>308.93634</ele>
        <time>2023-07-10T15:07:47.000Z</time>
      </trkpt>
      <trkpt lat="45.80284" lon="4.73246">
        <ele>308.98868</ele>
        <time>2023-07-10T15:07:48.000Z</time>
      </trkpt>
      <trkpt lat="45.8028" lon="4.73246">
        <ele>309.09479</ele>
        <time>2023-07-10T15:07:49.000Z</time>
      </trkpt>
      <trkpt lat="45.80276" lon="4.73247">
        <ele>309.23669</ele>
        <time>2023-07-10T15:07:50.000Z</time>
      </trkpt>
      <trkpt lat="45.80272" lon="4.73248">
        <ele>309.40759</ele>
        <time>2023-07-10T15:07:51.000Z</time>
      </trkpt>
      <trkpt lat="45.80269" lon="4.73249">
        <ele>309.53128</ele>
        <time>2023-07-10T15:07:52.000Z</time>
      </trkpt>
      <trkpt lat="45.80264" lon="4.73249">
        <ele>309.59634</ele>
        <time>2023-07-10T15:07:53.000Z</time>
      </trkpt>
      <trkpt lat="45.8026" lon="4.7325">
        <ele>309.68277</ele>
        <time>2023-07-10T15:07:54.000Z</time>
      </trkpt>
      <trkpt lat="45.80255" lon="4.7325">
        <ele>309.75751</ele>
        <time>2023-07-10T15:07:55.000Z</time>
      </trkpt>
      <trkpt lat="45.8025" lon="4.7325">
        <ele>309.86237</ele>
        <time>2023-07-10T15:07:56.000Z</time>
      </trkpt>
      <trkpt lat="45.80246" lon="4.7325">
        <ele>309.91556</ele>
        <time>2023-07-10T15:07:57.000Z</time>
      </trkpt>
      <trkpt lat="45.80241" lon="4.7325">
        <ele>309.99423</ele>
        <time>2023-07-10T15:07:58.000Z</time>
      </trkpt>
      <trkpt lat="45.80237" lon="4.7325">
        <ele>310.05881</ele>
        <time>2023-07-10T15:07:59.000Z</time>
      </trkpt>
      <trkpt lat="45.80232" lon="4.73249">
        <ele>310.06567</ele>
        <time>2023-07-10T15:08:00.000Z</time>
      </trkpt>
      <trkpt lat="45.80226" lon="4.73248">
        <ele>310.06058</ele>
        <time>2023-07-10T15:08:01.000Z</time>
      </trkpt>
      <trkpt lat="45.8022" lon="4.73249">
        <ele>310.05576</ele>
        <time>2023-07-10T15:08:02.000Z</time>
      </trkpt>
      <trkpt lat="45.80215" lon="4.73249">
        <ele>310.0874</ele>
        <time>2023-07-10T15:08:03.000Z</time>
      </trkpt>
      <trkpt lat="45.8021" lon="4.73247">
        <ele>310.08197</ele>
        <time>2023-07-10T15:08:04.000Z</time>
      </trkpt>
      <trkpt lat="45.80204" lon="4.73248">
        <ele>310.0787</ele>
        <time>2023-07-10T15:08:05.000Z</time>
      </trkpt>
      <trkpt lat="45.80199" lon="4.73248">
        <ele>310.00491</ele>
        <time>2023-07-10T15:08:06.000Z</time>
      </trkpt>
      <trkpt lat="45.80194" lon="4.7325">
        <ele>309.93771</ele>
        <time>2023-07-10T15:08:07.000Z</time>
      </trkpt>
      <trkpt lat="45.80189" lon="4.73251">
        <ele>309.94595</ele>
        <time>2023-07-10T15:08:08.000Z</time>
      </trkpt>
      <trkpt lat="45.80183" lon="4.7325">
        <ele>310.02057</ele>
        <time>2023-07-10T15:08:09.000Z</time>
      </trkpt>
      <trkpt lat="45.80177" lon="4.73249">
        <ele>310.03168</ele>
        <time>2023-07-10T15:08:10.000Z</time>
      </trkpt>
      <trkpt lat="45.80171" lon="4.7325">
        <ele>310.00565</ele>
        <time>2023-07-10T15:08:11.000Z</time>
      </trkpt>
      <trkpt lat="45.80164" lon="4.73251">
        <ele>309.95865</ele>
        <time>2023-07-10T15:08:12.000Z</time>
      </trkpt>
      <trkpt lat="45.8016" lon="4.73252">
        <ele>309.94342</ele>
        <time>2023-07-10T15:08:13.000Z</time>
      </trkpt>
      <trkpt lat="45.80154" lon="4.73252">
        <ele>309.90143</ele>
        <time>2023-07-10T15:08:14.000Z</time>
      </trkpt>
      <trkpt lat="45.8015" lon="4.73252">
        <ele>309.91302</ele>
        <time>2023-07-10T15:08:15.000Z</time>
      </trkpt>
      <trkpt lat="45.80143" lon="4.73252">
        <ele>309.91959</ele>
        <time>2023-07-10T15:08:16.000Z</time>
      </trkpt>
      <trkpt lat="45.80138" lon="4.73251">
        <ele>309.86801</ele>
        <time>2023-07-10T15:08:17.000Z</time>
      </trkpt>
      <trkpt lat="45.80133" lon="4.73251">
        <ele>309.66742</ele>
        <time>2023-07-10T15:08:18.000Z</time>
      </trkpt>
      <trkpt lat="45.80129" lon="4.73252">
        <ele>309.51987</ele>
        <time>2023-07-10T15:08:19.000Z</time>
      </trkpt>
      <trkpt lat="45.80124" lon="4.73252">
        <ele>309.3616</ele>
        <time>2023-07-10T15:08:20.000Z</time>
      </trkpt>
      <trkpt lat="45.80118" lon="4.73253">
        <ele>309.21466</ele>
        <time>2023-07-10T15:08:21.000Z</time>
      </trkpt>
      <trkpt lat="45.80114" lon="4.73254">
        <ele>309.07919</ele>
        <time>2023-07-10T15:08:22.000Z</time>
      </trkpt>
      <trkpt lat="45.80109" lon="4.73255">
        <ele>308.93158</ele>
        <time>2023-07-10T15:08:23.000Z</time>
      </trkpt>
      <trkpt lat="45.80104" lon="4.73256">
        <ele>308.78525</ele>
        <time>2023-07-10T15:08:24.000Z</time>
      </trkpt>
      <trkpt lat="45.80099" lon="4.73258">
        <ele>308.65979</ele>
        <time>2023-07-10T15:08:25.000Z</time>
      </trkpt>
      <trkpt lat="45.80095" lon="4.73259">
        <ele>308.56949</ele>
        <time>2023-07-10T15:08:26.000Z</time>
      </trkpt>
      <trkpt lat="45.8009" lon="4.7326">
        <ele>308.50934</ele>
        <time>2023-07-10T15:08:27.000Z</time>
      </trkpt>
      <trkpt lat="45.80085" lon="4.73262">
        <ele>308.43387</ele>
        <time>2023-07-10T15:08:28.000Z</time>
      </trkpt>
      <trkpt lat="45.80081" lon="4.73264">
        <ele>308.26285</ele>
        <time>2023-07-10T15:08:29.000Z</time>
      </trkpt>
      <trkpt lat="45.80076" lon="4.73266">
        <ele>308.12152</ele>
        <time>2023-07-10T15:08:30.000Z</time>
      </trkpt>
      <trkpt lat="45.80072" lon="4.73266">
        <ele>307.9982</ele>
        <time>2023-07-10T15:08:31.000Z</time>
      </trkpt>
      <trkpt lat="45.80068" lon="4.73268">
        <ele>307.93027</ele>
        <time>2023-07-10T15:08:32.000Z</time>
      </trkpt>
      <trkpt lat="45.80064" lon="4.7327">
        <ele>307.82343</ele>
        <time>2023-07-10T15:08:33.000Z</time>
      </trkpt>
      <trkpt lat="45.8006" lon="4.73271">
        <ele>307.73257</ele>
        <time>2023-07-10T15:08:34.000Z</time>
      </trkpt>
      <trkpt lat="45.80054" lon="4.73272">
        <ele>307.61093</ele>
        <time>2023-07-10T15:08:35.000Z</time>
      </trkpt>
      <trkpt lat="45.8005" lon="4.73274">
        <ele>307.46707</ele>
        <time>2023-07-10T15:08:36.000Z</time>
      </trkpt>
      <trkpt lat="45.80045" lon="4.73277">
        <ele>307.42401</ele>
        <time>2023-07-10T15:08:37.000Z</time>
      </trkpt>
      <trkpt lat="45.80039" lon="4.73277">
        <ele>307.47867</ele>
        <time>2023-07-10T15:08:38.000Z</time>
      </trkpt>
      <trkpt lat="45.80033" lon="4.73279">
        <ele>307.51407</ele>
        <time>2023-07-10T15:08:39.000Z</time>
      </trkpt>
      <trkpt lat="45.80028" lon="4.73281">
        <ele>307.59113</ele>
        <time>2023-07-10T15:08:40.000Z</time>
      </trkpt>
      <trkpt lat="45.80023" lon="4.73282">
        <ele>307.58093</ele>
        <time>2023-07-10T15:08:41.000Z</time>
      </trkpt>
      <trkpt lat="45.80018" lon="4.73283">
        <ele>307.56558</ele>
        <time>2023-07-10T15:08:42.000Z</time>
      </trkpt>
      <trkpt lat="45.80013" lon="4.73285">
        <ele>307.60028</ele>
        <time>2023-07-10T15:08:43.000Z</time>
      </trkpt>
      <trkpt lat="45.80007" lon="4.73286">
        <ele>307.62653</ele>
        <time>2023-07-10T15:08:44.000Z</time>
      </trkpt>
      <trkpt lat="45.80001" lon="4.73285">
        <ele>307.6322</ele>
        <time>2023-07-10T15:08:45.000Z</time>
      </trkpt>
      <trkpt lat="45.79996" lon="4.73286">
        <ele>307.61392</ele>
        <time>2023-07-10T15:08:46.000Z</time>
      </trkpt>
      <trkpt lat="45.7999" lon="4.73287">
        <ele>307.57932</ele>
        <time>2023-07-10T15:08:47.000Z</time>
      </trkpt>
      <trkpt lat="45.79985" lon="4.73287">
        <ele>307.5174</ele>
        <time>2023-07-10T15:08:48.000Z</time>
      </trkpt>
      <trkpt lat="45.7998" lon="4.73288">
        <ele>307.48505</ele>
        <time>2023-07-10T15:08:49.000Z</time>
      </trkpt>
      <trkpt lat="45.79975" lon="4.73291">
        <ele>307.43677</ele>
        <time>2023-07-10T15:08:50.000Z</time>
      </trkpt>
      <trkpt lat="45.79969" lon="4.73295">
        <ele>307.37213</ele>
        <time>2023-07-10T15:08:51.000Z</time>
      </trkpt>
      <trkpt lat="45.79965" lon="4.733">
        <ele>307.34457</ele>
        <time>2023-07-10T15:08:52.000Z</time>
      </trkpt>
      <trkpt lat="45.79962" lon="4.73306">
        <ele>307.43774</ele>
        <time>2023-07-10T15:08:53.000Z</time>
      </trkpt>
      <trkpt lat="45.79959" lon="4.73313">
        <ele>307.49228</ele>
        <time>2023-07-10T15:08:54.000Z</time>
      </trkpt>
      <trkpt lat="45.79958" lon="4.7332">
        <ele>307.55975</ele>
        <time>2023-07-10T15:08:55.000Z</time>
      </trkpt>
      <trkpt lat="45.79958" lon="4.73327">
        <ele>307.54886</ele>
        <time>2023-07-10T15:08:56.000Z</time>
      </trkpt>
      <trkpt lat="45.79959" lon="4.73334">
        <ele>307.51385</ele>
        <time>2023-07-10T15:08:57.000Z</time>
      </trkpt>
      <trkpt lat="45.7996" lon="4.73342">
        <ele>307.51514</ele>
        <time>2023-07-10T15:08:58.000Z</time>
      </trkpt>
      <trkpt lat="45.79962" lon="4.73348">
        <ele>307.46759</ele>
        <time>2023-07-10T15:08:59.000Z</time>
      </trkpt>
      <trkpt lat="45.79962" lon="4.73354">
        <ele>307.39703</ele>
        <time>2023-07-10T15:09:00.000Z</time>
      </trkpt>
      <trkpt lat="45.79963" lon="4.7336">
        <ele>307.4166</ele>
        <time>2023-07-10T15:09:01.000Z</time>
      </trkpt>
      <trkpt lat="45.79964" lon="4.73366">
        <ele>307.4198</ele>
        <time>2023-07-10T15:09:02.000Z</time>
      </trkpt>
      <trkpt lat="45.79964" lon="4.73372">
        <ele>307.39069</ele>
        <time>2023-07-10T15:09:03.000Z</time>
      </trkpt>
      <trkpt lat="45.79963" lon="4.73378">
        <ele>307.35083</ele>
        <time>2023-07-10T15:09:04.000Z</time>
      </trkpt>
      <trkpt lat="45.79961" lon="4.73383">
        <ele>307.11322</ele>
        <time>2023-07-10T15:09:05.000Z</time>
      </trkpt>
      <trkpt lat="45.79958" lon="4.73387">
        <ele>306.88995</ele>
        <time>2023-07-10T15:09:06.000Z</time>
      </trkpt>
      <trkpt lat="45.79955" lon="4.7339">
        <ele>306.62518</ele>
        <time>2023-07-10T15:09:07.000Z</time>
      </trkpt>
      <trkpt lat="45.79951" lon="4.73395">
        <ele>306.43988</ele>
        <time>2023-07-10T15:09:08.000Z</time>
      </trkpt>
      <trkpt lat="45.79946" lon="4.73397">
        <ele>306.25452</ele>
        <time>2023-07-10T15:09:09.000Z</time>
      </trkpt>
      <trkpt lat="45.79942" lon="4.73401">
        <ele>306.06586</ele>
        <time>2023-07-10T15:09:10.000Z</time>
      </trkpt>
      <trkpt lat="45.79937" lon="4.73404">
        <ele>305.86334</ele>
        <time>2023-07-10T15:09:11.000Z</time>
      </trkpt>
      <trkpt lat="45.79933" lon="4.73407">
        <ele>305.63867</ele>
        <time>2023-07-10T15:09:12.000Z</time>
      </trkpt>
      <trkpt lat="45.79928" lon="4.73411">
        <ele>305.38043</ele>
        <time>2023-07-10T15:09:13.000Z</time>
      </trkpt>
      <trkpt lat="45.79923" lon="4.73413">
        <ele>305.11102</ele>
        <time>2023-07-10T15:09:14.000Z</time>
      </trkpt>
      <trkpt lat="45.79918" lon="4.73416">
        <ele>304.84473</ele>
        <time>2023-07-10T15:09:15.000Z</time>
      </trkpt>
      <trkpt lat="45.79912" lon="4.7342">
        <ele>304.65067</ele>
        <time>2023-07-10T15:09:16.000Z</time>
      </trkpt>
      <trkpt lat="45.79907" lon="4.73423">
        <ele>304.41714</ele>
        <time>2023-07-10T15:09:17.000Z</time>
      </trkpt>
      <trkpt lat="45.79901" lon="4.73427">
        <ele>304.13855</ele>
        <time>2023-07-10T15:09:18.000Z</time>
      </trkpt>
      <trkpt lat="45.79895" lon="4.73427">
        <ele>304.20044</ele>
        <time>2023-07-10T15:09:19.000Z</time>
      </trkpt>
      <trkpt lat="45.79887" lon="4.73428">
        <ele>304.27908</ele>
        <time>2023-07-10T15:09:20.000Z</time>
      </trkpt>
      <trkpt lat="45.79882" lon="4.73425">
        <ele>304.30035</ele>
        <time>2023-07-10T15:09:21.000Z</time>
      </trkpt>
      <trkpt lat="45.79876" lon="4.73424">
        <ele>304.3504</ele>
        <time>2023-07-10T15:09:22.000Z</time>
      </trkpt>
      <trkpt lat="45.79869" lon="4.73422">
        <ele>304.35135</ele>
        <time>2023-07-10T15:09:23.000Z</time>
      </trkpt>
      <trkpt lat="45.79863" lon="4.7342">
        <ele>304.3801</ele>
        <time>2023-07-10T15:09:24.000Z</time>
      </trkpt>
      <trkpt lat="45.79857" lon="4.73419">
        <ele>304.64728</ele>
        <time>2023-07-10T15:09:25.000Z</time>
      </trkpt>
      <trkpt lat="45.79852" lon="4.73417">
        <ele>304.80664</ele>
        <time>2023-07-10T15:09:26.000Z</time>
      </trkpt>
      <trkpt lat="45.79845" lon="4.73415">
        <ele>304.98288</ele>
        <time>2023-07-10T15:09:27.000Z</time>
      </trkpt>
      <trkpt lat="45.7984" lon="4.73413">
        <ele>305.1308</ele>
        <time>2023-07-10T15:09:28.000Z</time>
      </trkpt>
      <trkpt lat="45.79835" lon="4.7341">
        <ele>305.30295</ele>
        <time>2023-07-10T15:09:29.000Z</time>
      </trkpt>
      <trkpt lat="45.79828" lon="4.73409">
        <ele>305.45209</ele>
        <time>2023-07-10T15:09:30.000Z</time>
      </trkpt>
      <trkpt lat="45.79822" lon="4.73407">
        <ele>305.69223</ele>
        <time>2023-07-10T15:09:31.000Z</time>
      </trkpt>
      <trkpt lat="45.79817" lon="4.73405">
        <ele>305.95105</ele>
        <time>2023-07-10T15:09:32.000Z</time>
      </trkpt>
      <trkpt lat="45.79812" lon="4.73405">
        <ele>306.16586</ele>
        <time>2023-07-10T15:09:33.000Z</time>
      </trkpt>
      <trkpt lat="45.79806" lon="4.73403">
        <ele>306.45035</ele>
        <time>2023-07-10T15:09:34.000Z</time>
      </trkpt>
      <trkpt lat="45.798" lon="4.73402">
        <ele>306.70578</ele>
        <time>2023-07-10T15:09:35.000Z</time>
      </trkpt>
      <trkpt lat="45.79795" lon="4.73402">
        <ele>307.02081</ele>
        <time>2023-07-10T15:09:36.000Z</time>
      </trkpt>
      <trkpt lat="45.7979" lon="4.734">
        <ele>307.35895</ele>
        <time>2023-07-10T15:09:37.000Z</time>
      </trkpt>
      <trkpt lat="45.79784" lon="4.73396">
        <ele>307.7088</ele>
        <time>2023-07-10T15:09:38.000Z</time>
      </trkpt>
      <trkpt lat="45.7978" lon="4.73394">
        <ele>307.74878</ele>
        <time>2023-07-10T15:09:39.000Z</time>
      </trkpt>
      <trkpt lat="45.79774" lon="4.73394">
        <ele>307.80725</ele>
        <time>2023-07-10T15:09:40.000Z</time>
      </trkpt>
      <trkpt lat="45.79768" lon="4.73392">
        <ele>307.74927</ele>
        <time>2023-07-10T15:09:41.000Z</time>
      </trkpt>
      <trkpt lat="45.79762" lon="4.7339">
        <ele>307.72678</ele>
        <time>2023-07-10T15:09:42.000Z</time>
      </trkpt>
      <trkpt lat="45.79756" lon="4.73388">
        <ele>307.72836</ele>
        <time>2023-07-10T15:09:43.000Z</time>
      </trkpt>
      <trkpt lat="45.79751" lon="4.7339">
        <ele>307.67886</ele>
        <time>2023-07-10T15:09:44.000Z</time>
      </trkpt>
      <trkpt lat="45.79747" lon="4.73393">
        <ele>307.50211</ele>
        <time>2023-07-10T15:09:45.000Z</time>
      </trkpt>
      <trkpt lat="45.79742" lon="4.73395">
        <ele>307.42007</ele>
        <time>2023-07-10T15:09:46.000Z</time>
      </trkpt>
      <trkpt lat="45.79738" lon="4.73397">
        <ele>307.35403</ele>
        <time>2023-07-10T15:09:47.000Z</time>
      </trkpt>
      <trkpt lat="45.79734" lon="4.73398">
        <ele>307.21014</ele>
        <time>2023-07-10T15:09:48.000Z</time>
      </trkpt>
      <trkpt lat="45.79729" lon="4.73399">
        <ele>307.01825</ele>
        <time>2023-07-10T15:09:49.000Z</time>
      </trkpt>
      <trkpt lat="45.79725" lon="4.73402">
        <ele>306.82513</ele>
        <time>2023-07-10T15:09:50.000Z</time>
      </trkpt>
      <trkpt lat="45.7972" lon="4.73404">
        <ele>306.57516</ele>
        <time>2023-07-10T15:09:51.000Z</time>
      </trkpt>
      <trkpt lat="45.79716" lon="4.73406">
        <ele>306.32645</ele>
        <time>2023-07-10T15:09:52.000Z</time>
      </trkpt>
      <trkpt lat="45.79712" lon="4.73406">
        <ele>306.0755</ele>
        <time>2023-07-10T15:09:53.000Z</time>
      </trkpt>
      <trkpt lat="45.79708" lon="4.73409">
        <ele>305.79132</ele>
        <time>2023-07-10T15:09:54.000Z</time>
      </trkpt>
      <trkpt lat="45.79705" lon="4.7341">
        <ele>305.46234</ele>
        <time>2023-07-10T15:09:55.000Z</time>
      </trkpt>
      <trkpt lat="45.79702" lon="4.73411">
        <ele>305.07639</ele>
        <time>2023-07-10T15:09:56.000Z</time>
      </trkpt>
      <trkpt lat="45.79698" lon="4.73412">
        <ele>304.67139</ele>
        <time>2023-07-10T15:09:57.000Z</time>
      </trkpt>
      <trkpt lat="45.79695" lon="4.73413">
        <ele>304.31311</ele>
        <time>2023-07-10T15:09:58.000Z</time>
      </trkpt>
      <trkpt lat="45.7969" lon="4.73414">
        <ele>303.9263</ele>
        <time>2023-07-10T15:09:59.000Z</time>
      </trkpt>
      <trkpt lat="45.79686" lon="4.73414">
        <ele>303.51041</ele>
        <time>2023-07-10T15:10:00.000Z</time>
      </trkpt>
      <trkpt lat="45.79681" lon="4.73417">
        <ele>303.25089</ele>
        <time>2023-07-10T15:10:01.000Z</time>
      </trkpt>
      <trkpt lat="45.79676" lon="4.73418">
        <ele>302.93359</ele>
        <time>2023-07-10T15:10:02.000Z</time>
      </trkpt>
      <trkpt lat="45.79671" lon="4.73421">
        <ele>302.59848</ele>
        <time>2023-07-10T15:10:03.000Z</time>
      </trkpt>
      <trkpt lat="45.79666" lon="4.73422">
        <ele>302.25809</ele>
        <time>2023-07-10T15:10:04.000Z</time>
      </trkpt>
      <trkpt lat="45.79661" lon="4.73423">
        <ele>301.95663</ele>
        <time>2023-07-10T15:10:05.000Z</time>
      </trkpt>
      <trkpt lat="45.79656" lon="4.73425">
        <ele>301.6875</ele>
        <time>2023-07-10T15:10:06.000Z</time>
      </trkpt>
      <trkpt lat="45.7965" lon="4.73426">
        <ele>301.42416</ele>
        <time>2023-07-10T15:10:07.000Z</time>
      </trkpt>
      <trkpt lat="45.79644" lon="4.73428">
        <ele>301.28552</ele>
        <time>2023-07-10T15:10:08.000Z</time>
      </trkpt>
      <trkpt lat="45.79639" lon="4.73429">
        <ele>301.14883</ele>
        <time>2023-07-10T15:10:09.000Z</time>
      </trkpt>
      <trkpt lat="45.79633" lon="4.7343">
        <ele>301.09882</ele>
        <time>2023-07-10T15:10:10.000Z</time>
      </trkpt>
      <trkpt lat="45.79628" lon="4.73431">
        <ele>300.81927</ele>
        <time>2023-07-10T15:10:11.000Z</time>
      </trkpt>
      <trkpt lat="45.79623" lon="4.73432">
        <ele>300.57208</ele>
        <time>2023-07-10T15:10:12.000Z</time>
      </trkpt>
      <trkpt lat="45.79617" lon="4.73432">
        <ele>300.34677</ele>
        <time>2023-07-10T15:10:13.000Z</time>
      </trkpt>
      <trkpt lat="45.79612" lon="4.73431">
        <ele>300.07477</ele>
        <time>2023-07-10T15:10:14.000Z</time>
      </trkpt>
      <trkpt lat="45.79607" lon="4.73431">
        <ele>299.8598</ele>
        <time>2023-07-10T15:10:15.000Z</time>
      </trkpt>
      <trkpt lat="45.79604" lon="4.73431">
        <ele>299.65887</ele>
        <time>2023-07-10T15:10:16.000Z</time>
      </trkpt>
      <trkpt lat="45.79602" lon="4.7343">
        <ele>299.54913</ele>
        <time>2023-07-10T15:10:17.000Z</time>
      </trkpt>
      <trkpt lat="45.796" lon="4.73429">
        <ele>299.40732</ele>
        <time>2023-07-10T15:10:19.000Z</time>
      </trkpt>
      <trkpt lat="45.79598" lon="4.73429">
        <ele>299.28891</ele>
        <time>2023-07-10T15:10:27.000Z</time>
      </trkpt>
      <trkpt lat="45.796" lon="4.7343">
        <ele>299.15213</ele>
        <time>2023-07-10T15:10:34.000Z</time>
      </trkpt>
      <trkpt lat="45.79599" lon="4.73434">
        <ele>298.95944</ele>
        <time>2023-07-10T15:11:56.000Z</time>
      </trkpt>
      <trkpt lat="45.79599" lon="4.73437">
        <ele>298.68723</ele>
        <time>2023-07-10T15:15:24.000Z</time>
      </trkpt>
      <trkpt lat="45.79597" lon="4.73436">
        <ele>298.45901</ele>
        <time>2023-07-10T15:15:38.000Z</time>
      </trkpt>
      <trkpt lat="45.79595" lon="4.73437">
        <ele>298.27374</ele>
        <time>2023-07-10T15:15:39.000Z</time>
      </trkpt>
      <trkpt lat="45.79593" lon="4.73438">
        <ele>298.15305</ele>
        <time>2023-07-10T15:15:40.000Z</time>
      </trkpt>
      <trkpt lat="45.79591" lon="4.73438">
        <ele>298.02716</ele>
        <time>2023-07-10T15:15:41.000Z</time>
      </trkpt>
      <trkpt lat="45.79588" lon="4.73439">
        <ele>297.89081</ele>
        <time>2023-07-10T15:15:42.000Z</time>
      </trkpt>
      <trkpt lat="45.79584" lon="4.73439">
        <ele>297.66266</ele>
        <time>2023-07-10T15:15:43.000Z</time>
      </trkpt>
      <trkpt lat="45.79581" lon="4.7344">
        <ele>297.45081</ele>
        <time>2023-07-10T15:15:44.000Z</time>
      </trkpt>
      <trkpt lat="45.79577" lon="4.73441">
        <ele>297.18622</ele>
        <time>2023-07-10T15:15:45.000Z</time>
      </trkpt>
      <trkpt lat="45.79573" lon="4.73442">
        <ele>297.13516</ele>
        <time>2023-07-10T15:15:46.000Z</time>
      </trkpt>
      <trkpt lat="45.79568" lon="4.73444">
        <ele>297.02676</ele>
        <time>2023-07-10T15:15:47.000Z</time>
      </trkpt>
      <trkpt lat="45.79564" lon="4.73444">
        <ele>296.90332</ele>
        <time>2023-07-10T15:15:48.000Z</time>
      </trkpt>
      <trkpt lat="45.7956" lon="4.73446">
        <ele>296.80634</ele>
        <time>2023-07-10T15:15:49.000Z</time>
      </trkpt>
      <trkpt lat="45.79555" lon="4.73446">
        <ele>296.81757</ele>
        <time>2023-07-10T15:15:50.000Z</time>
      </trkpt>
      <trkpt lat="45.79551" lon="4.73448">
        <ele>296.81219</ele>
        <time>2023-07-10T15:15:51.000Z</time>
      </trkpt>
      <trkpt lat="45.79546" lon="4.7345">
        <ele>296.79694</ele>
        <time>2023-07-10T15:15:52.000Z</time>
      </trkpt>
      <trkpt lat="45.79543" lon="4.73451">
        <ele>296.56891</ele>
        <time>2023-07-10T15:15:53.000Z</time>
      </trkpt>
      <trkpt lat="45.79541" lon="4.73451">
        <ele>296.39755</ele>
        <time>2023-07-10T15:15:54.000Z</time>
      </trkpt>
      <trkpt lat="45.79538" lon="4.7345">
        <ele>296.27151</ele>
        <time>2023-07-10T15:16:26.000Z</time>
      </trkpt>
      <trkpt lat="45.79536" lon="4.73451">
        <ele>296.18768</ele>
        <time>2023-07-10T15:16:27.000Z</time>
      </trkpt>
      <trkpt lat="45.79534" lon="4.73451">
        <ele>296.2027</ele>
        <time>2023-07-10T15:16:28.000Z</time>
      </trkpt>
      <trkpt lat="45.79531" lon="4.73452">
        <ele>296.20529</ele>
        <time>2023-07-10T15:16:29.000Z</time>
      </trkpt>
      <trkpt lat="45.79528" lon="4.73454">
        <ele>296.21078</ele>
        <time>2023-07-10T15:16:30.000Z</time>
      </trkpt>
      <trkpt lat="45.79524" lon="4.73456">
        <ele>296.21677</ele>
        <time>2023-07-10T15:16:31.000Z</time>
      </trkpt>
      <trkpt lat="45.7952" lon="4.73457">
        <ele>296.21539</ele>
        <time>2023-07-10T15:16:32.000Z</time>
      </trkpt>
      <trkpt lat="45.79516" lon="4.7346">
        <ele>296.20322</ele>
        <time>2023-07-10T15:16:33.000Z</time>
      </trkpt>
      <trkpt lat="45.79511" lon="4.73462">
        <ele>296.21832</ele>
        <time>2023-07-10T15:16:34.000Z</time>
      </trkpt>
      <trkpt lat="45.79507" lon="4.73465">
        <ele>296.21454</ele>
        <time>2023-07-10T15:16:35.000Z</time>
      </trkpt>
      <trkpt lat="45.79503" lon="4.73467">
        <ele>296.173</ele>
        <time>2023-07-10T15:16:36.000Z</time>
      </trkpt>
      <trkpt lat="45.79498" lon="4.7347">
        <ele>296.13211</ele>
        <time>2023-07-10T15:16:37.000Z</time>
      </trkpt>
      <trkpt lat="45.79492" lon="4.73474">
        <ele>296.08917</ele>
        <time>2023-07-10T15:16:38.000Z</time>
      </trkpt>
      <trkpt lat="45.79488" lon="4.73478">
        <ele>296.15771</ele>
        <time>2023-07-10T15:16:39.000Z</time>
      </trkpt>
      <trkpt lat="45.79483" lon="4.73482">
        <ele>296.26706</ele>
        <time>2023-07-10T15:16:40.000Z</time>
      </trkpt>
      <trkpt lat="45.79478" lon="4.73485">
        <ele>296.29803</ele>
        <time>2023-07-10T15:16:41.000Z</time>
      </trkpt>
      <trkpt lat="45.79472" lon="4.73489">
        <ele>296.07425</ele>
        <time>2023-07-10T15:16:42.000Z</time>
      </trkpt>
      <trkpt lat="45.79467" lon="4.73491">
        <ele>295.85504</ele>
        <time>2023-07-10T15:16:43.000Z</time>
      </trkpt>
      <trkpt lat="45.79462" lon="4.73497">
        <ele>295.81436</ele>
        <time>2023-07-10T15:16:44.000Z</time>
      </trkpt>
      <trkpt lat="45.79457" lon="4.735">
        <ele>295.7431</ele>
        <time>2023-07-10T15:16:45.000Z</time>
      </trkpt>
      <trkpt lat="45.79451" lon="4.73504">
        <ele>295.67072</ele>
        <time>2023-07-10T15:16:46.000Z</time>
      </trkpt>
      <trkpt lat="45.79446" lon="4.73505">
        <ele>295.59616</ele>
        <time>2023-07-10T15:16:47.000Z</time>
      </trkpt>
      <trkpt lat="45.7944" lon="4.73505">
        <ele>295.53119</ele>
        <time>2023-07-10T15:16:48.000Z</time>
      </trkpt>
      <trkpt lat="45.79435" lon="4.73507">
        <ele>295.47467</ele>
        <time>2023-07-10T15:16:49.000Z</time>
      </trkpt>
      <trkpt lat="45.79428" lon="4.7351">
        <ele>295.45026</ele>
        <time>2023-07-10T15:16:50.000Z</time>
      </trkpt>
      <trkpt lat="45.79423" lon="4.73513">
        <ele>295.38681</ele>
        <time>2023-07-10T15:16:51.000Z</time>
      </trkpt>
      <trkpt lat="45.79417" lon="4.73515">
        <ele>295.31702</ele>
        <time>2023-07-10T15:16:52.000Z</time>
      </trkpt>
      <trkpt lat="45.7941" lon="4.73513">
        <ele>295.21924</ele>
        <time>2023-07-10T15:16:53.000Z</time>
      </trkpt>
      <trkpt lat="45.79405" lon="4.73512">
        <ele>295.08328</ele>
        <time>2023-07-10T15:16:54.000Z</time>
      </trkpt>
      <trkpt lat="45.79399" lon="4.7351">
        <ele>295.00208</ele>
        <time>2023-07-10T15:16:55.000Z</time>
      </trkpt>
      <trkpt lat="45.79394" lon="4.73507">
        <ele>294.99884</ele>
        <time>2023-07-10T15:16:56.000Z</time>
      </trkpt>
      <trkpt lat="45.79388" lon="4.73505">
        <ele>295.06888</ele>
        <time>2023-07-10T15:16:57.000Z</time>
      </trkpt>
      <trkpt lat="45.79382" lon="4.73503">
        <ele>295.22015</ele>
        <time>2023-07-10T15:16:58.000Z</time>
      </trkpt>
      <trkpt lat="45.79376" lon="4.735">
        <ele>295.39819</ele>
        <time>2023-07-10T15:16:59.000Z</time>
      </trkpt>
      <trkpt lat="45.79371" lon="4.73495">
        <ele>295.51508</ele>
        <time>2023-07-10T15:17:00.000Z</time>
      </trkpt>
      <trkpt lat="45.79365" lon="4.73493">
        <ele>295.63174</ele>
        <time>2023-07-10T15:17:01.000Z</time>
      </trkpt>
      <trkpt lat="45.79361" lon="4.73489">
        <ele>295.97491</ele>
        <time>2023-07-10T15:17:02.000Z</time>
      </trkpt>
      <trkpt lat="45.79355" lon="4.73486">
        <ele>296.03024</ele>
        <time>2023-07-10T15:17:03.000Z</time>
      </trkpt>
      <trkpt lat="45.79351" lon="4.73483">
        <ele>296.16132</ele>
        <time>2023-07-10T15:17:04.000Z</time>
      </trkpt>
      <trkpt lat="45.79348" lon="4.73481">
        <ele>296.29059</ele>
        <time>2023-07-10T15:17:05.000Z</time>
      </trkpt>
      <trkpt lat="45.79342" lon="4.73478">
        <ele>296.41315</ele>
        <time>2023-07-10T15:17:06.000Z</time>
      </trkpt>
      <trkpt lat="45.79337" lon="4.73475">
        <ele>296.54636</ele>
        <time>2023-07-10T15:17:07.000Z</time>
      </trkpt>
      <trkpt lat="45.79331" lon="4.73471">
        <ele>296.63202</ele>
        <time>2023-07-10T15:17:08.000Z</time>
      </trkpt>
      <trkpt lat="45.79326" lon="4.73467">
        <ele>296.64304</ele>
        <time>2023-07-10T15:17:09.000Z</time>
      </trkpt>
      <trkpt lat="45.79322" lon="4.73466">
        <ele>296.66083</ele>
        <time>2023-07-10T15:17:10.000Z</time>
      </trkpt>
      <trkpt lat="45.79316" lon="4.73463">
        <ele>296.6922</ele>
        <time>2023-07-10T15:17:11.000Z</time>
      </trkpt>
      <trkpt lat="45.79311" lon="4.7346">
        <ele>296.93277</ele>
        <time>2023-07-10T15:17:12.000Z</time>
      </trkpt>
      <trkpt lat="45.79306" lon="4.73457">
        <ele>297.27814</ele>
        <time>2023-07-10T15:17:13.000Z</time>
      </trkpt>
      <trkpt lat="45.793" lon="4.73455">
        <ele>297.685</ele>
        <time>2023-07-10T15:17:14.000Z</time>
      </trkpt>
      <trkpt lat="45.79294" lon="4.73454">
        <ele>297.79263</ele>
        <time>2023-07-10T15:17:15.000Z</time>
      </trkpt>
      <trkpt lat="45.79287" lon="4.73452">
        <ele>297.83582</ele>
        <time>2023-07-10T15:17:16.000Z</time>
      </trkpt>
      <trkpt lat="45.79282" lon="4.73454">
        <ele>297.79303</ele>
        <time>2023-07-10T15:17:17.000Z</time>
      </trkpt>
      <trkpt lat="45.79277" lon="4.73454">
        <ele>297.66946</ele>
        <time>2023-07-10T15:17:18.000Z</time>
      </trkpt>
      <trkpt lat="45.79271" lon="4.73452">
        <ele>297.44489</ele>
        <time>2023-07-10T15:17:19.000Z</time>
      </trkpt>
      <trkpt lat="45.79264" lon="4.7345">
        <ele>297.39157</ele>
        <time>2023-07-10T15:17:20.000Z</time>
      </trkpt>
      <trkpt lat="45.79258" lon="4.73449">
        <ele>297.46893</ele>
        <time>2023-07-10T15:17:21.000Z</time>
      </trkpt>
      <trkpt lat="45.79251" lon="4.73447">
        <ele>297.62701</ele>
        <time>2023-07-10T15:17:22.000Z</time>
      </trkpt>
      <trkpt lat="45.79246" lon="4.73445">
        <ele>297.57315</ele>
        <time>2023-07-10T15:17:23.000Z</time>
      </trkpt>
      <trkpt lat="45.79239" lon="4.7344">
        <ele>297.51959</ele>
        <time>2023-07-10T15:17:24.000Z</time>
      </trkpt>
      <trkpt lat="45.79233" lon="4.73435">
        <ele>297.43915</ele>
        <time>2023-07-10T15:17:25.000Z</time>
      </trkpt>
      <trkpt lat="45.79226" lon="4.7343">
        <ele>297.36148</ele>
        <time>2023-07-10T15:17:26.000Z</time>
      </trkpt>
      <trkpt lat="45.79219" lon="4.73426">
        <ele>297.20416</ele>
        <time>2023-07-10T15:17:27.000Z</time>
      </trkpt>
      <trkpt lat="45.79214" lon="4.73421">
        <ele>295.98425</ele>
        <time>2023-07-10T15:17:28.000Z</time>
      </trkpt>
      <trkpt lat="45.79208" lon="4.7342">
        <ele>294.80551</ele>
        <time>2023-07-10T15:17:29.000Z</time>
      </trkpt>
      <trkpt lat="45.79201" lon="4.73418">
        <ele>293.50018</ele>
        <time>2023-07-10T15:17:30.000Z</time>
      </trkpt>
      <trkpt lat="45.79194" lon="4.73415">
        <ele>292.17825</ele>
        <time>2023-07-10T15:17:31.000Z</time>
      </trkpt>
      <trkpt lat="45.79188" lon="4.73411">
        <ele>290.63751</ele>
        <time>2023-07-10T15:17:32.000Z</time>
      </trkpt>
      <trkpt lat="45.79181" lon="4.73408">
        <ele>289.07721</ele>
        <time>2023-07-10T15:17:33.000Z</time>
      </trkpt>
      <trkpt lat="45.79174" lon="4.73405">
        <ele>287.46802</ele>
        <time>2023-07-10T15:17:34.000Z</time>
      </trkpt>
      <trkpt lat="45.79168" lon="4.73401">
        <ele>286.12686</ele>
        <time>2023-07-10T15:17:35.000Z</time>
      </trkpt>
      <trkpt lat="45.79163" lon="4.73397">
        <ele>284.81335</ele>
        <time>2023-07-10T15:17:36.000Z</time>
      </trkpt>
      <trkpt lat="45.79158" lon="4.73394">
        <ele>283.52563</ele>
        <time>2023-07-10T15:17:37.000Z</time>
      </trkpt>
      <trkpt lat="45.79156" lon="4.73393">
        <ele>282.28922</ele>
        <time>2023-07-10T15:17:38.000Z</time>
      </trkpt>
      <trkpt lat="45.79152" lon="4.73393">
        <ele>281.01752</ele>
        <time>2023-07-10T15:17:39.000Z</time>
      </trkpt>
      <trkpt lat="45.79151" lon="4.73397">
        <ele>279.60809</ele>
        <time>2023-07-10T15:17:40.000Z</time>
      </trkpt>
      <trkpt lat="45.79152" lon="4.734">
        <ele>278.00381</ele>
        <time>2023-07-10T15:17:41.000Z</time>
      </trkpt>
      <trkpt lat="45.79149" lon="4.73401">
        <ele>276.35675</ele>
        <time>2023-07-10T15:17:42.000Z</time>
      </trkpt>
      <trkpt lat="45.79145" lon="4.73402">
        <ele>275.12018</ele>
        <time>2023-07-10T15:17:43.000Z</time>
      </trkpt>
      <trkpt lat="45.79142" lon="4.73404">
        <ele>273.80994</ele>
        <time>2023-07-10T15:17:44.000Z</time>
      </trkpt>
      <trkpt lat="45.79139" lon="4.73404">
        <ele>272.51785</ele>
        <time>2023-07-10T15:17:45.000Z</time>
      </trkpt>
      <trkpt lat="45.79136" lon="4.73405">
        <ele>271.18304</ele>
        <time>2023-07-10T15:17:46.000Z</time>
      </trkpt>
      <trkpt lat="45.79133" lon="4.73404">
        <ele>269.92929</ele>
        <time>2023-07-10T15:17:47.000Z</time>
      </trkpt>
      <trkpt lat="45.79129" lon="4.73405">
        <ele>269.77441</ele>
        <time>2023-07-10T15:17:48.000Z</time>
      </trkpt>
      <trkpt lat="45.79125" lon="4.73405">
        <ele>269.6102</ele>
        <time>2023-07-10T15:17:49.000Z</time>
      </trkpt>
      <trkpt lat="45.79121" lon="4.73405">
        <ele>269.5563</ele>
        <time>2023-07-10T15:17:50.000Z</time>
      </trkpt>
      <trkpt lat="45.79117" lon="4.73404">
        <ele>269.50781</ele>
        <time>2023-07-10T15:17:51.000Z</time>
      </trkpt>
      <trkpt lat="45.7911" lon="4.73401">
        <ele>269.46292</ele>
        <time>2023-07-10T15:17:52.000Z</time>
      </trkpt>
      <trkpt lat="45.79106" lon="4.73399">
        <ele>269.36499</ele>
        <time>2023-07-10T15:17:53.000Z</time>
      </trkpt>
      <trkpt lat="45.79102" lon="4.73399">
        <ele>269.30908</ele>
        <time>2023-07-10T15:17:54.000Z</time>
      </trkpt>
      <trkpt lat="45.79096" lon="4.73399">
        <ele>269.32294</ele>
        <time>2023-07-10T15:17:55.000Z</time>
      </trkpt>
      <trkpt lat="45.79091" lon="4.73399">
        <ele>269.3078</ele>
        <time>2023-07-10T15:17:56.000Z</time>
      </trkpt>
      <trkpt lat="45.79085" lon="4.73396">
        <ele>269.25833</ele>
        <time>2023-07-10T15:17:57.000Z</time>
      </trkpt>
      <trkpt lat="45.79079" lon="4.73395">
        <ele>269.18524</ele>
        <time>2023-07-10T15:17:58.000Z</time>
      </trkpt>
      <trkpt lat="45.79073" lon="4.73394">
        <ele>269.10101</ele>
        <time>2023-07-10T15:17:59.000Z</time>
      </trkpt>
      <trkpt lat="45.79068" lon="4.73392">
        <ele>268.97476</ele>
        <time>2023-07-10T15:18:00.000Z</time>
      </trkpt>
      <trkpt lat="45.79062" lon="4.7339">
        <ele>268.87051</ele>
        <time>2023-07-10T15:18:01.000Z</time>
      </trkpt>
      <trkpt lat="45.79056" lon="4.73388">
        <ele>268.7709</ele>
        <time>2023-07-10T15:18:02.000Z</time>
      </trkpt>
      <trkpt lat="45.7905" lon="4.73386">
        <ele>268.66675</ele>
        <time>2023-07-10T15:18:03.000Z</time>
      </trkpt>
      <trkpt lat="45.79044" lon="4.73384">
        <ele>268.56882</ele>
        <time>2023-07-10T15:18:04.000Z</time>
      </trkpt>
      <trkpt lat="45.79037" lon="4.73382">
        <ele>268.46222</ele>
        <time>2023-07-10T15:18:05.000Z</time>
      </trkpt>
      <trkpt lat="45.79031" lon="4.73381">
        <ele>268.37213</ele>
        <time>2023-07-10T15:18:06.000Z</time>
      </trkpt>
      <trkpt lat="45.79025" lon="4.73377">
        <ele>268.24655</ele>
        <time>2023-07-10T15:18:07.000Z</time>
      </trkpt>
      <trkpt lat="45.79019" lon="4.73375">
        <ele>268.1246</ele>
        <time>2023-07-10T15:18:08.000Z</time>
      </trkpt>
      <trkpt lat="45.79013" lon="4.73377">
        <ele>268.0061</ele>
        <time>2023-07-10T15:18:09.000Z</time>
      </trkpt>
      <trkpt lat="45.79008" lon="4.73378">
        <ele>267.86893</ele>
        <time>2023-07-10T15:18:10.000Z</time>
      </trkpt>
      <trkpt lat="45.79003" lon="4.73378">
        <ele>267.75287</ele>
        <time>2023-07-10T15:18:11.000Z</time>
      </trkpt>
      <trkpt lat="45.78996" lon="4.73376">
        <ele>267.67035</ele>
        <time>2023-07-10T15:18:12.000Z</time>
      </trkpt>
      <trkpt lat="45.78993" lon="4.7337">
        <ele>267.61273</ele>
        <time>2023-07-10T15:18:13.000Z</time>
      </trkpt>
      <trkpt lat="45.7899" lon="4.73366">
        <ele>267.54736</ele>
        <time>2023-07-10T15:18:14.000Z</time>
      </trkpt>
      <trkpt lat="45.78986" lon="4.73364">
        <ele>267.41217</ele>
        <time>2023-07-10T15:18:15.000Z</time>
      </trkpt>
      <trkpt lat="45.78981" lon="4.73362">
        <ele>267.31439</ele>
        <time>2023-07-10T15:18:16.000Z</time>
      </trkpt>
      <trkpt lat="45.78978" lon="4.73361">
        <ele>267.23422</ele>
        <time>2023-07-10T15:18:17.000Z</time>
      </trkpt>
      <trkpt lat="45.78973" lon="4.73357">
        <ele>267.14191</ele>
        <time>2023-07-10T15:18:18.000Z</time>
      </trkpt>
      <trkpt lat="45.78969" lon="4.73354">
        <ele>267.06259</ele>
        <time>2023-07-10T15:18:19.000Z</time>
      </trkpt>
      <trkpt lat="45.78965" lon="4.73352">
        <ele>266.96951</ele>
        <time>2023-07-10T15:18:20.000Z</time>
      </trkpt>
      <trkpt lat="45.78962" lon="4.7335">
        <ele>266.88663</ele>
        <time>2023-07-10T15:18:21.000Z</time>
      </trkpt>
      <trkpt lat="45.78959" lon="4.73349">
        <ele>266.8158</ele>
        <time>2023-07-10T15:18:22.000Z</time>
      </trkpt>
      <trkpt lat="45.78955" lon="4.73347">
        <ele>266.72278</ele>
        <time>2023-07-10T15:18:23.000Z</time>
      </trkpt>
      <trkpt lat="45.78951" lon="4.73345">
        <ele>266.67874</ele>
        <time>2023-07-10T15:18:24.000Z</time>
      </trkpt>
      <trkpt lat="45.78947" lon="4.73344">
        <ele>266.63062</ele>
        <time>2023-07-10T15:18:25.000Z</time>
      </trkpt>
      <trkpt lat="45.78943" lon="4.73343">
        <ele>266.56598</ele>
        <time>2023-07-10T15:18:26.000Z</time>
      </trkpt>
      <trkpt lat="45.7894" lon="4.73342">
        <ele>266.49799</ele>
        <time>2023-07-10T15:18:27.000Z</time>
      </trkpt>
      <trkpt lat="45.78937" lon="4.73341">
        <ele>266.4295</ele>
        <time>2023-07-10T15:18:28.000Z</time>
      </trkpt>
      <trkpt lat="45.78934" lon="4.73339">
        <ele>266.38217</ele>
        <time>2023-07-10T15:18:29.000Z</time>
      </trkpt>
      <trkpt lat="45.78931" lon="4.73338">
        <ele>266.33112</ele>
        <time>2023-07-10T15:18:30.000Z</time>
      </trkpt>
      <trkpt lat="45.78928" lon="4.73338">
        <ele>266.25891</ele>
        <time>2023-07-10T15:18:31.000Z</time>
      </trkpt>
      <trkpt lat="45.78925" lon="4.73337">
        <ele>266.16833</ele>
        <time>2023-07-10T15:18:32.000Z</time>
      </trkpt>
      <trkpt lat="45.78921" lon="4.73337">
        <ele>266.07709</ele>
        <time>2023-07-10T15:18:33.000Z</time>
      </trkpt>
      <trkpt lat="45.78918" lon="4.73336">
        <ele>265.97357</ele>
        <time>2023-07-10T15:18:34.000Z</time>
      </trkpt>
      <trkpt lat="45.78915" lon="4.73335">
        <ele>265.88403</ele>
        <time>2023-07-10T15:18:35.000Z</time>
      </trkpt>
      <trkpt lat="45.78912" lon="4.73334">
        <ele>265.77194</ele>
        <time>2023-07-10T15:18:36.000Z</time>
      </trkpt>
      <trkpt lat="45.78909" lon="4.73335">
        <ele>265.67932</ele>
        <time>2023-07-10T15:18:37.000Z</time>
      </trkpt>
      <trkpt lat="45.78906" lon="4.73338">
        <ele>265.59286</ele>
        <time>2023-07-10T15:18:38.000Z</time>
      </trkpt>
      <trkpt lat="45.78904" lon="4.7334">
        <ele>265.52417</ele>
        <time>2023-07-10T15:18:39.000Z</time>
      </trkpt>
      <trkpt lat="45.78902" lon="4.73339">
        <ele>265.49469</ele>
        <time>2023-07-10T15:18:40.000Z</time>
      </trkpt>
      <trkpt lat="45.789" lon="4.73337">
        <ele>265.4306</ele>
        <time>2023-07-10T15:18:41.000Z</time>
      </trkpt>
      <trkpt lat="45.78898" lon="4.73335">
        <ele>265.34619</ele>
        <time>2023-07-10T15:18:42.000Z</time>
      </trkpt>
      <trkpt lat="45.78896" lon="4.73332">
        <ele>265.27835</ele>
        <time>2023-07-10T15:18:43.000Z</time>
      </trkpt>
      <trkpt lat="45.78894" lon="4.7333">
        <ele>265.2019</ele>
        <time>2023-07-10T15:18:44.000Z</time>
      </trkpt>
      <trkpt lat="45.78892" lon="4.73328">
        <ele>265.15421</ele>
        <time>2023-07-10T15:18:45.000Z</time>
      </trkpt>
      <trkpt lat="45.78889" lon="4.73326">
        <ele>265.134</ele>
        <time>2023-07-10T15:18:46.000Z</time>
      </trkpt>
      <trkpt lat="45.78884" lon="4.73322">
        <ele>265.13898</ele>
        <time>2023-07-10T15:18:47.000Z</time>
      </trkpt>
      <trkpt lat="45.7888" lon="4.7332">
        <ele>265.14932</ele>
        <time>2023-07-10T15:18:48.000Z</time>
      </trkpt>
      <trkpt lat="45.78877" lon="4.73317">
        <ele>265.17514</ele>
        <time>2023-07-10T15:18:49.000Z</time>
      </trkpt>
      <trkpt lat="45.78873" lon="4.73312">
        <ele>265.21893</ele>
        <time>2023-07-10T15:18:50.000Z</time>
      </trkpt>
      <trkpt lat="45.78869" lon="4.7331">
        <ele>265.26367</ele>
        <time>2023-07-10T15:18:51.000Z</time>
      </trkpt>
      <trkpt lat="45.78865" lon="4.73306">
        <ele>265.27155</ele>
        <time>2023-07-10T15:18:52.000Z</time>
      </trkpt>
      <trkpt lat="45.78861" lon="4.73303">
        <ele>265.14526</ele>
        <time>2023-07-10T15:18:53.000Z</time>
      </trkpt>
      <trkpt lat="45.78857" lon="4.733">
        <ele>264.99686</ele>
        <time>2023-07-10T15:18:54.000Z</time>
      </trkpt>
      <trkpt lat="45.78853" lon="4.73297">
        <ele>264.76819</ele>
        <time>2023-07-10T15:18:55.000Z</time>
      </trkpt>
      <trkpt lat="45.78848" lon="4.73293">
        <ele>264.52872</ele>
        <time>2023-07-10T15:18:56.000Z</time>
      </trkpt>
      <trkpt lat="45.78843" lon="4.73289">
        <ele>264.29266</ele>
        <time>2023-07-10T15:18:57.000Z</time>
      </trkpt>
      <trkpt lat="45.78838" lon="4.73286">
        <ele>264.03564</ele>
        <time>2023-07-10T15:18:58.000Z</time>
      </trkpt>
      <trkpt lat="45.78832" lon="4.73282">
        <ele>263.75876</ele>
        <time>2023-07-10T15:18:59.000Z</time>
      </trkpt>
      <trkpt lat="45.78827" lon="4.73279">
        <ele>263.49344</ele>
        <time>2023-07-10T15:19:00.000Z</time>
      </trkpt>
      <trkpt lat="45.7882" lon="4.73275">
        <ele>263.22363</ele>
        <time>2023-07-10T15:19:01.000Z</time>
      </trkpt>
      <trkpt lat="45.78814" lon="4.73273">
        <ele>262.84833</ele>
        <time>2023-07-10T15:19:02.000Z</time>
      </trkpt>
      <trkpt lat="45.78807" lon="4.73269">
        <ele>262.50598</ele>
        <time>2023-07-10T15:19:03.000Z</time>
      </trkpt>
      <trkpt lat="45.78801" lon="4.73266">
        <ele>262.1427</ele>
        <time>2023-07-10T15:19:04.000Z</time>
      </trkpt>
      <trkpt lat="45.78796" lon="4.73265">
        <ele>261.7262</ele>
        <time>2023-07-10T15:19:05.000Z</time>
      </trkpt>
      <trkpt lat="45.78789" lon="4.73265">
        <ele>261.32236</ele>
        <time>2023-07-10T15:19:06.000Z</time>
      </trkpt>
      <trkpt lat="45.78784" lon="4.73263">
        <ele>260.91824</ele>
        <time>2023-07-10T15:19:07.000Z</time>
      </trkpt>
      <trkpt lat="45.78777" lon="4.73261">
        <ele>260.12469</ele>
        <time>2023-07-10T15:19:08.000Z</time>
      </trkpt>
      <trkpt lat="45.7877" lon="4.73258">
        <ele>259.72269</ele>
        <time>2023-07-10T15:19:09.000Z</time>
      </trkpt>
      <trkpt lat="45.78763" lon="4.73257">
        <ele>259.31628</ele>
        <time>2023-07-10T15:19:10.000Z</time>
      </trkpt>
      <trkpt lat="45.78757" lon="4.73254">
        <ele>258.93555</ele>
        <time>2023-07-10T15:19:11.000Z</time>
      </trkpt>
      <trkpt lat="45.78751" lon="4.73251">
        <ele>258.61514</ele>
        <time>2023-07-10T15:19:12.000Z</time>
      </trkpt>
      <trkpt lat="45.78745" lon="4.7325">
        <ele>258.39951</ele>
        <time>2023-07-10T15:19:13.000Z</time>
      </trkpt>
      <trkpt lat="45.78741" lon="4.73251">
        <ele>258.14548</ele>
        <time>2023-07-10T15:19:14.000Z</time>
      </trkpt>
      <trkpt lat="45.78736" lon="4.73252">
        <ele>257.91901</ele>
        <time>2023-07-10T15:19:15.000Z</time>
      </trkpt>
      <trkpt lat="45.78732" lon="4.73255">
        <ele>257.7276</ele>
        <time>2023-07-10T15:19:16.000Z</time>
      </trkpt>
      <trkpt lat="45.78728" lon="4.73258">
        <ele>257.49261</ele>
        <time>2023-07-10T15:19:17.000Z</time>
      </trkpt>
      <trkpt lat="45.78722" lon="4.73259">
        <ele>257.22012</ele>
        <time>2023-07-10T15:19:18.000Z</time>
      </trkpt>
      <trkpt lat="45.78718" lon="4.73262">
        <ele>256.96194</ele>
        <time>2023-07-10T15:19:19.000Z</time>
      </trkpt>
      <trkpt lat="45.78714" lon="4.73266">
        <ele>256.67654</ele>
        <time>2023-07-10T15:19:20.000Z</time>
      </trkpt>
      <trkpt lat="45.7871" lon="4.73269">
        <ele>256.41913</ele>
        <time>2023-07-10T15:19:21.000Z</time>
      </trkpt>
      <trkpt lat="45.78706" lon="4.7327">
        <ele>256.19443</ele>
        <time>2023-07-10T15:19:22.000Z</time>
      </trkpt>
      <trkpt lat="45.78704" lon="4.73268">
        <ele>255.98824</ele>
        <time>2023-07-10T15:19:23.000Z</time>
      </trkpt>
      <trkpt lat="45.78702" lon="4.73268">
        <ele>255.77266</ele>
        <time>2023-07-10T15:19:26.000Z</time>
      </trkpt>
      <trkpt lat="45.78701" lon="4.73265">
        <ele>255.57072</ele>
        <time>2023-07-10T15:19:45.000Z</time>
      </trkpt>
      <trkpt lat="45.78699" lon="4.73262">
        <ele>255.27994</ele>
        <time>2023-07-10T15:19:47.000Z</time>
      </trkpt>
      <trkpt lat="45.78696" lon="4.73263">
        <ele>255.04672</ele>
        <time>2023-07-10T15:19:48.000Z</time>
      </trkpt>
      <trkpt lat="45.78693" lon="4.73265">
        <ele>255.17705</ele>
        <time>2023-07-10T15:19:49.000Z</time>
      </trkpt>
      <trkpt lat="45.78691" lon="4.73267">
        <ele>254.91214</ele>
        <time>2023-07-10T15:19:50.000Z</time>
      </trkpt>
      <trkpt lat="45.78689" lon="4.7327">
        <ele>254.66655</ele>
        <time>2023-07-10T15:19:51.000Z</time>
      </trkpt>
      <trkpt lat="45.78686" lon="4.73273">
        <ele>254.4166</ele>
        <time>2023-07-10T15:19:52.000Z</time>
      </trkpt>
      <trkpt lat="45.78684" lon="4.73276">
        <ele>254.17061</ele>
        <time>2023-07-10T15:19:53.000Z</time>
      </trkpt>
      <trkpt lat="45.78681" lon="4.7328">
        <ele>253.91338</ele>
        <time>2023-07-10T15:19:54.000Z</time>
      </trkpt>
      <trkpt lat="45.78678" lon="4.73282">
        <ele>253.696</ele>
        <time>2023-07-10T15:19:55.000Z</time>
      </trkpt>
      <trkpt lat="45.78677" lon="4.73285">
        <ele>253.54671</ele>
        <time>2023-07-10T15:19:56.000Z</time>
      </trkpt>
      <trkpt lat="45.78675" lon="4.73288">
        <ele>253.38431</ele>
        <time>2023-07-10T15:19:57.000Z</time>
      </trkpt>
      <trkpt lat="45.78673" lon="4.73293">
        <ele>253.22937</ele>
        <time>2023-07-10T15:19:58.000Z</time>
      </trkpt>
      <trkpt lat="45.78671" lon="4.73297">
        <ele>253.08833</ele>
        <time>2023-07-10T15:19:59.000Z</time>
      </trkpt>
      <trkpt lat="45.78669" lon="4.73301">
        <ele>252.90555</ele>
        <time>2023-07-10T15:20:00.000Z</time>
      </trkpt>
      <trkpt lat="45.78666" lon="4.73304">
        <ele>252.70703</ele>
        <time>2023-07-10T15:20:01.000Z</time>
      </trkpt>
      <trkpt lat="45.78664" lon="4.73307">
        <ele>252.27849</ele>
        <time>2023-07-10T15:20:02.000Z</time>
      </trkpt>
      <trkpt lat="45.78662" lon="4.73311">
        <ele>251.90848</ele>
        <time>2023-07-10T15:20:03.000Z</time>
      </trkpt>
      <trkpt lat="45.78659" lon="4.73314">
        <ele>251.50642</ele>
        <time>2023-07-10T15:20:04.000Z</time>
      </trkpt>
      <trkpt lat="45.78656" lon="4.73317">
        <ele>251.16028</ele>
        <time>2023-07-10T15:20:05.000Z</time>
      </trkpt>
      <trkpt lat="45.78653" lon="4.7332">
        <ele>250.78445</ele>
        <time>2023-07-10T15:20:06.000Z</time>
      </trkpt>
      <trkpt lat="45.7865" lon="4.73323">
        <ele>250.48325</ele>
        <time>2023-07-10T15:20:07.000Z</time>
      </trkpt>
      <trkpt lat="45.78647" lon="4.73326">
        <ele>250.11348</ele>
        <time>2023-07-10T15:20:08.000Z</time>
      </trkpt>
      <trkpt lat="45.78644" lon="4.7333">
        <ele>249.76099</ele>
        <time>2023-07-10T15:20:09.000Z</time>
      </trkpt>
      <trkpt lat="45.78641" lon="4.73334">
        <ele>249.38528</ele>
        <time>2023-07-10T15:20:10.000Z</time>
      </trkpt>
      <trkpt lat="45.78638" lon="4.73338">
        <ele>248.99136</ele>
        <time>2023-07-10T15:20:11.000Z</time>
      </trkpt>
      <trkpt lat="45.78636" lon="4.73342">
        <ele>248.57333</ele>
        <time>2023-07-10T15:20:12.000Z</time>
      </trkpt>
      <trkpt lat="45.78633" lon="4.73347">
        <ele>248.12405</ele>
        <time>2023-07-10T15:20:13.000Z</time>
      </trkpt>
      <trkpt lat="45.78631" lon="4.73351">
        <ele>247.69695</ele>
        <time>2023-07-10T15:20:14.000Z</time>
      </trkpt>
      <trkpt lat="45.78627" lon="4.73355">
        <ele>247.26936</ele>
        <time>2023-07-10T15:20:15.000Z</time>
      </trkpt>
      <trkpt lat="45.78624" lon="4.7336">
        <ele>246.76407</ele>
        <time>2023-07-10T15:20:16.000Z</time>
      </trkpt>
      <trkpt lat="45.78622" lon="4.73365">
        <ele>246.26895</ele>
        <time>2023-07-10T15:20:17.000Z</time>
      </trkpt>
      <trkpt lat="45.78619" lon="4.7337">
        <ele>245.771</ele>
        <time>2023-07-10T15:20:18.000Z</time>
      </trkpt>
      <trkpt lat="45.78615" lon="4.73374">
        <ele>245.29524</ele>
        <time>2023-07-10T15:20:19.000Z</time>
      </trkpt>
      <trkpt lat="45.78611" lon="4.73379">
        <ele>244.8143</ele>
        <time>2023-07-10T15:20:20.000Z</time>
      </trkpt>
      <trkpt lat="45.78608" lon="4.73385">
        <ele>244.31522</ele>
        <time>2023-07-10T15:20:21.000Z</time>
      </trkpt>
      <trkpt lat="45.78603" lon="4.73392">
        <ele>244.04134</ele>
        <time>2023-07-10T15:20:22.000Z</time>
      </trkpt>
      <trkpt lat="45.78599" lon="4.73398">
        <ele>243.79073</ele>
        <time>2023-07-10T15:20:23.000Z</time>
      </trkpt>
      <trkpt lat="45.78595" lon="4.73405">
        <ele>243.52267</ele>
        <time>2023-07-10T15:20:24.000Z</time>
      </trkpt>
      <trkpt lat="45.78591" lon="4.73411">
        <ele>243.18222</ele>
        <time>2023-07-10T15:20:25.000Z</time>
      </trkpt>
      <trkpt lat="45.78586" lon="4.73418">
        <ele>242.8689</ele>
        <time>2023-07-10T15:20:26.000Z</time>
      </trkpt>
      <trkpt lat="45.78581" lon="4.73424">
        <ele>242.54561</ele>
        <time>2023-07-10T15:20:27.000Z</time>
      </trkpt>
      <trkpt lat="45.78577" lon="4.73432">
        <ele>242.22104</ele>
        <time>2023-07-10T15:20:28.000Z</time>
      </trkpt>
      <trkpt lat="45.78572" lon="4.73437">
        <ele>241.86349</ele>
        <time>2023-07-10T15:20:29.000Z</time>
      </trkpt>
      <trkpt lat="45.78565" lon="4.73442">
        <ele>241.50159</ele>
        <time>2023-07-10T15:20:30.000Z</time>
      </trkpt>
      <trkpt lat="45.78558" lon="4.73443">
        <ele>241.12212</ele>
        <time>2023-07-10T15:20:31.000Z</time>
      </trkpt>
      <trkpt lat="45.78551" lon="4.73438">
        <ele>240.73637</ele>
        <time>2023-07-10T15:20:32.000Z</time>
      </trkpt>
      <trkpt lat="45.78547" lon="4.73431">
        <ele>240.35957</ele>
        <time>2023-07-10T15:20:33.000Z</time>
      </trkpt>
      <trkpt lat="45.78541" lon="4.73424">
        <ele>239.98203</ele>
        <time>2023-07-10T15:20:34.000Z</time>
      </trkpt>
      <trkpt lat="45.78535" lon="4.73419">
        <ele>239.65315</ele>
        <time>2023-07-10T15:20:35.000Z</time>
      </trkpt>
      <trkpt lat="45.78529" lon="4.73412">
        <ele>239.3689</ele>
        <time>2023-07-10T15:20:36.000Z</time>
      </trkpt>
      <trkpt lat="45.78525" lon="4.73405">
        <ele>239.07474</ele>
        <time>2023-07-10T15:20:37.000Z</time>
      </trkpt>
      <trkpt lat="45.78521" lon="4.73399">
        <ele>238.82254</ele>
        <time>2023-07-10T15:20:38.000Z</time>
      </trkpt>
      <trkpt lat="45.78516" lon="4.73394">
        <ele>238.61057</ele>
        <time>2023-07-10T15:20:39.000Z</time>
      </trkpt>
      <trkpt lat="45.78513" lon="4.7339">
        <ele>238.47501</ele>
        <time>2023-07-10T15:20:40.000Z</time>
      </trkpt>
      <trkpt lat="45.78509" lon="4.73386">
        <ele>238.38159</ele>
        <time>2023-07-10T15:20:41.000Z</time>
      </trkpt>
      <trkpt lat="45.78507" lon="4.73381">
        <ele>238.29878</ele>
        <time>2023-07-10T15:20:42.000Z</time>
      </trkpt>
      <trkpt lat="45.78505" lon="4.73378">
        <ele>238.19487</ele>
        <time>2023-07-10T15:20:43.000Z</time>
      </trkpt>
      <trkpt lat="45.78503" lon="4.73373">
        <ele>238.10696</ele>
        <time>2023-07-10T15:20:44.000Z</time>
      </trkpt>
      <trkpt lat="45.78502" lon="4.7337">
        <ele>238.04558</ele>
        <time>2023-07-10T15:20:45.000Z</time>
      </trkpt>
      <trkpt lat="45.785" lon="4.73365">
        <ele>238.07181</ele>
        <time>2023-07-10T15:20:46.000Z</time>
      </trkpt>
      <trkpt lat="45.78498" lon="4.7336">
        <ele>238.11618</ele>
        <time>2023-07-10T15:20:47.000Z</time>
      </trkpt>
      <trkpt lat="45.78496" lon="4.73355">
        <ele>238.19656</ele>
        <time>2023-07-10T15:20:48.000Z</time>
      </trkpt>
      <trkpt lat="45.78493" lon="4.73349">
        <ele>238.31137</ele>
        <time>2023-07-10T15:20:49.000Z</time>
      </trkpt>
      <trkpt lat="45.78492" lon="4.73343">
        <ele>238.42587</ele>
        <time>2023-07-10T15:20:50.000Z</time>
      </trkpt>
      <trkpt lat="45.7849" lon="4.73337">
        <ele>238.57698</ele>
        <time>2023-07-10T15:20:51.000Z</time>
      </trkpt>
      <trkpt lat="45.78489" lon="4.73331">
        <ele>238.7312</ele>
        <time>2023-07-10T15:20:52.000Z</time>
      </trkpt>
      <trkpt lat="45.78487" lon="4.73326">
        <ele>238.87273</ele>
        <time>2023-07-10T15:20:53.000Z</time>
      </trkpt>
      <trkpt lat="45.78485" lon="4.7332">
        <ele>239.00061</ele>
        <time>2023-07-10T15:20:54.000Z</time>
      </trkpt>
      <trkpt lat="45.78484" lon="4.73313">
        <ele>239.0988</ele>
        <time>2023-07-10T15:20:55.000Z</time>
      </trkpt>
      <trkpt lat="45.78482" lon="4.73309">
        <ele>239.19255</ele>
        <time>2023-07-10T15:20:56.000Z</time>
      </trkpt>
      <trkpt lat="45.7848" lon="4.73303">
        <ele>239.30942</ele>
        <time>2023-07-10T15:20:57.000Z</time>
      </trkpt>
      <trkpt lat="45.78478" lon="4.73298">
        <ele>239.42769</ele>
        <time>2023-07-10T15:20:58.000Z</time>
      </trkpt>
      <trkpt lat="45.78476" lon="4.73293">
        <ele>239.49834</ele>
        <time>2023-07-10T15:20:59.000Z</time>
      </trkpt>
      <trkpt lat="45.78474" lon="4.73287">
        <ele>239.53535</ele>
        <time>2023-07-10T15:21:00.000Z</time>
      </trkpt>
      <trkpt lat="45.78472" lon="4.73282">
        <ele>239.57944</ele>
        <time>2023-07-10T15:21:01.000Z</time>
      </trkpt>
      <trkpt lat="45.78469" lon="4.73276">
        <ele>239.66472</ele>
        <time>2023-07-10T15:21:02.000Z</time>
      </trkpt>
      <trkpt lat="45.78467" lon="4.7327">
        <ele>239.77534</ele>
        <time>2023-07-10T15:21:03.000Z</time>
      </trkpt>
      <trkpt lat="45.78465" lon="4.73266">
        <ele>239.87788</ele>
        <time>2023-07-10T15:21:04.000Z</time>
      </trkpt>
      <trkpt lat="45.78462" lon="4.73261">
        <ele>240.01924</ele>
        <time>2023-07-10T15:21:05.000Z</time>
      </trkpt>
      <trkpt lat="45.7846" lon="4.73255">
        <ele>240.10397</ele>
        <time>2023-07-10T15:21:06.000Z</time>
      </trkpt>
      <trkpt lat="45.78458" lon="4.7325">
        <ele>240.26978</ele>
        <time>2023-07-10T15:21:07.000Z</time>
      </trkpt>
      <trkpt lat="45.78456" lon="4.73244">
        <ele>240.38815</ele>
        <time>2023-07-10T15:21:08.000Z</time>
      </trkpt>
      <trkpt lat="45.78454" lon="4.7324">
        <ele>240.49431</ele>
        <time>2023-07-10T15:21:09.000Z</time>
      </trkpt>
      <trkpt lat="45.78453" lon="4.73235">
        <ele>240.62448</ele>
        <time>2023-07-10T15:21:10.000Z</time>
      </trkpt>
      <trkpt lat="45.78452" lon="4.7323">
        <ele>240.7356</ele>
        <time>2023-07-10T15:21:11.000Z</time>
      </trkpt>
      <trkpt lat="45.78454" lon="4.73225">
        <ele>240.9521</ele>
        <time>2023-07-10T15:21:12.000Z</time>
      </trkpt>
      <trkpt lat="45.78457" lon="4.73221">
        <ele>241.18442</ele>
        <time>2023-07-10T15:21:13.000Z</time>
      </trkpt>
      <trkpt lat="45.7846" lon="4.73219">
        <ele>241.38266</ele>
        <time>2023-07-10T15:21:14.000Z</time>
      </trkpt>
      <trkpt lat="45.78464" lon="4.73216">
        <ele>241.58513</ele>
        <time>2023-07-10T15:21:15.000Z</time>
      </trkpt>
      <trkpt lat="45.7847" lon="4.73212">
        <ele>241.82722</ele>
        <time>2023-07-10T15:21:16.000Z</time>
      </trkpt>
      <trkpt lat="45.78475" lon="4.7321">
        <ele>242.0175</ele>
        <time>2023-07-10T15:21:17.000Z</time>
      </trkpt>
      <trkpt lat="45.7848" lon="4.7321">
        <ele>242.17236</ele>
        <time>2023-07-10T15:21:18.000Z</time>
      </trkpt>
      <trkpt lat="45.78485" lon="4.73214">
        <ele>242.34026</ele>
        <time>2023-07-10T15:21:19.000Z</time>
      </trkpt>
      <trkpt lat="45.78487" lon="4.73219">
        <ele>242.46643</ele>
        <time>2023-07-10T15:21:20.000Z</time>
      </trkpt>
      <trkpt lat="45.78492" lon="4.73223">
        <ele>242.57451</ele>
        <time>2023-07-10T15:21:21.000Z</time>
      </trkpt>
      <trkpt lat="45.78494" lon="4.73228">
        <ele>242.66557</ele>
        <time>2023-07-10T15:21:22.000Z</time>
      </trkpt>
      <trkpt lat="45.78497" lon="4.73233">
        <ele>242.72549</ele>
        <time>2023-07-10T15:21:23.000Z</time>
      </trkpt>
      <trkpt lat="45.785" lon="4.73238">
        <ele>242.80115</ele>
        <time>2023-07-10T15:21:24.000Z</time>
      </trkpt>
      <trkpt lat="45.78501" lon="4.73245">
        <ele>242.86392</ele>
        <time>2023-07-10T15:21:25.000Z</time>
      </trkpt>
      <trkpt lat="45.78503" lon="4.73252">
        <ele>242.89041</ele>
        <time>2023-07-10T15:21:26.000Z</time>
      </trkpt>
      <trkpt lat="45.78506" lon="4.73257">
        <ele>242.90359</ele>
        <time>2023-07-10T15:21:27.000Z</time>
      </trkpt>
      <trkpt lat="45.78508" lon="4.73261">
        <ele>242.96582</ele>
        <time>2023-07-10T15:21:28.000Z</time>
      </trkpt>
      <trkpt lat="45.78512" lon="4.73264">
        <ele>242.99692</ele>
        <time>2023-07-10T15:21:29.000Z</time>
      </trkpt>
      <trkpt lat="45.78515" lon="4.73263">
        <ele>243.05832</ele>
        <time>2023-07-10T15:21:30.000Z</time>
      </trkpt>
      <trkpt lat="45.78518" lon="4.73263">
        <ele>243.32397</ele>
        <time>2023-07-10T15:21:31.000Z</time>
      </trkpt>
      <trkpt lat="45.78523" lon="4.73262">
        <ele>243.58182</ele>
        <time>2023-07-10T15:21:32.000Z</time>
      </trkpt>
      <trkpt lat="45.78527" lon="4.73261">
        <ele>243.87314</ele>
        <time>2023-07-10T15:21:33.000Z</time>
      </trkpt>
      <trkpt lat="45.7853" lon="4.73259">
        <ele>244.27779</ele>
        <time>2023-07-10T15:21:34.000Z</time>
      </trkpt>
      <trkpt lat="45.78534" lon="4.73257">
        <ele>244.70193</ele>
        <time>2023-07-10T15:21:35.000Z</time>
      </trkpt>
      <trkpt lat="45.78537" lon="4.73254">
        <ele>245.10287</ele>
        <time>2023-07-10T15:21:36.000Z</time>
      </trkpt>
      <trkpt lat="45.7854" lon="4.73251">
        <ele>245.52629</ele>
        <time>2023-07-10T15:21:37.000Z</time>
      </trkpt>
      <trkpt lat="45.78543" lon="4.73247">
        <ele>246.04373</ele>
        <time>2023-07-10T15:21:38.000Z</time>
      </trkpt>
      <trkpt lat="45.78545" lon="4.73243">
        <ele>246.48047</ele>
        <time>2023-07-10T15:21:39.000Z</time>
      </trkpt>
      <trkpt lat="45.78547" lon="4.73238">
        <ele>247.00154</ele>
        <time>2023-07-10T15:21:40.000Z</time>
      </trkpt>
      <trkpt lat="45.78548" lon="4.73234">
        <ele>247.49593</ele>
        <time>2023-07-10T15:21:41.000Z</time>
      </trkpt>
      <trkpt lat="45.7855" lon="4.73229">
        <ele>247.9323</ele>
        <time>2023-07-10T15:21:42.000Z</time>
      </trkpt>
      <trkpt lat="45.78552" lon="4.73225">
        <ele>248.368</ele>
        <time>2023-07-10T15:21:43.000Z</time>
      </trkpt>
      <trkpt lat="45.78553" lon="4.7322">
        <ele>248.8055</ele>
        <time>2023-07-10T15:21:44.000Z</time>
      </trkpt>
      <trkpt lat="45.78554" lon="4.73215">
        <ele>249.21819</ele>
        <time>2023-07-10T15:21:45.000Z</time>
      </trkpt>
      <trkpt lat="45.78555" lon="4.73211">
        <ele>250.01123</ele>
        <time>2023-07-10T15:21:46.000Z</time>
      </trkpt>
      <trkpt lat="45.78557" lon="4.73206">
        <ele>250.75374</ele>
        <time>2023-07-10T15:21:47.000Z</time>
      </trkpt>
      <trkpt lat="45.78559" lon="4.73202">
        <ele>251.46838</ele>
        <time>2023-07-10T15:21:48.000Z</time>
      </trkpt>
      <trkpt lat="45.78561" lon="4.73198">
        <ele>252.25851</ele>
        <time>2023-07-10T15:21:49.000Z</time>
      </trkpt>
      <trkpt lat="45.78562" lon="4.73193">
        <ele>252.98074</ele>
        <time>2023-07-10T15:21:50.000Z</time>
      </trkpt>
      <trkpt lat="45.78564" lon="4.73189">
        <ele>253.5284</ele>
        <time>2023-07-10T15:21:51.000Z</time>
      </trkpt>
      <trkpt lat="45.78566" lon="4.73184">
        <ele>253.76286</ele>
        <time>2023-07-10T15:21:52.000Z</time>
      </trkpt>
      <trkpt lat="45.78568" lon="4.7318">
        <ele>254.54147</ele>
        <time>2023-07-10T15:21:53.000Z</time>
      </trkpt>
      <trkpt lat="45.78569" lon="4.73175">
        <ele>255.29073</ele>
        <time>2023-07-10T15:21:54.000Z</time>
      </trkpt>
      <trkpt lat="45.78571" lon="4.73171">
        <ele>256.02985</ele>
        <time>2023-07-10T15:21:55.000Z</time>
      </trkpt>
      <trkpt lat="45.78572" lon="4.73166">
        <ele>256.76672</ele>
        <time>2023-07-10T15:21:56.000Z</time>
      </trkpt>
      <trkpt lat="45.78573" lon="4.73162">
        <ele>257.5152</ele>
        <time>2023-07-10T15:21:57.000Z</time>
      </trkpt>
      <trkpt lat="45.78575" lon="4.73158">
        <ele>258.13031</ele>
        <time>2023-07-10T15:21:58.000Z</time>
      </trkpt>
      <trkpt lat="45.78576" lon="4.73154">
        <ele>258.81693</ele>
        <time>2023-07-10T15:21:59.000Z</time>
      </trkpt>
      <trkpt lat="45.78578" lon="4.7315">
        <ele>259.45773</ele>
        <time>2023-07-10T15:22:00.000Z</time>
      </trkpt>
      <trkpt lat="45.78579" lon="4.73146">
        <ele>260.29437</ele>
        <time>2023-07-10T15:22:01.000Z</time>
      </trkpt>
      <trkpt lat="45.7858" lon="4.73141">
        <ele>261.15091</ele>
        <time>2023-07-10T15:22:02.000Z</time>
      </trkpt>
      <trkpt lat="45.7858" lon="4.73137">
        <ele>262.05508</ele>
        <time>2023-07-10T15:22:03.000Z</time>
      </trkpt>
      <trkpt lat="45.78579" lon="4.73132">
        <ele>262.9429</ele>
        <time>2023-07-10T15:22:04.000Z</time>
      </trkpt>
      <trkpt lat="45.78578" lon="4.73128">
        <ele>263.87436</ele>
        <time>2023-07-10T15:22:05.000Z</time>
      </trkpt>
      <trkpt lat="45.78575" lon="4.73125">
        <ele>264.42825</ele>
        <time>2023-07-10T15:22:06.000Z</time>
      </trkpt>
      <trkpt lat="45.78571" lon="4.73123">
        <ele>264.96988</ele>
        <time>2023-07-10T15:22:07.000Z</time>
      </trkpt>
      <trkpt lat="45.78567" lon="4.73122">
        <ele>265.51022</ele>
        <time>2023-07-10T15:22:08.000Z</time>
      </trkpt>
      <trkpt lat="45.78563" lon="4.73122">
        <ele>266.00781</ele>
        <time>2023-07-10T15:22:09.000Z</time>
      </trkpt>
      <trkpt lat="45.78559" lon="4.73123">
        <ele>266.5683</ele>
        <time>2023-07-10T15:22:10.000Z</time>
      </trkpt>
      <trkpt lat="45.78555" lon="4.73124">
        <ele>267.08954</ele>
        <time>2023-07-10T15:22:11.000Z</time>
      </trkpt>
      <trkpt lat="45.78552" lon="4.73126">
        <ele>267.77332</ele>
        <time>2023-07-10T15:22:12.000Z</time>
      </trkpt>
      <trkpt lat="45.78548" lon="4.73128">
        <ele>267.85345</ele>
        <time>2023-07-10T15:22:13.000Z</time>
      </trkpt>
      <trkpt lat="45.78544" lon="4.73131">
        <ele>267.55325</ele>
        <time>2023-07-10T15:22:14.000Z</time>
      </trkpt>
      <trkpt lat="45.7854" lon="4.73133">
        <ele>267.2215</ele>
        <time>2023-07-10T15:22:15.000Z</time>
      </trkpt>
      <trkpt lat="45.78535" lon="4.73137">
        <ele>266.66196</ele>
        <time>2023-07-10T15:22:16.000Z</time>
      </trkpt>
      <trkpt lat="45.78531" lon="4.73138">
        <ele>266.33127</ele>
        <time>2023-07-10T15:22:17.000Z</time>
      </trkpt>
      <trkpt lat="45.78527" lon="4.73139">
        <ele>265.88657</ele>
        <time>2023-07-10T15:22:18.000Z</time>
      </trkpt>
      <trkpt lat="45.78522" lon="4.73139">
        <ele>265.39606</ele>
        <time>2023-07-10T15:22:19.000Z</time>
      </trkpt>
      <trkpt lat="45.78518" lon="4.73139">
        <ele>264.84509</ele>
        <time>2023-07-10T15:22:20.000Z</time>
      </trkpt>
      <trkpt lat="45.78513" lon="4.73139">
        <ele>264.23425</ele>
        <time>2023-07-10T15:22:21.000Z</time>
      </trkpt>
      <trkpt lat="45.78509" lon="4.73138">
        <ele>263.72165</ele>
        <time>2023-07-10T15:22:22.000Z</time>
      </trkpt>
      <trkpt lat="45.78505" lon="4.73139">
        <ele>263.18298</ele>
        <time>2023-07-10T15:22:23.000Z</time>
      </trkpt>
      <trkpt lat="45.78501" lon="4.73137">
        <ele>262.64392</ele>
        <time>2023-07-10T15:22:24.000Z</time>
      </trkpt>
      <trkpt lat="45.78496" lon="4.73137">
        <ele>262.01828</ele>
        <time>2023-07-10T15:22:25.000Z</time>
      </trkpt>
      <trkpt lat="45.78491" lon="4.73135">
        <ele>261.19366</ele>
        <time>2023-07-10T15:22:26.000Z</time>
      </trkpt>
      <trkpt lat="45.78486" lon="4.73133">
        <ele>260.38235</ele>
        <time>2023-07-10T15:22:27.000Z</time>
      </trkpt>
      <trkpt lat="45.78481" lon="4.73133">
        <ele>259.44183</ele>
        <time>2023-07-10T15:22:28.000Z</time>
      </trkpt>
      <trkpt lat="45.78477" lon="4.73131">
        <ele>258.88702</ele>
        <time>2023-07-10T15:22:29.000Z</time>
      </trkpt>
      <trkpt lat="45.78473" lon="4.7313">
        <ele>258.24469</ele>
        <time>2023-07-10T15:22:30.000Z</time>
      </trkpt>
      <trkpt lat="45.78469" lon="4.73128">
        <ele>257.66486</ele>
        <time>2023-07-10T15:22:31.000Z</time>
      </trkpt>
      <trkpt lat="45.78465" lon="4.73126">
        <ele>257.18066</ele>
        <time>2023-07-10T15:22:32.000Z</time>
      </trkpt>
      <trkpt lat="45.78461" lon="4.73124">
        <ele>256.711</ele>
        <time>2023-07-10T15:22:33.000Z</time>
      </trkpt>
      <trkpt lat="45.78455" lon="4.73122">
        <ele>256.50485</ele>
        <time>2023-07-10T15:22:34.000Z</time>
      </trkpt>
      <trkpt lat="45.78452" lon="4.73118">
        <ele>256.31448</ele>
        <time>2023-07-10T15:22:35.000Z</time>
      </trkpt>
      <trkpt lat="45.78448" lon="4.73114">
        <ele>256.34253</ele>
        <time>2023-07-10T15:22:36.000Z</time>
      </trkpt>
      <trkpt lat="45.78443" lon="4.7311">
        <ele>256.08655</ele>
        <time>2023-07-10T15:22:37.000Z</time>
      </trkpt>
      <trkpt lat="45.7844" lon="4.73107">
        <ele>255.80583</ele>
        <time>2023-07-10T15:22:38.000Z</time>
      </trkpt>
      <trkpt lat="45.78436" lon="4.73102">
        <ele>255.6519</ele>
        <time>2023-07-10T15:22:39.000Z</time>
      </trkpt>
      <trkpt lat="45.78433" lon="4.73097">
        <ele>255.59981</ele>
        <time>2023-07-10T15:22:40.000Z</time>
      </trkpt>
      <trkpt lat="45.7843" lon="4.73091">
        <ele>255.47021</ele>
        <time>2023-07-10T15:22:41.000Z</time>
      </trkpt>
      <trkpt lat="45.78427" lon="4.73085">
        <ele>255.66208</ele>
        <time>2023-07-10T15:22:42.000Z</time>
      </trkpt>
      <trkpt lat="45.78425" lon="4.73079">
        <ele>255.81027</ele>
        <time>2023-07-10T15:22:43.000Z</time>
      </trkpt>
      <trkpt lat="45.78423" lon="4.73073">
        <ele>255.97122</ele>
        <time>2023-07-10T15:22:44.000Z</time>
      </trkpt>
      <trkpt lat="45.7842" lon="4.73068">
        <ele>256.2132</ele>
        <time>2023-07-10T15:22:45.000Z</time>
      </trkpt>
      <trkpt lat="45.78418" lon="4.73062">
        <ele>256.54718</ele>
        <time>2023-07-10T15:22:46.000Z</time>
      </trkpt>
      <trkpt lat="45.78416" lon="4.73056">
        <ele>256.90408</ele>
        <time>2023-07-10T15:22:47.000Z</time>
      </trkpt>
      <trkpt lat="45.78415" lon="4.73051">
        <ele>257.35397</ele>
        <time>2023-07-10T15:22:48.000Z</time>
      </trkpt>
      <trkpt lat="45.78413" lon="4.73045">
        <ele>257.55081</ele>
        <time>2023-07-10T15:22:49.000Z</time>
      </trkpt>
      <trkpt lat="45.78412" lon="4.7304">
        <ele>257.65802</ele>
        <time>2023-07-10T15:22:50.000Z</time>
      </trkpt>
      <trkpt lat="45.7841" lon="4.73034">
        <ele>258.06476</ele>
        <time>2023-07-10T15:22:51.000Z</time>
      </trkpt>
      <trkpt lat="45.78408" lon="4.73028">
        <ele>258.36246</ele>
        <time>2023-07-10T15:22:52.000Z</time>
      </trkpt>
      <trkpt lat="45.78407" lon="4.73022">
        <ele>258.70929</ele>
        <time>2023-07-10T15:22:53.000Z</time>
      </trkpt>
      <trkpt lat="45.78406" lon="4.73016">
        <ele>259.14447</ele>
        <time>2023-07-10T15:22:54.000Z</time>
      </trkpt>
      <trkpt lat="45.78406" lon="4.7301">
        <ele>259.59399</ele>
        <time>2023-07-10T15:22:55.000Z</time>
      </trkpt>
      <trkpt lat="45.78406" lon="4.73005">
        <ele>260.10141</ele>
        <time>2023-07-10T15:22:56.000Z</time>
      </trkpt>
      <trkpt lat="45.78408" lon="4.73001">
        <ele>260.5264</ele>
        <time>2023-07-10T15:22:57.000Z</time>
      </trkpt>
      <trkpt lat="45.78409" lon="4.72996">
        <ele>261.01309</ele>
        <time>2023-07-10T15:22:58.000Z</time>
      </trkpt>
      <trkpt lat="45.78411" lon="4.72991">
        <ele>261.45117</ele>
        <time>2023-07-10T15:22:59.000Z</time>
      </trkpt>
      <trkpt lat="45.78412" lon="4.72987">
        <ele>261.86078</ele>
        <time>2023-07-10T15:23:00.000Z</time>
      </trkpt>
      <trkpt lat="45.78413" lon="4.72982">
        <ele>262.26865</ele>
        <time>2023-07-10T15:23:01.000Z</time>
      </trkpt>
      <trkpt lat="45.78413" lon="4.72977">
        <ele>262.57312</ele>
        <time>2023-07-10T15:23:02.000Z</time>
      </trkpt>
      <trkpt lat="45.78414" lon="4.72973">
        <ele>262.83832</ele>
        <time>2023-07-10T15:23:03.000Z</time>
      </trkpt>
      <trkpt lat="45.78415" lon="4.72968">
        <ele>263.21362</ele>
        <time>2023-07-10T15:23:04.000Z</time>
      </trkpt>
      <trkpt lat="45.78415" lon="4.72963">
        <ele>263.56427</ele>
        <time>2023-07-10T15:23:05.000Z</time>
      </trkpt>
      <trkpt lat="45.78416" lon="4.72959">
        <ele>264.08173</ele>
        <time>2023-07-10T15:23:06.000Z</time>
      </trkpt>
      <trkpt lat="45.78416" lon="4.72954">
        <ele>264.46481</ele>
        <time>2023-07-10T15:23:07.000Z</time>
      </trkpt>
      <trkpt lat="45.78417" lon="4.72949">
        <ele>264.83704</ele>
        <time>2023-07-10T15:23:08.000Z</time>
      </trkpt>
      <trkpt lat="45.78418" lon="4.72946">
        <ele>265.08844</ele>
        <time>2023-07-10T15:23:09.000Z</time>
      </trkpt>
      <trkpt lat="45.7842" lon="4.72942">
        <ele>265.47543</ele>
        <time>2023-07-10T15:23:10.000Z</time>
      </trkpt>
      <trkpt lat="45.78422" lon="4.72939">
        <ele>265.526</ele>
        <time>2023-07-10T15:23:11.000Z</time>
      </trkpt>
      <trkpt lat="45.78424" lon="4.72936">
        <ele>265.6109</ele>
        <time>2023-07-10T15:23:12.000Z</time>
      </trkpt>
      <trkpt lat="45.78426" lon="4.72932">
        <ele>265.46021</ele>
        <time>2023-07-10T15:23:13.000Z</time>
      </trkpt>
      <trkpt lat="45.78427" lon="4.72928">
        <ele>265.3609</ele>
        <time>2023-07-10T15:23:14.000Z</time>
      </trkpt>
      <trkpt lat="45.78428" lon="4.72924">
        <ele>265.19363</ele>
        <time>2023-07-10T15:23:15.000Z</time>
      </trkpt>
      <trkpt lat="45.78429" lon="4.72919">
        <ele>264.98642</ele>
        <time>2023-07-10T15:23:16.000Z</time>
      </trkpt>
      <trkpt lat="45.7843" lon="4.72913">
        <ele>265.02805</ele>
        <time>2023-07-10T15:23:17.000Z</time>
      </trkpt>
      <trkpt lat="45.78431" lon="4.72909">
        <ele>265.18829</ele>
        <time>2023-07-10T15:23:18.000Z</time>
      </trkpt>
      <trkpt lat="45.78432" lon="4.72904">
        <ele>265.39383</ele>
        <time>2023-07-10T15:23:19.000Z</time>
      </trkpt>
      <trkpt lat="45.78432" lon="4.72899">
        <ele>265.42566</ele>
        <time>2023-07-10T15:23:20.000Z</time>
      </trkpt>
      <trkpt lat="45.78432" lon="4.72894">
        <ele>265.43707</ele>
        <time>2023-07-10T15:23:21.000Z</time>
      </trkpt>
      <trkpt lat="45.78433" lon="4.72889">
        <ele>264.99066</ele>
        <time>2023-07-10T15:23:22.000Z</time>
      </trkpt>
      <trkpt lat="45.78432" lon="4.72884">
        <ele>264.56851</ele>
        <time>2023-07-10T15:23:23.000Z</time>
      </trkpt>
      <trkpt lat="45.78432" lon="4.72879">
        <ele>264.39273</ele>
        <time>2023-07-10T15:23:24.000Z</time>
      </trkpt>
      <trkpt lat="45.78431" lon="4.72874">
        <ele>264.09528</ele>
        <time>2023-07-10T15:23:25.000Z</time>
      </trkpt>
      <trkpt lat="45.7843" lon="4.7287">
        <ele>263.68369</ele>
        <time>2023-07-10T15:23:26.000Z</time>
      </trkpt>
      <trkpt lat="45.78429" lon="4.72865">
        <ele>263.29465</ele>
        <time>2023-07-10T15:23:27.000Z</time>
      </trkpt>
      <trkpt lat="45.78428" lon="4.7286">
        <ele>262.93903</ele>
        <time>2023-07-10T15:23:28.000Z</time>
      </trkpt>
      <trkpt lat="45.78428" lon="4.72855">
        <ele>262.66019</ele>
        <time>2023-07-10T15:23:29.000Z</time>
      </trkpt>
      <trkpt lat="45.78427" lon="4.7285">
        <ele>262.37296</ele>
        <time>2023-07-10T15:23:30.000Z</time>
      </trkpt>
      <trkpt lat="45.78427" lon="4.72844">
        <ele>262.08652</ele>
        <time>2023-07-10T15:23:31.000Z</time>
      </trkpt>
      <trkpt lat="45.78426" lon="4.72838">
        <ele>261.89221</ele>
        <time>2023-07-10T15:23:32.000Z</time>
      </trkpt>
      <trkpt lat="45.78426" lon="4.72833">
        <ele>261.88962</ele>
        <time>2023-07-10T15:23:33.000Z</time>
      </trkpt>
      <trkpt lat="45.78425" lon="4.72828">
        <ele>261.8089</ele>
        <time>2023-07-10T15:23:34.000Z</time>
      </trkpt>
      <trkpt lat="45.78424" lon="4.72822">
        <ele>261.81708</ele>
        <time>2023-07-10T15:23:35.000Z</time>
      </trkpt>
      <trkpt lat="45.78423" lon="4.72816">
        <ele>261.59235</ele>
        <time>2023-07-10T15:23:36.000Z</time>
      </trkpt>
      <trkpt lat="45.78422" lon="4.7281">
        <ele>261.27863</ele>
        <time>2023-07-10T15:23:37.000Z</time>
      </trkpt>
      <trkpt lat="45.78422" lon="4.72804">
        <ele>260.98737</ele>
        <time>2023-07-10T15:23:38.000Z</time>
      </trkpt>
      <trkpt lat="45.78421" lon="4.72798">
        <ele>261.16071</ele>
        <time>2023-07-10T15:23:39.000Z</time>
      </trkpt>
      <trkpt lat="45.7842" lon="4.72793">
        <ele>261.36978</ele>
        <time>2023-07-10T15:23:40.000Z</time>
      </trkpt>
      <trkpt lat="45.7842" lon="4.72786">
        <ele>261.59341</ele>
        <time>2023-07-10T15:23:41.000Z</time>
      </trkpt>
      <trkpt lat="45.7842" lon="4.7278">
        <ele>262.00754</ele>
        <time>2023-07-10T15:23:42.000Z</time>
      </trkpt>
      <trkpt lat="45.7842" lon="4.72774">
        <ele>262.45432</ele>
        <time>2023-07-10T15:23:43.000Z</time>
      </trkpt>
      <trkpt lat="45.7842" lon="4.72768">
        <ele>262.66327</ele>
        <time>2023-07-10T15:23:44.000Z</time>
      </trkpt>
      <trkpt lat="45.78419" lon="4.72762">
        <ele>262.99146</ele>
        <time>2023-07-10T15:23:45.000Z</time>
      </trkpt>
      <trkpt lat="45.78419" lon="4.72756">
        <ele>263.35147</ele>
        <time>2023-07-10T15:23:46.000Z</time>
      </trkpt>
      <trkpt lat="45.78419" lon="4.72749">
        <ele>263.64404</ele>
        <time>2023-07-10T15:23:47.000Z</time>
      </trkpt>
      <trkpt lat="45.78419" lon="4.72743">
        <ele>263.95969</ele>
        <time>2023-07-10T15:23:48.000Z</time>
      </trkpt>
      <trkpt lat="45.78418" lon="4.72734">
        <ele>264.18073</ele>
        <time>2023-07-10T15:23:49.000Z</time>
      </trkpt>
      <trkpt lat="45.78418" lon="4.72728">
        <ele>264.4328</ele>
        <time>2023-07-10T15:23:50.000Z</time>
      </trkpt>
      <trkpt lat="45.78419" lon="4.72722">
        <ele>264.69952</ele>
        <time>2023-07-10T15:23:51.000Z</time>
      </trkpt>
      <trkpt lat="45.78419" lon="4.72715">
        <ele>264.9079</ele>
        <time>2023-07-10T15:23:52.000Z</time>
      </trkpt>
      <trkpt lat="45.7842" lon="4.72708">
        <ele>265.0694</ele>
        <time>2023-07-10T15:23:53.000Z</time>
      </trkpt>
      <trkpt lat="45.7842" lon="4.72702">
        <ele>265.11029</ele>
        <time>2023-07-10T15:23:54.000Z</time>
      </trkpt>
      <trkpt lat="45.78421" lon="4.72697">
        <ele>265.14716</ele>
        <time>2023-07-10T15:23:55.000Z</time>
      </trkpt>
      <trkpt lat="45.7842" lon="4.7269">
        <ele>265.39621</ele>
        <time>2023-07-10T15:23:56.000Z</time>
      </trkpt>
      <trkpt lat="45.7842" lon="4.72683">
        <ele>265.64114</ele>
        <time>2023-07-10T15:23:57.000Z</time>
      </trkpt>
      <trkpt lat="45.7842" lon="4.72676">
        <ele>265.94031</ele>
        <time>2023-07-10T15:23:58.000Z</time>
      </trkpt>
      <trkpt lat="45.78421" lon="4.72671">
        <ele>265.79117</ele>
        <time>2023-07-10T15:23:59.000Z</time>
      </trkpt>
      <trkpt lat="45.7842" lon="4.72664">
        <ele>265.76239</ele>
        <time>2023-07-10T15:24:00.000Z</time>
      </trkpt>
      <trkpt lat="45.78421" lon="4.72657">
        <ele>265.71872</ele>
        <time>2023-07-10T15:24:01.000Z</time>
      </trkpt>
      <trkpt lat="45.78421" lon="4.72649">
        <ele>265.64038</ele>
        <time>2023-07-10T15:24:02.000Z</time>
      </trkpt>
      <trkpt lat="45.78421" lon="4.72642">
        <ele>265.58844</ele>
        <time>2023-07-10T15:24:03.000Z</time>
      </trkpt>
      <trkpt lat="45.78421" lon="4.72635">
        <ele>266.77582</ele>
        <time>2023-07-10T15:24:04.000Z</time>
      </trkpt>
      <trkpt lat="45.78422" lon="4.72629">
        <ele>267.96841</ele>
        <time>2023-07-10T15:24:05.000Z</time>
      </trkpt>
      <trkpt lat="45.78422" lon="4.72622">
        <ele>269.21143</ele>
        <time>2023-07-10T15:24:06.000Z</time>
      </trkpt>
      <trkpt lat="45.78422" lon="4.72615">
        <ele>270.59039</ele>
        <time>2023-07-10T15:24:07.000Z</time>
      </trkpt>
      <trkpt lat="45.78423" lon="4.72609">
        <ele>271.9931</ele>
        <time>2023-07-10T15:24:08.000Z</time>
      </trkpt>
      <trkpt lat="45.78423" lon="4.72602">
        <ele>273.43332</ele>
        <time>2023-07-10T15:24:09.000Z</time>
      </trkpt>
      <trkpt lat="45.78425" lon="4.72596">
        <ele>274.91724</ele>
        <time>2023-07-10T15:24:10.000Z</time>
      </trkpt>
      <trkpt lat="45.78426" lon="4.72589">
        <ele>276.3454</ele>
        <time>2023-07-10T15:24:11.000Z</time>
      </trkpt>
      <trkpt lat="45.78427" lon="4.72583">
        <ele>277.81979</ele>
        <time>2023-07-10T15:24:12.000Z</time>
      </trkpt>
      <trkpt lat="45.78427" lon="4.72577">
        <ele>279.33368</ele>
        <time>2023-07-10T15:24:13.000Z</time>
      </trkpt>
      <trkpt lat="45.78428" lon="4.72571">
        <ele>280.93256</ele>
        <time>2023-07-10T15:24:14.000Z</time>
      </trkpt>
      <trkpt lat="45.7843" lon="4.72564">
        <ele>282.48639</ele>
        <time>2023-07-10T15:24:15.000Z</time>
      </trkpt>
      <trkpt lat="45.7843" lon="4.72556">
        <ele>284.05731</ele>
        <time>2023-07-10T15:24:16.000Z</time>
      </trkpt>
      <trkpt lat="45.78431" lon="4.7255">
        <ele>285.65121</ele>
        <time>2023-07-10T15:24:17.000Z</time>
      </trkpt>
      <trkpt lat="45.78431" lon="4.72544">
        <ele>287.19305</ele>
        <time>2023-07-10T15:24:18.000Z</time>
      </trkpt>
      <trkpt lat="45.78433" lon="4.72539">
        <ele>288.6795</ele>
        <time>2023-07-10T15:24:19.000Z</time>
      </trkpt>
      <trkpt lat="45.78434" lon="4.72532">
        <ele>290.15921</ele>
        <time>2023-07-10T15:24:20.000Z</time>
      </trkpt>
      <trkpt lat="45.78436" lon="4.72527">
        <ele>291.65582</ele>
        <time>2023-07-10T15:24:21.000Z</time>
      </trkpt>
      <trkpt lat="45.78438" lon="4.72521">
        <ele>293.21725</ele>
        <time>2023-07-10T15:24:22.000Z</time>
      </trkpt>
      <trkpt lat="45.7844" lon="4.72515">
        <ele>294.7894</ele>
        <time>2023-07-10T15:24:23.000Z</time>
      </trkpt>
      <trkpt lat="45.78442" lon="4.72509">
        <ele>294.95041</ele>
        <time>2023-07-10T15:24:24.000Z</time>
      </trkpt>
      <trkpt lat="45.78444" lon="4.72503">
        <ele>295.09836</ele>
        <time>2023-07-10T15:24:25.000Z</time>
      </trkpt>
      <trkpt lat="45.78445" lon="4.72497">
        <ele>295.2821</ele>
        <time>2023-07-10T15:24:26.000Z</time>
      </trkpt>
      <trkpt lat="45.78447" lon="4.72492">
        <ele>295.44745</ele>
        <time>2023-07-10T15:24:27.000Z</time>
      </trkpt>
      <trkpt lat="45.78448" lon="4.72487">
        <ele>295.58963</ele>
        <time>2023-07-10T15:24:28.000Z</time>
      </trkpt>
      <trkpt lat="45.7845" lon="4.72481">
        <ele>295.74243</ele>
        <time>2023-07-10T15:24:29.000Z</time>
      </trkpt>
      <trkpt lat="45.78452" lon="4.72476">
        <ele>295.78009</ele>
        <time>2023-07-10T15:24:30.000Z</time>
      </trkpt>
      <trkpt lat="45.78454" lon="4.72471">
        <ele>295.81543</ele>
        <time>2023-07-10T15:24:31.000Z</time>
      </trkpt>
      <trkpt lat="45.78457" lon="4.72467">
        <ele>294.92056</ele>
        <time>2023-07-10T15:24:32.000Z</time>
      </trkpt>
      <trkpt lat="45.7846" lon="4.72463">
        <ele>294.01492</ele>
        <time>2023-07-10T15:24:33.000Z</time>
      </trkpt>
      <trkpt lat="45.78463" lon="4.72459">
        <ele>293.14005</ele>
        <time>2023-07-10T15:24:34.000Z</time>
      </trkpt>
      <trkpt lat="45.78466" lon="4.72455">
        <ele>292.27005</ele>
        <time>2023-07-10T15:24:35.000Z</time>
      </trkpt>
      <trkpt lat="45.78469" lon="4.7245">
        <ele>291.33405</ele>
        <time>2023-07-10T15:24:36.000Z</time>
      </trkpt>
      <trkpt lat="45.78472" lon="4.72446">
        <ele>290.31561</ele>
        <time>2023-07-10T15:24:37.000Z</time>
      </trkpt>
      <trkpt lat="45.78475" lon="4.72442">
        <ele>289.31403</ele>
        <time>2023-07-10T15:24:38.000Z</time>
      </trkpt>
      <trkpt lat="45.78478" lon="4.72439">
        <ele>288.31046</ele>
        <time>2023-07-10T15:24:39.000Z</time>
      </trkpt>
      <trkpt lat="45.78481" lon="4.72436">
        <ele>287.38492</ele>
        <time>2023-07-10T15:24:40.000Z</time>
      </trkpt>
      <trkpt lat="45.78485" lon="4.72433">
        <ele>287.7204</ele>
        <time>2023-07-10T15:24:41.000Z</time>
      </trkpt>
      <trkpt lat="45.78488" lon="4.7243">
        <ele>287.91226</ele>
        <time>2023-07-10T15:24:42.000Z</time>
      </trkpt>
      <trkpt lat="45.78492" lon="4.72427">
        <ele>288.10294</ele>
        <time>2023-07-10T15:24:43.000Z</time>
      </trkpt>
      <trkpt lat="45.78495" lon="4.72423">
        <ele>288.39395</ele>
        <time>2023-07-10T15:24:44.000Z</time>
      </trkpt>
      <trkpt lat="45.78499" lon="4.72419">
        <ele>288.65256</ele>
        <time>2023-07-10T15:24:45.000Z</time>
      </trkpt>
      <trkpt lat="45.78503" lon="4.72416">
        <ele>288.96576</ele>
        <time>2023-07-10T15:24:46.000Z</time>
      </trkpt>
      <trkpt lat="45.78506" lon="4.72412">
        <ele>289.32895</ele>
        <time>2023-07-10T15:24:47.000Z</time>
      </trkpt>
      <trkpt lat="45.7851" lon="4.72409">
        <ele>289.66434</ele>
        <time>2023-07-10T15:24:48.000Z</time>
      </trkpt>
      <trkpt lat="45.78513" lon="4.72405">
        <ele>289.99542</ele>
        <time>2023-07-10T15:24:49.000Z</time>
      </trkpt>
      <trkpt lat="45.78515" lon="4.72399">
        <ele>290.44</ele>
        <time>2023-07-10T15:24:50.000Z</time>
      </trkpt>
      <trkpt lat="45.78518" lon="4.72392">
        <ele>290.68442</ele>
        <time>2023-07-10T15:24:51.000Z</time>
      </trkpt>
      <trkpt lat="45.78518" lon="4.72385">
        <ele>291.87576</ele>
        <time>2023-07-10T15:24:52.000Z</time>
      </trkpt>
      <trkpt lat="45.7852" lon="4.72378">
        <ele>293.11865</ele>
        <time>2023-07-10T15:24:53.000Z</time>
      </trkpt>
      <trkpt lat="45.7852" lon="4.72372">
        <ele>294.44043</ele>
        <time>2023-07-10T15:24:54.000Z</time>
      </trkpt>
      <trkpt lat="45.78521" lon="4.72366">
        <ele>295.75006</ele>
        <time>2023-07-10T15:24:55.000Z</time>
      </trkpt>
      <trkpt lat="45.78521" lon="4.7236">
        <ele>297.15973</ele>
        <time>2023-07-10T15:24:56.000Z</time>
      </trkpt>
      <trkpt lat="45.78522" lon="4.72355">
        <ele>298.64438</ele>
        <time>2023-07-10T15:24:57.000Z</time>
      </trkpt>
      <trkpt lat="45.78524" lon="4.72351">
        <ele>300.11017</ele>
        <time>2023-07-10T15:24:58.000Z</time>
      </trkpt>
      <trkpt lat="45.78524" lon="4.72344">
        <ele>301.60516</ele>
        <time>2023-07-10T15:24:59.000Z</time>
      </trkpt>
      <trkpt lat="45.78522" lon="4.72339">
        <ele>302.85284</ele>
        <time>2023-07-10T15:25:00.000Z</time>
      </trkpt>
      <trkpt lat="45.78516" lon="4.72337">
        <ele>302.8436</ele>
        <time>2023-07-10T15:25:01.000Z</time>
      </trkpt>
      <trkpt lat="45.78512" lon="4.72334">
        <ele>302.92953</ele>
        <time>2023-07-10T15:25:02.000Z</time>
      </trkpt>
      <trkpt lat="45.78508" lon="4.72332">
        <ele>303.034</ele>
        <time>2023-07-10T15:25:03.000Z</time>
      </trkpt>
      <trkpt lat="45.78505" lon="4.7233">
        <ele>303.09232</ele>
        <time>2023-07-10T15:25:04.000Z</time>
      </trkpt>
      <trkpt lat="45.78501" lon="4.72328">
        <ele>303.19037</ele>
        <time>2023-07-10T15:25:05.000Z</time>
      </trkpt>
      <trkpt lat="45.78498" lon="4.72325">
        <ele>303.14737</ele>
        <time>2023-07-10T15:25:06.000Z</time>
      </trkpt>
      <trkpt lat="45.78495" lon="4.72322">
        <ele>303.08539</ele>
        <time>2023-07-10T15:25:07.000Z</time>
      </trkpt>
      <trkpt lat="45.78492" lon="4.72318">
        <ele>303.04749</ele>
        <time>2023-07-10T15:25:08.000Z</time>
      </trkpt>
      <trkpt lat="45.78489" lon="4.72316">
        <ele>302.96887</ele>
        <time>2023-07-10T15:25:09.000Z</time>
      </trkpt>
      <trkpt lat="45.78485" lon="4.72314">
        <ele>302.84601</ele>
        <time>2023-07-10T15:25:10.000Z</time>
      </trkpt>
      <trkpt lat="45.78482" lon="4.72313">
        <ele>302.94495</ele>
        <time>2023-07-10T15:25:11.000Z</time>
      </trkpt>
      <trkpt lat="45.78479" lon="4.72312">
        <ele>302.99158</ele>
        <time>2023-07-10T15:25:12.000Z</time>
      </trkpt>
      <trkpt lat="45.78476" lon="4.72314">
        <ele>302.9809</ele>
        <time>2023-07-10T15:25:13.000Z</time>
      </trkpt>
      <trkpt lat="45.78473" lon="4.72316">
        <ele>302.78052</ele>
        <time>2023-07-10T15:25:14.000Z</time>
      </trkpt>
      <trkpt lat="45.7847" lon="4.72318">
        <ele>302.65491</ele>
        <time>2023-07-10T15:25:15.000Z</time>
      </trkpt>
      <trkpt lat="45.78468" lon="4.72322">
        <ele>302.45425</ele>
        <time>2023-07-10T15:25:16.000Z</time>
      </trkpt>
      <trkpt lat="45.78466" lon="4.72327">
        <ele>302.23346</ele>
        <time>2023-07-10T15:25:17.000Z</time>
      </trkpt>
      <trkpt lat="45.78464" lon="4.72332">
        <ele>301.98346</ele>
        <time>2023-07-10T15:25:18.000Z</time>
      </trkpt>
      <trkpt lat="45.78462" lon="4.72336">
        <ele>301.68372</ele>
        <time>2023-07-10T15:25:19.000Z</time>
      </trkpt>
      <trkpt lat="45.78459" lon="4.72342">
        <ele>301.57666</ele>
        <time>2023-07-10T15:25:20.000Z</time>
      </trkpt>
      <trkpt lat="45.78457" lon="4.72346">
        <ele>301.44778</ele>
        <time>2023-07-10T15:25:21.000Z</time>
      </trkpt>
      <trkpt lat="45.78455" lon="4.7235">
        <ele>301.30295</ele>
        <time>2023-07-10T15:25:22.000Z</time>
      </trkpt>
      <trkpt lat="45.78451" lon="4.72355">
        <ele>301.10059</ele>
        <time>2023-07-10T15:25:23.000Z</time>
      </trkpt>
      <trkpt lat="45.7845" lon="4.72358">
        <ele>300.88116</ele>
        <time>2023-07-10T15:25:24.000Z</time>
      </trkpt>
      <trkpt lat="45.78448" lon="4.72363">
        <ele>300.68405</ele>
        <time>2023-07-10T15:25:25.000Z</time>
      </trkpt>
      <trkpt lat="45.78448" lon="4.72366">
        <ele>300.55353</ele>
        <time>2023-07-10T15:25:26.000Z</time>
      </trkpt>
      <trkpt lat="45.78444" lon="4.72371">
        <ele>300.40778</ele>
        <time>2023-07-10T15:25:27.000Z</time>
      </trkpt>
      <trkpt lat="45.78441" lon="4.72376">
        <ele>300.26569</ele>
        <time>2023-07-10T15:25:28.000Z</time>
      </trkpt>
      <trkpt lat="45.78436" lon="4.72378">
        <ele>299.6311</ele>
        <time>2023-07-10T15:25:29.000Z</time>
      </trkpt>
      <trkpt lat="45.78432" lon="4.72379">
        <ele>298.97644</ele>
        <time>2023-07-10T15:25:30.000Z</time>
      </trkpt>
      <trkpt lat="45.78429" lon="4.72375">
        <ele>298.32086</ele>
        <time>2023-07-10T15:25:31.000Z</time>
      </trkpt>
      <trkpt lat="45.78426" lon="4.72372">
        <ele>297.68915</ele>
        <time>2023-07-10T15:25:32.000Z</time>
      </trkpt>
      <trkpt lat="45.78423" lon="4.72369">
        <ele>297.08099</ele>
        <time>2023-07-10T15:25:33.000Z</time>
      </trkpt>
      <trkpt lat="45.7842" lon="4.72366">
        <ele>296.5972</ele>
        <time>2023-07-10T15:25:34.000Z</time>
      </trkpt>
      <trkpt lat="45.78416" lon="4.72363">
        <ele>296.09116</ele>
        <time>2023-07-10T15:25:35.000Z</time>
      </trkpt>
      <trkpt lat="45.78412" lon="4.7236">
        <ele>295.64108</ele>
        <time>2023-07-10T15:25:36.000Z</time>
      </trkpt>
      <trkpt lat="45.78409" lon="4.72357">
        <ele>295.18811</ele>
        <time>2023-07-10T15:25:37.000Z</time>
      </trkpt>
      <trkpt lat="45.78406" lon="4.72354">
        <ele>294.77777</ele>
        <time>2023-07-10T15:25:38.000Z</time>
      </trkpt>
      <trkpt lat="45.78402" lon="4.72351">
        <ele>294.3916</ele>
        <time>2023-07-10T15:25:39.000Z</time>
      </trkpt>
      <trkpt lat="45.78399" lon="4.72348">
        <ele>293.98022</ele>
        <time>2023-07-10T15:25:40.000Z</time>
      </trkpt>
      <trkpt lat="45.78396" lon="4.72345">
        <ele>293.57932</ele>
        <time>2023-07-10T15:25:41.000Z</time>
      </trkpt>
      <trkpt lat="45.78393" lon="4.72342">
        <ele>293.1727</ele>
        <time>2023-07-10T15:25:42.000Z</time>
      </trkpt>
      <trkpt lat="45.7839" lon="4.72339">
        <ele>292.79977</ele>
        <time>2023-07-10T15:25:43.000Z</time>
      </trkpt>
      <trkpt lat="45.78387" lon="4.72336">
        <ele>292.44531</ele>
        <time>2023-07-10T15:25:44.000Z</time>
      </trkpt>
      <trkpt lat="45.78384" lon="4.72332">
        <ele>292.08469</ele>
        <time>2023-07-10T15:25:45.000Z</time>
      </trkpt>
      <trkpt lat="45.7838" lon="4.72328">
        <ele>291.68939</ele>
        <time>2023-07-10T15:25:46.000Z</time>
      </trkpt>
      <trkpt lat="45.78376" lon="4.72325">
        <ele>291.31308</ele>
        <time>2023-07-10T15:25:47.000Z</time>
      </trkpt>
      <trkpt lat="45.78373" lon="4.72321">
        <ele>290.94843</ele>
        <time>2023-07-10T15:25:48.000Z</time>
      </trkpt>
      <trkpt lat="45.78368" lon="4.72317">
        <ele>291.08685</ele>
        <time>2023-07-10T15:25:49.000Z</time>
      </trkpt>
      <trkpt lat="45.78364" lon="4.72314">
        <ele>291.38354</ele>
        <time>2023-07-10T15:25:50.000Z</time>
      </trkpt>
      <trkpt lat="45.7836" lon="4.72311">
        <ele>291.67313</ele>
        <time>2023-07-10T15:25:51.000Z</time>
      </trkpt>
      <trkpt lat="45.78356" lon="4.72307">
        <ele>291.90964</ele>
        <time>2023-07-10T15:25:52.000Z</time>
      </trkpt>
      <trkpt lat="45.78353" lon="4.72304">
        <ele>292.13068</ele>
        <time>2023-07-10T15:25:53.000Z</time>
      </trkpt>
      <trkpt lat="45.78349" lon="4.72301">
        <ele>292.35153</ele>
        <time>2023-07-10T15:25:54.000Z</time>
      </trkpt>
      <trkpt lat="45.78346" lon="4.72298">
        <ele>292.54276</ele>
        <time>2023-07-10T15:25:55.000Z</time>
      </trkpt>
      <trkpt lat="45.78343" lon="4.72295">
        <ele>292.7149</ele>
        <time>2023-07-10T15:25:56.000Z</time>
      </trkpt>
      <trkpt lat="45.78342" lon="4.72291">
        <ele>292.89142</ele>
        <time>2023-07-10T15:25:57.000Z</time>
      </trkpt>
      <trkpt lat="45.78339" lon="4.72285">
        <ele>293.06531</ele>
        <time>2023-07-10T15:25:58.000Z</time>
      </trkpt>
      <trkpt lat="45.78337" lon="4.7228">
        <ele>293.19043</ele>
        <time>2023-07-10T15:25:59.000Z</time>
      </trkpt>
      <trkpt lat="45.78335" lon="4.72276">
        <ele>293.37396</ele>
        <time>2023-07-10T15:26:00.000Z</time>
      </trkpt>
      <trkpt lat="45.78331" lon="4.72274">
        <ele>293.54898</ele>
        <time>2023-07-10T15:26:01.000Z</time>
      </trkpt>
      <trkpt lat="45.78327" lon="4.72273">
        <ele>293.73773</ele>
        <time>2023-07-10T15:26:02.000Z</time>
      </trkpt>
      <trkpt lat="45.78323" lon="4.72276">
        <ele>293.92346</ele>
        <time>2023-07-10T15:26:03.000Z</time>
      </trkpt>
      <trkpt lat="45.78322" lon="4.72281">
        <ele>294.09778</ele>
        <time>2023-07-10T15:26:04.000Z</time>
      </trkpt>
      <trkpt lat="45.78321" lon="4.72286">
        <ele>294.26096</ele>
        <time>2023-07-10T15:26:05.000Z</time>
      </trkpt>
      <trkpt lat="45.78321" lon="4.7229">
        <ele>294.41895</ele>
        <time>2023-07-10T15:26:06.000Z</time>
      </trkpt>
      <trkpt lat="45.78322" lon="4.72293">
        <ele>294.55682</ele>
        <time>2023-07-10T15:26:07.000Z</time>
      </trkpt>
      <trkpt lat="45.78324" lon="4.72295">
        <ele>294.66476</ele>
        <time>2023-07-10T15:26:08.000Z</time>
      </trkpt>
      <trkpt lat="45.78327" lon="4.72296">
        <ele>294.7735</ele>
        <time>2023-07-10T15:26:09.000Z</time>
      </trkpt>
      <trkpt lat="45.78331" lon="4.72295">
        <ele>294.71429</ele>
        <time>2023-07-10T15:26:10.000Z</time>
      </trkpt>
      <trkpt lat="45.78334" lon="4.72291">
        <ele>294.65421</ele>
        <time>2023-07-10T15:26:11.000Z</time>
      </trkpt>
      <trkpt lat="45.78337" lon="4.72286">
        <ele>294.59964</ele>
        <time>2023-07-10T15:26:12.000Z</time>
      </trkpt>
      <trkpt lat="45.78337" lon="4.7228">
        <ele>294.565</ele>
        <time>2023-07-10T15:26:13.000Z</time>
      </trkpt>
      <trkpt lat="45.78331" lon="4.72273">
        <ele>294.52142</ele>
        <time>2023-07-10T15:26:14.000Z</time>
      </trkpt>
      <trkpt lat="45.78327" lon="4.72274">
        <ele>294.48621</ele>
        <time>2023-07-10T15:26:15.000Z</time>
      </trkpt>
      <trkpt lat="45.78324" lon="4.72277">
        <ele>294.4274</ele>
        <time>2023-07-10T15:26:16.000Z</time>
      </trkpt>
      <trkpt lat="45.7832" lon="4.72279">
        <ele>294.35065</ele>
        <time>2023-07-10T15:26:17.000Z</time>
      </trkpt>
      <trkpt lat="45.78316" lon="4.72281">
        <ele>294.23993</ele>
        <time>2023-07-10T15:26:18.000Z</time>
      </trkpt>
      <trkpt lat="45.78311" lon="4.72284">
        <ele>294.17517</ele>
        <time>2023-07-10T15:26:19.000Z</time>
      </trkpt>
      <trkpt lat="45.78307" lon="4.72285">
        <ele>294.06036</ele>
        <time>2023-07-10T15:26:20.000Z</time>
      </trkpt>
      <trkpt lat="45.78302" lon="4.72287">
        <ele>293.95535</ele>
        <time>2023-07-10T15:26:21.000Z</time>
      </trkpt>
      <trkpt lat="45.78297" lon="4.72289">
        <ele>293.81607</ele>
        <time>2023-07-10T15:26:22.000Z</time>
      </trkpt>
      <trkpt lat="45.78292" lon="4.7229">
        <ele>293.6868</ele>
        <time>2023-07-10T15:26:23.000Z</time>
      </trkpt>
      <trkpt lat="45.78288" lon="4.72291">
        <ele>293.57318</ele>
        <time>2023-07-10T15:26:24.000Z</time>
      </trkpt>
      <trkpt lat="45.78282" lon="4.72292">
        <ele>293.4433</ele>
        <time>2023-07-10T15:26:25.000Z</time>
      </trkpt>
      <trkpt lat="45.78277" lon="4.72294">
        <ele>293.35077</ele>
        <time>2023-07-10T15:26:26.000Z</time>
      </trkpt>
      <trkpt lat="45.78273" lon="4.72295">
        <ele>293.25403</ele>
        <time>2023-07-10T15:26:27.000Z</time>
      </trkpt>
      <trkpt lat="45.78268" lon="4.72297">
        <ele>293.16876</ele>
        <time>2023-07-10T15:26:28.000Z</time>
      </trkpt>
      <trkpt lat="45.78263" lon="4.72297">
        <ele>293.09381</ele>
        <time>2023-07-10T15:26:29.000Z</time>
      </trkpt>
      <trkpt lat="45.78258" lon="4.72299">
        <ele>293.04498</ele>
        <time>2023-07-10T15:26:30.000Z</time>
      </trkpt>
      <trkpt lat="45.78253" lon="4.723">
        <ele>293.01913</ele>
        <time>2023-07-10T15:26:31.000Z</time>
      </trkpt>
      <trkpt lat="45.78249" lon="4.72302">
        <ele>293.0202</ele>
        <time>2023-07-10T15:26:32.000Z</time>
      </trkpt>
      <trkpt lat="45.78244" lon="4.72304">
        <ele>293.0217</ele>
        <time>2023-07-10T15:26:33.000Z</time>
      </trkpt>
      <trkpt lat="45.78239" lon="4.72306">
        <ele>293.03772</ele>
        <time>2023-07-10T15:26:34.000Z</time>
      </trkpt>
      <trkpt lat="45.78233" lon="4.72307">
        <ele>293.05292</ele>
        <time>2023-07-10T15:26:35.000Z</time>
      </trkpt>
      <trkpt lat="45.78228" lon="4.72307">
        <ele>293.08749</ele>
        <time>2023-07-10T15:26:36.000Z</time>
      </trkpt>
      <trkpt lat="45.78223" lon="4.72309">
        <ele>292.99838</ele>
        <time>2023-07-10T15:26:37.000Z</time>
      </trkpt>
      <trkpt lat="45.78218" lon="4.7231">
        <ele>292.93192</ele>
        <time>2023-07-10T15:26:38.000Z</time>
      </trkpt>
      <trkpt lat="45.78213" lon="4.72312">
        <ele>292.81982</ele>
        <time>2023-07-10T15:26:39.000Z</time>
      </trkpt>
      <trkpt lat="45.78208" lon="4.72314">
        <ele>292.73697</ele>
        <time>2023-07-10T15:26:40.000Z</time>
      </trkpt>
      <trkpt lat="45.78205" lon="4.72315">
        <ele>292.67575</ele>
        <time>2023-07-10T15:26:41.000Z</time>
      </trkpt>
      <trkpt lat="45.78202" lon="4.72316">
        <ele>292.64471</ele>
        <time>2023-07-10T15:26:42.000Z</time>
      </trkpt>
      <trkpt lat="45.782" lon="4.72316">
        <ele>292.59692</ele>
        <time>2023-07-10T15:26:43.000Z</time>
      </trkpt>
      <trkpt lat="45.78197" lon="4.72317">
        <ele>292.539</ele>
        <time>2023-07-10T15:26:44.000Z</time>
      </trkpt>
      <trkpt lat="45.78194" lon="4.72317">
        <ele>292.47894</ele>
        <time>2023-07-10T15:26:46.000Z</time>
      </trkpt>
      <trkpt lat="45.7819" lon="4.72318">
        <ele>292.39127</ele>
        <time>2023-07-10T15:26:48.000Z</time>
      </trkpt>
      <trkpt lat="45.78188" lon="4.7232">
        <ele>292.32593</ele>
        <time>2023-07-10T15:26:49.000Z</time>
      </trkpt>
      <trkpt lat="45.78186" lon="4.72321">
        <ele>292.27313</ele>
        <time>2023-07-10T15:26:50.000Z</time>
      </trkpt>
      <trkpt lat="45.78184" lon="4.72321">
        <ele>292.23029</ele>
        <time>2023-07-10T15:26:51.000Z</time>
      </trkpt>
      <trkpt lat="45.78181" lon="4.72321">
        <ele>292.21777</ele>
        <time>2023-07-10T15:26:52.000Z</time>
      </trkpt>
      <trkpt lat="45.7818" lon="4.72322">
        <ele>292.20892</ele>
        <time>2023-07-10T15:26:53.000Z</time>
      </trkpt>
      <trkpt lat="45.78176" lon="4.72322">
        <ele>292.15323</ele>
        <time>2023-07-10T15:26:54.000Z</time>
      </trkpt>
      <trkpt lat="45.78173" lon="4.72322">
        <ele>292.07184</ele>
        <time>2023-07-10T15:26:55.000Z</time>
      </trkpt>
      <trkpt lat="45.78169" lon="4.72323">
        <ele>292.01147</ele>
        <time>2023-07-10T15:26:56.000Z</time>
      </trkpt>
      <trkpt lat="45.78166" lon="4.72324">
        <ele>291.95248</ele>
        <time>2023-07-10T15:26:57.000Z</time>
      </trkpt>
      <trkpt lat="45.78162" lon="4.72325">
        <ele>291.8985</ele>
        <time>2023-07-10T15:26:58.000Z</time>
      </trkpt>
      <trkpt lat="45.78159" lon="4.72326">
        <ele>291.91537</ele>
        <time>2023-07-10T15:26:59.000Z</time>
      </trkpt>
      <trkpt lat="45.78155" lon="4.72327">
        <ele>291.91577</ele>
        <time>2023-07-10T15:27:00.000Z</time>
      </trkpt>
      <trkpt lat="45.7815" lon="4.72328">
        <ele>291.93195</ele>
        <time>2023-07-10T15:27:01.000Z</time>
      </trkpt>
      <trkpt lat="45.78146" lon="4.72329">
        <ele>291.92487</ele>
        <time>2023-07-10T15:27:02.000Z</time>
      </trkpt>
      <trkpt lat="45.78142" lon="4.72331">
        <ele>291.8942</ele>
        <time>2023-07-10T15:27:03.000Z</time>
      </trkpt>
      <trkpt lat="45.78138" lon="4.72331">
        <ele>291.86578</ele>
        <time>2023-07-10T15:27:04.000Z</time>
      </trkpt>
      <trkpt lat="45.78134" lon="4.72333">
        <ele>291.83328</ele>
        <time>2023-07-10T15:27:05.000Z</time>
      </trkpt>
      <trkpt lat="45.78129" lon="4.72334">
        <ele>291.79181</ele>
        <time>2023-07-10T15:27:06.000Z</time>
      </trkpt>
      <trkpt lat="45.78124" lon="4.72334">
        <ele>291.77838</ele>
        <time>2023-07-10T15:27:07.000Z</time>
      </trkpt>
      <trkpt lat="45.78119" lon="4.72336">
        <ele>291.77179</ele>
        <time>2023-07-10T15:27:08.000Z</time>
      </trkpt>
      <trkpt lat="45.78114" lon="4.72336">
        <ele>291.7392</ele>
        <time>2023-07-10T15:27:09.000Z</time>
      </trkpt>
      <trkpt lat="45.7811" lon="4.72335">
        <ele>291.70938</ele>
        <time>2023-07-10T15:27:10.000Z</time>
      </trkpt>
      <trkpt lat="45.78107" lon="4.72336">
        <ele>291.673</ele>
        <time>2023-07-10T15:27:11.000Z</time>
      </trkpt>
      <trkpt lat="45.78105" lon="4.72336">
        <ele>291.58124</ele>
        <time>2023-07-10T15:27:12.000Z</time>
      </trkpt>
      <trkpt lat="45.78103" lon="4.72338">
        <ele>291.49542</ele>
        <time>2023-07-10T15:27:13.000Z</time>
      </trkpt>
      <trkpt lat="45.781" lon="4.7234">
        <ele>291.46246</ele>
        <time>2023-07-10T15:27:14.000Z</time>
      </trkpt>
      <trkpt lat="45.78097" lon="4.72343">
        <ele>291.42902</ele>
        <time>2023-07-10T15:27:15.000Z</time>
      </trkpt>
      <trkpt lat="45.78096" lon="4.72347">
        <ele>291.34857</ele>
        <time>2023-07-10T15:27:16.000Z</time>
      </trkpt>
      <trkpt lat="45.78093" lon="4.72351">
        <ele>291.25095</ele>
        <time>2023-07-10T15:27:17.000Z</time>
      </trkpt>
      <trkpt lat="45.78091" lon="4.72356">
        <ele>291.13654</ele>
        <time>2023-07-10T15:27:18.000Z</time>
      </trkpt>
      <trkpt lat="45.78089" lon="4.72362">
        <ele>291.07129</ele>
        <time>2023-07-10T15:27:19.000Z</time>
      </trkpt>
      <trkpt lat="45.78087" lon="4.72368">
        <ele>290.99902</ele>
        <time>2023-07-10T15:27:20.000Z</time>
      </trkpt>
      <trkpt lat="45.78086" lon="4.72373">
        <ele>290.93939</ele>
        <time>2023-07-10T15:27:21.000Z</time>
      </trkpt>
      <trkpt lat="45.78084" lon="4.72379">
        <ele>290.87509</ele>
        <time>2023-07-10T15:27:22.000Z</time>
      </trkpt>
      <trkpt lat="45.7808" lon="4.72383">
        <ele>290.78326</ele>
        <time>2023-07-10T15:27:23.000Z</time>
      </trkpt>
      <trkpt lat="45.78079" lon="4.72389">
        <ele>290.72284</ele>
        <time>2023-07-10T15:27:24.000Z</time>
      </trkpt>
      <trkpt lat="45.78077" lon="4.72394">
        <ele>290.67267</ele>
        <time>2023-07-10T15:27:25.000Z</time>
      </trkpt>
      <trkpt lat="45.78076" lon="4.724">
        <ele>290.63229</ele>
        <time>2023-07-10T15:27:26.000Z</time>
      </trkpt>
      <trkpt lat="45.78075" lon="4.72405">
        <ele>290.57776</ele>
        <time>2023-07-10T15:27:27.000Z</time>
      </trkpt>
      <trkpt lat="45.78074" lon="4.7241">
        <ele>290.50946</ele>
        <time>2023-07-10T15:27:28.000Z</time>
      </trkpt>
      <trkpt lat="45.78073" lon="4.72414">
        <ele>290.44199</ele>
        <time>2023-07-10T15:27:29.000Z</time>
      </trkpt>
      <trkpt lat="45.78071" lon="4.72416">
        <ele>290.39267</ele>
        <time>2023-07-10T15:27:30.000Z</time>
      </trkpt>
      <trkpt lat="45.78068" lon="4.72413">
        <ele>290.30426</ele>
        <time>2023-07-10T15:27:32.000Z</time>
      </trkpt>
      <trkpt lat="45.78066" lon="4.72411">
        <ele>290.23892</ele>
        <time>2023-07-10T15:27:33.000Z</time>
      </trkpt>
      <trkpt lat="45.78065" lon="4.72407">
        <ele>290.17267</ele>
        <time>2023-07-10T15:27:34.000Z</time>
      </trkpt>
      <trkpt lat="45.78064" lon="4.72404">
        <ele>290.07788</ele>
        <time>2023-07-10T15:27:35.000Z</time>
      </trkpt>
      <trkpt lat="45.78064" lon="4.724">
        <ele>289.99139</ele>
        <time>2023-07-10T15:27:36.000Z</time>
      </trkpt>
      <trkpt lat="45.78063" lon="4.72396">
        <ele>289.92688</ele>
        <time>2023-07-10T15:27:37.000Z</time>
      </trkpt>
      <trkpt lat="45.78062" lon="4.72392">
        <ele>289.81476</ele>
        <time>2023-07-10T15:27:38.000Z</time>
      </trkpt>
      <trkpt lat="45.78061" lon="4.72389">
        <ele>289.69507</ele>
        <time>2023-07-10T15:27:39.000Z</time>
      </trkpt>
      <trkpt lat="45.78059" lon="4.72386">
        <ele>289.56543</ele>
        <time>2023-07-10T15:27:40.000Z</time>
      </trkpt>
      <trkpt lat="45.78057" lon="4.72381">
        <ele>289.45773</ele>
        <time>2023-07-10T15:27:41.000Z</time>
      </trkpt>
      <trkpt lat="45.78055" lon="4.72376">
        <ele>289.36472</ele>
        <time>2023-07-10T15:27:42.000Z</time>
      </trkpt>
      <trkpt lat="45.78053" lon="4.72371">
        <ele>289.27875</ele>
        <time>2023-07-10T15:27:43.000Z</time>
      </trkpt>
      <trkpt lat="45.78051" lon="4.72365">
        <ele>289.23218</ele>
        <time>2023-07-10T15:27:44.000Z</time>
      </trkpt>
      <trkpt lat="45.78048" lon="4.72359">
        <ele>289.1785</ele>
        <time>2023-07-10T15:27:45.000Z</time>
      </trkpt>
      <trkpt lat="45.78043" lon="4.72349">
        <ele>289.1181</ele>
        <time>2023-07-10T15:27:46.000Z</time>
      </trkpt>
      <trkpt lat="45.7804" lon="4.72344">
        <ele>289.04501</ele>
        <time>2023-07-10T15:27:47.000Z</time>
      </trkpt>
      <trkpt lat="45.78037" lon="4.72339">
        <ele>288.95697</ele>
        <time>2023-07-10T15:27:48.000Z</time>
      </trkpt>
      <trkpt lat="45.78035" lon="4.72337">
        <ele>288.86124</ele>
        <time>2023-07-10T15:27:49.000Z</time>
      </trkpt>
      <trkpt lat="45.7803" lon="4.72335">
        <ele>288.73318</ele>
        <time>2023-07-10T15:27:50.000Z</time>
      </trkpt>
      <trkpt lat="45.78026" lon="4.72335">
        <ele>288.5921</ele>
        <time>2023-07-10T15:27:51.000Z</time>
      </trkpt>
      <trkpt lat="45.78021" lon="4.72333">
        <ele>288.47595</ele>
        <time>2023-07-10T15:27:52.000Z</time>
      </trkpt>
      <trkpt lat="45.7802" lon="4.72332">
        <ele>288.37088</ele>
        <time>2023-07-10T15:27:53.000Z</time>
      </trkpt>
      <trkpt lat="45.78018" lon="4.7233">
        <ele>288.22894</ele>
        <time>2023-07-10T15:27:54.000Z</time>
      </trkpt>
      <trkpt lat="45.78017" lon="4.72328">
        <ele>288.15326</ele>
        <time>2023-07-10T15:27:59.000Z</time>
      </trkpt>
      <trkpt lat="45.78015" lon="4.72328">
        <ele>288.69946</ele>
        <time>2023-07-10T15:28:45.000Z</time>
      </trkpt>
      <trkpt lat="45.78012" lon="4.72326">
        <ele>289.30292</ele>
        <time>2023-07-10T15:28:47.000Z</time>
      </trkpt>
      <trkpt lat="45.78009" lon="4.72325">
        <ele>289.96722</ele>
        <time>2023-07-10T15:28:48.000Z</time>
      </trkpt>
      <trkpt lat="45.78006" lon="4.72325">
        <ele>290.67303</ele>
        <time>2023-07-10T15:28:49.000Z</time>
      </trkpt>
      <trkpt lat="45.78003" lon="4.72325">
        <ele>291.37357</ele>
        <time>2023-07-10T15:28:50.000Z</time>
      </trkpt>
      <trkpt lat="45.78" lon="4.72326">
        <ele>292.04999</ele>
        <time>2023-07-10T15:28:51.000Z</time>
      </trkpt>
      <trkpt lat="45.77997" lon="4.72325">
        <ele>292.71542</ele>
        <time>2023-07-10T15:28:52.000Z</time>
      </trkpt>
      <trkpt lat="45.77993" lon="4.72325">
        <ele>293.42145</ele>
        <time>2023-07-10T15:28:53.000Z</time>
      </trkpt>
      <trkpt lat="45.77988" lon="4.72324">
        <ele>294.11981</ele>
        <time>2023-07-10T15:28:54.000Z</time>
      </trkpt>
      <trkpt lat="45.77984" lon="4.72322">
        <ele>294.88876</ele>
        <time>2023-07-10T15:28:55.000Z</time>
      </trkpt>
      <trkpt lat="45.7798" lon="4.72313">
        <ele>295.59113</ele>
        <time>2023-07-10T15:28:56.000Z</time>
      </trkpt>
      <trkpt lat="45.77978" lon="4.72307">
        <ele>296.27963</ele>
        <time>2023-07-10T15:28:57.000Z</time>
      </trkpt>
      <trkpt lat="45.77978" lon="4.72302">
        <ele>297.00851</ele>
        <time>2023-07-10T15:28:58.000Z</time>
      </trkpt>
      <trkpt lat="45.77978" lon="4.72299">
        <ele>297.74268</ele>
        <time>2023-07-10T15:28:59.000Z</time>
      </trkpt>
      <trkpt lat="45.77978" lon="4.72295">
        <ele>298.52762</ele>
        <time>2023-07-10T15:29:00.000Z</time>
      </trkpt>
      <trkpt lat="45.77978" lon="4.72292">
        <ele>299.32257</ele>
        <time>2023-07-10T15:29:01.000Z</time>
      </trkpt>
      <trkpt lat="45.77979" lon="4.72288">
        <ele>300.17679</ele>
        <time>2023-07-10T15:29:02.000Z</time>
      </trkpt>
      <trkpt lat="45.7798" lon="4.72284">
        <ele>301.01923</ele>
        <time>2023-07-10T15:29:03.000Z</time>
      </trkpt>
      <trkpt lat="45.7798" lon="4.72281">
        <ele>301.80515</ele>
        <time>2023-07-10T15:29:04.000Z</time>
      </trkpt>
      <trkpt lat="45.77982" lon="4.72276">
        <ele>302.55945</ele>
        <time>2023-07-10T15:29:05.000Z</time>
      </trkpt>
      <trkpt lat="45.77984" lon="4.7227">
        <ele>302.694</ele>
        <time>2023-07-10T15:29:06.000Z</time>
      </trkpt>
      <trkpt lat="45.77983" lon="4.72267">
        <ele>301.9527</ele>
        <time>2023-07-10T15:29:07.000Z</time>
      </trkpt>
      <trkpt lat="45.7798" lon="4.72265">
        <ele>301.20242</ele>
        <time>2023-07-10T15:29:08.000Z</time>
      </trkpt>
      <trkpt lat="45.77976" lon="4.72267">
        <ele>300.44672</ele>
        <time>2023-07-10T15:29:09.000Z</time>
      </trkpt>
      <trkpt lat="45.77974" lon="4.72269">
        <ele>299.70544</ele>
        <time>2023-07-10T15:29:10.000Z</time>
      </trkpt>
      <trkpt lat="45.77974" lon="4.72274">
        <ele>298.96652</ele>
        <time>2023-07-10T15:29:11.000Z</time>
      </trkpt>
      <trkpt lat="45.77974" lon="4.72279">
        <ele>298.23727</ele>
        <time>2023-07-10T15:29:12.000Z</time>
      </trkpt>
      <trkpt lat="45.77974" lon="4.72283">
        <ele>297.47028</ele>
        <time>2023-07-10T15:29:13.000Z</time>
      </trkpt>
      <trkpt lat="45.77973" lon="4.72288">
        <ele>296.70078</ele>
        <time>2023-07-10T15:29:14.000Z</time>
      </trkpt>
      <trkpt lat="45.77972" lon="4.72293">
        <ele>295.83783</ele>
        <time>2023-07-10T15:29:15.000Z</time>
      </trkpt>
      <trkpt lat="45.77972" lon="4.72297">
        <ele>294.9996</ele>
        <time>2023-07-10T15:29:16.000Z</time>
      </trkpt>
      <trkpt lat="45.77971" lon="4.723">
        <ele>294.22879</ele>
        <time>2023-07-10T15:29:17.000Z</time>
      </trkpt>
      <trkpt lat="45.77971" lon="4.72304">
        <ele>293.40146</ele>
        <time>2023-07-10T15:29:18.000Z</time>
      </trkpt>
      <trkpt lat="45.77971" lon="4.72307">
        <ele>292.60605</ele>
        <time>2023-07-10T15:29:19.000Z</time>
      </trkpt>
      <trkpt lat="45.77972" lon="4.7231">
        <ele>291.84058</ele>
        <time>2023-07-10T15:29:20.000Z</time>
      </trkpt>
      <trkpt lat="45.77974" lon="4.72313">
        <ele>291.01422</ele>
        <time>2023-07-10T15:29:21.000Z</time>
      </trkpt>
      <trkpt lat="45.77976" lon="4.72315">
        <ele>290.15494</ele>
        <time>2023-07-10T15:29:22.000Z</time>
      </trkpt>
      <trkpt lat="45.77978" lon="4.72317">
        <ele>289.29291</ele>
        <time>2023-07-10T15:29:23.000Z</time>
      </trkpt>
      <trkpt lat="45.77982" lon="4.72319">
        <ele>288.49551</ele>
        <time>2023-07-10T15:29:24.000Z</time>
      </trkpt>
      <trkpt lat="45.77986" lon="4.7232">
        <ele>287.6767</ele>
        <time>2023-07-10T15:29:25.000Z</time>
      </trkpt>
      <trkpt lat="45.7799" lon="4.72321">
        <ele>286.87714</ele>
        <time>2023-07-10T15:29:26.000Z</time>
      </trkpt>
      <trkpt lat="45.77993" lon="4.72322">
        <ele>286.91418</ele>
        <time>2023-07-10T15:29:27.000Z</time>
      </trkpt>
      <trkpt lat="45.77998" lon="4.72323">
        <ele>286.97787</ele>
        <time>2023-07-10T15:29:28.000Z</time>
      </trkpt>
      <trkpt lat="45.78002" lon="4.72324">
        <ele>287.03098</ele>
        <time>2023-07-10T15:29:29.000Z</time>
      </trkpt>
      <trkpt lat="45.78006" lon="4.72325">
        <ele>287.0708</ele>
        <time>2023-07-10T15:29:30.000Z</time>
      </trkpt>
      <trkpt lat="45.78009" lon="4.72324">
        <ele>287.16968</ele>
        <time>2023-07-10T15:29:31.000Z</time>
      </trkpt>
      <trkpt lat="45.78013" lon="4.72323">
        <ele>287.24609</ele>
        <time>2023-07-10T15:29:32.000Z</time>
      </trkpt>
      <trkpt lat="45.78017" lon="4.72323">
        <ele>287.31207</ele>
        <time>2023-07-10T15:29:33.000Z</time>
      </trkpt>
      <trkpt lat="45.7802" lon="4.72324">
        <ele>287.35431</ele>
        <time>2023-07-10T15:29:34.000Z</time>
      </trkpt>
      <trkpt lat="45.78023" lon="4.72325">
        <ele>287.40402</ele>
        <time>2023-07-10T15:29:35.000Z</time>
      </trkpt>
      <trkpt lat="45.78026" lon="4.72325">
        <ele>287.49673</ele>
        <time>2023-07-10T15:29:36.000Z</time>
      </trkpt>
      <trkpt lat="45.78029" lon="4.72327">
        <ele>287.52557</ele>
        <time>2023-07-10T15:29:37.000Z</time>
      </trkpt>
      <trkpt lat="45.78033" lon="4.7233">
        <ele>287.54443</ele>
        <time>2023-07-10T15:29:38.000Z</time>
      </trkpt>
      <trkpt lat="45.78036" lon="4.72333">
        <ele>287.53836</ele>
        <time>2023-07-10T15:29:39.000Z</time>
      </trkpt>
      <trkpt lat="45.78039" lon="4.72337">
        <ele>287.45798</ele>
        <time>2023-07-10T15:29:40.000Z</time>
      </trkpt>
      <trkpt lat="45.78042" lon="4.72342">
        <ele>287.37869</ele>
        <time>2023-07-10T15:29:41.000Z</time>
      </trkpt>
      <trkpt lat="45.78045" lon="4.72347">
        <ele>287.28198</ele>
        <time>2023-07-10T15:29:42.000Z</time>
      </trkpt>
      <trkpt lat="45.78048" lon="4.72352">
        <ele>287.16284</ele>
        <time>2023-07-10T15:29:43.000Z</time>
      </trkpt>
      <trkpt lat="45.7805" lon="4.72357">
        <ele>286.53775</ele>
        <time>2023-07-10T15:29:44.000Z</time>
      </trkpt>
      <trkpt lat="45.78051" lon="4.72362">
        <ele>286.0137</ele>
        <time>2023-07-10T15:29:45.000Z</time>
      </trkpt>
      <trkpt lat="45.78052" lon="4.72367">
        <ele>285.47284</ele>
        <time>2023-07-10T15:29:46.000Z</time>
      </trkpt>
      <trkpt lat="45.78054" lon="4.72373">
        <ele>284.95483</ele>
        <time>2023-07-10T15:29:47.000Z</time>
      </trkpt>
      <trkpt lat="45.78055" lon="4.72378">
        <ele>284.41534</ele>
        <time>2023-07-10T15:29:48.000Z</time>
      </trkpt>
      <trkpt lat="45.78057" lon="4.72383">
        <ele>283.91907</ele>
        <time>2023-07-10T15:29:49.000Z</time>
      </trkpt>
      <trkpt lat="45.78059" lon="4.72387">
        <ele>283.44537</ele>
        <time>2023-07-10T15:29:50.000Z</time>
      </trkpt>
      <trkpt lat="45.7806" lon="4.72392">
        <ele>282.94693</ele>
        <time>2023-07-10T15:29:51.000Z</time>
      </trkpt>
      <trkpt lat="45.78061" lon="4.72397">
        <ele>282.48663</ele>
        <time>2023-07-10T15:29:52.000Z</time>
      </trkpt>
      <trkpt lat="45.78062" lon="4.72401">
        <ele>282.02188</ele>
        <time>2023-07-10T15:29:53.000Z</time>
      </trkpt>
      <trkpt lat="45.78064" lon="4.72404">
        <ele>281.56729</ele>
        <time>2023-07-10T15:29:54.000Z</time>
      </trkpt>
      <trkpt lat="45.78065" lon="4.72407">
        <ele>281.09415</ele>
        <time>2023-07-10T15:29:55.000Z</time>
      </trkpt>
      <trkpt lat="45.78065" lon="4.7241">
        <ele>280.62549</ele>
        <time>2023-07-10T15:29:56.000Z</time>
      </trkpt>
      <trkpt lat="45.78064" lon="4.72412">
        <ele>280.18524</ele>
        <time>2023-07-10T15:29:57.000Z</time>
      </trkpt>
      <trkpt lat="45.78063" lon="4.72412">
        <ele>279.76703</ele>
        <time>2023-07-10T15:29:58.000Z</time>
      </trkpt>
      <trkpt lat="45.78061" lon="4.72408">
        <ele>279.3576</ele>
        <time>2023-07-10T15:30:00.000Z</time>
      </trkpt>
      <trkpt lat="45.7806" lon="4.72405">
        <ele>279.00009</ele>
        <time>2023-07-10T15:30:01.000Z</time>
      </trkpt>
      <trkpt lat="45.78058" lon="4.72402">
        <ele>278.70996</ele>
        <time>2023-07-10T15:30:02.000Z</time>
      </trkpt>
      <trkpt lat="45.78057" lon="4.72398">
        <ele>278.40213</ele>
        <time>2023-07-10T15:30:03.000Z</time>
      </trkpt>
      <trkpt lat="45.78056" lon="4.72396">
        <ele>278.10577</ele>
        <time>2023-07-10T15:30:04.000Z</time>
      </trkpt>
      <trkpt lat="45.78054" lon="4.72394">
        <ele>278.21649</ele>
        <time>2023-07-10T15:30:08.000Z</time>
      </trkpt>
      <trkpt lat="45.78052" lon="4.72393">
        <ele>278.62122</ele>
        <time>2023-07-10T15:30:21.000Z</time>
      </trkpt>
      <trkpt lat="45.7805" lon="4.72391">
        <ele>279.03696</ele>
        <time>2023-07-10T15:30:22.000Z</time>
      </trkpt>
      <trkpt lat="45.78048" lon="4.7239">
        <ele>279.41733</ele>
        <time>2023-07-10T15:30:23.000Z</time>
      </trkpt>
      <trkpt lat="45.78045" lon="4.72388">
        <ele>279.39175</ele>
        <time>2023-07-10T15:30:25.000Z</time>
      </trkpt>
      <trkpt lat="45.78043" lon="4.72387">
        <ele>279.34406</ele>
        <time>2023-07-10T15:30:26.000Z</time>
      </trkpt>
      <trkpt lat="45.7804" lon="4.72386">
        <ele>279.28442</ele>
        <time>2023-07-10T15:30:27.000Z</time>
      </trkpt>
      <trkpt lat="45.78037" lon="4.72384">
        <ele>279.19083</ele>
        <time>2023-07-10T15:30:28.000Z</time>
      </trkpt>
      <trkpt lat="45.78033" lon="4.72382">
        <ele>279.0647</ele>
        <time>2023-07-10T15:30:29.000Z</time>
      </trkpt>
      <trkpt lat="45.7803" lon="4.7238">
        <ele>278.94998</ele>
        <time>2023-07-10T15:30:30.000Z</time>
      </trkpt>
      <trkpt lat="45.78028" lon="4.72378">
        <ele>278.82993</ele>
        <time>2023-07-10T15:30:31.000Z</time>
      </trkpt>
      <trkpt lat="45.78026" lon="4.72377">
        <ele>278.71063</ele>
        <time>2023-07-10T15:30:32.000Z</time>
      </trkpt>
      <trkpt lat="45.78022" lon="4.72376">
        <ele>278.57245</ele>
        <time>2023-07-10T15:30:33.000Z</time>
      </trkpt>
      <trkpt lat="45.7802" lon="4.72376">
        <ele>278.42096</ele>
        <time>2023-07-10T15:30:34.000Z</time>
      </trkpt>
      <trkpt lat="45.78016" lon="4.72377">
        <ele>278.26938</ele>
        <time>2023-07-10T15:30:35.000Z</time>
      </trkpt>
      <trkpt lat="45.78012" lon="4.72379">
        <ele>278.11356</ele>
        <time>2023-07-10T15:30:36.000Z</time>
      </trkpt>
      <trkpt lat="45.78007" lon="4.72381">
        <ele>277.95673</ele>
        <time>2023-07-10T15:30:37.000Z</time>
      </trkpt>
      <trkpt lat="45.78004" lon="4.72382">
        <ele>277.74347</ele>
        <time>2023-07-10T15:30:38.000Z</time>
      </trkpt>
      <trkpt lat="45.78002" lon="4.72382">
        <ele>277.52521</ele>
        <time>2023-07-10T15:30:39.000Z</time>
      </trkpt>
      <trkpt lat="45.77998" lon="4.72382">
        <ele>277.31952</ele>
        <time>2023-07-10T15:30:40.000Z</time>
      </trkpt>
      <trkpt lat="45.77994" lon="4.72381">
        <ele>277.21774</ele>
        <time>2023-07-10T15:30:41.000Z</time>
      </trkpt>
      <trkpt lat="45.77992" lon="4.72381">
        <ele>276.72299</ele>
        <time>2023-07-10T15:30:42.000Z</time>
      </trkpt>
      <trkpt lat="45.7799" lon="4.72381">
        <ele>276.1748</ele>
        <time>2023-07-10T15:30:43.000Z</time>
      </trkpt>
      <trkpt lat="45.77987" lon="4.72381">
        <ele>275.6264</ele>
        <time>2023-07-10T15:30:44.000Z</time>
      </trkpt>
      <trkpt lat="45.77985" lon="4.72381">
        <ele>275.49213</ele>
        <time>2023-07-10T15:30:45.000Z</time>
      </trkpt>
      <trkpt lat="45.77982" lon="4.72381">
        <ele>275.32748</ele>
        <time>2023-07-10T15:30:46.000Z</time>
      </trkpt>
      <trkpt lat="45.77978" lon="4.72381">
        <ele>275.16888</ele>
        <time>2023-07-10T15:30:47.000Z</time>
      </trkpt>
      <trkpt lat="45.77974" lon="4.7238">
        <ele>275.02664</ele>
        <time>2023-07-10T15:30:48.000Z</time>
      </trkpt>
      <trkpt lat="45.77971" lon="4.7238">
        <ele>274.8858</ele>
        <time>2023-07-10T15:30:49.000Z</time>
      </trkpt>
      <trkpt lat="45.77969" lon="4.7238">
        <ele>274.74884</ele>
        <time>2023-07-10T15:30:50.000Z</time>
      </trkpt>
      <trkpt lat="45.77965" lon="4.7238">
        <ele>274.62085</ele>
        <time>2023-07-10T15:30:51.000Z</time>
      </trkpt>
      <trkpt lat="45.7796" lon="4.72379">
        <ele>274.49615</ele>
        <time>2023-07-10T15:30:52.000Z</time>
      </trkpt>
      <trkpt lat="45.77956" lon="4.72377">
        <ele>274.39056</ele>
        <time>2023-07-10T15:30:53.000Z</time>
      </trkpt>
      <trkpt lat="45.77952" lon="4.72376">
        <ele>274.30054</ele>
        <time>2023-07-10T15:30:54.000Z</time>
      </trkpt>
      <trkpt lat="45.77946" lon="4.72376">
        <ele>274.23203</ele>
        <time>2023-07-10T15:30:55.000Z</time>
      </trkpt>
      <trkpt lat="45.77942" lon="4.72376">
        <ele>274.16251</ele>
        <time>2023-07-10T15:30:56.000Z</time>
      </trkpt>
      <trkpt lat="45.77939" lon="4.72375">
        <ele>274.06854</ele>
        <time>2023-07-10T15:30:57.000Z</time>
      </trkpt>
      <trkpt lat="45.77935" lon="4.72374">
        <ele>273.99725</ele>
        <time>2023-07-10T15:30:58.000Z</time>
      </trkpt>
      <trkpt lat="45.77931" lon="4.72373">
        <ele>273.95993</ele>
        <time>2023-07-10T15:30:59.000Z</time>
      </trkpt>
      <trkpt lat="45.77928" lon="4.72374">
        <ele>273.93604</ele>
        <time>2023-07-10T15:31:00.000Z</time>
      </trkpt>
      <trkpt lat="45.77924" lon="4.72374">
        <ele>273.95209</ele>
        <time>2023-07-10T15:31:01.000Z</time>
      </trkpt>
      <trkpt lat="45.77921" lon="4.72376">
        <ele>273.98016</ele>
        <time>2023-07-10T15:31:02.000Z</time>
      </trkpt>
      <trkpt lat="45.77918" lon="4.72378">
        <ele>274.09238</ele>
        <time>2023-07-10T15:31:03.000Z</time>
      </trkpt>
      <trkpt lat="45.77916" lon="4.7238">
        <ele>274.21405</ele>
        <time>2023-07-10T15:31:04.000Z</time>
      </trkpt>
      <trkpt lat="45.77915" lon="4.72382">
        <ele>274.32526</ele>
        <time>2023-07-10T15:31:05.000Z</time>
      </trkpt>
      <trkpt lat="45.77914" lon="4.72386">
        <ele>274.4295</ele>
        <time>2023-07-10T15:31:07.000Z</time>
      </trkpt>
      <trkpt lat="45.77913" lon="4.72388">
        <ele>274.50424</ele>
        <time>2023-07-10T15:31:08.000Z</time>
      </trkpt>
      <trkpt lat="45.77912" lon="4.72391">
        <ele>274.59036</ele>
        <time>2023-07-10T15:31:09.000Z</time>
      </trkpt>
      <trkpt lat="45.77911" lon="4.72394">
        <ele>274.68607</ele>
        <time>2023-07-10T15:31:11.000Z</time>
      </trkpt>
      <trkpt lat="45.77913" lon="4.72393">
        <ele>274.81439</ele>
        <time>2023-07-10T15:31:17.000Z</time>
      </trkpt>
      <trkpt lat="45.7791" lon="4.72395">
        <ele>274.95825</ele>
        <time>2023-07-10T15:31:31.000Z</time>
      </trkpt>
      <trkpt lat="45.77906" lon="4.72396">
        <ele>275.07788</ele>
        <time>2023-07-10T15:31:33.000Z</time>
      </trkpt>
      <trkpt lat="45.77902" lon="4.72398">
        <ele>275.17883</ele>
        <time>2023-07-10T15:31:34.000Z</time>
      </trkpt>
      <trkpt lat="45.77899" lon="4.724">
        <ele>275.24036</ele>
        <time>2023-07-10T15:31:35.000Z</time>
      </trkpt>
      <trkpt lat="45.77896" lon="4.72402">
        <ele>275.29584</ele>
        <time>2023-07-10T15:31:36.000Z</time>
      </trkpt>
      <trkpt lat="45.77892" lon="4.72405">
        <ele>275.3432</ele>
        <time>2023-07-10T15:31:37.000Z</time>
      </trkpt>
      <trkpt lat="45.7789" lon="4.72406">
        <ele>275.40973</ele>
        <time>2023-07-10T15:31:38.000Z</time>
      </trkpt>
      <trkpt lat="45.77889" lon="4.72408">
        <ele>275.46664</ele>
        <time>2023-07-10T15:31:39.000Z</time>
      </trkpt>
      <trkpt lat="45.77887" lon="4.7241">
        <ele>275.52072</ele>
        <time>2023-07-10T15:31:41.000Z</time>
      </trkpt>
      <trkpt lat="45.77886" lon="4.72413">
        <ele>275.50525</ele>
        <time>2023-07-10T15:31:45.000Z</time>
      </trkpt>
      <trkpt lat="45.77885" lon="4.72415">
        <ele>275.47028</ele>
        <time>2023-07-10T15:31:51.000Z</time>
      </trkpt>
      <trkpt lat="45.77886" lon="4.72413">
        <ele>275.43454</ele>
        <time>2023-07-10T15:32:32.000Z</time>
      </trkpt>
      <trkpt lat="45.77884" lon="4.72412">
        <ele>275.28448</ele>
        <time>2023-07-10T15:32:38.000Z</time>
      </trkpt>
      <trkpt lat="45.77882" lon="4.72412">
        <ele>275.11646</ele>
        <time>2023-07-10T15:32:39.000Z</time>
      </trkpt>
      <trkpt lat="45.7788" lon="4.72414">
        <ele>274.95676</ele>
        <time>2023-07-10T15:32:40.000Z</time>
      </trkpt>
      <trkpt lat="45.77878" lon="4.72416">
        <ele>274.7861</ele>
        <time>2023-07-10T15:32:42.000Z</time>
      </trkpt>
      <trkpt lat="45.77877" lon="4.72418">
        <ele>274.66187</ele>
        <time>2023-07-10T15:32:45.000Z</time>
      </trkpt>
      <trkpt lat="45.77875" lon="4.7242">
        <ele>274.56351</ele>
        <time>2023-07-10T15:32:49.000Z</time>
      </trkpt>
      <trkpt lat="45.77874" lon="4.72422">
        <ele>274.46588</ele>
        <time>2023-07-10T15:32:54.000Z</time>
      </trkpt>
      <trkpt lat="45.77874" lon="4.72425">
        <ele>274.38232</ele>
        <time>2023-07-10T15:33:00.000Z</time>
      </trkpt>
      <trkpt lat="45.77873" lon="4.72427">
        <ele>274.25226</ele>
        <time>2023-07-10T15:33:06.000Z</time>
      </trkpt>
      <trkpt lat="45.77872" lon="4.72429">
        <ele>274.09052</ele>
        <time>2023-07-10T15:33:09.000Z</time>
      </trkpt>
      <trkpt lat="45.77871" lon="4.72432">
        <ele>273.95276</ele>
        <time>2023-07-10T15:33:12.000Z</time>
      </trkpt>
      <trkpt lat="45.77871" lon="4.72437">
        <ele>273.85403</ele>
        <time>2023-07-10T15:33:13.000Z</time>
      </trkpt>
      <trkpt lat="45.77871" lon="4.7244">
        <ele>273.77008</ele>
        <time>2023-07-10T15:33:14.000Z</time>
      </trkpt>
      <trkpt lat="45.7787" lon="4.72444">
        <ele>273.69891</ele>
        <time>2023-07-10T15:33:15.000Z</time>
      </trkpt>
      <trkpt lat="45.77868" lon="4.72447">
        <ele>273.61237</ele>
        <time>2023-07-10T15:33:16.000Z</time>
      </trkpt>
      <trkpt lat="45.77866" lon="4.7245">
        <ele>273.51309</ele>
        <time>2023-07-10T15:33:17.000Z</time>
      </trkpt>
      <trkpt lat="45.77864" lon="4.72453">
        <ele>273.39291</ele>
        <time>2023-07-10T15:33:19.000Z</time>
      </trkpt>
      <trkpt lat="45.77862" lon="4.72455">
        <ele>273.3074</ele>
        <time>2023-07-10T15:33:21.000Z</time>
      </trkpt>
      <trkpt lat="45.7786" lon="4.72459">
        <ele>273.16888</ele>
        <time>2023-07-10T15:33:23.000Z</time>
      </trkpt>
      <trkpt lat="45.77856" lon="4.72462">
        <ele>273.02887</ele>
        <time>2023-07-10T15:33:24.000Z</time>
      </trkpt>
      <trkpt lat="45.77853" lon="4.72464">
        <ele>272.9715</ele>
        <time>2023-07-10T15:33:25.000Z</time>
      </trkpt>
      <trkpt lat="45.7785" lon="4.72466">
        <ele>272.92682</ele>
        <time>2023-07-10T15:33:26.000Z</time>
      </trkpt>
      <trkpt lat="45.77847" lon="4.72468">
        <ele>272.88995</ele>
        <time>2023-07-10T15:33:27.000Z</time>
      </trkpt>
      <trkpt lat="45.77844" lon="4.7247">
        <ele>272.87506</ele>
        <time>2023-07-10T15:33:28.000Z</time>
      </trkpt>
      <trkpt lat="45.77841" lon="4.72471">
        <ele>272.84744</ele>
        <time>2023-07-10T15:33:29.000Z</time>
      </trkpt>
      <trkpt lat="45.77838" lon="4.72473">
        <ele>272.79144</ele>
        <time>2023-07-10T15:33:30.000Z</time>
      </trkpt>
      <trkpt lat="45.77836" lon="4.72474">
        <ele>272.72339</ele>
        <time>2023-07-10T15:33:31.000Z</time>
      </trkpt>
      <trkpt lat="45.77833" lon="4.72477">
        <ele>272.61823</ele>
        <time>2023-07-10T15:33:32.000Z</time>
      </trkpt>
      <trkpt lat="45.77826" lon="4.72485">
        <ele>272.55655</ele>
        <time>2023-07-10T15:33:33.000Z</time>
      </trkpt>
      <trkpt lat="45.77824" lon="4.72491">
        <ele>272.54776</ele>
        <time>2023-07-10T15:33:34.000Z</time>
      </trkpt>
      <trkpt lat="45.77822" lon="4.72496">
        <ele>272.54092</ele>
        <time>2023-07-10T15:33:35.000Z</time>
      </trkpt>
      <trkpt lat="45.7782" lon="4.72499">
        <ele>272.53705</ele>
        <time>2023-07-10T15:33:36.000Z</time>
      </trkpt>
      <trkpt lat="45.77817" lon="4.72503">
        <ele>272.51666</ele>
        <time>2023-07-10T15:33:38.000Z</time>
      </trkpt>
      <trkpt lat="45.77812" lon="4.72507">
        <ele>272.49527</ele>
        <time>2023-07-10T15:33:39.000Z</time>
      </trkpt>
      <trkpt lat="45.77809" lon="4.7251">
        <ele>272.4848</ele>
        <time>2023-07-10T15:33:40.000Z</time>
      </trkpt>
      <trkpt lat="45.77804" lon="4.72512">
        <ele>272.49811</ele>
        <time>2023-07-10T15:33:41.000Z</time>
      </trkpt>
      <trkpt lat="45.77801" lon="4.72511">
        <ele>272.50311</ele>
        <time>2023-07-10T15:33:42.000Z</time>
      </trkpt>
      <trkpt lat="45.77795" lon="4.72512">
        <ele>272.51678</ele>
        <time>2023-07-10T15:33:43.000Z</time>
      </trkpt>
      <trkpt lat="45.77791" lon="4.72515">
        <ele>272.56598</ele>
        <time>2023-07-10T15:33:44.000Z</time>
      </trkpt>
      <trkpt lat="45.77787" lon="4.7252">
        <ele>272.62442</ele>
        <time>2023-07-10T15:33:45.000Z</time>
      </trkpt>
      <trkpt lat="45.77784" lon="4.7253">
        <ele>272.67889</ele>
        <time>2023-07-10T15:33:46.000Z</time>
      </trkpt>
      <trkpt lat="45.77781" lon="4.72535">
        <ele>272.75217</ele>
        <time>2023-07-10T15:33:47.000Z</time>
      </trkpt>
      <trkpt lat="45.7778" lon="4.7254">
        <ele>272.80832</ele>
        <time>2023-07-10T15:33:48.000Z</time>
      </trkpt>
      <trkpt lat="45.77777" lon="4.7254">
        <ele>272.86127</ele>
        <time>2023-07-10T15:33:49.000Z</time>
      </trkpt>
      <trkpt lat="45.77773" lon="4.72545">
        <ele>272.90634</ele>
        <time>2023-07-10T15:33:50.000Z</time>
      </trkpt>
      <trkpt lat="45.77772" lon="4.72547">
        <ele>272.94952</ele>
        <time>2023-07-10T15:33:51.000Z</time>
      </trkpt>
      <trkpt lat="45.77769" lon="4.72549">
        <ele>272.98843</ele>
        <time>2023-07-10T15:33:52.000Z</time>
      </trkpt>
      <trkpt lat="45.77767" lon="4.7255">
        <ele>272.98825</ele>
        <time>2023-07-10T15:33:55.000Z</time>
      </trkpt>
      <trkpt lat="45.77767" lon="4.72553">
        <ele>272.97504</ele>
        <time>2023-07-10T15:34:07.000Z</time>
      </trkpt>
      <trkpt lat="45.77765" lon="4.72555">
        <ele>274.54184</ele>
        <time>2023-07-10T15:37:19.000Z</time>
      </trkpt>
      <trkpt lat="45.77762" lon="4.72555">
        <ele>274.6286</ele>
        <time>2023-07-10T15:37:21.000Z</time>
      </trkpt>
      <trkpt lat="45.7776" lon="4.72556">
        <ele>276.1304</ele>
        <time>2023-07-10T15:37:23.000Z</time>
      </trkpt>
      <trkpt lat="45.77758" lon="4.72558">
        <ele>277.63159</ele>
        <time>2023-07-10T15:37:25.000Z</time>
      </trkpt>
      <trkpt lat="45.77758" lon="4.72561">
        <ele>279.02621</ele>
        <time>2023-07-10T15:37:29.000Z</time>
      </trkpt>
      <trkpt lat="45.77755" lon="4.7256">
        <ele>278.89453</ele>
        <time>2023-07-10T15:37:32.000Z</time>
      </trkpt>
      <trkpt lat="45.77753" lon="4.72559">
        <ele>278.74396</ele>
        <time>2023-07-10T15:37:34.000Z</time>
      </trkpt>
      <trkpt lat="45.77751" lon="4.72558">
        <ele>278.61172</ele>
        <time>2023-07-10T15:37:35.000Z</time>
      </trkpt>
      <trkpt lat="45.77748" lon="4.72558">
        <ele>278.47549</ele>
        <time>2023-07-10T15:37:36.000Z</time>
      </trkpt>
      <trkpt lat="45.77744" lon="4.72559">
        <ele>278.31549</ele>
        <time>2023-07-10T15:37:37.000Z</time>
      </trkpt>
      <trkpt lat="45.77741" lon="4.7256">
        <ele>278.15646</ele>
        <time>2023-07-10T15:37:38.000Z</time>
      </trkpt>
      <trkpt lat="45.77738" lon="4.7256">
        <ele>277.99258</ele>
        <time>2023-07-10T15:37:39.000Z</time>
      </trkpt>
      <trkpt lat="45.77734" lon="4.72561">
        <ele>277.80737</ele>
        <time>2023-07-10T15:37:40.000Z</time>
      </trkpt>
      <trkpt lat="45.7773" lon="4.72561">
        <ele>277.63275</ele>
        <time>2023-07-10T15:37:41.000Z</time>
      </trkpt>
      <trkpt lat="45.77726" lon="4.72561">
        <ele>277.47595</ele>
        <time>2023-07-10T15:37:42.000Z</time>
      </trkpt>
      <trkpt lat="45.77723" lon="4.72561">
        <ele>277.31918</ele>
        <time>2023-07-10T15:37:43.000Z</time>
      </trkpt>
      <trkpt lat="45.77721" lon="4.7256">
        <ele>277.16431</ele>
        <time>2023-07-10T15:37:44.000Z</time>
      </trkpt>
      <trkpt lat="45.77718" lon="4.72559">
        <ele>277.02118</ele>
        <time>2023-07-10T15:37:45.000Z</time>
      </trkpt>
      <trkpt lat="45.77716" lon="4.72557">
        <ele>276.90143</ele>
        <time>2023-07-10T15:37:46.000Z</time>
      </trkpt>
      <trkpt lat="45.77714" lon="4.72554">
        <ele>276.7991</ele>
        <time>2023-07-10T15:37:47.000Z</time>
      </trkpt>
      <trkpt lat="45.77713" lon="4.72551">
        <ele>275.13629</ele>
        <time>2023-07-10T15:37:48.000Z</time>
      </trkpt>
      <trkpt lat="45.77711" lon="4.72549">
        <ele>274.93768</ele>
        <time>2023-07-10T15:37:50.000Z</time>
      </trkpt>
      <trkpt lat="45.77711" lon="4.72546">
        <ele>273.32468</ele>
        <time>2023-07-10T15:38:23.000Z</time>
      </trkpt>
      <trkpt lat="45.7771" lon="4.72543">
        <ele>271.64459</ele>
        <time>2023-07-10T15:38:25.000Z</time>
      </trkpt>
      <trkpt lat="45.7771" lon="4.72539">
        <ele>269.99222</ele>
        <time>2023-07-10T15:38:27.000Z</time>
      </trkpt>
      <trkpt lat="45.7771" lon="4.72536">
        <ele>269.85162</ele>
        <time>2023-07-10T15:38:28.000Z</time>
      </trkpt>
      <trkpt lat="45.7771" lon="4.72533">
        <ele>269.70319</ele>
        <time>2023-07-10T15:38:29.000Z</time>
      </trkpt>
      <trkpt lat="45.7771" lon="4.7253">
        <ele>269.56491</ele>
        <time>2023-07-10T15:38:30.000Z</time>
      </trkpt>
      <trkpt lat="45.7771" lon="4.72527">
        <ele>269.49335</ele>
        <time>2023-07-10T15:38:31.000Z</time>
      </trkpt>
      <trkpt lat="45.77709" lon="4.72522">
        <ele>269.45831</ele>
        <time>2023-07-10T15:38:33.000Z</time>
      </trkpt>
      <trkpt lat="45.77709" lon="4.72517">
        <ele>269.46558</ele>
        <time>2023-07-10T15:38:35.000Z</time>
      </trkpt>
      <trkpt lat="45.7771" lon="4.72514">
        <ele>269.4953</ele>
        <time>2023-07-10T15:38:36.000Z</time>
      </trkpt>
      <trkpt lat="45.77711" lon="4.7251">
        <ele>269.54602</ele>
        <time>2023-07-10T15:38:38.000Z</time>
      </trkpt>
      <trkpt lat="45.77709" lon="4.72508">
        <ele>269.63855</ele>
        <time>2023-07-10T15:38:40.000Z</time>
      </trkpt>
      <trkpt lat="45.77708" lon="4.72506">
        <ele>269.60052</ele>
        <time>2023-07-10T15:38:52.000Z</time>
      </trkpt>
      <trkpt lat="45.77707" lon="4.72503">
        <ele>269.59882</ele>
        <time>2023-07-10T15:38:55.000Z</time>
      </trkpt>
      <trkpt lat="45.77705" lon="4.72501">
        <ele>269.61682</ele>
        <time>2023-07-10T15:38:57.000Z</time>
      </trkpt>
      <trkpt lat="45.77703" lon="4.72499">
        <ele>269.63391</ele>
        <time>2023-07-10T15:38:58.000Z</time>
      </trkpt>
      <trkpt lat="45.77702" lon="4.72496">
        <ele>269.6539</ele>
        <time>2023-07-10T15:38:59.000Z</time>
      </trkpt>
      <trkpt lat="45.77701" lon="4.72494">
        <ele>269.64862</ele>
        <time>2023-07-10T15:39:00.000Z</time>
      </trkpt>
      <trkpt lat="45.77699" lon="4.72492">
        <ele>269.59885</ele>
        <time>2023-07-10T15:39:03.000Z</time>
      </trkpt>
      <trkpt lat="45.77697" lon="4.72489">
        <ele>269.56537</ele>
        <time>2023-07-10T15:39:05.000Z</time>
      </trkpt>
      <trkpt lat="45.77695" lon="4.72487">
        <ele>269.48898</ele>
        <time>2023-07-10T15:39:07.000Z</time>
      </trkpt>
      <trkpt lat="45.77693" lon="4.72487">
        <ele>269.51349</ele>
        <time>2023-07-10T15:39:17.000Z</time>
      </trkpt>
      <trkpt lat="45.77694" lon="4.7249">
        <ele>269.63727</ele>
        <time>2023-07-10T15:39:22.000Z</time>
      </trkpt>
      <trkpt lat="45.77696" lon="4.72494">
        <ele>269.76031</ele>
        <time>2023-07-10T15:39:24.000Z</time>
      </trkpt>
      <trkpt lat="45.77698" lon="4.72496">
        <ele>269.89081</ele>
        <time>2023-07-10T15:39:26.000Z</time>
      </trkpt>
      <trkpt lat="45.777" lon="4.72496">
        <ele>270.00015</ele>
        <time>2023-07-10T15:39:27.000Z</time>
      </trkpt>
      <trkpt lat="45.77703" lon="4.72495">
        <ele>270.04312</ele>
        <time>2023-07-10T15:39:29.000Z</time>
      </trkpt>
      <trkpt lat="45.77705" lon="4.72495">
        <ele>270.01996</ele>
        <time>2023-07-10T15:39:30.000Z</time>
      </trkpt>
      <trkpt lat="45.77707" lon="4.72496">
        <ele>269.88748</ele>
        <time>2023-07-10T15:39:32.000Z</time>
      </trkpt>
      <trkpt lat="45.77708" lon="4.72502">
        <ele>269.6972</ele>
        <time>2023-07-10T15:39:34.000Z</time>
      </trkpt>
      <trkpt lat="45.77708" lon="4.72504">
        <ele>269.52631</ele>
        <time>2023-07-10T15:39:35.000Z</time>
      </trkpt>
      <trkpt lat="45.77707" lon="4.72508">
        <ele>269.29678</ele>
        <time>2023-07-10T15:39:36.000Z</time>
      </trkpt>
      <trkpt lat="45.77705" lon="4.72512">
        <ele>269.13788</ele>
        <time>2023-07-10T15:39:37.000Z</time>
      </trkpt>
      <trkpt lat="45.77704" lon="4.72516">
        <ele>268.9487</ele>
        <time>2023-07-10T15:39:38.000Z</time>
      </trkpt>
      <trkpt lat="45.77703" lon="4.72519">
        <ele>268.74399</ele>
        <time>2023-07-10T15:39:39.000Z</time>
      </trkpt>
      <trkpt lat="45.77703" lon="4.72523">
        <ele>268.52924</ele>
        <time>2023-07-10T15:39:40.000Z</time>
      </trkpt>
      <trkpt lat="45.77704" lon="4.72529">
        <ele>268.25699</ele>
        <time>2023-07-10T15:39:41.000Z</time>
      </trkpt>
      <trkpt lat="45.77707" lon="4.72538">
        <ele>267.87943</ele>
        <time>2023-07-10T15:39:42.000Z</time>
      </trkpt>
      <trkpt lat="45.77707" lon="4.72541">
        <ele>267.46426</ele>
        <time>2023-07-10T15:39:43.000Z</time>
      </trkpt>
      <trkpt lat="45.77705" lon="4.72543">
        <ele>267.24063</ele>
        <time>2023-07-10T15:39:45.000Z</time>
      </trkpt>
      <trkpt lat="45.77706" lon="4.72546">
        <ele>267.0535</ele>
        <time>2023-07-10T15:39:49.000Z</time>
      </trkpt>
      <trkpt lat="45.77704" lon="4.72547">
        <ele>266.8718</ele>
        <time>2023-07-10T15:39:51.000Z</time>
      </trkpt>
      <trkpt lat="45.77701" lon="4.72548">
        <ele>266.76749</ele>
        <time>2023-07-10T15:39:52.000Z</time>
      </trkpt>
      <trkpt lat="45.77701" lon="4.72546">
        <ele>266.68292</ele>
        <time>2023-07-10T15:39:53.000Z</time>
      </trkpt>
      <trkpt lat="45.77702" lon="4.72542">
        <ele>266.67419</ele>
        <time>2023-07-10T15:39:54.000Z</time>
      </trkpt>
      <trkpt lat="45.77699" lon="4.72543">
        <ele>266.67313</ele>
        <time>2023-07-10T15:39:55.000Z</time>
      </trkpt>
      <trkpt lat="45.77697" lon="4.72542">
        <ele>266.69864</ele>
        <time>2023-07-10T15:40:04.000Z</time>
      </trkpt>
      <trkpt lat="45.77695" lon="4.72541">
        <ele>266.76508</ele>
        <time>2023-07-10T15:40:06.000Z</time>
      </trkpt>
      <trkpt lat="45.77693" lon="4.72541">
        <ele>266.89413</ele>
        <time>2023-07-10T15:40:20.000Z</time>
      </trkpt>
      <trkpt lat="45.77691" lon="4.72543">
        <ele>267.04156</ele>
        <time>2023-07-10T15:40:23.000Z</time>
      </trkpt>
      <trkpt lat="45.77693" lon="4.72544">
        <ele>267.17218</ele>
        <time>2023-07-10T15:40:38.000Z</time>
      </trkpt>
      <trkpt lat="45.77691" lon="4.72548">
        <ele>267.28293</ele>
        <time>2023-07-10T15:40:54.000Z</time>
      </trkpt>
      <trkpt lat="45.77689" lon="4.72551">
        <ele>267.4686</ele>
        <time>2023-07-10T15:40:56.000Z</time>
      </trkpt>
      <trkpt lat="45.77687" lon="4.72553">
        <ele>267.66714</ele>
        <time>2023-07-10T15:40:59.000Z</time>
      </trkpt>
      <trkpt lat="45.77686" lon="4.72556">
        <ele>267.86453</ele>
        <time>2023-07-10T15:41:02.000Z</time>
      </trkpt>
      <trkpt lat="45.77684" lon="4.72557">
        <ele>268.04428</ele>
        <time>2023-07-10T15:41:04.000Z</time>
      </trkpt>
      <trkpt lat="45.77684" lon="4.7256">
        <ele>268.34906</ele>
        <time>2023-07-10T15:42:43.000Z</time>
      </trkpt>
      <trkpt lat="45.77683" lon="4.7256">
        <ele>268.76398</ele>
        <time>2023-07-10T15:42:47.000Z</time>
      </trkpt>
      <trkpt lat="45.77683" lon="4.72556">
        <ele>269.2514</ele>
        <time>2023-07-10T15:42:49.000Z</time>
      </trkpt>
      <trkpt lat="45.77683" lon="4.72552">
        <ele>269.5368</ele>
        <time>2023-07-10T15:42:51.000Z</time>
      </trkpt>
      <trkpt lat="45.77679" lon="4.72552">
        <ele>269.81671</ele>
        <time>2023-07-10T15:42:53.000Z</time>
      </trkpt>
      <trkpt lat="45.77677" lon="4.72553">
        <ele>270.05899</ele>
        <time>2023-07-10T15:42:54.000Z</time>
      </trkpt>
      <trkpt lat="45.77674" lon="4.72553">
        <ele>270.17523</ele>
        <time>2023-07-10T15:42:55.000Z</time>
      </trkpt>
      <trkpt lat="45.77672" lon="4.72554">
        <ele>270.13934</ele>
        <time>2023-07-10T15:42:56.000Z</time>
      </trkpt>
      <trkpt lat="45.7767" lon="4.72554">
        <ele>270.09344</ele>
        <time>2023-07-10T15:42:58.000Z</time>
      </trkpt>
      <trkpt lat="45.77666" lon="4.72554">
        <ele>270.08542</ele>
        <time>2023-07-10T15:43:00.000Z</time>
      </trkpt>
      <trkpt lat="45.77664" lon="4.72553">
        <ele>270.07584</ele>
        <time>2023-07-10T15:43:01.000Z</time>
      </trkpt>
      <trkpt lat="45.77662" lon="4.72552">
        <ele>270.03818</ele>
        <time>2023-07-10T15:43:02.000Z</time>
      </trkpt>
      <trkpt lat="45.7766" lon="4.72551">
        <ele>269.96475</ele>
        <time>2023-07-10T15:43:03.000Z</time>
      </trkpt>
      <trkpt lat="45.77658" lon="4.72549">
        <ele>269.90594</ele>
        <time>2023-07-10T15:43:04.000Z</time>
      </trkpt>
      <trkpt lat="45.77656" lon="4.72548">
        <ele>269.82809</ele>
        <time>2023-07-10T15:43:05.000Z</time>
      </trkpt>
      <trkpt lat="45.77655" lon="4.72546">
        <ele>269.80417</ele>
        <time>2023-07-10T15:43:06.000Z</time>
      </trkpt>
      <trkpt lat="45.77654" lon="4.72544">
        <ele>269.74176</ele>
        <time>2023-07-10T15:43:08.000Z</time>
      </trkpt>
      <trkpt lat="45.77653" lon="4.7254">
        <ele>269.68002</ele>
        <time>2023-07-10T15:43:13.000Z</time>
      </trkpt>
      <trkpt lat="45.77651" lon="4.72539">
        <ele>269.59586</ele>
        <time>2023-07-10T15:43:18.000Z</time>
      </trkpt>
      <trkpt lat="45.77649" lon="4.72537">
        <ele>269.55093</ele>
        <time>2023-07-10T15:43:21.000Z</time>
      </trkpt>
      <trkpt lat="45.77649" lon="4.7254">
        <ele>269.49799</ele>
        <time>2023-07-10T15:43:26.000Z</time>
      </trkpt>
      <trkpt lat="45.77646" lon="4.72541">
        <ele>269.4361</ele>
        <time>2023-07-10T15:43:32.000Z</time>
      </trkpt>
      <trkpt lat="45.77644" lon="4.72543">
        <ele>269.40695</ele>
        <time>2023-07-10T15:43:34.000Z</time>
      </trkpt>
      <trkpt lat="45.7764" lon="4.72544">
        <ele>269.44061</ele>
        <time>2023-07-10T15:43:36.000Z</time>
      </trkpt>
      <trkpt lat="45.77638" lon="4.72546">
        <ele>269.57819</ele>
        <time>2023-07-10T15:43:38.000Z</time>
      </trkpt>
      <trkpt lat="45.77636" lon="4.72548">
        <ele>269.70218</ele>
        <time>2023-07-10T15:43:39.000Z</time>
      </trkpt>
      <trkpt lat="45.77634" lon="4.72552">
        <ele>269.80365</ele>
        <time>2023-07-10T15:43:41.000Z</time>
      </trkpt>
      <trkpt lat="45.77632" lon="4.72554">
        <ele>270.01669</ele>
        <time>2023-07-10T15:43:42.000Z</time>
      </trkpt>
      <trkpt lat="45.77631" lon="4.72557">
        <ele>270.19772</ele>
        <time>2023-07-10T15:43:43.000Z</time>
      </trkpt>
      <trkpt lat="45.7763" lon="4.72559">
        <ele>270.32446</ele>
        <time>2023-07-10T15:43:44.000Z</time>
      </trkpt>
      <trkpt lat="45.77629" lon="4.72561">
        <ele>270.46384</ele>
        <time>2023-07-10T15:43:54.000Z</time>
      </trkpt>
      <trkpt lat="45.77627" lon="4.7256">
        <ele>270.62216</ele>
        <time>2023-07-10T15:43:57.000Z</time>
      </trkpt>
      <trkpt lat="45.77624" lon="4.72561">
        <ele>270.83109</ele>
        <time>2023-07-10T15:44:01.000Z</time>
      </trkpt>
      <trkpt lat="45.77622" lon="4.72562">
        <ele>271.08032</ele>
        <time>2023-07-10T15:44:02.000Z</time>
      </trkpt>
      <trkpt lat="45.7762" lon="4.72562">
        <ele>271.30014</ele>
        <time>2023-07-10T15:44:03.000Z</time>
      </trkpt>
      <trkpt lat="45.77618" lon="4.72563">
        <ele>271.50879</ele>
        <time>2023-07-10T15:44:04.000Z</time>
      </trkpt>
      <trkpt lat="45.77616" lon="4.72564">
        <ele>271.74658</ele>
        <time>2023-07-10T15:44:05.000Z</time>
      </trkpt>
      <trkpt lat="45.77614" lon="4.72565">
        <ele>271.93677</ele>
        <time>2023-07-10T15:44:06.000Z</time>
      </trkpt>
      <trkpt lat="45.77612" lon="4.72567">
        <ele>272.10394</ele>
        <time>2023-07-10T15:44:07.000Z</time>
      </trkpt>
      <trkpt lat="45.7761" lon="4.72569">
        <ele>272.27106</ele>
        <time>2023-07-10T15:44:08.000Z</time>
      </trkpt>
      <trkpt lat="45.77608" lon="4.72571">
        <ele>272.37973</ele>
        <time>2023-07-10T15:44:09.000Z</time>
      </trkpt>
      <trkpt lat="45.77606" lon="4.72573">
        <ele>272.55212</ele>
        <time>2023-07-10T15:44:10.000Z</time>
      </trkpt>
      <trkpt lat="45.77603" lon="4.72577">
        <ele>272.92572</ele>
        <time>2023-07-10T15:44:11.000Z</time>
      </trkpt>
      <trkpt lat="45.776" lon="4.72576">
        <ele>272.97714</ele>
        <time>2023-07-10T15:44:13.000Z</time>
      </trkpt>
      <trkpt lat="45.77598" lon="4.72576">
        <ele>272.93011</ele>
        <time>2023-07-10T15:44:14.000Z</time>
      </trkpt>
      <trkpt lat="45.77596" lon="4.72575">
        <ele>272.85855</ele>
        <time>2023-07-10T15:44:15.000Z</time>
      </trkpt>
      <trkpt lat="45.77593" lon="4.72577">
        <ele>272.80728</ele>
        <time>2023-07-10T15:44:16.000Z</time>
      </trkpt>
      <trkpt lat="45.77589" lon="4.7258">
        <ele>272.80566</ele>
        <time>2023-07-10T15:44:18.000Z</time>
      </trkpt>
      <trkpt lat="45.77586" lon="4.72584">
        <ele>272.76068</ele>
        <time>2023-07-10T15:44:20.000Z</time>
      </trkpt>
      <trkpt lat="45.77584" lon="4.72588">
        <ele>273.41229</ele>
        <time>2023-07-10T15:44:22.000Z</time>
      </trkpt>
      <trkpt lat="45.77584" lon="4.72592">
        <ele>273.93677</ele>
        <time>2023-07-10T15:44:24.000Z</time>
      </trkpt>
      <trkpt lat="45.77583" lon="4.72594">
        <ele>274.49921</ele>
        <time>2023-07-10T15:44:28.000Z</time>
      </trkpt>
      <trkpt lat="45.77581" lon="4.72597">
        <ele>274.64752</ele>
        <time>2023-07-10T15:44:37.000Z</time>
      </trkpt>
      <trkpt lat="45.77577" lon="4.726">
        <ele>274.76596</ele>
        <time>2023-07-10T15:44:39.000Z</time>
      </trkpt>
      <trkpt lat="45.77575" lon="4.72601">
        <ele>274.9425</ele>
        <time>2023-07-10T15:44:40.000Z</time>
      </trkpt>
      <trkpt lat="45.77573" lon="4.72603">
        <ele>275.09811</ele>
        <time>2023-07-10T15:44:41.000Z</time>
      </trkpt>
      <trkpt lat="45.77572" lon="4.72605">
        <ele>275.19843</ele>
        <time>2023-07-10T15:44:42.000Z</time>
      </trkpt>
      <trkpt lat="45.77569" lon="4.72607">
        <ele>275.33005</ele>
        <time>2023-07-10T15:44:44.000Z</time>
      </trkpt>
      <trkpt lat="45.77566" lon="4.72607">
        <ele>275.53278</ele>
        <time>2023-07-10T15:44:45.000Z</time>
      </trkpt>
      <trkpt lat="45.77564" lon="4.72607">
        <ele>275.68613</ele>
        <time>2023-07-10T15:44:46.000Z</time>
      </trkpt>
      <trkpt lat="45.77562" lon="4.72608">
        <ele>275.8595</ele>
        <time>2023-07-10T15:44:47.000Z</time>
      </trkpt>
      <trkpt lat="45.77559" lon="4.72609">
        <ele>275.98029</ele>
        <time>2023-07-10T15:44:48.000Z</time>
      </trkpt>
      <trkpt lat="45.77557" lon="4.7261">
        <ele>275.85205</ele>
        <time>2023-07-10T15:44:49.000Z</time>
      </trkpt>
      <trkpt lat="45.77555" lon="4.72612">
        <ele>275.98358</ele>
        <time>2023-07-10T15:44:50.000Z</time>
      </trkpt>
      <trkpt lat="45.77552" lon="4.72614">
        <ele>276.10327</ele>
        <time>2023-07-10T15:44:51.000Z</time>
      </trkpt>
      <trkpt lat="45.77549" lon="4.72615">
        <ele>276.27151</ele>
        <time>2023-07-10T15:44:52.000Z</time>
      </trkpt>
      <trkpt lat="45.77546" lon="4.72616">
        <ele>276.48337</ele>
        <time>2023-07-10T15:44:53.000Z</time>
      </trkpt>
      <trkpt lat="45.77543" lon="4.72617">
        <ele>277.21133</ele>
        <time>2023-07-10T15:44:54.000Z</time>
      </trkpt>
      <trkpt lat="45.77541" lon="4.72617">
        <ele>277.80753</ele>
        <time>2023-07-10T15:44:55.000Z</time>
      </trkpt>
      <trkpt lat="45.77538" lon="4.72617">
        <ele>277.67752</ele>
        <time>2023-07-10T15:44:56.000Z</time>
      </trkpt>
      <trkpt lat="45.77536" lon="4.72615">
        <ele>277.62823</ele>
        <time>2023-07-10T15:44:57.000Z</time>
      </trkpt>
      <trkpt lat="45.77534" lon="4.72612">
        <ele>277.59174</ele>
        <time>2023-07-10T15:44:58.000Z</time>
      </trkpt>
      <trkpt lat="45.77533" lon="4.72608">
        <ele>277.91095</ele>
        <time>2023-07-10T15:44:59.000Z</time>
      </trkpt>
      <trkpt lat="45.77532" lon="4.72604">
        <ele>278.16641</ele>
        <time>2023-07-10T15:45:00.000Z</time>
      </trkpt>
      <trkpt lat="45.77531" lon="4.72599">
        <ele>278.49615</ele>
        <time>2023-07-10T15:45:01.000Z</time>
      </trkpt>
      <trkpt lat="45.77529" lon="4.72594">
        <ele>278.88977</ele>
        <time>2023-07-10T15:45:02.000Z</time>
      </trkpt>
      <trkpt lat="45.77528" lon="4.7259">
        <ele>279.26944</ele>
        <time>2023-07-10T15:45:03.000Z</time>
      </trkpt>
      <trkpt lat="45.77526" lon="4.72586">
        <ele>279.51434</ele>
        <time>2023-07-10T15:45:04.000Z</time>
      </trkpt>
      <trkpt lat="45.77525" lon="4.72582">
        <ele>279.79617</ele>
        <time>2023-07-10T15:45:05.000Z</time>
      </trkpt>
      <trkpt lat="45.77524" lon="4.72579">
        <ele>280.16315</ele>
        <time>2023-07-10T15:45:06.000Z</time>
      </trkpt>
      <trkpt lat="45.77522" lon="4.72574">
        <ele>280.55508</ele>
        <time>2023-07-10T15:45:07.000Z</time>
      </trkpt>
      <trkpt lat="45.77521" lon="4.7257">
        <ele>280.98172</ele>
        <time>2023-07-10T15:45:08.000Z</time>
      </trkpt>
      <trkpt lat="45.7752" lon="4.72566">
        <ele>281.39713</ele>
        <time>2023-07-10T15:45:09.000Z</time>
      </trkpt>
      <trkpt lat="45.77519" lon="4.72561">
        <ele>281.83981</ele>
        <time>2023-07-10T15:45:10.000Z</time>
      </trkpt>
      <trkpt lat="45.77518" lon="4.72557">
        <ele>282.25653</ele>
        <time>2023-07-10T15:45:11.000Z</time>
      </trkpt>
      <trkpt lat="45.77517" lon="4.72554">
        <ele>282.66907</ele>
        <time>2023-07-10T15:45:12.000Z</time>
      </trkpt>
      <trkpt lat="45.77516" lon="4.7255">
        <ele>283.07166</ele>
        <time>2023-07-10T15:45:13.000Z</time>
      </trkpt>
      <trkpt lat="45.77516" lon="4.72546">
        <ele>282.96655</ele>
        <time>2023-07-10T15:45:15.000Z</time>
      </trkpt>
      <trkpt lat="45.77518" lon="4.72543">
        <ele>283.34918</ele>
        <time>2023-07-10T15:45:47.000Z</time>
      </trkpt>
      <trkpt lat="45.77519" lon="4.72541">
        <ele>283.81787</ele>
        <time>2023-07-10T15:45:48.000Z</time>
      </trkpt>
      <trkpt lat="45.77521" lon="4.72539">
        <ele>284.30341</ele>
        <time>2023-07-10T15:45:49.000Z</time>
      </trkpt>
      <trkpt lat="45.77523" lon="4.72537">
        <ele>284.74579</ele>
        <time>2023-07-10T15:45:50.000Z</time>
      </trkpt>
      <trkpt lat="45.77526" lon="4.72534">
        <ele>285.23834</ele>
        <time>2023-07-10T15:45:51.000Z</time>
      </trkpt>
      <trkpt lat="45.77528" lon="4.72532">
        <ele>285.793</ele>
        <time>2023-07-10T15:45:52.000Z</time>
      </trkpt>
      <trkpt lat="45.7753" lon="4.72529">
        <ele>286.24951</ele>
        <time>2023-07-10T15:45:53.000Z</time>
      </trkpt>
      <trkpt lat="45.77532" lon="4.72527">
        <ele>286.69937</ele>
        <time>2023-07-10T15:45:54.000Z</time>
      </trkpt>
      <trkpt lat="45.77534" lon="4.72525">
        <ele>287.23883</ele>
        <time>2023-07-10T15:45:55.000Z</time>
      </trkpt>
      <trkpt lat="45.77536" lon="4.72523">
        <ele>287.95346</ele>
        <time>2023-07-10T15:45:56.000Z</time>
      </trkpt>
      <trkpt lat="45.77538" lon="4.72521">
        <ele>288.53024</ele>
        <time>2023-07-10T15:45:57.000Z</time>
      </trkpt>
      <trkpt lat="45.7754" lon="4.7252">
        <ele>289.09995</ele>
        <time>2023-07-10T15:45:58.000Z</time>
      </trkpt>
      <trkpt lat="45.77542" lon="4.72518">
        <ele>289.64172</ele>
        <time>2023-07-10T15:45:59.000Z</time>
      </trkpt>
      <trkpt lat="45.77544" lon="4.72516">
        <ele>290.18137</ele>
        <time>2023-07-10T15:46:00.000Z</time>
      </trkpt>
      <trkpt lat="45.77547" lon="4.72514">
        <ele>290.6756</ele>
        <time>2023-07-10T15:46:01.000Z</time>
      </trkpt>
      <trkpt lat="45.77549" lon="4.72511">
        <ele>291.09464</ele>
        <time>2023-07-10T15:46:02.000Z</time>
      </trkpt>
      <trkpt lat="45.77552" lon="4.72508">
        <ele>291.48676</ele>
        <time>2023-07-10T15:46:03.000Z</time>
      </trkpt>
      <trkpt lat="45.77557" lon="4.72503">
        <ele>291.09918</ele>
        <time>2023-07-10T15:46:04.000Z</time>
      </trkpt>
      <trkpt lat="45.77559" lon="4.725">
        <ele>290.68307</ele>
        <time>2023-07-10T15:46:05.000Z</time>
      </trkpt>
      <trkpt lat="45.77561" lon="4.72495">
        <ele>291.10464</ele>
        <time>2023-07-10T15:46:06.000Z</time>
      </trkpt>
      <trkpt lat="45.77564" lon="4.72491">
        <ele>291.11847</ele>
        <time>2023-07-10T15:46:07.000Z</time>
      </trkpt>
      <trkpt lat="45.77564" lon="4.72488">
        <ele>291.35226</ele>
        <time>2023-07-10T15:46:08.000Z</time>
      </trkpt>
      <trkpt lat="45.77566" lon="4.72483">
        <ele>291.74756</ele>
        <time>2023-07-10T15:46:10.000Z</time>
      </trkpt>
      <trkpt lat="45.77568" lon="4.72478">
        <ele>292.20099</ele>
        <time>2023-07-10T15:46:11.000Z</time>
      </trkpt>
      <trkpt lat="45.7757" lon="4.72475">
        <ele>292.30078</ele>
        <time>2023-07-10T15:46:12.000Z</time>
      </trkpt>
      <trkpt lat="45.77571" lon="4.72473">
        <ele>292.52966</ele>
        <time>2023-07-10T15:46:13.000Z</time>
      </trkpt>
      <trkpt lat="45.77571" lon="4.72467">
        <ele>292.79834</ele>
        <time>2023-07-10T15:46:15.000Z</time>
      </trkpt>
      <trkpt lat="45.77571" lon="4.72462">
        <ele>292.98804</ele>
        <time>2023-07-10T15:46:16.000Z</time>
      </trkpt>
      <trkpt lat="45.77572" lon="4.72457">
        <ele>293.04346</ele>
        <time>2023-07-10T15:46:17.000Z</time>
      </trkpt>
      <trkpt lat="45.77572" lon="4.72453">
        <ele>292.97641</ele>
        <time>2023-07-10T15:46:18.000Z</time>
      </trkpt>
      <trkpt lat="45.77573" lon="4.7245">
        <ele>292.96249</ele>
        <time>2023-07-10T15:46:19.000Z</time>
      </trkpt>
      <trkpt lat="45.77573" lon="4.72446">
        <ele>292.91791</ele>
        <time>2023-07-10T15:46:20.000Z</time>
      </trkpt>
      <trkpt lat="45.77574" lon="4.72443">
        <ele>292.93277</ele>
        <time>2023-07-10T15:46:21.000Z</time>
      </trkpt>
      <trkpt lat="45.77574" lon="4.72439">
        <ele>292.91348</ele>
        <time>2023-07-10T15:46:22.000Z</time>
      </trkpt>
      <trkpt lat="45.77575" lon="4.72435">
        <ele>292.95718</ele>
        <time>2023-07-10T15:46:23.000Z</time>
      </trkpt>
      <trkpt lat="45.77576" lon="4.72431">
        <ele>293.02365</ele>
        <time>2023-07-10T15:46:24.000Z</time>
      </trkpt>
      <trkpt lat="45.77576" lon="4.72427">
        <ele>293.22287</ele>
        <time>2023-07-10T15:46:25.000Z</time>
      </trkpt>
      <trkpt lat="45.77576" lon="4.72423">
        <ele>294.2037</ele>
        <time>2023-07-10T15:46:26.000Z</time>
      </trkpt>
      <trkpt lat="45.77577" lon="4.72418">
        <ele>295.25299</ele>
        <time>2023-07-10T15:46:27.000Z</time>
      </trkpt>
      <trkpt lat="45.77578" lon="4.72414">
        <ele>295.53583</ele>
        <time>2023-07-10T15:46:28.000Z</time>
      </trkpt>
      <trkpt lat="45.77578" lon="4.72409">
        <ele>295.93393</ele>
        <time>2023-07-10T15:46:29.000Z</time>
      </trkpt>
      <trkpt lat="45.77579" lon="4.72405">
        <ele>296.06784</ele>
        <time>2023-07-10T15:46:30.000Z</time>
      </trkpt>
      <trkpt lat="45.7758" lon="4.72401">
        <ele>296.07251</ele>
        <time>2023-07-10T15:46:31.000Z</time>
      </trkpt>
      <trkpt lat="45.77581" lon="4.72396">
        <ele>296.14749</ele>
        <time>2023-07-10T15:46:32.000Z</time>
      </trkpt>
      <trkpt lat="45.77581" lon="4.72391">
        <ele>296.54852</ele>
        <time>2023-07-10T15:46:33.000Z</time>
      </trkpt>
      <trkpt lat="45.77581" lon="4.72385">
        <ele>296.83591</ele>
        <time>2023-07-10T15:46:34.000Z</time>
      </trkpt>
      <trkpt lat="45.77581" lon="4.72381">
        <ele>297.08942</ele>
        <time>2023-07-10T15:46:35.000Z</time>
      </trkpt>
      <trkpt lat="45.77581" lon="4.72376">
        <ele>297.37579</ele>
        <time>2023-07-10T15:46:36.000Z</time>
      </trkpt>
      <trkpt lat="45.77581" lon="4.72372">
        <ele>297.7738</ele>
        <time>2023-07-10T15:46:37.000Z</time>
      </trkpt>
      <trkpt lat="45.7758" lon="4.72366">
        <ele>298.20859</ele>
        <time>2023-07-10T15:46:38.000Z</time>
      </trkpt>
      <trkpt lat="45.77579" lon="4.72361">
        <ele>298.61392</ele>
        <time>2023-07-10T15:46:39.000Z</time>
      </trkpt>
      <trkpt lat="45.77577" lon="4.72358">
        <ele>299.04266</ele>
        <time>2023-07-10T15:46:40.000Z</time>
      </trkpt>
      <trkpt lat="45.77576" lon="4.72353">
        <ele>299.42596</ele>
        <time>2023-07-10T15:46:41.000Z</time>
      </trkpt>
      <trkpt lat="45.77575" lon="4.72347">
        <ele>299.85025</ele>
        <time>2023-07-10T15:46:42.000Z</time>
      </trkpt>
      <trkpt lat="45.77575" lon="4.72341">
        <ele>300.33356</ele>
        <time>2023-07-10T15:46:43.000Z</time>
      </trkpt>
      <trkpt lat="45.77574" lon="4.72334">
        <ele>300.86801</ele>
        <time>2023-07-10T15:46:44.000Z</time>
      </trkpt>
      <trkpt lat="45.77573" lon="4.72328">
        <ele>301.27264</ele>
        <time>2023-07-10T15:46:45.000Z</time>
      </trkpt>
      <trkpt lat="45.77573" lon="4.7232">
        <ele>301.68469</ele>
        <time>2023-07-10T15:46:46.000Z</time>
      </trkpt>
      <trkpt lat="45.77572" lon="4.72313">
        <ele>302.02765</ele>
        <time>2023-07-10T15:46:47.000Z</time>
      </trkpt>
      <trkpt lat="45.7757" lon="4.72301">
        <ele>302.23471</ele>
        <time>2023-07-10T15:46:48.000Z</time>
      </trkpt>
      <trkpt lat="45.77571" lon="4.72294">
        <ele>302.32712</ele>
        <time>2023-07-10T15:46:49.000Z</time>
      </trkpt>
      <trkpt lat="45.77573" lon="4.72287">
        <ele>302.383</ele>
        <time>2023-07-10T15:46:50.000Z</time>
      </trkpt>
      <trkpt lat="45.77574" lon="4.72278">
        <ele>302.3634</ele>
        <time>2023-07-10T15:46:51.000Z</time>
      </trkpt>
      <trkpt lat="45.77576" lon="4.72271">
        <ele>302.19724</ele>
        <time>2023-07-10T15:46:52.000Z</time>
      </trkpt>
      <trkpt lat="45.77576" lon="4.72263">
        <ele>302.05844</ele>
        <time>2023-07-10T15:46:53.000Z</time>
      </trkpt>
      <trkpt lat="45.77576" lon="4.72256">
        <ele>301.95581</ele>
        <time>2023-07-10T15:46:54.000Z</time>
      </trkpt>
      <trkpt lat="45.77577" lon="4.7225">
        <ele>301.79245</ele>
        <time>2023-07-10T15:46:55.000Z</time>
      </trkpt>
      <trkpt lat="45.7758" lon="4.72245">
        <ele>301.53375</ele>
        <time>2023-07-10T15:46:56.000Z</time>
      </trkpt>
      <trkpt lat="45.77581" lon="4.7224">
        <ele>301.2243</ele>
        <time>2023-07-10T15:46:57.000Z</time>
      </trkpt>
      <trkpt lat="45.77582" lon="4.72233">
        <ele>300.94791</ele>
        <time>2023-07-10T15:46:58.000Z</time>
      </trkpt>
      <trkpt lat="45.77581" lon="4.72227">
        <ele>300.89398</ele>
        <time>2023-07-10T15:46:59.000Z</time>
      </trkpt>
      <trkpt lat="45.77582" lon="4.72221">
        <ele>300.31674</ele>
        <time>2023-07-10T15:47:00.000Z</time>
      </trkpt>
      <trkpt lat="45.77581" lon="4.72216">
        <ele>299.75873</ele>
        <time>2023-07-10T15:47:01.000Z</time>
      </trkpt>
      <trkpt lat="45.77581" lon="4.72211">
        <ele>299.18091</ele>
        <time>2023-07-10T15:47:02.000Z</time>
      </trkpt>
      <trkpt lat="45.77582" lon="4.72205">
        <ele>298.53445</ele>
        <time>2023-07-10T15:47:03.000Z</time>
      </trkpt>
      <trkpt lat="45.7758" lon="4.72201">
        <ele>297.93323</ele>
        <time>2023-07-10T15:47:04.000Z</time>
      </trkpt>
      <trkpt lat="45.7758" lon="4.72196">
        <ele>297.39447</ele>
        <time>2023-07-10T15:47:05.000Z</time>
      </trkpt>
      <trkpt lat="45.77579" lon="4.72191">
        <ele>296.83997</ele>
        <time>2023-07-10T15:47:06.000Z</time>
      </trkpt>
      <trkpt lat="45.77578" lon="4.72186">
        <ele>296.32016</ele>
        <time>2023-07-10T15:47:07.000Z</time>
      </trkpt>
      <trkpt lat="45.77577" lon="4.72182">
        <ele>295.92938</ele>
        <time>2023-07-10T15:47:08.000Z</time>
      </trkpt>
      <trkpt lat="45.77575" lon="4.72177">
        <ele>295.59344</ele>
        <time>2023-07-10T15:47:09.000Z</time>
      </trkpt>
      <trkpt lat="45.77574" lon="4.72171">
        <ele>295.29587</ele>
        <time>2023-07-10T15:47:10.000Z</time>
      </trkpt>
      <trkpt lat="45.77573" lon="4.72166">
        <ele>294.99609</ele>
        <time>2023-07-10T15:47:11.000Z</time>
      </trkpt>
      <trkpt lat="45.77572" lon="4.7216">
        <ele>294.71091</ele>
        <time>2023-07-10T15:47:12.000Z</time>
      </trkpt>
      <trkpt lat="45.77571" lon="4.72155">
        <ele>294.46133</ele>
        <time>2023-07-10T15:47:13.000Z</time>
      </trkpt>
      <trkpt lat="45.77566" lon="4.72149">
        <ele>294.21371</ele>
        <time>2023-07-10T15:47:14.000Z</time>
      </trkpt>
      <trkpt lat="45.77562" lon="4.72144">
        <ele>294.0116</ele>
        <time>2023-07-10T15:47:15.000Z</time>
      </trkpt>
      <trkpt lat="45.7756" lon="4.7214">
        <ele>293.94196</ele>
        <time>2023-07-10T15:47:16.000Z</time>
      </trkpt>
      <trkpt lat="45.77559" lon="4.72137">
        <ele>293.97357</ele>
        <time>2023-07-10T15:47:17.000Z</time>
      </trkpt>
      <trkpt lat="45.77556" lon="4.72133">
        <ele>294.04453</ele>
        <time>2023-07-10T15:47:18.000Z</time>
      </trkpt>
      <trkpt lat="45.77552" lon="4.7213">
        <ele>293.98798</ele>
        <time>2023-07-10T15:47:19.000Z</time>
      </trkpt>
      <trkpt lat="45.77549" lon="4.72128">
        <ele>294.41342</ele>
        <time>2023-07-10T15:47:20.000Z</time>
      </trkpt>
      <trkpt lat="45.77547" lon="4.72122">
        <ele>294.82794</ele>
        <time>2023-07-10T15:47:21.000Z</time>
      </trkpt>
      <trkpt lat="45.77544" lon="4.72118">
        <ele>295.23578</ele>
        <time>2023-07-10T15:47:22.000Z</time>
      </trkpt>
      <trkpt lat="45.77542" lon="4.72113">
        <ele>295.62161</ele>
        <time>2023-07-10T15:47:23.000Z</time>
      </trkpt>
      <trkpt lat="45.77539" lon="4.72111">
        <ele>296.01935</ele>
        <time>2023-07-10T15:47:24.000Z</time>
      </trkpt>
      <trkpt lat="45.77537" lon="4.72109">
        <ele>296.42633</ele>
        <time>2023-07-10T15:47:25.000Z</time>
      </trkpt>
      <trkpt lat="45.77534" lon="4.72108">
        <ele>296.87076</ele>
        <time>2023-07-10T15:47:26.000Z</time>
      </trkpt>
      <trkpt lat="45.77533" lon="4.72105">
        <ele>297.50882</ele>
        <time>2023-07-10T15:47:27.000Z</time>
      </trkpt>
      <trkpt lat="45.77531" lon="4.72102">
        <ele>297.16266</ele>
        <time>2023-07-10T15:47:28.000Z</time>
      </trkpt>
      <trkpt lat="45.77529" lon="4.72098">
        <ele>296.84723</ele>
        <time>2023-07-10T15:47:29.000Z</time>
      </trkpt>
      <trkpt lat="45.77528" lon="4.72095">
        <ele>296.52365</ele>
        <time>2023-07-10T15:47:30.000Z</time>
      </trkpt>
      <trkpt lat="45.77525" lon="4.72093">
        <ele>296.28568</ele>
        <time>2023-07-10T15:47:31.000Z</time>
      </trkpt>
      <trkpt lat="45.77521" lon="4.72092">
        <ele>296.05753</ele>
        <time>2023-07-10T15:47:32.000Z</time>
      </trkpt>
      <trkpt lat="45.77517" lon="4.7209">
        <ele>295.61246</ele>
        <time>2023-07-10T15:47:33.000Z</time>
      </trkpt>
      <trkpt lat="45.77514" lon="4.72087">
        <ele>295.13947</ele>
        <time>2023-07-10T15:47:34.000Z</time>
      </trkpt>
      <trkpt lat="45.77511" lon="4.72084">
        <ele>294.70508</ele>
        <time>2023-07-10T15:47:35.000Z</time>
      </trkpt>
      <trkpt lat="45.77508" lon="4.72081">
        <ele>294.23578</ele>
        <time>2023-07-10T15:47:36.000Z</time>
      </trkpt>
      <trkpt lat="45.77504" lon="4.72077">
        <ele>293.62701</ele>
        <time>2023-07-10T15:47:37.000Z</time>
      </trkpt>
      <trkpt lat="45.77501" lon="4.72073">
        <ele>292.96854</ele>
        <time>2023-07-10T15:47:38.000Z</time>
      </trkpt>
      <trkpt lat="45.77499" lon="4.7207">
        <ele>292.2457</ele>
        <time>2023-07-10T15:47:39.000Z</time>
      </trkpt>
      <trkpt lat="45.77497" lon="4.72066">
        <ele>291.53284</ele>
        <time>2023-07-10T15:47:40.000Z</time>
      </trkpt>
      <trkpt lat="45.77495" lon="4.72061">
        <ele>290.76022</ele>
        <time>2023-07-10T15:47:41.000Z</time>
      </trkpt>
      <trkpt lat="45.77494" lon="4.72056">
        <ele>289.97455</ele>
        <time>2023-07-10T15:47:42.000Z</time>
      </trkpt>
      <trkpt lat="45.77493" lon="4.72051">
        <ele>289.22028</ele>
        <time>2023-07-10T15:47:43.000Z</time>
      </trkpt>
      <trkpt lat="45.77492" lon="4.72044">
        <ele>288.37979</ele>
        <time>2023-07-10T15:47:44.000Z</time>
      </trkpt>
      <trkpt lat="45.77491" lon="4.72038">
        <ele>287.51624</ele>
        <time>2023-07-10T15:47:45.000Z</time>
      </trkpt>
      <trkpt lat="45.7749" lon="4.72032">
        <ele>286.60529</ele>
        <time>2023-07-10T15:47:46.000Z</time>
      </trkpt>
      <trkpt lat="45.77489" lon="4.72026">
        <ele>285.48636</ele>
        <time>2023-07-10T15:47:47.000Z</time>
      </trkpt>
      <trkpt lat="45.77488" lon="4.72019">
        <ele>285.24808</ele>
        <time>2023-07-10T15:47:48.000Z</time>
      </trkpt>
      <trkpt lat="45.77486" lon="4.72013">
        <ele>285.01477</ele>
        <time>2023-07-10T15:47:49.000Z</time>
      </trkpt>
      <trkpt lat="45.77484" lon="4.72006">
        <ele>284.81873</ele>
        <time>2023-07-10T15:47:50.000Z</time>
      </trkpt>
      <trkpt lat="45.77482" lon="4.72">
        <ele>284.621</ele>
        <time>2023-07-10T15:47:51.000Z</time>
      </trkpt>
      <trkpt lat="45.77479" lon="4.71994">
        <ele>284.44766</ele>
        <time>2023-07-10T15:47:52.000Z</time>
      </trkpt>
      <trkpt lat="45.77477" lon="4.71989">
        <ele>284.42267</ele>
        <time>2023-07-10T15:47:53.000Z</time>
      </trkpt>
      <trkpt lat="45.77475" lon="4.71985">
        <ele>284.42319</ele>
        <time>2023-07-10T15:47:54.000Z</time>
      </trkpt>
      <trkpt lat="45.77472" lon="4.7198">
        <ele>284.4357</ele>
        <time>2023-07-10T15:47:55.000Z</time>
      </trkpt>
      <trkpt lat="45.77469" lon="4.71976">
        <ele>284.44507</ele>
        <time>2023-07-10T15:47:56.000Z</time>
      </trkpt>
      <trkpt lat="45.77466" lon="4.71971">
        <ele>284.48694</ele>
        <time>2023-07-10T15:47:57.000Z</time>
      </trkpt>
      <trkpt lat="45.77464" lon="4.71966">
        <ele>284.51511</ele>
        <time>2023-07-10T15:47:58.000Z</time>
      </trkpt>
      <trkpt lat="45.77461" lon="4.71961">
        <ele>284.61542</ele>
        <time>2023-07-10T15:47:59.000Z</time>
      </trkpt>
      <trkpt lat="45.77459" lon="4.71957">
        <ele>284.69174</ele>
        <time>2023-07-10T15:48:00.000Z</time>
      </trkpt>
      <trkpt lat="45.77455" lon="4.71948">
        <ele>284.8078</ele>
        <time>2023-07-10T15:48:01.000Z</time>
      </trkpt>
      <trkpt lat="45.77453" lon="4.71944">
        <ele>285.8985</ele>
        <time>2023-07-10T15:48:02.000Z</time>
      </trkpt>
      <trkpt lat="45.7745" lon="4.7194">
        <ele>286.94427</ele>
        <time>2023-07-10T15:48:03.000Z</time>
      </trkpt>
      <trkpt lat="45.77448" lon="4.71937">
        <ele>288.00507</ele>
        <time>2023-07-10T15:48:04.000Z</time>
      </trkpt>
      <trkpt lat="45.77446" lon="4.71933">
        <ele>289.00494</ele>
        <time>2023-07-10T15:48:05.000Z</time>
      </trkpt>
      <trkpt lat="45.77443" lon="4.71928">
        <ele>289.90698</ele>
        <time>2023-07-10T15:48:06.000Z</time>
      </trkpt>
      <trkpt lat="45.7744" lon="4.71925">
        <ele>290.08545</ele>
        <time>2023-07-10T15:48:07.000Z</time>
      </trkpt>
      <trkpt lat="45.77438" lon="4.7192">
        <ele>290.27252</ele>
        <time>2023-07-10T15:48:08.000Z</time>
      </trkpt>
      <trkpt lat="45.77438" lon="4.71915">
        <ele>290.43143</ele>
        <time>2023-07-10T15:48:09.000Z</time>
      </trkpt>
      <trkpt lat="45.77437" lon="4.71911">
        <ele>290.62643</ele>
        <time>2023-07-10T15:48:10.000Z</time>
      </trkpt>
      <trkpt lat="45.77436" lon="4.71906">
        <ele>290.77209</ele>
        <time>2023-07-10T15:48:11.000Z</time>
      </trkpt>
      <trkpt lat="45.77435" lon="4.71902">
        <ele>290.89993</ele>
        <time>2023-07-10T15:48:12.000Z</time>
      </trkpt>
      <trkpt lat="45.77434" lon="4.71898">
        <ele>291.02783</ele>
        <time>2023-07-10T15:48:13.000Z</time>
      </trkpt>
      <trkpt lat="45.77433" lon="4.71894">
        <ele>291.09439</ele>
        <time>2023-07-10T15:48:14.000Z</time>
      </trkpt>
      <trkpt lat="45.77431" lon="4.7189">
        <ele>291.60529</ele>
        <time>2023-07-10T15:48:15.000Z</time>
      </trkpt>
      <trkpt lat="45.7743" lon="4.71886">
        <ele>292.12866</ele>
        <time>2023-07-10T15:48:16.000Z</time>
      </trkpt>
      <trkpt lat="45.77428" lon="4.71882">
        <ele>292.22137</ele>
        <time>2023-07-10T15:48:17.000Z</time>
      </trkpt>
      <trkpt lat="45.77427" lon="4.71878">
        <ele>292.37781</ele>
        <time>2023-07-10T15:48:18.000Z</time>
      </trkpt>
      <trkpt lat="45.77425" lon="4.71874">
        <ele>292.45862</ele>
        <time>2023-07-10T15:48:19.000Z</time>
      </trkpt>
      <trkpt lat="45.77424" lon="4.7187">
        <ele>292.56372</ele>
        <time>2023-07-10T15:48:20.000Z</time>
      </trkpt>
      <trkpt lat="45.77423" lon="4.71866">
        <ele>292.72748</ele>
        <time>2023-07-10T15:48:21.000Z</time>
      </trkpt>
      <trkpt lat="45.77422" lon="4.71861">
        <ele>291.88193</ele>
        <time>2023-07-10T15:48:22.000Z</time>
      </trkpt>
      <trkpt lat="45.77423" lon="4.71857">
        <ele>291.11188</ele>
        <time>2023-07-10T15:48:23.000Z</time>
      </trkpt>
      <trkpt lat="45.77424" lon="4.71853">
        <ele>290.31757</ele>
        <time>2023-07-10T15:48:24.000Z</time>
      </trkpt>
      <trkpt lat="45.77426" lon="4.71849">
        <ele>289.60724</ele>
        <time>2023-07-10T15:48:25.000Z</time>
      </trkpt>
      <trkpt lat="45.77428" lon="4.71845">
        <ele>288.99603</ele>
        <time>2023-07-10T15:48:26.000Z</time>
      </trkpt>
      <trkpt lat="45.7743" lon="4.71841">
        <ele>289.10443</ele>
        <time>2023-07-10T15:48:27.000Z</time>
      </trkpt>
      <trkpt lat="45.77432" lon="4.71838">
        <ele>289.16797</ele>
        <time>2023-07-10T15:48:28.000Z</time>
      </trkpt>
      <trkpt lat="45.77434" lon="4.71834">
        <ele>289.24911</ele>
        <time>2023-07-10T15:48:29.000Z</time>
      </trkpt>
      <trkpt lat="45.77436" lon="4.71831">
        <ele>289.2467</ele>
        <time>2023-07-10T15:48:30.000Z</time>
      </trkpt>
      <trkpt lat="45.77437" lon="4.71828">
        <ele>289.31708</ele>
        <time>2023-07-10T15:48:31.000Z</time>
      </trkpt>
      <trkpt lat="45.77439" lon="4.71825">
        <ele>289.35144</ele>
        <time>2023-07-10T15:48:33.000Z</time>
      </trkpt>
      <trkpt lat="45.7744" lon="4.71821">
        <ele>289.45309</ele>
        <time>2023-07-10T15:48:35.000Z</time>
      </trkpt>
      <trkpt lat="45.77439" lon="4.7182">
        <ele>289.50992</ele>
        <time>2023-07-10T15:48:43.000Z</time>
      </trkpt>
      <trkpt lat="45.7744" lon="4.71816">
        <ele>289.25992</ele>
        <time>2023-07-10T15:49:07.000Z</time>
      </trkpt>
      <trkpt lat="45.77442" lon="4.71811">
        <ele>289.11386</ele>
        <time>2023-07-10T15:49:49.000Z</time>
      </trkpt>
      <trkpt lat="45.77443" lon="4.71808">
        <ele>289.42603</ele>
        <time>2023-07-10T15:49:50.000Z</time>
      </trkpt>
      <trkpt lat="45.77444" lon="4.71805">
        <ele>289.71768</ele>
        <time>2023-07-10T15:49:51.000Z</time>
      </trkpt>
      <trkpt lat="45.77445" lon="4.71802">
        <ele>290.01746</ele>
        <time>2023-07-10T15:49:52.000Z</time>
      </trkpt>
      <trkpt lat="45.77447" lon="4.71798">
        <ele>290.27228</ele>
        <time>2023-07-10T15:49:53.000Z</time>
      </trkpt>
      <trkpt lat="45.77449" lon="4.71795">
        <ele>290.45441</ele>
        <time>2023-07-10T15:49:54.000Z</time>
      </trkpt>
      <trkpt lat="45.77451" lon="4.71792">
        <ele>290.67303</ele>
        <time>2023-07-10T15:49:55.000Z</time>
      </trkpt>
      <trkpt lat="45.77453" lon="4.71789">
        <ele>290.85828</ele>
        <time>2023-07-10T15:49:56.000Z</time>
      </trkpt>
      <trkpt lat="45.77455" lon="4.71786">
        <ele>291.05554</ele>
        <time>2023-07-10T15:49:57.000Z</time>
      </trkpt>
      <trkpt lat="45.77457" lon="4.71783">
        <ele>291.23312</ele>
        <time>2023-07-10T15:49:58.000Z</time>
      </trkpt>
      <trkpt lat="45.77459" lon="4.71779">
        <ele>291.45114</ele>
        <time>2023-07-10T15:49:59.000Z</time>
      </trkpt>
      <trkpt lat="45.77461" lon="4.71776">
        <ele>291.65604</ele>
        <time>2023-07-10T15:50:00.000Z</time>
      </trkpt>
      <trkpt lat="45.77463" lon="4.71772">
        <ele>291.93121</ele>
        <time>2023-07-10T15:50:01.000Z</time>
      </trkpt>
      <trkpt lat="45.77466" lon="4.71769">
        <ele>292.0864</ele>
        <time>2023-07-10T15:50:02.000Z</time>
      </trkpt>
      <trkpt lat="45.77469" lon="4.71765">
        <ele>292.3421</ele>
        <time>2023-07-10T15:50:03.000Z</time>
      </trkpt>
      <trkpt lat="45.77472" lon="4.71763">
        <ele>292.52869</ele>
        <time>2023-07-10T15:50:04.000Z</time>
      </trkpt>
      <trkpt lat="45.77475" lon="4.7176">
        <ele>292.72266</ele>
        <time>2023-07-10T15:50:05.000Z</time>
      </trkpt>
      <trkpt lat="45.77477" lon="4.71757">
        <ele>292.79498</ele>
        <time>2023-07-10T15:50:06.000Z</time>
      </trkpt>
      <trkpt lat="45.7748" lon="4.71754">
        <ele>292.89069</ele>
        <time>2023-07-10T15:50:07.000Z</time>
      </trkpt>
      <trkpt lat="45.77482" lon="4.71751">
        <ele>292.80521</ele>
        <time>2023-07-10T15:50:08.000Z</time>
      </trkpt>
      <trkpt lat="45.77485" lon="4.71748">
        <ele>292.5643</ele>
        <time>2023-07-10T15:50:09.000Z</time>
      </trkpt>
      <trkpt lat="45.77488" lon="4.71746">
        <ele>292.3244</ele>
        <time>2023-07-10T15:50:10.000Z</time>
      </trkpt>
      <trkpt lat="45.7749" lon="4.71743">
        <ele>292.08374</ele>
        <time>2023-07-10T15:50:11.000Z</time>
      </trkpt>
      <trkpt lat="45.77493" lon="4.7174">
        <ele>291.8028</ele>
        <time>2023-07-10T15:50:12.000Z</time>
      </trkpt>
      <trkpt lat="45.77495" lon="4.71738">
        <ele>291.58475</ele>
        <time>2023-07-10T15:50:13.000Z</time>
      </trkpt>
      <trkpt lat="45.77498" lon="4.71735">
        <ele>291.31927</ele>
        <time>2023-07-10T15:50:14.000Z</time>
      </trkpt>
      <trkpt lat="45.77501" lon="4.71733">
        <ele>291.1152</ele>
        <time>2023-07-10T15:50:15.000Z</time>
      </trkpt>
      <trkpt lat="45.77504" lon="4.71731">
        <ele>290.90683</ele>
        <time>2023-07-10T15:50:16.000Z</time>
      </trkpt>
      <trkpt lat="45.77507" lon="4.71728">
        <ele>290.65781</ele>
        <time>2023-07-10T15:50:17.000Z</time>
      </trkpt>
      <trkpt lat="45.7751" lon="4.71726">
        <ele>290.40753</ele>
        <time>2023-07-10T15:50:18.000Z</time>
      </trkpt>
      <trkpt lat="45.77513" lon="4.71723">
        <ele>290.13303</ele>
        <time>2023-07-10T15:50:19.000Z</time>
      </trkpt>
      <trkpt lat="45.77515" lon="4.71719">
        <ele>289.87909</ele>
        <time>2023-07-10T15:50:20.000Z</time>
      </trkpt>
      <trkpt lat="45.77517" lon="4.71716">
        <ele>289.56326</ele>
        <time>2023-07-10T15:50:21.000Z</time>
      </trkpt>
      <trkpt lat="45.7752" lon="4.71712">
        <ele>289.42307</ele>
        <time>2023-07-10T15:50:22.000Z</time>
      </trkpt>
      <trkpt lat="45.77522" lon="4.71709">
        <ele>289.2218</ele>
        <time>2023-07-10T15:50:23.000Z</time>
      </trkpt>
      <trkpt lat="45.77524" lon="4.71705">
        <ele>289.06589</ele>
        <time>2023-07-10T15:50:24.000Z</time>
      </trkpt>
      <trkpt lat="45.77525" lon="4.717">
        <ele>288.935</ele>
        <time>2023-07-10T15:50:25.000Z</time>
      </trkpt>
      <trkpt lat="45.77526" lon="4.71696">
        <ele>288.92426</ele>
        <time>2023-07-10T15:50:26.000Z</time>
      </trkpt>
      <trkpt lat="45.77528" lon="4.71692">
        <ele>288.98013</ele>
        <time>2023-07-10T15:50:27.000Z</time>
      </trkpt>
      <trkpt lat="45.77529" lon="4.71688">
        <ele>288.99869</ele>
        <time>2023-07-10T15:50:28.000Z</time>
      </trkpt>
      <trkpt lat="45.7753" lon="4.71683">
        <ele>289.09152</ele>
        <time>2023-07-10T15:50:29.000Z</time>
      </trkpt>
      <trkpt lat="45.77531" lon="4.71679">
        <ele>289.20703</ele>
        <time>2023-07-10T15:50:30.000Z</time>
      </trkpt>
      <trkpt lat="45.77532" lon="4.71674">
        <ele>289.34225</ele>
        <time>2023-07-10T15:50:31.000Z</time>
      </trkpt>
      <trkpt lat="45.77532" lon="4.71669">
        <ele>289.50153</ele>
        <time>2023-07-10T15:50:32.000Z</time>
      </trkpt>
      <trkpt lat="45.77533" lon="4.71665">
        <ele>289.69275</ele>
        <time>2023-07-10T15:50:33.000Z</time>
      </trkpt>
      <trkpt lat="45.77534" lon="4.7166">
        <ele>289.89081</ele>
        <time>2023-07-10T15:50:34.000Z</time>
      </trkpt>
      <trkpt lat="45.77534" lon="4.71655">
        <ele>289.98746</ele>
        <time>2023-07-10T15:50:35.000Z</time>
      </trkpt>
      <trkpt lat="45.77534" lon="4.71651">
        <ele>290.15384</ele>
        <time>2023-07-10T15:50:36.000Z</time>
      </trkpt>
      <trkpt lat="45.77533" lon="4.71648">
        <ele>290.36819</ele>
        <time>2023-07-10T15:50:37.000Z</time>
      </trkpt>
      <trkpt lat="45.77533" lon="4.71644">
        <ele>290.56519</ele>
        <time>2023-07-10T15:50:38.000Z</time>
      </trkpt>
      <trkpt lat="45.77532" lon="4.71642">
        <ele>290.75711</ele>
        <time>2023-07-10T15:50:39.000Z</time>
      </trkpt>
      <trkpt lat="45.77531" lon="4.71639">
        <ele>290.96207</ele>
        <time>2023-07-10T15:50:40.000Z</time>
      </trkpt>
      <trkpt lat="45.7753" lon="4.71636">
        <ele>291.21341</ele>
        <time>2023-07-10T15:50:41.000Z</time>
      </trkpt>
      <trkpt lat="45.77528" lon="4.71633">
        <ele>291.36642</ele>
        <time>2023-07-10T15:50:42.000Z</time>
      </trkpt>
      <trkpt lat="45.77526" lon="4.71632">
        <ele>291.50958</ele>
        <time>2023-07-10T15:50:43.000Z</time>
      </trkpt>
      <trkpt lat="45.77523" lon="4.71627">
        <ele>291.59888</ele>
        <time>2023-07-10T15:50:45.000Z</time>
      </trkpt>
      <trkpt lat="45.77521" lon="4.71624">
        <ele>291.68372</ele>
        <time>2023-07-10T15:50:46.000Z</time>
      </trkpt>
      <trkpt lat="45.7752" lon="4.71622">
        <ele>291.67706</ele>
        <time>2023-07-10T15:50:47.000Z</time>
      </trkpt>
      <trkpt lat="45.77517" lon="4.71618">
        <ele>291.60074</ele>
        <time>2023-07-10T15:50:48.000Z</time>
      </trkpt>
      <trkpt lat="45.77514" lon="4.71615">
        <ele>291.66452</ele>
        <time>2023-07-10T15:50:49.000Z</time>
      </trkpt>
      <trkpt lat="45.77512" lon="4.71611">
        <ele>291.68253</ele>
        <time>2023-07-10T15:50:50.000Z</time>
      </trkpt>
      <trkpt lat="45.77508" lon="4.71608">
        <ele>291.68378</ele>
        <time>2023-07-10T15:50:51.000Z</time>
      </trkpt>
      <trkpt lat="45.77506" lon="4.71605">
        <ele>291.72476</ele>
        <time>2023-07-10T15:50:52.000Z</time>
      </trkpt>
      <trkpt lat="45.77503" lon="4.71601">
        <ele>291.79544</ele>
        <time>2023-07-10T15:50:53.000Z</time>
      </trkpt>
      <trkpt lat="45.775" lon="4.71598">
        <ele>291.79166</ele>
        <time>2023-07-10T15:50:54.000Z</time>
      </trkpt>
      <trkpt lat="45.77497" lon="4.71595">
        <ele>291.8237</ele>
        <time>2023-07-10T15:50:55.000Z</time>
      </trkpt>
      <trkpt lat="45.77495" lon="4.71592">
        <ele>291.90289</ele>
        <time>2023-07-10T15:50:56.000Z</time>
      </trkpt>
      <trkpt lat="45.77493" lon="4.71589">
        <ele>291.49139</ele>
        <time>2023-07-10T15:50:57.000Z</time>
      </trkpt>
      <trkpt lat="45.7749" lon="4.71586">
        <ele>291.22028</ele>
        <time>2023-07-10T15:50:58.000Z</time>
      </trkpt>
      <trkpt lat="45.77487" lon="4.71584">
        <ele>291.00534</ele>
        <time>2023-07-10T15:50:59.000Z</time>
      </trkpt>
      <trkpt lat="45.77484" lon="4.71582">
        <ele>290.82513</ele>
        <time>2023-07-10T15:51:00.000Z</time>
      </trkpt>
      <trkpt lat="45.77481" lon="4.7158">
        <ele>290.57269</ele>
        <time>2023-07-10T15:51:01.000Z</time>
      </trkpt>
      <trkpt lat="45.77478" lon="4.71577">
        <ele>290.35608</ele>
        <time>2023-07-10T15:51:02.000Z</time>
      </trkpt>
      <trkpt lat="45.77476" lon="4.71574">
        <ele>290.16669</ele>
        <time>2023-07-10T15:51:03.000Z</time>
      </trkpt>
      <trkpt lat="45.77474" lon="4.71571">
        <ele>289.90643</ele>
        <time>2023-07-10T15:51:04.000Z</time>
      </trkpt>
      <trkpt lat="45.77472" lon="4.71567">
        <ele>289.66867</ele>
        <time>2023-07-10T15:51:05.000Z</time>
      </trkpt>
      <trkpt lat="45.77469" lon="4.71563">
        <ele>289.42865</ele>
        <time>2023-07-10T15:51:06.000Z</time>
      </trkpt>
      <trkpt lat="45.77467" lon="4.7156">
        <ele>289.22385</ele>
        <time>2023-07-10T15:51:07.000Z</time>
      </trkpt>
      <trkpt lat="45.77464" lon="4.71555">
        <ele>289.06503</ele>
        <time>2023-07-10T15:51:08.000Z</time>
      </trkpt>
      <trkpt lat="45.77461" lon="4.71551">
        <ele>289.67743</ele>
        <time>2023-07-10T15:51:09.000Z</time>
      </trkpt>
      <trkpt lat="45.77458" lon="4.71548">
        <ele>290.32965</ele>
        <time>2023-07-10T15:51:10.000Z</time>
      </trkpt>
      <trkpt lat="45.77455" lon="4.71544">
        <ele>290.95294</ele>
        <time>2023-07-10T15:51:11.000Z</time>
      </trkpt>
      <trkpt lat="45.77453" lon="4.71539">
        <ele>291.45865</ele>
        <time>2023-07-10T15:51:12.000Z</time>
      </trkpt>
      <trkpt lat="45.77451" lon="4.71535">
        <ele>291.93787</ele>
        <time>2023-07-10T15:51:13.000Z</time>
      </trkpt>
      <trkpt lat="45.77449" lon="4.71531">
        <ele>292.44098</ele>
        <time>2023-07-10T15:51:14.000Z</time>
      </trkpt>
      <trkpt lat="45.77447" lon="4.71527">
        <ele>292.91541</ele>
        <time>2023-07-10T15:51:15.000Z</time>
      </trkpt>
      <trkpt lat="45.77445" lon="4.71523">
        <ele>293.40521</ele>
        <time>2023-07-10T15:51:16.000Z</time>
      </trkpt>
      <trkpt lat="45.77443" lon="4.71518">
        <ele>294.38171</ele>
        <time>2023-07-10T15:51:17.000Z</time>
      </trkpt>
      <trkpt lat="45.77441" lon="4.71514">
        <ele>295.33121</ele>
        <time>2023-07-10T15:51:18.000Z</time>
      </trkpt>
      <trkpt lat="45.77439" lon="4.71511">
        <ele>296.23846</ele>
        <time>2023-07-10T15:51:19.000Z</time>
      </trkpt>
      <trkpt lat="45.77437" lon="4.71507">
        <ele>297.10492</ele>
        <time>2023-07-10T15:51:20.000Z</time>
      </trkpt>
      <trkpt lat="45.77435" lon="4.71503">
        <ele>297.99545</ele>
        <time>2023-07-10T15:51:21.000Z</time>
      </trkpt>
      <trkpt lat="45.77434" lon="4.71501">
        <ele>298.83279</ele>
        <time>2023-07-10T15:51:22.000Z</time>
      </trkpt>
      <trkpt lat="45.77432" lon="4.71501">
        <ele>299.60019</ele>
        <time>2023-07-10T15:51:30.000Z</time>
      </trkpt>
      <trkpt lat="45.77431" lon="4.71499">
        <ele>300.46771</ele>
        <time>2023-07-10T15:51:37.000Z</time>
      </trkpt>
      <trkpt lat="45.77429" lon="4.71496">
        <ele>301.31458</ele>
        <time>2023-07-10T15:51:39.000Z</time>
      </trkpt>
      <trkpt lat="45.77427" lon="4.71495">
        <ele>302.18155</ele>
        <time>2023-07-10T15:51:40.000Z</time>
      </trkpt>
      <trkpt lat="45.77426" lon="4.71493">
        <ele>303.07837</ele>
        <time>2023-07-10T15:51:41.000Z</time>
      </trkpt>
      <trkpt lat="45.77424" lon="4.71491">
        <ele>303.98941</ele>
        <time>2023-07-10T15:51:42.000Z</time>
      </trkpt>
      <trkpt lat="45.77422" lon="4.71488">
        <ele>304.08774</ele>
        <time>2023-07-10T15:51:43.000Z</time>
      </trkpt>
      <trkpt lat="45.77421" lon="4.71486">
        <ele>304.13458</ele>
        <time>2023-07-10T15:51:44.000Z</time>
      </trkpt>
      <trkpt lat="45.77419" lon="4.71484">
        <ele>304.22046</ele>
        <time>2023-07-10T15:51:45.000Z</time>
      </trkpt>
      <trkpt lat="45.77418" lon="4.71481">
        <ele>304.38312</ele>
        <time>2023-07-10T15:51:46.000Z</time>
      </trkpt>
      <trkpt lat="45.77416" lon="4.71478">
        <ele>304.4339</ele>
        <time>2023-07-10T15:51:47.000Z</time>
      </trkpt>
      <trkpt lat="45.77415" lon="4.71475">
        <ele>304.50998</ele>
        <time>2023-07-10T15:51:48.000Z</time>
      </trkpt>
      <trkpt lat="45.77413" lon="4.71472">
        <ele>304.62885</ele>
        <time>2023-07-10T15:51:49.000Z</time>
      </trkpt>
      <trkpt lat="45.77412" lon="4.71469">
        <ele>304.73651</ele>
        <time>2023-07-10T15:51:50.000Z</time>
      </trkpt>
      <trkpt lat="45.7741" lon="4.71465">
        <ele>304.806</ele>
        <time>2023-07-10T15:51:51.000Z</time>
      </trkpt>
      <trkpt lat="45.77408" lon="4.71462">
        <ele>304.76895</ele>
        <time>2023-07-10T15:51:52.000Z</time>
      </trkpt>
      <trkpt lat="45.77406" lon="4.71457">
        <ele>304.75204</ele>
        <time>2023-07-10T15:51:53.000Z</time>
      </trkpt>
      <trkpt lat="45.77403" lon="4.71453">
        <ele>304.7308</ele>
        <time>2023-07-10T15:51:54.000Z</time>
      </trkpt>
      <trkpt lat="45.77401" lon="4.7145">
        <ele>304.7496</ele>
        <time>2023-07-10T15:51:55.000Z</time>
      </trkpt>
      <trkpt lat="45.77399" lon="4.71447">
        <ele>304.73566</ele>
        <time>2023-07-10T15:51:56.000Z</time>
      </trkpt>
      <trkpt lat="45.77396" lon="4.71446">
        <ele>304.82968</ele>
        <time>2023-07-10T15:51:57.000Z</time>
      </trkpt>
      <trkpt lat="45.77392" lon="4.71446">
        <ele>304.88849</ele>
        <time>2023-07-10T15:51:58.000Z</time>
      </trkpt>
      <trkpt lat="45.77389" lon="4.71447">
        <ele>304.96094</ele>
        <time>2023-07-10T15:51:59.000Z</time>
      </trkpt>
      <trkpt lat="45.77385" lon="4.71448">
        <ele>305.03497</ele>
        <time>2023-07-10T15:52:00.000Z</time>
      </trkpt>
      <trkpt lat="45.77381" lon="4.71448">
        <ele>305.10516</ele>
        <time>2023-07-10T15:52:01.000Z</time>
      </trkpt>
      <trkpt lat="45.77378" lon="4.71448">
        <ele>305.14056</ele>
        <time>2023-07-10T15:52:02.000Z</time>
      </trkpt>
      <trkpt lat="45.77374" lon="4.71445">
        <ele>305.12872</ele>
        <time>2023-07-10T15:52:03.000Z</time>
      </trkpt>
      <trkpt lat="45.77371" lon="4.71442">
        <ele>305.15305</ele>
        <time>2023-07-10T15:52:04.000Z</time>
      </trkpt>
      <trkpt lat="45.77369" lon="4.71439">
        <ele>305.2088</ele>
        <time>2023-07-10T15:52:05.000Z</time>
      </trkpt>
      <trkpt lat="45.77367" lon="4.71435">
        <ele>305.20148</ele>
        <time>2023-07-10T15:52:06.000Z</time>
      </trkpt>
      <trkpt lat="45.77365" lon="4.71432">
        <ele>305.37347</ele>
        <time>2023-07-10T15:52:07.000Z</time>
      </trkpt>
      <trkpt lat="45.77363" lon="4.71428">
        <ele>305.51401</ele>
        <time>2023-07-10T15:52:08.000Z</time>
      </trkpt>
      <trkpt lat="45.77361" lon="4.71423">
        <ele>305.68619</ele>
        <time>2023-07-10T15:52:09.000Z</time>
      </trkpt>
      <trkpt lat="45.7736" lon="4.7142">
        <ele>305.88382</ele>
        <time>2023-07-10T15:52:10.000Z</time>
      </trkpt>
      <trkpt lat="45.77358" lon="4.71416">
        <ele>306.07657</ele>
        <time>2023-07-10T15:52:11.000Z</time>
      </trkpt>
      <trkpt lat="45.77357" lon="4.71414">
        <ele>306.26361</ele>
        <time>2023-07-10T15:52:12.000Z</time>
      </trkpt>
      <trkpt lat="45.77355" lon="4.71411">
        <ele>306.42197</ele>
        <time>2023-07-10T15:52:13.000Z</time>
      </trkpt>
      <trkpt lat="45.77352" lon="4.71407">
        <ele>306.59277</ele>
        <time>2023-07-10T15:52:14.000Z</time>
      </trkpt>
      <trkpt lat="45.77349" lon="4.71404">
        <ele>306.76297</ele>
        <time>2023-07-10T15:52:15.000Z</time>
      </trkpt>
      <trkpt lat="45.77347" lon="4.71401">
        <ele>306.96234</ele>
        <time>2023-07-10T15:52:16.000Z</time>
      </trkpt>
      <trkpt lat="45.77343" lon="4.71398">
        <ele>307.15598</ele>
        <time>2023-07-10T15:52:17.000Z</time>
      </trkpt>
      <trkpt lat="45.77341" lon="4.71394">
        <ele>307.31274</ele>
        <time>2023-07-10T15:52:18.000Z</time>
      </trkpt>
      <trkpt lat="45.77338" lon="4.71391">
        <ele>307.52597</ele>
        <time>2023-07-10T15:52:19.000Z</time>
      </trkpt>
      <trkpt lat="45.77336" lon="4.71388">
        <ele>307.46439</ele>
        <time>2023-07-10T15:52:20.000Z</time>
      </trkpt>
      <trkpt lat="45.77334" lon="4.71384">
        <ele>307.39661</ele>
        <time>2023-07-10T15:52:21.000Z</time>
      </trkpt>
      <trkpt lat="45.77332" lon="4.71381">
        <ele>307.36166</ele>
        <time>2023-07-10T15:52:22.000Z</time>
      </trkpt>
      <trkpt lat="45.7733" lon="4.71377">
        <ele>307.33331</ele>
        <time>2023-07-10T15:52:23.000Z</time>
      </trkpt>
      <trkpt lat="45.77328" lon="4.71373">
        <ele>307.26962</ele>
        <time>2023-07-10T15:52:24.000Z</time>
      </trkpt>
      <trkpt lat="45.77325" lon="4.7137">
        <ele>307.15527</ele>
        <time>2023-07-10T15:52:25.000Z</time>
      </trkpt>
      <trkpt lat="45.77323" lon="4.71366">
        <ele>307.0784</ele>
        <time>2023-07-10T15:52:26.000Z</time>
      </trkpt>
      <trkpt lat="45.7732" lon="4.71362">
        <ele>306.95053</ele>
        <time>2023-07-10T15:52:27.000Z</time>
      </trkpt>
      <trkpt lat="45.77318" lon="4.71359">
        <ele>306.82153</ele>
        <time>2023-07-10T15:52:28.000Z</time>
      </trkpt>
      <trkpt lat="45.77315" lon="4.71355">
        <ele>306.64267</ele>
        <time>2023-07-10T15:52:29.000Z</time>
      </trkpt>
      <trkpt lat="45.77313" lon="4.71352">
        <ele>306.41577</ele>
        <time>2023-07-10T15:52:30.000Z</time>
      </trkpt>
      <trkpt lat="45.77311" lon="4.71349">
        <ele>306.16611</ele>
        <time>2023-07-10T15:52:31.000Z</time>
      </trkpt>
      <trkpt lat="45.77308" lon="4.71346">
        <ele>305.95929</ele>
        <time>2023-07-10T15:52:32.000Z</time>
      </trkpt>
      <trkpt lat="45.77306" lon="4.71343">
        <ele>305.80801</ele>
        <time>2023-07-10T15:52:33.000Z</time>
      </trkpt>
      <trkpt lat="45.77304" lon="4.7134">
        <ele>305.50253</ele>
        <time>2023-07-10T15:52:34.000Z</time>
      </trkpt>
      <trkpt lat="45.77303" lon="4.71337">
        <ele>305.14645</ele>
        <time>2023-07-10T15:52:35.000Z</time>
      </trkpt>
      <trkpt lat="45.77302" lon="4.71333">
        <ele>304.83112</ele>
        <time>2023-07-10T15:52:36.000Z</time>
      </trkpt>
      <trkpt lat="45.77301" lon="4.71329">
        <ele>304.53693</ele>
        <time>2023-07-10T15:52:37.000Z</time>
      </trkpt>
      <trkpt lat="45.77301" lon="4.71325">
        <ele>304.28021</ele>
        <time>2023-07-10T15:52:38.000Z</time>
      </trkpt>
      <trkpt lat="45.77301" lon="4.7132">
        <ele>304.09726</ele>
        <time>2023-07-10T15:52:39.000Z</time>
      </trkpt>
      <trkpt lat="45.77301" lon="4.71315">
        <ele>304.18353</ele>
        <time>2023-07-10T15:52:40.000Z</time>
      </trkpt>
      <trkpt lat="45.77301" lon="4.71311">
        <ele>304.24979</ele>
        <time>2023-07-10T15:52:41.000Z</time>
      </trkpt>
      <trkpt lat="45.77301" lon="4.71306">
        <ele>304.27252</ele>
        <time>2023-07-10T15:52:42.000Z</time>
      </trkpt>
      <trkpt lat="45.773" lon="4.71302">
        <ele>304.28976</ele>
        <time>2023-07-10T15:52:43.000Z</time>
      </trkpt>
      <trkpt lat="45.773" lon="4.71297">
        <ele>304.34323</ele>
        <time>2023-07-10T15:52:44.000Z</time>
      </trkpt>
      <trkpt lat="45.773" lon="4.71291">
        <ele>304.41162</ele>
        <time>2023-07-10T15:52:45.000Z</time>
      </trkpt>
      <trkpt lat="45.77299" lon="4.71286">
        <ele>304.47601</ele>
        <time>2023-07-10T15:52:46.000Z</time>
      </trkpt>
      <trkpt lat="45.77299" lon="4.7128">
        <ele>304.53571</ele>
        <time>2023-07-10T15:52:47.000Z</time>
      </trkpt>
      <trkpt lat="45.77298" lon="4.71275">
        <ele>304.45807</ele>
        <time>2023-07-10T15:52:48.000Z</time>
      </trkpt>
      <trkpt lat="45.77298" lon="4.7127">
        <ele>304.37445</ele>
        <time>2023-07-10T15:52:49.000Z</time>
      </trkpt>
      <trkpt lat="45.77297" lon="4.71265">
        <ele>304.28571</ele>
        <time>2023-07-10T15:52:50.000Z</time>
      </trkpt>
      <trkpt lat="45.77296" lon="4.7126">
        <ele>304.24857</ele>
        <time>2023-07-10T15:52:51.000Z</time>
      </trkpt>
      <trkpt lat="45.77296" lon="4.71255">
        <ele>304.15753</ele>
        <time>2023-07-10T15:52:52.000Z</time>
      </trkpt>
      <trkpt lat="45.77296" lon="4.71251">
        <ele>304.01346</ele>
        <time>2023-07-10T15:52:53.000Z</time>
      </trkpt>
      <trkpt lat="45.77296" lon="4.71246">
        <ele>304.06668</ele>
        <time>2023-07-10T15:52:54.000Z</time>
      </trkpt>
      <trkpt lat="45.77296" lon="4.71241">
        <ele>304.18457</ele>
        <time>2023-07-10T15:52:55.000Z</time>
      </trkpt>
      <trkpt lat="45.77296" lon="4.71236">
        <ele>304.31976</ele>
        <time>2023-07-10T15:52:56.000Z</time>
      </trkpt>
      <trkpt lat="45.77296" lon="4.71231">
        <ele>304.39709</ele>
        <time>2023-07-10T15:52:57.000Z</time>
      </trkpt>
      <trkpt lat="45.77296" lon="4.71225">
        <ele>304.45953</ele>
        <time>2023-07-10T15:52:58.000Z</time>
      </trkpt>
      <trkpt lat="45.77296" lon="4.7122">
        <ele>304.4007</ele>
        <time>2023-07-10T15:52:59.000Z</time>
      </trkpt>
      <trkpt lat="45.77296" lon="4.71214">
        <ele>304.35468</ele>
        <time>2023-07-10T15:53:00.000Z</time>
      </trkpt>
      <trkpt lat="45.77296" lon="4.71209">
        <ele>304.32831</ele>
        <time>2023-07-10T15:53:01.000Z</time>
      </trkpt>
      <trkpt lat="45.77295" lon="4.71204">
        <ele>304.30234</ele>
        <time>2023-07-10T15:53:02.000Z</time>
      </trkpt>
      <trkpt lat="45.77295" lon="4.71199">
        <ele>304.25156</ele>
        <time>2023-07-10T15:53:03.000Z</time>
      </trkpt>
      <trkpt lat="45.77295" lon="4.71194">
        <ele>304.22928</ele>
        <time>2023-07-10T15:53:04.000Z</time>
      </trkpt>
      <trkpt lat="45.77294" lon="4.71189">
        <ele>304.20035</ele>
        <time>2023-07-10T15:53:05.000Z</time>
      </trkpt>
      <trkpt lat="45.77294" lon="4.71184">
        <ele>304.17215</ele>
        <time>2023-07-10T15:53:06.000Z</time>
      </trkpt>
      <trkpt lat="45.77293" lon="4.71179">
        <ele>304.11652</ele>
        <time>2023-07-10T15:53:07.000Z</time>
      </trkpt>
      <trkpt lat="45.77292" lon="4.71176">
        <ele>304.1994</ele>
        <time>2023-07-10T15:53:08.000Z</time>
      </trkpt>
      <trkpt lat="45.77292" lon="4.71172">
        <ele>304.27139</ele>
        <time>2023-07-10T15:53:09.000Z</time>
      </trkpt>
      <trkpt lat="45.77292" lon="4.71168">
        <ele>304.35516</ele>
        <time>2023-07-10T15:53:10.000Z</time>
      </trkpt>
      <trkpt lat="45.77291" lon="4.71164">
        <ele>304.3688</ele>
        <time>2023-07-10T15:53:11.000Z</time>
      </trkpt>
      <trkpt lat="45.77291" lon="4.7116">
        <ele>304.36234</ele>
        <time>2023-07-10T15:53:12.000Z</time>
      </trkpt>
      <trkpt lat="45.77291" lon="4.71156">
        <ele>304.35977</ele>
        <time>2023-07-10T15:53:13.000Z</time>
      </trkpt>
      <trkpt lat="45.77291" lon="4.71153">
        <ele>304.28488</ele>
        <time>2023-07-10T15:53:14.000Z</time>
      </trkpt>
      <trkpt lat="45.77291" lon="4.71149">
        <ele>304.16891</ele>
        <time>2023-07-10T15:53:15.000Z</time>
      </trkpt>
      <trkpt lat="45.77291" lon="4.71145">
        <ele>304.04663</ele>
        <time>2023-07-10T15:53:16.000Z</time>
      </trkpt>
      <trkpt lat="45.77291" lon="4.7114">
        <ele>303.98639</ele>
        <time>2023-07-10T15:53:17.000Z</time>
      </trkpt>
      <trkpt lat="45.77291" lon="4.71135">
        <ele>303.94382</ele>
        <time>2023-07-10T15:53:18.000Z</time>
      </trkpt>
      <trkpt lat="45.7729" lon="4.71131">
        <ele>303.92133</ele>
        <time>2023-07-10T15:53:19.000Z</time>
      </trkpt>
      <trkpt lat="45.7729" lon="4.71127">
        <ele>303.80328</ele>
        <time>2023-07-10T15:53:20.000Z</time>
      </trkpt>
      <trkpt lat="45.77289" lon="4.71123">
        <ele>303.69208</ele>
        <time>2023-07-10T15:53:21.000Z</time>
      </trkpt>
      <trkpt lat="45.77289" lon="4.71118">
        <ele>303.50858</ele>
        <time>2023-07-10T15:53:22.000Z</time>
      </trkpt>
      <trkpt lat="45.77289" lon="4.71114">
        <ele>303.26202</ele>
        <time>2023-07-10T15:53:23.000Z</time>
      </trkpt>
      <trkpt lat="45.77289" lon="4.7111">
        <ele>302.97589</ele>
        <time>2023-07-10T15:53:24.000Z</time>
      </trkpt>
      <trkpt lat="45.77289" lon="4.71105">
        <ele>302.72058</ele>
        <time>2023-07-10T15:53:25.000Z</time>
      </trkpt>
      <trkpt lat="45.77289" lon="4.711">
        <ele>302.69006</ele>
        <time>2023-07-10T15:53:26.000Z</time>
      </trkpt>
      <trkpt lat="45.77289" lon="4.71096">
        <ele>302.62558</ele>
        <time>2023-07-10T15:53:27.000Z</time>
      </trkpt>
      <trkpt lat="45.77289" lon="4.71091">
        <ele>302.50876</ele>
        <time>2023-07-10T15:53:28.000Z</time>
      </trkpt>
      <trkpt lat="45.77289" lon="4.71087">
        <ele>302.35126</ele>
        <time>2023-07-10T15:53:29.000Z</time>
      </trkpt>
      <trkpt lat="45.77289" lon="4.71082">
        <ele>302.224</ele>
        <time>2023-07-10T15:53:30.000Z</time>
      </trkpt>
      <trkpt lat="45.77289" lon="4.71078">
        <ele>302.10229</ele>
        <time>2023-07-10T15:53:31.000Z</time>
      </trkpt>
      <trkpt lat="45.77289" lon="4.71074">
        <ele>302.04404</ele>
        <time>2023-07-10T15:53:32.000Z</time>
      </trkpt>
      <trkpt lat="45.7729" lon="4.7107">
        <ele>302.07416</ele>
        <time>2023-07-10T15:53:33.000Z</time>
      </trkpt>
      <trkpt lat="45.7729" lon="4.71065">
        <ele>302.10919</ele>
        <time>2023-07-10T15:53:34.000Z</time>
      </trkpt>
      <trkpt lat="45.7729" lon="4.71061">
        <ele>302.20917</ele>
        <time>2023-07-10T15:53:35.000Z</time>
      </trkpt>
      <trkpt lat="45.7729" lon="4.71058">
        <ele>302.24448</ele>
        <time>2023-07-10T15:53:36.000Z</time>
      </trkpt>
      <trkpt lat="45.77289" lon="4.71053">
        <ele>302.1597</ele>
        <time>2023-07-10T15:53:37.000Z</time>
      </trkpt>
      <trkpt lat="45.77289" lon="4.71048">
        <ele>301.99927</ele>
        <time>2023-07-10T15:53:38.000Z</time>
      </trkpt>
      <trkpt lat="45.77289" lon="4.71043">
        <ele>301.69452</ele>
        <time>2023-07-10T15:53:39.000Z</time>
      </trkpt>
      <trkpt lat="45.77288" lon="4.71037">
        <ele>301.51437</ele>
        <time>2023-07-10T15:53:40.000Z</time>
      </trkpt>
      <trkpt lat="45.77288" lon="4.71032">
        <ele>301.59802</ele>
        <time>2023-07-10T15:53:41.000Z</time>
      </trkpt>
      <trkpt lat="45.77288" lon="4.71026">
        <ele>301.6875</ele>
        <time>2023-07-10T15:53:42.000Z</time>
      </trkpt>
      <trkpt lat="45.77288" lon="4.71021">
        <ele>301.85837</ele>
        <time>2023-07-10T15:53:43.000Z</time>
      </trkpt>
      <trkpt lat="45.77288" lon="4.71014">
        <ele>302.05066</ele>
        <time>2023-07-10T15:53:44.000Z</time>
      </trkpt>
      <trkpt lat="45.77288" lon="4.71009">
        <ele>302.24106</ele>
        <time>2023-07-10T15:53:45.000Z</time>
      </trkpt>
      <trkpt lat="45.77287" lon="4.71003">
        <ele>302.22836</ele>
        <time>2023-07-10T15:53:46.000Z</time>
      </trkpt>
      <trkpt lat="45.77287" lon="4.70998">
        <ele>302.31854</ele>
        <time>2023-07-10T15:53:47.000Z</time>
      </trkpt>
      <trkpt lat="45.77287" lon="4.70993">
        <ele>302.44531</ele>
        <time>2023-07-10T15:53:48.000Z</time>
      </trkpt>
      <trkpt lat="45.77286" lon="4.70989">
        <ele>302.36584</ele>
        <time>2023-07-10T15:53:49.000Z</time>
      </trkpt>
      <trkpt lat="45.77284" lon="4.70984">
        <ele>302.73062</ele>
        <time>2023-07-10T15:53:50.000Z</time>
      </trkpt>
      <trkpt lat="45.77282" lon="4.70979">
        <ele>303.05313</ele>
        <time>2023-07-10T15:53:51.000Z</time>
      </trkpt>
      <trkpt lat="45.77281" lon="4.70974">
        <ele>303.35187</ele>
        <time>2023-07-10T15:53:52.000Z</time>
      </trkpt>
      <trkpt lat="45.7728" lon="4.70969">
        <ele>303.53522</ele>
        <time>2023-07-10T15:53:53.000Z</time>
      </trkpt>
      <trkpt lat="45.77279" lon="4.70964">
        <ele>303.83267</ele>
        <time>2023-07-10T15:53:54.000Z</time>
      </trkpt>
      <trkpt lat="45.77279" lon="4.70959">
        <ele>304.06799</ele>
        <time>2023-07-10T15:53:55.000Z</time>
      </trkpt>
      <trkpt lat="45.77279" lon="4.70954">
        <ele>304.30142</ele>
        <time>2023-07-10T15:53:56.000Z</time>
      </trkpt>
      <trkpt lat="45.77279" lon="4.7095">
        <ele>304.58295</ele>
        <time>2023-07-10T15:53:57.000Z</time>
      </trkpt>
      <trkpt lat="45.77279" lon="4.70947">
        <ele>304.96228</ele>
        <time>2023-07-10T15:53:58.000Z</time>
      </trkpt>
      <trkpt lat="45.77279" lon="4.70942">
        <ele>305.43134</ele>
        <time>2023-07-10T15:53:59.000Z</time>
      </trkpt>
      <trkpt lat="45.7728" lon="4.70938">
        <ele>305.86771</ele>
        <time>2023-07-10T15:54:00.000Z</time>
      </trkpt>
      <trkpt lat="45.77281" lon="4.70933">
        <ele>305.97617</ele>
        <time>2023-07-10T15:54:01.000Z</time>
      </trkpt>
      <trkpt lat="45.77281" lon="4.70929">
        <ele>306.28275</ele>
        <time>2023-07-10T15:54:02.000Z</time>
      </trkpt>
      <trkpt lat="45.77281" lon="4.70926">
        <ele>306.65005</ele>
        <time>2023-07-10T15:54:03.000Z</time>
      </trkpt>
      <trkpt lat="45.77281" lon="4.70921">
        <ele>307.00046</ele>
        <time>2023-07-10T15:54:04.000Z</time>
      </trkpt>
      <trkpt lat="45.77281" lon="4.70916">
        <ele>307.29437</ele>
        <time>2023-07-10T15:54:05.000Z</time>
      </trkpt>
      <trkpt lat="45.7728" lon="4.70911">
        <ele>307.59085</ele>
        <time>2023-07-10T15:54:06.000Z</time>
      </trkpt>
      <trkpt lat="45.7728" lon="4.70907">
        <ele>307.84628</ele>
        <time>2023-07-10T15:54:07.000Z</time>
      </trkpt>
      <trkpt lat="45.7728" lon="4.70902">
        <ele>308.16119</ele>
        <time>2023-07-10T15:54:08.000Z</time>
      </trkpt>
      <trkpt lat="45.77281" lon="4.70898">
        <ele>308.66425</ele>
        <time>2023-07-10T15:54:09.000Z</time>
      </trkpt>
      <trkpt lat="45.77281" lon="4.70893">
        <ele>308.71164</ele>
        <time>2023-07-10T15:54:10.000Z</time>
      </trkpt>
      <trkpt lat="45.77281" lon="4.70889">
        <ele>308.78217</ele>
        <time>2023-07-10T15:54:11.000Z</time>
      </trkpt>
      <trkpt lat="45.77283" lon="4.70885">
        <ele>308.85477</ele>
        <time>2023-07-10T15:54:12.000Z</time>
      </trkpt>
      <trkpt lat="45.77284" lon="4.70881">
        <ele>308.9473</ele>
        <time>2023-07-10T15:54:13.000Z</time>
      </trkpt>
      <trkpt lat="45.77285" lon="4.70877">
        <ele>308.93835</ele>
        <time>2023-07-10T15:54:14.000Z</time>
      </trkpt>
      <trkpt lat="45.77287" lon="4.70873">
        <ele>308.94855</ele>
        <time>2023-07-10T15:54:15.000Z</time>
      </trkpt>
      <trkpt lat="45.77288" lon="4.70869">
        <ele>309.01343</ele>
        <time>2023-07-10T15:54:16.000Z</time>
      </trkpt>
      <trkpt lat="45.7729" lon="4.70865">
        <ele>309.09274</ele>
        <time>2023-07-10T15:54:17.000Z</time>
      </trkpt>
      <trkpt lat="45.77291" lon="4.70861">
        <ele>309.12347</ele>
        <time>2023-07-10T15:54:18.000Z</time>
      </trkpt>
      <trkpt lat="45.77292" lon="4.70857">
        <ele>309.13116</ele>
        <time>2023-07-10T15:54:19.000Z</time>
      </trkpt>
      <trkpt lat="45.77294" lon="4.70853">
        <ele>309.07089</ele>
        <time>2023-07-10T15:54:20.000Z</time>
      </trkpt>
      <trkpt lat="45.77296" lon="4.70848">
        <ele>309.18829</ele>
        <time>2023-07-10T15:54:21.000Z</time>
      </trkpt>
      <trkpt lat="45.77298" lon="4.70844">
        <ele>309.14264</ele>
        <time>2023-07-10T15:54:22.000Z</time>
      </trkpt>
      <trkpt lat="45.773" lon="4.7084">
        <ele>309.0419</ele>
        <time>2023-07-10T15:54:23.000Z</time>
      </trkpt>
      <trkpt lat="45.77302" lon="4.70837">
        <ele>308.89932</ele>
        <time>2023-07-10T15:54:24.000Z</time>
      </trkpt>
      <trkpt lat="45.77304" lon="4.70833">
        <ele>308.87531</ele>
        <time>2023-07-10T15:54:25.000Z</time>
      </trkpt>
      <trkpt lat="45.77306" lon="4.70829">
        <ele>308.8085</ele>
        <time>2023-07-10T15:54:26.000Z</time>
      </trkpt>
      <trkpt lat="45.77308" lon="4.70825">
        <ele>308.73846</ele>
        <time>2023-07-10T15:54:27.000Z</time>
      </trkpt>
      <trkpt lat="45.7731" lon="4.70821">
        <ele>308.60934</ele>
        <time>2023-07-10T15:54:28.000Z</time>
      </trkpt>
      <trkpt lat="45.77312" lon="4.70817">
        <ele>308.57953</ele>
        <time>2023-07-10T15:54:29.000Z</time>
      </trkpt>
      <trkpt lat="45.77314" lon="4.70812">
        <ele>308.52216</ele>
        <time>2023-07-10T15:54:30.000Z</time>
      </trkpt>
      <trkpt lat="45.77316" lon="4.70808">
        <ele>308.50601</ele>
        <time>2023-07-10T15:54:31.000Z</time>
      </trkpt>
      <trkpt lat="45.77318" lon="4.70803">
        <ele>308.48068</ele>
        <time>2023-07-10T15:54:32.000Z</time>
      </trkpt>
      <trkpt lat="45.7732" lon="4.70798">
        <ele>308.48425</ele>
        <time>2023-07-10T15:54:33.000Z</time>
      </trkpt>
      <trkpt lat="45.77321" lon="4.70793">
        <ele>308.5163</ele>
        <time>2023-07-10T15:54:34.000Z</time>
      </trkpt>
      <trkpt lat="45.77322" lon="4.70788">
        <ele>308.67026</ele>
        <time>2023-07-10T15:54:35.000Z</time>
      </trkpt>
      <trkpt lat="45.77323" lon="4.70783">
        <ele>308.7384</ele>
        <time>2023-07-10T15:54:36.000Z</time>
      </trkpt>
      <trkpt lat="45.77325" lon="4.70778">
        <ele>308.81387</ele>
        <time>2023-07-10T15:54:37.000Z</time>
      </trkpt>
      <trkpt lat="45.77327" lon="4.70773">
        <ele>308.91635</ele>
        <time>2023-07-10T15:54:38.000Z</time>
      </trkpt>
      <trkpt lat="45.77329" lon="4.70769">
        <ele>309.01849</ele>
        <time>2023-07-10T15:54:39.000Z</time>
      </trkpt>
      <trkpt lat="45.77332" lon="4.70764">
        <ele>309.103</ele>
        <time>2023-07-10T15:54:40.000Z</time>
      </trkpt>
      <trkpt lat="45.77334" lon="4.7076">
        <ele>309.17758</ele>
        <time>2023-07-10T15:54:41.000Z</time>
      </trkpt>
      <trkpt lat="45.77336" lon="4.70755">
        <ele>309.27689</ele>
        <time>2023-07-10T15:54:42.000Z</time>
      </trkpt>
      <trkpt lat="45.77338" lon="4.70751">
        <ele>309.35968</ele>
        <time>2023-07-10T15:54:43.000Z</time>
      </trkpt>
      <trkpt lat="45.7734" lon="4.70748">
        <ele>309.49921</ele>
        <time>2023-07-10T15:54:44.000Z</time>
      </trkpt>
      <trkpt lat="45.77342" lon="4.70744">
        <ele>309.54919</ele>
        <time>2023-07-10T15:54:45.000Z</time>
      </trkpt>
      <trkpt lat="45.77344" lon="4.70739">
        <ele>309.6236</ele>
        <time>2023-07-10T15:54:46.000Z</time>
      </trkpt>
      <trkpt lat="45.77345" lon="4.70735">
        <ele>309.70331</ele>
        <time>2023-07-10T15:54:47.000Z</time>
      </trkpt>
      <trkpt lat="45.77347" lon="4.7073">
        <ele>309.8161</ele>
        <time>2023-07-10T15:54:48.000Z</time>
      </trkpt>
      <trkpt lat="45.77349" lon="4.70725">
        <ele>309.83795</ele>
        <time>2023-07-10T15:54:49.000Z</time>
      </trkpt>
      <trkpt lat="45.7735" lon="4.7072">
        <ele>309.88715</ele>
        <time>2023-07-10T15:54:50.000Z</time>
      </trkpt>
      <trkpt lat="45.77351" lon="4.70715">
        <ele>309.87515</ele>
        <time>2023-07-10T15:54:51.000Z</time>
      </trkpt>
      <trkpt lat="45.77352" lon="4.7071">
        <ele>309.84668</ele>
        <time>2023-07-10T15:54:52.000Z</time>
      </trkpt>
      <trkpt lat="45.77352" lon="4.70705">
        <ele>309.93423</ele>
        <time>2023-07-10T15:54:53.000Z</time>
      </trkpt>
      <trkpt lat="45.77353" lon="4.70699">
        <ele>309.96921</ele>
        <time>2023-07-10T15:54:54.000Z</time>
      </trkpt>
      <trkpt lat="45.77354" lon="4.70694">
        <ele>309.88629</ele>
        <time>2023-07-10T15:54:55.000Z</time>
      </trkpt>
      <trkpt lat="45.77354" lon="4.70688">
        <ele>309.85022</ele>
        <time>2023-07-10T15:54:56.000Z</time>
      </trkpt>
      <trkpt lat="45.77355" lon="4.70682">
        <ele>309.81461</ele>
        <time>2023-07-10T15:54:57.000Z</time>
      </trkpt>
      <trkpt lat="45.77356" lon="4.70676">
        <ele>309.7746</ele>
        <time>2023-07-10T15:54:58.000Z</time>
      </trkpt>
      <trkpt lat="45.77356" lon="4.7067">
        <ele>309.78543</ele>
        <time>2023-07-10T15:54:59.000Z</time>
      </trkpt>
      <trkpt lat="45.77356" lon="4.70663">
        <ele>309.87582</ele>
        <time>2023-07-10T15:55:00.000Z</time>
      </trkpt>
      <trkpt lat="45.77356" lon="4.70656">
        <ele>309.86469</ele>
        <time>2023-07-10T15:55:01.000Z</time>
      </trkpt>
      <trkpt lat="45.77357" lon="4.70649">
        <ele>309.86823</ele>
        <time>2023-07-10T15:55:02.000Z</time>
      </trkpt>
      <trkpt lat="45.77357" lon="4.70642">
        <ele>309.90103</ele>
        <time>2023-07-10T15:55:03.000Z</time>
      </trkpt>
      <trkpt lat="45.77358" lon="4.70634">
        <ele>309.90717</ele>
        <time>2023-07-10T15:55:04.000Z</time>
      </trkpt>
      <trkpt lat="45.77359" lon="4.70627">
        <ele>309.90985</ele>
        <time>2023-07-10T15:55:05.000Z</time>
      </trkpt>
      <trkpt lat="45.7736" lon="4.70619">
        <ele>309.92065</ele>
        <time>2023-07-10T15:55:06.000Z</time>
      </trkpt>
      <trkpt lat="45.7736" lon="4.70611">
        <ele>309.95386</ele>
        <time>2023-07-10T15:55:07.000Z</time>
      </trkpt>
      <trkpt lat="45.7736" lon="4.70604">
        <ele>309.90918</ele>
        <time>2023-07-10T15:55:08.000Z</time>
      </trkpt>
      <trkpt lat="45.77361" lon="4.70597">
        <ele>309.92096</ele>
        <time>2023-07-10T15:55:09.000Z</time>
      </trkpt>
      <trkpt lat="45.77362" lon="4.7059">
        <ele>309.92242</ele>
        <time>2023-07-10T15:55:10.000Z</time>
      </trkpt>
      <trkpt lat="45.77362" lon="4.70584">
        <ele>309.96396</ele>
        <time>2023-07-10T15:55:11.000Z</time>
      </trkpt>
      <trkpt lat="45.77363" lon="4.70578">
        <ele>310.04047</ele>
        <time>2023-07-10T15:55:12.000Z</time>
      </trkpt>
      <trkpt lat="45.77362" lon="4.70572">
        <ele>310.17368</ele>
        <time>2023-07-10T15:55:13.000Z</time>
      </trkpt>
      <trkpt lat="45.77362" lon="4.70567">
        <ele>310.31903</ele>
        <time>2023-07-10T15:55:14.000Z</time>
      </trkpt>
      <trkpt lat="45.77362" lon="4.70561">
        <ele>310.44598</ele>
        <time>2023-07-10T15:55:15.000Z</time>
      </trkpt>
      <trkpt lat="45.77361" lon="4.70556">
        <ele>310.60028</ele>
        <time>2023-07-10T15:55:16.000Z</time>
      </trkpt>
      <trkpt lat="45.7736" lon="4.70551">
        <ele>310.77167</ele>
        <time>2023-07-10T15:55:17.000Z</time>
      </trkpt>
      <trkpt lat="45.77359" lon="4.70547">
        <ele>310.94836</ele>
        <time>2023-07-10T15:55:18.000Z</time>
      </trkpt>
      <trkpt lat="45.77359" lon="4.70542">
        <ele>311.11328</ele>
        <time>2023-07-10T15:55:19.000Z</time>
      </trkpt>
      <trkpt lat="45.77358" lon="4.70537">
        <ele>311.18713</ele>
        <time>2023-07-10T15:55:20.000Z</time>
      </trkpt>
      <trkpt lat="45.77357" lon="4.70531">
        <ele>311.2038</ele>
        <time>2023-07-10T15:55:21.000Z</time>
      </trkpt>
      <trkpt lat="45.77356" lon="4.70526">
        <ele>311.23187</ele>
        <time>2023-07-10T15:55:22.000Z</time>
      </trkpt>
      <trkpt lat="45.77355" lon="4.70522">
        <ele>311.40366</ele>
        <time>2023-07-10T15:55:23.000Z</time>
      </trkpt>
      <trkpt lat="45.77354" lon="4.70517">
        <ele>311.55621</ele>
        <time>2023-07-10T15:55:24.000Z</time>
      </trkpt>
      <trkpt lat="45.77353" lon="4.70512">
        <ele>311.73605</ele>
        <time>2023-07-10T15:55:25.000Z</time>
      </trkpt>
      <trkpt lat="45.77353" lon="4.70508">
        <ele>311.89465</ele>
        <time>2023-07-10T15:55:26.000Z</time>
      </trkpt>
      <trkpt lat="45.77351" lon="4.70503">
        <ele>312.05817</ele>
        <time>2023-07-10T15:55:27.000Z</time>
      </trkpt>
      <trkpt lat="45.7735" lon="4.70499">
        <ele>312.29404</ele>
        <time>2023-07-10T15:55:28.000Z</time>
      </trkpt>
      <trkpt lat="45.7735" lon="4.70494">
        <ele>312.56122</ele>
        <time>2023-07-10T15:55:29.000Z</time>
      </trkpt>
      <trkpt lat="45.77349" lon="4.7049">
        <ele>312.81635</ele>
        <time>2023-07-10T15:55:30.000Z</time>
      </trkpt>
      <trkpt lat="45.7735" lon="4.70486">
        <ele>313.10065</ele>
        <time>2023-07-10T15:55:31.000Z</time>
      </trkpt>
      <trkpt lat="45.77351" lon="4.70483">
        <ele>313.345</ele>
        <time>2023-07-10T15:55:32.000Z</time>
      </trkpt>
      <trkpt lat="45.77353" lon="4.7048">
        <ele>313.34601</ele>
        <time>2023-07-10T15:55:33.000Z</time>
      </trkpt>
      <trkpt lat="45.77354" lon="4.70478">
        <ele>313.37073</ele>
        <time>2023-07-10T15:55:34.000Z</time>
      </trkpt>
      <trkpt lat="45.77354" lon="4.70474">
        <ele>313.345</ele>
        <time>2023-07-10T15:55:35.000Z</time>
      </trkpt>
      <trkpt lat="45.77353" lon="4.70471">
        <ele>313.50262</ele>
        <time>2023-07-10T15:55:36.000Z</time>
      </trkpt>
      <trkpt lat="45.77352" lon="4.70467">
        <ele>313.61969</ele>
        <time>2023-07-10T15:55:37.000Z</time>
      </trkpt>
      <trkpt lat="45.77352" lon="4.70464">
        <ele>313.75525</ele>
        <time>2023-07-10T15:55:38.000Z</time>
      </trkpt>
      <trkpt lat="45.77354" lon="4.70461">
        <ele>313.8978</ele>
        <time>2023-07-10T15:55:39.000Z</time>
      </trkpt>
      <trkpt lat="45.77357" lon="4.70459">
        <ele>314.11243</ele>
        <time>2023-07-10T15:55:40.000Z</time>
      </trkpt>
      <trkpt lat="45.7736" lon="4.70457">
        <ele>314.36292</ele>
        <time>2023-07-10T15:55:41.000Z</time>
      </trkpt>
      <trkpt lat="45.77362" lon="4.70454">
        <ele>314.63504</ele>
        <time>2023-07-10T15:55:42.000Z</time>
      </trkpt>
      <trkpt lat="45.77363" lon="4.7045">
        <ele>314.72034</ele>
        <time>2023-07-10T15:55:43.000Z</time>
      </trkpt>
      <trkpt lat="45.77363" lon="4.70446">
        <ele>314.84506</ele>
        <time>2023-07-10T15:55:44.000Z</time>
      </trkpt>
      <trkpt lat="45.77363" lon="4.70442">
        <ele>314.92996</ele>
        <time>2023-07-10T15:55:45.000Z</time>
      </trkpt>
      <trkpt lat="45.77364" lon="4.70438">
        <ele>315.02274</ele>
        <time>2023-07-10T15:55:46.000Z</time>
      </trkpt>
      <trkpt lat="45.77364" lon="4.70434">
        <ele>315.07196</ele>
        <time>2023-07-10T15:55:47.000Z</time>
      </trkpt>
      <trkpt lat="45.77365" lon="4.70431">
        <ele>315.09543</ele>
        <time>2023-07-10T15:55:48.000Z</time>
      </trkpt>
      <trkpt lat="45.77365" lon="4.70428">
        <ele>315.13107</ele>
        <time>2023-07-10T15:55:49.000Z</time>
      </trkpt>
      <trkpt lat="45.77365" lon="4.70425">
        <ele>315.14893</ele>
        <time>2023-07-10T15:55:50.000Z</time>
      </trkpt>
      <trkpt lat="45.77366" lon="4.70422">
        <ele>315.17239</ele>
        <time>2023-07-10T15:55:51.000Z</time>
      </trkpt>
      <trkpt lat="45.77367" lon="4.70418">
        <ele>315.23761</ele>
        <time>2023-07-10T15:55:53.000Z</time>
      </trkpt>
      <trkpt lat="45.7737" lon="4.70416">
        <ele>315.35062</ele>
        <time>2023-07-10T15:55:55.000Z</time>
      </trkpt>
      <trkpt lat="45.77372" lon="4.70414">
        <ele>315.4653</ele>
        <time>2023-07-10T15:55:57.000Z</time>
      </trkpt>
      <trkpt lat="45.77374" lon="4.70414">
        <ele>315.62842</ele>
        <time>2023-07-10T15:55:59.000Z</time>
      </trkpt>
      <trkpt lat="45.77376" lon="4.70415">
        <ele>315.52365</ele>
        <time>2023-07-10T15:56:02.000Z</time>
      </trkpt>
      <trkpt lat="45.77374" lon="4.70416">
        <ele>315.5722</ele>
        <time>2023-07-10T15:57:10.000Z</time>
      </trkpt>
      <trkpt lat="45.77378" lon="4.70414">
        <ele>315.59058</ele>
        <time>2023-07-10T15:57:36.000Z</time>
      </trkpt>
      <trkpt lat="45.77381" lon="4.70413">
        <ele>315.5871</ele>
        <time>2023-07-10T15:57:37.000Z</time>
      </trkpt>
      <trkpt lat="45.77384" lon="4.70412">
        <ele>315.59711</ele>
        <time>2023-07-10T15:57:38.000Z</time>
      </trkpt>
      <trkpt lat="45.77387" lon="4.70411">
        <ele>315.61984</ele>
        <time>2023-07-10T15:57:39.000Z</time>
      </trkpt>
      <trkpt lat="45.7739" lon="4.7041">
        <ele>315.61493</ele>
        <time>2023-07-10T15:57:40.000Z</time>
      </trkpt>
      <trkpt lat="45.77393" lon="4.7041">
        <ele>315.60934</ele>
        <time>2023-07-10T15:57:41.000Z</time>
      </trkpt>
      <trkpt lat="45.77396" lon="4.7041">
        <ele>315.58307</ele>
        <time>2023-07-10T15:57:42.000Z</time>
      </trkpt>
      <trkpt lat="45.774" lon="4.7041">
        <ele>315.57504</ele>
        <time>2023-07-10T15:57:43.000Z</time>
      </trkpt>
      <trkpt lat="45.77403" lon="4.7041">
        <ele>315.58371</ele>
        <time>2023-07-10T15:57:44.000Z</time>
      </trkpt>
      <trkpt lat="45.77406" lon="4.70411">
        <ele>315.62152</ele>
        <time>2023-07-10T15:57:45.000Z</time>
      </trkpt>
      <trkpt lat="45.7741" lon="4.70411">
        <ele>315.69321</ele>
        <time>2023-07-10T15:57:46.000Z</time>
      </trkpt>
      <trkpt lat="45.77413" lon="4.70412">
        <ele>315.74423</ele>
        <time>2023-07-10T15:57:47.000Z</time>
      </trkpt>
      <trkpt lat="45.77417" lon="4.70414">
        <ele>315.82916</ele>
        <time>2023-07-10T15:57:48.000Z</time>
      </trkpt>
      <trkpt lat="45.77421" lon="4.70416">
        <ele>315.90378</ele>
        <time>2023-07-10T15:57:49.000Z</time>
      </trkpt>
      <trkpt lat="45.77426" lon="4.70419">
        <ele>315.94952</ele>
        <time>2023-07-10T15:57:50.000Z</time>
      </trkpt>
      <trkpt lat="45.7743" lon="4.70423">
        <ele>316.02219</ele>
        <time>2023-07-10T15:57:51.000Z</time>
      </trkpt>
      <trkpt lat="45.77433" lon="4.70426">
        <ele>316.10611</ele>
        <time>2023-07-10T15:57:52.000Z</time>
      </trkpt>
      <trkpt lat="45.77437" lon="4.7043">
        <ele>316.22147</ele>
        <time>2023-07-10T15:57:53.000Z</time>
      </trkpt>
      <trkpt lat="45.77441" lon="4.70433">
        <ele>316.41638</ele>
        <time>2023-07-10T15:57:54.000Z</time>
      </trkpt>
      <trkpt lat="45.77445" lon="4.70437">
        <ele>316.48611</ele>
        <time>2023-07-10T15:57:55.000Z</time>
      </trkpt>
      <trkpt lat="45.77449" lon="4.7044">
        <ele>316.57697</ele>
        <time>2023-07-10T15:57:56.000Z</time>
      </trkpt>
      <trkpt lat="45.77453" lon="4.70443">
        <ele>316.69891</ele>
        <time>2023-07-10T15:57:57.000Z</time>
      </trkpt>
      <trkpt lat="45.77456" lon="4.70446">
        <ele>316.82675</ele>
        <time>2023-07-10T15:57:58.000Z</time>
      </trkpt>
      <trkpt lat="45.7746" lon="4.7045">
        <ele>316.96429</ele>
        <time>2023-07-10T15:57:59.000Z</time>
      </trkpt>
      <trkpt lat="45.77463" lon="4.70453">
        <ele>317.10931</ele>
        <time>2023-07-10T15:58:00.000Z</time>
      </trkpt>
      <trkpt lat="45.77466" lon="4.70457">
        <ele>317.28067</ele>
        <time>2023-07-10T15:58:01.000Z</time>
      </trkpt>
      <trkpt lat="45.7747" lon="4.7046">
        <ele>317.4772</ele>
        <time>2023-07-10T15:58:02.000Z</time>
      </trkpt>
      <trkpt lat="45.77473" lon="4.70463">
        <ele>317.6701</ele>
        <time>2023-07-10T15:58:03.000Z</time>
      </trkpt>
      <trkpt lat="45.77477" lon="4.70467">
        <ele>317.84921</ele>
        <time>2023-07-10T15:58:04.000Z</time>
      </trkpt>
      <trkpt lat="45.7748" lon="4.70471">
        <ele>318.03299</ele>
        <time>2023-07-10T15:58:05.000Z</time>
      </trkpt>
      <trkpt lat="45.77484" lon="4.70474">
        <ele>318.2218</ele>
        <time>2023-07-10T15:58:06.000Z</time>
      </trkpt>
      <trkpt lat="45.77487" lon="4.70477">
        <ele>318.41071</ele>
        <time>2023-07-10T15:58:07.000Z</time>
      </trkpt>
      <trkpt lat="45.77491" lon="4.7048">
        <ele>318.59436</ele>
        <time>2023-07-10T15:58:08.000Z</time>
      </trkpt>
      <trkpt lat="45.77494" lon="4.70483">
        <ele>318.77017</ele>
        <time>2023-07-10T15:58:09.000Z</time>
      </trkpt>
      <trkpt lat="45.77498" lon="4.70486">
        <ele>318.97046</ele>
        <time>2023-07-10T15:58:10.000Z</time>
      </trkpt>
      <trkpt lat="45.77502" lon="4.70489">
        <ele>319.15152</ele>
        <time>2023-07-10T15:58:11.000Z</time>
      </trkpt>
      <trkpt lat="45.77505" lon="4.70492">
        <ele>319.30832</ele>
        <time>2023-07-10T15:58:12.000Z</time>
      </trkpt>
      <trkpt lat="45.77509" lon="4.70495">
        <ele>319.43683</ele>
        <time>2023-07-10T15:58:13.000Z</time>
      </trkpt>
      <trkpt lat="45.77513" lon="4.70498">
        <ele>319.5675</ele>
        <time>2023-07-10T15:58:14.000Z</time>
      </trkpt>
      <trkpt lat="45.77516" lon="4.70501">
        <ele>319.69327</ele>
        <time>2023-07-10T15:58:15.000Z</time>
      </trkpt>
      <trkpt lat="45.7752" lon="4.70504">
        <ele>319.81714</ele>
        <time>2023-07-10T15:58:16.000Z</time>
      </trkpt>
      <trkpt lat="45.77524" lon="4.70507">
        <ele>319.80649</ele>
        <time>2023-07-10T15:58:17.000Z</time>
      </trkpt>
      <trkpt lat="45.77528" lon="4.7051">
        <ele>319.80856</ele>
        <time>2023-07-10T15:58:18.000Z</time>
      </trkpt>
      <trkpt lat="45.77531" lon="4.70513">
        <ele>319.79141</ele>
        <time>2023-07-10T15:58:19.000Z</time>
      </trkpt>
      <trkpt lat="45.77535" lon="4.70516">
        <ele>319.76773</ele>
        <time>2023-07-10T15:58:20.000Z</time>
      </trkpt>
      <trkpt lat="45.77538" lon="4.70518">
        <ele>319.74139</ele>
        <time>2023-07-10T15:58:21.000Z</time>
      </trkpt>
      <trkpt lat="45.77541" lon="4.70521">
        <ele>319.67429</ele>
        <time>2023-07-10T15:58:22.000Z</time>
      </trkpt>
      <trkpt lat="45.77545" lon="4.70523">
        <ele>319.54367</ele>
        <time>2023-07-10T15:58:23.000Z</time>
      </trkpt>
      <trkpt lat="45.7755" lon="4.70525">
        <ele>319.41071</ele>
        <time>2023-07-10T15:58:24.000Z</time>
      </trkpt>
      <trkpt lat="45.77553" lon="4.70526">
        <ele>319.25168</ele>
        <time>2023-07-10T15:58:25.000Z</time>
      </trkpt>
      <trkpt lat="45.77558" lon="4.70528">
        <ele>319.34579</ele>
        <time>2023-07-10T15:58:26.000Z</time>
      </trkpt>
      <trkpt lat="45.77562" lon="4.70531">
        <ele>319.36462</ele>
        <time>2023-07-10T15:58:27.000Z</time>
      </trkpt>
      <trkpt lat="45.77565" lon="4.70533">
        <ele>319.38568</ele>
        <time>2023-07-10T15:58:28.000Z</time>
      </trkpt>
      <trkpt lat="45.7757" lon="4.70535">
        <ele>319.40753</ele>
        <time>2023-07-10T15:58:29.000Z</time>
      </trkpt>
      <trkpt lat="45.77574" lon="4.70538">
        <ele>319.41803</ele>
        <time>2023-07-10T15:58:30.000Z</time>
      </trkpt>
      <trkpt lat="45.77578" lon="4.7054">
        <ele>319.43387</ele>
        <time>2023-07-10T15:58:31.000Z</time>
      </trkpt>
      <trkpt lat="45.77582" lon="4.70543">
        <ele>319.50729</ele>
        <time>2023-07-10T15:58:32.000Z</time>
      </trkpt>
      <trkpt lat="45.77586" lon="4.70544">
        <ele>319.60419</ele>
        <time>2023-07-10T15:58:33.000Z</time>
      </trkpt>
      <trkpt lat="45.77591" lon="4.70547">
        <ele>319.67615</ele>
        <time>2023-07-10T15:58:34.000Z</time>
      </trkpt>
      <trkpt lat="45.77595" lon="4.70548">
        <ele>319.77652</ele>
        <time>2023-07-10T15:58:35.000Z</time>
      </trkpt>
      <trkpt lat="45.776" lon="4.70551">
        <ele>319.85941</ele>
        <time>2023-07-10T15:58:36.000Z</time>
      </trkpt>
      <trkpt lat="45.77604" lon="4.70553">
        <ele>320.08701</ele>
        <time>2023-07-10T15:58:37.000Z</time>
      </trkpt>
      <trkpt lat="45.77609" lon="4.70555">
        <ele>320.28983</ele>
        <time>2023-07-10T15:58:38.000Z</time>
      </trkpt>
      <trkpt lat="45.77614" lon="4.70557">
        <ele>320.35263</ele>
        <time>2023-07-10T15:58:39.000Z</time>
      </trkpt>
      <trkpt lat="45.77619" lon="4.70559">
        <ele>320.42291</ele>
        <time>2023-07-10T15:58:40.000Z</time>
      </trkpt>
      <trkpt lat="45.77623" lon="4.70561">
        <ele>320.49109</ele>
        <time>2023-07-10T15:58:41.000Z</time>
      </trkpt>
      <trkpt lat="45.77628" lon="4.70563">
        <ele>320.59506</ele>
        <time>2023-07-10T15:58:42.000Z</time>
      </trkpt>
      <trkpt lat="45.77633" lon="4.70566">
        <ele>320.7717</ele>
        <time>2023-07-10T15:58:43.000Z</time>
      </trkpt>
      <trkpt lat="45.77637" lon="4.70568">
        <ele>320.87567</ele>
        <time>2023-07-10T15:58:44.000Z</time>
      </trkpt>
      <trkpt lat="45.77642" lon="4.7057">
        <ele>320.93964</ele>
        <time>2023-07-10T15:58:45.000Z</time>
      </trkpt>
      <trkpt lat="45.77646" lon="4.70572">
        <ele>320.97781</ele>
        <time>2023-07-10T15:58:46.000Z</time>
      </trkpt>
      <trkpt lat="45.77651" lon="4.70574">
        <ele>321.05725</ele>
        <time>2023-07-10T15:58:47.000Z</time>
      </trkpt>
      <trkpt lat="45.77656" lon="4.70576">
        <ele>321.15567</ele>
        <time>2023-07-10T15:58:48.000Z</time>
      </trkpt>
      <trkpt lat="45.7766" lon="4.70578">
        <ele>321.25583</ele>
        <time>2023-07-10T15:58:49.000Z</time>
      </trkpt>
      <trkpt lat="45.77665" lon="4.7058">
        <ele>321.3363</ele>
        <time>2023-07-10T15:58:50.000Z</time>
      </trkpt>
      <trkpt lat="45.77669" lon="4.70583">
        <ele>321.41107</ele>
        <time>2023-07-10T15:58:51.000Z</time>
      </trkpt>
      <trkpt lat="45.77673" lon="4.70585">
        <ele>321.42758</ele>
        <time>2023-07-10T15:58:52.000Z</time>
      </trkpt>
      <trkpt lat="45.77677" lon="4.70587">
        <ele>321.43915</ele>
        <time>2023-07-10T15:58:53.000Z</time>
      </trkpt>
      <trkpt lat="45.77681" lon="4.70589">
        <ele>321.46027</ele>
        <time>2023-07-10T15:58:54.000Z</time>
      </trkpt>
      <trkpt lat="45.77685" lon="4.70593">
        <ele>321.46112</ele>
        <time>2023-07-10T15:58:55.000Z</time>
      </trkpt>
      <trkpt lat="45.7769" lon="4.70595">
        <ele>321.48453</ele>
        <time>2023-07-10T15:58:56.000Z</time>
      </trkpt>
      <trkpt lat="45.77694" lon="4.70598">
        <ele>321.37317</ele>
        <time>2023-07-10T15:58:57.000Z</time>
      </trkpt>
      <trkpt lat="45.77698" lon="4.706">
        <ele>321.17615</ele>
        <time>2023-07-10T15:58:58.000Z</time>
      </trkpt>
      <trkpt lat="45.77702" lon="4.70602">
        <ele>321.41025</ele>
        <time>2023-07-10T15:58:59.000Z</time>
      </trkpt>
      <trkpt lat="45.77706" lon="4.70604">
        <ele>321.58649</ele>
        <time>2023-07-10T15:59:00.000Z</time>
      </trkpt>
      <trkpt lat="45.77709" lon="4.70606">
        <ele>321.75357</ele>
        <time>2023-07-10T15:59:01.000Z</time>
      </trkpt>
      <trkpt lat="45.77712" lon="4.70608">
        <ele>321.88922</ele>
        <time>2023-07-10T15:59:02.000Z</time>
      </trkpt>
      <trkpt lat="45.77716" lon="4.70609">
        <ele>322.01987</ele>
        <time>2023-07-10T15:59:03.000Z</time>
      </trkpt>
      <trkpt lat="45.77719" lon="4.70612">
        <ele>322.21198</ele>
        <time>2023-07-10T15:59:04.000Z</time>
      </trkpt>
      <trkpt lat="45.77723" lon="4.70613">
        <ele>322.46564</ele>
        <time>2023-07-10T15:59:05.000Z</time>
      </trkpt>
      <trkpt lat="45.77726" lon="4.70616">
        <ele>322.50201</ele>
        <time>2023-07-10T15:59:06.000Z</time>
      </trkpt>
      <trkpt lat="45.77731" lon="4.70617">
        <ele>322.56445</ele>
        <time>2023-07-10T15:59:07.000Z</time>
      </trkpt>
      <trkpt lat="45.77736" lon="4.70618">
        <ele>322.58612</ele>
        <time>2023-07-10T15:59:08.000Z</time>
      </trkpt>
      <trkpt lat="45.77741" lon="4.70619">
        <ele>322.6535</ele>
        <time>2023-07-10T15:59:09.000Z</time>
      </trkpt>
      <trkpt lat="45.77746" lon="4.7062">
        <ele>322.71066</ele>
        <time>2023-07-10T15:59:10.000Z</time>
      </trkpt>
      <trkpt lat="45.7775" lon="4.7062">
        <ele>322.76434</ele>
        <time>2023-07-10T15:59:11.000Z</time>
      </trkpt>
      <trkpt lat="45.77755" lon="4.70621">
        <ele>322.82266</ele>
        <time>2023-07-10T15:59:12.000Z</time>
      </trkpt>
      <trkpt lat="45.77759" lon="4.7062">
        <ele>322.89355</ele>
        <time>2023-07-10T15:59:13.000Z</time>
      </trkpt>
      <trkpt lat="45.77763" lon="4.70618">
        <ele>322.97293</ele>
        <time>2023-07-10T15:59:14.000Z</time>
      </trkpt>
      <trkpt lat="45.77768" lon="4.70618">
        <ele>323.38373</ele>
        <time>2023-07-10T15:59:15.000Z</time>
      </trkpt>
      <trkpt lat="45.77772" lon="4.70618">
        <ele>323.86618</ele>
        <time>2023-07-10T15:59:16.000Z</time>
      </trkpt>
      <trkpt lat="45.77777" lon="4.70617">
        <ele>323.90906</ele>
        <time>2023-07-10T15:59:17.000Z</time>
      </trkpt>
      <trkpt lat="45.77781" lon="4.70616">
        <ele>324.20645</ele>
        <time>2023-07-10T15:59:18.000Z</time>
      </trkpt>
      <trkpt lat="45.77786" lon="4.70614">
        <ele>324.19769</ele>
        <time>2023-07-10T15:59:19.000Z</time>
      </trkpt>
      <trkpt lat="45.77791" lon="4.70613">
        <ele>324.24747</ele>
        <time>2023-07-10T15:59:20.000Z</time>
      </trkpt>
      <trkpt lat="45.77796" lon="4.70611">
        <ele>324.16357</ele>
        <time>2023-07-10T15:59:21.000Z</time>
      </trkpt>
      <trkpt lat="45.77801" lon="4.70609">
        <ele>323.99286</ele>
        <time>2023-07-10T15:59:22.000Z</time>
      </trkpt>
      <trkpt lat="45.77806" lon="4.70607">
        <ele>323.8125</ele>
        <time>2023-07-10T15:59:23.000Z</time>
      </trkpt>
      <trkpt lat="45.7781" lon="4.70605">
        <ele>323.95114</ele>
        <time>2023-07-10T15:59:24.000Z</time>
      </trkpt>
      <trkpt lat="45.77815" lon="4.70603">
        <ele>324.01566</ele>
        <time>2023-07-10T15:59:25.000Z</time>
      </trkpt>
      <trkpt lat="45.7782" lon="4.70601">
        <ele>324.04852</ele>
        <time>2023-07-10T15:59:26.000Z</time>
      </trkpt>
      <trkpt lat="45.77826" lon="4.70599">
        <ele>324.05865</ele>
        <time>2023-07-10T15:59:27.000Z</time>
      </trkpt>
      <trkpt lat="45.77831" lon="4.70598">
        <ele>324.08429</ele>
        <time>2023-07-10T15:59:28.000Z</time>
      </trkpt>
      <trkpt lat="45.77836" lon="4.70596">
        <ele>324.06311</ele>
        <time>2023-07-10T15:59:29.000Z</time>
      </trkpt>
      <trkpt lat="45.77841" lon="4.70594">
        <ele>324.0629</ele>
        <time>2023-07-10T15:59:30.000Z</time>
      </trkpt>
      <trkpt lat="45.77846" lon="4.70592">
        <ele>324.08893</ele>
        <time>2023-07-10T15:59:31.000Z</time>
      </trkpt>
      <trkpt lat="45.77851" lon="4.70591">
        <ele>324.09268</ele>
        <time>2023-07-10T15:59:32.000Z</time>
      </trkpt>
      <trkpt lat="45.77856" lon="4.70589">
        <ele>324.06714</ele>
        <time>2023-07-10T15:59:33.000Z</time>
      </trkpt>
      <trkpt lat="45.77861" lon="4.70587">
        <ele>324.02716</ele>
        <time>2023-07-10T15:59:34.000Z</time>
      </trkpt>
      <trkpt lat="45.77865" lon="4.70585">
        <ele>323.65689</ele>
        <time>2023-07-10T15:59:35.000Z</time>
      </trkpt>
      <trkpt lat="45.77871" lon="4.70582">
        <ele>323.20068</ele>
        <time>2023-07-10T15:59:36.000Z</time>
      </trkpt>
      <trkpt lat="45.77875" lon="4.70582">
        <ele>323.30841</ele>
        <time>2023-07-10T15:59:37.000Z</time>
      </trkpt>
      <trkpt lat="45.7788" lon="4.70581">
        <ele>323.27716</ele>
        <time>2023-07-10T15:59:38.000Z</time>
      </trkpt>
      <trkpt lat="45.77884" lon="4.7058">
        <ele>323.27301</ele>
        <time>2023-07-10T15:59:39.000Z</time>
      </trkpt>
      <trkpt lat="45.77888" lon="4.70577">
        <ele>323.25168</ele>
        <time>2023-07-10T15:59:40.000Z</time>
      </trkpt>
      <trkpt lat="45.77892" lon="4.70576">
        <ele>323.35907</ele>
        <time>2023-07-10T15:59:41.000Z</time>
      </trkpt>
      <trkpt lat="45.77896" lon="4.70575">
        <ele>323.54404</ele>
        <time>2023-07-10T15:59:42.000Z</time>
      </trkpt>
      <trkpt lat="45.77901" lon="4.70574">
        <ele>324.12167</ele>
        <time>2023-07-10T15:59:43.000Z</time>
      </trkpt>
      <trkpt lat="45.77905" lon="4.70572">
        <ele>324.38608</ele>
        <time>2023-07-10T15:59:44.000Z</time>
      </trkpt>
      <trkpt lat="45.77908" lon="4.70571">
        <ele>324.72458</ele>
        <time>2023-07-10T15:59:45.000Z</time>
      </trkpt>
      <trkpt lat="45.77911" lon="4.7057">
        <ele>325.02805</ele>
        <time>2023-07-10T15:59:46.000Z</time>
      </trkpt>
      <trkpt lat="45.77914" lon="4.70571">
        <ele>325.33994</ele>
        <time>2023-07-10T15:59:47.000Z</time>
      </trkpt>
      <trkpt lat="45.77918" lon="4.70571">
        <ele>325.6507</ele>
        <time>2023-07-10T15:59:48.000Z</time>
      </trkpt>
      <trkpt lat="45.77921" lon="4.70569">
        <ele>325.95221</ele>
        <time>2023-07-10T15:59:49.000Z</time>
      </trkpt>
      <trkpt lat="45.77925" lon="4.70566">
        <ele>326.25085</ele>
        <time>2023-07-10T15:59:50.000Z</time>
      </trkpt>
      <trkpt lat="45.77929" lon="4.70563">
        <ele>326.49496</ele>
        <time>2023-07-10T15:59:51.000Z</time>
      </trkpt>
      <trkpt lat="45.77933" lon="4.70564">
        <ele>326.75531</ele>
        <time>2023-07-10T15:59:52.000Z</time>
      </trkpt>
      <trkpt lat="45.77938" lon="4.70564">
        <ele>327.03741</ele>
        <time>2023-07-10T15:59:53.000Z</time>
      </trkpt>
      <trkpt lat="45.77943" lon="4.70564">
        <ele>327.33737</ele>
        <time>2023-07-10T15:59:54.000Z</time>
      </trkpt>
      <trkpt lat="45.77947" lon="4.70566">
        <ele>327.62405</ele>
        <time>2023-07-10T15:59:55.000Z</time>
      </trkpt>
      <trkpt lat="45.77951" lon="4.70567">
        <ele>327.91217</ele>
        <time>2023-07-10T15:59:56.000Z</time>
      </trkpt>
      <trkpt lat="45.77956" lon="4.70569">
        <ele>328.1965</ele>
        <time>2023-07-10T15:59:57.000Z</time>
      </trkpt>
      <trkpt lat="45.77961" lon="4.70572">
        <ele>328.44104</ele>
        <time>2023-07-10T15:59:58.000Z</time>
      </trkpt>
      <trkpt lat="45.77966" lon="4.70574">
        <ele>328.69281</ele>
        <time>2023-07-10T15:59:59.000Z</time>
      </trkpt>
      <trkpt lat="45.77971" lon="4.70577">
        <ele>328.95166</ele>
        <time>2023-07-10T16:00:00.000Z</time>
      </trkpt>
      <trkpt lat="45.77976" lon="4.7058">
        <ele>329.22098</ele>
        <time>2023-07-10T16:00:01.000Z</time>
      </trkpt>
      <trkpt lat="45.77982" lon="4.70582">
        <ele>329.49973</ele>
        <time>2023-07-10T16:00:02.000Z</time>
      </trkpt>
      <trkpt lat="45.77987" lon="4.70584">
        <ele>329.40817</ele>
        <time>2023-07-10T16:00:03.000Z</time>
      </trkpt>
      <trkpt lat="45.77993" lon="4.70586">
        <ele>328.91211</ele>
        <time>2023-07-10T16:00:04.000Z</time>
      </trkpt>
      <trkpt lat="45.77998" lon="4.70588">
        <ele>328.41266</ele>
        <time>2023-07-10T16:00:05.000Z</time>
      </trkpt>
      <trkpt lat="45.78004" lon="4.7059">
        <ele>327.93939</ele>
        <time>2023-07-10T16:00:06.000Z</time>
      </trkpt>
      <trkpt lat="45.7801" lon="4.70593">
        <ele>327.47443</ele>
        <time>2023-07-10T16:00:07.000Z</time>
      </trkpt>
      <trkpt lat="45.78015" lon="4.70594">
        <ele>327.00864</ele>
        <time>2023-07-10T16:00:08.000Z</time>
      </trkpt>
      <trkpt lat="45.7802" lon="4.70595">
        <ele>326.31598</ele>
        <time>2023-07-10T16:00:09.000Z</time>
      </trkpt>
      <trkpt lat="45.78026" lon="4.70597">
        <ele>326.34222</ele>
        <time>2023-07-10T16:00:10.000Z</time>
      </trkpt>
      <trkpt lat="45.78032" lon="4.70597">
        <ele>326.42511</ele>
        <time>2023-07-10T16:00:11.000Z</time>
      </trkpt>
      <trkpt lat="45.78037" lon="4.70598">
        <ele>326.53159</ele>
        <time>2023-07-10T16:00:12.000Z</time>
      </trkpt>
      <trkpt lat="45.78043" lon="4.70598">
        <ele>326.66547</ele>
        <time>2023-07-10T16:00:13.000Z</time>
      </trkpt>
      <trkpt lat="45.78049" lon="4.70598">
        <ele>326.7366</ele>
        <time>2023-07-10T16:00:14.000Z</time>
      </trkpt>
      <trkpt lat="45.78055" lon="4.70596">
        <ele>326.86542</ele>
        <time>2023-07-10T16:00:15.000Z</time>
      </trkpt>
      <trkpt lat="45.78062" lon="4.70594">
        <ele>327.00333</ele>
        <time>2023-07-10T16:00:16.000Z</time>
      </trkpt>
      <trkpt lat="45.78067" lon="4.70594">
        <ele>327.09708</ele>
        <time>2023-07-10T16:00:17.000Z</time>
      </trkpt>
      <trkpt lat="45.78073" lon="4.70591">
        <ele>327.15033</ele>
        <time>2023-07-10T16:00:18.000Z</time>
      </trkpt>
      <trkpt lat="45.78078" lon="4.70589">
        <ele>327.16202</ele>
        <time>2023-07-10T16:00:19.000Z</time>
      </trkpt>
      <trkpt lat="45.78084" lon="4.70584">
        <ele>327.14215</ele>
        <time>2023-07-10T16:00:20.000Z</time>
      </trkpt>
      <trkpt lat="45.78089" lon="4.70579">
        <ele>326.49286</ele>
        <time>2023-07-10T16:00:21.000Z</time>
      </trkpt>
      <trkpt lat="45.78096" lon="4.70578">
        <ele>326.42865</ele>
        <time>2023-07-10T16:00:22.000Z</time>
      </trkpt>
      <trkpt lat="45.78103" lon="4.70576">
        <ele>326.34836</ele>
        <time>2023-07-10T16:00:23.000Z</time>
      </trkpt>
      <trkpt lat="45.78108" lon="4.70573">
        <ele>326.68942</ele>
        <time>2023-07-10T16:00:24.000Z</time>
      </trkpt>
      <trkpt lat="45.78115" lon="4.70571">
        <ele>326.99814</ele>
        <time>2023-07-10T16:00:25.000Z</time>
      </trkpt>
      <trkpt lat="45.78122" lon="4.70571">
        <ele>327.28131</ele>
        <time>2023-07-10T16:00:26.000Z</time>
      </trkpt>
      <trkpt lat="45.78129" lon="4.7057">
        <ele>327.52661</ele>
        <time>2023-07-10T16:00:27.000Z</time>
      </trkpt>
      <trkpt lat="45.78136" lon="4.70568">
        <ele>327.77374</ele>
        <time>2023-07-10T16:00:28.000Z</time>
      </trkpt>
      <trkpt lat="45.78143" lon="4.70567">
        <ele>328.25397</ele>
        <time>2023-07-10T16:00:29.000Z</time>
      </trkpt>
      <trkpt lat="45.78151" lon="4.70566">
        <ele>328.00232</ele>
        <time>2023-07-10T16:00:30.000Z</time>
      </trkpt>
      <trkpt lat="45.78158" lon="4.70567">
        <ele>327.63727</ele>
        <time>2023-07-10T16:00:31.000Z</time>
      </trkpt>
      <trkpt lat="45.78164" lon="4.70569">
        <ele>327.23196</ele>
        <time>2023-07-10T16:00:32.000Z</time>
      </trkpt>
      <trkpt lat="45.7817" lon="4.70572">
        <ele>326.80377</ele>
        <time>2023-07-10T16:00:33.000Z</time>
      </trkpt>
      <trkpt lat="45.78176" lon="4.70574">
        <ele>326.4631</ele>
        <time>2023-07-10T16:00:34.000Z</time>
      </trkpt>
      <trkpt lat="45.78183" lon="4.70574">
        <ele>326.02338</ele>
        <time>2023-07-10T16:00:35.000Z</time>
      </trkpt>
      <trkpt lat="45.78189" lon="4.70573">
        <ele>325.55927</ele>
        <time>2023-07-10T16:00:36.000Z</time>
      </trkpt>
      <trkpt lat="45.78196" lon="4.70572">
        <ele>325.1546</ele>
        <time>2023-07-10T16:00:37.000Z</time>
      </trkpt>
      <trkpt lat="45.78201" lon="4.70574">
        <ele>324.80322</ele>
        <time>2023-07-10T16:00:38.000Z</time>
      </trkpt>
      <trkpt lat="45.78206" lon="4.70574">
        <ele>324.47144</ele>
        <time>2023-07-10T16:00:39.000Z</time>
      </trkpt>
      <trkpt lat="45.7821" lon="4.70574">
        <ele>324.19611</ele>
        <time>2023-07-10T16:00:40.000Z</time>
      </trkpt>
      <trkpt lat="45.78212" lon="4.70573">
        <ele>324.55435</ele>
        <time>2023-07-10T16:00:42.000Z</time>
      </trkpt>
      <trkpt lat="45.78215" lon="4.70572">
        <ele>324.38101</ele>
        <time>2023-07-10T16:01:16.000Z</time>
      </trkpt>
      <trkpt lat="45.78217" lon="4.70571">
        <ele>324.21564</ele>
        <time>2023-07-10T16:01:17.000Z</time>
      </trkpt>
      <trkpt lat="45.7822" lon="4.7057">
        <ele>324.07224</ele>
        <time>2023-07-10T16:01:18.000Z</time>
      </trkpt>
      <trkpt lat="45.78224" lon="4.7057">
        <ele>323.95184</ele>
        <time>2023-07-10T16:01:19.000Z</time>
      </trkpt>
      <trkpt lat="45.78227" lon="4.7057">
        <ele>323.89548</ele>
        <time>2023-07-10T16:01:20.000Z</time>
      </trkpt>
      <trkpt lat="45.7823" lon="4.70568">
        <ele>323.83722</ele>
        <time>2023-07-10T16:01:21.000Z</time>
      </trkpt>
      <trkpt lat="45.78234" lon="4.70567">
        <ele>323.78268</ele>
        <time>2023-07-10T16:01:22.000Z</time>
      </trkpt>
      <trkpt lat="45.78238" lon="4.70566">
        <ele>323.73312</ele>
        <time>2023-07-10T16:01:23.000Z</time>
      </trkpt>
      <trkpt lat="45.78241" lon="4.70564">
        <ele>323.69403</ele>
        <time>2023-07-10T16:01:24.000Z</time>
      </trkpt>
      <trkpt lat="45.78245" lon="4.70562">
        <ele>323.74936</ele>
        <time>2023-07-10T16:01:25.000Z</time>
      </trkpt>
      <trkpt lat="45.78248" lon="4.7056">
        <ele>323.8313</ele>
        <time>2023-07-10T16:01:26.000Z</time>
      </trkpt>
      <trkpt lat="45.78251" lon="4.70554">
        <ele>323.90387</ele>
        <time>2023-07-10T16:01:27.000Z</time>
      </trkpt>
      <trkpt lat="45.78255" lon="4.70551">
        <ele>323.95084</ele>
        <time>2023-07-10T16:01:28.000Z</time>
      </trkpt>
      <trkpt lat="45.78259" lon="4.70547">
        <ele>324.0683</ele>
        <time>2023-07-10T16:01:29.000Z</time>
      </trkpt>
      <trkpt lat="45.78263" lon="4.70544">
        <ele>324.21835</ele>
        <time>2023-07-10T16:01:30.000Z</time>
      </trkpt>
      <trkpt lat="45.78267" lon="4.7054">
        <ele>324.26141</ele>
        <time>2023-07-10T16:01:31.000Z</time>
      </trkpt>
      <trkpt lat="45.78271" lon="4.70538">
        <ele>324.30853</ele>
        <time>2023-07-10T16:01:32.000Z</time>
      </trkpt>
      <trkpt lat="45.78275" lon="4.70535">
        <ele>324.37823</ele>
        <time>2023-07-10T16:01:33.000Z</time>
      </trkpt>
      <trkpt lat="45.78279" lon="4.70533">
        <ele>324.4288</ele>
        <time>2023-07-10T16:01:34.000Z</time>
      </trkpt>
      <trkpt lat="45.78283" lon="4.70531">
        <ele>324.49426</ele>
        <time>2023-07-10T16:01:35.000Z</time>
      </trkpt>
      <trkpt lat="45.78287" lon="4.70529">
        <ele>324.51001</ele>
        <time>2023-07-10T16:01:36.000Z</time>
      </trkpt>
      <trkpt lat="45.78291" lon="4.70526">
        <ele>324.50812</ele>
        <time>2023-07-10T16:01:37.000Z</time>
      </trkpt>
      <trkpt lat="45.78296" lon="4.70525">
        <ele>324.46518</ele>
        <time>2023-07-10T16:01:38.000Z</time>
      </trkpt>
      <trkpt lat="45.783" lon="4.70523">
        <ele>324.4241</ele>
        <time>2023-07-10T16:01:39.000Z</time>
      </trkpt>
      <trkpt lat="45.78304" lon="4.70521">
        <ele>324.34418</ele>
        <time>2023-07-10T16:01:40.000Z</time>
      </trkpt>
      <trkpt lat="45.78308" lon="4.70519">
        <ele>324.31802</ele>
        <time>2023-07-10T16:01:41.000Z</time>
      </trkpt>
      <trkpt lat="45.78312" lon="4.70517">
        <ele>324.28937</ele>
        <time>2023-07-10T16:01:42.000Z</time>
      </trkpt>
      <trkpt lat="45.78316" lon="4.70516">
        <ele>324.26355</ele>
        <time>2023-07-10T16:01:43.000Z</time>
      </trkpt>
      <trkpt lat="45.7832" lon="4.70514">
        <ele>324.24173</ele>
        <time>2023-07-10T16:01:44.000Z</time>
      </trkpt>
      <trkpt lat="45.78324" lon="4.70512">
        <ele>324.23352</ele>
        <time>2023-07-10T16:01:45.000Z</time>
      </trkpt>
      <trkpt lat="45.78329" lon="4.70511">
        <ele>324.21753</ele>
        <time>2023-07-10T16:01:46.000Z</time>
      </trkpt>
      <trkpt lat="45.78334" lon="4.70509">
        <ele>324.17694</ele>
        <time>2023-07-10T16:01:47.000Z</time>
      </trkpt>
      <trkpt lat="45.78338" lon="4.70507">
        <ele>324.11798</ele>
        <time>2023-07-10T16:01:48.000Z</time>
      </trkpt>
      <trkpt lat="45.78343" lon="4.70507">
        <ele>324.04266</ele>
        <time>2023-07-10T16:01:49.000Z</time>
      </trkpt>
      <trkpt lat="45.78348" lon="4.70508">
        <ele>323.92725</ele>
        <time>2023-07-10T16:01:50.000Z</time>
      </trkpt>
      <trkpt lat="45.78353" lon="4.70509">
        <ele>323.89874</ele>
        <time>2023-07-10T16:01:51.000Z</time>
      </trkpt>
      <trkpt lat="45.78358" lon="4.7051">
        <ele>323.93268</ele>
        <time>2023-07-10T16:01:52.000Z</time>
      </trkpt>
      <trkpt lat="45.78364" lon="4.70512">
        <ele>323.38953</ele>
        <time>2023-07-10T16:01:53.000Z</time>
      </trkpt>
      <trkpt lat="45.78369" lon="4.70516">
        <ele>323.30145</ele>
        <time>2023-07-10T16:01:54.000Z</time>
      </trkpt>
      <trkpt lat="45.78374" lon="4.70519">
        <ele>323.19916</ele>
        <time>2023-07-10T16:01:55.000Z</time>
      </trkpt>
      <trkpt lat="45.7838" lon="4.70524">
        <ele>323.10037</ele>
        <time>2023-07-10T16:01:56.000Z</time>
      </trkpt>
      <trkpt lat="45.78385" lon="4.70527">
        <ele>323.0141</ele>
        <time>2023-07-10T16:01:57.000Z</time>
      </trkpt>
      <trkpt lat="45.78391" lon="4.70533">
        <ele>322.9201</ele>
        <time>2023-07-10T16:01:58.000Z</time>
      </trkpt>
      <trkpt lat="45.78395" lon="4.70536">
        <ele>322.81387</ele>
        <time>2023-07-10T16:01:59.000Z</time>
      </trkpt>
      <trkpt lat="45.784" lon="4.70537">
        <ele>322.70755</ele>
        <time>2023-07-10T16:02:00.000Z</time>
      </trkpt>
      <trkpt lat="45.78404" lon="4.70539">
        <ele>322.60153</ele>
        <time>2023-07-10T16:02:01.000Z</time>
      </trkpt>
      <trkpt lat="45.78407" lon="4.70543">
        <ele>322.48224</ele>
        <time>2023-07-10T16:02:02.000Z</time>
      </trkpt>
      <trkpt lat="45.78411" lon="4.70547">
        <ele>322.3522</ele>
        <time>2023-07-10T16:02:03.000Z</time>
      </trkpt>
      <trkpt lat="45.78415" lon="4.70551">
        <ele>322.22702</ele>
        <time>2023-07-10T16:02:04.000Z</time>
      </trkpt>
      <trkpt lat="45.78419" lon="4.70555">
        <ele>322.08575</ele>
        <time>2023-07-10T16:02:05.000Z</time>
      </trkpt>
      <trkpt lat="45.78424" lon="4.70561">
        <ele>321.92587</ele>
        <time>2023-07-10T16:02:06.000Z</time>
      </trkpt>
      <trkpt lat="45.78428" lon="4.70566">
        <ele>321.76486</ele>
        <time>2023-07-10T16:02:07.000Z</time>
      </trkpt>
      <trkpt lat="45.78433" lon="4.70573">
        <ele>321.59448</ele>
        <time>2023-07-10T16:02:08.000Z</time>
      </trkpt>
      <trkpt lat="45.78437" lon="4.70579">
        <ele>321.40631</ele>
        <time>2023-07-10T16:02:09.000Z</time>
      </trkpt>
      <trkpt lat="45.78442" lon="4.70585">
        <ele>321.23819</ele>
        <time>2023-07-10T16:02:10.000Z</time>
      </trkpt>
      <trkpt lat="45.78447" lon="4.70591">
        <ele>321.07556</ele>
        <time>2023-07-10T16:02:11.000Z</time>
      </trkpt>
      <trkpt lat="45.78453" lon="4.70597">
        <ele>320.84064</ele>
        <time>2023-07-10T16:02:12.000Z</time>
      </trkpt>
      <trkpt lat="45.78458" lon="4.70603">
        <ele>321.13324</ele>
        <time>2023-07-10T16:02:13.000Z</time>
      </trkpt>
      <trkpt lat="45.78463" lon="4.7061">
        <ele>320.95737</ele>
        <time>2023-07-10T16:02:14.000Z</time>
      </trkpt>
      <trkpt lat="45.78469" lon="4.70617">
        <ele>320.75644</ele>
        <time>2023-07-10T16:02:15.000Z</time>
      </trkpt>
      <trkpt lat="45.78474" lon="4.70624">
        <ele>320.04861</ele>
        <time>2023-07-10T16:02:16.000Z</time>
      </trkpt>
      <trkpt lat="45.78481" lon="4.70629">
        <ele>319.32419</ele>
        <time>2023-07-10T16:02:17.000Z</time>
      </trkpt>
      <trkpt lat="45.78487" lon="4.70635">
        <ele>318.60626</ele>
        <time>2023-07-10T16:02:18.000Z</time>
      </trkpt>
      <trkpt lat="45.78494" lon="4.7064">
        <ele>317.88617</ele>
        <time>2023-07-10T16:02:19.000Z</time>
      </trkpt>
      <trkpt lat="45.78501" lon="4.70644">
        <ele>317.17178</ele>
        <time>2023-07-10T16:02:20.000Z</time>
      </trkpt>
      <trkpt lat="45.78507" lon="4.70648">
        <ele>316.45059</ele>
        <time>2023-07-10T16:02:21.000Z</time>
      </trkpt>
      <trkpt lat="45.78514" lon="4.70652">
        <ele>315.72668</ele>
        <time>2023-07-10T16:02:22.000Z</time>
      </trkpt>
      <trkpt lat="45.78521" lon="4.70655">
        <ele>315.0144</ele>
        <time>2023-07-10T16:02:23.000Z</time>
      </trkpt>
      <trkpt lat="45.78529" lon="4.70658">
        <ele>314.30408</ele>
        <time>2023-07-10T16:02:24.000Z</time>
      </trkpt>
      <trkpt lat="45.78536" lon="4.7066">
        <ele>313.57614</ele>
        <time>2023-07-10T16:02:25.000Z</time>
      </trkpt>
      <trkpt lat="45.78543" lon="4.70662">
        <ele>312.79797</ele>
        <time>2023-07-10T16:02:26.000Z</time>
      </trkpt>
      <trkpt lat="45.7855" lon="4.70666">
        <ele>311.97363</ele>
        <time>2023-07-10T16:02:27.000Z</time>
      </trkpt>
      <trkpt lat="45.78556" lon="4.70671">
        <ele>311.1748</ele>
        <time>2023-07-10T16:02:28.000Z</time>
      </trkpt>
      <trkpt lat="45.78561" lon="4.70675">
        <ele>310.52628</ele>
        <time>2023-07-10T16:02:29.000Z</time>
      </trkpt>
      <trkpt lat="45.78566" lon="4.70675">
        <ele>309.82526</ele>
        <time>2023-07-10T16:02:30.000Z</time>
      </trkpt>
      <trkpt lat="45.78571" lon="4.70673">
        <ele>309.10733</ele>
        <time>2023-07-10T16:02:31.000Z</time>
      </trkpt>
      <trkpt lat="45.78577" lon="4.70673">
        <ele>308.39819</ele>
        <time>2023-07-10T16:02:32.000Z</time>
      </trkpt>
      <trkpt lat="45.78582" lon="4.70675">
        <ele>307.72232</ele>
        <time>2023-07-10T16:02:33.000Z</time>
      </trkpt>
      <trkpt lat="45.78588" lon="4.70675">
        <ele>307.04742</ele>
        <time>2023-07-10T16:02:34.000Z</time>
      </trkpt>
      <trkpt lat="45.78593" lon="4.70676">
        <ele>306.37436</ele>
        <time>2023-07-10T16:02:35.000Z</time>
      </trkpt>
      <trkpt lat="45.78599" lon="4.70678">
        <ele>306.20129</ele>
        <time>2023-07-10T16:02:36.000Z</time>
      </trkpt>
      <trkpt lat="45.78605" lon="4.70678">
        <ele>306.03107</ele>
        <time>2023-07-10T16:02:37.000Z</time>
      </trkpt>
      <trkpt lat="45.78611" lon="4.7068">
        <ele>305.88168</ele>
        <time>2023-07-10T16:02:38.000Z</time>
      </trkpt>
      <trkpt lat="45.78617" lon="4.70681">
        <ele>305.73053</ele>
        <time>2023-07-10T16:02:39.000Z</time>
      </trkpt>
      <trkpt lat="45.78623" lon="4.70682">
        <ele>305.57376</ele>
        <time>2023-07-10T16:02:40.000Z</time>
      </trkpt>
      <trkpt lat="45.78629" lon="4.70683">
        <ele>305.38892</ele>
        <time>2023-07-10T16:02:41.000Z</time>
      </trkpt>
      <trkpt lat="45.78635" lon="4.70684">
        <ele>305.20645</ele>
        <time>2023-07-10T16:02:42.000Z</time>
      </trkpt>
      <trkpt lat="45.78642" lon="4.70684">
        <ele>305.02573</ele>
        <time>2023-07-10T16:02:43.000Z</time>
      </trkpt>
      <trkpt lat="45.78647" lon="4.70685">
        <ele>304.83127</ele>
        <time>2023-07-10T16:02:44.000Z</time>
      </trkpt>
      <trkpt lat="45.78653" lon="4.70687">
        <ele>304.64294</ele>
        <time>2023-07-10T16:02:45.000Z</time>
      </trkpt>
      <trkpt lat="45.78658" lon="4.70687">
        <ele>304.52332</ele>
        <time>2023-07-10T16:02:46.000Z</time>
      </trkpt>
      <trkpt lat="45.78664" lon="4.70688">
        <ele>304.45447</ele>
        <time>2023-07-10T16:02:47.000Z</time>
      </trkpt>
      <trkpt lat="45.7867" lon="4.7069">
        <ele>304.37769</ele>
        <time>2023-07-10T16:02:48.000Z</time>
      </trkpt>
      <trkpt lat="45.78677" lon="4.70691">
        <ele>304.1561</ele>
        <time>2023-07-10T16:02:49.000Z</time>
      </trkpt>
      <trkpt lat="45.78683" lon="4.70692">
        <ele>303.97372</ele>
        <time>2023-07-10T16:02:50.000Z</time>
      </trkpt>
      <trkpt lat="45.78689" lon="4.70692">
        <ele>303.80182</ele>
        <time>2023-07-10T16:02:51.000Z</time>
      </trkpt>
      <trkpt lat="45.78695" lon="4.70694">
        <ele>303.6152</ele>
        <time>2023-07-10T16:02:52.000Z</time>
      </trkpt>
      <trkpt lat="45.78702" lon="4.70695">
        <ele>303.41019</ele>
        <time>2023-07-10T16:02:53.000Z</time>
      </trkpt>
      <trkpt lat="45.78708" lon="4.70697">
        <ele>303.20197</ele>
        <time>2023-07-10T16:02:54.000Z</time>
      </trkpt>
      <trkpt lat="45.78715" lon="4.70698">
        <ele>303.01859</ele>
        <time>2023-07-10T16:02:55.000Z</time>
      </trkpt>
      <trkpt lat="45.78721" lon="4.70698">
        <ele>302.84552</ele>
        <time>2023-07-10T16:02:56.000Z</time>
      </trkpt>
      <trkpt lat="45.78727" lon="4.70699">
        <ele>302.68353</ele>
        <time>2023-07-10T16:02:57.000Z</time>
      </trkpt>
      <trkpt lat="45.78733" lon="4.707">
        <ele>302.48172</ele>
        <time>2023-07-10T16:02:58.000Z</time>
      </trkpt>
      <trkpt lat="45.7874" lon="4.70701">
        <ele>302.25174</ele>
        <time>2023-07-10T16:02:59.000Z</time>
      </trkpt>
      <trkpt lat="45.78746" lon="4.70701">
        <ele>301.99252</ele>
        <time>2023-07-10T16:03:00.000Z</time>
      </trkpt>
      <trkpt lat="45.78752" lon="4.70703">
        <ele>301.74957</ele>
        <time>2023-07-10T16:03:01.000Z</time>
      </trkpt>
      <trkpt lat="45.78758" lon="4.70703">
        <ele>301.56723</ele>
        <time>2023-07-10T16:03:02.000Z</time>
      </trkpt>
      <trkpt lat="45.78763" lon="4.70704">
        <ele>301.37006</ele>
        <time>2023-07-10T16:03:03.000Z</time>
      </trkpt>
      <trkpt lat="45.78766" lon="4.70706">
        <ele>301.19635</ele>
        <time>2023-07-10T16:03:04.000Z</time>
      </trkpt>
      <trkpt lat="45.7877" lon="4.70709">
        <ele>301.01419</ele>
        <time>2023-07-10T16:03:05.000Z</time>
      </trkpt>
      <trkpt lat="45.78774" lon="4.70712">
        <ele>300.95941</ele>
        <time>2023-07-10T16:03:06.000Z</time>
      </trkpt>
      <trkpt lat="45.78778" lon="4.70713">
        <ele>300.93997</ele>
        <time>2023-07-10T16:03:07.000Z</time>
      </trkpt>
      <trkpt lat="45.78783" lon="4.70712">
        <ele>300.93097</ele>
        <time>2023-07-10T16:03:08.000Z</time>
      </trkpt>
      <trkpt lat="45.78788" lon="4.70709">
        <ele>300.9295</ele>
        <time>2023-07-10T16:03:09.000Z</time>
      </trkpt>
      <trkpt lat="45.78793" lon="4.70709">
        <ele>300.95209</ele>
        <time>2023-07-10T16:03:10.000Z</time>
      </trkpt>
      <trkpt lat="45.78796" lon="4.70709">
        <ele>300.94543</ele>
        <time>2023-07-10T16:03:11.000Z</time>
      </trkpt>
      <trkpt lat="45.78801" lon="4.70709">
        <ele>300.97485</ele>
        <time>2023-07-10T16:03:12.000Z</time>
      </trkpt>
      <trkpt lat="45.78806" lon="4.70709">
        <ele>301.01727</ele>
        <time>2023-07-10T16:03:13.000Z</time>
      </trkpt>
      <trkpt lat="45.78811" lon="4.7071">
        <ele>301.02728</ele>
        <time>2023-07-10T16:03:14.000Z</time>
      </trkpt>
      <trkpt lat="45.78816" lon="4.70711">
        <ele>301.04623</ele>
        <time>2023-07-10T16:03:15.000Z</time>
      </trkpt>
      <trkpt lat="45.78821" lon="4.70712">
        <ele>301.04306</ele>
        <time>2023-07-10T16:03:16.000Z</time>
      </trkpt>
      <trkpt lat="45.78826" lon="4.70713">
        <ele>301.02261</ele>
        <time>2023-07-10T16:03:17.000Z</time>
      </trkpt>
      <trkpt lat="45.78831" lon="4.70715">
        <ele>301.03134</ele>
        <time>2023-07-10T16:03:18.000Z</time>
      </trkpt>
      <trkpt lat="45.78837" lon="4.70716">
        <ele>301.08551</ele>
        <time>2023-07-10T16:03:19.000Z</time>
      </trkpt>
      <trkpt lat="45.78841" lon="4.70718">
        <ele>301.16571</ele>
        <time>2023-07-10T16:03:20.000Z</time>
      </trkpt>
      <trkpt lat="45.78847" lon="4.7072">
        <ele>301.24893</ele>
        <time>2023-07-10T16:03:21.000Z</time>
      </trkpt>
      <trkpt lat="45.78852" lon="4.70722">
        <ele>301.28293</ele>
        <time>2023-07-10T16:03:22.000Z</time>
      </trkpt>
      <trkpt lat="45.78858" lon="4.70723">
        <ele>301.29102</ele>
        <time>2023-07-10T16:03:23.000Z</time>
      </trkpt>
      <trkpt lat="45.78863" lon="4.70725">
        <ele>301.27515</ele>
        <time>2023-07-10T16:03:24.000Z</time>
      </trkpt>
      <trkpt lat="45.78868" lon="4.70726">
        <ele>301.26498</ele>
        <time>2023-07-10T16:03:25.000Z</time>
      </trkpt>
      <trkpt lat="45.78874" lon="4.70728">
        <ele>301.13699</ele>
        <time>2023-07-10T16:03:26.000Z</time>
      </trkpt>
      <trkpt lat="45.78878" lon="4.70731">
        <ele>300.96991</ele>
        <time>2023-07-10T16:03:27.000Z</time>
      </trkpt>
      <trkpt lat="45.78883" lon="4.70734">
        <ele>300.80023</ele>
        <time>2023-07-10T16:03:28.000Z</time>
      </trkpt>
      <trkpt lat="45.78887" lon="4.70737">
        <ele>300.63306</ele>
        <time>2023-07-10T16:03:29.000Z</time>
      </trkpt>
      <trkpt lat="45.78893" lon="4.70741">
        <ele>300.42569</ele>
        <time>2023-07-10T16:03:30.000Z</time>
      </trkpt>
      <trkpt lat="45.78898" lon="4.70743">
        <ele>300.27533</ele>
        <time>2023-07-10T16:03:31.000Z</time>
      </trkpt>
      <trkpt lat="45.78902" lon="4.70746">
        <ele>300.09912</ele>
        <time>2023-07-10T16:03:32.000Z</time>
      </trkpt>
      <trkpt lat="45.78907" lon="4.7075">
        <ele>299.93149</ele>
        <time>2023-07-10T16:03:33.000Z</time>
      </trkpt>
      <trkpt lat="45.78912" lon="4.70753">
        <ele>299.80621</ele>
        <time>2023-07-10T16:03:34.000Z</time>
      </trkpt>
      <trkpt lat="45.78917" lon="4.70757">
        <ele>299.67197</ele>
        <time>2023-07-10T16:03:35.000Z</time>
      </trkpt>
      <trkpt lat="45.78922" lon="4.70761">
        <ele>299.54584</ele>
        <time>2023-07-10T16:03:36.000Z</time>
      </trkpt>
      <trkpt lat="45.78926" lon="4.70765">
        <ele>299.35028</ele>
        <time>2023-07-10T16:03:37.000Z</time>
      </trkpt>
      <trkpt lat="45.78931" lon="4.70769">
        <ele>299.18353</ele>
        <time>2023-07-10T16:03:38.000Z</time>
      </trkpt>
      <trkpt lat="45.78936" lon="4.70773">
        <ele>299.02313</ele>
        <time>2023-07-10T16:03:39.000Z</time>
      </trkpt>
      <trkpt lat="45.7894" lon="4.70777">
        <ele>298.87213</ele>
        <time>2023-07-10T16:03:40.000Z</time>
      </trkpt>
      <trkpt lat="45.78944" lon="4.70781">
        <ele>298.71005</ele>
        <time>2023-07-10T16:03:41.000Z</time>
      </trkpt>
      <trkpt lat="45.78948" lon="4.70785">
        <ele>298.52423</ele>
        <time>2023-07-10T16:03:42.000Z</time>
      </trkpt>
      <trkpt lat="45.78951" lon="4.70788">
        <ele>298.38837</ele>
        <time>2023-07-10T16:03:43.000Z</time>
      </trkpt>
      <trkpt lat="45.78953" lon="4.70792">
        <ele>298.27728</ele>
        <time>2023-07-10T16:03:44.000Z</time>
      </trkpt>
      <trkpt lat="45.78957" lon="4.70796">
        <ele>298.16113</ele>
        <time>2023-07-10T16:03:45.000Z</time>
      </trkpt>
      <trkpt lat="45.78961" lon="4.70799">
        <ele>298.06183</ele>
        <time>2023-07-10T16:03:46.000Z</time>
      </trkpt>
      <trkpt lat="45.78964" lon="4.70803">
        <ele>297.97339</ele>
        <time>2023-07-10T16:03:47.000Z</time>
      </trkpt>
      <trkpt lat="45.78968" lon="4.70808">
        <ele>297.88708</ele>
        <time>2023-07-10T16:03:48.000Z</time>
      </trkpt>
      <trkpt lat="45.78971" lon="4.70813">
        <ele>297.81573</ele>
        <time>2023-07-10T16:03:49.000Z</time>
      </trkpt>
      <trkpt lat="45.78975" lon="4.7082">
        <ele>297.74911</ele>
        <time>2023-07-10T16:03:50.000Z</time>
      </trkpt>
      <trkpt lat="45.78978" lon="4.70826">
        <ele>297.64536</ele>
        <time>2023-07-10T16:03:51.000Z</time>
      </trkpt>
      <trkpt lat="45.78982" lon="4.70832">
        <ele>297.53314</ele>
        <time>2023-07-10T16:03:52.000Z</time>
      </trkpt>
      <trkpt lat="45.78985" lon="4.70838">
        <ele>297.40613</ele>
        <time>2023-07-10T16:03:53.000Z</time>
      </trkpt>
      <trkpt lat="45.78988" lon="4.70844">
        <ele>297.2901</ele>
        <time>2023-07-10T16:03:54.000Z</time>
      </trkpt>
      <trkpt lat="45.78992" lon="4.70849">
        <ele>297.13</ele>
        <time>2023-07-10T16:03:55.000Z</time>
      </trkpt>
      <trkpt lat="45.78996" lon="4.70855">
        <ele>297.00189</ele>
        <time>2023-07-10T16:03:56.000Z</time>
      </trkpt>
      <trkpt lat="45.79" lon="4.7086">
        <ele>296.93982</ele>
        <time>2023-07-10T16:03:57.000Z</time>
      </trkpt>
      <trkpt lat="45.79003" lon="4.70864">
        <ele>296.85294</ele>
        <time>2023-07-10T16:03:58.000Z</time>
      </trkpt>
      <trkpt lat="45.79007" lon="4.7087">
        <ele>296.74374</ele>
        <time>2023-07-10T16:03:59.000Z</time>
      </trkpt>
      <trkpt lat="45.79011" lon="4.70875">
        <ele>296.61304</ele>
        <time>2023-07-10T16:04:00.000Z</time>
      </trkpt>
      <trkpt lat="45.79015" lon="4.7088">
        <ele>296.48553</ele>
        <time>2023-07-10T16:04:01.000Z</time>
      </trkpt>
      <trkpt lat="45.7902" lon="4.70883">
        <ele>296.36066</ele>
        <time>2023-07-10T16:04:02.000Z</time>
      </trkpt>
      <trkpt lat="45.79024" lon="4.70887">
        <ele>296.23566</ele>
        <time>2023-07-10T16:04:03.000Z</time>
      </trkpt>
      <trkpt lat="45.79027" lon="4.70895">
        <ele>296.05731</ele>
        <time>2023-07-10T16:04:04.000Z</time>
      </trkpt>
      <trkpt lat="45.79028" lon="4.70903">
        <ele>295.87909</ele>
        <time>2023-07-10T16:04:05.000Z</time>
      </trkpt>
      <trkpt lat="45.79029" lon="4.7091">
        <ele>295.67908</ele>
        <time>2023-07-10T16:04:06.000Z</time>
      </trkpt>
      <trkpt lat="45.7903" lon="4.70918">
        <ele>295.52884</ele>
        <time>2023-07-10T16:04:07.000Z</time>
      </trkpt>
      <trkpt lat="45.79031" lon="4.70923">
        <ele>295.38129</ele>
        <time>2023-07-10T16:04:08.000Z</time>
      </trkpt>
      <trkpt lat="45.79032" lon="4.70928">
        <ele>295.23901</ele>
        <time>2023-07-10T16:04:09.000Z</time>
      </trkpt>
      <trkpt lat="45.79033" lon="4.70931">
        <ele>295.11243</ele>
        <time>2023-07-10T16:04:10.000Z</time>
      </trkpt>
      <trkpt lat="45.79034" lon="4.70935">
        <ele>294.87784</ele>
        <time>2023-07-10T16:04:11.000Z</time>
      </trkpt>
      <trkpt lat="45.79036" lon="4.70939">
        <ele>294.65622</ele>
        <time>2023-07-10T16:04:12.000Z</time>
      </trkpt>
      <trkpt lat="45.7904" lon="4.70942">
        <ele>294.46323</ele>
        <time>2023-07-10T16:04:13.000Z</time>
      </trkpt>
      <trkpt lat="45.79042" lon="4.70945">
        <ele>294.27289</ele>
        <time>2023-07-10T16:04:14.000Z</time>
      </trkpt>
      <trkpt lat="45.79044" lon="4.70945">
        <ele>294.13199</ele>
        <time>2023-07-10T16:04:15.000Z</time>
      </trkpt>
      <trkpt lat="45.79048" lon="4.70947">
        <ele>294.00748</ele>
        <time>2023-07-10T16:04:17.000Z</time>
      </trkpt>
      <trkpt lat="45.79051" lon="4.70948">
        <ele>293.90933</ele>
        <time>2023-07-10T16:04:18.000Z</time>
      </trkpt>
      <trkpt lat="45.79054" lon="4.70947">
        <ele>293.84393</ele>
        <time>2023-07-10T16:04:19.000Z</time>
      </trkpt>
      <trkpt lat="45.79056" lon="4.70946">
        <ele>293.80411</ele>
        <time>2023-07-10T16:04:20.000Z</time>
      </trkpt>
      <trkpt lat="45.79059" lon="4.70944">
        <ele>293.81274</ele>
        <time>2023-07-10T16:04:21.000Z</time>
      </trkpt>
      <trkpt lat="45.79062" lon="4.70942">
        <ele>293.82367</ele>
        <time>2023-07-10T16:04:22.000Z</time>
      </trkpt>
      <trkpt lat="45.79065" lon="4.7094">
        <ele>293.90927</ele>
        <time>2023-07-10T16:04:23.000Z</time>
      </trkpt>
      <trkpt lat="45.79068" lon="4.70939">
        <ele>293.96494</ele>
        <time>2023-07-10T16:04:24.000Z</time>
      </trkpt>
      <trkpt lat="45.79072" lon="4.70939">
        <ele>294.10358</ele>
        <time>2023-07-10T16:04:25.000Z</time>
      </trkpt>
      <trkpt lat="45.79075" lon="4.70939">
        <ele>294.15427</ele>
        <time>2023-07-10T16:04:26.000Z</time>
      </trkpt>
      <trkpt lat="45.79077" lon="4.7094">
        <ele>294.23984</ele>
        <time>2023-07-10T16:04:27.000Z</time>
      </trkpt>
      <trkpt lat="45.7908" lon="4.70942">
        <ele>294.29459</ele>
        <time>2023-07-10T16:04:28.000Z</time>
      </trkpt>
      <trkpt lat="45.79082" lon="4.70944">
        <ele>294.34708</ele>
        <time>2023-07-10T16:04:29.000Z</time>
      </trkpt>
      <trkpt lat="45.79084" lon="4.70946">
        <ele>294.33578</ele>
        <time>2023-07-10T16:04:30.000Z</time>
      </trkpt>
      <trkpt lat="45.79087" lon="4.70949">
        <ele>294.31354</ele>
        <time>2023-07-10T16:04:31.000Z</time>
      </trkpt>
      <trkpt lat="45.79089" lon="4.70952">
        <ele>294.40521</ele>
        <time>2023-07-10T16:04:32.000Z</time>
      </trkpt>
      <trkpt lat="45.79091" lon="4.70955">
        <ele>294.48459</ele>
        <time>2023-07-10T16:04:33.000Z</time>
      </trkpt>
      <trkpt lat="45.79094" lon="4.70958">
        <ele>294.56</ele>
        <time>2023-07-10T16:04:34.000Z</time>
      </trkpt>
      <trkpt lat="45.79096" lon="4.7096">
        <ele>294.61884</ele>
        <time>2023-07-10T16:04:35.000Z</time>
      </trkpt>
      <trkpt lat="45.79098" lon="4.70963">
        <ele>294.68262</ele>
        <time>2023-07-10T16:04:36.000Z</time>
      </trkpt>
      <trkpt lat="45.79099" lon="4.70966">
        <ele>294.7193</ele>
        <time>2023-07-10T16:04:37.000Z</time>
      </trkpt>
      <trkpt lat="45.79101" lon="4.70969">
        <ele>294.7457</ele>
        <time>2023-07-10T16:04:38.000Z</time>
      </trkpt>
      <trkpt lat="45.79103" lon="4.70971">
        <ele>294.73193</ele>
        <time>2023-07-10T16:04:39.000Z</time>
      </trkpt>
      <trkpt lat="45.79104" lon="4.70973">
        <ele>294.70477</ele>
        <time>2023-07-10T16:04:40.000Z</time>
      </trkpt>
      <trkpt lat="45.79105" lon="4.70976">
        <ele>294.64957</ele>
        <time>2023-07-10T16:04:41.000Z</time>
      </trkpt>
      <trkpt lat="45.79106" lon="4.70981">
        <ele>294.59729</ele>
        <time>2023-07-10T16:04:42.000Z</time>
      </trkpt>
      <trkpt lat="45.79106" lon="4.70985">
        <ele>294.48666</ele>
        <time>2023-07-10T16:04:43.000Z</time>
      </trkpt>
      <trkpt lat="45.79107" lon="4.70989">
        <ele>294.39322</ele>
        <time>2023-07-10T16:04:44.000Z</time>
      </trkpt>
      <trkpt lat="45.79109" lon="4.70992">
        <ele>294.27362</ele>
        <time>2023-07-10T16:04:45.000Z</time>
      </trkpt>
      <trkpt lat="45.79111" lon="4.70992">
        <ele>294.29669</ele>
        <time>2023-07-10T16:04:46.000Z</time>
      </trkpt>
      <trkpt lat="45.79113" lon="4.70988">
        <ele>294.31219</ele>
        <time>2023-07-10T16:04:47.000Z</time>
      </trkpt>
      <trkpt lat="45.79113" lon="4.70984">
        <ele>294.35297</ele>
        <time>2023-07-10T16:04:48.000Z</time>
      </trkpt>
      <trkpt lat="45.79113" lon="4.70978">
        <ele>294.42761</ele>
        <time>2023-07-10T16:04:49.000Z</time>
      </trkpt>
      <trkpt lat="45.79114" lon="4.70974">
        <ele>294.54605</ele>
        <time>2023-07-10T16:04:50.000Z</time>
      </trkpt>
      <trkpt lat="45.79116" lon="4.70971">
        <ele>294.57663</ele>
        <time>2023-07-10T16:04:51.000Z</time>
      </trkpt>
      <trkpt lat="45.79118" lon="4.70971">
        <ele>294.65292</ele>
        <time>2023-07-10T16:04:52.000Z</time>
      </trkpt>
      <trkpt lat="45.7912" lon="4.70973">
        <ele>294.71283</ele>
        <time>2023-07-10T16:04:54.000Z</time>
      </trkpt>
      <trkpt lat="45.79121" lon="4.70976">
        <ele>294.84009</ele>
        <time>2023-07-10T16:04:56.000Z</time>
      </trkpt>
      <trkpt lat="45.79122" lon="4.70979">
        <ele>294.98349</ele>
        <time>2023-07-10T16:04:58.000Z</time>
      </trkpt>
      <trkpt lat="45.79123" lon="4.70982">
        <ele>295.04694</ele>
        <time>2023-07-10T16:05:00.000Z</time>
      </trkpt>
      <trkpt lat="45.79124" lon="4.70985">
        <ele>295.11234</ele>
        <time>2023-07-10T16:05:02.000Z</time>
      </trkpt>
      <trkpt lat="45.79126" lon="4.70988">
        <ele>295.24719</ele>
        <time>2023-07-10T16:05:18.000Z</time>
      </trkpt>
      <trkpt lat="45.79127" lon="4.70991">
        <ele>295.28412</ele>
        <time>2023-07-10T16:05:19.000Z</time>
      </trkpt>
      <trkpt lat="45.79128" lon="4.70994">
        <ele>295.34866</ele>
        <time>2023-07-10T16:05:20.000Z</time>
      </trkpt>
      <trkpt lat="45.79129" lon="4.70996">
        <ele>295.41003</ele>
        <time>2023-07-10T16:05:21.000Z</time>
      </trkpt>
      <trkpt lat="45.79131" lon="4.70999">
        <ele>295.46747</ele>
        <time>2023-07-10T16:05:22.000Z</time>
      </trkpt>
      <trkpt lat="45.79132" lon="4.71001">
        <ele>295.52298</ele>
        <time>2023-07-10T16:05:23.000Z</time>
      </trkpt>
      <trkpt lat="45.79134" lon="4.71003">
        <ele>295.57074</ele>
        <time>2023-07-10T16:05:24.000Z</time>
      </trkpt>
      <trkpt lat="45.79135" lon="4.71006">
        <ele>295.60562</ele>
        <time>2023-07-10T16:05:25.000Z</time>
      </trkpt>
      <trkpt lat="45.79137" lon="4.71008">
        <ele>295.58932</ele>
        <time>2023-07-10T16:05:26.000Z</time>
      </trkpt>
      <trkpt lat="45.79138" lon="4.71011">
        <ele>295.57269</ele>
        <time>2023-07-10T16:05:27.000Z</time>
      </trkpt>
      <trkpt lat="45.79139" lon="4.71014">
        <ele>295.53244</ele>
        <time>2023-07-10T16:05:28.000Z</time>
      </trkpt>
      <trkpt lat="45.7914" lon="4.71016">
        <ele>295.51517</ele>
        <time>2023-07-10T16:05:29.000Z</time>
      </trkpt>
      <trkpt lat="45.79141" lon="4.71019">
        <ele>295.47055</ele>
        <time>2023-07-10T16:05:30.000Z</time>
      </trkpt>
      <trkpt lat="45.79142" lon="4.71022">
        <ele>295.5499</ele>
        <time>2023-07-10T16:05:31.000Z</time>
      </trkpt>
      <trkpt lat="45.79143" lon="4.71024">
        <ele>295.58585</ele>
        <time>2023-07-10T16:05:32.000Z</time>
      </trkpt>
      <trkpt lat="45.79144" lon="4.71027">
        <ele>295.65469</ele>
        <time>2023-07-10T16:05:33.000Z</time>
      </trkpt>
      <trkpt lat="45.79146" lon="4.7103">
        <ele>295.66986</ele>
        <time>2023-07-10T16:05:34.000Z</time>
      </trkpt>
      <trkpt lat="45.79147" lon="4.71032">
        <ele>295.58875</ele>
        <time>2023-07-10T16:05:35.000Z</time>
      </trkpt>
      <trkpt lat="45.79149" lon="4.71035">
        <ele>295.56378</ele>
        <time>2023-07-10T16:05:37.000Z</time>
      </trkpt>
      <trkpt lat="45.7915" lon="4.71039">
        <ele>295.52551</ele>
        <time>2023-07-10T16:05:39.000Z</time>
      </trkpt>
      <trkpt lat="45.79152" lon="4.71042">
        <ele>295.3938</ele>
        <time>2023-07-10T16:05:41.000Z</time>
      </trkpt>
      <trkpt lat="45.79154" lon="4.71046">
        <ele>295.41904</ele>
        <time>2023-07-10T16:05:43.000Z</time>
      </trkpt>
      <trkpt lat="45.79155" lon="4.71049">
        <ele>295.40759</ele>
        <time>2023-07-10T16:05:45.000Z</time>
      </trkpt>
      <trkpt lat="45.79158" lon="4.71052">
        <ele>295.36487</ele>
        <time>2023-07-10T16:05:47.000Z</time>
      </trkpt>
      <trkpt lat="45.7916" lon="4.71055">
        <ele>295.33466</ele>
        <time>2023-07-10T16:05:49.000Z</time>
      </trkpt>
      <trkpt lat="45.79161" lon="4.71057">
        <ele>295.3205</ele>
        <time>2023-07-10T16:05:51.000Z</time>
      </trkpt>
      <trkpt lat="45.79163" lon="4.71061">
        <ele>295.30707</ele>
        <time>2023-07-10T16:05:53.000Z</time>
      </trkpt>
      <trkpt lat="45.79164" lon="4.71064">
        <ele>295.30136</ele>
        <time>2023-07-10T16:05:55.000Z</time>
      </trkpt>
      <trkpt lat="45.79167" lon="4.71068">
        <ele>295.30978</ele>
        <time>2023-07-10T16:05:57.000Z</time>
      </trkpt>
      <trkpt lat="45.79169" lon="4.71072">
        <ele>295.37659</ele>
        <time>2023-07-10T16:05:59.000Z</time>
      </trkpt>
      <trkpt lat="45.7917" lon="4.71076">
        <ele>295.42047</ele>
        <time>2023-07-10T16:06:00.000Z</time>
      </trkpt>
      <trkpt lat="45.79172" lon="4.7108">
        <ele>295.36475</ele>
        <time>2023-07-10T16:06:01.000Z</time>
      </trkpt>
      <trkpt lat="45.79174" lon="4.71084">
        <ele>295.30972</ele>
        <time>2023-07-10T16:06:02.000Z</time>
      </trkpt>
      <trkpt lat="45.79176" lon="4.71087">
        <ele>295.29999</ele>
        <time>2023-07-10T16:06:03.000Z</time>
      </trkpt>
      <trkpt lat="45.79179" lon="4.71092">
        <ele>295.18561</ele>
        <time>2023-07-10T16:06:04.000Z</time>
      </trkpt>
      <trkpt lat="45.79182" lon="4.71098">
        <ele>295.0647</ele>
        <time>2023-07-10T16:06:05.000Z</time>
      </trkpt>
      <trkpt lat="45.79184" lon="4.71103">
        <ele>294.90991</ele>
        <time>2023-07-10T16:06:06.000Z</time>
      </trkpt>
      <trkpt lat="45.79187" lon="4.71109">
        <ele>294.84052</ele>
        <time>2023-07-10T16:06:07.000Z</time>
      </trkpt>
      <trkpt lat="45.7919" lon="4.71115">
        <ele>294.73575</ele>
        <time>2023-07-10T16:06:08.000Z</time>
      </trkpt>
      <trkpt lat="45.79192" lon="4.7112">
        <ele>294.62656</ele>
        <time>2023-07-10T16:06:09.000Z</time>
      </trkpt>
      <trkpt lat="45.79195" lon="4.71126">
        <ele>294.56537</ele>
        <time>2023-07-10T16:06:10.000Z</time>
      </trkpt>
      <trkpt lat="45.79198" lon="4.71134">
        <ele>294.44818</ele>
        <time>2023-07-10T16:06:11.000Z</time>
      </trkpt>
      <trkpt lat="45.792" lon="4.7114">
        <ele>294.43805</ele>
        <time>2023-07-10T16:06:12.000Z</time>
      </trkpt>
      <trkpt lat="45.79203" lon="4.71146">
        <ele>294.50479</ele>
        <time>2023-07-10T16:06:13.000Z</time>
      </trkpt>
      <trkpt lat="45.79206" lon="4.71152">
        <ele>294.60876</ele>
        <time>2023-07-10T16:06:14.000Z</time>
      </trkpt>
      <trkpt lat="45.7921" lon="4.71159">
        <ele>294.5162</ele>
        <time>2023-07-10T16:06:15.000Z</time>
      </trkpt>
      <trkpt lat="45.79214" lon="4.71166">
        <ele>294.45612</ele>
        <time>2023-07-10T16:06:16.000Z</time>
      </trkpt>
      <trkpt lat="45.79217" lon="4.71173">
        <ele>294.36002</ele>
        <time>2023-07-10T16:06:17.000Z</time>
      </trkpt>
      <trkpt lat="45.79221" lon="4.71179">
        <ele>294.24603</ele>
        <time>2023-07-10T16:06:18.000Z</time>
      </trkpt>
      <trkpt lat="45.79224" lon="4.71186">
        <ele>294.08197</ele>
        <time>2023-07-10T16:06:19.000Z</time>
      </trkpt>
      <trkpt lat="45.79228" lon="4.71193">
        <ele>293.93427</ele>
        <time>2023-07-10T16:06:20.000Z</time>
      </trkpt>
      <trkpt lat="45.79231" lon="4.71201">
        <ele>293.81827</ele>
        <time>2023-07-10T16:06:21.000Z</time>
      </trkpt>
      <trkpt lat="45.79236" lon="4.71206">
        <ele>293.7785</ele>
        <time>2023-07-10T16:06:22.000Z</time>
      </trkpt>
      <trkpt lat="45.79237" lon="4.71213">
        <ele>293.65729</ele>
        <time>2023-07-10T16:06:23.000Z</time>
      </trkpt>
      <trkpt lat="45.79237" lon="4.7122">
        <ele>293.67236</ele>
        <time>2023-07-10T16:06:24.000Z</time>
      </trkpt>
      <trkpt lat="45.79238" lon="4.71228">
        <ele>293.73645</ele>
        <time>2023-07-10T16:06:25.000Z</time>
      </trkpt>
      <trkpt lat="45.79241" lon="4.71236">
        <ele>293.69394</ele>
        <time>2023-07-10T16:06:26.000Z</time>
      </trkpt>
      <trkpt lat="45.79244" lon="4.71244">
        <ele>293.66312</ele>
        <time>2023-07-10T16:06:27.000Z</time>
      </trkpt>
      <trkpt lat="45.79246" lon="4.71251">
        <ele>293.68304</ele>
        <time>2023-07-10T16:06:28.000Z</time>
      </trkpt>
      <trkpt lat="45.79249" lon="4.71258">
        <ele>293.68723</ele>
        <time>2023-07-10T16:06:29.000Z</time>
      </trkpt>
      <trkpt lat="45.7925" lon="4.71265">
        <ele>293.67746</ele>
        <time>2023-07-10T16:06:30.000Z</time>
      </trkpt>
      <trkpt lat="45.79252" lon="4.71272">
        <ele>293.68097</ele>
        <time>2023-07-10T16:06:31.000Z</time>
      </trkpt>
      <trkpt lat="45.79254" lon="4.7128">
        <ele>293.62888</ele>
        <time>2023-07-10T16:06:32.000Z</time>
      </trkpt>
      <trkpt lat="45.79256" lon="4.71288">
        <ele>293.53726</ele>
        <time>2023-07-10T16:06:33.000Z</time>
      </trkpt>
      <trkpt lat="45.79258" lon="4.71295">
        <ele>293.44257</ele>
        <time>2023-07-10T16:06:34.000Z</time>
      </trkpt>
      <trkpt lat="45.79259" lon="4.71304">
        <ele>293.5134</ele>
        <time>2023-07-10T16:06:35.000Z</time>
      </trkpt>
      <trkpt lat="45.79261" lon="4.71311">
        <ele>293.57239</ele>
        <time>2023-07-10T16:06:36.000Z</time>
      </trkpt>
      <trkpt lat="45.79262" lon="4.71319">
        <ele>293.67792</ele>
        <time>2023-07-10T16:06:37.000Z</time>
      </trkpt>
      <trkpt lat="45.79263" lon="4.71326">
        <ele>293.81857</ele>
        <time>2023-07-10T16:06:38.000Z</time>
      </trkpt>
      <trkpt lat="45.79265" lon="4.71333">
        <ele>293.92731</ele>
        <time>2023-07-10T16:06:39.000Z</time>
      </trkpt>
      <trkpt lat="45.79266" lon="4.7134">
        <ele>294.02863</ele>
        <time>2023-07-10T16:06:40.000Z</time>
      </trkpt>
      <trkpt lat="45.79267" lon="4.71348">
        <ele>294.14532</ele>
        <time>2023-07-10T16:06:41.000Z</time>
      </trkpt>
      <trkpt lat="45.79269" lon="4.71356">
        <ele>294.20392</ele>
        <time>2023-07-10T16:06:42.000Z</time>
      </trkpt>
      <trkpt lat="45.7927" lon="4.71363">
        <ele>294.28818</ele>
        <time>2023-07-10T16:06:43.000Z</time>
      </trkpt>
      <trkpt lat="45.79271" lon="4.7137">
        <ele>294.36591</ele>
        <time>2023-07-10T16:06:44.000Z</time>
      </trkpt>
      <trkpt lat="45.79273" lon="4.71377">
        <ele>294.38153</ele>
        <time>2023-07-10T16:06:45.000Z</time>
      </trkpt>
      <trkpt lat="45.79274" lon="4.71385">
        <ele>294.52637</ele>
        <time>2023-07-10T16:06:46.000Z</time>
      </trkpt>
      <trkpt lat="45.79276" lon="4.71392">
        <ele>294.66519</ele>
        <time>2023-07-10T16:06:47.000Z</time>
      </trkpt>
      <trkpt lat="45.79278" lon="4.71398">
        <ele>294.78433</ele>
        <time>2023-07-10T16:06:48.000Z</time>
      </trkpt>
      <trkpt lat="45.7928" lon="4.71405">
        <ele>294.95477</ele>
        <time>2023-07-10T16:06:49.000Z</time>
      </trkpt>
      <trkpt lat="45.79283" lon="4.7141">
        <ele>295.12845</ele>
        <time>2023-07-10T16:06:50.000Z</time>
      </trkpt>
      <trkpt lat="45.79286" lon="4.71417">
        <ele>295.28787</ele>
        <time>2023-07-10T16:06:51.000Z</time>
      </trkpt>
      <trkpt lat="45.79288" lon="4.71422">
        <ele>295.42511</ele>
        <time>2023-07-10T16:06:52.000Z</time>
      </trkpt>
      <trkpt lat="45.7929" lon="4.71427">
        <ele>295.55139</ele>
        <time>2023-07-10T16:06:53.000Z</time>
      </trkpt>
      <trkpt lat="45.79292" lon="4.7143">
        <ele>295.52145</ele>
        <time>2023-07-10T16:06:54.000Z</time>
      </trkpt>
      <trkpt lat="45.79293" lon="4.71434">
        <ele>295.54355</ele>
        <time>2023-07-10T16:06:55.000Z</time>
      </trkpt>
      <trkpt lat="45.79293" lon="4.71437">
        <ele>295.54538</ele>
        <time>2023-07-10T16:06:57.000Z</time>
      </trkpt>
      <trkpt lat="45.79295" lon="4.71442">
        <ele>295.56503</ele>
        <time>2023-07-10T16:07:14.000Z</time>
      </trkpt>
      <trkpt lat="45.79297" lon="4.71445">
        <ele>295.56918</ele>
        <time>2023-07-10T16:07:15.000Z</time>
      </trkpt>
      <trkpt lat="45.793" lon="4.71449">
        <ele>295.58533</ele>
        <time>2023-07-10T16:07:16.000Z</time>
      </trkpt>
      <trkpt lat="45.79302" lon="4.71452">
        <ele>295.6015</ele>
        <time>2023-07-10T16:07:17.000Z</time>
      </trkpt>
      <trkpt lat="45.79305" lon="4.71456">
        <ele>295.58176</ele>
        <time>2023-07-10T16:07:18.000Z</time>
      </trkpt>
      <trkpt lat="45.79308" lon="4.7146">
        <ele>295.57159</ele>
        <time>2023-07-10T16:07:19.000Z</time>
      </trkpt>
      <trkpt lat="45.7931" lon="4.71464">
        <ele>295.55029</ele>
        <time>2023-07-10T16:07:20.000Z</time>
      </trkpt>
      <trkpt lat="45.79313" lon="4.71468">
        <ele>295.50452</ele>
        <time>2023-07-10T16:07:21.000Z</time>
      </trkpt>
      <trkpt lat="45.79316" lon="4.71472">
        <ele>295.46375</ele>
        <time>2023-07-10T16:07:22.000Z</time>
      </trkpt>
      <trkpt lat="45.79319" lon="4.71476">
        <ele>295.41119</ele>
        <time>2023-07-10T16:07:23.000Z</time>
      </trkpt>
      <trkpt lat="45.79323" lon="4.71481">
        <ele>295.35962</ele>
        <time>2023-07-10T16:07:24.000Z</time>
      </trkpt>
      <trkpt lat="45.79326" lon="4.71487">
        <ele>295.32135</ele>
        <time>2023-07-10T16:07:25.000Z</time>
      </trkpt>
      <trkpt lat="45.79329" lon="4.71492">
        <ele>295.22836</ele>
        <time>2023-07-10T16:07:26.000Z</time>
      </trkpt>
      <trkpt lat="45.79333" lon="4.71498">
        <ele>295.12817</ele>
        <time>2023-07-10T16:07:27.000Z</time>
      </trkpt>
      <trkpt lat="45.79336" lon="4.71504">
        <ele>295.01175</ele>
        <time>2023-07-10T16:07:28.000Z</time>
      </trkpt>
      <trkpt lat="45.79339" lon="4.71509">
        <ele>294.85608</ele>
        <time>2023-07-10T16:07:29.000Z</time>
      </trkpt>
      <trkpt lat="45.79343" lon="4.71514">
        <ele>294.72235</ele>
        <time>2023-07-10T16:07:30.000Z</time>
      </trkpt>
      <trkpt lat="45.79347" lon="4.71519">
        <ele>294.73163</ele>
        <time>2023-07-10T16:07:31.000Z</time>
      </trkpt>
      <trkpt lat="45.7935" lon="4.71525">
        <ele>294.72766</ele>
        <time>2023-07-10T16:07:32.000Z</time>
      </trkpt>
      <trkpt lat="45.79354" lon="4.7153">
        <ele>294.71945</ele>
        <time>2023-07-10T16:07:33.000Z</time>
      </trkpt>
      <trkpt lat="45.79357" lon="4.71537">
        <ele>294.66962</ele>
        <time>2023-07-10T16:07:34.000Z</time>
      </trkpt>
      <trkpt lat="45.79358" lon="4.71544">
        <ele>294.67017</ele>
        <time>2023-07-10T16:07:35.000Z</time>
      </trkpt>
      <trkpt lat="45.7936" lon="4.71551">
        <ele>294.63651</ele>
        <time>2023-07-10T16:07:36.000Z</time>
      </trkpt>
      <trkpt lat="45.79362" lon="4.71558">
        <ele>294.62848</ele>
        <time>2023-07-10T16:07:37.000Z</time>
      </trkpt>
      <trkpt lat="45.79364" lon="4.71565">
        <ele>294.64325</ele>
        <time>2023-07-10T16:07:38.000Z</time>
      </trkpt>
      <trkpt lat="45.79366" lon="4.71572">
        <ele>294.57635</ele>
        <time>2023-07-10T16:07:39.000Z</time>
      </trkpt>
      <trkpt lat="45.79369" lon="4.71579">
        <ele>294.51169</ele>
        <time>2023-07-10T16:07:40.000Z</time>
      </trkpt>
      <trkpt lat="45.79372" lon="4.71585">
        <ele>294.45514</ele>
        <time>2023-07-10T16:07:41.000Z</time>
      </trkpt>
      <trkpt lat="45.79377" lon="4.7159">
        <ele>294.39621</ele>
        <time>2023-07-10T16:07:42.000Z</time>
      </trkpt>
      <trkpt lat="45.79381" lon="4.71596">
        <ele>294.30453</ele>
        <time>2023-07-10T16:07:43.000Z</time>
      </trkpt>
      <trkpt lat="45.79384" lon="4.71602">
        <ele>294.18304</ele>
        <time>2023-07-10T16:07:44.000Z</time>
      </trkpt>
      <trkpt lat="45.79388" lon="4.71608">
        <ele>294.05295</ele>
        <time>2023-07-10T16:07:45.000Z</time>
      </trkpt>
      <trkpt lat="45.79391" lon="4.71613">
        <ele>293.91656</ele>
        <time>2023-07-10T16:07:46.000Z</time>
      </trkpt>
      <trkpt lat="45.79393" lon="4.71619">
        <ele>293.77606</ele>
        <time>2023-07-10T16:07:47.000Z</time>
      </trkpt>
      <trkpt lat="45.79394" lon="4.71624">
        <ele>293.64813</ele>
        <time>2023-07-10T16:07:48.000Z</time>
      </trkpt>
      <trkpt lat="45.79393" lon="4.7163">
        <ele>293.52878</ele>
        <time>2023-07-10T16:07:49.000Z</time>
      </trkpt>
      <trkpt lat="45.79392" lon="4.71633">
        <ele>293.38223</ele>
        <time>2023-07-10T16:07:50.000Z</time>
      </trkpt>
      <trkpt lat="45.7939" lon="4.71637">
        <ele>293.22226</ele>
        <time>2023-07-10T16:07:51.000Z</time>
      </trkpt>
      <trkpt lat="45.79388" lon="4.71639">
        <ele>293.03561</ele>
        <time>2023-07-10T16:07:52.000Z</time>
      </trkpt>
      <trkpt lat="45.79387" lon="4.71642">
        <ele>292.85001</ele>
        <time>2023-07-10T16:07:53.000Z</time>
      </trkpt>
      <trkpt lat="45.79386" lon="4.71645">
        <ele>292.66064</ele>
        <time>2023-07-10T16:07:54.000Z</time>
      </trkpt>
      <trkpt lat="45.79385" lon="4.7165">
        <ele>292.40411</ele>
        <time>2023-07-10T16:07:55.000Z</time>
      </trkpt>
      <trkpt lat="45.79385" lon="4.71655">
        <ele>292.16992</ele>
        <time>2023-07-10T16:07:56.000Z</time>
      </trkpt>
      <trkpt lat="45.79387" lon="4.7166">
        <ele>291.9021</ele>
        <time>2023-07-10T16:07:57.000Z</time>
      </trkpt>
      <trkpt lat="45.79389" lon="4.71666">
        <ele>291.62909</ele>
        <time>2023-07-10T16:07:58.000Z</time>
      </trkpt>
      <trkpt lat="45.79391" lon="4.71672">
        <ele>291.43027</ele>
        <time>2023-07-10T16:07:59.000Z</time>
      </trkpt>
      <trkpt lat="45.79394" lon="4.71679">
        <ele>291.22308</ele>
        <time>2023-07-10T16:08:00.000Z</time>
      </trkpt>
      <trkpt lat="45.79396" lon="4.71686">
        <ele>291.00491</ele>
        <time>2023-07-10T16:08:01.000Z</time>
      </trkpt>
      <trkpt lat="45.79399" lon="4.71694">
        <ele>290.85748</ele>
        <time>2023-07-10T16:08:02.000Z</time>
      </trkpt>
      <trkpt lat="45.79402" lon="4.71702">
        <ele>290.71777</ele>
        <time>2023-07-10T16:08:03.000Z</time>
      </trkpt>
      <trkpt lat="45.79404" lon="4.7171">
        <ele>290.60223</ele>
        <time>2023-07-10T16:08:04.000Z</time>
      </trkpt>
      <trkpt lat="45.79406" lon="4.71719">
        <ele>290.49747</ele>
        <time>2023-07-10T16:08:05.000Z</time>
      </trkpt>
      <trkpt lat="45.79408" lon="4.71727">
        <ele>290.43057</ele>
        <time>2023-07-10T16:08:06.000Z</time>
      </trkpt>
      <trkpt lat="45.7941" lon="4.71736">
        <ele>290.3576</ele>
        <time>2023-07-10T16:08:07.000Z</time>
      </trkpt>
      <trkpt lat="45.79411" lon="4.71745">
        <ele>290.29437</ele>
        <time>2023-07-10T16:08:08.000Z</time>
      </trkpt>
      <trkpt lat="45.79411" lon="4.71753">
        <ele>290.25937</ele>
        <time>2023-07-10T16:08:09.000Z</time>
      </trkpt>
      <trkpt lat="45.79412" lon="4.71761">
        <ele>290.23486</ele>
        <time>2023-07-10T16:08:10.000Z</time>
      </trkpt>
      <trkpt lat="45.79412" lon="4.71769">
        <ele>290.2066</ele>
        <time>2023-07-10T16:08:11.000Z</time>
      </trkpt>
      <trkpt lat="45.79414" lon="4.71777">
        <ele>290.18451</ele>
        <time>2023-07-10T16:08:12.000Z</time>
      </trkpt>
      <trkpt lat="45.79415" lon="4.71785">
        <ele>290.17709</ele>
        <time>2023-07-10T16:08:13.000Z</time>
      </trkpt>
      <trkpt lat="45.79416" lon="4.71793">
        <ele>290.16959</ele>
        <time>2023-07-10T16:08:14.000Z</time>
      </trkpt>
      <trkpt lat="45.79417" lon="4.71802">
        <ele>290.17303</ele>
        <time>2023-07-10T16:08:15.000Z</time>
      </trkpt>
      <trkpt lat="45.79418" lon="4.71812">
        <ele>290.17618</ele>
        <time>2023-07-10T16:08:16.000Z</time>
      </trkpt>
      <trkpt lat="45.7942" lon="4.71821">
        <ele>290.1601</ele>
        <time>2023-07-10T16:08:17.000Z</time>
      </trkpt>
      <trkpt lat="45.79422" lon="4.7183">
        <ele>290.15384</ele>
        <time>2023-07-10T16:08:18.000Z</time>
      </trkpt>
      <trkpt lat="45.79423" lon="4.71839">
        <ele>290.54013</ele>
        <time>2023-07-10T16:08:19.000Z</time>
      </trkpt>
      <trkpt lat="45.79424" lon="4.71848">
        <ele>290.94333</ele>
        <time>2023-07-10T16:08:20.000Z</time>
      </trkpt>
      <trkpt lat="45.79426" lon="4.71858">
        <ele>291.33994</ele>
        <time>2023-07-10T16:08:21.000Z</time>
      </trkpt>
      <trkpt lat="45.79427" lon="4.71868">
        <ele>291.67685</ele>
        <time>2023-07-10T16:08:22.000Z</time>
      </trkpt>
      <trkpt lat="45.79428" lon="4.71879">
        <ele>292.0058</ele>
        <time>2023-07-10T16:08:23.000Z</time>
      </trkpt>
      <trkpt lat="45.7943" lon="4.7189">
        <ele>292.28784</ele>
        <time>2023-07-10T16:08:24.000Z</time>
      </trkpt>
      <trkpt lat="45.79432" lon="4.71901">
        <ele>292.54611</ele>
        <time>2023-07-10T16:08:25.000Z</time>
      </trkpt>
      <trkpt lat="45.79434" lon="4.71911">
        <ele>292.83359</ele>
        <time>2023-07-10T16:08:26.000Z</time>
      </trkpt>
      <trkpt lat="45.79436" lon="4.71921">
        <ele>293.11655</ele>
        <time>2023-07-10T16:08:27.000Z</time>
      </trkpt>
      <trkpt lat="45.79439" lon="4.71931">
        <ele>293.38211</ele>
        <time>2023-07-10T16:08:28.000Z</time>
      </trkpt>
      <trkpt lat="45.79442" lon="4.71941">
        <ele>293.32529</ele>
        <time>2023-07-10T16:08:29.000Z</time>
      </trkpt>
      <trkpt lat="45.79447" lon="4.7195">
        <ele>293.3855</ele>
        <time>2023-07-10T16:08:30.000Z</time>
      </trkpt>
      <trkpt lat="45.79452" lon="4.71958">
        <ele>293.32755</ele>
        <time>2023-07-10T16:08:31.000Z</time>
      </trkpt>
      <trkpt lat="45.79458" lon="4.71965">
        <ele>293.27435</ele>
        <time>2023-07-10T16:08:32.000Z</time>
      </trkpt>
      <trkpt lat="45.79463" lon="4.71971">
        <ele>293.20551</ele>
        <time>2023-07-10T16:08:33.000Z</time>
      </trkpt>
      <trkpt lat="45.79472" lon="4.71972">
        <ele>293.13531</ele>
        <time>2023-07-10T16:08:34.000Z</time>
      </trkpt>
      <trkpt lat="45.79479" lon="4.71973">
        <ele>293.06915</ele>
        <time>2023-07-10T16:08:35.000Z</time>
      </trkpt>
      <trkpt lat="45.79486" lon="4.71973">
        <ele>293.01523</ele>
        <time>2023-07-10T16:08:36.000Z</time>
      </trkpt>
      <trkpt lat="45.79494" lon="4.71972">
        <ele>292.96844</ele>
        <time>2023-07-10T16:08:37.000Z</time>
      </trkpt>
      <trkpt lat="45.79501" lon="4.71969">
        <ele>292.91394</ele>
        <time>2023-07-10T16:08:38.000Z</time>
      </trkpt>
      <trkpt lat="45.79508" lon="4.71966">
        <ele>292.45718</ele>
        <time>2023-07-10T16:08:39.000Z</time>
      </trkpt>
      <trkpt lat="45.79515" lon="4.71963">
        <ele>291.9603</ele>
        <time>2023-07-10T16:08:40.000Z</time>
      </trkpt>
      <trkpt lat="45.79522" lon="4.71959">
        <ele>291.44073</ele>
        <time>2023-07-10T16:08:41.000Z</time>
      </trkpt>
      <trkpt lat="45.79529" lon="4.71956">
        <ele>290.89859</ele>
        <time>2023-07-10T16:08:42.000Z</time>
      </trkpt>
      <trkpt lat="45.79536" lon="4.71952">
        <ele>290.33978</ele>
        <time>2023-07-10T16:08:43.000Z</time>
      </trkpt>
      <trkpt lat="45.79544" lon="4.7195">
        <ele>289.82761</ele>
        <time>2023-07-10T16:08:44.000Z</time>
      </trkpt>
      <trkpt lat="45.79552" lon="4.71947">
        <ele>289.45239</ele>
        <time>2023-07-10T16:08:45.000Z</time>
      </trkpt>
      <trkpt lat="45.79558" lon="4.71943">
        <ele>289.01312</ele>
        <time>2023-07-10T16:08:46.000Z</time>
      </trkpt>
      <trkpt lat="45.79566" lon="4.71939">
        <ele>288.5867</ele>
        <time>2023-07-10T16:08:47.000Z</time>
      </trkpt>
      <trkpt lat="45.79574" lon="4.71935">
        <ele>288.20258</ele>
        <time>2023-07-10T16:08:48.000Z</time>
      </trkpt>
      <trkpt lat="45.79582" lon="4.71931">
        <ele>288.09851</ele>
        <time>2023-07-10T16:08:49.000Z</time>
      </trkpt>
      <trkpt lat="45.79589" lon="4.71925">
        <ele>287.8429</ele>
        <time>2023-07-10T16:08:50.000Z</time>
      </trkpt>
      <trkpt lat="45.79597" lon="4.71923">
        <ele>287.66388</ele>
        <time>2023-07-10T16:08:51.000Z</time>
      </trkpt>
      <trkpt lat="45.79605" lon="4.71918">
        <ele>287.45181</ele>
        <time>2023-07-10T16:08:52.000Z</time>
      </trkpt>
      <trkpt lat="45.79612" lon="4.71913">
        <ele>287.25134</ele>
        <time>2023-07-10T16:08:53.000Z</time>
      </trkpt>
      <trkpt lat="45.7962" lon="4.71907">
        <ele>287.04294</ele>
        <time>2023-07-10T16:08:54.000Z</time>
      </trkpt>
      <trkpt lat="45.79628" lon="4.71903">
        <ele>286.81503</ele>
        <time>2023-07-10T16:08:55.000Z</time>
      </trkpt>
      <trkpt lat="45.79637" lon="4.71898">
        <ele>286.58823</ele>
        <time>2023-07-10T16:08:56.000Z</time>
      </trkpt>
      <trkpt lat="45.79645" lon="4.71893">
        <ele>286.3576</ele>
        <time>2023-07-10T16:08:57.000Z</time>
      </trkpt>
      <trkpt lat="45.79653" lon="4.71889">
        <ele>286.297</ele>
        <time>2023-07-10T16:08:58.000Z</time>
      </trkpt>
      <trkpt lat="45.79661" lon="4.71884">
        <ele>286.22028</ele>
        <time>2023-07-10T16:08:59.000Z</time>
      </trkpt>
      <trkpt lat="45.79669" lon="4.71878">
        <ele>286.14441</ele>
        <time>2023-07-10T16:09:00.000Z</time>
      </trkpt>
      <trkpt lat="45.79677" lon="4.71872">
        <ele>286.08041</ele>
        <time>2023-07-10T16:09:01.000Z</time>
      </trkpt>
      <trkpt lat="45.79684" lon="4.71866">
        <ele>286.01483</ele>
        <time>2023-07-10T16:09:02.000Z</time>
      </trkpt>
      <trkpt lat="45.79691" lon="4.71857">
        <ele>285.96091</ele>
        <time>2023-07-10T16:09:03.000Z</time>
      </trkpt>
      <trkpt lat="45.79698" lon="4.71847">
        <ele>285.87686</ele>
        <time>2023-07-10T16:09:04.000Z</time>
      </trkpt>
      <trkpt lat="45.79705" lon="4.71837">
        <ele>285.65329</ele>
        <time>2023-07-10T16:09:05.000Z</time>
      </trkpt>
      <trkpt lat="45.79713" lon="4.71827">
        <ele>285.4606</ele>
        <time>2023-07-10T16:09:06.000Z</time>
      </trkpt>
      <trkpt lat="45.79722" lon="4.7182">
        <ele>285.23804</ele>
        <time>2023-07-10T16:09:07.000Z</time>
      </trkpt>
      <trkpt lat="45.79731" lon="4.71812">
        <ele>284.97076</ele>
        <time>2023-07-10T16:09:08.000Z</time>
      </trkpt>
      <trkpt lat="45.79741" lon="4.71808">
        <ele>284.71136</ele>
        <time>2023-07-10T16:09:09.000Z</time>
      </trkpt>
      <trkpt lat="45.79751" lon="4.71803">
        <ele>284.53464</ele>
        <time>2023-07-10T16:09:10.000Z</time>
      </trkpt>
      <trkpt lat="45.7976" lon="4.71801">
        <ele>284.40585</ele>
        <time>2023-07-10T16:09:11.000Z</time>
      </trkpt>
      <trkpt lat="45.79768" lon="4.71797">
        <ele>284.27109</ele>
        <time>2023-07-10T16:09:12.000Z</time>
      </trkpt>
      <trkpt lat="45.79775" lon="4.71794">
        <ele>284.12897</ele>
        <time>2023-07-10T16:09:13.000Z</time>
      </trkpt>
      <trkpt lat="45.79782" lon="4.71791">
        <ele>284.00043</ele>
        <time>2023-07-10T16:09:14.000Z</time>
      </trkpt>
      <trkpt lat="45.79789" lon="4.71788">
        <ele>283.90262</ele>
        <time>2023-07-10T16:09:15.000Z</time>
      </trkpt>
      <trkpt lat="45.79795" lon="4.71784">
        <ele>283.79471</ele>
        <time>2023-07-10T16:09:16.000Z</time>
      </trkpt>
      <trkpt lat="45.79801" lon="4.71781">
        <ele>283.70557</ele>
        <time>2023-07-10T16:09:17.000Z</time>
      </trkpt>
      <trkpt lat="45.79807" lon="4.71779">
        <ele>283.47595</ele>
        <time>2023-07-10T16:09:18.000Z</time>
      </trkpt>
      <trkpt lat="45.79813" lon="4.71778">
        <ele>283.29663</ele>
        <time>2023-07-10T16:09:19.000Z</time>
      </trkpt>
      <trkpt lat="45.79819" lon="4.7178">
        <ele>283.16437</ele>
        <time>2023-07-10T16:09:20.000Z</time>
      </trkpt>
      <trkpt lat="45.79825" lon="4.71781">
        <ele>283.07352</ele>
        <time>2023-07-10T16:09:21.000Z</time>
      </trkpt>
      <trkpt lat="45.79831" lon="4.71783">
        <ele>282.99652</ele>
        <time>2023-07-10T16:09:22.000Z</time>
      </trkpt>
      <trkpt lat="45.79837" lon="4.71786">
        <ele>282.97595</ele>
        <time>2023-07-10T16:09:23.000Z</time>
      </trkpt>
      <trkpt lat="45.79844" lon="4.71788">
        <ele>282.97626</ele>
        <time>2023-07-10T16:09:24.000Z</time>
      </trkpt>
      <trkpt lat="45.7985" lon="4.71788">
        <ele>283.05676</ele>
        <time>2023-07-10T16:09:25.000Z</time>
      </trkpt>
      <trkpt lat="45.79856" lon="4.71788">
        <ele>283.23993</ele>
        <time>2023-07-10T16:09:26.000Z</time>
      </trkpt>
      <trkpt lat="45.79862" lon="4.71786">
        <ele>283.44641</ele>
        <time>2023-07-10T16:09:27.000Z</time>
      </trkpt>
      <trkpt lat="45.79867" lon="4.71783">
        <ele>283.63684</ele>
        <time>2023-07-10T16:09:28.000Z</time>
      </trkpt>
      <trkpt lat="45.79872" lon="4.7178">
        <ele>283.85022</ele>
        <time>2023-07-10T16:09:29.000Z</time>
      </trkpt>
      <trkpt lat="45.79878" lon="4.71774">
        <ele>284.13837</ele>
        <time>2023-07-10T16:09:30.000Z</time>
      </trkpt>
      <trkpt lat="45.79882" lon="4.71769">
        <ele>284.37863</ele>
        <time>2023-07-10T16:09:31.000Z</time>
      </trkpt>
      <trkpt lat="45.79886" lon="4.71763">
        <ele>284.13422</ele>
        <time>2023-07-10T16:09:32.000Z</time>
      </trkpt>
      <trkpt lat="45.7989" lon="4.71758">
        <ele>284.0166</ele>
        <time>2023-07-10T16:09:33.000Z</time>
      </trkpt>
      <trkpt lat="45.79894" lon="4.71753">
        <ele>283.9111</ele>
        <time>2023-07-10T16:09:34.000Z</time>
      </trkpt>
      <trkpt lat="45.79897" lon="4.71746">
        <ele>283.83563</ele>
        <time>2023-07-10T16:09:35.000Z</time>
      </trkpt>
      <trkpt lat="45.79901" lon="4.71741">
        <ele>283.76624</ele>
        <time>2023-07-10T16:09:36.000Z</time>
      </trkpt>
      <trkpt lat="45.79905" lon="4.71737">
        <ele>283.71906</ele>
        <time>2023-07-10T16:09:37.000Z</time>
      </trkpt>
      <trkpt lat="45.7991" lon="4.71731">
        <ele>283.64337</ele>
        <time>2023-07-10T16:09:38.000Z</time>
      </trkpt>
      <trkpt lat="45.79915" lon="4.71725">
        <ele>283.55707</ele>
        <time>2023-07-10T16:09:39.000Z</time>
      </trkpt>
      <trkpt lat="45.79919" lon="4.71719">
        <ele>283.46378</ele>
        <time>2023-07-10T16:09:40.000Z</time>
      </trkpt>
      <trkpt lat="45.79924" lon="4.71715">
        <ele>283.35925</ele>
        <time>2023-07-10T16:09:41.000Z</time>
      </trkpt>
      <trkpt lat="45.7993" lon="4.71711">
        <ele>283.29553</ele>
        <time>2023-07-10T16:09:42.000Z</time>
      </trkpt>
      <trkpt lat="45.79936" lon="4.7171">
        <ele>283.22922</ele>
        <time>2023-07-10T16:09:43.000Z</time>
      </trkpt>
      <trkpt lat="45.79942" lon="4.71712">
        <ele>283.20126</ele>
        <time>2023-07-10T16:09:44.000Z</time>
      </trkpt>
      <trkpt lat="45.79947" lon="4.71711">
        <ele>283.11166</ele>
        <time>2023-07-10T16:09:45.000Z</time>
      </trkpt>
      <trkpt lat="45.79954" lon="4.71709">
        <ele>282.93643</ele>
        <time>2023-07-10T16:09:46.000Z</time>
      </trkpt>
      <trkpt lat="45.79959" lon="4.71706">
        <ele>282.776</ele>
        <time>2023-07-10T16:09:47.000Z</time>
      </trkpt>
      <trkpt lat="45.79965" lon="4.71703">
        <ele>282.65753</ele>
        <time>2023-07-10T16:09:48.000Z</time>
      </trkpt>
      <trkpt lat="45.79969" lon="4.71698">
        <ele>282.79492</ele>
        <time>2023-07-10T16:09:49.000Z</time>
      </trkpt>
      <trkpt lat="45.79972" lon="4.71691">
        <ele>282.83295</ele>
        <time>2023-07-10T16:09:50.000Z</time>
      </trkpt>
      <trkpt lat="45.79977" lon="4.71684">
        <ele>282.90137</ele>
        <time>2023-07-10T16:09:51.000Z</time>
      </trkpt>
      <trkpt lat="45.7998" lon="4.71678">
        <ele>283.49683</ele>
        <time>2023-07-10T16:09:52.000Z</time>
      </trkpt>
      <trkpt lat="45.79985" lon="4.71672">
        <ele>283.98358</ele>
        <time>2023-07-10T16:09:53.000Z</time>
      </trkpt>
      <trkpt lat="45.79989" lon="4.71666">
        <ele>284.45883</ele>
        <time>2023-07-10T16:09:54.000Z</time>
      </trkpt>
      <trkpt lat="45.79993" lon="4.71659">
        <ele>284.87323</ele>
        <time>2023-07-10T16:09:55.000Z</time>
      </trkpt>
      <trkpt lat="45.79998" lon="4.71653">
        <ele>285.26022</ele>
        <time>2023-07-10T16:09:56.000Z</time>
      </trkpt>
      <trkpt lat="45.80002" lon="4.71647">
        <ele>285.61316</ele>
        <time>2023-07-10T16:09:57.000Z</time>
      </trkpt>
      <trkpt lat="45.80006" lon="4.71641">
        <ele>285.96399</ele>
        <time>2023-07-10T16:09:58.000Z</time>
      </trkpt>
      <trkpt lat="45.8001" lon="4.71635">
        <ele>286.28827</ele>
        <time>2023-07-10T16:09:59.000Z</time>
      </trkpt>
      <trkpt lat="45.80014" lon="4.71629">
        <ele>286.58661</ele>
        <time>2023-07-10T16:10:00.000Z</time>
      </trkpt>
      <trkpt lat="45.80018" lon="4.71623">
        <ele>286.88177</ele>
        <time>2023-07-10T16:10:01.000Z</time>
      </trkpt>
      <trkpt lat="45.80021" lon="4.71618">
        <ele>287.13132</ele>
        <time>2023-07-10T16:10:02.000Z</time>
      </trkpt>
      <trkpt lat="45.80026" lon="4.71614">
        <ele>287.3551</ele>
        <time>2023-07-10T16:10:03.000Z</time>
      </trkpt>
      <trkpt lat="45.80029" lon="4.71609">
        <ele>287.54623</ele>
        <time>2023-07-10T16:10:04.000Z</time>
      </trkpt>
      <trkpt lat="45.80032" lon="4.71604">
        <ele>287.72083</ele>
        <time>2023-07-10T16:10:05.000Z</time>
      </trkpt>
      <trkpt lat="45.80036" lon="4.71601">
        <ele>287.88553</ele>
        <time>2023-07-10T16:10:06.000Z</time>
      </trkpt>
      <trkpt lat="45.80039" lon="4.71596">
        <ele>288.04288</ele>
        <time>2023-07-10T16:10:07.000Z</time>
      </trkpt>
      <trkpt lat="45.80042" lon="4.71593">
        <ele>288.16476</ele>
        <time>2023-07-10T16:10:08.000Z</time>
      </trkpt>
      <trkpt lat="45.80046" lon="4.71588">
        <ele>288.0354</ele>
        <time>2023-07-10T16:10:09.000Z</time>
      </trkpt>
      <trkpt lat="45.80049" lon="4.71584">
        <ele>288.05099</ele>
        <time>2023-07-10T16:10:10.000Z</time>
      </trkpt>
      <trkpt lat="45.80051" lon="4.7158">
        <ele>288.07056</ele>
        <time>2023-07-10T16:10:11.000Z</time>
      </trkpt>
      <trkpt lat="45.80055" lon="4.71576">
        <ele>287.58109</ele>
        <time>2023-07-10T16:10:12.000Z</time>
      </trkpt>
      <trkpt lat="45.80058" lon="4.71571">
        <ele>287.15845</ele>
        <time>2023-07-10T16:10:13.000Z</time>
      </trkpt>
      <trkpt lat="45.80061" lon="4.71566">
        <ele>286.72836</ele>
        <time>2023-07-10T16:10:14.000Z</time>
      </trkpt>
      <trkpt lat="45.80063" lon="4.7156">
        <ele>286.3172</ele>
        <time>2023-07-10T16:10:15.000Z</time>
      </trkpt>
      <trkpt lat="45.80066" lon="4.71556">
        <ele>285.92441</ele>
        <time>2023-07-10T16:10:16.000Z</time>
      </trkpt>
      <trkpt lat="45.80069" lon="4.71551">
        <ele>285.53082</ele>
        <time>2023-07-10T16:10:17.000Z</time>
      </trkpt>
      <trkpt lat="45.80071" lon="4.71547">
        <ele>285.12988</ele>
        <time>2023-07-10T16:10:18.000Z</time>
      </trkpt>
      <trkpt lat="45.80074" lon="4.71545">
        <ele>284.7554</ele>
        <time>2023-07-10T16:10:19.000Z</time>
      </trkpt>
      <trkpt lat="45.80077" lon="4.71541">
        <ele>284.64291</ele>
        <time>2023-07-10T16:10:20.000Z</time>
      </trkpt>
      <trkpt lat="45.80079" lon="4.71537">
        <ele>284.56046</ele>
        <time>2023-07-10T16:10:21.000Z</time>
      </trkpt>
      <trkpt lat="45.80082" lon="4.71533">
        <ele>284.49127</ele>
        <time>2023-07-10T16:10:22.000Z</time>
      </trkpt>
      <trkpt lat="45.80085" lon="4.7153">
        <ele>284.43768</ele>
        <time>2023-07-10T16:10:23.000Z</time>
      </trkpt>
      <trkpt lat="45.80089" lon="4.71527">
        <ele>284.39429</ele>
        <time>2023-07-10T16:10:24.000Z</time>
      </trkpt>
      <trkpt lat="45.80093" lon="4.71523">
        <ele>284.3721</ele>
        <time>2023-07-10T16:10:25.000Z</time>
      </trkpt>
      <trkpt lat="45.80096" lon="4.7152">
        <ele>284.37677</ele>
        <time>2023-07-10T16:10:26.000Z</time>
      </trkpt>
      <trkpt lat="45.801" lon="4.71517">
        <ele>284.35959</ele>
        <time>2023-07-10T16:10:27.000Z</time>
      </trkpt>
      <trkpt lat="45.80103" lon="4.71514">
        <ele>284.36261</ele>
        <time>2023-07-10T16:10:28.000Z</time>
      </trkpt>
      <trkpt lat="45.80107" lon="4.71511">
        <ele>284.38885</ele>
        <time>2023-07-10T16:10:29.000Z</time>
      </trkpt>
      <trkpt lat="45.8011" lon="4.71508">
        <ele>284.24896</ele>
        <time>2023-07-10T16:10:30.000Z</time>
      </trkpt>
      <trkpt lat="45.80114" lon="4.71505">
        <ele>284.11401</ele>
        <time>2023-07-10T16:10:31.000Z</time>
      </trkpt>
      <trkpt lat="45.80117" lon="4.71501">
        <ele>284.4798</ele>
        <time>2023-07-10T16:10:32.000Z</time>
      </trkpt>
      <trkpt lat="45.80121" lon="4.71498">
        <ele>284.76886</ele>
        <time>2023-07-10T16:10:33.000Z</time>
      </trkpt>
      <trkpt lat="45.80124" lon="4.71494">
        <ele>285.06247</ele>
        <time>2023-07-10T16:10:34.000Z</time>
      </trkpt>
      <trkpt lat="45.80128" lon="4.71491">
        <ele>285.35803</ele>
        <time>2023-07-10T16:10:35.000Z</time>
      </trkpt>
      <trkpt lat="45.80131" lon="4.71488">
        <ele>285.64011</ele>
        <time>2023-07-10T16:10:36.000Z</time>
      </trkpt>
      <trkpt lat="45.80134" lon="4.71485">
        <ele>285.94821</ele>
        <time>2023-07-10T16:10:37.000Z</time>
      </trkpt>
      <trkpt lat="45.80138" lon="4.71482">
        <ele>286.23969</ele>
        <time>2023-07-10T16:10:38.000Z</time>
      </trkpt>
      <trkpt lat="45.80142" lon="4.71479">
        <ele>287.4577</ele>
        <time>2023-07-10T16:10:39.000Z</time>
      </trkpt>
      <trkpt lat="45.80146" lon="4.71476">
        <ele>288.01447</ele>
        <time>2023-07-10T16:10:40.000Z</time>
      </trkpt>
      <trkpt lat="45.8015" lon="4.71471">
        <ele>288.5369</ele>
        <time>2023-07-10T16:10:41.000Z</time>
      </trkpt>
      <trkpt lat="45.80154" lon="4.71467">
        <ele>289.04977</ele>
        <time>2023-07-10T16:10:42.000Z</time>
      </trkpt>
      <trkpt lat="45.80159" lon="4.71465">
        <ele>289.82858</ele>
        <time>2023-07-10T16:10:43.000Z</time>
      </trkpt>
      <trkpt lat="45.80163" lon="4.71461">
        <ele>289.86649</ele>
        <time>2023-07-10T16:10:44.000Z</time>
      </trkpt>
      <trkpt lat="45.80166" lon="4.71456">
        <ele>290.06775</ele>
        <time>2023-07-10T16:10:45.000Z</time>
      </trkpt>
      <trkpt lat="45.8017" lon="4.71453">
        <ele>290.23648</ele>
        <time>2023-07-10T16:10:46.000Z</time>
      </trkpt>
      <trkpt lat="45.80173" lon="4.7145">
        <ele>290.43512</ele>
        <time>2023-07-10T16:10:47.000Z</time>
      </trkpt>
      <trkpt lat="45.80177" lon="4.71447">
        <ele>290.65002</ele>
        <time>2023-07-10T16:10:48.000Z</time>
      </trkpt>
      <trkpt lat="45.80179" lon="4.71442">
        <ele>290.84647</ele>
        <time>2023-07-10T16:10:49.000Z</time>
      </trkpt>
      <trkpt lat="45.80182" lon="4.71437">
        <ele>291.04364</ele>
        <time>2023-07-10T16:10:50.000Z</time>
      </trkpt>
      <trkpt lat="45.80185" lon="4.71433">
        <ele>291.26013</ele>
        <time>2023-07-10T16:10:51.000Z</time>
      </trkpt>
      <trkpt lat="45.80188" lon="4.71429">
        <ele>291.47772</ele>
        <time>2023-07-10T16:10:52.000Z</time>
      </trkpt>
      <trkpt lat="45.80192" lon="4.71426">
        <ele>291.70337</ele>
        <time>2023-07-10T16:10:53.000Z</time>
      </trkpt>
      <trkpt lat="45.80195" lon="4.71422">
        <ele>291.91949</ele>
        <time>2023-07-10T16:10:54.000Z</time>
      </trkpt>
      <trkpt lat="45.80198" lon="4.71419">
        <ele>292.1348</ele>
        <time>2023-07-10T16:10:55.000Z</time>
      </trkpt>
      <trkpt lat="45.80202" lon="4.71417">
        <ele>292.34204</ele>
        <time>2023-07-10T16:10:56.000Z</time>
      </trkpt>
      <trkpt lat="45.80205" lon="4.71416">
        <ele>292.54099</ele>
        <time>2023-07-10T16:10:57.000Z</time>
      </trkpt>
      <trkpt lat="45.80209" lon="4.71416">
        <ele>293.07965</ele>
        <time>2023-07-10T16:10:58.000Z</time>
      </trkpt>
      <trkpt lat="45.80213" lon="4.71414">
        <ele>292.61331</ele>
        <time>2023-07-10T16:10:59.000Z</time>
      </trkpt>
      <trkpt lat="45.80215" lon="4.7141">
        <ele>292.5119</ele>
        <time>2023-07-10T16:11:00.000Z</time>
      </trkpt>
      <trkpt lat="45.80218" lon="4.71405">
        <ele>292.42212</ele>
        <time>2023-07-10T16:11:01.000Z</time>
      </trkpt>
      <trkpt lat="45.8022" lon="4.714">
        <ele>292.34888</ele>
        <time>2023-07-10T16:11:02.000Z</time>
      </trkpt>
      <trkpt lat="45.80223" lon="4.71395">
        <ele>292.03879</ele>
        <time>2023-07-10T16:11:03.000Z</time>
      </trkpt>
      <trkpt lat="45.80225" lon="4.7139">
        <ele>292.50436</ele>
        <time>2023-07-10T16:11:04.000Z</time>
      </trkpt>
      <trkpt lat="45.80227" lon="4.71386">
        <ele>292.785</ele>
        <time>2023-07-10T16:11:05.000Z</time>
      </trkpt>
      <trkpt lat="45.8023" lon="4.71381">
        <ele>293.08551</ele>
        <time>2023-07-10T16:11:06.000Z</time>
      </trkpt>
      <trkpt lat="45.80234" lon="4.71375">
        <ele>293.44547</ele>
        <time>2023-07-10T16:11:07.000Z</time>
      </trkpt>
      <trkpt lat="45.80236" lon="4.71369">
        <ele>293.80865</ele>
        <time>2023-07-10T16:11:08.000Z</time>
      </trkpt>
      <trkpt lat="45.8024" lon="4.71365">
        <ele>294.19818</ele>
        <time>2023-07-10T16:11:09.000Z</time>
      </trkpt>
      <trkpt lat="45.80243" lon="4.7136">
        <ele>294.6037</ele>
        <time>2023-07-10T16:11:10.000Z</time>
      </trkpt>
      <trkpt lat="45.80247" lon="4.71355">
        <ele>295.01093</ele>
        <time>2023-07-10T16:11:11.000Z</time>
      </trkpt>
      <trkpt lat="45.80251" lon="4.71351">
        <ele>295.44879</ele>
        <time>2023-07-10T16:11:12.000Z</time>
      </trkpt>
      <trkpt lat="45.80255" lon="4.71345">
        <ele>295.99356</ele>
        <time>2023-07-10T16:11:13.000Z</time>
      </trkpt>
      <trkpt lat="45.80259" lon="4.7134">
        <ele>296.4364</ele>
        <time>2023-07-10T16:11:14.000Z</time>
      </trkpt>
      <trkpt lat="45.80262" lon="4.71334">
        <ele>296.87921</ele>
        <time>2023-07-10T16:11:15.000Z</time>
      </trkpt>
      <trkpt lat="45.80266" lon="4.71331">
        <ele>297.37451</ele>
        <time>2023-07-10T16:11:16.000Z</time>
      </trkpt>
      <trkpt lat="45.8027" lon="4.7133">
        <ele>297.9014</ele>
        <time>2023-07-10T16:11:17.000Z</time>
      </trkpt>
      <trkpt lat="45.80274" lon="4.71332">
        <ele>298.13547</ele>
        <time>2023-07-10T16:11:18.000Z</time>
      </trkpt>
      <trkpt lat="45.80277" lon="4.71335">
        <ele>298.4213</ele>
        <time>2023-07-10T16:11:19.000Z</time>
      </trkpt>
      <trkpt lat="45.8028" lon="4.7134">
        <ele>298.77621</ele>
        <time>2023-07-10T16:11:20.000Z</time>
      </trkpt>
      <trkpt lat="45.80283" lon="4.71342">
        <ele>299.12973</ele>
        <time>2023-07-10T16:11:21.000Z</time>
      </trkpt>
      <trkpt lat="45.80287" lon="4.71347">
        <ele>299.51883</ele>
        <time>2023-07-10T16:11:22.000Z</time>
      </trkpt>
      <trkpt lat="45.80291" lon="4.71351">
        <ele>299.87424</ele>
        <time>2023-07-10T16:11:23.000Z</time>
      </trkpt>
      <trkpt lat="45.80296" lon="4.71353">
        <ele>300.38593</ele>
        <time>2023-07-10T16:11:24.000Z</time>
      </trkpt>
      <trkpt lat="45.80299" lon="4.71355">
        <ele>301.19931</ele>
        <time>2023-07-10T16:11:25.000Z</time>
      </trkpt>
      <trkpt lat="45.80304" lon="4.71358">
        <ele>302.18515</ele>
        <time>2023-07-10T16:11:26.000Z</time>
      </trkpt>
      <trkpt lat="45.8031" lon="4.71359">
        <ele>302.53043</ele>
        <time>2023-07-10T16:11:27.000Z</time>
      </trkpt>
      <trkpt lat="45.80316" lon="4.71363">
        <ele>302.76941</ele>
        <time>2023-07-10T16:11:28.000Z</time>
      </trkpt>
      <trkpt lat="45.80322" lon="4.71364">
        <ele>303.24054</ele>
        <time>2023-07-10T16:11:29.000Z</time>
      </trkpt>
      <trkpt lat="45.80327" lon="4.71365">
        <ele>303.94049</ele>
        <time>2023-07-10T16:11:30.000Z</time>
      </trkpt>
      <trkpt lat="45.80333" lon="4.71367">
        <ele>304.84375</ele>
        <time>2023-07-10T16:11:31.000Z</time>
      </trkpt>
      <trkpt lat="45.80338" lon="4.71371">
        <ele>305.01376</ele>
        <time>2023-07-10T16:11:32.000Z</time>
      </trkpt>
      <trkpt lat="45.80344" lon="4.71373">
        <ele>305.10455</ele>
        <time>2023-07-10T16:11:33.000Z</time>
      </trkpt>
      <trkpt lat="45.80349" lon="4.71375">
        <ele>305.18759</ele>
        <time>2023-07-10T16:11:34.000Z</time>
      </trkpt>
      <trkpt lat="45.80354" lon="4.71377">
        <ele>305.42767</ele>
        <time>2023-07-10T16:11:35.000Z</time>
      </trkpt>
      <trkpt lat="45.80359" lon="4.71379">
        <ele>305.73038</ele>
        <time>2023-07-10T16:11:36.000Z</time>
      </trkpt>
      <trkpt lat="45.80365" lon="4.71381">
        <ele>305.92902</ele>
        <time>2023-07-10T16:11:37.000Z</time>
      </trkpt>
      <trkpt lat="45.8037" lon="4.71382">
        <ele>306.06906</ele>
        <time>2023-07-10T16:11:38.000Z</time>
      </trkpt>
      <trkpt lat="45.80376" lon="4.71383">
        <ele>306.18137</ele>
        <time>2023-07-10T16:11:39.000Z</time>
      </trkpt>
      <trkpt lat="45.80382" lon="4.71384">
        <ele>306.30499</ele>
        <time>2023-07-10T16:11:40.000Z</time>
      </trkpt>
      <trkpt lat="45.80387" lon="4.71386">
        <ele>306.4584</ele>
        <time>2023-07-10T16:11:41.000Z</time>
      </trkpt>
      <trkpt lat="45.80393" lon="4.71388">
        <ele>306.62332</ele>
        <time>2023-07-10T16:11:42.000Z</time>
      </trkpt>
      <trkpt lat="45.80399" lon="4.71389">
        <ele>306.80707</ele>
        <time>2023-07-10T16:11:43.000Z</time>
      </trkpt>
      <trkpt lat="45.80405" lon="4.71391">
        <ele>306.83328</ele>
        <time>2023-07-10T16:11:44.000Z</time>
      </trkpt>
      <trkpt lat="45.80411" lon="4.71393">
        <ele>306.58832</ele>
        <time>2023-07-10T16:11:45.000Z</time>
      </trkpt>
      <trkpt lat="45.80416" lon="4.71394">
        <ele>306.17203</ele>
        <time>2023-07-10T16:11:46.000Z</time>
      </trkpt>
      <trkpt lat="45.80422" lon="4.71396">
        <ele>306.34177</ele>
        <time>2023-07-10T16:11:47.000Z</time>
      </trkpt>
      <trkpt lat="45.80428" lon="4.71397">
        <ele>306.62213</ele>
        <time>2023-07-10T16:11:48.000Z</time>
      </trkpt>
      <trkpt lat="45.80433" lon="4.71399">
        <ele>306.64539</ele>
        <time>2023-07-10T16:11:49.000Z</time>
      </trkpt>
      <trkpt lat="45.80439" lon="4.714">
        <ele>306.40656</ele>
        <time>2023-07-10T16:11:50.000Z</time>
      </trkpt>
      <trkpt lat="45.80445" lon="4.71403">
        <ele>305.98154</ele>
        <time>2023-07-10T16:11:51.000Z</time>
      </trkpt>
      <trkpt lat="45.8045" lon="4.71404">
        <ele>306.28311</ele>
        <time>2023-07-10T16:11:52.000Z</time>
      </trkpt>
      <trkpt lat="45.80455" lon="4.71405">
        <ele>306.59167</ele>
        <time>2023-07-10T16:11:53.000Z</time>
      </trkpt>
      <trkpt lat="45.80461" lon="4.71407">
        <ele>307.06085</ele>
        <time>2023-07-10T16:11:54.000Z</time>
      </trkpt>
      <trkpt lat="45.80466" lon="4.71409">
        <ele>307.38422</ele>
        <time>2023-07-10T16:11:55.000Z</time>
      </trkpt>
      <trkpt lat="45.80472" lon="4.7141">
        <ele>307.60815</ele>
        <time>2023-07-10T16:11:56.000Z</time>
      </trkpt>
      <trkpt lat="45.80478" lon="4.71412">
        <ele>307.93594</ele>
        <time>2023-07-10T16:11:57.000Z</time>
      </trkpt>
      <trkpt lat="45.80482" lon="4.71415">
        <ele>308.31464</ele>
        <time>2023-07-10T16:11:58.000Z</time>
      </trkpt>
      <trkpt lat="45.80488" lon="4.71416">
        <ele>308.76987</ele>
        <time>2023-07-10T16:11:59.000Z</time>
      </trkpt>
      <trkpt lat="45.80493" lon="4.71416">
        <ele>309.21567</ele>
        <time>2023-07-10T16:12:00.000Z</time>
      </trkpt>
      <trkpt lat="45.80499" lon="4.71418">
        <ele>309.64557</ele>
        <time>2023-07-10T16:12:01.000Z</time>
      </trkpt>
      <trkpt lat="45.80505" lon="4.7142">
        <ele>310.01715</ele>
        <time>2023-07-10T16:12:02.000Z</time>
      </trkpt>
      <trkpt lat="45.8051" lon="4.71422">
        <ele>310.37085</ele>
        <time>2023-07-10T16:12:03.000Z</time>
      </trkpt>
      <trkpt lat="45.80516" lon="4.71423">
        <ele>310.72815</ele>
        <time>2023-07-10T16:12:04.000Z</time>
      </trkpt>
      <trkpt lat="45.80521" lon="4.71424">
        <ele>311.07831</ele>
        <time>2023-07-10T16:12:05.000Z</time>
      </trkpt>
      <trkpt lat="45.80526" lon="4.71425">
        <ele>311.41986</ele>
        <time>2023-07-10T16:12:06.000Z</time>
      </trkpt>
      <trkpt lat="45.80532" lon="4.71425">
        <ele>311.7421</ele>
        <time>2023-07-10T16:12:07.000Z</time>
      </trkpt>
      <trkpt lat="45.80537" lon="4.71425">
        <ele>312.07941</ele>
        <time>2023-07-10T16:12:08.000Z</time>
      </trkpt>
      <trkpt lat="45.80543" lon="4.71426">
        <ele>312.43521</ele>
        <time>2023-07-10T16:12:09.000Z</time>
      </trkpt>
      <trkpt lat="45.80548" lon="4.71427">
        <ele>312.82736</ele>
        <time>2023-07-10T16:12:10.000Z</time>
      </trkpt>
      <trkpt lat="45.80552" lon="4.71427">
        <ele>313.18332</ele>
        <time>2023-07-10T16:12:11.000Z</time>
      </trkpt>
      <trkpt lat="45.80558" lon="4.71428">
        <ele>313.50735</ele>
        <time>2023-07-10T16:12:12.000Z</time>
      </trkpt>
      <trkpt lat="45.80563" lon="4.71429">
        <ele>313.77921</ele>
        <time>2023-07-10T16:12:13.000Z</time>
      </trkpt>
      <trkpt lat="45.80568" lon="4.71429">
        <ele>314.01462</ele>
        <time>2023-07-10T16:12:14.000Z</time>
      </trkpt>
      <trkpt lat="45.80573" lon="4.71429">
        <ele>314.23755</ele>
        <time>2023-07-10T16:12:15.000Z</time>
      </trkpt>
      <trkpt lat="45.80577" lon="4.7143">
        <ele>314.49628</ele>
        <time>2023-07-10T16:12:16.000Z</time>
      </trkpt>
      <trkpt lat="45.80582" lon="4.7143">
        <ele>314.72028</ele>
        <time>2023-07-10T16:12:17.000Z</time>
      </trkpt>
      <trkpt lat="45.80587" lon="4.71431">
        <ele>314.92755</ele>
        <time>2023-07-10T16:12:18.000Z</time>
      </trkpt>
      <trkpt lat="45.80591" lon="4.71432">
        <ele>315.10406</ele>
        <time>2023-07-10T16:12:19.000Z</time>
      </trkpt>
      <trkpt lat="45.80595" lon="4.71432">
        <ele>315.2514</ele>
        <time>2023-07-10T16:12:20.000Z</time>
      </trkpt>
      <trkpt lat="45.80599" lon="4.71433">
        <ele>315.3996</ele>
        <time>2023-07-10T16:12:21.000Z</time>
      </trkpt>
      <trkpt lat="45.80605" lon="4.71434">
        <ele>315.53116</ele>
        <time>2023-07-10T16:12:22.000Z</time>
      </trkpt>
      <trkpt lat="45.8061" lon="4.71434">
        <ele>315.66345</ele>
        <time>2023-07-10T16:12:23.000Z</time>
      </trkpt>
      <trkpt lat="45.80615" lon="4.71433">
        <ele>315.7894</ele>
        <time>2023-07-10T16:12:24.000Z</time>
      </trkpt>
      <trkpt lat="45.80619" lon="4.7143">
        <ele>315.91022</ele>
        <time>2023-07-10T16:12:25.000Z</time>
      </trkpt>
      <trkpt lat="45.80622" lon="4.71428">
        <ele>316.12607</ele>
        <time>2023-07-10T16:12:26.000Z</time>
      </trkpt>
      <trkpt lat="45.80627" lon="4.71427">
        <ele>316.2583</ele>
        <time>2023-07-10T16:12:27.000Z</time>
      </trkpt>
      <trkpt lat="45.80632" lon="4.71425">
        <ele>316.39618</ele>
        <time>2023-07-10T16:12:28.000Z</time>
      </trkpt>
      <trkpt lat="45.80637" lon="4.71424">
        <ele>316.6991</ele>
        <time>2023-07-10T16:12:29.000Z</time>
      </trkpt>
      <trkpt lat="45.80641" lon="4.71422">
        <ele>317.14252</ele>
        <time>2023-07-10T16:12:30.000Z</time>
      </trkpt>
      <trkpt lat="45.80645" lon="4.71421">
        <ele>317.60199</ele>
        <time>2023-07-10T16:12:31.000Z</time>
      </trkpt>
      <trkpt lat="45.8065" lon="4.7142">
        <ele>317.64648</ele>
        <time>2023-07-10T16:12:32.000Z</time>
      </trkpt>
      <trkpt lat="45.80654" lon="4.71419">
        <ele>317.80777</ele>
        <time>2023-07-10T16:12:33.000Z</time>
      </trkpt>
      <trkpt lat="45.80659" lon="4.71417">
        <ele>317.9808</ele>
        <time>2023-07-10T16:12:34.000Z</time>
      </trkpt>
      <trkpt lat="45.80663" lon="4.71414">
        <ele>318.17093</ele>
        <time>2023-07-10T16:12:35.000Z</time>
      </trkpt>
      <trkpt lat="45.80667" lon="4.71413">
        <ele>318.30157</ele>
        <time>2023-07-10T16:12:36.000Z</time>
      </trkpt>
      <trkpt lat="45.80672" lon="4.71411">
        <ele>318.43713</ele>
        <time>2023-07-10T16:12:37.000Z</time>
      </trkpt>
      <trkpt lat="45.80677" lon="4.7141">
        <ele>318.55972</ele>
        <time>2023-07-10T16:12:38.000Z</time>
      </trkpt>
      <trkpt lat="45.80682" lon="4.71409">
        <ele>318.70569</ele>
        <time>2023-07-10T16:12:39.000Z</time>
      </trkpt>
      <trkpt lat="45.80686" lon="4.71407">
        <ele>318.84998</ele>
        <time>2023-07-10T16:12:40.000Z</time>
      </trkpt>
      <trkpt lat="45.80691" lon="4.71406">
        <ele>318.9873</ele>
        <time>2023-07-10T16:12:41.000Z</time>
      </trkpt>
      <trkpt lat="45.80695" lon="4.71404">
        <ele>319.15137</ele>
        <time>2023-07-10T16:12:42.000Z</time>
      </trkpt>
      <trkpt lat="45.80699" lon="4.71402">
        <ele>319.33414</ele>
        <time>2023-07-10T16:12:43.000Z</time>
      </trkpt>
      <trkpt lat="45.80704" lon="4.714">
        <ele>319.4855</ele>
        <time>2023-07-10T16:12:44.000Z</time>
      </trkpt>
      <trkpt lat="45.80708" lon="4.71397">
        <ele>319.64136</ele>
        <time>2023-07-10T16:12:45.000Z</time>
      </trkpt>
      <trkpt lat="45.80713" lon="4.71395">
        <ele>319.71814</ele>
        <time>2023-07-10T16:12:46.000Z</time>
      </trkpt>
      <trkpt lat="45.80717" lon="4.71394">
        <ele>319.89511</ele>
        <time>2023-07-10T16:12:47.000Z</time>
      </trkpt>
      <trkpt lat="45.80722" lon="4.71392">
        <ele>320.03976</ele>
        <time>2023-07-10T16:12:48.000Z</time>
      </trkpt>
      <trkpt lat="45.80726" lon="4.71389">
        <ele>320.02521</ele>
        <time>2023-07-10T16:12:49.000Z</time>
      </trkpt>
      <trkpt lat="45.80731" lon="4.71388">
        <ele>319.86044</ele>
        <time>2023-07-10T16:12:50.000Z</time>
      </trkpt>
      <trkpt lat="45.80736" lon="4.71386">
        <ele>319.70242</ele>
        <time>2023-07-10T16:12:51.000Z</time>
      </trkpt>
      <trkpt lat="45.80741" lon="4.71384">
        <ele>319.9621</ele>
        <time>2023-07-10T16:12:52.000Z</time>
      </trkpt>
      <trkpt lat="45.80746" lon="4.71382">
        <ele>320.12805</ele>
        <time>2023-07-10T16:12:53.000Z</time>
      </trkpt>
      <trkpt lat="45.8075" lon="4.71381">
        <ele>320.26416</ele>
        <time>2023-07-10T16:12:54.000Z</time>
      </trkpt>
      <trkpt lat="45.80755" lon="4.71379">
        <ele>320.40594</ele>
        <time>2023-07-10T16:12:55.000Z</time>
      </trkpt>
      <trkpt lat="45.80759" lon="4.71378">
        <ele>320.59772</ele>
        <time>2023-07-10T16:12:56.000Z</time>
      </trkpt>
      <trkpt lat="45.80764" lon="4.71376">
        <ele>320.78656</ele>
        <time>2023-07-10T16:12:57.000Z</time>
      </trkpt>
      <trkpt lat="45.80768" lon="4.71373">
        <ele>321.01697</ele>
        <time>2023-07-10T16:12:58.000Z</time>
      </trkpt>
      <trkpt lat="45.80773" lon="4.71371">
        <ele>321.24469</ele>
        <time>2023-07-10T16:12:59.000Z</time>
      </trkpt>
      <trkpt lat="45.80777" lon="4.71368">
        <ele>321.69165</ele>
        <time>2023-07-10T16:13:00.000Z</time>
      </trkpt>
      <trkpt lat="45.80782" lon="4.71366">
        <ele>322.15317</ele>
        <time>2023-07-10T16:13:01.000Z</time>
      </trkpt>
      <trkpt lat="45.80786" lon="4.71363">
        <ele>322.74808</ele>
        <time>2023-07-10T16:13:02.000Z</time>
      </trkpt>
      <trkpt lat="45.80791" lon="4.71361">
        <ele>322.93286</ele>
        <time>2023-07-10T16:13:03.000Z</time>
      </trkpt>
      <trkpt lat="45.80795" lon="4.71358">
        <ele>323.202</ele>
        <time>2023-07-10T16:13:04.000Z</time>
      </trkpt>
      <trkpt lat="45.808" lon="4.71356">
        <ele>323.48746</ele>
        <time>2023-07-10T16:13:05.000Z</time>
      </trkpt>
      <trkpt lat="45.80804" lon="4.71354">
        <ele>323.76263</ele>
        <time>2023-07-10T16:13:06.000Z</time>
      </trkpt>
      <trkpt lat="45.80809" lon="4.71351">
        <ele>324.03693</ele>
        <time>2023-07-10T16:13:07.000Z</time>
      </trkpt>
      <trkpt lat="45.80813" lon="4.71348">
        <ele>324.49039</ele>
        <time>2023-07-10T16:13:08.000Z</time>
      </trkpt>
      <trkpt lat="45.80817" lon="4.71347">
        <ele>324.91949</ele>
        <time>2023-07-10T16:13:09.000Z</time>
      </trkpt>
      <trkpt lat="45.80821" lon="4.71345">
        <ele>325.48062</ele>
        <time>2023-07-10T16:13:10.000Z</time>
      </trkpt>
      <trkpt lat="45.80825" lon="4.71342">
        <ele>326.03149</ele>
        <time>2023-07-10T16:13:11.000Z</time>
      </trkpt>
      <trkpt lat="45.80828" lon="4.7134">
        <ele>326.60788</ele>
        <time>2023-07-10T16:13:12.000Z</time>
      </trkpt>
      <trkpt lat="45.80833" lon="4.71338">
        <ele>326.8075</ele>
        <time>2023-07-10T16:13:13.000Z</time>
      </trkpt>
      <trkpt lat="45.80837" lon="4.71335">
        <ele>327.09406</ele>
        <time>2023-07-10T16:13:14.000Z</time>
      </trkpt>
      <trkpt lat="45.80841" lon="4.71334">
        <ele>327.37473</ele>
        <time>2023-07-10T16:13:15.000Z</time>
      </trkpt>
      <trkpt lat="45.80845" lon="4.71331">
        <ele>327.6564</ele>
        <time>2023-07-10T16:13:16.000Z</time>
      </trkpt>
      <trkpt lat="45.80849" lon="4.71329">
        <ele>327.94894</ele>
        <time>2023-07-10T16:13:17.000Z</time>
      </trkpt>
      <trkpt lat="45.80853" lon="4.71327">
        <ele>328.24927</ele>
        <time>2023-07-10T16:13:18.000Z</time>
      </trkpt>
      <trkpt lat="45.80858" lon="4.71326">
        <ele>328.53558</ele>
        <time>2023-07-10T16:13:19.000Z</time>
      </trkpt>
      <trkpt lat="45.80862" lon="4.71324">
        <ele>328.63931</ele>
        <time>2023-07-10T16:13:20.000Z</time>
      </trkpt>
      <trkpt lat="45.80867" lon="4.71321">
        <ele>328.72955</ele>
        <time>2023-07-10T16:13:21.000Z</time>
      </trkpt>
      <trkpt lat="45.8087" lon="4.71317">
        <ele>328.69867</ele>
        <time>2023-07-10T16:13:22.000Z</time>
      </trkpt>
      <trkpt lat="45.80874" lon="4.71314">
        <ele>329.05731</ele>
        <time>2023-07-10T16:13:23.000Z</time>
      </trkpt>
      <trkpt lat="45.80877" lon="4.7131">
        <ele>329.32712</ele>
        <time>2023-07-10T16:13:24.000Z</time>
      </trkpt>
      <trkpt lat="45.80881" lon="4.71308">
        <ele>329.59409</ele>
        <time>2023-07-10T16:13:25.000Z</time>
      </trkpt>
      <trkpt lat="45.80885" lon="4.71306">
        <ele>329.8732</ele>
        <time>2023-07-10T16:13:26.000Z</time>
      </trkpt>
      <trkpt lat="45.80889" lon="4.71304">
        <ele>330.17267</ele>
        <time>2023-07-10T16:13:27.000Z</time>
      </trkpt>
      <trkpt lat="45.80893" lon="4.71301">
        <ele>330.33691</ele>
        <time>2023-07-10T16:13:28.000Z</time>
      </trkpt>
      <trkpt lat="45.80897" lon="4.71301">
        <ele>330.64838</ele>
        <time>2023-07-10T16:13:29.000Z</time>
      </trkpt>
      <trkpt lat="45.80901" lon="4.713">
        <ele>330.95483</ele>
        <time>2023-07-10T16:13:30.000Z</time>
      </trkpt>
      <trkpt lat="45.80905" lon="4.71299">
        <ele>331.27161</ele>
        <time>2023-07-10T16:13:31.000Z</time>
      </trkpt>
      <trkpt lat="45.80909" lon="4.71299">
        <ele>331.59494</ele>
        <time>2023-07-10T16:13:32.000Z</time>
      </trkpt>
      <trkpt lat="45.80914" lon="4.71298">
        <ele>332.2818</ele>
        <time>2023-07-10T16:13:33.000Z</time>
      </trkpt>
      <trkpt lat="45.80918" lon="4.71298">
        <ele>332.94897</ele>
        <time>2023-07-10T16:13:34.000Z</time>
      </trkpt>
      <trkpt lat="45.80923" lon="4.71299">
        <ele>333.63385</ele>
        <time>2023-07-10T16:13:35.000Z</time>
      </trkpt>
      <trkpt lat="45.80927" lon="4.713">
        <ele>334.05685</ele>
        <time>2023-07-10T16:13:36.000Z</time>
      </trkpt>
      <trkpt lat="45.80932" lon="4.71301">
        <ele>334.50812</ele>
        <time>2023-07-10T16:13:37.000Z</time>
      </trkpt>
      <trkpt lat="45.80936" lon="4.71302">
        <ele>334.94873</ele>
        <time>2023-07-10T16:13:38.000Z</time>
      </trkpt>
      <trkpt lat="45.80941" lon="4.71303">
        <ele>335.38898</ele>
        <time>2023-07-10T16:13:39.000Z</time>
      </trkpt>
      <trkpt lat="45.80945" lon="4.71303">
        <ele>335.81158</ele>
        <time>2023-07-10T16:13:40.000Z</time>
      </trkpt>
      <trkpt lat="45.80949" lon="4.71303">
        <ele>336.24347</ele>
        <time>2023-07-10T16:13:41.000Z</time>
      </trkpt>
      <trkpt lat="45.80954" lon="4.71304">
        <ele>336.63965</ele>
        <time>2023-07-10T16:13:42.000Z</time>
      </trkpt>
      <trkpt lat="45.80958" lon="4.71304">
        <ele>337.01129</ele>
        <time>2023-07-10T16:13:43.000Z</time>
      </trkpt>
      <trkpt lat="45.80964" lon="4.71302">
        <ele>337.35834</ele>
        <time>2023-07-10T16:13:44.000Z</time>
      </trkpt>
      <trkpt lat="45.80968" lon="4.71302">
        <ele>337.71063</ele>
        <time>2023-07-10T16:13:45.000Z</time>
      </trkpt>
      <trkpt lat="45.80972" lon="4.71302">
        <ele>338.02637</ele>
        <time>2023-07-10T16:13:46.000Z</time>
      </trkpt>
      <trkpt lat="45.80977" lon="4.71302">
        <ele>338.3244</ele>
        <time>2023-07-10T16:13:47.000Z</time>
      </trkpt>
      <trkpt lat="45.80981" lon="4.71302">
        <ele>338.5741</ele>
        <time>2023-07-10T16:13:48.000Z</time>
      </trkpt>
      <trkpt lat="45.80986" lon="4.71302">
        <ele>338.70068</ele>
        <time>2023-07-10T16:13:49.000Z</time>
      </trkpt>
      <trkpt lat="45.8099" lon="4.71301">
        <ele>338.7283</ele>
        <time>2023-07-10T16:13:50.000Z</time>
      </trkpt>
      <trkpt lat="45.80995" lon="4.71301">
        <ele>338.77728</ele>
        <time>2023-07-10T16:13:51.000Z</time>
      </trkpt>
      <trkpt lat="45.80998" lon="4.71301">
        <ele>338.82867</ele>
        <time>2023-07-10T16:13:52.000Z</time>
      </trkpt>
      <trkpt lat="45.81003" lon="4.71301">
        <ele>338.90265</ele>
        <time>2023-07-10T16:13:53.000Z</time>
      </trkpt>
      <trkpt lat="45.81006" lon="4.713">
        <ele>338.94543</ele>
        <time>2023-07-10T16:13:54.000Z</time>
      </trkpt>
      <trkpt lat="45.81009" lon="4.713">
        <ele>338.97015</ele>
        <time>2023-07-10T16:13:55.000Z</time>
      </trkpt>
      <trkpt lat="45.81012" lon="4.71301">
        <ele>339.21948</ele>
        <time>2023-07-10T16:13:56.000Z</time>
      </trkpt>
      <trkpt lat="45.81015" lon="4.71302">
        <ele>339.47571</ele>
        <time>2023-07-10T16:13:58.000Z</time>
      </trkpt>
      <trkpt lat="45.81017" lon="4.71301">
        <ele>339.7337</ele>
        <time>2023-07-10T16:13:59.000Z</time>
      </trkpt>
      <trkpt lat="45.8102" lon="4.71299">
        <ele>339.99963</ele>
        <time>2023-07-10T16:14:00.000Z</time>
      </trkpt>
      <trkpt lat="45.81022" lon="4.71297">
        <ele>340.34894</ele>
        <time>2023-07-10T16:14:01.000Z</time>
      </trkpt>
      <trkpt lat="45.81024" lon="4.71294">
        <ele>340.75226</ele>
        <time>2023-07-10T16:14:02.000Z</time>
      </trkpt>
      <trkpt lat="45.81026" lon="4.71293">
        <ele>341.18915</ele>
        <time>2023-07-10T16:14:03.000Z</time>
      </trkpt>
      <trkpt lat="45.81029" lon="4.71294">
        <ele>341.45734</ele>
        <time>2023-07-10T16:14:05.000Z</time>
      </trkpt>
      <trkpt lat="45.81031" lon="4.71296">
        <ele>341.78485</ele>
        <time>2023-07-10T16:14:06.000Z</time>
      </trkpt>
      <trkpt lat="45.81033" lon="4.71299">
        <ele>342.09247</ele>
        <time>2023-07-10T16:14:07.000Z</time>
      </trkpt>
      <trkpt lat="45.81034" lon="4.71301">
        <ele>342.4267</ele>
        <time>2023-07-10T16:14:08.000Z</time>
      </trkpt>
      <trkpt lat="45.81036" lon="4.71304">
        <ele>342.78888</ele>
        <time>2023-07-10T16:14:10.000Z</time>
      </trkpt>
      <trkpt lat="45.81037" lon="4.71307">
        <ele>342.59396</ele>
        <time>2023-07-10T16:18:12.000Z</time>
      </trkpt>
      <trkpt lat="45.81038" lon="4.7131">
        <ele>342.35562</ele>
        <time>2023-07-10T16:18:13.000Z</time>
      </trkpt>
      <trkpt lat="45.8104" lon="4.71312">
        <ele>342.07339</ele>
        <time>2023-07-10T16:18:14.000Z</time>
      </trkpt>
      <trkpt lat="45.81041" lon="4.71315">
        <ele>341.75201</ele>
        <time>2023-07-10T16:18:15.000Z</time>
      </trkpt>
      <trkpt lat="45.81043" lon="4.71318">
        <ele>341.41452</ele>
        <time>2023-07-10T16:18:16.000Z</time>
      </trkpt>
      <trkpt lat="45.81045" lon="4.7132">
        <ele>341.05368</ele>
        <time>2023-07-10T16:18:17.000Z</time>
      </trkpt>
      <trkpt lat="45.81048" lon="4.71323">
        <ele>340.66992</ele>
        <time>2023-07-10T16:18:18.000Z</time>
      </trkpt>
      <trkpt lat="45.8105" lon="4.71325">
        <ele>340.25543</ele>
        <time>2023-07-10T16:18:19.000Z</time>
      </trkpt>
      <trkpt lat="45.81052" lon="4.71328">
        <ele>339.8576</ele>
        <time>2023-07-10T16:18:20.000Z</time>
      </trkpt>
      <trkpt lat="45.81055" lon="4.71331">
        <ele>339.42532</ele>
        <time>2023-07-10T16:18:21.000Z</time>
      </trkpt>
      <trkpt lat="45.81057" lon="4.71334">
        <ele>338.89703</ele>
        <time>2023-07-10T16:18:22.000Z</time>
      </trkpt>
      <trkpt lat="45.8106" lon="4.71337">
        <ele>338.36783</ele>
        <time>2023-07-10T16:18:23.000Z</time>
      </trkpt>
      <trkpt lat="45.81063" lon="4.7134">
        <ele>337.75253</ele>
        <time>2023-07-10T16:18:24.000Z</time>
      </trkpt>
      <trkpt lat="45.81066" lon="4.71344">
        <ele>337.02448</ele>
        <time>2023-07-10T16:18:25.000Z</time>
      </trkpt>
      <trkpt lat="45.81069" lon="4.71348">
        <ele>336.43137</ele>
        <time>2023-07-10T16:18:26.000Z</time>
      </trkpt>
      <trkpt lat="45.81072" lon="4.71352">
        <ele>336.00772</ele>
        <time>2023-07-10T16:18:27.000Z</time>
      </trkpt>
      <trkpt lat="45.81076" lon="4.71356">
        <ele>335.56204</ele>
        <time>2023-07-10T16:18:28.000Z</time>
      </trkpt>
      <trkpt lat="45.81079" lon="4.7136">
        <ele>335.10272</ele>
        <time>2023-07-10T16:18:29.000Z</time>
      </trkpt>
      <trkpt lat="45.81082" lon="4.71365">
        <ele>334.4816</ele>
        <time>2023-07-10T16:18:30.000Z</time>
      </trkpt>
      <trkpt lat="45.81084" lon="4.7137">
        <ele>333.82816</ele>
        <time>2023-07-10T16:18:31.000Z</time>
      </trkpt>
      <trkpt lat="45.81087" lon="4.71375">
        <ele>333.71652</ele>
        <time>2023-07-10T16:18:32.000Z</time>
      </trkpt>
      <trkpt lat="45.81089" lon="4.7138">
        <ele>333.62457</ele>
        <time>2023-07-10T16:18:33.000Z</time>
      </trkpt>
      <trkpt lat="45.81091" lon="4.71385">
        <ele>333.56268</ele>
        <time>2023-07-10T16:18:34.000Z</time>
      </trkpt>
      <trkpt lat="45.81093" lon="4.7139">
        <ele>333.4939</ele>
        <time>2023-07-10T16:18:35.000Z</time>
      </trkpt>
      <trkpt lat="45.81095" lon="4.71395">
        <ele>333.4075</ele>
        <time>2023-07-10T16:18:36.000Z</time>
      </trkpt>
      <trkpt lat="45.81098" lon="4.71401">
        <ele>333.32462</ele>
        <time>2023-07-10T16:18:37.000Z</time>
      </trkpt>
      <trkpt lat="45.811" lon="4.71406">
        <ele>333.25714</ele>
        <time>2023-07-10T16:18:38.000Z</time>
      </trkpt>
      <trkpt lat="45.81102" lon="4.71411">
        <ele>333.09076</ele>
        <time>2023-07-10T16:18:39.000Z</time>
      </trkpt>
      <trkpt lat="45.81104" lon="4.71416">
        <ele>332.93469</ele>
        <time>2023-07-10T16:18:40.000Z</time>
      </trkpt>
      <trkpt lat="45.81106" lon="4.71421">
        <ele>332.78918</ele>
        <time>2023-07-10T16:18:41.000Z</time>
      </trkpt>
      <trkpt lat="45.81108" lon="4.71426">
        <ele>332.73907</ele>
        <time>2023-07-10T16:18:42.000Z</time>
      </trkpt>
      <trkpt lat="45.81109" lon="4.7143">
        <ele>332.67291</ele>
        <time>2023-07-10T16:18:43.000Z</time>
      </trkpt>
      <trkpt lat="45.81111" lon="4.71436">
        <ele>332.52621</ele>
        <time>2023-07-10T16:18:44.000Z</time>
      </trkpt>
      <trkpt lat="45.81113" lon="4.71441">
        <ele>332.69403</ele>
        <time>2023-07-10T16:18:45.000Z</time>
      </trkpt>
      <trkpt lat="45.81115" lon="4.71446">
        <ele>332.81693</ele>
        <time>2023-07-10T16:18:46.000Z</time>
      </trkpt>
      <trkpt lat="45.81117" lon="4.71451">
        <ele>332.84979</ele>
        <time>2023-07-10T16:18:47.000Z</time>
      </trkpt>
      <trkpt lat="45.81119" lon="4.71455">
        <ele>332.86151</ele>
        <time>2023-07-10T16:18:48.000Z</time>
      </trkpt>
      <trkpt lat="45.81121" lon="4.7146">
        <ele>332.77661</ele>
        <time>2023-07-10T16:18:49.000Z</time>
      </trkpt>
      <trkpt lat="45.81125" lon="4.71462">
        <ele>332.86136</ele>
        <time>2023-07-10T16:18:50.000Z</time>
      </trkpt>
      <trkpt lat="45.81128" lon="4.71463">
        <ele>332.85223</ele>
        <time>2023-07-10T16:18:51.000Z</time>
      </trkpt>
      <trkpt lat="45.81133" lon="4.71462">
        <ele>332.86749</ele>
        <time>2023-07-10T16:18:52.000Z</time>
      </trkpt>
      <trkpt lat="45.81137" lon="4.71458">
        <ele>333.15564</ele>
        <time>2023-07-10T16:18:53.000Z</time>
      </trkpt>
      <trkpt lat="45.81142" lon="4.71455">
        <ele>333.34793</ele>
        <time>2023-07-10T16:18:54.000Z</time>
      </trkpt>
      <trkpt lat="45.81146" lon="4.71451">
        <ele>333.89005</ele>
        <time>2023-07-10T16:18:55.000Z</time>
      </trkpt>
      <trkpt lat="45.8115" lon="4.71447">
        <ele>334.14825</ele>
        <time>2023-07-10T16:18:56.000Z</time>
      </trkpt>
      <trkpt lat="45.81154" lon="4.71443">
        <ele>334.39557</ele>
        <time>2023-07-10T16:18:57.000Z</time>
      </trkpt>
      <trkpt lat="45.81158" lon="4.71441">
        <ele>334.63489</ele>
        <time>2023-07-10T16:18:58.000Z</time>
      </trkpt>
      <trkpt lat="45.81162" lon="4.71438">
        <ele>335.30295</ele>
        <time>2023-07-10T16:18:59.000Z</time>
      </trkpt>
      <trkpt lat="45.81167" lon="4.71434">
        <ele>335.98419</ele>
        <time>2023-07-10T16:19:00.000Z</time>
      </trkpt>
      <trkpt lat="45.81171" lon="4.71432">
        <ele>336.67432</ele>
        <time>2023-07-10T16:19:01.000Z</time>
      </trkpt>
      <trkpt lat="45.81174" lon="4.71428">
        <ele>337.3472</ele>
        <time>2023-07-10T16:19:02.000Z</time>
      </trkpt>
      <trkpt lat="45.81178" lon="4.71425">
        <ele>337.99475</ele>
        <time>2023-07-10T16:19:03.000Z</time>
      </trkpt>
      <trkpt lat="45.81183" lon="4.71423">
        <ele>338.681</ele>
        <time>2023-07-10T16:19:04.000Z</time>
      </trkpt>
      <trkpt lat="45.81187" lon="4.71421">
        <ele>339.20633</ele>
        <time>2023-07-10T16:19:05.000Z</time>
      </trkpt>
      <trkpt lat="45.81191" lon="4.71419">
        <ele>339.59735</ele>
        <time>2023-07-10T16:19:06.000Z</time>
      </trkpt>
      <trkpt lat="45.81196" lon="4.71416">
        <ele>340.10876</ele>
        <time>2023-07-10T16:19:07.000Z</time>
      </trkpt>
      <trkpt lat="45.812" lon="4.71415">
        <ele>340.32776</ele>
        <time>2023-07-10T16:19:08.000Z</time>
      </trkpt>
      <trkpt lat="45.81204" lon="4.71412">
        <ele>340.65906</ele>
        <time>2023-07-10T16:19:09.000Z</time>
      </trkpt>
      <trkpt lat="45.81208" lon="4.7141">
        <ele>340.94513</ele>
        <time>2023-07-10T16:19:10.000Z</time>
      </trkpt>
      <trkpt lat="45.81213" lon="4.71409">
        <ele>341.33893</ele>
        <time>2023-07-10T16:19:11.000Z</time>
      </trkpt>
      <trkpt lat="45.81218" lon="4.71407">
        <ele>341.72528</ele>
        <time>2023-07-10T16:19:12.000Z</time>
      </trkpt>
      <trkpt lat="45.81222" lon="4.71407">
        <ele>341.83807</ele>
        <time>2023-07-10T16:19:13.000Z</time>
      </trkpt>
      <trkpt lat="45.81227" lon="4.71406">
        <ele>342.04645</ele>
        <time>2023-07-10T16:19:14.000Z</time>
      </trkpt>
      <trkpt lat="45.81232" lon="4.71405">
        <ele>341.92099</ele>
        <time>2023-07-10T16:19:15.000Z</time>
      </trkpt>
      <trkpt lat="45.81238" lon="4.71406">
        <ele>341.91611</ele>
        <time>2023-07-10T16:19:16.000Z</time>
      </trkpt>
      <trkpt lat="45.81243" lon="4.71406">
        <ele>341.94232</ele>
        <time>2023-07-10T16:19:17.000Z</time>
      </trkpt>
      <trkpt lat="45.81248" lon="4.71405">
        <ele>341.9686</ele>
        <time>2023-07-10T16:19:18.000Z</time>
      </trkpt>
      <trkpt lat="45.81253" lon="4.71406">
        <ele>341.66632</ele>
        <time>2023-07-10T16:19:19.000Z</time>
      </trkpt>
      <trkpt lat="45.81258" lon="4.71405">
        <ele>341.35239</ele>
        <time>2023-07-10T16:19:20.000Z</time>
      </trkpt>
      <trkpt lat="45.81262" lon="4.71404">
        <ele>341.00128</ele>
        <time>2023-07-10T16:19:21.000Z</time>
      </trkpt>
      <trkpt lat="45.81267" lon="4.71405">
        <ele>340.66531</ele>
        <time>2023-07-10T16:19:22.000Z</time>
      </trkpt>
      <trkpt lat="45.81272" lon="4.71405">
        <ele>340.35873</ele>
        <time>2023-07-10T16:19:23.000Z</time>
      </trkpt>
      <trkpt lat="45.81277" lon="4.71405">
        <ele>340.0993</ele>
        <time>2023-07-10T16:19:24.000Z</time>
      </trkpt>
      <trkpt lat="45.81281" lon="4.71407">
        <ele>339.72623</ele>
        <time>2023-07-10T16:19:25.000Z</time>
      </trkpt>
      <trkpt lat="45.81286" lon="4.71408">
        <ele>339.37534</ele>
        <time>2023-07-10T16:19:26.000Z</time>
      </trkpt>
      <trkpt lat="45.81291" lon="4.71411">
        <ele>339.00348</ele>
        <time>2023-07-10T16:19:27.000Z</time>
      </trkpt>
      <trkpt lat="45.81296" lon="4.71412">
        <ele>338.93765</ele>
        <time>2023-07-10T16:19:28.000Z</time>
      </trkpt>
      <trkpt lat="45.81301" lon="4.71413">
        <ele>338.88422</ele>
        <time>2023-07-10T16:19:29.000Z</time>
      </trkpt>
      <trkpt lat="45.81306" lon="4.71415">
        <ele>338.75909</ele>
        <time>2023-07-10T16:19:30.000Z</time>
      </trkpt>
      <trkpt lat="45.8131" lon="4.71416">
        <ele>338.99518</ele>
        <time>2023-07-10T16:19:31.000Z</time>
      </trkpt>
      <trkpt lat="45.81314" lon="4.71417">
        <ele>339.15024</ele>
        <time>2023-07-10T16:19:32.000Z</time>
      </trkpt>
      <trkpt lat="45.8132" lon="4.71417">
        <ele>339.95615</ele>
        <time>2023-07-10T16:19:33.000Z</time>
      </trkpt>
      <trkpt lat="45.81324" lon="4.71417">
        <ele>340.73529</ele>
        <time>2023-07-10T16:19:34.000Z</time>
      </trkpt>
      <trkpt lat="45.81329" lon="4.71416">
        <ele>341.47128</ele>
        <time>2023-07-10T16:19:35.000Z</time>
      </trkpt>
      <trkpt lat="45.81335" lon="4.71415">
        <ele>342.35907</ele>
        <time>2023-07-10T16:19:36.000Z</time>
      </trkpt>
      <trkpt lat="45.81341" lon="4.71416">
        <ele>343.18277</ele>
        <time>2023-07-10T16:19:37.000Z</time>
      </trkpt>
      <trkpt lat="45.81347" lon="4.71416">
        <ele>343.96387</ele>
        <time>2023-07-10T16:19:38.000Z</time>
      </trkpt>
      <trkpt lat="45.81353" lon="4.71415">
        <ele>344.745</ele>
        <time>2023-07-10T16:19:39.000Z</time>
      </trkpt>
      <trkpt lat="45.81358" lon="4.71414">
        <ele>345.5058</ele>
        <time>2023-07-10T16:19:40.000Z</time>
      </trkpt>
      <trkpt lat="45.81364" lon="4.71415">
        <ele>346.13885</ele>
        <time>2023-07-10T16:19:41.000Z</time>
      </trkpt>
      <trkpt lat="45.8137" lon="4.71414">
        <ele>346.92511</ele>
        <time>2023-07-10T16:19:42.000Z</time>
      </trkpt>
      <trkpt lat="45.81376" lon="4.71413">
        <ele>347.66156</ele>
        <time>2023-07-10T16:19:43.000Z</time>
      </trkpt>
      <trkpt lat="45.81382" lon="4.71412">
        <ele>348.40192</ele>
        <time>2023-07-10T16:19:44.000Z</time>
      </trkpt>
      <trkpt lat="45.81388" lon="4.71409">
        <ele>349.12225</ele>
        <time>2023-07-10T16:19:45.000Z</time>
      </trkpt>
      <trkpt lat="45.81394" lon="4.7141">
        <ele>349.80331</ele>
        <time>2023-07-10T16:19:46.000Z</time>
      </trkpt>
      <trkpt lat="45.81399" lon="4.71412">
        <ele>350.42508</ele>
        <time>2023-07-10T16:19:47.000Z</time>
      </trkpt>
      <trkpt lat="45.81405" lon="4.7142">
        <ele>350.98752</ele>
        <time>2023-07-10T16:19:48.000Z</time>
      </trkpt>
      <trkpt lat="45.81411" lon="4.71416">
        <ele>351.62378</ele>
        <time>2023-07-10T16:19:49.000Z</time>
      </trkpt>
      <trkpt lat="45.81417" lon="4.71413">
        <ele>352.08423</ele>
        <time>2023-07-10T16:19:50.000Z</time>
      </trkpt>
      <trkpt lat="45.81422" lon="4.71411">
        <ele>352.03241</ele>
        <time>2023-07-10T16:19:51.000Z</time>
      </trkpt>
      <trkpt lat="45.81428" lon="4.71411">
        <ele>351.94757</ele>
        <time>2023-07-10T16:19:52.000Z</time>
      </trkpt>
      <trkpt lat="45.81435" lon="4.7141">
        <ele>351.19672</ele>
        <time>2023-07-10T16:19:53.000Z</time>
      </trkpt>
      <trkpt lat="45.81442" lon="4.71409">
        <ele>350.44199</ele>
        <time>2023-07-10T16:19:54.000Z</time>
      </trkpt>
      <trkpt lat="45.81448" lon="4.71409">
        <ele>349.67242</ele>
        <time>2023-07-10T16:19:55.000Z</time>
      </trkpt>
      <trkpt lat="45.81454" lon="4.71409">
        <ele>348.85825</ele>
        <time>2023-07-10T16:19:56.000Z</time>
      </trkpt>
      <trkpt lat="45.81461" lon="4.71408">
        <ele>348.0864</ele>
        <time>2023-07-10T16:19:57.000Z</time>
      </trkpt>
      <trkpt lat="45.81468" lon="4.71406">
        <ele>347.38205</ele>
        <time>2023-07-10T16:19:58.000Z</time>
      </trkpt>
      <trkpt lat="45.81474" lon="4.71404">
        <ele>346.69168</ele>
        <time>2023-07-10T16:19:59.000Z</time>
      </trkpt>
      <trkpt lat="45.81482" lon="4.71402">
        <ele>346.0015</ele>
        <time>2023-07-10T16:20:00.000Z</time>
      </trkpt>
      <trkpt lat="45.81489" lon="4.714">
        <ele>345.44601</ele>
        <time>2023-07-10T16:20:01.000Z</time>
      </trkpt>
      <trkpt lat="45.81496" lon="4.71397">
        <ele>344.75055</ele>
        <time>2023-07-10T16:20:02.000Z</time>
      </trkpt>
      <trkpt lat="45.81503" lon="4.71394">
        <ele>344.07602</ele>
        <time>2023-07-10T16:20:03.000Z</time>
      </trkpt>
      <trkpt lat="45.81509" lon="4.71389">
        <ele>343.40601</ele>
        <time>2023-07-10T16:20:04.000Z</time>
      </trkpt>
      <trkpt lat="45.81516" lon="4.71385">
        <ele>342.74277</ele>
        <time>2023-07-10T16:20:05.000Z</time>
      </trkpt>
      <trkpt lat="45.81522" lon="4.71383">
        <ele>342.10638</ele>
        <time>2023-07-10T16:20:06.000Z</time>
      </trkpt>
      <trkpt lat="45.81529" lon="4.7138">
        <ele>341.57556</ele>
        <time>2023-07-10T16:20:07.000Z</time>
      </trkpt>
      <trkpt lat="45.81535" lon="4.71375">
        <ele>341.11441</ele>
        <time>2023-07-10T16:20:08.000Z</time>
      </trkpt>
      <trkpt lat="45.81539" lon="4.71372">
        <ele>340.24005</ele>
        <time>2023-07-10T16:20:09.000Z</time>
      </trkpt>
      <trkpt lat="45.81543" lon="4.7137">
        <ele>339.65829</ele>
        <time>2023-07-10T16:20:10.000Z</time>
      </trkpt>
      <trkpt lat="45.81545" lon="4.71367">
        <ele>339.21683</ele>
        <time>2023-07-10T16:20:11.000Z</time>
      </trkpt>
      <trkpt lat="45.81546" lon="4.71361">
        <ele>338.89554</ele>
        <time>2023-07-10T16:20:12.000Z</time>
      </trkpt>
      <trkpt lat="45.81549" lon="4.71354">
        <ele>338.53558</ele>
        <time>2023-07-10T16:20:13.000Z</time>
      </trkpt>
      <trkpt lat="45.81551" lon="4.71346">
        <ele>338.16559</ele>
        <time>2023-07-10T16:20:14.000Z</time>
      </trkpt>
      <trkpt lat="45.81551" lon="4.71338">
        <ele>337.83893</ele>
        <time>2023-07-10T16:20:15.000Z</time>
      </trkpt>
      <trkpt lat="45.81553" lon="4.71331">
        <ele>337.50885</ele>
        <time>2023-07-10T16:20:16.000Z</time>
      </trkpt>
      <trkpt lat="45.81554" lon="4.71323">
        <ele>337.13596</ele>
        <time>2023-07-10T16:20:17.000Z</time>
      </trkpt>
      <trkpt lat="45.81556" lon="4.71315">
        <ele>336.84818</ele>
        <time>2023-07-10T16:20:18.000Z</time>
      </trkpt>
      <trkpt lat="45.81557" lon="4.71307">
        <ele>336.54788</ele>
        <time>2023-07-10T16:20:19.000Z</time>
      </trkpt>
      <trkpt lat="45.81559" lon="4.71299">
        <ele>336.28799</ele>
        <time>2023-07-10T16:20:20.000Z</time>
      </trkpt>
      <trkpt lat="45.81561" lon="4.71292">
        <ele>336.06531</ele>
        <time>2023-07-10T16:20:21.000Z</time>
      </trkpt>
      <trkpt lat="45.81563" lon="4.71284">
        <ele>335.83298</ele>
        <time>2023-07-10T16:20:22.000Z</time>
      </trkpt>
      <trkpt lat="45.81565" lon="4.71275">
        <ele>335.63278</ele>
        <time>2023-07-10T16:20:23.000Z</time>
      </trkpt>
      <trkpt lat="45.81565" lon="4.71267">
        <ele>335.42273</ele>
        <time>2023-07-10T16:20:24.000Z</time>
      </trkpt>
      <trkpt lat="45.81566" lon="4.71259">
        <ele>335.25055</ele>
        <time>2023-07-10T16:20:25.000Z</time>
      </trkpt>
      <trkpt lat="45.81568" lon="4.7125">
        <ele>335.08585</ele>
        <time>2023-07-10T16:20:26.000Z</time>
      </trkpt>
      <trkpt lat="45.8157" lon="4.71242">
        <ele>334.90811</ele>
        <time>2023-07-10T16:20:27.000Z</time>
      </trkpt>
      <trkpt lat="45.81571" lon="4.71233">
        <ele>334.70303</ele>
        <time>2023-07-10T16:20:28.000Z</time>
      </trkpt>
      <trkpt lat="45.81572" lon="4.71225">
        <ele>334.81998</ele>
        <time>2023-07-10T16:20:29.000Z</time>
      </trkpt>
      <trkpt lat="45.81573" lon="4.71217">
        <ele>334.87106</ele>
        <time>2023-07-10T16:20:30.000Z</time>
      </trkpt>
      <trkpt lat="45.81574" lon="4.71208">
        <ele>334.90805</ele>
        <time>2023-07-10T16:20:31.000Z</time>
      </trkpt>
      <trkpt lat="45.81575" lon="4.71201">
        <ele>334.9162</ele>
        <time>2023-07-10T16:20:32.000Z</time>
      </trkpt>
      <trkpt lat="45.81577" lon="4.71191">
        <ele>334.97021</ele>
        <time>2023-07-10T16:20:33.000Z</time>
      </trkpt>
      <trkpt lat="45.81578" lon="4.71182">
        <ele>335.095</ele>
        <time>2023-07-10T16:20:34.000Z</time>
      </trkpt>
      <trkpt lat="45.8158" lon="4.71173">
        <ele>335.08752</ele>
        <time>2023-07-10T16:20:35.000Z</time>
      </trkpt>
      <trkpt lat="45.81581" lon="4.71165">
        <ele>335.43289</ele>
        <time>2023-07-10T16:20:36.000Z</time>
      </trkpt>
      <trkpt lat="45.81583" lon="4.71156">
        <ele>335.82794</ele>
        <time>2023-07-10T16:20:37.000Z</time>
      </trkpt>
      <trkpt lat="45.81585" lon="4.71147">
        <ele>336.20996</ele>
        <time>2023-07-10T16:20:38.000Z</time>
      </trkpt>
      <trkpt lat="45.81587" lon="4.71139">
        <ele>336.18976</ele>
        <time>2023-07-10T16:20:39.000Z</time>
      </trkpt>
      <trkpt lat="45.81589" lon="4.7113">
        <ele>336.14893</ele>
        <time>2023-07-10T16:20:40.000Z</time>
      </trkpt>
      <trkpt lat="45.81591" lon="4.71122">
        <ele>336.05145</ele>
        <time>2023-07-10T16:20:41.000Z</time>
      </trkpt>
      <trkpt lat="45.81592" lon="4.71113">
        <ele>335.96176</ele>
        <time>2023-07-10T16:20:42.000Z</time>
      </trkpt>
      <trkpt lat="45.81595" lon="4.71103">
        <ele>335.85297</ele>
        <time>2023-07-10T16:20:43.000Z</time>
      </trkpt>
      <trkpt lat="45.81597" lon="4.71094">
        <ele>335.71432</ele>
        <time>2023-07-10T16:20:44.000Z</time>
      </trkpt>
      <trkpt lat="45.81598" lon="4.71086">
        <ele>335.55435</ele>
        <time>2023-07-10T16:20:45.000Z</time>
      </trkpt>
      <trkpt lat="45.81599" lon="4.71077">
        <ele>335.42026</ele>
        <time>2023-07-10T16:20:46.000Z</time>
      </trkpt>
      <trkpt lat="45.81601" lon="4.71068">
        <ele>335.12054</ele>
        <time>2023-07-10T16:20:47.000Z</time>
      </trkpt>
      <trkpt lat="45.81602" lon="4.71059">
        <ele>334.75952</ele>
        <time>2023-07-10T16:20:48.000Z</time>
      </trkpt>
      <trkpt lat="45.81604" lon="4.71051">
        <ele>334.40231</ele>
        <time>2023-07-10T16:20:49.000Z</time>
      </trkpt>
      <trkpt lat="45.81606" lon="4.71041">
        <ele>334.08646</ele>
        <time>2023-07-10T16:20:50.000Z</time>
      </trkpt>
      <trkpt lat="45.81607" lon="4.71035">
        <ele>334.01373</ele>
        <time>2023-07-10T16:20:51.000Z</time>
      </trkpt>
      <trkpt lat="45.81609" lon="4.71026">
        <ele>333.88293</ele>
        <time>2023-07-10T16:20:52.000Z</time>
      </trkpt>
      <trkpt lat="45.81611" lon="4.71017">
        <ele>333.74933</ele>
        <time>2023-07-10T16:20:53.000Z</time>
      </trkpt>
      <trkpt lat="45.81612" lon="4.71009">
        <ele>333.5639</ele>
        <time>2023-07-10T16:20:54.000Z</time>
      </trkpt>
      <trkpt lat="45.81615" lon="4.71">
        <ele>333.51361</ele>
        <time>2023-07-10T16:20:55.000Z</time>
      </trkpt>
      <trkpt lat="45.81616" lon="4.70992">
        <ele>333.20157</ele>
        <time>2023-07-10T16:20:56.000Z</time>
      </trkpt>
      <trkpt lat="45.81617" lon="4.70983">
        <ele>332.90616</ele>
        <time>2023-07-10T16:20:57.000Z</time>
      </trkpt>
      <trkpt lat="45.81619" lon="4.70975">
        <ele>332.53073</ele>
        <time>2023-07-10T16:20:58.000Z</time>
      </trkpt>
      <trkpt lat="45.8162" lon="4.70966">
        <ele>332.5806</ele>
        <time>2023-07-10T16:20:59.000Z</time>
      </trkpt>
      <trkpt lat="45.81621" lon="4.70958">
        <ele>332.67963</ele>
        <time>2023-07-10T16:21:00.000Z</time>
      </trkpt>
      <trkpt lat="45.81622" lon="4.7095">
        <ele>332.59106</ele>
        <time>2023-07-10T16:21:01.000Z</time>
      </trkpt>
      <trkpt lat="45.81621" lon="4.70942">
        <ele>332.47894</ele>
        <time>2023-07-10T16:21:02.000Z</time>
      </trkpt>
      <trkpt lat="45.8162" lon="4.70934">
        <ele>332.39709</ele>
        <time>2023-07-10T16:21:03.000Z</time>
      </trkpt>
      <trkpt lat="45.8162" lon="4.70926">
        <ele>332.35233</ele>
        <time>2023-07-10T16:21:04.000Z</time>
      </trkpt>
      <trkpt lat="45.81621" lon="4.70919">
        <ele>332.30716</ele>
        <time>2023-07-10T16:21:05.000Z</time>
      </trkpt>
      <trkpt lat="45.81622" lon="4.70911">
        <ele>332.24945</ele>
        <time>2023-07-10T16:21:06.000Z</time>
      </trkpt>
      <trkpt lat="45.81623" lon="4.70903">
        <ele>332.33057</ele>
        <time>2023-07-10T16:21:07.000Z</time>
      </trkpt>
      <trkpt lat="45.81625" lon="4.70896">
        <ele>332.45956</ele>
        <time>2023-07-10T16:21:08.000Z</time>
      </trkpt>
      <trkpt lat="45.81628" lon="4.70889">
        <ele>332.59473</ele>
        <time>2023-07-10T16:21:09.000Z</time>
      </trkpt>
      <trkpt lat="45.81631" lon="4.70885">
        <ele>332.7468</ele>
        <time>2023-07-10T16:21:10.000Z</time>
      </trkpt>
      <trkpt lat="45.81634" lon="4.70878">
        <ele>332.8201</ele>
        <time>2023-07-10T16:21:11.000Z</time>
      </trkpt>
      <trkpt lat="45.81636" lon="4.70871">
        <ele>332.97241</ele>
        <time>2023-07-10T16:21:12.000Z</time>
      </trkpt>
      <trkpt lat="45.81638" lon="4.70864">
        <ele>333.12933</ele>
        <time>2023-07-10T16:21:13.000Z</time>
      </trkpt>
      <trkpt lat="45.8164" lon="4.70857">
        <ele>333.28748</ele>
        <time>2023-07-10T16:21:14.000Z</time>
      </trkpt>
      <trkpt lat="45.81641" lon="4.7085">
        <ele>333.28375</ele>
        <time>2023-07-10T16:21:15.000Z</time>
      </trkpt>
      <trkpt lat="45.81642" lon="4.70843">
        <ele>333.27377</ele>
        <time>2023-07-10T16:21:16.000Z</time>
      </trkpt>
      <trkpt lat="45.81643" lon="4.70835">
        <ele>333.23837</ele>
        <time>2023-07-10T16:21:17.000Z</time>
      </trkpt>
      <trkpt lat="45.81644" lon="4.70828">
        <ele>333.19235</ele>
        <time>2023-07-10T16:21:18.000Z</time>
      </trkpt>
      <trkpt lat="45.81646" lon="4.70822">
        <ele>333.42352</ele>
        <time>2023-07-10T16:21:19.000Z</time>
      </trkpt>
      <trkpt lat="45.81647" lon="4.70815">
        <ele>333.47638</ele>
        <time>2023-07-10T16:21:20.000Z</time>
      </trkpt>
      <trkpt lat="45.81649" lon="4.70807">
        <ele>333.73422</ele>
        <time>2023-07-10T16:21:21.000Z</time>
      </trkpt>
      <trkpt lat="45.8165" lon="4.708">
        <ele>333.98627</ele>
        <time>2023-07-10T16:21:22.000Z</time>
      </trkpt>
      <trkpt lat="45.81653" lon="4.70794">
        <ele>334.16974</ele>
        <time>2023-07-10T16:21:23.000Z</time>
      </trkpt>
      <trkpt lat="45.81653" lon="4.70785">
        <ele>334.32938</ele>
        <time>2023-07-10T16:21:24.000Z</time>
      </trkpt>
      <trkpt lat="45.81654" lon="4.70777">
        <ele>334.48514</ele>
        <time>2023-07-10T16:21:25.000Z</time>
      </trkpt>
      <trkpt lat="45.81655" lon="4.7077">
        <ele>334.6416</ele>
        <time>2023-07-10T16:21:26.000Z</time>
      </trkpt>
      <trkpt lat="45.81657" lon="4.70762">
        <ele>334.80341</ele>
        <time>2023-07-10T16:21:27.000Z</time>
      </trkpt>
      <trkpt lat="45.81659" lon="4.70755">
        <ele>334.83377</ele>
        <time>2023-07-10T16:21:28.000Z</time>
      </trkpt>
      <trkpt lat="45.8166" lon="4.70746">
        <ele>334.87344</ele>
        <time>2023-07-10T16:21:29.000Z</time>
      </trkpt>
      <trkpt lat="45.81661" lon="4.70738">
        <ele>334.93549</ele>
        <time>2023-07-10T16:21:30.000Z</time>
      </trkpt>
      <trkpt lat="45.81663" lon="4.70731">
        <ele>334.8172</ele>
        <time>2023-07-10T16:21:31.000Z</time>
      </trkpt>
      <trkpt lat="45.81664" lon="4.70723">
        <ele>334.6922</ele>
        <time>2023-07-10T16:21:32.000Z</time>
      </trkpt>
      <trkpt lat="45.81665" lon="4.70715">
        <ele>334.57263</ele>
        <time>2023-07-10T16:21:33.000Z</time>
      </trkpt>
      <trkpt lat="45.81667" lon="4.7071">
        <ele>334.33594</ele>
        <time>2023-07-10T16:21:34.000Z</time>
      </trkpt>
      <trkpt lat="45.81668" lon="4.70702">
        <ele>334.27081</ele>
        <time>2023-07-10T16:21:35.000Z</time>
      </trkpt>
      <trkpt lat="45.8167" lon="4.70695">
        <ele>334.52036</ele>
        <time>2023-07-10T16:21:36.000Z</time>
      </trkpt>
      <trkpt lat="45.8167" lon="4.70687">
        <ele>334.71698</ele>
        <time>2023-07-10T16:21:37.000Z</time>
      </trkpt>
      <trkpt lat="45.81671" lon="4.70679">
        <ele>334.91766</ele>
        <time>2023-07-10T16:21:38.000Z</time>
      </trkpt>
      <trkpt lat="45.81673" lon="4.70671">
        <ele>334.85385</ele>
        <time>2023-07-10T16:21:39.000Z</time>
      </trkpt>
      <trkpt lat="45.81674" lon="4.70664">
        <ele>334.90112</ele>
        <time>2023-07-10T16:21:40.000Z</time>
      </trkpt>
      <trkpt lat="45.81676" lon="4.70657">
        <ele>334.95724</ele>
        <time>2023-07-10T16:21:41.000Z</time>
      </trkpt>
      <trkpt lat="45.81677" lon="4.70649">
        <ele>335.03876</ele>
        <time>2023-07-10T16:21:42.000Z</time>
      </trkpt>
      <trkpt lat="45.81678" lon="4.70641">
        <ele>335.15665</ele>
        <time>2023-07-10T16:21:43.000Z</time>
      </trkpt>
      <trkpt lat="45.81679" lon="4.70634">
        <ele>335.29849</ele>
        <time>2023-07-10T16:21:44.000Z</time>
      </trkpt>
      <trkpt lat="45.81681" lon="4.70626">
        <ele>335.47186</ele>
        <time>2023-07-10T16:21:45.000Z</time>
      </trkpt>
      <trkpt lat="45.81683" lon="4.70619">
        <ele>335.95123</ele>
        <time>2023-07-10T16:21:46.000Z</time>
      </trkpt>
      <trkpt lat="45.81683" lon="4.70612">
        <ele>336.55435</ele>
        <time>2023-07-10T16:21:47.000Z</time>
      </trkpt>
      <trkpt lat="45.81684" lon="4.70605">
        <ele>337.29736</ele>
        <time>2023-07-10T16:21:48.000Z</time>
      </trkpt>
      <trkpt lat="45.81686" lon="4.70599">
        <ele>338.01471</ele>
        <time>2023-07-10T16:21:49.000Z</time>
      </trkpt>
      <trkpt lat="45.81686" lon="4.70593">
        <ele>338.71198</ele>
        <time>2023-07-10T16:21:50.000Z</time>
      </trkpt>
      <trkpt lat="45.81687" lon="4.70585">
        <ele>339.47443</ele>
        <time>2023-07-10T16:21:51.000Z</time>
      </trkpt>
      <trkpt lat="45.81686" lon="4.70578">
        <ele>340.26404</ele>
        <time>2023-07-10T16:21:52.000Z</time>
      </trkpt>
      <trkpt lat="45.81688" lon="4.70573">
        <ele>340.9541</ele>
        <time>2023-07-10T16:21:53.000Z</time>
      </trkpt>
      <trkpt lat="45.81688" lon="4.70566">
        <ele>341.75113</ele>
        <time>2023-07-10T16:21:54.000Z</time>
      </trkpt>
      <trkpt lat="45.81689" lon="4.70559">
        <ele>342.52008</ele>
        <time>2023-07-10T16:21:55.000Z</time>
      </trkpt>
      <trkpt lat="45.8169" lon="4.70553">
        <ele>342.97287</ele>
        <time>2023-07-10T16:21:56.000Z</time>
      </trkpt>
      <trkpt lat="45.81691" lon="4.70548">
        <ele>343.5076</ele>
        <time>2023-07-10T16:21:57.000Z</time>
      </trkpt>
      <trkpt lat="45.81692" lon="4.70542">
        <ele>344.02374</ele>
        <time>2023-07-10T16:21:58.000Z</time>
      </trkpt>
      <trkpt lat="45.81693" lon="4.70536">
        <ele>344.45627</ele>
        <time>2023-07-10T16:21:59.000Z</time>
      </trkpt>
      <trkpt lat="45.81694" lon="4.70531">
        <ele>344.91171</ele>
        <time>2023-07-10T16:22:00.000Z</time>
      </trkpt>
      <trkpt lat="45.81695" lon="4.70525">
        <ele>345.35669</ele>
        <time>2023-07-10T16:22:01.000Z</time>
      </trkpt>
      <trkpt lat="45.81697" lon="4.7052">
        <ele>345.77228</ele>
        <time>2023-07-10T16:22:02.000Z</time>
      </trkpt>
      <trkpt lat="45.81698" lon="4.70515">
        <ele>346.20111</ele>
        <time>2023-07-10T16:22:03.000Z</time>
      </trkpt>
      <trkpt lat="45.81699" lon="4.70509">
        <ele>346.63028</ele>
        <time>2023-07-10T16:22:04.000Z</time>
      </trkpt>
      <trkpt lat="45.817" lon="4.70504">
        <ele>347.02948</ele>
        <time>2023-07-10T16:22:05.000Z</time>
      </trkpt>
      <trkpt lat="45.81701" lon="4.70498">
        <ele>347.13065</ele>
        <time>2023-07-10T16:22:06.000Z</time>
      </trkpt>
      <trkpt lat="45.81702" lon="4.70492">
        <ele>347.12152</ele>
        <time>2023-07-10T16:22:07.000Z</time>
      </trkpt>
      <trkpt lat="45.81703" lon="4.70486">
        <ele>347.11423</ele>
        <time>2023-07-10T16:22:08.000Z</time>
      </trkpt>
      <trkpt lat="45.81704" lon="4.7048">
        <ele>347.11536</ele>
        <time>2023-07-10T16:22:09.000Z</time>
      </trkpt>
      <trkpt lat="45.81705" lon="4.70475">
        <ele>347.04233</ele>
        <time>2023-07-10T16:22:10.000Z</time>
      </trkpt>
      <trkpt lat="45.81707" lon="4.70469">
        <ele>347.05096</ele>
        <time>2023-07-10T16:22:11.000Z</time>
      </trkpt>
      <trkpt lat="45.81708" lon="4.70463">
        <ele>347.0213</ele>
        <time>2023-07-10T16:22:12.000Z</time>
      </trkpt>
      <trkpt lat="45.81709" lon="4.70457">
        <ele>347.09256</ele>
        <time>2023-07-10T16:22:13.000Z</time>
      </trkpt>
      <trkpt lat="45.8171" lon="4.70451">
        <ele>347.14255</ele>
        <time>2023-07-10T16:22:14.000Z</time>
      </trkpt>
      <trkpt lat="45.81711" lon="4.70445">
        <ele>347.21454</ele>
        <time>2023-07-10T16:22:15.000Z</time>
      </trkpt>
      <trkpt lat="45.81713" lon="4.70439">
        <ele>347.39749</ele>
        <time>2023-07-10T16:22:16.000Z</time>
      </trkpt>
      <trkpt lat="45.81715" lon="4.70433">
        <ele>347.52612</ele>
        <time>2023-07-10T16:22:17.000Z</time>
      </trkpt>
      <trkpt lat="45.81716" lon="4.70427">
        <ele>347.64474</ele>
        <time>2023-07-10T16:22:18.000Z</time>
      </trkpt>
      <trkpt lat="45.81717" lon="4.7042">
        <ele>347.82065</ele>
        <time>2023-07-10T16:22:19.000Z</time>
      </trkpt>
      <trkpt lat="45.81719" lon="4.70413">
        <ele>347.9794</ele>
        <time>2023-07-10T16:22:20.000Z</time>
      </trkpt>
      <trkpt lat="45.8172" lon="4.70406">
        <ele>348.14429</ele>
        <time>2023-07-10T16:22:21.000Z</time>
      </trkpt>
      <trkpt lat="45.81722" lon="4.70399">
        <ele>348.30289</ele>
        <time>2023-07-10T16:22:22.000Z</time>
      </trkpt>
      <trkpt lat="45.81724" lon="4.70391">
        <ele>348.44852</ele>
        <time>2023-07-10T16:22:23.000Z</time>
      </trkpt>
      <trkpt lat="45.81724" lon="4.70384">
        <ele>348.56668</ele>
        <time>2023-07-10T16:22:24.000Z</time>
      </trkpt>
      <trkpt lat="45.81725" lon="4.70377">
        <ele>348.66589</ele>
        <time>2023-07-10T16:22:25.000Z</time>
      </trkpt>
      <trkpt lat="45.81726" lon="4.7037">
        <ele>347.86374</ele>
        <time>2023-07-10T16:22:26.000Z</time>
      </trkpt>
      <trkpt lat="45.81728" lon="4.70363">
        <ele>347.04413</ele>
        <time>2023-07-10T16:22:27.000Z</time>
      </trkpt>
      <trkpt lat="45.8173" lon="4.70355">
        <ele>346.23651</ele>
        <time>2023-07-10T16:22:28.000Z</time>
      </trkpt>
      <trkpt lat="45.8173" lon="4.70348">
        <ele>345.28635</ele>
        <time>2023-07-10T16:22:29.000Z</time>
      </trkpt>
      <trkpt lat="45.81732" lon="4.70341">
        <ele>344.3746</ele>
        <time>2023-07-10T16:22:30.000Z</time>
      </trkpt>
      <trkpt lat="45.81734" lon="4.70334">
        <ele>343.34613</ele>
        <time>2023-07-10T16:22:31.000Z</time>
      </trkpt>
      <trkpt lat="45.81736" lon="4.70326">
        <ele>342.31348</ele>
        <time>2023-07-10T16:22:32.000Z</time>
      </trkpt>
      <trkpt lat="45.81738" lon="4.70318">
        <ele>341.6933</ele>
        <time>2023-07-10T16:22:33.000Z</time>
      </trkpt>
      <trkpt lat="45.8174" lon="4.70311">
        <ele>341.02435</ele>
        <time>2023-07-10T16:22:34.000Z</time>
      </trkpt>
      <trkpt lat="45.81741" lon="4.70303">
        <ele>341.00861</ele>
        <time>2023-07-10T16:22:35.000Z</time>
      </trkpt>
      <trkpt lat="45.81742" lon="4.70296">
        <ele>340.8577</ele>
        <time>2023-07-10T16:22:36.000Z</time>
      </trkpt>
      <trkpt lat="45.81743" lon="4.70288">
        <ele>340.74106</ele>
        <time>2023-07-10T16:22:37.000Z</time>
      </trkpt>
      <trkpt lat="45.81745" lon="4.70281">
        <ele>340.64365</ele>
        <time>2023-07-10T16:22:38.000Z</time>
      </trkpt>
      <trkpt lat="45.81746" lon="4.70273">
        <ele>340.5401</ele>
        <time>2023-07-10T16:22:39.000Z</time>
      </trkpt>
      <trkpt lat="45.81747" lon="4.70265">
        <ele>340.42291</ele>
        <time>2023-07-10T16:22:40.000Z</time>
      </trkpt>
      <trkpt lat="45.81749" lon="4.70258">
        <ele>340.29669</ele>
        <time>2023-07-10T16:22:41.000Z</time>
      </trkpt>
      <trkpt lat="45.81751" lon="4.7025">
        <ele>340.1803</ele>
        <time>2023-07-10T16:22:42.000Z</time>
      </trkpt>
      <trkpt lat="45.81752" lon="4.70242">
        <ele>340.08923</ele>
        <time>2023-07-10T16:22:43.000Z</time>
      </trkpt>
      <trkpt lat="45.81754" lon="4.70235">
        <ele>339.97324</ele>
        <time>2023-07-10T16:22:44.000Z</time>
      </trkpt>
      <trkpt lat="45.81755" lon="4.70226">
        <ele>339.89227</ele>
        <time>2023-07-10T16:22:45.000Z</time>
      </trkpt>
      <trkpt lat="45.81756" lon="4.70218">
        <ele>340.69977</ele>
        <time>2023-07-10T16:22:46.000Z</time>
      </trkpt>
      <trkpt lat="45.81757" lon="4.7021">
        <ele>341.50296</ele>
        <time>2023-07-10T16:22:47.000Z</time>
      </trkpt>
      <trkpt lat="45.81759" lon="4.70202">
        <ele>342.31616</ele>
        <time>2023-07-10T16:22:48.000Z</time>
      </trkpt>
      <trkpt lat="45.8176" lon="4.70194">
        <ele>343.26929</ele>
        <time>2023-07-10T16:22:49.000Z</time>
      </trkpt>
      <trkpt lat="45.81762" lon="4.70184">
        <ele>344.2381</ele>
        <time>2023-07-10T16:22:50.000Z</time>
      </trkpt>
      <trkpt lat="45.81763" lon="4.70176">
        <ele>345.19189</ele>
        <time>2023-07-10T16:22:51.000Z</time>
      </trkpt>
      <trkpt lat="45.81764" lon="4.70168">
        <ele>345.50562</ele>
        <time>2023-07-10T16:22:52.000Z</time>
      </trkpt>
      <trkpt lat="45.81765" lon="4.7016">
        <ele>345.38306</ele>
        <time>2023-07-10T16:22:53.000Z</time>
      </trkpt>
      <trkpt lat="45.81767" lon="4.70152">
        <ele>345.32806</ele>
        <time>2023-07-10T16:22:54.000Z</time>
      </trkpt>
      <trkpt lat="45.81768" lon="4.70145">
        <ele>344.23834</ele>
        <time>2023-07-10T16:22:55.000Z</time>
      </trkpt>
      <trkpt lat="45.81769" lon="4.70137">
        <ele>344.15961</ele>
        <time>2023-07-10T16:22:56.000Z</time>
      </trkpt>
      <trkpt lat="45.8177" lon="4.70128">
        <ele>344.05292</ele>
        <time>2023-07-10T16:22:57.000Z</time>
      </trkpt>
      <trkpt lat="45.81772" lon="4.70121">
        <ele>343.95142</ele>
        <time>2023-07-10T16:22:58.000Z</time>
      </trkpt>
      <trkpt lat="45.81773" lon="4.70113">
        <ele>343.86642</ele>
        <time>2023-07-10T16:22:59.000Z</time>
      </trkpt>
      <trkpt lat="45.81775" lon="4.70105">
        <ele>343.7691</ele>
        <time>2023-07-10T16:23:00.000Z</time>
      </trkpt>
      <trkpt lat="45.81776" lon="4.70097">
        <ele>343.66519</ele>
        <time>2023-07-10T16:23:01.000Z</time>
      </trkpt>
      <trkpt lat="45.81778" lon="4.70089">
        <ele>343.54718</ele>
        <time>2023-07-10T16:23:02.000Z</time>
      </trkpt>
      <trkpt lat="45.8178" lon="4.70081">
        <ele>343.42685</ele>
        <time>2023-07-10T16:23:03.000Z</time>
      </trkpt>
      <trkpt lat="45.81782" lon="4.70073">
        <ele>343.30399</ele>
        <time>2023-07-10T16:23:04.000Z</time>
      </trkpt>
      <trkpt lat="45.81784" lon="4.70065">
        <ele>343.18182</ele>
        <time>2023-07-10T16:23:05.000Z</time>
      </trkpt>
      <trkpt lat="45.81787" lon="4.70057">
        <ele>343.05377</ele>
        <time>2023-07-10T16:23:06.000Z</time>
      </trkpt>
      <trkpt lat="45.8179" lon="4.70049">
        <ele>342.93152</ele>
        <time>2023-07-10T16:23:07.000Z</time>
      </trkpt>
      <trkpt lat="45.81794" lon="4.70042">
        <ele>342.82202</ele>
        <time>2023-07-10T16:23:08.000Z</time>
      </trkpt>
      <trkpt lat="45.81797" lon="4.70034">
        <ele>342.7269</ele>
        <time>2023-07-10T16:23:09.000Z</time>
      </trkpt>
      <trkpt lat="45.81799" lon="4.70026">
        <ele>342.62503</ele>
        <time>2023-07-10T16:23:10.000Z</time>
      </trkpt>
      <trkpt lat="45.81801" lon="4.70018">
        <ele>342.51422</ele>
        <time>2023-07-10T16:23:11.000Z</time>
      </trkpt>
      <trkpt lat="45.81803" lon="4.70009">
        <ele>343.03467</ele>
        <time>2023-07-10T16:23:12.000Z</time>
      </trkpt>
      <trkpt lat="45.81804" lon="4.7">
        <ele>343.54395</ele>
        <time>2023-07-10T16:23:13.000Z</time>
      </trkpt>
      <trkpt lat="45.81805" lon="4.69991">
        <ele>344.05798</ele>
        <time>2023-07-10T16:23:14.000Z</time>
      </trkpt>
      <trkpt lat="45.81808" lon="4.69981">
        <ele>344.92929</ele>
        <time>2023-07-10T16:23:15.000Z</time>
      </trkpt>
      <trkpt lat="45.8181" lon="4.69972">
        <ele>344.76172</ele>
        <time>2023-07-10T16:23:16.000Z</time>
      </trkpt>
      <trkpt lat="45.81811" lon="4.69962">
        <ele>344.5896</ele>
        <time>2023-07-10T16:23:17.000Z</time>
      </trkpt>
      <trkpt lat="45.81814" lon="4.69952">
        <ele>344.39035</ele>
        <time>2023-07-10T16:23:18.000Z</time>
      </trkpt>
      <trkpt lat="45.81815" lon="4.69942">
        <ele>344.18359</ele>
        <time>2023-07-10T16:23:19.000Z</time>
      </trkpt>
      <trkpt lat="45.81816" lon="4.69932">
        <ele>343.98459</ele>
        <time>2023-07-10T16:23:20.000Z</time>
      </trkpt>
      <trkpt lat="45.81818" lon="4.69922">
        <ele>343.78073</ele>
        <time>2023-07-10T16:23:21.000Z</time>
      </trkpt>
      <trkpt lat="45.8182" lon="4.6991">
        <ele>343.60504</ele>
        <time>2023-07-10T16:23:22.000Z</time>
      </trkpt>
      <trkpt lat="45.81822" lon="4.69899">
        <ele>343.40594</ele>
        <time>2023-07-10T16:23:23.000Z</time>
      </trkpt>
      <trkpt lat="45.81824" lon="4.69888">
        <ele>343.24432</ele>
        <time>2023-07-10T16:23:24.000Z</time>
      </trkpt>
      <trkpt lat="45.81826" lon="4.69877">
        <ele>343.04352</ele>
        <time>2023-07-10T16:23:25.000Z</time>
      </trkpt>
      <trkpt lat="45.81828" lon="4.69865">
        <ele>342.81772</ele>
        <time>2023-07-10T16:23:26.000Z</time>
      </trkpt>
      <trkpt lat="45.8183" lon="4.69853">
        <ele>342.59271</ele>
        <time>2023-07-10T16:23:27.000Z</time>
      </trkpt>
      <trkpt lat="45.81832" lon="4.69842">
        <ele>342.33026</ele>
        <time>2023-07-10T16:23:28.000Z</time>
      </trkpt>
      <trkpt lat="45.81834" lon="4.6983">
        <ele>342.03281</ele>
        <time>2023-07-10T16:23:29.000Z</time>
      </trkpt>
      <trkpt lat="45.81838" lon="4.69819">
        <ele>341.70493</ele>
        <time>2023-07-10T16:23:30.000Z</time>
      </trkpt>
      <trkpt lat="45.81841" lon="4.69808">
        <ele>341.37207</ele>
        <time>2023-07-10T16:23:31.000Z</time>
      </trkpt>
      <trkpt lat="45.81845" lon="4.69797">
        <ele>340.37476</ele>
        <time>2023-07-10T16:23:32.000Z</time>
      </trkpt>
      <trkpt lat="45.8185" lon="4.69787">
        <ele>339.37982</ele>
        <time>2023-07-10T16:23:33.000Z</time>
      </trkpt>
      <trkpt lat="45.81856" lon="4.69778">
        <ele>338.38531</ele>
        <time>2023-07-10T16:23:34.000Z</time>
      </trkpt>
      <trkpt lat="45.81861" lon="4.69769">
        <ele>338.08331</ele>
        <time>2023-07-10T16:23:35.000Z</time>
      </trkpt>
      <trkpt lat="45.81866" lon="4.69761">
        <ele>337.80981</ele>
        <time>2023-07-10T16:23:36.000Z</time>
      </trkpt>
      <trkpt lat="45.81873" lon="4.69753">
        <ele>337.2153</ele>
        <time>2023-07-10T16:23:37.000Z</time>
      </trkpt>
      <trkpt lat="45.81879" lon="4.69747">
        <ele>336.6788</ele>
        <time>2023-07-10T16:23:38.000Z</time>
      </trkpt>
      <trkpt lat="45.81886" lon="4.69744">
        <ele>336.15359</ele>
        <time>2023-07-10T16:23:39.000Z</time>
      </trkpt>
      <trkpt lat="45.81891" lon="4.69742">
        <ele>335.63434</ele>
        <time>2023-07-10T16:23:40.000Z</time>
      </trkpt>
      <trkpt lat="45.81897" lon="4.69738">
        <ele>335.14178</ele>
        <time>2023-07-10T16:23:41.000Z</time>
      </trkpt>
      <trkpt lat="45.81903" lon="4.69735">
        <ele>334.65631</ele>
        <time>2023-07-10T16:23:42.000Z</time>
      </trkpt>
      <trkpt lat="45.81908" lon="4.69732">
        <ele>334.19986</ele>
        <time>2023-07-10T16:23:43.000Z</time>
      </trkpt>
      <trkpt lat="45.81914" lon="4.69729">
        <ele>333.74896</ele>
        <time>2023-07-10T16:23:44.000Z</time>
      </trkpt>
      <trkpt lat="45.8192" lon="4.69726">
        <ele>333.31406</ele>
        <time>2023-07-10T16:23:45.000Z</time>
      </trkpt>
      <trkpt lat="45.81926" lon="4.69725">
        <ele>332.90024</ele>
        <time>2023-07-10T16:23:46.000Z</time>
      </trkpt>
      <trkpt lat="45.81932" lon="4.69724">
        <ele>332.49265</ele>
        <time>2023-07-10T16:23:47.000Z</time>
      </trkpt>
      <trkpt lat="45.81938" lon="4.69722">
        <ele>332.10849</ele>
        <time>2023-07-10T16:23:48.000Z</time>
      </trkpt>
      <trkpt lat="45.81943" lon="4.69719">
        <ele>331.75885</ele>
        <time>2023-07-10T16:23:49.000Z</time>
      </trkpt>
      <trkpt lat="45.81949" lon="4.69717">
        <ele>331.79355</ele>
        <time>2023-07-10T16:23:50.000Z</time>
      </trkpt>
      <trkpt lat="45.81955" lon="4.69715">
        <ele>331.44745</ele>
        <time>2023-07-10T16:23:51.000Z</time>
      </trkpt>
      <trkpt lat="45.8196" lon="4.69713">
        <ele>331.80499</ele>
        <time>2023-07-10T16:23:52.000Z</time>
      </trkpt>
      <trkpt lat="45.81966" lon="4.69711">
        <ele>332.19443</ele>
        <time>2023-07-10T16:23:53.000Z</time>
      </trkpt>
      <trkpt lat="45.81971" lon="4.69708">
        <ele>332.5676</ele>
        <time>2023-07-10T16:23:54.000Z</time>
      </trkpt>
      <trkpt lat="45.81977" lon="4.69706">
        <ele>332.26627</ele>
        <time>2023-07-10T16:23:55.000Z</time>
      </trkpt>
      <trkpt lat="45.81982" lon="4.69704">
        <ele>331.96933</ele>
        <time>2023-07-10T16:23:56.000Z</time>
      </trkpt>
      <trkpt lat="45.81988" lon="4.69702">
        <ele>331.94177</ele>
        <time>2023-07-10T16:23:57.000Z</time>
      </trkpt>
      <trkpt lat="45.81993" lon="4.697">
        <ele>331.8663</ele>
        <time>2023-07-10T16:23:58.000Z</time>
      </trkpt>
      <trkpt lat="45.81999" lon="4.69697">
        <ele>331.78195</ele>
        <time>2023-07-10T16:23:59.000Z</time>
      </trkpt>
      <trkpt lat="45.82005" lon="4.69696">
        <ele>331.70248</ele>
        <time>2023-07-10T16:24:00.000Z</time>
      </trkpt>
      <trkpt lat="45.82011" lon="4.69693">
        <ele>331.60699</ele>
        <time>2023-07-10T16:24:01.000Z</time>
      </trkpt>
      <trkpt lat="45.82017" lon="4.69691">
        <ele>331.48651</ele>
        <time>2023-07-10T16:24:02.000Z</time>
      </trkpt>
      <trkpt lat="45.82024" lon="4.69688">
        <ele>331.33615</ele>
        <time>2023-07-10T16:24:03.000Z</time>
      </trkpt>
      <trkpt lat="45.8203" lon="4.69685">
        <ele>330.70975</ele>
        <time>2023-07-10T16:24:04.000Z</time>
      </trkpt>
      <trkpt lat="45.82036" lon="4.69682">
        <ele>330.08328</ele>
        <time>2023-07-10T16:24:05.000Z</time>
      </trkpt>
      <trkpt lat="45.82043" lon="4.69679">
        <ele>329.72672</ele>
        <time>2023-07-10T16:24:06.000Z</time>
      </trkpt>
      <trkpt lat="45.8205" lon="4.69677">
        <ele>329.32095</ele>
        <time>2023-07-10T16:24:07.000Z</time>
      </trkpt>
      <trkpt lat="45.82057" lon="4.69674">
        <ele>328.88025</ele>
        <time>2023-07-10T16:24:08.000Z</time>
      </trkpt>
      <trkpt lat="45.82065" lon="4.69672">
        <ele>328.20917</ele>
        <time>2023-07-10T16:24:09.000Z</time>
      </trkpt>
      <trkpt lat="45.82073" lon="4.6967">
        <ele>327.72089</ele>
        <time>2023-07-10T16:24:10.000Z</time>
      </trkpt>
      <trkpt lat="45.8208" lon="4.69667">
        <ele>327.62189</ele>
        <time>2023-07-10T16:24:11.000Z</time>
      </trkpt>
      <trkpt lat="45.82088" lon="4.69664">
        <ele>327.52264</ele>
        <time>2023-07-10T16:24:12.000Z</time>
      </trkpt>
      <trkpt lat="45.82096" lon="4.69662">
        <ele>327.37842</ele>
        <time>2023-07-10T16:24:13.000Z</time>
      </trkpt>
      <trkpt lat="45.82104" lon="4.6966">
        <ele>327.24078</ele>
        <time>2023-07-10T16:24:14.000Z</time>
      </trkpt>
      <trkpt lat="45.82112" lon="4.69657">
        <ele>327.05914</ele>
        <time>2023-07-10T16:24:15.000Z</time>
      </trkpt>
      <trkpt lat="45.8212" lon="4.69655">
        <ele>326.87164</ele>
        <time>2023-07-10T16:24:16.000Z</time>
      </trkpt>
      <trkpt lat="45.82127" lon="4.69652">
        <ele>326.75037</ele>
        <time>2023-07-10T16:24:17.000Z</time>
      </trkpt>
      <trkpt lat="45.82135" lon="4.6965">
        <ele>326.62231</ele>
        <time>2023-07-10T16:24:18.000Z</time>
      </trkpt>
      <trkpt lat="45.82142" lon="4.69647">
        <ele>326.49603</ele>
        <time>2023-07-10T16:24:19.000Z</time>
      </trkpt>
      <trkpt lat="45.82149" lon="4.69645">
        <ele>326.38284</ele>
        <time>2023-07-10T16:24:20.000Z</time>
      </trkpt>
      <trkpt lat="45.82157" lon="4.69644">
        <ele>326.24896</ele>
        <time>2023-07-10T16:24:21.000Z</time>
      </trkpt>
      <trkpt lat="45.82164" lon="4.69641">
        <ele>326.10938</ele>
        <time>2023-07-10T16:24:22.000Z</time>
      </trkpt>
      <trkpt lat="45.82172" lon="4.69639">
        <ele>326.00082</ele>
        <time>2023-07-10T16:24:23.000Z</time>
      </trkpt>
      <trkpt lat="45.82178" lon="4.69636">
        <ele>326.3504</ele>
        <time>2023-07-10T16:24:24.000Z</time>
      </trkpt>
      <trkpt lat="45.82186" lon="4.69635">
        <ele>326.71255</ele>
        <time>2023-07-10T16:24:25.000Z</time>
      </trkpt>
      <trkpt lat="45.82194" lon="4.69633">
        <ele>326.78839</ele>
        <time>2023-07-10T16:24:26.000Z</time>
      </trkpt>
      <trkpt lat="45.82201" lon="4.6963">
        <ele>326.88959</ele>
        <time>2023-07-10T16:24:27.000Z</time>
      </trkpt>
      <trkpt lat="45.82208" lon="4.69627">
        <ele>327.02539</ele>
        <time>2023-07-10T16:24:28.000Z</time>
      </trkpt>
      <trkpt lat="45.82214" lon="4.69625">
        <ele>327.3627</ele>
        <time>2023-07-10T16:24:29.000Z</time>
      </trkpt>
      <trkpt lat="45.82222" lon="4.69622">
        <ele>327.17328</ele>
        <time>2023-07-10T16:24:30.000Z</time>
      </trkpt>
      <trkpt lat="45.82228" lon="4.69619">
        <ele>326.98212</ele>
        <time>2023-07-10T16:24:31.000Z</time>
      </trkpt>
      <trkpt lat="45.82235" lon="4.69617">
        <ele>326.75452</ele>
        <time>2023-07-10T16:24:32.000Z</time>
      </trkpt>
      <trkpt lat="45.82242" lon="4.69614">
        <ele>326.57181</ele>
        <time>2023-07-10T16:24:33.000Z</time>
      </trkpt>
      <trkpt lat="45.82249" lon="4.69611">
        <ele>326.40302</ele>
        <time>2023-07-10T16:24:34.000Z</time>
      </trkpt>
      <trkpt lat="45.82256" lon="4.69609">
        <ele>326.26889</ele>
        <time>2023-07-10T16:24:35.000Z</time>
      </trkpt>
      <trkpt lat="45.82263" lon="4.69607">
        <ele>326.15707</ele>
        <time>2023-07-10T16:24:36.000Z</time>
      </trkpt>
      <trkpt lat="45.8227" lon="4.69603">
        <ele>326.04996</ele>
        <time>2023-07-10T16:24:37.000Z</time>
      </trkpt>
      <trkpt lat="45.82277" lon="4.69601">
        <ele>325.95844</ele>
        <time>2023-07-10T16:24:38.000Z</time>
      </trkpt>
      <trkpt lat="45.82284" lon="4.69598">
        <ele>325.8894</ele>
        <time>2023-07-10T16:24:39.000Z</time>
      </trkpt>
      <trkpt lat="45.82291" lon="4.69596">
        <ele>325.79541</ele>
        <time>2023-07-10T16:24:40.000Z</time>
      </trkpt>
      <trkpt lat="45.82297" lon="4.69594">
        <ele>325.70914</ele>
        <time>2023-07-10T16:24:41.000Z</time>
      </trkpt>
      <trkpt lat="45.82304" lon="4.69591">
        <ele>325.63519</ele>
        <time>2023-07-10T16:24:42.000Z</time>
      </trkpt>
      <trkpt lat="45.82311" lon="4.69588">
        <ele>325.55182</ele>
        <time>2023-07-10T16:24:43.000Z</time>
      </trkpt>
      <trkpt lat="45.82318" lon="4.69586">
        <ele>325.48221</ele>
        <time>2023-07-10T16:24:44.000Z</time>
      </trkpt>
      <trkpt lat="45.82324" lon="4.69585">
        <ele>325.36691</ele>
        <time>2023-07-10T16:24:45.000Z</time>
      </trkpt>
      <trkpt lat="45.82331" lon="4.69583">
        <ele>325.27649</ele>
        <time>2023-07-10T16:24:46.000Z</time>
      </trkpt>
      <trkpt lat="45.82338" lon="4.69581">
        <ele>325.18909</ele>
        <time>2023-07-10T16:24:47.000Z</time>
      </trkpt>
      <trkpt lat="45.82345" lon="4.69578">
        <ele>325.08694</ele>
        <time>2023-07-10T16:24:48.000Z</time>
      </trkpt>
      <trkpt lat="45.82352" lon="4.69576">
        <ele>324.99869</ele>
        <time>2023-07-10T16:24:49.000Z</time>
      </trkpt>
      <trkpt lat="45.82359" lon="4.69572">
        <ele>324.9187</ele>
        <time>2023-07-10T16:24:50.000Z</time>
      </trkpt>
      <trkpt lat="45.82365" lon="4.6957">
        <ele>324.85968</ele>
        <time>2023-07-10T16:24:51.000Z</time>
      </trkpt>
      <trkpt lat="45.82372" lon="4.69566">
        <ele>324.86246</ele>
        <time>2023-07-10T16:24:52.000Z</time>
      </trkpt>
      <trkpt lat="45.82379" lon="4.69565">
        <ele>324.83331</ele>
        <time>2023-07-10T16:24:53.000Z</time>
      </trkpt>
      <trkpt lat="45.82385" lon="4.69564">
        <ele>324.83771</ele>
        <time>2023-07-10T16:24:54.000Z</time>
      </trkpt>
      <trkpt lat="45.82392" lon="4.69562">
        <ele>324.8248</ele>
        <time>2023-07-10T16:24:55.000Z</time>
      </trkpt>
      <trkpt lat="45.82399" lon="4.69559">
        <ele>324.84311</ele>
        <time>2023-07-10T16:24:56.000Z</time>
      </trkpt>
      <trkpt lat="45.82406" lon="4.69556">
        <ele>324.87036</ele>
        <time>2023-07-10T16:24:57.000Z</time>
      </trkpt>
      <trkpt lat="45.82412" lon="4.69554">
        <ele>324.89963</ele>
        <time>2023-07-10T16:24:58.000Z</time>
      </trkpt>
      <trkpt lat="45.82419" lon="4.69552">
        <ele>324.92249</ele>
        <time>2023-07-10T16:24:59.000Z</time>
      </trkpt>
      <trkpt lat="45.82425" lon="4.6955">
        <ele>324.97592</ele>
        <time>2023-07-10T16:25:00.000Z</time>
      </trkpt>
      <trkpt lat="45.82432" lon="4.69547">
        <ele>325.04419</ele>
        <time>2023-07-10T16:25:01.000Z</time>
      </trkpt>
      <trkpt lat="45.82439" lon="4.69545">
        <ele>325.10748</ele>
        <time>2023-07-10T16:25:02.000Z</time>
      </trkpt>
      <trkpt lat="45.82445" lon="4.69543">
        <ele>325.15085</ele>
        <time>2023-07-10T16:25:03.000Z</time>
      </trkpt>
      <trkpt lat="45.82452" lon="4.69541">
        <ele>325.18802</ele>
        <time>2023-07-10T16:25:04.000Z</time>
      </trkpt>
      <trkpt lat="45.82458" lon="4.69539">
        <ele>325.26801</ele>
        <time>2023-07-10T16:25:05.000Z</time>
      </trkpt>
      <trkpt lat="45.82465" lon="4.69537">
        <ele>325.35675</ele>
        <time>2023-07-10T16:25:06.000Z</time>
      </trkpt>
      <trkpt lat="45.82472" lon="4.69534">
        <ele>325.48737</ele>
        <time>2023-07-10T16:25:07.000Z</time>
      </trkpt>
      <trkpt lat="45.82479" lon="4.69531">
        <ele>325.62234</ele>
        <time>2023-07-10T16:25:08.000Z</time>
      </trkpt>
      <trkpt lat="45.82486" lon="4.6953">
        <ele>325.7496</ele>
        <time>2023-07-10T16:25:09.000Z</time>
      </trkpt>
      <trkpt lat="45.82493" lon="4.69528">
        <ele>325.83664</ele>
        <time>2023-07-10T16:25:10.000Z</time>
      </trkpt>
      <trkpt lat="45.825" lon="4.69527">
        <ele>325.91437</ele>
        <time>2023-07-10T16:25:11.000Z</time>
      </trkpt>
      <trkpt lat="45.82507" lon="4.69526">
        <ele>325.97781</ele>
        <time>2023-07-10T16:25:12.000Z</time>
      </trkpt>
      <trkpt lat="45.82514" lon="4.69525">
        <ele>326.05136</ele>
        <time>2023-07-10T16:25:13.000Z</time>
      </trkpt>
      <trkpt lat="45.82522" lon="4.69525">
        <ele>326.09283</ele>
        <time>2023-07-10T16:25:14.000Z</time>
      </trkpt>
      <trkpt lat="45.82529" lon="4.69525">
        <ele>326.15372</ele>
        <time>2023-07-10T16:25:15.000Z</time>
      </trkpt>
      <trkpt lat="45.82536" lon="4.69526">
        <ele>325.81607</ele>
        <time>2023-07-10T16:25:16.000Z</time>
      </trkpt>
      <trkpt lat="45.82543" lon="4.69527">
        <ele>325.4631</ele>
        <time>2023-07-10T16:25:17.000Z</time>
      </trkpt>
      <trkpt lat="45.8255" lon="4.69528">
        <ele>325.0943</ele>
        <time>2023-07-10T16:25:18.000Z</time>
      </trkpt>
      <trkpt lat="45.82557" lon="4.69531">
        <ele>324.67715</ele>
        <time>2023-07-10T16:25:19.000Z</time>
      </trkpt>
      <trkpt lat="45.82563" lon="4.69533">
        <ele>324.22632</ele>
        <time>2023-07-10T16:25:20.000Z</time>
      </trkpt>
      <trkpt lat="45.8257" lon="4.69537">
        <ele>324.12369</ele>
        <time>2023-07-10T16:25:21.000Z</time>
      </trkpt>
      <trkpt lat="45.82577" lon="4.6954">
        <ele>324.02704</ele>
        <time>2023-07-10T16:25:22.000Z</time>
      </trkpt>
      <trkpt lat="45.82583" lon="4.69543">
        <ele>323.96964</ele>
        <time>2023-07-10T16:25:23.000Z</time>
      </trkpt>
      <trkpt lat="45.8259" lon="4.69547">
        <ele>323.91785</ele>
        <time>2023-07-10T16:25:24.000Z</time>
      </trkpt>
      <trkpt lat="45.82597" lon="4.6955">
        <ele>323.84991</ele>
        <time>2023-07-10T16:25:25.000Z</time>
      </trkpt>
      <trkpt lat="45.82603" lon="4.69552">
        <ele>323.78754</ele>
        <time>2023-07-10T16:25:26.000Z</time>
      </trkpt>
      <trkpt lat="45.8261" lon="4.69556">
        <ele>323.71036</ele>
        <time>2023-07-10T16:25:27.000Z</time>
      </trkpt>
      <trkpt lat="45.82616" lon="4.69558">
        <ele>323.63644</ele>
        <time>2023-07-10T16:25:28.000Z</time>
      </trkpt>
      <trkpt lat="45.82622" lon="4.69562">
        <ele>323.56226</ele>
        <time>2023-07-10T16:25:29.000Z</time>
      </trkpt>
      <trkpt lat="45.82629" lon="4.69565">
        <ele>323.50864</ele>
        <time>2023-07-10T16:25:30.000Z</time>
      </trkpt>
      <trkpt lat="45.82635" lon="4.69567">
        <ele>323.45734</ele>
        <time>2023-07-10T16:25:31.000Z</time>
      </trkpt>
      <trkpt lat="45.8264" lon="4.6957">
        <ele>323.37213</ele>
        <time>2023-07-10T16:25:32.000Z</time>
      </trkpt>
      <trkpt lat="45.82646" lon="4.69573">
        <ele>322.81329</ele>
        <time>2023-07-10T16:25:33.000Z</time>
      </trkpt>
      <trkpt lat="45.82653" lon="4.69577">
        <ele>322.38568</ele>
        <time>2023-07-10T16:25:34.000Z</time>
      </trkpt>
      <trkpt lat="45.82659" lon="4.6958">
        <ele>321.98792</ele>
        <time>2023-07-10T16:25:35.000Z</time>
      </trkpt>
      <trkpt lat="45.82666" lon="4.69583">
        <ele>321.94501</ele>
        <time>2023-07-10T16:25:36.000Z</time>
      </trkpt>
      <trkpt lat="45.82672" lon="4.69586">
        <ele>321.89972</ele>
        <time>2023-07-10T16:25:37.000Z</time>
      </trkpt>
      <trkpt lat="45.82679" lon="4.69589">
        <ele>321.8714</ele>
        <time>2023-07-10T16:25:38.000Z</time>
      </trkpt>
      <trkpt lat="45.82685" lon="4.69592">
        <ele>321.86664</ele>
        <time>2023-07-10T16:25:39.000Z</time>
      </trkpt>
      <trkpt lat="45.82692" lon="4.69595">
        <ele>321.8768</ele>
        <time>2023-07-10T16:25:40.000Z</time>
      </trkpt>
      <trkpt lat="45.82699" lon="4.69599">
        <ele>321.91693</ele>
        <time>2023-07-10T16:25:41.000Z</time>
      </trkpt>
      <trkpt lat="45.82705" lon="4.69603">
        <ele>321.98746</ele>
        <time>2023-07-10T16:25:42.000Z</time>
      </trkpt>
      <trkpt lat="45.82711" lon="4.69606">
        <ele>322.06046</ele>
        <time>2023-07-10T16:25:43.000Z</time>
      </trkpt>
      <trkpt lat="45.82718" lon="4.69609">
        <ele>322.12363</ele>
        <time>2023-07-10T16:25:44.000Z</time>
      </trkpt>
      <trkpt lat="45.82723" lon="4.69612">
        <ele>321.62262</ele>
        <time>2023-07-10T16:25:45.000Z</time>
      </trkpt>
      <trkpt lat="45.8273" lon="4.69614">
        <ele>321.30612</ele>
        <time>2023-07-10T16:25:46.000Z</time>
      </trkpt>
      <trkpt lat="45.82735" lon="4.69618">
        <ele>320.97501</ele>
        <time>2023-07-10T16:25:47.000Z</time>
      </trkpt>
      <trkpt lat="45.82741" lon="4.69621">
        <ele>320.63495</ele>
        <time>2023-07-10T16:25:48.000Z</time>
      </trkpt>
      <trkpt lat="45.82747" lon="4.69623">
        <ele>320.31854</ele>
        <time>2023-07-10T16:25:49.000Z</time>
      </trkpt>
      <trkpt lat="45.82754" lon="4.69626">
        <ele>320.00555</ele>
        <time>2023-07-10T16:25:50.000Z</time>
      </trkpt>
      <trkpt lat="45.8276" lon="4.69629">
        <ele>319.66534</ele>
        <time>2023-07-10T16:25:51.000Z</time>
      </trkpt>
      <trkpt lat="45.82766" lon="4.69631">
        <ele>319.33344</ele>
        <time>2023-07-10T16:25:52.000Z</time>
      </trkpt>
      <trkpt lat="45.82772" lon="4.69634">
        <ele>319.49435</ele>
        <time>2023-07-10T16:25:53.000Z</time>
      </trkpt>
      <trkpt lat="45.82778" lon="4.69637">
        <ele>319.50961</ele>
        <time>2023-07-10T16:25:54.000Z</time>
      </trkpt>
      <trkpt lat="45.82783" lon="4.6964">
        <ele>319.4809</ele>
        <time>2023-07-10T16:25:55.000Z</time>
      </trkpt>
      <trkpt lat="45.82789" lon="4.69643">
        <ele>319.45108</ele>
        <time>2023-07-10T16:25:56.000Z</time>
      </trkpt>
      <trkpt lat="45.82795" lon="4.69646">
        <ele>319.42642</ele>
        <time>2023-07-10T16:25:57.000Z</time>
      </trkpt>
      <trkpt lat="45.82801" lon="4.69649">
        <ele>319.37988</ele>
        <time>2023-07-10T16:25:58.000Z</time>
      </trkpt>
      <trkpt lat="45.82808" lon="4.69652">
        <ele>319.38959</ele>
        <time>2023-07-10T16:25:59.000Z</time>
      </trkpt>
      <trkpt lat="45.82814" lon="4.69655">
        <ele>319.37769</ele>
        <time>2023-07-10T16:26:00.000Z</time>
      </trkpt>
      <trkpt lat="45.8282" lon="4.69658">
        <ele>318.98071</ele>
        <time>2023-07-10T16:26:01.000Z</time>
      </trkpt>
      <trkpt lat="45.82827" lon="4.69661">
        <ele>318.58185</ele>
        <time>2023-07-10T16:26:02.000Z</time>
      </trkpt>
      <trkpt lat="45.82834" lon="4.69664">
        <ele>318.15332</ele>
        <time>2023-07-10T16:26:03.000Z</time>
      </trkpt>
      <trkpt lat="45.8284" lon="4.69667">
        <ele>317.71719</ele>
        <time>2023-07-10T16:26:04.000Z</time>
      </trkpt>
      <trkpt lat="45.82847" lon="4.6967">
        <ele>317.85904</ele>
        <time>2023-07-10T16:26:05.000Z</time>
      </trkpt>
      <trkpt lat="45.82853" lon="4.69673">
        <ele>317.80609</ele>
        <time>2023-07-10T16:26:06.000Z</time>
      </trkpt>
      <trkpt lat="45.82859" lon="4.69676">
        <ele>317.75891</ele>
        <time>2023-07-10T16:26:07.000Z</time>
      </trkpt>
      <trkpt lat="45.82865" lon="4.69679">
        <ele>317.70056</ele>
        <time>2023-07-10T16:26:08.000Z</time>
      </trkpt>
      <trkpt lat="45.82871" lon="4.69682">
        <ele>317.64651</ele>
        <time>2023-07-10T16:26:09.000Z</time>
      </trkpt>
      <trkpt lat="45.82876" lon="4.69686">
        <ele>317.58514</ele>
        <time>2023-07-10T16:26:10.000Z</time>
      </trkpt>
      <trkpt lat="45.82882" lon="4.69688">
        <ele>317.53488</ele>
        <time>2023-07-10T16:26:11.000Z</time>
      </trkpt>
      <trkpt lat="45.82888" lon="4.69692">
        <ele>317.4816</ele>
        <time>2023-07-10T16:26:12.000Z</time>
      </trkpt>
      <trkpt lat="45.82895" lon="4.69695">
        <ele>317.44809</ele>
        <time>2023-07-10T16:26:13.000Z</time>
      </trkpt>
      <trkpt lat="45.82901" lon="4.69699">
        <ele>317.4234</ele>
        <time>2023-07-10T16:26:14.000Z</time>
      </trkpt>
      <trkpt lat="45.82907" lon="4.69702">
        <ele>317.39804</ele>
        <time>2023-07-10T16:26:15.000Z</time>
      </trkpt>
      <trkpt lat="45.82914" lon="4.69705">
        <ele>317.37234</ele>
        <time>2023-07-10T16:26:16.000Z</time>
      </trkpt>
      <trkpt lat="45.82921" lon="4.69708">
        <ele>317.37628</ele>
        <time>2023-07-10T16:26:17.000Z</time>
      </trkpt>
      <trkpt lat="45.82928" lon="4.69711">
        <ele>317.39081</ele>
        <time>2023-07-10T16:26:18.000Z</time>
      </trkpt>
      <trkpt lat="45.82934" lon="4.69713">
        <ele>317.36038</ele>
        <time>2023-07-10T16:26:19.000Z</time>
      </trkpt>
      <trkpt lat="45.8294" lon="4.69716">
        <ele>317.37817</ele>
        <time>2023-07-10T16:26:20.000Z</time>
      </trkpt>
      <trkpt lat="45.82946" lon="4.6972">
        <ele>317.34259</ele>
        <time>2023-07-10T16:26:21.000Z</time>
      </trkpt>
      <trkpt lat="45.82952" lon="4.69723">
        <ele>317.21124</ele>
        <time>2023-07-10T16:26:22.000Z</time>
      </trkpt>
      <trkpt lat="45.82958" lon="4.69726">
        <ele>317.28958</ele>
        <time>2023-07-10T16:26:23.000Z</time>
      </trkpt>
      <trkpt lat="45.82965" lon="4.6973">
        <ele>317.34616</ele>
        <time>2023-07-10T16:26:24.000Z</time>
      </trkpt>
      <trkpt lat="45.82971" lon="4.69733">
        <ele>317.41284</ele>
        <time>2023-07-10T16:26:25.000Z</time>
      </trkpt>
      <trkpt lat="45.82978" lon="4.69736">
        <ele>317.47037</ele>
        <time>2023-07-10T16:26:26.000Z</time>
      </trkpt>
      <trkpt lat="45.82984" lon="4.69738">
        <ele>317.50769</ele>
        <time>2023-07-10T16:26:27.000Z</time>
      </trkpt>
      <trkpt lat="45.8299" lon="4.69742">
        <ele>317.55392</ele>
        <time>2023-07-10T16:26:28.000Z</time>
      </trkpt>
      <trkpt lat="45.82996" lon="4.69744">
        <ele>317.58246</ele>
        <time>2023-07-10T16:26:29.000Z</time>
      </trkpt>
      <trkpt lat="45.83002" lon="4.69747">
        <ele>317.61456</ele>
        <time>2023-07-10T16:26:30.000Z</time>
      </trkpt>
      <trkpt lat="45.83008" lon="4.6975">
        <ele>317.67938</ele>
        <time>2023-07-10T16:26:31.000Z</time>
      </trkpt>
      <trkpt lat="45.83014" lon="4.69753">
        <ele>317.75211</ele>
        <time>2023-07-10T16:26:32.000Z</time>
      </trkpt>
      <trkpt lat="45.83019" lon="4.69756">
        <ele>317.79401</ele>
        <time>2023-07-10T16:26:33.000Z</time>
      </trkpt>
      <trkpt lat="45.83024" lon="4.69759">
        <ele>317.80914</ele>
        <time>2023-07-10T16:26:34.000Z</time>
      </trkpt>
      <trkpt lat="45.8303" lon="4.69761">
        <ele>317.82025</ele>
        <time>2023-07-10T16:26:35.000Z</time>
      </trkpt>
      <trkpt lat="45.83036" lon="4.69764">
        <ele>317.81812</ele>
        <time>2023-07-10T16:26:36.000Z</time>
      </trkpt>
      <trkpt lat="45.83041" lon="4.69767">
        <ele>317.69745</ele>
        <time>2023-07-10T16:26:37.000Z</time>
      </trkpt>
      <trkpt lat="45.83047" lon="4.6977">
        <ele>317.57471</ele>
        <time>2023-07-10T16:26:38.000Z</time>
      </trkpt>
      <trkpt lat="45.83053" lon="4.69773">
        <ele>317.34802</ele>
        <time>2023-07-10T16:26:39.000Z</time>
      </trkpt>
      <trkpt lat="45.83059" lon="4.69776">
        <ele>317.07935</ele>
        <time>2023-07-10T16:26:40.000Z</time>
      </trkpt>
      <trkpt lat="45.83065" lon="4.69779">
        <ele>317.07666</ele>
        <time>2023-07-10T16:26:41.000Z</time>
      </trkpt>
      <trkpt lat="45.83072" lon="4.69783">
        <ele>317.05206</ele>
        <time>2023-07-10T16:26:42.000Z</time>
      </trkpt>
      <trkpt lat="45.83078" lon="4.69786">
        <ele>316.79123</ele>
        <time>2023-07-10T16:26:43.000Z</time>
      </trkpt>
      <trkpt lat="45.83085" lon="4.69789">
        <ele>316.57849</ele>
        <time>2023-07-10T16:26:44.000Z</time>
      </trkpt>
      <trkpt lat="45.83092" lon="4.69793">
        <ele>316.34744</ele>
        <time>2023-07-10T16:26:45.000Z</time>
      </trkpt>
      <trkpt lat="45.831" lon="4.69796">
        <ele>316.06192</ele>
        <time>2023-07-10T16:26:46.000Z</time>
      </trkpt>
      <trkpt lat="45.83106" lon="4.69799">
        <ele>315.63736</ele>
        <time>2023-07-10T16:26:47.000Z</time>
      </trkpt>
      <trkpt lat="45.83113" lon="4.69802">
        <ele>315.39902</ele>
        <time>2023-07-10T16:26:48.000Z</time>
      </trkpt>
      <trkpt lat="45.8312" lon="4.69807">
        <ele>315.00482</ele>
        <time>2023-07-10T16:26:49.000Z</time>
      </trkpt>
      <trkpt lat="45.83127" lon="4.6981">
        <ele>314.72464</ele>
        <time>2023-07-10T16:26:50.000Z</time>
      </trkpt>
      <trkpt lat="45.83133" lon="4.69813">
        <ele>314.42111</ele>
        <time>2023-07-10T16:26:51.000Z</time>
      </trkpt>
      <trkpt lat="45.8314" lon="4.69816">
        <ele>314.1153</ele>
        <time>2023-07-10T16:26:52.000Z</time>
      </trkpt>
      <trkpt lat="45.83147" lon="4.6982">
        <ele>313.82684</ele>
        <time>2023-07-10T16:26:53.000Z</time>
      </trkpt>
      <trkpt lat="45.83154" lon="4.69824">
        <ele>313.55048</ele>
        <time>2023-07-10T16:26:54.000Z</time>
      </trkpt>
      <trkpt lat="45.83161" lon="4.69828">
        <ele>313.27591</ele>
        <time>2023-07-10T16:26:55.000Z</time>
      </trkpt>
      <trkpt lat="45.83168" lon="4.69832">
        <ele>312.99011</ele>
        <time>2023-07-10T16:26:56.000Z</time>
      </trkpt>
      <trkpt lat="45.83175" lon="4.69836">
        <ele>312.7941</ele>
        <time>2023-07-10T16:26:57.000Z</time>
      </trkpt>
      <trkpt lat="45.83183" lon="4.6984">
        <ele>312.58813</ele>
        <time>2023-07-10T16:26:58.000Z</time>
      </trkpt>
      <trkpt lat="45.83191" lon="4.69844">
        <ele>312.47662</ele>
        <time>2023-07-10T16:26:59.000Z</time>
      </trkpt>
      <trkpt lat="45.83199" lon="4.69848">
        <ele>312.35602</ele>
        <time>2023-07-10T16:27:00.000Z</time>
      </trkpt>
      <trkpt lat="45.83206" lon="4.69852">
        <ele>312.02597</ele>
        <time>2023-07-10T16:27:01.000Z</time>
      </trkpt>
      <trkpt lat="45.83215" lon="4.69856">
        <ele>311.7049</ele>
        <time>2023-07-10T16:27:02.000Z</time>
      </trkpt>
      <trkpt lat="45.83223" lon="4.6986">
        <ele>311.4014</ele>
        <time>2023-07-10T16:27:03.000Z</time>
      </trkpt>
      <trkpt lat="45.83231" lon="4.69862">
        <ele>311.10031</ele>
        <time>2023-07-10T16:27:04.000Z</time>
      </trkpt>
      <trkpt lat="45.83238" lon="4.69865">
        <ele>310.80487</ele>
        <time>2023-07-10T16:27:05.000Z</time>
      </trkpt>
      <trkpt lat="45.83247" lon="4.69867">
        <ele>310.56967</ele>
        <time>2023-07-10T16:27:06.000Z</time>
      </trkpt>
      <trkpt lat="45.83255" lon="4.69869">
        <ele>310.41336</ele>
        <time>2023-07-10T16:27:07.000Z</time>
      </trkpt>
      <trkpt lat="45.83263" lon="4.69869">
        <ele>310.11441</ele>
        <time>2023-07-10T16:27:08.000Z</time>
      </trkpt>
      <trkpt lat="45.83272" lon="4.69869">
        <ele>309.92126</ele>
        <time>2023-07-10T16:27:09.000Z</time>
      </trkpt>
      <trkpt lat="45.83281" lon="4.69869">
        <ele>309.59784</ele>
        <time>2023-07-10T16:27:10.000Z</time>
      </trkpt>
      <trkpt lat="45.8329" lon="4.69868">
        <ele>309.23984</ele>
        <time>2023-07-10T16:27:11.000Z</time>
      </trkpt>
      <trkpt lat="45.83298" lon="4.69867">
        <ele>308.86835</ele>
        <time>2023-07-10T16:27:12.000Z</time>
      </trkpt>
      <trkpt lat="45.83307" lon="4.69867">
        <ele>308.47043</ele>
        <time>2023-07-10T16:27:13.000Z</time>
      </trkpt>
      <trkpt lat="45.83316" lon="4.69867">
        <ele>308.16663</ele>
        <time>2023-07-10T16:27:14.000Z</time>
      </trkpt>
      <trkpt lat="45.83325" lon="4.69866">
        <ele>307.85101</ele>
        <time>2023-07-10T16:27:15.000Z</time>
      </trkpt>
      <trkpt lat="45.83333" lon="4.69866">
        <ele>307.52594</ele>
        <time>2023-07-10T16:27:16.000Z</time>
      </trkpt>
      <trkpt lat="45.83342" lon="4.69867">
        <ele>307.17865</ele>
        <time>2023-07-10T16:27:17.000Z</time>
      </trkpt>
      <trkpt lat="45.8335" lon="4.69868">
        <ele>306.82028</ele>
        <time>2023-07-10T16:27:18.000Z</time>
      </trkpt>
      <trkpt lat="45.83359" lon="4.69867">
        <ele>306.47305</ele>
        <time>2023-07-10T16:27:19.000Z</time>
      </trkpt>
      <trkpt lat="45.83368" lon="4.69866">
        <ele>306.12253</ele>
        <time>2023-07-10T16:27:20.000Z</time>
      </trkpt>
      <trkpt lat="45.83376" lon="4.69868">
        <ele>305.75659</ele>
        <time>2023-07-10T16:27:21.000Z</time>
      </trkpt>
      <trkpt lat="45.83382" lon="4.69874">
        <ele>305.44571</ele>
        <time>2023-07-10T16:27:22.000Z</time>
      </trkpt>
      <trkpt lat="45.83385" lon="4.69884">
        <ele>305.13571</ele>
        <time>2023-07-10T16:27:23.000Z</time>
      </trkpt>
      <trkpt lat="45.83387" lon="4.69894">
        <ele>304.76382</ele>
        <time>2023-07-10T16:27:24.000Z</time>
      </trkpt>
      <trkpt lat="45.83391" lon="4.69903">
        <ele>304.87949</ele>
        <time>2023-07-10T16:27:25.000Z</time>
      </trkpt>
      <trkpt lat="45.83396" lon="4.6991">
        <ele>305.0036</ele>
        <time>2023-07-10T16:27:26.000Z</time>
      </trkpt>
      <trkpt lat="45.834" lon="4.69919">
        <ele>305.14191</ele>
        <time>2023-07-10T16:27:27.000Z</time>
      </trkpt>
      <trkpt lat="45.83403" lon="4.69928">
        <ele>305.13577</ele>
        <time>2023-07-10T16:27:28.000Z</time>
      </trkpt>
      <trkpt lat="45.83404" lon="4.69938">
        <ele>305.17868</ele>
        <time>2023-07-10T16:27:29.000Z</time>
      </trkpt>
      <trkpt lat="45.83403" lon="4.69947">
        <ele>304.94345</ele>
        <time>2023-07-10T16:27:30.000Z</time>
      </trkpt>
      <trkpt lat="45.83402" lon="4.69957">
        <ele>304.72552</ele>
        <time>2023-07-10T16:27:31.000Z</time>
      </trkpt>
      <trkpt lat="45.83401" lon="4.69966">
        <ele>304.53494</ele>
        <time>2023-07-10T16:27:32.000Z</time>
      </trkpt>
      <trkpt lat="45.834" lon="4.69974">
        <ele>304.34311</ele>
        <time>2023-07-10T16:27:33.000Z</time>
      </trkpt>
      <trkpt lat="45.83399" lon="4.69982">
        <ele>304.07135</ele>
        <time>2023-07-10T16:27:34.000Z</time>
      </trkpt>
      <trkpt lat="45.83398" lon="4.69989">
        <ele>303.82983</ele>
        <time>2023-07-10T16:27:35.000Z</time>
      </trkpt>
      <trkpt lat="45.83397" lon="4.69997">
        <ele>303.61032</ele>
        <time>2023-07-10T16:27:36.000Z</time>
      </trkpt>
      <trkpt lat="45.83396" lon="4.70005">
        <ele>303.39566</ele>
        <time>2023-07-10T16:27:37.000Z</time>
      </trkpt>
      <trkpt lat="45.83396" lon="4.70013">
        <ele>303.19458</ele>
        <time>2023-07-10T16:27:38.000Z</time>
      </trkpt>
      <trkpt lat="45.83395" lon="4.70021">
        <ele>302.98932</ele>
        <time>2023-07-10T16:27:39.000Z</time>
      </trkpt>
      <trkpt lat="45.83394" lon="4.70029">
        <ele>302.7818</ele>
        <time>2023-07-10T16:27:40.000Z</time>
      </trkpt>
      <trkpt lat="45.83393" lon="4.70036">
        <ele>302.61371</ele>
        <time>2023-07-10T16:27:41.000Z</time>
      </trkpt>
      <trkpt lat="45.83393" lon="4.70045">
        <ele>302.44949</ele>
        <time>2023-07-10T16:27:42.000Z</time>
      </trkpt>
      <trkpt lat="45.83392" lon="4.70052">
        <ele>302.26331</ele>
        <time>2023-07-10T16:27:43.000Z</time>
      </trkpt>
      <trkpt lat="45.83392" lon="4.70059">
        <ele>302.12851</ele>
        <time>2023-07-10T16:27:44.000Z</time>
      </trkpt>
      <trkpt lat="45.83392" lon="4.70068">
        <ele>301.53217</ele>
        <time>2023-07-10T16:27:45.000Z</time>
      </trkpt>
      <trkpt lat="45.83391" lon="4.70077">
        <ele>300.93405</ele>
        <time>2023-07-10T16:27:46.000Z</time>
      </trkpt>
      <trkpt lat="45.8339" lon="4.70085">
        <ele>300.38654</ele>
        <time>2023-07-10T16:27:47.000Z</time>
      </trkpt>
      <trkpt lat="45.83389" lon="4.70093">
        <ele>299.97552</ele>
        <time>2023-07-10T16:27:48.000Z</time>
      </trkpt>
      <trkpt lat="45.83388" lon="4.70102">
        <ele>299.59961</ele>
        <time>2023-07-10T16:27:49.000Z</time>
      </trkpt>
      <trkpt lat="45.83388" lon="4.70111">
        <ele>299.54514</ele>
        <time>2023-07-10T16:27:50.000Z</time>
      </trkpt>
      <trkpt lat="45.83385" lon="4.70119">
        <ele>299.49643</ele>
        <time>2023-07-10T16:27:51.000Z</time>
      </trkpt>
      <trkpt lat="45.83383" lon="4.70127">
        <ele>299.3978</ele>
        <time>2023-07-10T16:27:52.000Z</time>
      </trkpt>
      <trkpt lat="45.83381" lon="4.70135">
        <ele>299.30911</ele>
        <time>2023-07-10T16:27:53.000Z</time>
      </trkpt>
      <trkpt lat="45.83379" lon="4.70143">
        <ele>299.2713</ele>
        <time>2023-07-10T16:27:54.000Z</time>
      </trkpt>
      <trkpt lat="45.83376" lon="4.70151">
        <ele>299.32626</ele>
        <time>2023-07-10T16:27:55.000Z</time>
      </trkpt>
      <trkpt lat="45.83374" lon="4.70159">
        <ele>299.42886</ele>
        <time>2023-07-10T16:27:56.000Z</time>
      </trkpt>
      <trkpt lat="45.83371" lon="4.70168">
        <ele>299.60928</ele>
        <time>2023-07-10T16:27:57.000Z</time>
      </trkpt>
      <trkpt lat="45.83369" lon="4.70176">
        <ele>299.80948</ele>
        <time>2023-07-10T16:27:58.000Z</time>
      </trkpt>
      <trkpt lat="45.83366" lon="4.70185">
        <ele>300.0473</ele>
        <time>2023-07-10T16:27:59.000Z</time>
      </trkpt>
      <trkpt lat="45.83364" lon="4.70193">
        <ele>300.34229</ele>
        <time>2023-07-10T16:28:00.000Z</time>
      </trkpt>
      <trkpt lat="45.83361" lon="4.70202">
        <ele>300.61981</ele>
        <time>2023-07-10T16:28:01.000Z</time>
      </trkpt>
      <trkpt lat="45.83358" lon="4.7021">
        <ele>300.86749</ele>
        <time>2023-07-10T16:28:02.000Z</time>
      </trkpt>
      <trkpt lat="45.83355" lon="4.70218">
        <ele>301.14154</ele>
        <time>2023-07-10T16:28:03.000Z</time>
      </trkpt>
      <trkpt lat="45.83352" lon="4.70226">
        <ele>301.38275</ele>
        <time>2023-07-10T16:28:04.000Z</time>
      </trkpt>
      <trkpt lat="45.83349" lon="4.70233">
        <ele>301.60504</ele>
        <time>2023-07-10T16:28:05.000Z</time>
      </trkpt>
      <trkpt lat="45.83347" lon="4.70241">
        <ele>301.83466</ele>
        <time>2023-07-10T16:28:06.000Z</time>
      </trkpt>
      <trkpt lat="45.83343" lon="4.70249">
        <ele>302.08008</ele>
        <time>2023-07-10T16:28:07.000Z</time>
      </trkpt>
      <trkpt lat="45.8334" lon="4.70256">
        <ele>302.32217</ele>
        <time>2023-07-10T16:28:08.000Z</time>
      </trkpt>
      <trkpt lat="45.83337" lon="4.70263">
        <ele>302.54449</ele>
        <time>2023-07-10T16:28:09.000Z</time>
      </trkpt>
      <trkpt lat="45.83335" lon="4.7027">
        <ele>302.72861</ele>
        <time>2023-07-10T16:28:10.000Z</time>
      </trkpt>
      <trkpt lat="45.83332" lon="4.70278">
        <ele>302.93008</ele>
        <time>2023-07-10T16:28:11.000Z</time>
      </trkpt>
      <trkpt lat="45.8333" lon="4.70286">
        <ele>303.17123</ele>
        <time>2023-07-10T16:28:12.000Z</time>
      </trkpt>
      <trkpt lat="45.83328" lon="4.70294">
        <ele>303.40457</ele>
        <time>2023-07-10T16:28:13.000Z</time>
      </trkpt>
      <trkpt lat="45.83326" lon="4.70302">
        <ele>303.57697</ele>
        <time>2023-07-10T16:28:14.000Z</time>
      </trkpt>
      <trkpt lat="45.83324" lon="4.70309">
        <ele>303.66153</ele>
        <time>2023-07-10T16:28:15.000Z</time>
      </trkpt>
      <trkpt lat="45.83322" lon="4.70315">
        <ele>303.72296</ele>
        <time>2023-07-10T16:28:16.000Z</time>
      </trkpt>
      <trkpt lat="45.8332" lon="4.70322">
        <ele>303.72079</ele>
        <time>2023-07-10T16:28:17.000Z</time>
      </trkpt>
      <trkpt lat="45.83318" lon="4.70328">
        <ele>303.70966</ele>
        <time>2023-07-10T16:28:18.000Z</time>
      </trkpt>
      <trkpt lat="45.83318" lon="4.70333">
        <ele>303.68573</ele>
        <time>2023-07-10T16:28:19.000Z</time>
      </trkpt>
      <trkpt lat="45.83319" lon="4.70337">
        <ele>303.7153</ele>
        <time>2023-07-10T16:28:20.000Z</time>
      </trkpt>
      <trkpt lat="45.83321" lon="4.70343">
        <ele>303.72208</ele>
        <time>2023-07-10T16:28:21.000Z</time>
      </trkpt>
      <trkpt lat="45.83323" lon="4.70349">
        <ele>303.67401</ele>
        <time>2023-07-10T16:28:22.000Z</time>
      </trkpt>
      <trkpt lat="45.83324" lon="4.70356">
        <ele>303.63788</ele>
        <time>2023-07-10T16:28:23.000Z</time>
      </trkpt>
      <trkpt lat="45.83324" lon="4.70362">
        <ele>303.64096</ele>
        <time>2023-07-10T16:28:24.000Z</time>
      </trkpt>
      <trkpt lat="45.83325" lon="4.7037">
        <ele>303.63678</ele>
        <time>2023-07-10T16:28:25.000Z</time>
      </trkpt>
      <trkpt lat="45.83327" lon="4.70377">
        <ele>303.58469</ele>
        <time>2023-07-10T16:28:26.000Z</time>
      </trkpt>
      <trkpt lat="45.83329" lon="4.70384">
        <ele>303.51837</ele>
        <time>2023-07-10T16:28:27.000Z</time>
      </trkpt>
      <trkpt lat="45.8333" lon="4.70391">
        <ele>303.4151</ele>
        <time>2023-07-10T16:28:28.000Z</time>
      </trkpt>
      <trkpt lat="45.83331" lon="4.70399">
        <ele>303.29059</ele>
        <time>2023-07-10T16:28:29.000Z</time>
      </trkpt>
      <trkpt lat="45.83332" lon="4.70407">
        <ele>303.19827</ele>
        <time>2023-07-10T16:28:30.000Z</time>
      </trkpt>
      <trkpt lat="45.83333" lon="4.70415">
        <ele>303.11249</ele>
        <time>2023-07-10T16:28:31.000Z</time>
      </trkpt>
      <trkpt lat="45.83335" lon="4.70422">
        <ele>303.04404</ele>
        <time>2023-07-10T16:28:32.000Z</time>
      </trkpt>
      <trkpt lat="45.83335" lon="4.70429">
        <ele>303.0014</ele>
        <time>2023-07-10T16:28:33.000Z</time>
      </trkpt>
      <trkpt lat="45.83336" lon="4.70436">
        <ele>302.97504</ele>
        <time>2023-07-10T16:28:34.000Z</time>
      </trkpt>
      <trkpt lat="45.83336" lon="4.70442">
        <ele>302.9696</ele>
        <time>2023-07-10T16:28:35.000Z</time>
      </trkpt>
      <trkpt lat="45.83336" lon="4.70451">
        <ele>302.93106</ele>
        <time>2023-07-10T16:28:36.000Z</time>
      </trkpt>
      <trkpt lat="45.83338" lon="4.70459">
        <ele>302.86203</ele>
        <time>2023-07-10T16:28:37.000Z</time>
      </trkpt>
      <trkpt lat="45.83338" lon="4.70466">
        <ele>302.7995</ele>
        <time>2023-07-10T16:28:38.000Z</time>
      </trkpt>
      <trkpt lat="45.83339" lon="4.70474">
        <ele>302.73779</ele>
        <time>2023-07-10T16:28:39.000Z</time>
      </trkpt>
      <trkpt lat="45.8334" lon="4.70481">
        <ele>302.60895</ele>
        <time>2023-07-10T16:28:40.000Z</time>
      </trkpt>
      <trkpt lat="45.83341" lon="4.70491">
        <ele>302.47116</ele>
        <time>2023-07-10T16:28:41.000Z</time>
      </trkpt>
      <trkpt lat="45.83341" lon="4.70497">
        <ele>302.43741</ele>
        <time>2023-07-10T16:28:42.000Z</time>
      </trkpt>
      <trkpt lat="45.83341" lon="4.70506">
        <ele>302.37061</ele>
        <time>2023-07-10T16:28:43.000Z</time>
      </trkpt>
      <trkpt lat="45.83342" lon="4.70513">
        <ele>302.26855</ele>
        <time>2023-07-10T16:28:44.000Z</time>
      </trkpt>
      <trkpt lat="45.83343" lon="4.70521">
        <ele>302.15118</ele>
        <time>2023-07-10T16:28:45.000Z</time>
      </trkpt>
      <trkpt lat="45.83344" lon="4.70529">
        <ele>302.29962</ele>
        <time>2023-07-10T16:28:46.000Z</time>
      </trkpt>
      <trkpt lat="45.83342" lon="4.70535">
        <ele>302.45624</ele>
        <time>2023-07-10T16:28:47.000Z</time>
      </trkpt>
      <trkpt lat="45.83342" lon="4.70544">
        <ele>302.61099</ele>
        <time>2023-07-10T16:28:48.000Z</time>
      </trkpt>
      <trkpt lat="45.83343" lon="4.70552">
        <ele>302.78821</ele>
        <time>2023-07-10T16:28:49.000Z</time>
      </trkpt>
      <trkpt lat="45.83345" lon="4.7056">
        <ele>302.9613</ele>
        <time>2023-07-10T16:28:50.000Z</time>
      </trkpt>
      <trkpt lat="45.83345" lon="4.70568">
        <ele>303.09827</ele>
        <time>2023-07-10T16:28:51.000Z</time>
      </trkpt>
      <trkpt lat="45.83345" lon="4.70575">
        <ele>303.21881</ele>
        <time>2023-07-10T16:28:52.000Z</time>
      </trkpt>
      <trkpt lat="45.83346" lon="4.70584">
        <ele>303.31329</ele>
        <time>2023-07-10T16:28:53.000Z</time>
      </trkpt>
      <trkpt lat="45.83347" lon="4.70592">
        <ele>303.43069</ele>
        <time>2023-07-10T16:28:54.000Z</time>
      </trkpt>
      <trkpt lat="45.83347" lon="4.70599">
        <ele>303.53546</ele>
        <time>2023-07-10T16:28:55.000Z</time>
      </trkpt>
      <trkpt lat="45.83348" lon="4.70609">
        <ele>303.67203</ele>
        <time>2023-07-10T16:28:56.000Z</time>
      </trkpt>
      <trkpt lat="45.83347" lon="4.70618">
        <ele>303.84406</ele>
        <time>2023-07-10T16:28:57.000Z</time>
      </trkpt>
      <trkpt lat="45.83346" lon="4.70625">
        <ele>303.99609</ele>
        <time>2023-07-10T16:28:58.000Z</time>
      </trkpt>
      <trkpt lat="45.83346" lon="4.70633">
        <ele>304.1235</ele>
        <time>2023-07-10T16:28:59.000Z</time>
      </trkpt>
      <trkpt lat="45.83346" lon="4.70642">
        <ele>304.23694</ele>
        <time>2023-07-10T16:29:00.000Z</time>
      </trkpt>
      <trkpt lat="45.83346" lon="4.70649">
        <ele>304.397</ele>
        <time>2023-07-10T16:29:01.000Z</time>
      </trkpt>
      <trkpt lat="45.83344" lon="4.70656">
        <ele>304.60269</ele>
        <time>2023-07-10T16:29:02.000Z</time>
      </trkpt>
      <trkpt lat="45.83345" lon="4.70663">
        <ele>304.827</ele>
        <time>2023-07-10T16:29:03.000Z</time>
      </trkpt>
      <trkpt lat="45.83344" lon="4.70671">
        <ele>305.11047</ele>
        <time>2023-07-10T16:29:04.000Z</time>
      </trkpt>
      <trkpt lat="45.83343" lon="4.70679">
        <ele>305.79736</ele>
        <time>2023-07-10T16:29:05.000Z</time>
      </trkpt>
      <trkpt lat="45.83343" lon="4.70687">
        <ele>306.23492</ele>
        <time>2023-07-10T16:29:06.000Z</time>
      </trkpt>
      <trkpt lat="45.83343" lon="4.70695">
        <ele>306.69318</ele>
        <time>2023-07-10T16:29:07.000Z</time>
      </trkpt>
      <trkpt lat="45.83343" lon="4.70702">
        <ele>307.14807</ele>
        <time>2023-07-10T16:29:08.000Z</time>
      </trkpt>
      <trkpt lat="45.83343" lon="4.70711">
        <ele>307.5932</ele>
        <time>2023-07-10T16:29:09.000Z</time>
      </trkpt>
      <trkpt lat="45.83342" lon="4.70718">
        <ele>308.14706</ele>
        <time>2023-07-10T16:29:10.000Z</time>
      </trkpt>
      <trkpt lat="45.83341" lon="4.70726">
        <ele>308.75073</ele>
        <time>2023-07-10T16:29:11.000Z</time>
      </trkpt>
      <trkpt lat="45.83341" lon="4.70734">
        <ele>309.38852</ele>
        <time>2023-07-10T16:29:12.000Z</time>
      </trkpt>
      <trkpt lat="45.83341" lon="4.70743">
        <ele>310.03442</ele>
        <time>2023-07-10T16:29:13.000Z</time>
      </trkpt>
      <trkpt lat="45.83341" lon="4.70752">
        <ele>310.69315</ele>
        <time>2023-07-10T16:29:14.000Z</time>
      </trkpt>
      <trkpt lat="45.8334" lon="4.70761">
        <ele>311.3045</ele>
        <time>2023-07-10T16:29:15.000Z</time>
      </trkpt>
      <trkpt lat="45.8334" lon="4.70769">
        <ele>311.95557</ele>
        <time>2023-07-10T16:29:16.000Z</time>
      </trkpt>
      <trkpt lat="45.8334" lon="4.70776">
        <ele>312.685</ele>
        <time>2023-07-10T16:29:17.000Z</time>
      </trkpt>
      <trkpt lat="45.83338" lon="4.70784">
        <ele>313.46387</ele>
        <time>2023-07-10T16:29:18.000Z</time>
      </trkpt>
      <trkpt lat="45.83338" lon="4.70791">
        <ele>314.18802</ele>
        <time>2023-07-10T16:29:19.000Z</time>
      </trkpt>
      <trkpt lat="45.83337" lon="4.70799">
        <ele>314.85074</ele>
        <time>2023-07-10T16:29:20.000Z</time>
      </trkpt>
      <trkpt lat="45.83338" lon="4.70806">
        <ele>315.50543</ele>
        <time>2023-07-10T16:29:21.000Z</time>
      </trkpt>
      <trkpt lat="45.83337" lon="4.70815">
        <ele>316.06732</ele>
        <time>2023-07-10T16:29:22.000Z</time>
      </trkpt>
      <trkpt lat="45.83336" lon="4.70822">
        <ele>316.09955</ele>
        <time>2023-07-10T16:29:23.000Z</time>
      </trkpt>
      <trkpt lat="45.83333" lon="4.70828">
        <ele>316.13272</ele>
        <time>2023-07-10T16:29:24.000Z</time>
      </trkpt>
      <trkpt lat="45.83334" lon="4.70836">
        <ele>315.75427</ele>
        <time>2023-07-10T16:29:25.000Z</time>
      </trkpt>
      <trkpt lat="45.83334" lon="4.70843">
        <ele>315.41635</ele>
        <time>2023-07-10T16:29:26.000Z</time>
      </trkpt>
      <trkpt lat="45.83333" lon="4.7085">
        <ele>315.0293</ele>
        <time>2023-07-10T16:29:27.000Z</time>
      </trkpt>
      <trkpt lat="45.83332" lon="4.70855">
        <ele>314.63531</ele>
        <time>2023-07-10T16:29:28.000Z</time>
      </trkpt>
      <trkpt lat="45.83331" lon="4.70863">
        <ele>314.27521</ele>
        <time>2023-07-10T16:29:29.000Z</time>
      </trkpt>
      <trkpt lat="45.8333" lon="4.7087">
        <ele>313.77945</ele>
        <time>2023-07-10T16:29:30.000Z</time>
      </trkpt>
      <trkpt lat="45.83329" lon="4.70872">
        <ele>313.26471</ele>
        <time>2023-07-10T16:29:31.000Z</time>
      </trkpt>
      <trkpt lat="45.83328" lon="4.70874">
        <ele>312.70267</ele>
        <time>2023-07-10T16:29:34.000Z</time>
      </trkpt>
    </trkseg>
  </trk>
</gpx>